<?xml version='1.0' encoding='UTF-8'?><gpx version="1.1" creator="JPX - https://github.com/jenetics/jpx" xmlns="http://www.topografix.com/GPX/1/1"><trk><trkseg><trkpt lat="39.43921258968203" lon="9.54182644078137"><ele>15.0</ele><time>2026-03-28T08:04:09.928Z</time></trkpt><trkpt lat="39.43922117537813" lon="9.541629147394437"><ele>15.0</ele><time>2026-03-28T08:04:10.558Z</time></trkpt><trkpt lat="39.43924033667793" lon="9.54154235810774"><ele>15.0</ele><time>2026-03-28T08:04:11.8Z</time></trkpt><trkpt lat="39.4392382822391" lon="9.541454098404799"><ele>15.0</ele><time>2026-03-28T08:04:13.6Z</time></trkpt><trkpt lat="39.43923332644431" lon="9.541336688367299"><ele>15.0</ele><time>2026-03-28T08:04:15Z</time></trkpt><trkpt lat="39.43923387768715" lon="9.541226015128728"><ele>15.166666666666666</ele><time>2026-03-28T08:04:16.5Z</time></trkpt><trkpt lat="39.439243552097764" lon="9.541132198214225"><ele>15.333333333333332</ele><time>2026-03-28T08:04:18Z</time></trkpt><trkpt lat="39.439235114877334" lon="9.541038251448533"><ele>15.5</ele><time>2026-03-28T08:04:22Z</time></trkpt><trkpt lat="39.439163822341634" lon="9.541004991766403"><ele>15.666666666666666</ele><time>2026-03-28T08:04:24.5Z</time></trkpt><trkpt lat="39.43907407957222" lon="9.54098273607828"><ele>15.833333333333332</ele><time>2026-03-28T08:04:26.5Z</time></trkpt><trkpt lat="39.43898748372108" lon="9.540980522450333"><ele>16.0</ele><time>2026-03-28T08:04:28Z</time></trkpt><trkpt lat="39.43888619293463" lon="9.540972034328407"><ele>15.999999999999998</ele><time>2026-03-28T08:04:29.5Z</time></trkpt><trkpt lat="39.438775393720086" lon="9.540969555397089"><ele>16.0</ele><time>2026-03-28T08:04:31Z</time></trkpt><trkpt lat="39.438710371068815" lon="9.540954719511221"><ele>16.0</ele><time>2026-03-28T08:04:32Z</time></trkpt><trkpt lat="39.438638839747654" lon="9.540916067028277"><ele>16.0</ele><time>2026-03-28T08:04:33Z</time></trkpt><trkpt lat="39.43853183995801" lon="9.540884495824487"><ele>15.999999999999998</ele><time>2026-03-28T08:04:34.45Z</time></trkpt><trkpt lat="39.438460885743936" lon="9.540863560176268"><ele>16.0</ele><time>2026-03-28T08:04:35.4Z</time></trkpt><trkpt lat="39.43838790953953" lon="9.54086298879472"><ele>16.0</ele><time>2026-03-28T08:04:36.35Z</time></trkpt><trkpt lat="39.43832628454493" lon="9.54084220501331"><ele>16.0</ele><time>2026-03-28T08:04:37.3Z</time></trkpt><trkpt lat="39.43822428714212" lon="9.540792391948987"><ele>16.0</ele><time>2026-03-28T08:04:39.2Z</time></trkpt><trkpt lat="39.43819637611562" lon="9.540998876887299"><ele>16.0</ele><time>2026-03-28T08:04:42.05Z</time></trkpt><trkpt lat="39.43821823797095" lon="9.541166916942265"><ele>16.0</ele><time>2026-03-28T08:04:44Z</time></trkpt><trkpt lat="39.4382242479297" lon="9.541260420312588"><ele>15.999999999999998</ele><time>2026-03-28T08:04:45Z</time></trkpt><trkpt lat="39.438233235188896" lon="9.5413617066912"><ele>16.0</ele><time>2026-03-28T08:04:46Z</time></trkpt><trkpt lat="39.43824142601595" lon="9.54145922803219"><ele>16.0</ele><time>2026-03-28T08:04:47Z</time></trkpt><trkpt lat="39.4382483131071" lon="9.541553674355713"><ele>15.999999999999998</ele><time>2026-03-28T08:04:48Z</time></trkpt><trkpt lat="39.43825473011256" lon="9.54164739237096"><ele>16.0</ele><time>2026-03-28T08:04:49Z</time></trkpt><trkpt lat="39.438255655777276" lon="9.541744530913023"><ele>16.0</ele><time>2026-03-28T08:04:50Z</time></trkpt><trkpt lat="39.43826450759297" lon="9.541841252370066"><ele>16.0</ele><time>2026-03-28T08:04:51Z</time></trkpt><trkpt lat="39.43826863321679" lon="9.541939489765467"><ele>15.999999999999998</ele><time>2026-03-28T08:04:52Z</time></trkpt><trkpt lat="39.438274333550424" lon="9.542039050155653"><ele>16.0</ele><time>2026-03-28T08:04:53Z</time></trkpt><trkpt lat="39.43827842796714" lon="9.542135088762638"><ele>16.0</ele><time>2026-03-28T08:04:54Z</time></trkpt><trkpt lat="39.43828264486556" lon="9.542228280470223"><ele>15.999999999999998</ele><time>2026-03-28T08:04:55Z</time></trkpt><trkpt lat="39.43829101344315" lon="9.542317252689319"><ele>16.0</ele><time>2026-03-28T08:04:56Z</time></trkpt><trkpt lat="39.43829341268719" lon="9.5423999945268"><ele>16.0</ele><time>2026-03-28T08:04:57Z</time></trkpt><trkpt lat="39.438288620302345" lon="9.542498877165963"><ele>15.999999999999998</ele><time>2026-03-28T08:05:13Z</time></trkpt><trkpt lat="39.438202430401276" lon="9.54251746984805"><ele>16.0</ele><time>2026-03-28T08:05:15Z</time></trkpt><trkpt lat="39.438130904945446" lon="9.542527638394667"><ele>16.0</ele><time>2026-03-28T08:05:16Z</time></trkpt><trkpt lat="39.438063983275626" lon="9.542557744279986"><ele>16.0</ele><time>2026-03-28T08:05:17Z</time></trkpt><trkpt lat="39.437992802528285" lon="9.542564843458052"><ele>15.999999999999998</ele><time>2026-03-28T08:05:18Z</time></trkpt><trkpt lat="39.4379165969027" lon="9.542569707159606"><ele>16.0</ele><time>2026-03-28T08:05:19Z</time></trkpt><trkpt lat="39.437838216638205" lon="9.542578197463666"><ele>15.857142857142856</ele><time>2026-03-28T08:05:20Z</time></trkpt><trkpt lat="39.43776419082653" lon="9.542596406756248"><ele>15.714285714285712</ele><time>2026-03-28T08:05:21Z</time></trkpt><trkpt lat="39.437694578845985" lon="9.542628760161609"><ele>15.571428571428571</ele><time>2026-03-28T08:05:22Z</time></trkpt><trkpt lat="39.437634595876794" lon="9.542676993244521"><ele>15.428571428571427</ele><time>2026-03-28T08:05:23Z</time></trkpt><trkpt lat="39.437580699032466" lon="9.542729543598147"><ele>15.285714285714285</ele><time>2026-03-28T08:05:24Z</time></trkpt><trkpt lat="39.43752570741536" lon="9.542782219228664"><ele>15.142857142857142</ele><time>2026-03-28T08:05:25Z</time></trkpt><trkpt lat="39.43747017892051" lon="9.542835242450558"><ele>15.0</ele><time>2026-03-28T08:05:26Z</time></trkpt><trkpt lat="39.43741461185615" lon="9.54288972399187"><ele>15.0</ele><time>2026-03-28T08:05:27Z</time></trkpt><trkpt lat="39.437361541327206" lon="9.542943582726247"><ele>15.0</ele><time>2026-03-28T08:05:28Z</time></trkpt><trkpt lat="39.43730907023584" lon="9.542992373511256"><ele>15.0</ele><time>2026-03-28T08:05:29Z</time></trkpt><trkpt lat="39.43725252084195" lon="9.543045581347219"><ele>15.0</ele><time>2026-03-28T08:05:30Z</time></trkpt><trkpt lat="39.437190537424286" lon="9.543104092550363"><ele>15.0</ele><time>2026-03-28T08:05:31Z</time></trkpt><trkpt lat="39.43712474483615" lon="9.543168131782341"><ele>15.0</ele><time>2026-03-28T08:05:32Z</time></trkpt><trkpt lat="39.437056968835314" lon="9.543235536442067"><ele>15.0</ele><time>2026-03-28T08:05:33Z</time></trkpt><trkpt lat="39.43698838401698" lon="9.5433054764088"><ele>15.0</ele><time>2026-03-28T08:05:34Z</time></trkpt><trkpt lat="39.4369156547988" lon="9.543375975922862"><ele>15.0</ele><time>2026-03-28T08:05:35Z</time></trkpt><trkpt lat="39.436839902080884" lon="9.543444965292238"><ele>15.0</ele><time>2026-03-28T08:05:36Z</time></trkpt><trkpt lat="39.43676545752572" lon="9.543515366697147"><ele>15.0</ele><time>2026-03-28T08:05:37Z</time></trkpt><trkpt lat="39.43670023662763" lon="9.543596360473815"><ele>15.0</ele><time>2026-03-28T08:05:38Z</time></trkpt><trkpt lat="39.43665040803406" lon="9.543689856150033"><ele>14.666666666666666</ele><time>2026-03-28T08:05:39Z</time></trkpt><trkpt lat="39.436616292967834" lon="9.543791906145472"><ele>14.333333333333332</ele><time>2026-03-28T08:05:40Z</time></trkpt><trkpt lat="39.436598376570025" lon="9.543896225310522"><ele>14.0</ele><time>2026-03-28T08:05:41Z</time></trkpt><trkpt lat="39.43659179361928" lon="9.544000000226735"><ele>13.666666666666666</ele><time>2026-03-28T08:05:42Z</time></trkpt><trkpt lat="39.43658850714628" lon="9.54410079620538"><ele>13.333333333333332</ele><time>2026-03-28T08:05:43Z</time></trkpt><trkpt lat="39.43658135717108" lon="9.544204632114104"><ele>13.0</ele><time>2026-03-28T08:05:44Z</time></trkpt><trkpt lat="39.43656885067719" lon="9.544309772202931"><ele>12.999999999999998</ele><time>2026-03-28T08:05:45Z</time></trkpt><trkpt lat="39.43655524116983" lon="9.544418044532867"><ele>13.0</ele><time>2026-03-28T08:05:46Z</time></trkpt><trkpt lat="39.43654614832489" lon="9.544528946192965"><ele>13.0</ele><time>2026-03-28T08:05:47Z</time></trkpt><trkpt lat="39.436536189513966" lon="9.544640628028436"><ele>13.0</ele><time>2026-03-28T08:05:48Z</time></trkpt><trkpt lat="39.43652424375754" lon="9.544752364099635"><ele>12.999999999999998</ele><time>2026-03-28T08:05:49Z</time></trkpt><trkpt lat="39.436510970216894" lon="9.544861329228366"><ele>13.0</ele><time>2026-03-28T08:05:50Z</time></trkpt><trkpt lat="39.436496296657936" lon="9.544974184454562"><ele>13.0</ele><time>2026-03-28T08:05:51Z</time></trkpt><trkpt lat="39.43648069806749" lon="9.545089291890807"><ele>13.0</ele><time>2026-03-28T08:05:52Z</time></trkpt><trkpt lat="39.436460447028914" lon="9.545204280378144"><ele>13.0</ele><time>2026-03-28T08:05:53Z</time></trkpt><trkpt lat="39.436438269465405" lon="9.545324089584096"><ele>13.0</ele><time>2026-03-28T08:05:54Z</time></trkpt><trkpt lat="39.43641362740263" lon="9.545443265343467"><ele>13.0</ele><time>2026-03-28T08:05:55Z</time></trkpt><trkpt lat="39.43638691070013" lon="9.545569298079025"><ele>12.8</ele><time>2026-03-28T08:05:56Z</time></trkpt><trkpt lat="39.436358820247804" lon="9.545700777470405"><ele>12.600000000000001</ele><time>2026-03-28T08:05:57Z</time></trkpt><trkpt lat="39.43632989160353" lon="9.54583665804622"><ele>12.399999999999999</ele><time>2026-03-28T08:05:58Z</time></trkpt><trkpt lat="39.436297391912376" lon="9.545977558569481"><ele>12.2</ele><time>2026-03-28T08:05:59Z</time></trkpt><trkpt lat="39.43626444188035" lon="9.546120536952914"><ele>12.0</ele><time>2026-03-28T08:06:00Z</time></trkpt><trkpt lat="39.43623272571977" lon="9.5462695773684"><ele>11.75</ele><time>2026-03-28T08:06:01Z</time></trkpt><trkpt lat="39.43619752385985" lon="9.546425183182905"><ele>11.5</ele><time>2026-03-28T08:06:02Z</time></trkpt><trkpt lat="39.43616191328292" lon="9.546585507712184"><ele>11.25</ele><time>2026-03-28T08:06:03Z</time></trkpt><trkpt lat="39.43612478354993" lon="9.546745750422089"><ele>11.0</ele><time>2026-03-28T08:06:04Z</time></trkpt><trkpt lat="39.436088657907234" lon="9.546904806177249"><ele>11.25</ele><time>2026-03-28T08:06:05Z</time></trkpt><trkpt lat="39.43605408797901" lon="9.547063172468121"><ele>11.5</ele><time>2026-03-28T08:06:06Z</time></trkpt><trkpt lat="39.43602309772345" lon="9.547220368594546"><ele>11.75</ele><time>2026-03-28T08:06:07Z</time></trkpt><trkpt lat="39.43598917288585" lon="9.5473693099759"><ele>12.0</ele><time>2026-03-28T08:06:08Z</time></trkpt><trkpt lat="39.43595663734398" lon="9.547512792852183"><ele>12.0</ele><time>2026-03-28T08:06:09Z</time></trkpt><trkpt lat="39.435924112215396" lon="9.547649312937367"><ele>12.0</ele><time>2026-03-28T08:06:10Z</time></trkpt><trkpt lat="39.43589360195756" lon="9.547778145974478"><ele>12.0</ele><time>2026-03-28T08:06:11Z</time></trkpt><trkpt lat="39.435863571745074" lon="9.547901039738578"><ele>12.0</ele><time>2026-03-28T08:06:12Z</time></trkpt><trkpt lat="39.43583949951055" lon="9.548015720541073"><ele>12.0</ele><time>2026-03-28T08:06:13Z</time></trkpt><trkpt lat="39.43581536574942" lon="9.548128128916508"><ele>12.0</ele><time>2026-03-28T08:06:14Z</time></trkpt><trkpt lat="39.43579161144657" lon="9.548236744287623"><ele>12.0</ele><time>2026-03-28T08:06:15Z</time></trkpt><trkpt lat="39.435766396479174" lon="9.548349895950492"><ele>12.0</ele><time>2026-03-28T08:06:16Z</time></trkpt><trkpt lat="39.435741497525655" lon="9.548466293833696"><ele>12.0</ele><time>2026-03-28T08:06:17Z</time></trkpt><trkpt lat="39.43571552129236" lon="9.548585950092903"><ele>12.0</ele><time>2026-03-28T08:06:18Z</time></trkpt><trkpt lat="39.43568752494634" lon="9.548705694378155"><ele>11.8</ele><time>2026-03-28T08:06:19Z</time></trkpt><trkpt lat="39.435661151531015" lon="9.548826080232319"><ele>11.6</ele><time>2026-03-28T08:06:20Z</time></trkpt><trkpt lat="39.43563556093761" lon="9.54894644594139"><ele>11.4</ele><time>2026-03-28T08:06:21Z</time></trkpt><trkpt lat="39.435609232380514" lon="9.549062649442122"><ele>11.200000000000001</ele><time>2026-03-28T08:06:22Z</time></trkpt><trkpt lat="39.43558389953865" lon="9.54917609347301"><ele>11.0</ele><time>2026-03-28T08:06:23Z</time></trkpt><trkpt lat="39.435559637699285" lon="9.549285579182479"><ele>11.0</ele><time>2026-03-28T08:06:24Z</time></trkpt><trkpt lat="39.43553705087631" lon="9.549389270094203"><ele>11.0</ele><time>2026-03-28T08:06:25Z</time></trkpt><trkpt lat="39.435515611540616" lon="9.549490002021768"><ele>11.0</ele><time>2026-03-28T08:06:26Z</time></trkpt><trkpt lat="39.43549288079052" lon="9.549590286608609"><ele>11.0</ele><time>2026-03-28T08:06:27Z</time></trkpt><trkpt lat="39.435468757236215" lon="9.549692681622398"><ele>11.0</ele><time>2026-03-28T08:06:28Z</time></trkpt><trkpt lat="39.435445758377135" lon="9.54979859453033"><ele>11.0</ele><time>2026-03-28T08:06:29Z</time></trkpt><trkpt lat="39.435421306022626" lon="9.549908717094459"><ele>11.0</ele><time>2026-03-28T08:06:30Z</time></trkpt><trkpt lat="39.43539702112246" lon="9.55001941428795"><ele>11.0</ele><time>2026-03-28T08:06:31Z</time></trkpt><trkpt lat="39.4353708790447" lon="9.550126085752517"><ele>11.0</ele><time>2026-03-28T08:06:32Z</time></trkpt><trkpt lat="39.43534511411932" lon="9.550230011396254"><ele>11.0</ele><time>2026-03-28T08:06:33Z</time></trkpt><trkpt lat="39.4353209142508" lon="9.550334459029003"><ele>11.0</ele><time>2026-03-28T08:06:34Z</time></trkpt><trkpt lat="39.43529608485341" lon="9.550434525692905"><ele>11.0</ele><time>2026-03-28T08:06:35Z</time></trkpt><trkpt lat="39.43526892267091" lon="9.550524672989074"><ele>11.200000000000001</ele><time>2026-03-28T08:06:36Z</time></trkpt><trkpt lat="39.435243445523184" lon="9.550603442694332"><ele>11.4</ele><time>2026-03-28T08:06:37Z</time></trkpt><trkpt lat="39.43517569843479" lon="9.550725084587745"><ele>11.6</ele><time>2026-03-28T08:06:39Z</time></trkpt><trkpt lat="39.43507871575754" lon="9.550807119689745"><ele>11.8</ele><time>2026-03-28T08:06:41Z</time></trkpt><trkpt lat="39.43497316499261" lon="9.550824476748911"><ele>12.0</ele><time>2026-03-28T08:06:43Z</time></trkpt><trkpt lat="39.43487932693616" lon="9.550815476203436"><ele>12.0</ele><time>2026-03-28T08:06:45Z</time></trkpt><trkpt lat="39.4347890842753" lon="9.550852871660956"><ele>12.0</ele><time>2026-03-28T08:06:47Z</time></trkpt><trkpt lat="39.434741887311716" lon="9.550961991568949"><ele>12.0</ele><time>2026-03-28T08:06:49Z</time></trkpt><trkpt lat="39.43473745436954" lon="9.551087716431022"><ele>12.0</ele><time>2026-03-28T08:06:51Z</time></trkpt><trkpt lat="39.43477310869718" lon="9.551224200937929"><ele>12.0</ele><time>2026-03-28T08:06:53Z</time></trkpt><trkpt lat="39.434698299283184" lon="9.55131750225625"><ele>12.166666666666666</ele><time>2026-03-28T08:06:54Z</time></trkpt><trkpt lat="39.43465159099647" lon="9.551396599380434"><ele>12.333333333333332</ele><time>2026-03-28T08:06:55Z</time></trkpt><trkpt lat="39.434591667749636" lon="9.551468744171212"><ele>12.5</ele><time>2026-03-28T08:06:56Z</time></trkpt><trkpt lat="39.43453268739241" lon="9.551545267492337"><ele>12.666666666666666</ele><time>2026-03-28T08:06:57Z</time></trkpt><trkpt lat="39.434471017292104" lon="9.551620442693178"><ele>12.833333333333332</ele><time>2026-03-28T08:06:58Z</time></trkpt><trkpt lat="39.43440615744987" lon="9.551699204843555"><ele>13.0</ele><time>2026-03-28T08:06:59Z</time></trkpt><trkpt lat="39.4343359019523" lon="9.551786099185659"><ele>13.0</ele><time>2026-03-28T08:07:00Z</time></trkpt><trkpt lat="39.43426450242254" lon="9.551878884320313"><ele>13.0</ele><time>2026-03-28T08:07:01Z</time></trkpt><trkpt lat="39.4341877608242" lon="9.551981396313709"><ele>13.0</ele><time>2026-03-28T08:07:02Z</time></trkpt><trkpt lat="39.43410594779724" lon="9.552090931185074"><ele>13.0</ele><time>2026-03-28T08:07:03Z</time></trkpt><trkpt lat="39.43402007884347" lon="9.552204036561577"><ele>13.0</ele><time>2026-03-28T08:07:04Z</time></trkpt><trkpt lat="39.433924443500395" lon="9.552335178892543"><ele>13.0</ele><time>2026-03-28T08:07:05Z</time></trkpt><trkpt lat="39.43382069754915" lon="9.55246703151126"><ele>13.0</ele><time>2026-03-28T08:07:06Z</time></trkpt><trkpt lat="39.4337061400411" lon="9.552591556687101"><ele>13.0</ele><time>2026-03-28T08:07:07Z</time></trkpt><trkpt lat="39.433594826570534" lon="9.552710212320529"><ele>13.25</ele><time>2026-03-28T08:07:08Z</time></trkpt><trkpt lat="39.433496505452034" lon="9.55282716242019"><ele>13.5</ele><time>2026-03-28T08:07:09Z</time></trkpt><trkpt lat="39.433407726874236" lon="9.55294088529389"><ele>13.75</ele><time>2026-03-28T08:07:10Z</time></trkpt><trkpt lat="39.43332235766689" lon="9.553046491254177"><ele>14.0</ele><time>2026-03-28T08:07:11Z</time></trkpt><trkpt lat="39.433237125531825" lon="9.553150177747503"><ele>13.5</ele><time>2026-03-28T08:07:12Z</time></trkpt><trkpt lat="39.433152772637456" lon="9.55325551686721"><ele>13.0</ele><time>2026-03-28T08:07:13Z</time></trkpt><trkpt lat="39.433061592414546" lon="9.553368720398934"><ele>12.5</ele><time>2026-03-28T08:07:14Z</time></trkpt><trkpt lat="39.432967086641014" lon="9.553504036553687"><ele>12.0</ele><time>2026-03-28T08:07:15Z</time></trkpt><trkpt lat="39.43283857486492" lon="9.553638844159574"><ele>12.0</ele><time>2026-03-28T08:07:16Z</time></trkpt><trkpt lat="39.43272002857673" lon="9.55380985802497"><ele>12.0</ele><time>2026-03-28T08:07:17Z</time></trkpt><trkpt lat="39.43258492896877" lon="9.553948990112275"><ele>12.0</ele><time>2026-03-28T08:07:18Z</time></trkpt><trkpt lat="39.43245123869145" lon="9.554101747803472"><ele>12.0</ele><time>2026-03-28T08:07:19Z</time></trkpt><trkpt lat="39.43231682980538" lon="9.554270836532133"><ele>12.0</ele><time>2026-03-28T08:07:20Z</time></trkpt><trkpt lat="39.43218195272767" lon="9.554447297342797"><ele>12.0</ele><time>2026-03-28T08:07:21Z</time></trkpt><trkpt lat="39.432043927925584" lon="9.554628996049026"><ele>12.0</ele><time>2026-03-28T08:07:22Z</time></trkpt><trkpt lat="39.43190808699704" lon="9.554814514427887"><ele>12.0</ele><time>2026-03-28T08:07:23Z</time></trkpt><trkpt lat="39.43177610172145" lon="9.555002017999506"><ele>12.0</ele><time>2026-03-28T08:07:24Z</time></trkpt><trkpt lat="39.431647506226426" lon="9.555189277876947"><ele>11.666666666666666</ele><time>2026-03-28T08:07:25Z</time></trkpt><trkpt lat="39.43152033152418" lon="9.555378074650644"><ele>11.333333333333332</ele><time>2026-03-28T08:07:26Z</time></trkpt><trkpt lat="39.431395606793124" lon="9.555565739677984"><ele>11.0</ele><time>2026-03-28T08:07:27Z</time></trkpt><trkpt lat="39.431273483449885" lon="9.555753933645189"><ele>11.666666666666666</ele><time>2026-03-28T08:07:28Z</time></trkpt><trkpt lat="39.43115313962322" lon="9.555940230500509"><ele>12.333333333333332</ele><time>2026-03-28T08:07:29Z</time></trkpt><trkpt lat="39.43103310133047" lon="9.556124134569709"><ele>13.0</ele><time>2026-03-28T08:07:30Z</time></trkpt><trkpt lat="39.43091363944617" lon="9.556306536763321"><ele>11.666666666666666</ele><time>2026-03-28T08:07:31Z</time></trkpt><trkpt lat="39.43079616815686" lon="9.55648757184045"><ele>10.333333333333332</ele><time>2026-03-28T08:07:32Z</time></trkpt><trkpt lat="39.43067850543514" lon="9.556666625799407"><ele>9.0</ele><time>2026-03-28T08:07:33Z</time></trkpt><trkpt lat="39.43056311045902" lon="9.556843993980888"><ele>9.0</ele><time>2026-03-28T08:07:34Z</time></trkpt><trkpt lat="39.430448067136986" lon="9.55702296842231"><ele>9.0</ele><time>2026-03-28T08:07:35Z</time></trkpt><trkpt lat="39.430336389102756" lon="9.55719730899795"><ele>9.0</ele><time>2026-03-28T08:07:36Z</time></trkpt><trkpt lat="39.43022614711996" lon="9.557368551444734"><ele>9.0</ele><time>2026-03-28T08:07:37Z</time></trkpt><trkpt lat="39.430113399871765" lon="9.557538092837262"><ele>9.0</ele><time>2026-03-28T08:07:38Z</time></trkpt><trkpt lat="39.43000338600833" lon="9.55770230186709"><ele>9.0</ele><time>2026-03-28T08:07:39Z</time></trkpt><trkpt lat="39.429892112382724" lon="9.55787064042443"><ele>9.0</ele><time>2026-03-28T08:07:40Z</time></trkpt><trkpt lat="39.42978151254905" lon="9.55804252976189"><ele>9.0</ele><time>2026-03-28T08:07:41Z</time></trkpt><trkpt lat="39.42967016749987" lon="9.558214162601683"><ele>9.0</ele><time>2026-03-28T08:07:42Z</time></trkpt><trkpt lat="39.42955475554316" lon="9.558387709453266"><ele>9.0</ele><time>2026-03-28T08:07:43Z</time></trkpt><trkpt lat="39.42944082122565" lon="9.55855915803079"><ele>9.0</ele><time>2026-03-28T08:07:44Z</time></trkpt><trkpt lat="39.429329140696034" lon="9.558730852748683"><ele>9.0</ele><time>2026-03-28T08:07:45Z</time></trkpt><trkpt lat="39.42921878098698" lon="9.558898601002458"><ele>8.333333333333334</ele><time>2026-03-28T08:07:46Z</time></trkpt><trkpt lat="39.42910788295808" lon="9.55906115612454"><ele>7.666666666666667</ele><time>2026-03-28T08:07:47Z</time></trkpt><trkpt lat="39.429000269256605" lon="9.55921618530516"><ele>7.0</ele><time>2026-03-28T08:07:48Z</time></trkpt><trkpt lat="39.428901223221104" lon="9.559364994711771"><ele>7.25</ele><time>2026-03-28T08:07:49Z</time></trkpt><trkpt lat="39.428807508469454" lon="9.559510093150726"><ele>7.5</ele><time>2026-03-28T08:07:50Z</time></trkpt><trkpt lat="39.42872248055947" lon="9.559645463554512"><ele>7.75</ele><time>2026-03-28T08:07:51Z</time></trkpt><trkpt lat="39.42863831760011" lon="9.55975728499713"><ele>8.0</ele><time>2026-03-28T08:07:52Z</time></trkpt><trkpt lat="39.4285697746883" lon="9.55986510322605"><ele>8.200000000000001</ele><time>2026-03-28T08:07:53Z</time></trkpt><trkpt lat="39.42856687202389" lon="9.560018603284476"><ele>8.4</ele><time>2026-03-28T08:07:54Z</time></trkpt><trkpt lat="39.42855621311981" lon="9.560152067645598"><ele>8.600000000000001</ele><time>2026-03-28T08:07:55Z</time></trkpt><trkpt lat="39.428570254019434" lon="9.560289226456208"><ele>8.8</ele><time>2026-03-28T08:07:56Z</time></trkpt><trkpt lat="39.428628145352604" lon="9.5604136732138"><ele>9.0</ele><time>2026-03-28T08:07:57Z</time></trkpt><trkpt lat="39.42871411331017" lon="9.5605064853829"><ele>9.25</ele><time>2026-03-28T08:07:58Z</time></trkpt><trkpt lat="39.428823233344765" lon="9.560563575100463"><ele>9.5</ele><time>2026-03-28T08:07:59Z</time></trkpt><trkpt lat="39.428942166309476" lon="9.560597977521324"><ele>9.75</ele><time>2026-03-28T08:08:00Z</time></trkpt><trkpt lat="39.42906482637275" lon="9.56063875401894"><ele>10.0</ele><time>2026-03-28T08:08:01Z</time></trkpt><trkpt lat="39.429197182187195" lon="9.560653459275503"><ele>10.0</ele><time>2026-03-28T08:08:02Z</time></trkpt><trkpt lat="39.429331021053784" lon="9.560631346240907"><ele>10.0</ele><time>2026-03-28T08:08:03Z</time></trkpt><trkpt lat="39.42945483264561" lon="9.560563241027829"><ele>10.0</ele><time>2026-03-28T08:08:04Z</time></trkpt><trkpt lat="39.42956098759525" lon="9.56045624670534"><ele>10.0</ele><time>2026-03-28T08:08:05Z</time></trkpt><trkpt lat="39.42964721502528" lon="9.560319835627075"><ele>9.25</ele><time>2026-03-28T08:08:06Z</time></trkpt><trkpt lat="39.429705474259144" lon="9.560157747501709"><ele>8.5</ele><time>2026-03-28T08:08:07Z</time></trkpt><trkpt lat="39.42975731593959" lon="9.559988411870703"><ele>7.75</ele><time>2026-03-28T08:08:08Z</time></trkpt><trkpt lat="39.42982332583825" lon="9.559826322187606"><ele>7.0</ele><time>2026-03-28T08:08:09Z</time></trkpt><trkpt lat="39.429907609911346" lon="9.559675492505182"><ele>7.0</ele><time>2026-03-28T08:08:10Z</time></trkpt><trkpt lat="39.43000414882306" lon="9.55953940334968"><ele>7.0</ele><time>2026-03-28T08:08:11Z</time></trkpt><trkpt lat="39.43011519044156" lon="9.55942114416437"><ele>7.0</ele><time>2026-03-28T08:08:12Z</time></trkpt><trkpt lat="39.43024145610429" lon="9.559329975520747"><ele>7.0</ele><time>2026-03-28T08:08:13Z</time></trkpt><trkpt lat="39.43038241957293" lon="9.55926462723715"><ele>7.333333333333334</ele><time>2026-03-28T08:08:14Z</time></trkpt><trkpt lat="39.43052580744878" lon="9.559202858757915"><ele>7.666666666666666</ele><time>2026-03-28T08:08:15Z</time></trkpt><trkpt lat="39.430690706581565" lon="9.559210217273762"><ele>8.0</ele><time>2026-03-28T08:08:16Z</time></trkpt><trkpt lat="39.430848230370415" lon="9.559192303896003"><ele>8.0</ele><time>2026-03-28T08:08:17Z</time></trkpt><trkpt lat="39.431007383101424" lon="9.55916851459942"><ele>8.0</ele><time>2026-03-28T08:08:18Z</time></trkpt><trkpt lat="39.43117134734378" lon="9.559147667294248"><ele>8.0</ele><time>2026-03-28T08:08:19Z</time></trkpt><trkpt lat="39.4313363539782" lon="9.559127175779327"><ele>7.666666666666666</ele><time>2026-03-28T08:08:20Z</time></trkpt><trkpt lat="39.43150737062619" lon="9.559104571395428"><ele>7.333333333333334</ele><time>2026-03-28T08:08:21Z</time></trkpt><trkpt lat="39.43168193207467" lon="9.55908569115706"><ele>7.0</ele><time>2026-03-28T08:08:22Z</time></trkpt><trkpt lat="39.4318570749213" lon="9.559070334938287"><ele>7.0</ele><time>2026-03-28T08:08:23Z</time></trkpt><trkpt lat="39.43203360839301" lon="9.559055772214192"><ele>7.0</ele><time>2026-03-28T08:08:24Z</time></trkpt><trkpt lat="39.432230770798654" lon="9.55903045042342"><ele>7.0</ele><time>2026-03-28T08:08:25Z</time></trkpt><trkpt lat="39.43242084437651" lon="9.559009632958341"><ele>7.0</ele><time>2026-03-28T08:08:26Z</time></trkpt><trkpt lat="39.43261480372688" lon="9.558988647397905"><ele>7.0</ele><time>2026-03-28T08:08:27Z</time></trkpt><trkpt lat="39.43281420505589" lon="9.55896702999818"><ele>7.0</ele><time>2026-03-28T08:08:28Z</time></trkpt><trkpt lat="39.43302296103902" lon="9.558944107149802"><ele>7.0</ele><time>2026-03-28T08:08:29Z</time></trkpt><trkpt lat="39.43323496146299" lon="9.55891883774852"><ele>7.0</ele><time>2026-03-28T08:08:30Z</time></trkpt><trkpt lat="39.433451458435286" lon="9.558893583374875"><ele>7.0</ele><time>2026-03-28T08:08:31Z</time></trkpt><trkpt lat="39.43367056780572" lon="9.558869362080863"><ele>7.333333333333334</ele><time>2026-03-28T08:08:32Z</time></trkpt><trkpt lat="39.43388985503539" lon="9.558846674279334"><ele>7.666666666666666</ele><time>2026-03-28T08:08:33Z</time></trkpt><trkpt lat="39.43410903545684" lon="9.558823848805227"><ele>8.0</ele><time>2026-03-28T08:08:34Z</time></trkpt><trkpt lat="39.43432918319071" lon="9.558800962513356"><ele>8.0</ele><time>2026-03-28T08:08:35Z</time></trkpt><trkpt lat="39.43454874676809" lon="9.558776966871937"><ele>8.0</ele><time>2026-03-28T08:08:36Z</time></trkpt><trkpt lat="39.43477003628436" lon="9.558752808305965"><ele>8.0</ele><time>2026-03-28T08:08:37Z</time></trkpt><trkpt lat="39.43499175658405" lon="9.558730346747783"><ele>8.0</ele><time>2026-03-28T08:08:38Z</time></trkpt><trkpt lat="39.43521080479761" lon="9.558707570278509"><ele>8.0</ele><time>2026-03-28T08:08:39Z</time></trkpt><trkpt lat="39.43542927842625" lon="9.558684937903628"><ele>8.0</ele><time>2026-03-28T08:08:40Z</time></trkpt><trkpt lat="39.43564855018427" lon="9.558662503589563"><ele>8.0</ele><time>2026-03-28T08:08:41Z</time></trkpt><trkpt lat="39.43586305619799" lon="9.558639406605181"><ele>8.0</ele><time>2026-03-28T08:08:42Z</time></trkpt><trkpt lat="39.43607809366654" lon="9.55861568603272"><ele>8.0</ele><time>2026-03-28T08:08:43Z</time></trkpt><trkpt lat="39.436291691797045" lon="9.558592758696664"><ele>8.0</ele><time>2026-03-28T08:08:44Z</time></trkpt><trkpt lat="39.43650288387563" lon="9.55856812513874"><ele>8.0</ele><time>2026-03-28T08:08:45Z</time></trkpt><trkpt lat="39.436711586204225" lon="9.558544177156682"><ele>8.0</ele><time>2026-03-28T08:08:46Z</time></trkpt><trkpt lat="39.43691178058351" lon="9.558523661348186"><ele>8.0</ele><time>2026-03-28T08:08:47Z</time></trkpt><trkpt lat="39.437107489185465" lon="9.558504318475523"><ele>8.0</ele><time>2026-03-28T08:08:48Z</time></trkpt><trkpt lat="39.43729612422857" lon="9.558487649841439"><ele>8.0</ele><time>2026-03-28T08:08:49Z</time></trkpt><trkpt lat="39.43747925144689" lon="9.558472728162538"><ele>8.5</ele><time>2026-03-28T08:08:50Z</time></trkpt><trkpt lat="39.43765783057154" lon="9.55845932411482"><ele>9.0</ele><time>2026-03-28T08:08:51Z</time></trkpt><trkpt lat="39.43793566979628" lon="9.558421683532304"><ele>9.0</ele><time>2026-03-28T08:08:52Z</time></trkpt><trkpt lat="39.43813140791669" lon="9.55840990583244"><ele>9.0</ele><time>2026-03-28T08:08:53Z</time></trkpt><trkpt lat="39.43832428827216" lon="9.558398183329386"><ele>9.0</ele><time>2026-03-28T08:08:54Z</time></trkpt><trkpt lat="39.43852144052892" lon="9.558385687574923"><ele>9.0</ele><time>2026-03-28T08:08:55Z</time></trkpt><trkpt lat="39.43872026717427" lon="9.5583789219075"><ele>9.0</ele><time>2026-03-28T08:08:56Z</time></trkpt><trkpt lat="39.43891874489682" lon="9.558380833718198"><ele>9.0</ele><time>2026-03-28T08:08:57Z</time></trkpt><trkpt lat="39.43911898434024" lon="9.55838602073479"><ele>8.666666666666666</ele><time>2026-03-28T08:08:58Z</time></trkpt><trkpt lat="39.43931905020149" lon="9.55839377971241"><ele>8.333333333333332</ele><time>2026-03-28T08:08:59Z</time></trkpt><trkpt lat="39.43952279300436" lon="9.558408861176355"><ele>8.0</ele><time>2026-03-28T08:09:00Z</time></trkpt><trkpt lat="39.43972482289478" lon="9.55843259068431"><ele>7.333333333333333</ele><time>2026-03-28T08:09:01Z</time></trkpt><trkpt lat="39.43993191775689" lon="9.558460055750473"><ele>6.666666666666666</ele><time>2026-03-28T08:09:02Z</time></trkpt><trkpt lat="39.440133343225895" lon="9.55849714818867"><ele>6.0</ele><time>2026-03-28T08:09:03Z</time></trkpt><trkpt lat="39.440339211020266" lon="9.55854286289295"><ele>6.666666666666666</ele><time>2026-03-28T08:09:04Z</time></trkpt><trkpt lat="39.4405421409306" lon="9.558598782798065"><ele>7.333333333333333</ele><time>2026-03-28T08:09:05Z</time></trkpt><trkpt lat="39.44074049818533" lon="9.55866682005415"><ele>8.0</ele><time>2026-03-28T08:09:06Z</time></trkpt><trkpt lat="39.44093937868509" lon="9.558740671255926"><ele>8.333333333333332</ele><time>2026-03-28T08:09:07Z</time></trkpt><trkpt lat="39.44113785444329" lon="9.558822044830231"><ele>8.666666666666666</ele><time>2026-03-28T08:09:08Z</time></trkpt><trkpt lat="39.44133553055924" lon="9.558909011895349"><ele>9.0</ele><time>2026-03-28T08:09:09Z</time></trkpt><trkpt lat="39.44153158393448" lon="9.559002978941587"><ele>9.666666666666666</ele><time>2026-03-28T08:09:10Z</time></trkpt><trkpt lat="39.44172235357352" lon="9.559104537591876"><ele>10.333333333333332</ele><time>2026-03-28T08:09:11Z</time></trkpt><trkpt lat="39.44191259980507" lon="9.559212564146714"><ele>11.0</ele><time>2026-03-28T08:09:12Z</time></trkpt><trkpt lat="39.44209744969466" lon="9.55932846033263"><ele>11.666666666666666</ele><time>2026-03-28T08:09:13Z</time></trkpt><trkpt lat="39.44228100449464" lon="9.559450161400287"><ele>12.333333333333332</ele><time>2026-03-28T08:09:14Z</time></trkpt><trkpt lat="39.44245584342835" lon="9.559589065741926"><ele>13.0</ele><time>2026-03-28T08:09:15Z</time></trkpt><trkpt lat="39.44263510212578" lon="9.559724337397636"><ele>13.0</ele><time>2026-03-28T08:09:16Z</time></trkpt><trkpt lat="39.442808019164154" lon="9.559865421512017"><ele>13.0</ele><time>2026-03-28T08:09:17Z</time></trkpt><trkpt lat="39.44298392796598" lon="9.560009493392416"><ele>13.0</ele><time>2026-03-28T08:09:18Z</time></trkpt><trkpt lat="39.443151463452025" lon="9.56017213995649"><ele>14.333333333333332</ele><time>2026-03-28T08:09:19Z</time></trkpt><trkpt lat="39.443321804480654" lon="9.560336353304416"><ele>15.666666666666668</ele><time>2026-03-28T08:09:20Z</time></trkpt><trkpt lat="39.44348623269227" lon="9.560502417302413"><ele>17.0</ele><time>2026-03-28T08:09:21Z</time></trkpt><trkpt lat="39.443654579078576" lon="9.560665100834182"><ele>20.333333333333336</ele><time>2026-03-28T08:09:22Z</time></trkpt><trkpt lat="39.44381614014785" lon="9.560837770376017"><ele>23.666666666666668</ele><time>2026-03-28T08:09:23Z</time></trkpt><trkpt lat="39.44396468372445" lon="9.561014300423388"><ele>27.0</ele><time>2026-03-28T08:09:24Z</time></trkpt><trkpt lat="39.44412098607804" lon="9.56118725643457"><ele>24.333333333333332</ele><time>2026-03-28T08:09:25Z</time></trkpt><trkpt lat="39.44428432387792" lon="9.561367122764493"><ele>21.666666666666664</ele><time>2026-03-28T08:09:26Z</time></trkpt><trkpt lat="39.44443780258139" lon="9.56153788391147"><ele>19.0</ele><time>2026-03-28T08:09:27Z</time></trkpt><trkpt lat="39.44459007423879" lon="9.561716935730054"><ele>19.0</ele><time>2026-03-28T08:09:28Z</time></trkpt><trkpt lat="39.444746649774544" lon="9.561894707096235"><ele>19.0</ele><time>2026-03-28T08:09:29Z</time></trkpt><trkpt lat="39.44490287510382" lon="9.562078760164901"><ele>19.0</ele><time>2026-03-28T08:09:30Z</time></trkpt><trkpt lat="39.44505449133993" lon="9.562258704993525"><ele>19.0</ele><time>2026-03-28T08:09:31Z</time></trkpt><trkpt lat="39.44521064646657" lon="9.562442213057032"><ele>19.0</ele><time>2026-03-28T08:09:32Z</time></trkpt><trkpt lat="39.44537428945525" lon="9.562625299586616"><ele>19.0</ele><time>2026-03-28T08:09:33Z</time></trkpt><trkpt lat="39.445534579842885" lon="9.562808897268363"><ele>20.0</ele><time>2026-03-28T08:09:34Z</time></trkpt><trkpt lat="39.44569568010089" lon="9.562986909333867"><ele>21.0</ele><time>2026-03-28T08:09:35Z</time></trkpt><trkpt lat="39.445856558002326" lon="9.563168890911312"><ele>22.0</ele><time>2026-03-28T08:09:36Z</time></trkpt><trkpt lat="39.44601747436111" lon="9.56335257902614"><ele>22.0</ele><time>2026-03-28T08:09:37Z</time></trkpt><trkpt lat="39.44617917856327" lon="9.56353584121229"><ele>22.0</ele><time>2026-03-28T08:09:38Z</time></trkpt><trkpt lat="39.44633656506917" lon="9.563717447418513"><ele>22.0</ele><time>2026-03-28T08:09:39Z</time></trkpt><trkpt lat="39.446489307246274" lon="9.56390135236062"><ele>25.333333333333332</ele><time>2026-03-28T08:09:40Z</time></trkpt><trkpt lat="39.44664796719459" lon="9.564082526820002"><ele>28.666666666666664</ele><time>2026-03-28T08:09:41Z</time></trkpt><trkpt lat="39.44681031007077" lon="9.564262443843006"><ele>32.0</ele><time>2026-03-28T08:09:42Z</time></trkpt><trkpt lat="39.44697204284674" lon="9.564430435804685"><ele>32.33333333333333</ele><time>2026-03-28T08:09:43Z</time></trkpt><trkpt lat="39.44713737304498" lon="9.564598054895553"><ele>32.666666666666664</ele><time>2026-03-28T08:09:44Z</time></trkpt><trkpt lat="39.44729941686102" lon="9.564757607129371"><ele>33.0</ele><time>2026-03-28T08:09:45Z</time></trkpt><trkpt lat="39.447463121111745" lon="9.564913524550114"><ele>33.0</ele><time>2026-03-28T08:09:46Z</time></trkpt><trkpt lat="39.44762875414626" lon="9.56506525491211"><ele>33.0</ele><time>2026-03-28T08:09:47Z</time></trkpt><trkpt lat="39.44779593375196" lon="9.565211333614355"><ele>33.0</ele><time>2026-03-28T08:09:48Z</time></trkpt><trkpt lat="39.44796069799682" lon="9.565353738658752"><ele>34.0</ele><time>2026-03-28T08:09:49Z</time></trkpt><trkpt lat="39.4481265569862" lon="9.565491911768836"><ele>35.0</ele><time>2026-03-28T08:09:50Z</time></trkpt><trkpt lat="39.44829901665551" lon="9.56562932961599"><ele>36.0</ele><time>2026-03-28T08:09:51Z</time></trkpt><trkpt lat="39.44847233405332" lon="9.565761580507813"><ele>36.0</ele><time>2026-03-28T08:09:52Z</time></trkpt><trkpt lat="39.448650765532804" lon="9.565891193740166"><ele>36.0</ele><time>2026-03-28T08:09:53Z</time></trkpt><trkpt lat="39.44883038665934" lon="9.566018269677297"><ele>36.0</ele><time>2026-03-28T08:09:54Z</time></trkpt><trkpt lat="39.44901116941704" lon="9.566145930008002"><ele>36.333333333333336</ele><time>2026-03-28T08:09:55Z</time></trkpt><trkpt lat="39.44919215081238" lon="9.566275273771357"><ele>36.66666666666667</ele><time>2026-03-28T08:09:56Z</time></trkpt><trkpt lat="39.44937431445617" lon="9.566405304526945"><ele>37.0</ele><time>2026-03-28T08:09:57Z</time></trkpt><trkpt lat="39.44955405569578" lon="9.566534601977315"><ele>38.66666666666667</ele><time>2026-03-28T08:09:58Z</time></trkpt><trkpt lat="39.44973803123933" lon="9.566662830262258"><ele>40.333333333333336</ele><time>2026-03-28T08:09:59Z</time></trkpt><trkpt lat="39.44991771460626" lon="9.566787946655849"><ele>42.0</ele><time>2026-03-28T08:10:00Z</time></trkpt><trkpt lat="39.45009643361225" lon="9.566913622928528"><ele>41.666666666666664</ele><time>2026-03-28T08:10:01Z</time></trkpt><trkpt lat="39.45027999323427" lon="9.567038585298967"><ele>41.33333333333333</ele><time>2026-03-28T08:10:02Z</time></trkpt><trkpt lat="39.45046058757929" lon="9.567165060588648"><ele>41.0</ele><time>2026-03-28T08:10:03Z</time></trkpt><trkpt lat="39.45064177492327" lon="9.56729242353984"><ele>41.0</ele><time>2026-03-28T08:10:04Z</time></trkpt><trkpt lat="39.45082326774055" lon="9.567422048732316"><ele>41.0</ele><time>2026-03-28T08:10:05Z</time></trkpt><trkpt lat="39.45100767622907" lon="9.567553856316204"><ele>41.0</ele><time>2026-03-28T08:10:06Z</time></trkpt><trkpt lat="39.45119177995366" lon="9.567686365321002"><ele>41.666666666666664</ele><time>2026-03-28T08:10:07Z</time></trkpt><trkpt lat="39.45137653262725" lon="9.56782043185693"><ele>42.333333333333336</ele><time>2026-03-28T08:10:08Z</time></trkpt><trkpt lat="39.45156407371782" lon="9.567959115363996"><ele>43.0</ele><time>2026-03-28T08:10:09Z</time></trkpt><trkpt lat="39.45174922795636" lon="9.56809880938584"><ele>43.0</ele><time>2026-03-28T08:10:10Z</time></trkpt><trkpt lat="39.451932377781894" lon="9.568239895728775"><ele>43.0</ele><time>2026-03-28T08:10:11Z</time></trkpt><trkpt lat="39.45211727792116" lon="9.568381678505393"><ele>43.0</ele><time>2026-03-28T08:10:12Z</time></trkpt><trkpt lat="39.452296481676115" lon="9.568524974487252"><ele>43.66666666666667</ele><time>2026-03-28T08:10:13Z</time></trkpt><trkpt lat="39.45247580353593" lon="9.568673539080638"><ele>44.333333333333336</ele><time>2026-03-28T08:10:14Z</time></trkpt><trkpt lat="39.452650367270294" lon="9.568821183953716"><ele>45.0</ele><time>2026-03-28T08:10:15Z</time></trkpt><trkpt lat="39.452822474864185" lon="9.56897248889036"><ele>48.66666666666667</ele><time>2026-03-28T08:10:16Z</time></trkpt><trkpt lat="39.45299494588641" lon="9.569127163430005"><ele>52.333333333333336</ele><time>2026-03-28T08:10:17Z</time></trkpt><trkpt lat="39.45316437656633" lon="9.569282048450505"><ele>56.0</ele><time>2026-03-28T08:10:18Z</time></trkpt><trkpt lat="39.45333046632088" lon="9.569442101701537"><ele>54.66666666666667</ele><time>2026-03-28T08:10:19Z</time></trkpt><trkpt lat="39.45349694824769" lon="9.569606169045203"><ele>53.33333333333333</ele><time>2026-03-28T08:10:20Z</time></trkpt><trkpt lat="39.453657673923836" lon="9.569772896026027"><ele>52.0</ele><time>2026-03-28T08:10:21Z</time></trkpt><trkpt lat="39.45381632109806" lon="9.569945057815138"><ele>54.0</ele><time>2026-03-28T08:10:22Z</time></trkpt><trkpt lat="39.453971762753156" lon="9.570119166972662"><ele>56.0</ele><time>2026-03-28T08:10:23Z</time></trkpt><trkpt lat="39.454125416606225" lon="9.570298976024297"><ele>58.0</ele><time>2026-03-28T08:10:24Z</time></trkpt><trkpt lat="39.45427361642863" lon="9.570478771616598"><ele>58.0</ele><time>2026-03-28T08:10:25Z</time></trkpt><trkpt lat="39.45442234787344" lon="9.570661096699123"><ele>58.0</ele><time>2026-03-28T08:10:26Z</time></trkpt><trkpt lat="39.45456773347665" lon="9.570847316710534"><ele>58.0</ele><time>2026-03-28T08:10:27Z</time></trkpt><trkpt lat="39.454708572782884" lon="9.571036563967159"><ele>61.0</ele><time>2026-03-28T08:10:28Z</time></trkpt><trkpt lat="39.454847590318046" lon="9.571231082722438"><ele>64.0</ele><time>2026-03-28T08:10:29Z</time></trkpt><trkpt lat="39.454984223039595" lon="9.571426482674545"><ele>67.0</ele><time>2026-03-28T08:10:30Z</time></trkpt><trkpt lat="39.45511835429408" lon="9.571628511406619"><ele>67.0</ele><time>2026-03-28T08:10:31Z</time></trkpt><trkpt lat="39.45524847706431" lon="9.571833579492937"><ele>67.0</ele><time>2026-03-28T08:10:32Z</time></trkpt><trkpt lat="39.45537623500331" lon="9.57203889579804"><ele>67.0</ele><time>2026-03-28T08:10:33Z</time></trkpt><trkpt lat="39.45550341799363" lon="9.572249478550065"><ele>67.33333333333333</ele><time>2026-03-28T08:10:34Z</time></trkpt><trkpt lat="39.45562113268202" lon="9.57246602062766"><ele>67.66666666666667</ele><time>2026-03-28T08:10:35Z</time></trkpt><trkpt lat="39.455735378588926" lon="9.572688534018603"><ele>68.0</ele><time>2026-03-28T08:10:36Z</time></trkpt><trkpt lat="39.45584785209774" lon="9.572913723001665"><ele>68.0</ele><time>2026-03-28T08:10:37Z</time></trkpt><trkpt lat="39.45595995300214" lon="9.57313658734064"><ele>68.0</ele><time>2026-03-28T08:10:38Z</time></trkpt><trkpt lat="39.456069368391475" lon="9.57336432655766"><ele>68.0</ele><time>2026-03-28T08:10:39Z</time></trkpt><trkpt lat="39.45617757495313" lon="9.573592838298149"><ele>66.33333333333334</ele><time>2026-03-28T08:10:40Z</time></trkpt><trkpt lat="39.45627926567298" lon="9.573822587256021"><ele>64.66666666666667</ele><time>2026-03-28T08:10:41Z</time></trkpt><trkpt lat="39.456377356440264" lon="9.574057678719306"><ele>63.0</ele><time>2026-03-28T08:10:42Z</time></trkpt><trkpt lat="39.456472260919696" lon="9.57429465390847"><ele>65.0</ele><time>2026-03-28T08:10:43Z</time></trkpt><trkpt lat="39.45656182021513" lon="9.574533724674227"><ele>67.0</ele><time>2026-03-28T08:10:44Z</time></trkpt><trkpt lat="39.45665025298943" lon="9.57477337601249"><ele>69.0</ele><time>2026-03-28T08:10:45Z</time></trkpt><trkpt lat="39.45673355351357" lon="9.575013305529628"><ele>69.0</ele><time>2026-03-28T08:10:46Z</time></trkpt><trkpt lat="39.45681308082746" lon="9.57525375949383"><ele>69.0</ele><time>2026-03-28T08:10:47Z</time></trkpt><trkpt lat="39.456888212530615" lon="9.575493757939242"><ele>69.0</ele><time>2026-03-28T08:10:48Z</time></trkpt><trkpt lat="39.45695989288898" lon="9.575735263152389"><ele>72.33333333333333</ele><time>2026-03-28T08:10:49Z</time></trkpt><trkpt lat="39.45702919955461" lon="9.575978617589902"><ele>75.66666666666666</ele><time>2026-03-28T08:10:50Z</time></trkpt><trkpt lat="39.45709638125278" lon="9.576224525210513"><ele>79.0</ele><time>2026-03-28T08:10:51Z</time></trkpt><trkpt lat="39.45716232917349" lon="9.57647136367135"><ele>83.66666666666666</ele><time>2026-03-28T08:10:52Z</time></trkpt><trkpt lat="39.45723010156523" lon="9.576716262877705"><ele>88.33333333333333</ele><time>2026-03-28T08:10:53Z</time></trkpt><trkpt lat="39.457299952287215" lon="9.576964211251251"><ele>93.0</ele><time>2026-03-28T08:10:54Z</time></trkpt><trkpt lat="39.45736794683182" lon="9.57720754653684"><ele>100.33333333333334</ele><time>2026-03-28T08:10:55Z</time></trkpt><trkpt lat="39.45741380894987" lon="9.577460222632263"><ele>107.66666666666667</ele><time>2026-03-28T08:10:56Z</time></trkpt><trkpt lat="39.45746557814007" lon="9.577712114337087"><ele>115.0</ele><time>2026-03-28T08:10:57Z</time></trkpt><trkpt lat="39.457513714843145" lon="9.577962518019454"><ele>124.0</ele><time>2026-03-28T08:10:58Z</time></trkpt><trkpt lat="39.45756244356492" lon="9.57822187622719"><ele>133.0</ele><time>2026-03-28T08:10:59.025Z</time></trkpt><trkpt lat="39.45760983591756" lon="9.578482408023765"><ele>142.0</ele><time>2026-03-28T08:11:00.026Z</time></trkpt><trkpt lat="39.45765690322772" lon="9.578741152940795"><ele>130.0</ele><time>2026-03-28T08:11:01.026Z</time></trkpt><trkpt lat="39.457701521032305" lon="9.578984202762971"><ele>118.0</ele><time>2026-03-28T08:11:01.976Z</time></trkpt><trkpt lat="39.458185871752924" lon="9.581522329356533"><ele>99.0</ele><time>2026-03-28T08:11:05.447Z</time></trkpt><trkpt lat="39.4584013" lon="9.5826923"><ele>92.5</ele><time>2026-03-28T08:11:06.447Z</time></trkpt><trkpt lat="39.45845709631704" lon="9.583087291697298"><ele>86.0</ele><time>2026-03-28T08:11:16.5Z</time></trkpt><trkpt lat="39.45851030264043" lon="9.583354752558344"><ele>86.0</ele><time>2026-03-28T08:11:17.45Z</time></trkpt><trkpt lat="39.45855480425461" lon="9.58361845898209"><ele>86.0</ele><time>2026-03-28T08:11:18.4Z</time></trkpt><trkpt lat="39.458600687677176" lon="9.583880365613073"><ele>86.0</ele><time>2026-03-28T08:11:19.35Z</time></trkpt><trkpt lat="39.45864880051062" lon="9.584140312491463"><ele>85.0</ele><time>2026-03-28T08:11:20.3Z</time></trkpt><trkpt lat="39.45869924861012" lon="9.584398786950008"><ele>84.0</ele><time>2026-03-28T08:11:21.25Z</time></trkpt><trkpt lat="39.45875674412797" lon="9.584657937866522"><ele>83.0</ele><time>2026-03-28T08:11:22.2Z</time></trkpt><trkpt lat="39.45881475232915" lon="9.584916262942562"><ele>83.0</ele><time>2026-03-28T08:11:23.15Z</time></trkpt><trkpt lat="39.45887543206911" lon="9.585173873393853"><ele>83.0</ele><time>2026-03-28T08:11:24.1Z</time></trkpt><trkpt lat="39.458941443895085" lon="9.585431622299636"><ele>83.0</ele><time>2026-03-28T08:11:25.05Z</time></trkpt><trkpt lat="39.45901397702645" lon="9.585684224058262"><ele>81.33333333333334</ele><time>2026-03-28T08:11:26Z</time></trkpt><trkpt lat="39.459102137631426" lon="9.585952398379222"><ele>79.66666666666667</ele><time>2026-03-28T08:11:27Z</time></trkpt><trkpt lat="39.459195366690814" lon="9.586204761576795"><ele>78.0</ele><time>2026-03-28T08:11:28Z</time></trkpt><trkpt lat="39.45929520621383" lon="9.586460286167567"><ele>76.33333333333333</ele><time>2026-03-28T08:11:29Z</time></trkpt><trkpt lat="39.459402819941694" lon="9.58670636408768"><ele>74.66666666666666</ele><time>2026-03-28T08:11:30Z</time></trkpt><trkpt lat="39.4595171357033" lon="9.586945143631306"><ele>73.0</ele><time>2026-03-28T08:11:31Z</time></trkpt><trkpt lat="39.4596402454688" lon="9.587175779440503"><ele>78.0</ele><time>2026-03-28T08:11:32Z</time></trkpt><trkpt lat="39.459769995849626" lon="9.587399974390705"><ele>83.0</ele><time>2026-03-28T08:11:33Z</time></trkpt><trkpt lat="39.45990492194026" lon="9.58761707234971"><ele>88.0</ele><time>2026-03-28T08:11:34Z</time></trkpt><trkpt lat="39.460048795029536" lon="9.58782828894389"><ele>85.0</ele><time>2026-03-28T08:11:35Z</time></trkpt><trkpt lat="39.46019855256104" lon="9.588034039356632"><ele>82.0</ele><time>2026-03-28T08:11:36Z</time></trkpt><trkpt lat="39.46035399463186" lon="9.588229936060754"><ele>79.0</ele><time>2026-03-28T08:11:37Z</time></trkpt><trkpt lat="39.46051926541184" lon="9.588413647808737"><ele>78.33333333333333</ele><time>2026-03-28T08:11:38Z</time></trkpt><trkpt lat="39.460689596191564" lon="9.588596857975947"><ele>77.66666666666667</ele><time>2026-03-28T08:11:39Z</time></trkpt><trkpt lat="39.46086693747109" lon="9.58877036807626"><ele>77.0</ele><time>2026-03-28T08:11:40Z</time></trkpt><trkpt lat="39.461045400149985" lon="9.588938059460423"><ele>73.0</ele><time>2026-03-28T08:11:41Z</time></trkpt><trkpt lat="39.46123065436853" lon="9.589097000974997"><ele>69.0</ele><time>2026-03-28T08:11:42Z</time></trkpt><trkpt lat="39.461421641084655" lon="9.589248994008988"><ele>65.0</ele><time>2026-03-28T08:11:43Z</time></trkpt><trkpt lat="39.46161857463813" lon="9.589392478650007"><ele>65.33333333333334</ele><time>2026-03-28T08:11:44Z</time></trkpt><trkpt lat="39.46181976689481" lon="9.58952679407049"><ele>65.66666666666667</ele><time>2026-03-28T08:11:45Z</time></trkpt><trkpt lat="39.46201653503176" lon="9.58965770104361"><ele>66.0</ele><time>2026-03-28T08:11:46Z</time></trkpt><trkpt lat="39.46221377254444" lon="9.589786273080005"><ele>68.0</ele><time>2026-03-28T08:11:47Z</time></trkpt><trkpt lat="39.46242752795835" lon="9.589914395532187"><ele>70.0</ele><time>2026-03-28T08:11:48Z</time></trkpt><trkpt lat="39.4626352699145" lon="9.590034982328115"><ele>70.0</ele><time>2026-03-28T08:11:49Z</time></trkpt><trkpt lat="39.462834695697225" lon="9.590161622337506"><ele>70.0</ele><time>2026-03-28T08:11:50Z</time></trkpt><trkpt lat="39.46303212026893" lon="9.590292142645124"><ele>70.0</ele><time>2026-03-28T08:11:51Z</time></trkpt><trkpt lat="39.46323939486096" lon="9.590413031656423"><ele>71.0</ele><time>2026-03-28T08:11:52Z</time></trkpt><trkpt lat="39.46343825819781" lon="9.590538744191333"><ele>72.0</ele><time>2026-03-28T08:11:53Z</time></trkpt><trkpt lat="39.46363717816012" lon="9.59066914510215"><ele>73.0</ele><time>2026-03-28T08:11:54Z</time></trkpt><trkpt lat="39.4638310358728" lon="9.590803106489064"><ele>74.0</ele><time>2026-03-28T08:11:55Z</time></trkpt><trkpt lat="39.46402269622203" lon="9.590943033517462"><ele>75.0</ele><time>2026-03-28T08:11:56Z</time></trkpt><trkpt lat="39.46420919716496" lon="9.591087661103671"><ele>76.0</ele><time>2026-03-28T08:11:57Z</time></trkpt><trkpt lat="39.46439291112157" lon="9.591241311815956"><ele>76.0</ele><time>2026-03-28T08:11:58Z</time></trkpt><trkpt lat="39.464577856119654" lon="9.591397023601669"><ele>76.0</ele><time>2026-03-28T08:11:59Z</time></trkpt><trkpt lat="39.46475676283568" lon="9.591554636338328"><ele>76.0</ele><time>2026-03-28T08:12:00Z</time></trkpt><trkpt lat="39.46493132055358" lon="9.591715977912841"><ele>78.33333333333333</ele><time>2026-03-28T08:12:01Z</time></trkpt><trkpt lat="39.465100994288704" lon="9.591885962726385"><ele>80.66666666666667</ele><time>2026-03-28T08:12:02Z</time></trkpt><trkpt lat="39.46526705648327" lon="9.592057373897061"><ele>83.0</ele><time>2026-03-28T08:12:03Z</time></trkpt><trkpt lat="39.46543278145645" lon="9.5922304370326"><ele>88.66666666666667</ele><time>2026-03-28T08:12:04Z</time></trkpt><trkpt lat="39.46559859686298" lon="9.59240815148892"><ele>94.33333333333334</ele><time>2026-03-28T08:12:05Z</time></trkpt><trkpt lat="39.46575949975464" lon="9.592580226941386"><ele>100.0</ele><time>2026-03-28T08:12:06Z</time></trkpt><trkpt lat="39.465916071837974" lon="9.592762798959429"><ele>97.0</ele><time>2026-03-28T08:12:07Z</time></trkpt><trkpt lat="39.466071222340354" lon="9.592947059112971"><ele>94.0</ele><time>2026-03-28T08:12:08Z</time></trkpt><trkpt lat="39.466225154268315" lon="9.593127528949884"><ele>91.0</ele><time>2026-03-28T08:12:09Z</time></trkpt><trkpt lat="39.46637710771551" lon="9.593308071509906"><ele>95.33333333333333</ele><time>2026-03-28T08:12:10Z</time></trkpt><trkpt lat="39.46652997070388" lon="9.593489035944208"><ele>99.66666666666666</ele><time>2026-03-28T08:12:11Z</time></trkpt><trkpt lat="39.46668225301498" lon="9.593671176655285"><ele>104.0</ele><time>2026-03-28T08:12:12Z</time></trkpt><trkpt lat="39.46683522344031" lon="9.593851060632597"><ele>104.0</ele><time>2026-03-28T08:12:13Z</time></trkpt><trkpt lat="39.46699036004422" lon="9.594022453933178"><ele>104.0</ele><time>2026-03-28T08:12:14Z</time></trkpt><trkpt lat="39.467146298865714" lon="9.594201833947226"><ele>104.0</ele><time>2026-03-28T08:12:15Z</time></trkpt><trkpt lat="39.46730121830456" lon="9.594383882250778"><ele>102.0</ele><time>2026-03-28T08:12:16Z</time></trkpt><trkpt lat="39.46745587385675" lon="9.594569555150404"><ele>100.0</ele><time>2026-03-28T08:12:17Z</time></trkpt><trkpt lat="39.46761189708057" lon="9.594756128859832"><ele>98.0</ele><time>2026-03-28T08:12:18Z</time></trkpt><trkpt lat="39.467770084265595" lon="9.594942730296957"><ele>98.0</ele><time>2026-03-28T08:12:19Z</time></trkpt><trkpt lat="39.467934459606774" lon="9.595131901091522"><ele>98.0</ele><time>2026-03-28T08:12:20Z</time></trkpt><trkpt lat="39.46809955831143" lon="9.595323077217397"><ele>98.0</ele><time>2026-03-28T08:12:21Z</time></trkpt><trkpt lat="39.46826354052518" lon="9.595517319331112"><ele>93.0</ele><time>2026-03-28T08:12:22Z</time></trkpt><trkpt lat="39.468429090903086" lon="9.59571181610324"><ele>88.0</ele><time>2026-03-28T08:12:23Z</time></trkpt><trkpt lat="39.46859776474228" lon="9.595908344556669"><ele>88.0</ele><time>2026-03-28T08:12:24Z</time></trkpt><trkpt lat="39.468766864406675" lon="9.596101883771418"><ele>88.0</ele><time>2026-03-28T08:12:25Z</time></trkpt><trkpt lat="39.46893795875029" lon="9.59629544205099"><ele>88.5</ele><time>2026-03-28T08:12:26Z</time></trkpt><trkpt lat="39.46910868006124" lon="9.596486683132795"><ele>89.0</ele><time>2026-03-28T08:12:27Z</time></trkpt><trkpt lat="39.46928484253752" lon="9.596677592801418"><ele>89.0</ele><time>2026-03-28T08:12:28Z</time></trkpt><trkpt lat="39.46946040809325" lon="9.596865661910163"><ele>89.0</ele><time>2026-03-28T08:12:29Z</time></trkpt><trkpt lat="39.46963973642064" lon="9.597046230493703"><ele>87.5</ele><time>2026-03-28T08:12:30Z</time></trkpt><trkpt lat="39.46982660264398" lon="9.59722203972103"><ele>86.0</ele><time>2026-03-28T08:12:31Z</time></trkpt><trkpt lat="39.47001518798044" lon="9.597391751533733"><ele>86.0</ele><time>2026-03-28T08:12:32Z</time></trkpt><trkpt lat="39.47020255151481" lon="9.597557038551281"><ele>86.0</ele><time>2026-03-28T08:12:33Z</time></trkpt><trkpt lat="39.47039305673175" lon="9.597716500332574"><ele>79.0</ele><time>2026-03-28T08:12:34Z</time></trkpt><trkpt lat="39.47058795189483" lon="9.597868912741989"><ele>72.0</ele><time>2026-03-28T08:12:35Z</time></trkpt><trkpt lat="39.47078649093747" lon="9.598011924722158"><ele>72.0</ele><time>2026-03-28T08:12:36Z</time></trkpt><trkpt lat="39.47098782147859" lon="9.598149306372834"><ele>72.0</ele><time>2026-03-28T08:12:37Z</time></trkpt><trkpt lat="39.47119009480799" lon="9.598280404216979"><ele>68.66666666666667</ele><time>2026-03-28T08:12:38Z</time></trkpt><trkpt lat="39.47139379052525" lon="9.598403797432624"><ele>65.33333333333334</ele><time>2026-03-28T08:12:39Z</time></trkpt><trkpt lat="39.471599727653995" lon="9.598517845006462"><ele>62.0</ele><time>2026-03-28T08:12:40Z</time></trkpt><trkpt lat="39.47181018142233" lon="9.598623615977846"><ele>61.0</ele><time>2026-03-28T08:12:41Z</time></trkpt><trkpt lat="39.47202192850812" lon="9.59872187471093"><ele>60.0</ele><time>2026-03-28T08:12:42Z</time></trkpt><trkpt lat="39.4722350133599" lon="9.598812376175134"><ele>59.0</ele><time>2026-03-28T08:12:43Z</time></trkpt><trkpt lat="39.47244987249911" lon="9.598893972540969"><ele>59.0</ele><time>2026-03-28T08:12:44Z</time></trkpt><trkpt lat="39.47266609357974" lon="9.598968560464057"><ele>59.0</ele><time>2026-03-28T08:12:45Z</time></trkpt><trkpt lat="39.472885200079624" lon="9.599037390860985"><ele>59.0</ele><time>2026-03-28T08:12:46Z</time></trkpt><trkpt lat="39.473106400920045" lon="9.599094293528667"><ele>67.5</ele><time>2026-03-28T08:12:47Z</time></trkpt><trkpt lat="39.473331359187604" lon="9.59914121086975"><ele>76.0</ele><time>2026-03-28T08:12:48Z</time></trkpt><trkpt lat="39.47355613020939" lon="9.599185373897702"><ele>79.0</ele><time>2026-03-28T08:12:49Z</time></trkpt><trkpt lat="39.47377869844934" lon="9.59922483043656"><ele>82.0</ele><time>2026-03-28T08:12:50Z</time></trkpt><trkpt lat="39.474002195076395" lon="9.599257108663103"><ele>82.0</ele><time>2026-03-28T08:12:51Z</time></trkpt><trkpt lat="39.47422713398411" lon="9.599283341206409"><ele>82.0</ele><time>2026-03-28T08:12:52Z</time></trkpt><trkpt lat="39.474445316204026" lon="9.599301144456659"><ele>82.0</ele><time>2026-03-28T08:12:53Z</time></trkpt><trkpt lat="39.474670744242104" lon="9.599324661191494"><ele>79.33333333333333</ele><time>2026-03-28T08:12:54Z</time></trkpt><trkpt lat="39.47488628023417" lon="9.599337076071386"><ele>76.66666666666667</ele><time>2026-03-28T08:12:55Z</time></trkpt><trkpt lat="39.4751085605618" lon="9.599354664171381"><ele>74.0</ele><time>2026-03-28T08:12:56Z</time></trkpt><trkpt lat="39.47533264123366" lon="9.599365588652605"><ele>74.0</ele><time>2026-03-28T08:12:57Z</time></trkpt><trkpt lat="39.47555658289276" lon="9.599373002946765"><ele>74.0</ele><time>2026-03-28T08:12:58Z</time></trkpt><trkpt lat="39.475783782759265" lon="9.599384673016546"><ele>74.0</ele><time>2026-03-28T08:12:59Z</time></trkpt><trkpt lat="39.476011147015306" lon="9.59940129903095"><ele>74.0</ele><time>2026-03-28T08:13:00Z</time></trkpt><trkpt lat="39.4762346610115" lon="9.599422558182976"><ele>77.0</ele><time>2026-03-28T08:13:01Z</time></trkpt><trkpt lat="39.47645897145385" lon="9.59944961374186"><ele>80.0</ele><time>2026-03-28T08:13:02Z</time></trkpt><trkpt lat="39.47668041456103" lon="9.599483000718307"><ele>83.0</ele><time>2026-03-28T08:13:03Z</time></trkpt><trkpt lat="39.47689671746339" lon="9.599526429691725"><ele>90.0</ele><time>2026-03-28T08:13:04Z</time></trkpt><trkpt lat="39.47711240102997" lon="9.59958007597361"><ele>97.0</ele><time>2026-03-28T08:13:05Z</time></trkpt><trkpt lat="39.477322928098715" lon="9.59965904750838"><ele>104.0</ele><time>2026-03-28T08:13:06Z</time></trkpt><trkpt lat="39.477529821998885" lon="9.599738908263333"><ele>104.0</ele><time>2026-03-28T08:13:07Z</time></trkpt><trkpt lat="39.47773297924765" lon="9.599833872264302"><ele>104.0</ele><time>2026-03-28T08:13:08Z</time></trkpt><trkpt lat="39.477922065072065" lon="9.599938693676162"><ele>104.0</ele><time>2026-03-28T08:13:09Z</time></trkpt><trkpt lat="39.478111861840894" lon="9.60005703853367"><ele>108.33333333333333</ele><time>2026-03-28T08:13:10.026Z</time></trkpt><trkpt lat="39.478291698567595" lon="9.600182387375481"><ele>112.66666666666666</ele><time>2026-03-28T08:13:11.027Z</time></trkpt><trkpt lat="39.47845879580808" lon="9.600311614590112"><ele>117.0</ele><time>2026-03-28T08:13:12.025Z</time></trkpt><trkpt lat="39.478615443975734" lon="9.600438934191574"><ele>118.33333333333334</ele><time>2026-03-28T08:13:12.976Z</time></trkpt><trkpt lat="39.47868858049529" lon="9.600500408415693"><ele>119.66666666666667</ele><time>2026-03-28T08:13:13.875Z</time></trkpt><trkpt lat="39.4786056" lon="9.600405"><ele>121.0</ele><time>2026-03-28T08:13:17.447Z</time></trkpt><trkpt lat="39.48069221862207" lon="9.602287913018708"><ele>105.33333333333334</ele><time>2026-03-28T08:13:24.4Z</time></trkpt><trkpt lat="39.48085858380026" lon="9.602433326061119"><ele>89.66666666666667</ele><time>2026-03-28T08:13:25.35Z</time></trkpt><trkpt lat="39.481024639828604" lon="9.602578424596041"><ele>74.0</ele><time>2026-03-28T08:13:26.3Z</time></trkpt><trkpt lat="39.48118969151749" lon="9.60272160641417"><ele>71.0</ele><time>2026-03-28T08:13:27.25Z</time></trkpt><trkpt lat="39.481355004077216" lon="9.60287018300187"><ele>68.0</ele><time>2026-03-28T08:13:28.2Z</time></trkpt><trkpt lat="39.48151986658331" lon="9.603019975477984"><ele>65.0</ele><time>2026-03-28T08:13:29.15Z</time></trkpt><trkpt lat="39.48167816913513" lon="9.603167453186373"><ele>65.0</ele><time>2026-03-28T08:13:30.1Z</time></trkpt><trkpt lat="39.481836850512515" lon="9.603315301075988"><ele>65.0</ele><time>2026-03-28T08:13:31.05Z</time></trkpt><trkpt lat="39.48199168273867" lon="9.603455008061042"><ele>65.0</ele><time>2026-03-28T08:13:32Z</time></trkpt><trkpt lat="39.48214872187098" lon="9.603598370213243"><ele>64.0</ele><time>2026-03-28T08:13:33Z</time></trkpt><trkpt lat="39.48229837120992" lon="9.603741407601488"><ele>63.0</ele><time>2026-03-28T08:13:34Z</time></trkpt><trkpt lat="39.48244422985944" lon="9.60388291462363"><ele>62.0</ele><time>2026-03-28T08:13:35Z</time></trkpt><trkpt lat="39.4825953822701" lon="9.604018624195566"><ele>62.0</ele><time>2026-03-28T08:13:36Z</time></trkpt><trkpt lat="39.48274270042385" lon="9.604165602004171"><ele>62.0</ele><time>2026-03-28T08:13:37Z</time></trkpt><trkpt lat="39.4828867261209" lon="9.60431599385638"><ele>62.0</ele><time>2026-03-28T08:13:38Z</time></trkpt><trkpt lat="39.48302708609705" lon="9.604475420465434"><ele>58.66666666666667</ele><time>2026-03-28T08:13:39Z</time></trkpt><trkpt lat="39.48316904231988" lon="9.604638539680069"><ele>55.33333333333333</ele><time>2026-03-28T08:13:40Z</time></trkpt><trkpt lat="39.48331420196507" lon="9.604801538533238"><ele>52.0</ele><time>2026-03-28T08:13:41Z</time></trkpt><trkpt lat="39.48345875647813" lon="9.604964244409254"><ele>52.0</ele><time>2026-03-28T08:13:42Z</time></trkpt><trkpt lat="39.48360064960391" lon="9.605125813574562"><ele>52.0</ele><time>2026-03-28T08:13:43Z</time></trkpt><trkpt lat="39.4837386526232" lon="9.605283997632567"><ele>52.0</ele><time>2026-03-28T08:13:44Z</time></trkpt><trkpt lat="39.48387250507233" lon="9.605447961381271"><ele>52.0</ele><time>2026-03-28T08:13:45Z</time></trkpt><trkpt lat="39.48398591238333" lon="9.605624071428878"><ele>52.0</ele><time>2026-03-28T08:13:46Z</time></trkpt><trkpt lat="39.48407422837968" lon="9.605815420643063"><ele>52.0</ele><time>2026-03-28T08:13:47Z</time></trkpt><trkpt lat="39.484138274073544" lon="9.60601958404383"><ele>51.0</ele><time>2026-03-28T08:13:48Z</time></trkpt><trkpt lat="39.48417980696498" lon="9.606226709561788"><ele>50.0</ele><time>2026-03-28T08:13:49Z</time></trkpt><trkpt lat="39.48420209169843" lon="9.606432567696963"><ele>49.0</ele><time>2026-03-28T08:13:50Z</time></trkpt><trkpt lat="39.48420563621606" lon="9.606638218207776"><ele>49.0</ele><time>2026-03-28T08:13:51Z</time></trkpt><trkpt lat="39.484199139708075" lon="9.60683755189226"><ele>49.0</ele><time>2026-03-28T08:13:52Z</time></trkpt><trkpt lat="39.48418993000284" lon="9.607025121463654"><ele>49.0</ele><time>2026-03-28T08:13:53Z</time></trkpt><trkpt lat="39.484179957472826" lon="9.607208485131663"><ele>49.0</ele><time>2026-03-28T08:13:54Z</time></trkpt><trkpt lat="39.48416471393394" lon="9.607381319705265"><ele>48.0</ele><time>2026-03-28T08:13:55Z</time></trkpt><trkpt lat="39.48413762970201" lon="9.607531361654818"><ele>47.0</ele><time>2026-03-28T08:13:56Z</time></trkpt><trkpt lat="39.4840965704897" lon="9.607648796301676"><ele>46.0</ele><time>2026-03-28T08:13:57Z</time></trkpt><trkpt lat="39.48405903959476" lon="9.60773648206733"><ele>45.0</ele><time>2026-03-28T08:13:58Z</time></trkpt><trkpt lat="39.48404656691302" lon="9.607851075817791"><ele>44.0</ele><time>2026-03-28T08:14:00Z</time></trkpt><trkpt lat="39.484080036987805" lon="9.607929056933324"><ele>42.75</ele><time>2026-03-28T08:14:03Z</time></trkpt><trkpt lat="39.484161047276395" lon="9.608033692896194"><ele>41.5</ele><time>2026-03-28T08:14:05Z</time></trkpt><trkpt lat="39.48425460067525" lon="9.608076031931516"><ele>40.25</ele><time>2026-03-28T08:14:06Z</time></trkpt><trkpt lat="39.48437080653099" lon="9.60810160242551"><ele>39.0</ele><time>2026-03-28T08:14:07Z</time></trkpt><trkpt lat="39.48449484789967" lon="9.608112241140953"><ele>38.0</ele><time>2026-03-28T08:14:08Z</time></trkpt><trkpt lat="39.48463175041493" lon="9.608112763621875"><ele>37.0</ele><time>2026-03-28T08:14:09Z</time></trkpt><trkpt lat="39.48477971979538" lon="9.608110253274628"><ele>36.0</ele><time>2026-03-28T08:14:10Z</time></trkpt><trkpt lat="39.48493227906038" lon="9.608109197430414"><ele>35.0</ele><time>2026-03-28T08:14:11Z</time></trkpt><trkpt lat="39.48509273275803" lon="9.6081168637711"><ele>35.0</ele><time>2026-03-28T08:14:12Z</time></trkpt><trkpt lat="39.48526130709737" lon="9.608137902168918"><ele>35.0</ele><time>2026-03-28T08:14:13Z</time></trkpt><trkpt lat="39.48543640197116" lon="9.608169217685345"><ele>35.0</ele><time>2026-03-28T08:14:14Z</time></trkpt><trkpt lat="39.48560577345208" lon="9.608206522983096"><ele>36.0</ele><time>2026-03-28T08:14:15Z</time></trkpt><trkpt lat="39.48578261934293" lon="9.608253505645479"><ele>37.0</ele><time>2026-03-28T08:14:16Z</time></trkpt><trkpt lat="39.48596201609128" lon="9.608302698769988"><ele>38.0</ele><time>2026-03-28T08:14:17Z</time></trkpt><trkpt lat="39.48613821128103" lon="9.608355901516099"><ele>38.666666666666664</ele><time>2026-03-28T08:14:18Z</time></trkpt><trkpt lat="39.48631415459153" lon="9.608415376934605"><ele>39.333333333333336</ele><time>2026-03-28T08:14:19Z</time></trkpt><trkpt lat="39.486489816333226" lon="9.608473784040601"><ele>40.0</ele><time>2026-03-28T08:14:20Z</time></trkpt><trkpt lat="39.486665532221934" lon="9.608520540050936"><ele>40.0</ele><time>2026-03-28T08:14:21Z</time></trkpt><trkpt lat="39.48684693680012" lon="9.608539775959853"><ele>40.0</ele><time>2026-03-28T08:14:22Z</time></trkpt><trkpt lat="39.48702720790536" lon="9.608540640600571"><ele>40.0</ele><time>2026-03-28T08:14:23Z</time></trkpt><trkpt lat="39.487205484759116" lon="9.608528735939135"><ele>40.333333333333336</ele><time>2026-03-28T08:14:24Z</time></trkpt><trkpt lat="39.487385099933135" lon="9.60851433852388"><ele>40.666666666666664</ele><time>2026-03-28T08:14:25Z</time></trkpt><trkpt lat="39.48756258170075" lon="9.608498159764629"><ele>41.0</ele><time>2026-03-28T08:14:26Z</time></trkpt><trkpt lat="39.487738800084486" lon="9.608483768247357"><ele>41.0</ele><time>2026-03-28T08:14:27Z</time></trkpt><trkpt lat="39.48791543986318" lon="9.608466441146668"><ele>41.0</ele><time>2026-03-28T08:14:28Z</time></trkpt><trkpt lat="39.48808526365741" lon="9.608452653655906"><ele>41.0</ele><time>2026-03-28T08:14:29Z</time></trkpt><trkpt lat="39.488246552706904" lon="9.608448920038601"><ele>39.666666666666664</ele><time>2026-03-28T08:14:30Z</time></trkpt><trkpt lat="39.48840260165892" lon="9.60847246295452"><ele>38.333333333333336</ele><time>2026-03-28T08:14:31Z</time></trkpt><trkpt lat="39.48854891932299" lon="9.608511018372809"><ele>37.0</ele><time>2026-03-28T08:14:32Z</time></trkpt><trkpt lat="39.48869596922212" lon="9.608547368698817"><ele>36.0</ele><time>2026-03-28T08:14:33Z</time></trkpt><trkpt lat="39.48884320658842" lon="9.60857032336935"><ele>35.0</ele><time>2026-03-28T08:14:34Z</time></trkpt><trkpt lat="39.48899589399902" lon="9.60857243758852"><ele>34.0</ele><time>2026-03-28T08:14:35Z</time></trkpt><trkpt lat="39.4891493499144" lon="9.608561385602275"><ele>34.0</ele><time>2026-03-28T08:14:36Z</time></trkpt><trkpt lat="39.48929900587099" lon="9.60854797657567"><ele>34.0</ele><time>2026-03-28T08:14:37Z</time></trkpt><trkpt lat="39.48944639259882" lon="9.608535675521244"><ele>34.0</ele><time>2026-03-28T08:14:38Z</time></trkpt><trkpt lat="39.489591209374346" lon="9.608522279125138"><ele>34.0</ele><time>2026-03-28T08:14:39Z</time></trkpt><trkpt lat="39.48973442669912" lon="9.608508334428832"><ele>33.5</ele><time>2026-03-28T08:14:40Z</time></trkpt><trkpt lat="39.48987718619579" lon="9.608495135530353"><ele>33.0</ele><time>2026-03-28T08:14:41Z</time></trkpt><trkpt lat="39.49002149369904" lon="9.608481093491893"><ele>32.5</ele><time>2026-03-28T08:14:42Z</time></trkpt><trkpt lat="39.4901673612414" lon="9.608454081879467"><ele>32.0</ele><time>2026-03-28T08:14:43Z</time></trkpt><trkpt lat="39.49031550213831" lon="9.608399862773357"><ele>30.666666666666664</ele><time>2026-03-28T08:14:44Z</time></trkpt><trkpt lat="39.490460653775884" lon="9.608321601988411"><ele>29.333333333333336</ele><time>2026-03-28T08:14:45Z</time></trkpt><trkpt lat="39.490606200587315" lon="9.608235106676991"><ele>28.0</ele><time>2026-03-28T08:14:46Z</time></trkpt><trkpt lat="39.490754241056145" lon="9.608144136873515"><ele>28.0</ele><time>2026-03-28T08:14:47Z</time></trkpt><trkpt lat="39.49089966918724" lon="9.60805373083275"><ele>28.0</ele><time>2026-03-28T08:14:48Z</time></trkpt><trkpt lat="39.49104851563564" lon="9.607968714575012"><ele>28.0</ele><time>2026-03-28T08:14:49Z</time></trkpt><trkpt lat="39.49120042431664" lon="9.607892403991201"><ele>29.666666666666668</ele><time>2026-03-28T08:14:50Z</time></trkpt><trkpt lat="39.49135599874731" lon="9.60782540989879"><ele>31.333333333333336</ele><time>2026-03-28T08:14:51Z</time></trkpt><trkpt lat="39.49151500972448" lon="9.607767849218622"><ele>33.0</ele><time>2026-03-28T08:14:52Z</time></trkpt><trkpt lat="39.491667667794744" lon="9.607712557531563"><ele>33.0</ele><time>2026-03-28T08:14:53Z</time></trkpt><trkpt lat="39.49181903356927" lon="9.607656286810373"><ele>33.0</ele><time>2026-03-28T08:14:54Z</time></trkpt><trkpt lat="39.49195916106921" lon="9.607601735094557"><ele>33.0</ele><time>2026-03-28T08:14:55Z</time></trkpt><trkpt lat="39.49209390431165" lon="9.607554265432816"><ele>33.0</ele><time>2026-03-28T08:14:56Z</time></trkpt><trkpt lat="39.492228774174365" lon="9.607505591127646"><ele>32.25</ele><time>2026-03-28T08:14:57Z</time></trkpt><trkpt lat="39.49236723554214" lon="9.607458408874324"><ele>31.5</ele><time>2026-03-28T08:14:58Z</time></trkpt><trkpt lat="39.492509147654275" lon="9.60740505557741"><ele>30.75</ele><time>2026-03-28T08:14:59Z</time></trkpt><trkpt lat="39.49265195350102" lon="9.607351935408664"><ele>30.0</ele><time>2026-03-28T08:15:00Z</time></trkpt><trkpt lat="39.49279666105252" lon="9.607295739147013"><ele>30.666666666666664</ele><time>2026-03-28T08:15:01Z</time></trkpt><trkpt lat="39.49294336990387" lon="9.607239664944636"><ele>31.333333333333332</ele><time>2026-03-28T08:15:02Z</time></trkpt><trkpt lat="39.493094282265496" lon="9.60718438327506"><ele>32.0</ele><time>2026-03-28T08:15:03Z</time></trkpt><trkpt lat="39.49324833074187" lon="9.607130764957306"><ele>32.0</ele><time>2026-03-28T08:15:04Z</time></trkpt><trkpt lat="39.49340607062726" lon="9.607073809174766"><ele>32.0</ele><time>2026-03-28T08:15:05Z</time></trkpt><trkpt lat="39.493563077741165" lon="9.607015687525585"><ele>32.0</ele><time>2026-03-28T08:15:06Z</time></trkpt><trkpt lat="39.49372243764196" lon="9.606956221985048"><ele>30.666666666666664</ele><time>2026-03-28T08:15:07Z</time></trkpt><trkpt lat="39.493874332435254" lon="9.606898406772714"><ele>29.333333333333336</ele><time>2026-03-28T08:15:08Z</time></trkpt><trkpt lat="39.49402220133938" lon="9.606843548798652"><ele>28.0</ele><time>2026-03-28T08:15:09Z</time></trkpt><trkpt lat="39.49416219701534" lon="9.60679241487851"><ele>28.0</ele><time>2026-03-28T08:15:10Z</time></trkpt><trkpt lat="39.494298476332574" lon="9.60675315596436"><ele>28.0</ele><time>2026-03-28T08:15:11Z</time></trkpt><trkpt lat="39.49443293840111" lon="9.606725888384423"><ele>28.0</ele><time>2026-03-28T08:15:12Z</time></trkpt><trkpt lat="39.494563817092434" lon="9.606722211591185"><ele>28.0</ele><time>2026-03-28T08:15:13Z</time></trkpt><trkpt lat="39.49470016299848" lon="9.606742193499564"><ele>27.333333333333336</ele><time>2026-03-28T08:15:14Z</time></trkpt><trkpt lat="39.49483691519371" lon="9.606786089824325"><ele>26.666666666666664</ele><time>2026-03-28T08:15:15Z</time></trkpt><trkpt lat="39.49498024053173" lon="9.606842525424861"><ele>26.0</ele><time>2026-03-28T08:15:16Z</time></trkpt><trkpt lat="39.495128384461786" lon="9.606917146632858"><ele>25.666666666666664</ele><time>2026-03-28T08:15:17Z</time></trkpt><trkpt lat="39.495284044612255" lon="9.606997902367777"><ele>25.333333333333336</ele><time>2026-03-28T08:15:18Z</time></trkpt><trkpt lat="39.495442707264615" lon="9.607081534510103"><ele>25.0</ele><time>2026-03-28T08:15:19Z</time></trkpt><trkpt lat="39.49561314726396" lon="9.607168615790087"><ele>25.0</ele><time>2026-03-28T08:15:20Z</time></trkpt><trkpt lat="39.49579011954051" lon="9.607258434590138"><ele>25.0</ele><time>2026-03-28T08:15:21Z</time></trkpt><trkpt lat="39.49597910817149" lon="9.60735424202638"><ele>25.0</ele><time>2026-03-28T08:15:22Z</time></trkpt><trkpt lat="39.49618002318311" lon="9.60747576064563"><ele>25.5</ele><time>2026-03-28T08:15:23Z</time></trkpt><trkpt lat="39.49640729345489" lon="9.60759322507219"><ele>26.0</ele><time>2026-03-28T08:15:24Z</time></trkpt><trkpt lat="39.496642878584865" lon="9.607714985656587"><ele>24.0</ele><time>2026-03-28T08:15:25Z</time></trkpt><trkpt lat="39.496894707986485" lon="9.60784514194599"><ele>22.0</ele><time>2026-03-28T08:15:26Z</time></trkpt><trkpt lat="39.49714356905856" lon="9.607973764049246"><ele>22.0</ele><time>2026-03-28T08:15:27Z</time></trkpt><trkpt lat="39.4974035110189" lon="9.608108184347518"><ele>22.0</ele><time>2026-03-28T08:15:28Z</time></trkpt><trkpt lat="39.49765896062718" lon="9.608217869932087"><ele>22.0</ele><time>2026-03-28T08:15:29Z</time></trkpt><trkpt lat="39.497897306324155" lon="9.608354602653483"><ele>22.0</ele><time>2026-03-28T08:15:30Z</time></trkpt><trkpt lat="39.49813645168631" lon="9.608482639026384"><ele>22.5</ele><time>2026-03-28T08:15:31Z</time></trkpt><trkpt lat="39.49837188864715" lon="9.60860373681095"><ele>23.0</ele><time>2026-03-28T08:15:32Z</time></trkpt><trkpt lat="39.49860374635172" lon="9.608721860918065"><ele>22.0</ele><time>2026-03-28T08:15:33Z</time></trkpt><trkpt lat="39.49883048562005" lon="9.608836251008588"><ele>21.0</ele><time>2026-03-28T08:15:34Z</time></trkpt><trkpt lat="39.49905216939009" lon="9.608949861014729"><ele>21.0</ele><time>2026-03-28T08:15:35Z</time></trkpt><trkpt lat="39.49926852121275" lon="9.609058217861508"><ele>21.0</ele><time>2026-03-28T08:15:36Z</time></trkpt><trkpt lat="39.49948092331969" lon="9.609166079460866"><ele>21.333333333333332</ele><time>2026-03-28T08:15:37Z</time></trkpt><trkpt lat="39.49969204294197" lon="9.609271584520949"><ele>21.666666666666664</ele><time>2026-03-28T08:15:38Z</time></trkpt><trkpt lat="39.499898098961566" lon="9.609370061333603"><ele>22.0</ele><time>2026-03-28T08:15:39Z</time></trkpt><trkpt lat="39.50012172531749" lon="9.609493987124898"><ele>20.666666666666664</ele><time>2026-03-28T08:15:40Z</time></trkpt><trkpt lat="39.500330107402476" lon="9.60960360509741"><ele>19.333333333333332</ele><time>2026-03-28T08:15:41Z</time></trkpt><trkpt lat="39.50053643450749" lon="9.609713192563671"><ele>18.0</ele><time>2026-03-28T08:15:42Z</time></trkpt><trkpt lat="39.50074762251131" lon="9.609823896556518"><ele>18.0</ele><time>2026-03-28T08:15:43Z</time></trkpt><trkpt lat="39.50095330906029" lon="9.60992931055022"><ele>18.0</ele><time>2026-03-28T08:15:44Z</time></trkpt><trkpt lat="39.501158720796916" lon="9.610034485245182"><ele>18.0</ele><time>2026-03-28T08:15:45Z</time></trkpt><trkpt lat="39.501362358870516" lon="9.61013952714097"><ele>17.666666666666668</ele><time>2026-03-28T08:15:46Z</time></trkpt><trkpt lat="39.50155948066546" lon="9.610241784107714"><ele>17.333333333333336</ele><time>2026-03-28T08:15:47Z</time></trkpt><trkpt lat="39.501756691839184" lon="9.610343755857476"><ele>17.0</ele><time>2026-03-28T08:15:48Z</time></trkpt><trkpt lat="39.5019523426051" lon="9.61044998731704"><ele>15.0</ele><time>2026-03-28T08:15:49Z</time></trkpt><trkpt lat="39.50214802803596" lon="9.610555773461044"><ele>13.0</ele><time>2026-03-28T08:15:50Z</time></trkpt><trkpt lat="39.50234292264761" lon="9.610653785904423"><ele>11.0</ele><time>2026-03-28T08:15:51Z</time></trkpt><trkpt lat="39.50254419717745" lon="9.610735354438324"><ele>11.0</ele><time>2026-03-28T08:15:52Z</time></trkpt><trkpt lat="39.502756127235784" lon="9.610797696688715"><ele>11.0</ele><time>2026-03-28T08:15:53Z</time></trkpt><trkpt lat="39.50297020148834" lon="9.61083255179506"><ele>11.0</ele><time>2026-03-28T08:15:54Z</time></trkpt><trkpt lat="39.503188323775866" lon="9.610840389658959"><ele>11.0</ele><time>2026-03-28T08:15:55Z</time></trkpt><trkpt lat="39.50341102980751" lon="9.610827834684219"><ele>11.0</ele><time>2026-03-28T08:15:56Z</time></trkpt><trkpt lat="39.503632349630735" lon="9.610792467178177"><ele>11.0</ele><time>2026-03-28T08:15:57Z</time></trkpt><trkpt lat="39.50385348532858" lon="9.610736474402051"><ele>11.0</ele><time>2026-03-28T08:15:58Z</time></trkpt><trkpt lat="39.50407178247852" lon="9.610669348285066"><ele>11.0</ele><time>2026-03-28T08:15:59Z</time></trkpt><trkpt lat="39.504293238268154" lon="9.610602774851381"><ele>11.0</ele><time>2026-03-28T08:16:00Z</time></trkpt><trkpt lat="39.50451694952656" lon="9.610540827750656"><ele>11.0</ele><time>2026-03-28T08:16:01Z</time></trkpt><trkpt lat="39.504742505447865" lon="9.610479717976526"><ele>11.0</ele><time>2026-03-28T08:16:02Z</time></trkpt><trkpt lat="39.50496815550985" lon="9.61041146816845"><ele>11.0</ele><time>2026-03-28T08:16:03Z</time></trkpt><trkpt lat="39.505193463217665" lon="9.610339999230982"><ele>11.5</ele><time>2026-03-28T08:16:04Z</time></trkpt><trkpt lat="39.50541752005461" lon="9.610270862172907"><ele>12.0</ele><time>2026-03-28T08:16:05Z</time></trkpt><trkpt lat="39.505636077522624" lon="9.610204526839736"><ele>12.0</ele><time>2026-03-28T08:16:06Z</time></trkpt><trkpt lat="39.50585448026919" lon="9.61014451253725"><ele>12.0</ele><time>2026-03-28T08:16:07Z</time></trkpt><trkpt lat="39.50606915526627" lon="9.610084947081452"><ele>12.0</ele><time>2026-03-28T08:16:08Z</time></trkpt><trkpt lat="39.50627994864878" lon="9.61002427623397"><ele>11.666666666666666</ele><time>2026-03-28T08:16:09Z</time></trkpt><trkpt lat="39.50649290072382" lon="9.609960037563978"><ele>11.333333333333332</ele><time>2026-03-28T08:16:10Z</time></trkpt><trkpt lat="39.506705331881236" lon="9.609895023438098"><ele>11.0</ele><time>2026-03-28T08:16:11Z</time></trkpt><trkpt lat="39.50691789519343" lon="9.609831955086547"><ele>9.666666666666666</ele><time>2026-03-28T08:16:12Z</time></trkpt><trkpt lat="39.507129841422525" lon="9.609771269414546"><ele>8.333333333333334</ele><time>2026-03-28T08:16:13Z</time></trkpt><trkpt lat="39.50733927802398" lon="9.609709492761498"><ele>7.0</ele><time>2026-03-28T08:16:14Z</time></trkpt><trkpt lat="39.50754840959445" lon="9.609649108587213"><ele>7.0</ele><time>2026-03-28T08:16:15Z</time></trkpt><trkpt lat="39.50775873391777" lon="9.609589044040593"><ele>7.0</ele><time>2026-03-28T08:16:16Z</time></trkpt><trkpt lat="39.507968041855655" lon="9.609527988919664"><ele>7.0</ele><time>2026-03-28T08:16:17Z</time></trkpt><trkpt lat="39.50817617402745" lon="9.609469662380933"><ele>7.0</ele><time>2026-03-28T08:16:18Z</time></trkpt><trkpt lat="39.50838238093273" lon="9.609408861612007"><ele>7.0</ele><time>2026-03-28T08:16:19Z</time></trkpt><trkpt lat="39.508580034918744" lon="9.609350703050465"><ele>7.0</ele><time>2026-03-28T08:16:20Z</time></trkpt><trkpt lat="39.50879537054177" lon="9.609289084281443"><ele>6.666666666666667</ele><time>2026-03-28T08:16:21Z</time></trkpt><trkpt lat="39.5089963151863" lon="9.609231682243015"><ele>6.333333333333334</ele><time>2026-03-28T08:16:22Z</time></trkpt><trkpt lat="39.50919679505313" lon="9.609175779421989"><ele>6.0</ele><time>2026-03-28T08:16:23Z</time></trkpt><trkpt lat="39.509397741139296" lon="9.609120696808862"><ele>6.333333333333334</ele><time>2026-03-28T08:16:24Z</time></trkpt><trkpt lat="39.509600347237736" lon="9.609063749503862"><ele>6.666666666666667</ele><time>2026-03-28T08:16:25Z</time></trkpt><trkpt lat="39.5098002972304" lon="9.60900326401833"><ele>7.0</ele><time>2026-03-28T08:16:26Z</time></trkpt><trkpt lat="39.50999975386046" lon="9.608944137371841"><ele>7.0</ele><time>2026-03-28T08:16:27Z</time></trkpt><trkpt lat="39.510196652963614" lon="9.608886332285486"><ele>7.0</ele><time>2026-03-28T08:16:28Z</time></trkpt><trkpt lat="39.510393826077205" lon="9.608830805555469"><ele>7.0</ele><time>2026-03-28T08:16:29Z</time></trkpt><trkpt lat="39.51058780072076" lon="9.608776630864845"><ele>6.666666666666667</ele><time>2026-03-28T08:16:30Z</time></trkpt><trkpt lat="39.510777045534404" lon="9.608722715914315"><ele>6.333333333333334</ele><time>2026-03-28T08:16:31Z</time></trkpt><trkpt lat="39.51095631271522" lon="9.608676786068795"><ele>6.0</ele><time>2026-03-28T08:16:32Z</time></trkpt><trkpt lat="39.511134495068944" lon="9.608650713789086"><ele>6.333333333333334</ele><time>2026-03-28T08:16:33Z</time></trkpt><trkpt lat="39.5113017263997" lon="9.608642084434672"><ele>6.666666666666667</ele><time>2026-03-28T08:16:34Z</time></trkpt><trkpt lat="39.51146253911293" lon="9.608665148891887"><ele>7.0</ele><time>2026-03-28T08:16:35Z</time></trkpt><trkpt lat="39.511620842231466" lon="9.608685888068292"><ele>7.0</ele><time>2026-03-28T08:16:36Z</time></trkpt><trkpt lat="39.511767694827874" lon="9.608713140423161"><ele>7.0</ele><time>2026-03-28T08:16:37Z</time></trkpt><trkpt lat="39.51190714288559" lon="9.608779408624963"><ele>7.0</ele><time>2026-03-28T08:16:38Z</time></trkpt><trkpt lat="39.512029095809474" lon="9.60887905456268"><ele>7.0</ele><time>2026-03-28T08:16:39Z</time></trkpt><trkpt lat="39.51215771553262" lon="9.60896153555544"><ele>7.0</ele><time>2026-03-28T08:16:40Z</time></trkpt><trkpt lat="39.5122951254188" lon="9.608982536223921"><ele>7.0</ele><time>2026-03-28T08:16:41Z</time></trkpt><trkpt lat="39.512436573416984" lon="9.608943400413072"><ele>7.0</ele><time>2026-03-28T08:16:42Z</time></trkpt><trkpt lat="39.51258188394341" lon="9.608867905445395"><ele>7.0</ele><time>2026-03-28T08:16:43Z</time></trkpt><trkpt lat="39.51272592097992" lon="9.608775953935549"><ele>7.0</ele><time>2026-03-28T08:16:44Z</time></trkpt><trkpt lat="39.5128582362193" lon="9.608668852607478"><ele>7.0</ele><time>2026-03-28T08:16:45Z</time></trkpt><trkpt lat="39.51295634809446" lon="9.608521005905912"><ele>7.0</ele><time>2026-03-28T08:16:46Z</time></trkpt><trkpt lat="39.51304121635108" lon="9.608346326405247"><ele>7.666666666666667</ele><time>2026-03-28T08:16:47Z</time></trkpt><trkpt lat="39.513142663105945" lon="9.608194780621993"><ele>8.333333333333334</ele><time>2026-03-28T08:16:48Z</time></trkpt><trkpt lat="39.5132763256082" lon="9.608074543234558"><ele>9.0</ele><time>2026-03-28T08:16:49Z</time></trkpt><trkpt lat="39.51341080188784" lon="9.607953588855455"><ele>11.0</ele><time>2026-03-28T08:16:50Z</time></trkpt><trkpt lat="39.513527718783344" lon="9.607806048483244"><ele>13.0</ele><time>2026-03-28T08:16:51Z</time></trkpt><trkpt lat="39.51360798099409" lon="9.607632757425563"><ele>15.0</ele><time>2026-03-28T08:16:52Z</time></trkpt><trkpt lat="39.51367769612743" lon="9.607462331164255"><ele>13.5</ele><time>2026-03-28T08:16:53Z</time></trkpt><trkpt lat="39.51377174251886" lon="9.607332608567152"><ele>12.0</ele><time>2026-03-28T08:16:54Z</time></trkpt><trkpt lat="39.5138896845947" lon="9.607260044561631"><ele>10.5</ele><time>2026-03-28T08:16:55Z</time></trkpt><trkpt lat="39.51403115737757" lon="9.607247919090804"><ele>9.0</ele><time>2026-03-28T08:16:56Z</time></trkpt><trkpt lat="39.514182972335306" lon="9.6072620799159"><ele>9.0</ele><time>2026-03-28T08:16:57Z</time></trkpt><trkpt lat="39.5143460372216" lon="9.607276171417197"><ele>9.0</ele><time>2026-03-28T08:16:58Z</time></trkpt><trkpt lat="39.5145117445527" lon="9.607295854561347"><ele>9.0</ele><time>2026-03-28T08:16:59Z</time></trkpt><trkpt lat="39.51468337431551" lon="9.607320482732037"><ele>9.666666666666666</ele><time>2026-03-28T08:17:00Z</time></trkpt><trkpt lat="39.51485116367451" lon="9.607347211212339"><ele>10.333333333333332</ele><time>2026-03-28T08:17:01Z</time></trkpt><trkpt lat="39.51501500856228" lon="9.607373726570069"><ele>11.0</ele><time>2026-03-28T08:17:02Z</time></trkpt><trkpt lat="39.515176509929034" lon="9.607395756667069"><ele>11.0</ele><time>2026-03-28T08:17:03Z</time></trkpt><trkpt lat="39.51533577011557" lon="9.607402417399754"><ele>11.0</ele><time>2026-03-28T08:17:04Z</time></trkpt><trkpt lat="39.51549460298829" lon="9.607381092189014"><ele>11.0</ele><time>2026-03-28T08:17:05Z</time></trkpt><trkpt lat="39.515649840249075" lon="9.607356284336332"><ele>11.333333333333332</ele><time>2026-03-28T08:17:06Z</time></trkpt><trkpt lat="39.51580523567923" lon="9.607329293811413"><ele>11.666666666666666</ele><time>2026-03-28T08:17:07Z</time></trkpt><trkpt lat="39.51595404040371" lon="9.607289116359572"><ele>12.0</ele><time>2026-03-28T08:17:08Z</time></trkpt><trkpt lat="39.51609395047391" lon="9.607222645709468"><ele>12.0</ele><time>2026-03-28T08:17:09Z</time></trkpt><trkpt lat="39.516223773449035" lon="9.607132943155634"><ele>12.0</ele><time>2026-03-28T08:17:10Z</time></trkpt><trkpt lat="39.516357773074006" lon="9.607057193252027"><ele>12.0</ele><time>2026-03-28T08:17:11Z</time></trkpt><trkpt lat="39.51650556491834" lon="9.60703096046676"><ele>12.0</ele><time>2026-03-28T08:17:12Z</time></trkpt><trkpt lat="39.51665641916475" lon="9.607060649941287"><ele>11.333333333333334</ele><time>2026-03-28T08:17:13Z</time></trkpt><trkpt lat="39.51680463992862" lon="9.607126521583137"><ele>10.666666666666668</ele><time>2026-03-28T08:17:14Z</time></trkpt><trkpt lat="39.516949875362975" lon="9.607217856617368"><ele>10.0</ele><time>2026-03-28T08:17:15Z</time></trkpt><trkpt lat="39.517100902547" lon="9.607294873430467"><ele>10.0</ele><time>2026-03-28T08:17:16Z</time></trkpt><trkpt lat="39.51725541542377" lon="9.607336472542098"><ele>10.0</ele><time>2026-03-28T08:17:17Z</time></trkpt><trkpt lat="39.51740624572462" lon="9.607321891757238"><ele>10.0</ele><time>2026-03-28T08:17:18Z</time></trkpt><trkpt lat="39.517546788285586" lon="9.60725368304154"><ele>10.0</ele><time>2026-03-28T08:17:19Z</time></trkpt><trkpt lat="39.51767681168878" lon="9.607147695657526"><ele>10.0</ele><time>2026-03-28T08:17:20Z</time></trkpt><trkpt lat="39.51780402394445" lon="9.607026384727654"><ele>10.0</ele><time>2026-03-28T08:17:21Z</time></trkpt><trkpt lat="39.51794391575037" lon="9.606929862765423"><ele>11.0</ele><time>2026-03-28T08:17:22Z</time></trkpt><trkpt lat="39.518095019342326" lon="9.606873685607267"><ele>12.0</ele><time>2026-03-28T08:17:23Z</time></trkpt><trkpt lat="39.51823436488791" lon="9.606813016809612"><ele>13.0</ele><time>2026-03-28T08:17:24Z</time></trkpt><trkpt lat="39.51834685286705" lon="9.606701804227058"><ele>14.0</ele><time>2026-03-28T08:17:25Z</time></trkpt><trkpt lat="39.51843372962357" lon="9.606551471327654"><ele>14.0</ele><time>2026-03-28T08:17:26Z</time></trkpt><trkpt lat="39.51851924129309" lon="9.60640054284176"><ele>14.0</ele><time>2026-03-28T08:17:27Z</time></trkpt><trkpt lat="39.51863838063788" lon="9.606286673890574"><ele>14.0</ele><time>2026-03-28T08:17:28Z</time></trkpt><trkpt lat="39.51879066853307" lon="9.606221854454812"><ele>12.666666666666668</ele><time>2026-03-28T08:17:29Z</time></trkpt><trkpt lat="39.51895613568033" lon="9.606175331238985"><ele>11.333333333333334</ele><time>2026-03-28T08:17:30Z</time></trkpt><trkpt lat="39.519127691637834" lon="9.606110909398117"><ele>10.0</ele><time>2026-03-28T08:17:31Z</time></trkpt><trkpt lat="39.51930131826857" lon="9.606045613004577"><ele>11.333333333333334</ele><time>2026-03-28T08:17:32Z</time></trkpt><trkpt lat="39.519474889149436" lon="9.605979949037346"><ele>12.666666666666668</ele><time>2026-03-28T08:17:33Z</time></trkpt><trkpt lat="39.5196454209749" lon="9.605914034180648"><ele>14.0</ele><time>2026-03-28T08:17:34Z</time></trkpt><trkpt lat="39.51981221554579" lon="9.60584342988757"><ele>14.0</ele><time>2026-03-28T08:17:35Z</time></trkpt><trkpt lat="39.51997087239493" lon="9.605754559445936"><ele>14.0</ele><time>2026-03-28T08:17:36Z</time></trkpt><trkpt lat="39.520116655492274" lon="9.60564049569933"><ele>14.0</ele><time>2026-03-28T08:17:37Z</time></trkpt><trkpt lat="39.52025013738486" lon="9.605509603333498"><ele>14.0</ele><time>2026-03-28T08:17:38Z</time></trkpt><trkpt lat="39.52036235498497" lon="9.605364528526657"><ele>14.0</ele><time>2026-03-28T08:17:39Z</time></trkpt><trkpt lat="39.52045172484953" lon="9.605194609631925"><ele>14.0</ele><time>2026-03-28T08:17:40Z</time></trkpt><trkpt lat="39.520517605543475" lon="9.60501787844609"><ele>14.0</ele><time>2026-03-28T08:17:41Z</time></trkpt><trkpt lat="39.52054813188687" lon="9.604836979191976"><ele>14.0</ele><time>2026-03-28T08:17:42Z</time></trkpt><trkpt lat="39.52052724152175" lon="9.604658111469723"><ele>14.0</ele><time>2026-03-28T08:17:43Z</time></trkpt><trkpt lat="39.52046314566136" lon="9.604487437276816"><ele>14.0</ele><time>2026-03-28T08:17:44Z</time></trkpt><trkpt lat="39.520387240572084" lon="9.604309817701143"><ele>14.0</ele><time>2026-03-28T08:17:45Z</time></trkpt><trkpt lat="39.520298911934596" lon="9.604149972034786"><ele>14.0</ele><time>2026-03-28T08:17:46Z</time></trkpt><trkpt lat="39.52017109068058" lon="9.604040670338724"><ele>14.0</ele><time>2026-03-28T08:17:47Z</time></trkpt><trkpt lat="39.520014483870625" lon="9.603978922544764"><ele>14.0</ele><time>2026-03-28T08:17:48Z</time></trkpt><trkpt lat="39.51985539481703" lon="9.603946802906261"><ele>14.0</ele><time>2026-03-28T08:17:49Z</time></trkpt><trkpt lat="39.51970858026456" lon="9.603905981467815"><ele>14.0</ele><time>2026-03-28T08:17:50Z</time></trkpt><trkpt lat="39.519584050590915" lon="9.603790675900571"><ele>13.666666666666668</ele><time>2026-03-28T08:17:51Z</time></trkpt><trkpt lat="39.51944740340204" lon="9.603676246422099"><ele>13.333333333333332</ele><time>2026-03-28T08:17:52Z</time></trkpt><trkpt lat="39.51932503364491" lon="9.603538935760396"><ele>13.0</ele><time>2026-03-28T08:17:53Z</time></trkpt><trkpt lat="39.51918336601067" lon="9.603377012890741"><ele>13.0</ele><time>2026-03-28T08:17:54Z</time></trkpt><trkpt lat="39.51905902255645" lon="9.603226055248346"><ele>13.0</ele><time>2026-03-28T08:17:55Z</time></trkpt><trkpt lat="39.51897500256589" lon="9.60304984633446"><ele>13.0</ele><time>2026-03-28T08:17:56Z</time></trkpt><trkpt lat="39.51892127664266" lon="9.602844621602497"><ele>15.0</ele><time>2026-03-28T08:17:57Z</time></trkpt><trkpt lat="39.5188495352267" lon="9.602623878217397"><ele>17.0</ele><time>2026-03-28T08:17:58Z</time></trkpt><trkpt lat="39.518740856030476" lon="9.602421320011478"><ele>19.0</ele><time>2026-03-28T08:17:59Z</time></trkpt><trkpt lat="39.51862708122519" lon="9.602217401197752"><ele>19.0</ele><time>2026-03-28T08:18:00Z</time></trkpt><trkpt lat="39.518494105690166" lon="9.602022980523158"><ele>19.0</ele><time>2026-03-28T08:18:01Z</time></trkpt><trkpt lat="39.51836224876177" lon="9.601840994775275"><ele>19.0</ele><time>2026-03-28T08:18:02Z</time></trkpt><trkpt lat="39.51823122479071" lon="9.601660418626821"><ele>16.333333333333332</ele><time>2026-03-28T08:18:03Z</time></trkpt><trkpt lat="39.51810980668675" lon="9.601475407112556"><ele>13.666666666666666</ele><time>2026-03-28T08:18:04Z</time></trkpt><trkpt lat="39.51801280556883" lon="9.601269338989686"><ele>11.0</ele><time>2026-03-28T08:18:05Z</time></trkpt><trkpt lat="39.51791052061397" lon="9.601071637235608"><ele>13.333333333333332</ele><time>2026-03-28T08:18:06Z</time></trkpt><trkpt lat="39.517809920519284" lon="9.600875332775434"><ele>15.666666666666666</ele><time>2026-03-28T08:18:07Z</time></trkpt><trkpt lat="39.51771206678674" lon="9.600680729050373"><ele>18.0</ele><time>2026-03-28T08:18:08Z</time></trkpt><trkpt lat="39.517621706040856" lon="9.600482608959673"><ele>14.666666666666666</ele><time>2026-03-28T08:18:09Z</time></trkpt><trkpt lat="39.51755259952973" lon="9.60027704194839"><ele>11.333333333333332</ele><time>2026-03-28T08:18:10Z</time></trkpt><trkpt lat="39.51749189075977" lon="9.600063496656993"><ele>8.0</ele><time>2026-03-28T08:18:11Z</time></trkpt><trkpt lat="39.51744416479011" lon="9.59984880097106"><ele>8.0</ele><time>2026-03-28T08:18:12Z</time></trkpt><trkpt lat="39.517421670282744" lon="9.599629954572414"><ele>8.0</ele><time>2026-03-28T08:18:13Z</time></trkpt><trkpt lat="39.517439171665224" lon="9.599417078722984"><ele>8.0</ele><time>2026-03-28T08:18:14Z</time></trkpt><trkpt lat="39.5174783309615" lon="9.599196089927931"><ele>7.666666666666666</ele><time>2026-03-28T08:18:15Z</time></trkpt><trkpt lat="39.51752662113038" lon="9.598955218734194"><ele>7.333333333333334</ele><time>2026-03-28T08:18:16Z</time></trkpt><trkpt lat="39.51755772615154" lon="9.59872198665082"><ele>7.0</ele><time>2026-03-28T08:18:17Z</time></trkpt><trkpt lat="39.517618857817226" lon="9.598495564075487"><ele>7.0</ele><time>2026-03-28T08:18:18Z</time></trkpt><trkpt lat="39.51766655982763" lon="9.598255264811378"><ele>7.0</ele><time>2026-03-28T08:18:19Z</time></trkpt><trkpt lat="39.517713411814185" lon="9.598016727990444"><ele>7.0</ele><time>2026-03-28T08:18:20Z</time></trkpt><trkpt lat="39.51776032404712" lon="9.59777788448553"><ele>7.666666666666667</ele><time>2026-03-28T08:18:21Z</time></trkpt><trkpt lat="39.51780732396396" lon="9.597538594515882"><ele>8.333333333333334</ele><time>2026-03-28T08:18:22Z</time></trkpt><trkpt lat="39.51785392377982" lon="9.597301341591399"><ele>9.0</ele><time>2026-03-28T08:18:23Z</time></trkpt><trkpt lat="39.51790037496569" lon="9.59706758393974"><ele>8.666666666666666</ele><time>2026-03-28T08:18:24Z</time></trkpt><trkpt lat="39.51794727829612" lon="9.596836998108401"><ele>8.333333333333332</ele><time>2026-03-28T08:18:25Z</time></trkpt><trkpt lat="39.51799747215354" lon="9.596610595760128"><ele>8.0</ele><time>2026-03-28T08:18:26Z</time></trkpt><trkpt lat="39.518060408702446" lon="9.596393388985183"><ele>8.0</ele><time>2026-03-28T08:18:27Z</time></trkpt><trkpt lat="39.51815041992637" lon="9.59619512802615"><ele>8.0</ele><time>2026-03-28T08:18:28Z</time></trkpt><trkpt lat="39.5182642647084" lon="9.596016859186255"><ele>8.0</ele><time>2026-03-28T08:18:29Z</time></trkpt><trkpt lat="39.51839286692801" lon="9.595844755859831"><ele>8.0</ele><time>2026-03-28T08:18:30Z</time></trkpt><trkpt lat="39.51855771870816" lon="9.595742377173767"><ele>8.0</ele><time>2026-03-28T08:18:31Z</time></trkpt><trkpt lat="39.51872533869441" lon="9.595664314251657"><ele>8.0</ele><time>2026-03-28T08:18:32Z</time></trkpt><trkpt lat="39.51890306053302" lon="9.595608809012333"><ele>8.0</ele><time>2026-03-28T08:18:33Z</time></trkpt><trkpt lat="39.51908711137599" lon="9.595546556274392"><ele>8.0</ele><time>2026-03-28T08:18:34Z</time></trkpt><trkpt lat="39.519275129611096" lon="9.595509028350474"><ele>8.0</ele><time>2026-03-28T08:18:35Z</time></trkpt><trkpt lat="39.519465239736284" lon="9.595476438049035"><ele>7.666666666666666</ele><time>2026-03-28T08:18:36Z</time></trkpt><trkpt lat="39.519655888494974" lon="9.595461841470662"><ele>7.333333333333334</ele><time>2026-03-28T08:18:37Z</time></trkpt><trkpt lat="39.51984883019169" lon="9.595453844521574"><ele>7.0</ele><time>2026-03-28T08:18:38Z</time></trkpt><trkpt lat="39.52004207728437" lon="9.595442511640838"><ele>7.0</ele><time>2026-03-28T08:18:39Z</time></trkpt><trkpt lat="39.520232411704505" lon="9.595416823341026"><ele>7.0</ele><time>2026-03-28T08:18:40Z</time></trkpt><trkpt lat="39.52042006938901" lon="9.595357712783102"><ele>7.0</ele><time>2026-03-28T08:18:41Z</time></trkpt><trkpt lat="39.520601428639964" lon="9.595268327714619"><ele>7.333333333333334</ele><time>2026-03-28T08:18:42Z</time></trkpt><trkpt lat="39.5207747076084" lon="9.59514925775916"><ele>7.666666666666666</ele><time>2026-03-28T08:18:43Z</time></trkpt><trkpt lat="39.520936323054116" lon="9.595003564507293"><ele>8.0</ele><time>2026-03-28T08:18:44Z</time></trkpt><trkpt lat="39.52109114238124" lon="9.59484583923962"><ele>8.0</ele><time>2026-03-28T08:18:45Z</time></trkpt><trkpt lat="39.52124865451766" lon="9.594692423626771"><ele>8.0</ele><time>2026-03-28T08:18:46Z</time></trkpt><trkpt lat="39.521405630321645" lon="9.594544433209002"><ele>8.0</ele><time>2026-03-28T08:18:47Z</time></trkpt><trkpt lat="39.521562624312644" lon="9.594396312742674"><ele>8.0</ele><time>2026-03-28T08:18:48Z</time></trkpt><trkpt lat="39.52171902300459" lon="9.594250798572006"><ele>8.0</ele><time>2026-03-28T08:18:49Z</time></trkpt><trkpt lat="39.521874051134645" lon="9.5941081635462"><ele>8.0</ele><time>2026-03-28T08:18:50Z</time></trkpt><trkpt lat="39.522028805667595" lon="9.593967814823651"><ele>8.333333333333332</ele><time>2026-03-28T08:18:51Z</time></trkpt><trkpt lat="39.52219644904061" lon="9.593864519083324"><ele>8.666666666666666</ele><time>2026-03-28T08:18:52Z</time></trkpt><trkpt lat="39.52237131684445" lon="9.593788376958525"><ele>9.0</ele><time>2026-03-28T08:18:53Z</time></trkpt><trkpt lat="39.522557354653344" lon="9.593734389680149"><ele>9.0</ele><time>2026-03-28T08:18:54Z</time></trkpt><trkpt lat="39.522740123677686" lon="9.593674657816182"><ele>9.0</ele><time>2026-03-28T08:18:55Z</time></trkpt><trkpt lat="39.52291770333776" lon="9.593616839396285"><ele>9.0</ele><time>2026-03-28T08:18:56Z</time></trkpt><trkpt lat="39.52307736196234" lon="9.593514599353579"><ele>9.0</ele><time>2026-03-28T08:18:57Z</time></trkpt><trkpt lat="39.52321298847627" lon="9.593360920874746"><ele>9.0</ele><time>2026-03-28T08:18:58Z</time></trkpt><trkpt lat="39.523319520589446" lon="9.593177596060617"><ele>9.0</ele><time>2026-03-28T08:18:59Z</time></trkpt><trkpt lat="39.52338932012336" lon="9.592957284011767"><ele>10.666666666666668</ele><time>2026-03-28T08:19:00Z</time></trkpt><trkpt lat="39.523448494707274" lon="9.592731086689"><ele>12.333333333333334</ele><time>2026-03-28T08:19:01Z</time></trkpt><trkpt lat="39.52351108944362" lon="9.592505225883963"><ele>14.0</ele><time>2026-03-28T08:19:02Z</time></trkpt><trkpt lat="39.52357667486726" lon="9.592283239206152"><ele>14.0</ele><time>2026-03-28T08:19:03Z</time></trkpt><trkpt lat="39.52364256155354" lon="9.592066105938088"><ele>14.0</ele><time>2026-03-28T08:19:04Z</time></trkpt><trkpt lat="39.523705470208945" lon="9.591847049434767"><ele>14.0</ele><time>2026-03-28T08:19:05Z</time></trkpt><trkpt lat="39.52375165536232" lon="9.591618443810912"><ele>12.333333333333334</ele><time>2026-03-28T08:19:06Z</time></trkpt><trkpt lat="39.52376747894778" lon="9.591377855762957"><ele>10.666666666666668</ele><time>2026-03-28T08:19:07Z</time></trkpt><trkpt lat="39.52377775837465" lon="9.591134202185005"><ele>9.0</ele><time>2026-03-28T08:19:08Z</time></trkpt><trkpt lat="39.523790389018636" lon="9.590899343791168"><ele>8.666666666666666</ele><time>2026-03-28T08:19:09Z</time></trkpt><trkpt lat="39.52379240071064" lon="9.590669955019061"><ele>8.333333333333332</ele><time>2026-03-28T08:19:10Z</time></trkpt><trkpt lat="39.523759857402815" lon="9.590447628550049"><ele>8.0</ele><time>2026-03-28T08:19:11Z</time></trkpt><trkpt lat="39.5237022170961" lon="9.590233706595999"><ele>11.0</ele><time>2026-03-28T08:19:12Z</time></trkpt><trkpt lat="39.52366605014871" lon="9.590018444834467"><ele>14.0</ele><time>2026-03-28T08:19:13Z</time></trkpt><trkpt lat="39.52362956566154" lon="9.589821696919742"><ele>17.0</ele><time>2026-03-28T08:19:14Z</time></trkpt><trkpt lat="39.523624462822745" lon="9.589646142456582"><ele>16.75</ele><time>2026-03-28T08:19:15Z</time></trkpt><trkpt lat="39.52366743854696" lon="9.589503744125205"><ele>16.5</ele><time>2026-03-28T08:19:16Z</time></trkpt><trkpt lat="39.523729302751455" lon="9.589383013430547"><ele>16.25</ele><time>2026-03-28T08:19:17Z</time></trkpt><trkpt lat="39.523840854907164" lon="9.58930065688361"><ele>16.0</ele><time>2026-03-28T08:19:18Z</time></trkpt><trkpt lat="39.52397603095513" lon="9.589272731213327"><ele>14.0</ele><time>2026-03-28T08:19:19Z</time></trkpt><trkpt lat="39.52411821646522" lon="9.589261566528982"><ele>12.0</ele><time>2026-03-28T08:19:20Z</time></trkpt><trkpt lat="39.52426737923906" lon="9.589263107931458"><ele>10.0</ele><time>2026-03-28T08:19:21Z</time></trkpt><trkpt lat="39.52442378816057" lon="9.589292788346512"><ele>9.666666666666668</ele><time>2026-03-28T08:19:22Z</time></trkpt><trkpt lat="39.52458562231028" lon="9.589312226160477"><ele>9.333333333333334</ele><time>2026-03-28T08:19:23Z</time></trkpt><trkpt lat="39.5247488892995" lon="9.589326018565833"><ele>9.0</ele><time>2026-03-28T08:19:24Z</time></trkpt><trkpt lat="39.52491619618603" lon="9.589343444396444"><ele>9.0</ele><time>2026-03-28T08:19:25Z</time></trkpt><trkpt lat="39.525085170632956" lon="9.589363239911236"><ele>9.0</ele><time>2026-03-28T08:19:26Z</time></trkpt><trkpt lat="39.52525793469367" lon="9.589387350344659"><ele>9.0</ele><time>2026-03-28T08:19:27Z</time></trkpt><trkpt lat="39.525432066668266" lon="9.589412491286334"><ele>9.0</ele><time>2026-03-28T08:19:28Z</time></trkpt><trkpt lat="39.525609393895806" lon="9.589436317602805"><ele>9.0</ele><time>2026-03-28T08:19:29Z</time></trkpt><trkpt lat="39.52578727073934" lon="9.589461546377434"><ele>9.0</ele><time>2026-03-28T08:19:30Z</time></trkpt><trkpt lat="39.52596895188203" lon="9.589482346966635"><ele>9.0</ele><time>2026-03-28T08:19:31Z</time></trkpt><trkpt lat="39.52615175195257" lon="9.589504222762034"><ele>9.0</ele><time>2026-03-28T08:19:32Z</time></trkpt><trkpt lat="39.52634032818335" lon="9.58952535699748"><ele>9.0</ele><time>2026-03-28T08:19:33Z</time></trkpt><trkpt lat="39.5265328737241" lon="9.589548380930351"><ele>9.333333333333334</ele><time>2026-03-28T08:19:34Z</time></trkpt><trkpt lat="39.5267248416676" lon="9.589574618249213"><ele>9.666666666666668</ele><time>2026-03-28T08:19:35Z</time></trkpt><trkpt lat="39.52691688366097" lon="9.589604583820392"><ele>10.0</ele><time>2026-03-28T08:19:36Z</time></trkpt><trkpt lat="39.52710910150183" lon="9.58964202440145"><ele>10.333333333333334</ele><time>2026-03-28T08:19:37Z</time></trkpt><trkpt lat="39.52729787974327" lon="9.589693897811745"><ele>10.666666666666666</ele><time>2026-03-28T08:19:38Z</time></trkpt><trkpt lat="39.52748223002681" lon="9.589760100830812"><ele>11.0</ele><time>2026-03-28T08:19:39Z</time></trkpt><trkpt lat="39.527663162777216" lon="9.589818913114266"><ele>11.0</ele><time>2026-03-28T08:19:40Z</time></trkpt><trkpt lat="39.5278404760474" lon="9.589846939494349"><ele>11.0</ele><time>2026-03-28T08:19:41Z</time></trkpt><trkpt lat="39.528008538590655" lon="9.589857308283069"><ele>11.0</ele><time>2026-03-28T08:19:42Z</time></trkpt><trkpt lat="39.52816178782483" lon="9.589902281182756"><ele>13.0</ele><time>2026-03-28T08:19:43Z</time></trkpt><trkpt lat="39.52829097353696" lon="9.590010174536712"><ele>15.0</ele><time>2026-03-28T08:19:44Z</time></trkpt><trkpt lat="39.528414089920794" lon="9.590140203553348"><ele>17.0</ele><time>2026-03-28T08:19:45Z</time></trkpt><trkpt lat="39.52855349648736" lon="9.590239062567946"><ele>17.0</ele><time>2026-03-28T08:19:46Z</time></trkpt><trkpt lat="39.52871175558633" lon="9.590303175222022"><ele>17.0</ele><time>2026-03-28T08:19:47Z</time></trkpt><trkpt lat="39.52887847266475" lon="9.590354281526169"><ele>17.0</ele><time>2026-03-28T08:19:48Z</time></trkpt><trkpt lat="39.529049354074125" lon="9.59039776575925"><ele>14.666666666666668</ele><time>2026-03-28T08:19:49Z</time></trkpt><trkpt lat="39.52922664892456" lon="9.590414511974064"><ele>12.333333333333334</ele><time>2026-03-28T08:19:50Z</time></trkpt><trkpt lat="39.5294095659073" lon="9.590401145417704"><ele>10.0</ele><time>2026-03-28T08:19:51Z</time></trkpt><trkpt lat="39.52959361591977" lon="9.59038917262021"><ele>10.0</ele><time>2026-03-28T08:19:52Z</time></trkpt><trkpt lat="39.52977572638" lon="9.590389583072167"><ele>10.0</ele><time>2026-03-28T08:19:53Z</time></trkpt><trkpt lat="39.52995958942109" lon="9.590393272985471"><ele>10.0</ele><time>2026-03-28T08:19:54Z</time></trkpt><trkpt lat="39.5301393817094" lon="9.590387280050772"><ele>10.0</ele><time>2026-03-28T08:19:55Z</time></trkpt><trkpt lat="39.53031700157718" lon="9.59035674069964"><ele>10.0</ele><time>2026-03-28T08:19:56Z</time></trkpt><trkpt lat="39.53048006049702" lon="9.590304763529234"><ele>10.0</ele><time>2026-03-28T08:19:57Z</time></trkpt><trkpt lat="39.530639542894306" lon="9.590255060113208"><ele>9.333333333333334</ele><time>2026-03-28T08:19:58Z</time></trkpt><trkpt lat="39.530794508885435" lon="9.590228113078151"><ele>8.666666666666666</ele><time>2026-03-28T08:19:59Z</time></trkpt><trkpt lat="39.53095156929063" lon="9.59024502294748"><ele>8.0</ele><time>2026-03-28T08:20:00Z</time></trkpt><trkpt lat="39.53108342835627" lon="9.590352988862692"><ele>8.666666666666666</ele><time>2026-03-28T08:20:01Z</time></trkpt><trkpt lat="39.5312277698119" lon="9.590440732230917"><ele>9.333333333333334</ele><time>2026-03-28T08:20:02Z</time></trkpt><trkpt lat="39.53136722134068" lon="9.590553229875884"><ele>10.0</ele><time>2026-03-28T08:20:03Z</time></trkpt><trkpt lat="39.53151216363758" lon="9.59065411837442"><ele>10.0</ele><time>2026-03-28T08:20:04Z</time></trkpt><trkpt lat="39.53166161251" lon="9.590748449191986"><ele>10.0</ele><time>2026-03-28T08:20:05Z</time></trkpt><trkpt lat="39.53181061813942" lon="9.590846312379979"><ele>10.0</ele><time>2026-03-28T08:20:06Z</time></trkpt><trkpt lat="39.53195944720886" lon="9.59095080427121"><ele>10.0</ele><time>2026-03-28T08:20:07Z</time></trkpt><trkpt lat="39.53211013249082" lon="9.591052089721797"><ele>10.0</ele><time>2026-03-28T08:20:08Z</time></trkpt><trkpt lat="39.53226928154338" lon="9.59113050919137"><ele>10.0</ele><time>2026-03-28T08:20:09Z</time></trkpt><trkpt lat="39.53243486517598" lon="9.59117499556701"><ele>10.0</ele><time>2026-03-28T08:20:10Z</time></trkpt><trkpt lat="39.532606938353034" lon="9.591195908802371"><ele>10.0</ele><time>2026-03-28T08:20:11Z</time></trkpt><trkpt lat="39.532779696921054" lon="9.591186621604114"><ele>10.0</ele><time>2026-03-28T08:20:12Z</time></trkpt><trkpt lat="39.53294903807514" lon="9.591146796508728"><ele>13.333333333333334</ele><time>2026-03-28T08:20:13Z</time></trkpt><trkpt lat="39.53311315733689" lon="9.591096337376595"><ele>16.666666666666668</ele><time>2026-03-28T08:20:14Z</time></trkpt><trkpt lat="39.53326780599424" lon="9.591058286737518"><ele>20.0</ele><time>2026-03-28T08:20:15Z</time></trkpt><trkpt lat="39.53341619727416" lon="9.591045777758243"><ele>20.0</ele><time>2026-03-28T08:20:16Z</time></trkpt><trkpt lat="39.53355568939058" lon="9.591083177759225"><ele>20.0</ele><time>2026-03-28T08:20:17Z</time></trkpt><trkpt lat="39.53365227397596" lon="9.591214987661543"><ele>20.0</ele><time>2026-03-28T08:20:18Z</time></trkpt><trkpt lat="39.533735920134156" lon="9.59135653969177"><ele>20.0</ele><time>2026-03-28T08:20:19Z</time></trkpt><trkpt lat="39.53384445231892" lon="9.591481339594363"><ele>19.333333333333336</ele><time>2026-03-28T08:20:20Z</time></trkpt><trkpt lat="39.53397808526545" lon="9.591589132299967"><ele>18.666666666666668</ele><time>2026-03-28T08:20:21Z</time></trkpt><trkpt lat="39.53413408758307" lon="9.591682533922606"><ele>18.0</ele><time>2026-03-28T08:20:22Z</time></trkpt><trkpt lat="39.53428700284228" lon="9.591782753428856"><ele>18.0</ele><time>2026-03-28T08:20:23Z</time></trkpt><trkpt lat="39.53443652271639" lon="9.591887311957246"><ele>18.0</ele><time>2026-03-28T08:20:24Z</time></trkpt><trkpt lat="39.534591634288546" lon="9.591981164316058"><ele>18.0</ele><time>2026-03-28T08:20:25Z</time></trkpt><trkpt lat="39.53475101535422" lon="9.592045426916942"><ele>18.75</ele><time>2026-03-28T08:20:26Z</time></trkpt><trkpt lat="39.534899357538386" lon="9.592083485890047"><ele>19.5</ele><time>2026-03-28T08:20:27Z</time></trkpt><trkpt lat="39.535048263845695" lon="9.592114757858745"><ele>20.25</ele><time>2026-03-28T08:20:28Z</time></trkpt><trkpt lat="39.535184402422445" lon="9.592084799580176"><ele>21.0</ele><time>2026-03-28T08:20:29Z</time></trkpt><trkpt lat="39.53531882222772" lon="9.592001887242729"><ele>19.5</ele><time>2026-03-28T08:20:30Z</time></trkpt><trkpt lat="39.53544135841265" lon="9.591895058043086"><ele>18.0</ele><time>2026-03-28T08:20:31Z</time></trkpt><trkpt lat="39.53556424309274" lon="9.591805386225094"><ele>16.5</ele><time>2026-03-28T08:20:32Z</time></trkpt><trkpt lat="39.53570672844434" lon="9.591760757759156"><ele>15.0</ele><time>2026-03-28T08:20:33Z</time></trkpt><trkpt lat="39.53585546188871" lon="9.591769666670473"><ele>15.0</ele><time>2026-03-28T08:20:34Z</time></trkpt><trkpt lat="39.53599787963979" lon="9.591837136562582"><ele>15.0</ele><time>2026-03-28T08:20:35Z</time></trkpt><trkpt lat="39.53613093684293" lon="9.591936436962566"><ele>15.0</ele><time>2026-03-28T08:20:36Z</time></trkpt><trkpt lat="39.53626969762391" lon="9.592035430013903"><ele>14.333333333333332</ele><time>2026-03-28T08:20:37Z</time></trkpt><trkpt lat="39.53642539448792" lon="9.592104583997672"><ele>13.666666666666666</ele><time>2026-03-28T08:20:38Z</time></trkpt><trkpt lat="39.53659005657823" lon="9.592124855282908"><ele>13.0</ele><time>2026-03-28T08:20:39Z</time></trkpt><trkpt lat="39.536763665438855" lon="9.592115314169531"><ele>13.0</ele><time>2026-03-28T08:20:40Z</time></trkpt><trkpt lat="39.53694069602122" lon="9.592096869217789"><ele>13.0</ele><time>2026-03-28T08:20:41Z</time></trkpt><trkpt lat="39.5371197362852" lon="9.592079349136478"><ele>13.0</ele><time>2026-03-28T08:20:42Z</time></trkpt><trkpt lat="39.537298874671905" lon="9.5920631271339"><ele>13.0</ele><time>2026-03-28T08:20:43Z</time></trkpt><trkpt lat="39.537478369775016" lon="9.592048054043321"><ele>13.0</ele><time>2026-03-28T08:20:44Z</time></trkpt><trkpt lat="39.53765957389875" lon="9.59203922658864"><ele>13.0</ele><time>2026-03-28T08:20:45Z</time></trkpt><trkpt lat="39.537843593642734" lon="9.592046135132941"><ele>13.0</ele><time>2026-03-28T08:20:46Z</time></trkpt><trkpt lat="39.53802531929044" lon="9.592069732900654"><ele>13.0</ele><time>2026-03-28T08:20:47Z</time></trkpt><trkpt lat="39.53820440233145" lon="9.592098461772805"><ele>13.0</ele><time>2026-03-28T08:20:48Z</time></trkpt><trkpt lat="39.53838496005274" lon="9.592122490751347"><ele>13.0</ele><time>2026-03-28T08:20:49Z</time></trkpt><trkpt lat="39.53856639106533" lon="9.592148889608898"><ele>13.0</ele><time>2026-03-28T08:20:50Z</time></trkpt><trkpt lat="39.53873900644405" lon="9.592203010944543"><ele>13.0</ele><time>2026-03-28T08:20:51Z</time></trkpt><trkpt lat="39.538899394883344" lon="9.5923049760885"><ele>15.0</ele><time>2026-03-28T08:20:52Z</time></trkpt><trkpt lat="39.53904590311157" lon="9.592445345974939"><ele>17.0</ele><time>2026-03-28T08:20:53Z</time></trkpt><trkpt lat="39.539188379505916" lon="9.592588287203942"><ele>19.0</ele><time>2026-03-28T08:20:54Z</time></trkpt><trkpt lat="39.53933383587116" lon="9.59272157866746"><ele>17.333333333333332</ele><time>2026-03-28T08:20:55Z</time></trkpt><trkpt lat="39.539484340923295" lon="9.592856154505055"><ele>15.666666666666668</ele><time>2026-03-28T08:20:56Z</time></trkpt><trkpt lat="39.53963664023023" lon="9.592978423796536"><ele>14.0</ele><time>2026-03-28T08:20:57Z</time></trkpt><trkpt lat="39.539803823477214" lon="9.5930662649099"><ele>14.0</ele><time>2026-03-28T08:20:58Z</time></trkpt><trkpt lat="39.53998346639294" lon="9.593113824289212"><ele>14.0</ele><time>2026-03-28T08:20:59Z</time></trkpt><trkpt lat="39.540166137489756" lon="9.593140695954979"><ele>14.0</ele><time>2026-03-28T08:21:00Z</time></trkpt><trkpt lat="39.54035188318715" lon="9.593172723133746"><ele>14.333333333333334</ele><time>2026-03-28T08:21:01Z</time></trkpt><trkpt lat="39.540536085541916" lon="9.593210046841811"><ele>14.666666666666668</ele><time>2026-03-28T08:21:02Z</time></trkpt><trkpt lat="39.54071780413419" lon="9.593257960501038"><ele>15.0</ele><time>2026-03-28T08:21:03Z</time></trkpt><trkpt lat="39.54089755710421" lon="9.59332232528338"><ele>15.0</ele><time>2026-03-28T08:21:04Z</time></trkpt><trkpt lat="39.54107061844602" lon="9.593398518646143"><ele>15.0</ele><time>2026-03-28T08:21:05Z</time></trkpt><trkpt lat="39.541239147963864" lon="9.593478659674872"><ele>15.0</ele><time>2026-03-28T08:21:06Z</time></trkpt><trkpt lat="39.54140278673005" lon="9.593548643215232"><ele>15.0</ele><time>2026-03-28T08:21:07Z</time></trkpt><trkpt lat="39.541558188865544" lon="9.59359392690828"><ele>15.0</ele><time>2026-03-28T08:21:08Z</time></trkpt><trkpt lat="39.54170599054325" lon="9.593587108699316"><ele>15.0</ele><time>2026-03-28T08:21:09Z</time></trkpt><trkpt lat="39.541843756191035" lon="9.593515620621805"><ele>15.0</ele><time>2026-03-28T08:21:10Z</time></trkpt><trkpt lat="39.54197794635404" lon="9.59342320598522"><ele>15.0</ele><time>2026-03-28T08:21:11Z</time></trkpt><trkpt lat="39.542112286701595" lon="9.593367961636174"><ele>15.0</ele><time>2026-03-28T08:21:12Z</time></trkpt><trkpt lat="39.542245964906606" lon="9.593380185233615"><ele>15.0</ele><time>2026-03-28T08:21:13Z</time></trkpt><trkpt lat="39.54236282902008" lon="9.593461278956523"><ele>15.0</ele><time>2026-03-28T08:21:14Z</time></trkpt><trkpt lat="39.54245461542468" lon="9.593595113190709"><ele>15.0</ele><time>2026-03-28T08:21:15Z</time></trkpt><trkpt lat="39.542525185956144" lon="9.5937610202162"><ele>15.0</ele><time>2026-03-28T08:21:16Z</time></trkpt><trkpt lat="39.54260635911265" lon="9.593910427756093"><ele>15.0</ele><time>2026-03-28T08:21:17Z</time></trkpt><trkpt lat="39.542713264822176" lon="9.594006215719755"><ele>15.5</ele><time>2026-03-28T08:21:18Z</time></trkpt><trkpt lat="39.542841748210186" lon="9.594036278855466"><ele>16.0</ele><time>2026-03-28T08:21:19Z</time></trkpt><trkpt lat="39.542971744825515" lon="9.594003128574416"><ele>16.5</ele><time>2026-03-28T08:21:20Z</time></trkpt><trkpt lat="39.54309450091116" lon="9.593913322085248"><ele>17.0</ele><time>2026-03-28T08:21:21Z</time></trkpt><trkpt lat="39.54320651794828" lon="9.593782835642557"><ele>17.0</ele><time>2026-03-28T08:21:22Z</time></trkpt><trkpt lat="39.5433394861681" lon="9.593672880684666"><ele>17.0</ele><time>2026-03-28T08:21:23Z</time></trkpt><trkpt lat="39.543456987678184" lon="9.593539910876482"><ele>17.0</ele><time>2026-03-28T08:21:24Z</time></trkpt><trkpt lat="39.543596982595204" lon="9.593447131667753"><ele>16.0</ele><time>2026-03-28T08:21:25Z</time></trkpt><trkpt lat="39.543743464286756" lon="9.593378054379285"><ele>15.0</ele><time>2026-03-28T08:21:26Z</time></trkpt><trkpt lat="39.543895260474535" lon="9.59334835648503"><ele>14.0</ele><time>2026-03-28T08:21:27Z</time></trkpt><trkpt lat="39.5440521436521" lon="9.593352594013753"><ele>14.0</ele><time>2026-03-28T08:21:28Z</time></trkpt><trkpt lat="39.54421046300082" lon="9.593380410991916"><ele>14.0</ele><time>2026-03-28T08:21:29Z</time></trkpt><trkpt lat="39.544366765015106" lon="9.593436409944914"><ele>14.0</ele><time>2026-03-28T08:21:30Z</time></trkpt><trkpt lat="39.544518260776016" lon="9.59351709258023"><ele>14.333333333333334</ele><time>2026-03-28T08:21:31Z</time></trkpt><trkpt lat="39.544669864133866" lon="9.593604779986592"><ele>14.666666666666668</ele><time>2026-03-28T08:21:32Z</time></trkpt><trkpt lat="39.54482151673508" lon="9.593691320466869"><ele>15.0</ele><time>2026-03-28T08:21:33Z</time></trkpt><trkpt lat="39.54497614431775" lon="9.59378251206977"><ele>15.0</ele><time>2026-03-28T08:21:34Z</time></trkpt><trkpt lat="39.54513657225408" lon="9.59387345460512"><ele>15.0</ele><time>2026-03-28T08:21:35Z</time></trkpt><trkpt lat="39.54529941462859" lon="9.59395842875962"><ele>15.0</ele><time>2026-03-28T08:21:36Z</time></trkpt><trkpt lat="39.54546715831416" lon="9.594032168696542"><ele>16.0</ele><time>2026-03-28T08:21:37Z</time></trkpt><trkpt lat="39.54564162116089" lon="9.594082827818228"><ele>17.0</ele><time>2026-03-28T08:21:38Z</time></trkpt><trkpt lat="39.54582164870971" lon="9.594123570720338"><ele>18.0</ele><time>2026-03-28T08:21:39Z</time></trkpt><trkpt lat="39.5460039541306" lon="9.594163169903258"><ele>18.0</ele><time>2026-03-28T08:21:40Z</time></trkpt><trkpt lat="39.546185379292424" lon="9.594203202538965"><ele>18.0</ele><time>2026-03-28T08:21:41Z</time></trkpt><trkpt lat="39.54636858487771" lon="9.594245636307427"><ele>18.0</ele><time>2026-03-28T08:21:42Z</time></trkpt><trkpt lat="39.54654733486052" lon="9.594284158408904"><ele>17.0</ele><time>2026-03-28T08:21:43Z</time></trkpt><trkpt lat="39.546719540107546" lon="9.594320024568331"><ele>16.0</ele><time>2026-03-28T08:21:44Z</time></trkpt><trkpt lat="39.54688431362049" lon="9.594353859103903"><ele>15.0</ele><time>2026-03-28T08:21:45Z</time></trkpt><trkpt lat="39.54704270888197" lon="9.59437561460884"><ele>15.0</ele><time>2026-03-28T08:21:46Z</time></trkpt><trkpt lat="39.547194200669686" lon="9.59434854115783"><ele>15.0</ele><time>2026-03-28T08:21:47Z</time></trkpt><trkpt lat="39.547326303506495" lon="9.594258381174328"><ele>15.0</ele><time>2026-03-28T08:21:48Z</time></trkpt><trkpt lat="39.54743866139646" lon="9.594120248266984"><ele>15.0</ele><time>2026-03-28T08:21:49Z</time></trkpt><trkpt lat="39.54754166199366" lon="9.593967648862014"><ele>15.0</ele><time>2026-03-28T08:21:50Z</time></trkpt><trkpt lat="39.54765142177196" lon="9.59382375750672"><ele>15.0</ele><time>2026-03-28T08:21:51Z</time></trkpt><trkpt lat="39.54776424142697" lon="9.593683847819724"><ele>15.75</ele><time>2026-03-28T08:21:52Z</time></trkpt><trkpt lat="39.547884235411004" lon="9.593555499028426"><ele>16.5</ele><time>2026-03-28T08:21:53Z</time></trkpt><trkpt lat="39.54801495344198" lon="9.593456140273513"><ele>17.25</ele><time>2026-03-28T08:21:54Z</time></trkpt><trkpt lat="39.548151756038116" lon="9.59340904513477"><ele>18.0</ele><time>2026-03-28T08:21:55Z</time></trkpt><trkpt lat="39.548290312972334" lon="9.593425388627624"><ele>18.0</ele><time>2026-03-28T08:21:56Z</time></trkpt><trkpt lat="39.54843183352175" lon="9.593478991848183"><ele>18.0</ele><time>2026-03-28T08:21:57Z</time></trkpt><trkpt lat="39.54858048395828" lon="9.593535187630545"><ele>18.0</ele><time>2026-03-28T08:21:58Z</time></trkpt><trkpt lat="39.54873561307785" lon="9.593592149506442"><ele>19.0</ele><time>2026-03-28T08:21:59Z</time></trkpt><trkpt lat="39.54889330847887" lon="9.59365527036387"><ele>20.0</ele><time>2026-03-28T08:22:00Z</time></trkpt><trkpt lat="39.54905416087458" lon="9.59371290712755"><ele>21.0</ele><time>2026-03-28T08:22:01Z</time></trkpt><trkpt lat="39.549216781534305" lon="9.59374549325483"><ele>21.333333333333332</ele><time>2026-03-28T08:22:02Z</time></trkpt><trkpt lat="39.54938183415676" lon="9.593739123283408"><ele>21.666666666666664</ele><time>2026-03-28T08:22:03Z</time></trkpt><trkpt lat="39.549544124754526" lon="9.593683105790545"><ele>22.0</ele><time>2026-03-28T08:22:04Z</time></trkpt><trkpt lat="39.54970453676597" lon="9.59358880305522"><ele>22.0</ele><time>2026-03-28T08:22:05Z</time></trkpt><trkpt lat="39.549860470458306" lon="9.593482214183071"><ele>22.0</ele><time>2026-03-28T08:22:06Z</time></trkpt><trkpt lat="39.55001842179453" lon="9.593377091698324"><ele>22.0</ele><time>2026-03-28T08:22:07Z</time></trkpt><trkpt lat="39.550180297269115" lon="9.593274406435032"><ele>22.0</ele><time>2026-03-28T08:22:08Z</time></trkpt><trkpt lat="39.55034531877103" lon="9.593168388620667"><ele>22.0</ele><time>2026-03-28T08:22:09Z</time></trkpt><trkpt lat="39.55051181112861" lon="9.593058662349444"><ele>22.0</ele><time>2026-03-28T08:22:10Z</time></trkpt><trkpt lat="39.55067778373091" lon="9.592948455346834"><ele>21.666666666666664</ele><time>2026-03-28T08:22:11Z</time></trkpt><trkpt lat="39.5508444195948" lon="9.592839475739217"><ele>21.333333333333332</ele><time>2026-03-28T08:22:12Z</time></trkpt><trkpt lat="39.55101358648311" lon="9.592729640144428"><ele>21.0</ele><time>2026-03-28T08:22:13Z</time></trkpt><trkpt lat="39.55118238845113" lon="9.59262147057814"><ele>21.666666666666668</ele><time>2026-03-28T08:22:14Z</time></trkpt><trkpt lat="39.55135063028264" lon="9.592508961822993"><ele>22.333333333333336</ele><time>2026-03-28T08:22:15Z</time></trkpt><trkpt lat="39.55151691269648" lon="9.592398224251745"><ele>23.0</ele><time>2026-03-28T08:22:16Z</time></trkpt><trkpt lat="39.55168567378749" lon="9.592288252591354"><ele>23.0</ele><time>2026-03-28T08:22:17Z</time></trkpt><trkpt lat="39.55185566753534" lon="9.592177357397347"><ele>23.0</ele><time>2026-03-28T08:22:18Z</time></trkpt><trkpt lat="39.55202732546084" lon="9.592067059716578"><ele>23.0</ele><time>2026-03-28T08:22:19Z</time></trkpt><trkpt lat="39.552199350237764" lon="9.591955629807895"><ele>23.0</ele><time>2026-03-28T08:22:20Z</time></trkpt><trkpt lat="39.552369801579616" lon="9.591842540390235"><ele>23.0</ele><time>2026-03-28T08:22:21Z</time></trkpt><trkpt lat="39.55254320185354" lon="9.591727095640616"><ele>23.0</ele><time>2026-03-28T08:22:22Z</time></trkpt><trkpt lat="39.552717121372176" lon="9.59161297137773"><ele>22.333333333333336</ele><time>2026-03-28T08:22:23Z</time></trkpt><trkpt lat="39.5528902691816" lon="9.591500032328044"><ele>21.666666666666668</ele><time>2026-03-28T08:22:24Z</time></trkpt><trkpt lat="39.55306504153754" lon="9.591385423169317"><ele>21.0</ele><time>2026-03-28T08:22:25Z</time></trkpt><trkpt lat="39.553238776514895" lon="9.591269327029295"><ele>22.0</ele><time>2026-03-28T08:22:26Z</time></trkpt><trkpt lat="39.55341084313858" lon="9.59115779248907"><ele>23.0</ele><time>2026-03-28T08:22:27Z</time></trkpt><trkpt lat="39.55358319603932" lon="9.591048704176695"><ele>24.0</ele><time>2026-03-28T08:22:28Z</time></trkpt><trkpt lat="39.55375622840159" lon="9.590939698497783"><ele>24.0</ele><time>2026-03-28T08:22:29Z</time></trkpt><trkpt lat="39.5539286095241" lon="9.590831673385436"><ele>24.0</ele><time>2026-03-28T08:22:30Z</time></trkpt><trkpt lat="39.554100035980404" lon="9.590723111052172"><ele>24.0</ele><time>2026-03-28T08:22:31Z</time></trkpt><trkpt lat="39.554271583974916" lon="9.590613530604205"><ele>24.0</ele><time>2026-03-28T08:22:32Z</time></trkpt><trkpt lat="39.55442800725557" lon="9.590499464564596"><ele>24.0</ele><time>2026-03-28T08:22:33Z</time></trkpt><trkpt lat="39.55457369745537" lon="9.590354325660943"><ele>24.0</ele><time>2026-03-28T08:22:34Z</time></trkpt><trkpt lat="39.55469044609118" lon="9.590178678866193"><ele>23.333333333333332</ele><time>2026-03-28T08:22:35Z</time></trkpt><trkpt lat="39.5547758137929" lon="9.589981126430292"><ele>22.666666666666664</ele><time>2026-03-28T08:22:36Z</time></trkpt><trkpt lat="39.554826121863066" lon="9.589778159095223"><ele>22.0</ele><time>2026-03-28T08:22:37Z</time></trkpt><trkpt lat="39.55487110274213" lon="9.589592165417985"><ele>23.0</ele><time>2026-03-28T08:22:38Z</time></trkpt><trkpt lat="39.55495227468055" lon="9.589450377317148"><ele>24.0</ele><time>2026-03-28T08:22:39Z</time></trkpt><trkpt lat="39.55507393495043" lon="9.589357698204537"><ele>25.0</ele><time>2026-03-28T08:22:40Z</time></trkpt><trkpt lat="39.555215540993274" lon="9.589301041494329"><ele>26.0</ele><time>2026-03-28T08:22:41Z</time></trkpt><trkpt lat="39.55536974820085" lon="9.58926312224107"><ele>25.666666666666664</ele><time>2026-03-28T08:22:42Z</time></trkpt><trkpt lat="39.55553003488387" lon="9.58922558564965"><ele>25.333333333333336</ele><time>2026-03-28T08:22:43Z</time></trkpt><trkpt lat="39.555696837894374" lon="9.589190906965792"><ele>25.0</ele><time>2026-03-28T08:22:44Z</time></trkpt><trkpt lat="39.55586984618843" lon="9.589164605997668"><ele>25.0</ele><time>2026-03-28T08:22:45Z</time></trkpt><trkpt lat="39.55604714315229" lon="9.589149583966535"><ele>25.0</ele><time>2026-03-28T08:22:46Z</time></trkpt><trkpt lat="39.55622379342591" lon="9.58913092990531"><ele>25.0</ele><time>2026-03-28T08:22:47Z</time></trkpt><trkpt lat="39.556394645355304" lon="9.589092497541635"><ele>23.0</ele><time>2026-03-28T08:22:48Z</time></trkpt><trkpt lat="39.55655442386794" lon="9.589046280695223"><ele>21.0</ele><time>2026-03-28T08:22:49Z</time></trkpt><trkpt lat="39.55669300447386" lon="9.588942695608987"><ele>19.0</ele><time>2026-03-28T08:22:50Z</time></trkpt><trkpt lat="39.55683843676126" lon="9.588907933438954"><ele>19.0</ele><time>2026-03-28T08:22:51Z</time></trkpt><trkpt lat="39.55699048488458" lon="9.588921995958742"><ele>19.0</ele><time>2026-03-28T08:22:52Z</time></trkpt><trkpt lat="39.557140121138865" lon="9.588975305360698"><ele>19.0</ele><time>2026-03-28T08:22:53Z</time></trkpt><trkpt lat="39.55728845588656" lon="9.589061753983911"><ele>18.666666666666664</ele><time>2026-03-28T08:22:54Z</time></trkpt><trkpt lat="39.55743971626404" lon="9.589153588049971"><ele>18.333333333333332</ele><time>2026-03-28T08:22:55Z</time></trkpt><trkpt lat="39.55758738446884" lon="9.589251132519399"><ele>18.0</ele><time>2026-03-28T08:22:56Z</time></trkpt><trkpt lat="39.557723409343886" lon="9.589375621555552"><ele>18.333333333333332</ele><time>2026-03-28T08:22:57Z</time></trkpt><trkpt lat="39.5578392865869" lon="9.589526948557584"><ele>18.666666666666664</ele><time>2026-03-28T08:22:58Z</time></trkpt><trkpt lat="39.55793799920818" lon="9.589695791837766"><ele>19.0</ele><time>2026-03-28T08:22:59Z</time></trkpt><trkpt lat="39.55802666101663" lon="9.5898575124889"><ele>19.5</ele><time>2026-03-28T08:23:00Z</time></trkpt><trkpt lat="39.558118222316814" lon="9.58999917419904"><ele>20.0</ele><time>2026-03-28T08:23:01Z</time></trkpt><trkpt lat="39.55822722317756" lon="9.590098039989744"><ele>20.5</ele><time>2026-03-28T08:23:02Z</time></trkpt><trkpt lat="39.55835443733846" lon="9.590141452353448"><ele>21.0</ele><time>2026-03-28T08:23:03Z</time></trkpt><trkpt lat="39.558490066652915" lon="9.590127107989863"><ele>21.0</ele><time>2026-03-28T08:23:04Z</time></trkpt><trkpt lat="39.55861573609607" lon="9.590049673164792"><ele>21.0</ele><time>2026-03-28T08:23:05Z</time></trkpt><trkpt lat="39.558738792397946" lon="9.589938195058615"><ele>21.0</ele><time>2026-03-28T08:23:06Z</time></trkpt><trkpt lat="39.55883803223128" lon="9.589786851274608"><ele>21.0</ele><time>2026-03-28T08:23:07Z</time></trkpt><trkpt lat="39.55894709397777" lon="9.589636561428016"><ele>21.666666666666668</ele><time>2026-03-28T08:23:08Z</time></trkpt><trkpt lat="39.5590612208953" lon="9.589484596658194"><ele>22.333333333333336</ele><time>2026-03-28T08:23:09Z</time></trkpt><trkpt lat="39.559182764400184" lon="9.589337803504725"><ele>23.0</ele><time>2026-03-28T08:23:10Z</time></trkpt><trkpt lat="39.559313837082286" lon="9.58920652937471"><ele>23.0</ele><time>2026-03-28T08:23:11Z</time></trkpt><trkpt lat="39.55946193769895" lon="9.589104865930148"><ele>23.0</ele><time>2026-03-28T08:23:12Z</time></trkpt><trkpt lat="39.55962435018465" lon="9.589039919413786"><ele>23.0</ele><time>2026-03-28T08:23:13Z</time></trkpt><trkpt lat="39.559792637302735" lon="9.588993100582933"><ele>21.0</ele><time>2026-03-28T08:23:14Z</time></trkpt><trkpt lat="39.55996199718979" lon="9.588935268189612"><ele>19.0</ele><time>2026-03-28T08:23:15Z</time></trkpt><trkpt lat="39.56012658948804" lon="9.588856631722567"><ele>17.0</ele><time>2026-03-28T08:23:16Z</time></trkpt><trkpt lat="39.560288337908425" lon="9.588769478162606"><ele>17.666666666666668</ele><time>2026-03-28T08:23:17Z</time></trkpt><trkpt lat="39.560444541214" lon="9.588667582721255"><ele>18.333333333333332</ele><time>2026-03-28T08:23:18Z</time></trkpt><trkpt lat="39.560584644221386" lon="9.588534695547049"><ele>19.0</ele><time>2026-03-28T08:23:19Z</time></trkpt><trkpt lat="39.56070490137802" lon="9.588369142077594"><ele>19.0</ele><time>2026-03-28T08:23:20Z</time></trkpt><trkpt lat="39.56081480476424" lon="9.588192234020985"><ele>19.0</ele><time>2026-03-28T08:23:21Z</time></trkpt><trkpt lat="39.56092911283465" lon="9.588023907204382"><ele>19.0</ele><time>2026-03-28T08:23:22Z</time></trkpt><trkpt lat="39.56106282297853" lon="9.587876012148618"><ele>19.0</ele><time>2026-03-28T08:23:23Z</time></trkpt><trkpt lat="39.561214865884686" lon="9.5877555934903"><ele>19.0</ele><time>2026-03-28T08:23:24Z</time></trkpt><trkpt lat="39.56138024712638" lon="9.587662845929062"><ele>19.0</ele><time>2026-03-28T08:23:25Z</time></trkpt><trkpt lat="39.56155396923878" lon="9.58759592306775"><ele>19.0</ele><time>2026-03-28T08:23:26Z</time></trkpt><trkpt lat="39.56173417723466" lon="9.587543183485348"><ele>19.0</ele><time>2026-03-28T08:23:27Z</time></trkpt><trkpt lat="39.56191690463077" lon="9.587486487260993"><ele>19.0</ele><time>2026-03-28T08:23:28Z</time></trkpt><trkpt lat="39.56210060399543" lon="9.587427789090619"><ele>19.0</ele><time>2026-03-28T08:23:29Z</time></trkpt><trkpt lat="39.56228855532209" lon="9.587376953711669"><ele>19.0</ele><time>2026-03-28T08:23:30Z</time></trkpt><trkpt lat="39.56247771670828" lon="9.587331641571328"><ele>19.0</ele><time>2026-03-28T08:23:31Z</time></trkpt><trkpt lat="39.562671888987985" lon="9.587289126852198"><ele>18.666666666666664</ele><time>2026-03-28T08:23:32Z</time></trkpt><trkpt lat="39.56286729031966" lon="9.587246689817949"><ele>18.333333333333332</ele><time>2026-03-28T08:23:33Z</time></trkpt><trkpt lat="39.56306004212196" lon="9.58720218222894"><ele>18.0</ele><time>2026-03-28T08:23:34Z</time></trkpt><trkpt lat="39.563245237922466" lon="9.587162621785993"><ele>18.0</ele><time>2026-03-28T08:23:35Z</time></trkpt><trkpt lat="39.56342676576486" lon="9.587155101387888"><ele>18.0</ele><time>2026-03-28T08:23:36Z</time></trkpt><trkpt lat="39.563601789197335" lon="9.587200037254304"><ele>18.0</ele><time>2026-03-28T08:23:37Z</time></trkpt><trkpt lat="39.563760863432314" lon="9.5873016350067"><ele>18.666666666666668</ele><time>2026-03-28T08:23:38Z</time></trkpt><trkpt lat="39.56391628031082" lon="9.587430875933988"><ele>19.333333333333336</ele><time>2026-03-28T08:23:39Z</time></trkpt><trkpt lat="39.5640794928084" lon="9.587557749445736"><ele>20.0</ele><time>2026-03-28T08:23:40Z</time></trkpt><trkpt lat="39.56425442419316" lon="9.587684306896357"><ele>20.0</ele><time>2026-03-28T08:23:41Z</time></trkpt><trkpt lat="39.564432581130994" lon="9.587819666783778"><ele>20.0</ele><time>2026-03-28T08:23:42Z</time></trkpt><trkpt lat="39.56461541379358" lon="9.587958845589759"><ele>20.0</ele><time>2026-03-28T08:23:43Z</time></trkpt><trkpt lat="39.5647994904284" lon="9.588095855002749"><ele>20.0</ele><time>2026-03-28T08:23:44Z</time></trkpt><trkpt lat="39.56498321244904" lon="9.588236306767287"><ele>20.0</ele><time>2026-03-28T08:23:45Z</time></trkpt><trkpt lat="39.565161254437236" lon="9.588374003755993"><ele>20.0</ele><time>2026-03-28T08:23:46Z</time></trkpt><trkpt lat="39.56533518414046" lon="9.588509983973154"><ele>20.666666666666668</ele><time>2026-03-28T08:23:47Z</time></trkpt><trkpt lat="39.5655049197545" lon="9.588644718326965"><ele>21.333333333333332</ele><time>2026-03-28T08:23:48Z</time></trkpt><trkpt lat="39.5656731168901" lon="9.588779164022107"><ele>22.0</ele><time>2026-03-28T08:23:49Z</time></trkpt><trkpt lat="39.56590728488223" lon="9.588946211983295"><ele>22.0</ele><time>2026-03-28T08:23:50Z</time></trkpt><trkpt lat="39.56608592014575" lon="9.589084873375256"><ele>22.0</ele><time>2026-03-28T08:23:51Z</time></trkpt><trkpt lat="39.56626089351623" lon="9.58921803911989"><ele>22.0</ele><time>2026-03-28T08:23:52Z</time></trkpt><trkpt lat="39.56643481606504" lon="9.589348247450058"><ele>22.0</ele><time>2026-03-28T08:23:53Z</time></trkpt><trkpt lat="39.56661724232477" lon="9.589457378535387"><ele>22.0</ele><time>2026-03-28T08:23:54Z</time></trkpt><trkpt lat="39.56680598556861" lon="9.589536383019658"><ele>22.0</ele><time>2026-03-28T08:23:55Z</time></trkpt><trkpt lat="39.56700119761578" lon="9.589573673615707"><ele>22.666666666666664</ele><time>2026-03-28T08:23:56Z</time></trkpt><trkpt lat="39.56720187736572" lon="9.589591775619867"><ele>23.333333333333332</ele><time>2026-03-28T08:23:57Z</time></trkpt><trkpt lat="39.5674030953191" lon="9.589611619083353"><ele>24.0</ele><time>2026-03-28T08:23:58Z</time></trkpt><trkpt lat="39.567602989978596" lon="9.589637522278796"><ele>24.0</ele><time>2026-03-28T08:23:59Z</time></trkpt><trkpt lat="39.56780378394322" lon="9.589664188420418"><ele>24.0</ele><time>2026-03-28T08:24:00Z</time></trkpt><trkpt lat="39.568005071340785" lon="9.589692097114366"><ele>24.0</ele><time>2026-03-28T08:24:01Z</time></trkpt><trkpt lat="39.56820881180927" lon="9.589724588205051"><ele>23.666666666666668</ele><time>2026-03-28T08:24:02Z</time></trkpt><trkpt lat="39.568412649435636" lon="9.5897608182818"><ele>23.333333333333336</ele><time>2026-03-28T08:24:03Z</time></trkpt><trkpt lat="39.56861771937205" lon="9.589793362825025"><ele>23.0</ele><time>2026-03-28T08:24:04Z</time></trkpt><trkpt lat="39.56882070634546" lon="9.589824341149157"><ele>22.0</ele><time>2026-03-28T08:24:05Z</time></trkpt><trkpt lat="39.569025707151376" lon="9.589857923237032"><ele>21.0</ele><time>2026-03-28T08:24:06Z</time></trkpt><trkpt lat="39.56923000107479" lon="9.589890712922143"><ele>20.0</ele><time>2026-03-28T08:24:07Z</time></trkpt><trkpt lat="39.569437066946854" lon="9.589919141140165"><ele>21.0</ele><time>2026-03-28T08:24:08Z</time></trkpt><trkpt lat="39.56964429971609" lon="9.58994744521191"><ele>22.0</ele><time>2026-03-28T08:24:09Z</time></trkpt><trkpt lat="39.569851411428914" lon="9.58997765732498"><ele>23.0</ele><time>2026-03-28T08:24:10Z</time></trkpt><trkpt lat="39.570058568820805" lon="9.59001019396263"><ele>23.0</ele><time>2026-03-28T08:24:11Z</time></trkpt><trkpt lat="39.57026926644062" lon="9.59004451364349"><ele>23.0</ele><time>2026-03-28T08:24:12Z</time></trkpt><trkpt lat="39.57047677178289" lon="9.590078807242238"><ele>23.0</ele><time>2026-03-28T08:24:13Z</time></trkpt><trkpt lat="39.570684413067674" lon="9.590115286640073"><ele>23.333333333333336</ele><time>2026-03-28T08:24:14Z</time></trkpt><trkpt lat="39.57089115848926" lon="9.590147326798624"><ele>23.666666666666668</ele><time>2026-03-28T08:24:15Z</time></trkpt><trkpt lat="39.57109566887783" lon="9.590167801088812"><ele>24.0</ele><time>2026-03-28T08:24:16Z</time></trkpt><trkpt lat="39.571300168054954" lon="9.590164475863295"><ele>24.0</ele><time>2026-03-28T08:24:17Z</time></trkpt><trkpt lat="39.57150305437082" lon="9.590125134299154"><ele>24.0</ele><time>2026-03-28T08:24:18Z</time></trkpt><trkpt lat="39.571697613981485" lon="9.590047294033972"><ele>24.0</ele><time>2026-03-28T08:24:19Z</time></trkpt><trkpt lat="39.571881880339554" lon="9.589957409645566"><ele>24.666666666666664</ele><time>2026-03-28T08:24:20Z</time></trkpt><trkpt lat="39.57206899897869" lon="9.5899027735296"><ele>25.333333333333332</ele><time>2026-03-28T08:24:21Z</time></trkpt><trkpt lat="39.57225466073355" lon="9.58993539493526"><ele>26.0</ele><time>2026-03-28T08:24:22Z</time></trkpt><trkpt lat="39.57243502833105" lon="9.589965744156409"><ele>26.0</ele><time>2026-03-28T08:24:23Z</time></trkpt><trkpt lat="39.572605136006175" lon="9.589971775013053"><ele>26.0</ele><time>2026-03-28T08:24:24Z</time></trkpt><trkpt lat="39.5727661397098" lon="9.589941891416208"><ele>26.0</ele><time>2026-03-28T08:24:25Z</time></trkpt><trkpt lat="39.57291554554832" lon="9.589848728170795"><ele>25.666666666666664</ele><time>2026-03-28T08:24:26Z</time></trkpt><trkpt lat="39.57304535244057" lon="9.589698045262818"><ele>25.333333333333336</ele><time>2026-03-28T08:24:27Z</time></trkpt><trkpt lat="39.573170797567485" lon="9.589522380372186"><ele>25.0</ele><time>2026-03-28T08:24:28Z</time></trkpt><trkpt lat="39.573306570414005" lon="9.58935602346866"><ele>26.0</ele><time>2026-03-28T08:24:29Z</time></trkpt><trkpt lat="39.57345777725049" lon="9.589213801989798"><ele>27.0</ele><time>2026-03-28T08:24:30Z</time></trkpt><trkpt lat="39.57361085933601" lon="9.5890745864494"><ele>28.0</ele><time>2026-03-28T08:24:31Z</time></trkpt><trkpt lat="39.573755120012166" lon="9.588931248867867"><ele>28.0</ele><time>2026-03-28T08:24:32Z</time></trkpt><trkpt lat="39.57389267247535" lon="9.588779143297852"><ele>28.0</ele><time>2026-03-28T08:24:33Z</time></trkpt><trkpt lat="39.57403707810704" lon="9.588648459321316"><ele>28.0</ele><time>2026-03-28T08:24:34Z</time></trkpt><trkpt lat="39.57417249172267" lon="9.588510086490315"><ele>28.666666666666668</ele><time>2026-03-28T08:24:35Z</time></trkpt><trkpt lat="39.574305651478845" lon="9.588391444221216"><ele>29.333333333333336</ele><time>2026-03-28T08:24:36Z</time></trkpt><trkpt lat="39.57444479776395" lon="9.588297963597007"><ele>30.0</ele><time>2026-03-28T08:24:37Z</time></trkpt><trkpt lat="39.574602182077854" lon="9.588290402325505"><ele>28.333333333333336</ele><time>2026-03-28T08:24:38Z</time></trkpt><trkpt lat="39.57476123676435" lon="9.58834415436179"><ele>26.666666666666668</ele><time>2026-03-28T08:24:39Z</time></trkpt><trkpt lat="39.5749029340207" lon="9.588457222416645"><ele>25.0</ele><time>2026-03-28T08:24:40Z</time></trkpt><trkpt lat="39.57502591725943" lon="9.588602094704038"><ele>25.0</ele><time>2026-03-28T08:24:41Z</time></trkpt><trkpt lat="39.57516550534051" lon="9.588747164206989"><ele>25.0</ele><time>2026-03-28T08:24:42Z</time></trkpt><trkpt lat="39.575297005847204" lon="9.58891398640106"><ele>25.0</ele><time>2026-03-28T08:24:43Z</time></trkpt><trkpt lat="39.5754386662244" lon="9.589071080876957"><ele>24.666666666666668</ele><time>2026-03-28T08:24:44Z</time></trkpt><trkpt lat="39.575580805966325" lon="9.589226541857421"><ele>24.333333333333336</ele><time>2026-03-28T08:24:45Z</time></trkpt><trkpt lat="39.57572125527953" lon="9.589384808845514"><ele>24.0</ele><time>2026-03-28T08:24:46Z</time></trkpt><trkpt lat="39.575861663859804" lon="9.589545211133132"><ele>24.0</ele><time>2026-03-28T08:24:47Z</time></trkpt><trkpt lat="39.576001512431766" lon="9.589703842288065"><ele>24.0</ele><time>2026-03-28T08:24:48Z</time></trkpt><trkpt lat="39.5761452822993" lon="9.589861656222629"><ele>24.0</ele><time>2026-03-28T08:24:49Z</time></trkpt><trkpt lat="39.57629510069658" lon="9.590007491597706"><ele>24.333333333333336</ele><time>2026-03-28T08:24:50Z</time></trkpt><trkpt lat="39.57645710009836" lon="9.590132922197025"><ele>24.666666666666668</ele><time>2026-03-28T08:24:51Z</time></trkpt><trkpt lat="39.57663298446934" lon="9.590222050964275"><ele>25.0</ele><time>2026-03-28T08:24:52Z</time></trkpt><trkpt lat="39.576823687280154" lon="9.590275012071043"><ele>25.0</ele><time>2026-03-28T08:24:53Z</time></trkpt><trkpt lat="39.5770210753928" lon="9.590301933759509"><ele>25.0</ele><time>2026-03-28T08:24:54Z</time></trkpt><trkpt lat="39.57721919600127" lon="9.59031917472389"><ele>25.0</ele><time>2026-03-28T08:24:55Z</time></trkpt><trkpt lat="39.57741561230656" lon="9.590339719988243"><ele>24.666666666666668</ele><time>2026-03-28T08:24:56Z</time></trkpt><trkpt lat="39.577612934783545" lon="9.590366119687157"><ele>24.333333333333336</ele><time>2026-03-28T08:24:57Z</time></trkpt><trkpt lat="39.57781274078568" lon="9.590394688312259"><ele>24.0</ele><time>2026-03-28T08:24:58Z</time></trkpt><trkpt lat="39.57801151201541" lon="9.590421670446334"><ele>24.0</ele><time>2026-03-28T08:24:59Z</time></trkpt><trkpt lat="39.57821275490568" lon="9.590448252542396"><ele>24.0</ele><time>2026-03-28T08:25:00Z</time></trkpt><trkpt lat="39.57841439785673" lon="9.590474494100919"><ele>24.0</ele><time>2026-03-28T08:25:01Z</time></trkpt><trkpt lat="39.578617704713686" lon="9.590499199992966"><ele>24.0</ele><time>2026-03-28T08:25:02Z</time></trkpt><trkpt lat="39.578823534569835" lon="9.590521588555667"><ele>24.0</ele><time>2026-03-28T08:25:03Z</time></trkpt><trkpt lat="39.57903042133546" lon="9.590545190849886"><ele>24.0</ele><time>2026-03-28T08:25:04Z</time></trkpt><trkpt lat="39.57923731319096" lon="9.590571136355335"><ele>24.0</ele><time>2026-03-28T08:25:05Z</time></trkpt><trkpt lat="39.579447101633704" lon="9.590599460962247"><ele>24.0</ele><time>2026-03-28T08:25:06Z</time></trkpt><trkpt lat="39.57965877022018" lon="9.590626939962396"><ele>24.0</ele><time>2026-03-28T08:25:07Z</time></trkpt><trkpt lat="39.5798728847815" lon="9.590654664062987"><ele>25.0</ele><time>2026-03-28T08:25:08Z</time></trkpt><trkpt lat="39.58008737980697" lon="9.590681468998635"><ele>26.0</ele><time>2026-03-28T08:25:09Z</time></trkpt><trkpt lat="39.580302211691624" lon="9.590708579489252"><ele>27.0</ele><time>2026-03-28T08:25:10Z</time></trkpt><trkpt lat="39.580517024966205" lon="9.590737690122742"><ele>27.0</ele><time>2026-03-28T08:25:11Z</time></trkpt><trkpt lat="39.5807283970717" lon="9.59076616557359"><ele>27.0</ele><time>2026-03-28T08:25:12Z</time></trkpt><trkpt lat="39.580943790136644" lon="9.590794024178846"><ele>27.0</ele><time>2026-03-28T08:25:13Z</time></trkpt><trkpt lat="39.58115779296018" lon="9.590819803521914"><ele>27.0</ele><time>2026-03-28T08:25:14Z</time></trkpt><trkpt lat="39.58137274691042" lon="9.590847061621727"><ele>27.0</ele><time>2026-03-28T08:25:15Z</time></trkpt><trkpt lat="39.581589795727844" lon="9.590869726146265"><ele>27.0</ele><time>2026-03-28T08:25:16Z</time></trkpt><trkpt lat="39.58180712190181" lon="9.59087774190635"><ele>26.666666666666664</ele><time>2026-03-28T08:25:17Z</time></trkpt><trkpt lat="39.58202402114589" lon="9.59086308022899"><ele>26.333333333333332</ele><time>2026-03-28T08:25:18Z</time></trkpt><trkpt lat="39.582239499999666" lon="9.590834845828669"><ele>26.0</ele><time>2026-03-28T08:25:19Z</time></trkpt><trkpt lat="39.582456170078686" lon="9.590809239665125"><ele>26.0</ele><time>2026-03-28T08:25:20Z</time></trkpt><trkpt lat="39.58267310624168" lon="9.590788731675845"><ele>26.0</ele><time>2026-03-28T08:25:21Z</time></trkpt><trkpt lat="39.582887312714554" lon="9.590769798317577"><ele>26.0</ele><time>2026-03-28T08:25:22Z</time></trkpt><trkpt lat="39.58309965978633" lon="9.59075437514913"><ele>26.333333333333332</ele><time>2026-03-28T08:25:23Z</time></trkpt><trkpt lat="39.58331322938037" lon="9.590741341982845"><ele>26.666666666666664</ele><time>2026-03-28T08:25:24Z</time></trkpt><trkpt lat="39.58352580967115" lon="9.590723967120747"><ele>27.0</ele><time>2026-03-28T08:25:25Z</time></trkpt><trkpt lat="39.58373834385361" lon="9.590691901315315"><ele>27.0</ele><time>2026-03-28T08:25:26Z</time></trkpt><trkpt lat="39.58394820572576" lon="9.59063507222946"><ele>27.0</ele><time>2026-03-28T08:25:27Z</time></trkpt><trkpt lat="39.584154978571256" lon="9.590550668849096"><ele>27.0</ele><time>2026-03-28T08:25:28Z</time></trkpt><trkpt lat="39.58435610047925" lon="9.590442630775614"><ele>28.666666666666664</ele><time>2026-03-28T08:25:29Z</time></trkpt><trkpt lat="39.58455254722962" lon="9.590313734918437"><ele>30.333333333333332</ele><time>2026-03-28T08:25:30Z</time></trkpt><trkpt lat="39.58473549573148" lon="9.590165632988596"><ele>32.0</ele><time>2026-03-28T08:25:31Z</time></trkpt><trkpt lat="39.58490853784045" lon="9.590000004678096"><ele>32.0</ele><time>2026-03-28T08:25:32Z</time></trkpt><trkpt lat="39.58506932092273" lon="9.589820683974901"><ele>32.0</ele><time>2026-03-28T08:25:33Z</time></trkpt><trkpt lat="39.585224113448774" lon="9.589633572117512"><ele>32.0</ele><time>2026-03-28T08:25:34Z</time></trkpt><trkpt lat="39.58537698422656" lon="9.589446951483515"><ele>31.666666666666664</ele><time>2026-03-28T08:25:35Z</time></trkpt><trkpt lat="39.585531548194645" lon="9.589263167208564"><ele>31.333333333333336</ele><time>2026-03-28T08:25:36Z</time></trkpt><trkpt lat="39.585682177581674" lon="9.589082362009275"><ele>31.0</ele><time>2026-03-28T08:25:37Z</time></trkpt><trkpt lat="39.585829872655566" lon="9.588899894397327"><ele>31.0</ele><time>2026-03-28T08:25:38Z</time></trkpt><trkpt lat="39.58597333789495" lon="9.588719502562654"><ele>31.0</ele><time>2026-03-28T08:25:39Z</time></trkpt><trkpt lat="39.58611608608658" lon="9.588541203413984"><ele>31.0</ele><time>2026-03-28T08:25:40Z</time></trkpt><trkpt lat="39.586261160784645" lon="9.588367122631661"><ele>30.666666666666668</ele><time>2026-03-28T08:25:41Z</time></trkpt><trkpt lat="39.586405050458524" lon="9.588195073834902"><ele>30.333333333333336</ele><time>2026-03-28T08:25:42Z</time></trkpt><trkpt lat="39.586547714552474" lon="9.588023178526358"><ele>30.0</ele><time>2026-03-28T08:25:43Z</time></trkpt><trkpt lat="39.586693857407134" lon="9.587857042914619"><ele>32.0</ele><time>2026-03-28T08:25:44Z</time></trkpt><trkpt lat="39.58685045116438" lon="9.5877074823923"><ele>34.0</ele><time>2026-03-28T08:25:45Z</time></trkpt><trkpt lat="39.587018557102304" lon="9.587580868834326"><ele>36.0</ele><time>2026-03-28T08:25:46Z</time></trkpt><trkpt lat="39.58719845881637" lon="9.587479109240276"><ele>36.0</ele><time>2026-03-28T08:25:47Z</time></trkpt><trkpt lat="39.5873845628591" lon="9.587392762547783"><ele>36.0</ele><time>2026-03-28T08:25:48Z</time></trkpt><trkpt lat="39.587578901214094" lon="9.587328913631563"><ele>36.0</ele><time>2026-03-28T08:25:49Z</time></trkpt><trkpt lat="39.587772279526696" lon="9.587283163582416"><ele>34.0</ele><time>2026-03-28T08:25:50Z</time></trkpt><trkpt lat="39.58797122998787" lon="9.587263525120296"><ele>32.0</ele><time>2026-03-28T08:25:51Z</time></trkpt><trkpt lat="39.58817198041377" lon="9.587264129839342"><ele>30.0</ele><time>2026-03-28T08:25:52Z</time></trkpt><trkpt lat="39.58837458364417" lon="9.587274314714751"><ele>30.0</ele><time>2026-03-28T08:25:53Z</time></trkpt><trkpt lat="39.588575286705655" lon="9.587291836418363"><ele>30.0</ele><time>2026-03-28T08:25:54Z</time></trkpt><trkpt lat="39.58877531500108" lon="9.587322512671157"><ele>30.0</ele><time>2026-03-28T08:25:55Z</time></trkpt><trkpt lat="39.58897018228746" lon="9.587374006414777"><ele>30.0</ele><time>2026-03-28T08:25:56Z</time></trkpt><trkpt lat="39.589163821759485" lon="9.587454914489758"><ele>30.0</ele><time>2026-03-28T08:25:57Z</time></trkpt><trkpt lat="39.589357227501715" lon="9.587513431193338"><ele>30.0</ele><time>2026-03-28T08:25:58Z</time></trkpt><trkpt lat="39.589543488349655" lon="9.587654484427786"><ele>29.666666666666664</ele><time>2026-03-28T08:25:59Z</time></trkpt><trkpt lat="39.5897361863721" lon="9.58776587670523"><ele>29.333333333333332</ele><time>2026-03-28T08:26:00Z</time></trkpt><trkpt lat="39.58992911042101" lon="9.58787767074601"><ele>29.0</ele><time>2026-03-28T08:26:01Z</time></trkpt><trkpt lat="39.59011959827781" lon="9.587994098938818"><ele>29.0</ele><time>2026-03-28T08:26:02Z</time></trkpt><trkpt lat="39.59031405052649" lon="9.58810891888219"><ele>29.0</ele><time>2026-03-28T08:26:03Z</time></trkpt><trkpt lat="39.59050802648725" lon="9.588220434049836"><ele>29.0</ele><time>2026-03-28T08:26:04Z</time></trkpt><trkpt lat="39.59070372069833" lon="9.588331892607822"><ele>30.333333333333332</ele><time>2026-03-28T08:26:05Z</time></trkpt><trkpt lat="39.59089963009896" lon="9.588444845289198"><ele>31.666666666666664</ele><time>2026-03-28T08:26:06Z</time></trkpt><trkpt lat="39.59109730651818" lon="9.588560671367016"><ele>33.0</ele><time>2026-03-28T08:26:07Z</time></trkpt><trkpt lat="39.59129292680913" lon="9.588674228418446"><ele>32.666666666666664</ele><time>2026-03-28T08:26:08Z</time></trkpt><trkpt lat="39.5914907741029" lon="9.588787069950861"><ele>32.33333333333333</ele><time>2026-03-28T08:26:09Z</time></trkpt><trkpt lat="39.591684673357804" lon="9.588900492424779"><ele>32.0</ele><time>2026-03-28T08:26:10Z</time></trkpt><trkpt lat="39.59187899144675" lon="9.589016722969935"><ele>33.33333333333333</ele><time>2026-03-28T08:26:11Z</time></trkpt><trkpt lat="39.59207552025227" lon="9.589132987963906"><ele>34.666666666666664</ele><time>2026-03-28T08:26:12Z</time></trkpt><trkpt lat="39.592271802261365" lon="9.589248235391274"><ele>36.0</ele><time>2026-03-28T08:26:13Z</time></trkpt><trkpt lat="39.59247047223243" lon="9.58936243693824"><ele>36.0</ele><time>2026-03-28T08:26:14Z</time></trkpt><trkpt lat="39.592669963971694" lon="9.589476446886925"><ele>36.0</ele><time>2026-03-28T08:26:15Z</time></trkpt><trkpt lat="39.59287012203693" lon="9.589589708644025"><ele>36.0</ele><time>2026-03-28T08:26:16Z</time></trkpt><trkpt lat="39.593071570211464" lon="9.589703524889957"><ele>35.666666666666664</ele><time>2026-03-28T08:26:17Z</time></trkpt><trkpt lat="39.59327426927442" lon="9.589820366506078"><ele>35.33333333333333</ele><time>2026-03-28T08:26:18Z</time></trkpt><trkpt lat="39.593473858548634" lon="9.58993922872698"><ele>35.0</ele><time>2026-03-28T08:26:19Z</time></trkpt><trkpt lat="39.59367612798754" lon="9.590060445087017"><ele>35.33333333333333</ele><time>2026-03-28T08:26:20Z</time></trkpt><trkpt lat="39.593879902218625" lon="9.59017920414931"><ele>35.666666666666664</ele><time>2026-03-28T08:26:21Z</time></trkpt><trkpt lat="39.59408452296706" lon="9.590294694741916"><ele>36.0</ele><time>2026-03-28T08:26:22Z</time></trkpt><trkpt lat="39.59428726774589" lon="9.59041233125819"><ele>36.0</ele><time>2026-03-28T08:26:23Z</time></trkpt><trkpt lat="39.594490469080085" lon="9.59053123007194"><ele>36.0</ele><time>2026-03-28T08:26:24Z</time></trkpt><trkpt lat="39.59469108202533" lon="9.590648018911853"><ele>36.0</ele><time>2026-03-28T08:26:25Z</time></trkpt><trkpt lat="39.594893309880085" lon="9.590769119046627"><ele>36.666666666666664</ele><time>2026-03-28T08:26:26Z</time></trkpt><trkpt lat="39.595090961865345" lon="9.590884732876134"><ele>37.33333333333333</ele><time>2026-03-28T08:26:27Z</time></trkpt><trkpt lat="39.59528428312084" lon="9.59100060660537"><ele>38.0</ele><time>2026-03-28T08:26:28Z</time></trkpt><trkpt lat="39.59546900775293" lon="9.591107865304147"><ele>38.0</ele><time>2026-03-28T08:26:29Z</time></trkpt><trkpt lat="39.59564575168323" lon="9.591209156725792"><ele>38.0</ele><time>2026-03-28T08:26:30Z</time></trkpt><trkpt lat="39.595810839949074" lon="9.591294902537136"><ele>38.0</ele><time>2026-03-28T08:26:31Z</time></trkpt><trkpt lat="39.59597042329579" lon="9.591364715717766"><ele>38.0</ele><time>2026-03-28T08:26:32Z</time></trkpt><trkpt lat="39.59611796686768" lon="9.591379783252602"><ele>38.0</ele><time>2026-03-28T08:26:33Z</time></trkpt><trkpt lat="39.59625674227165" lon="9.591324140017367"><ele>38.0</ele><time>2026-03-28T08:26:34Z</time></trkpt><trkpt lat="39.596389415707044" lon="9.591223014142468"><ele>38.0</ele><time>2026-03-28T08:26:35Z</time></trkpt><trkpt lat="39.59653010424236" lon="9.591125598210652"><ele>37.666666666666664</ele><time>2026-03-28T08:26:36Z</time></trkpt><trkpt lat="39.59667941981924" lon="9.591036917976114"><ele>37.333333333333336</ele><time>2026-03-28T08:26:37Z</time></trkpt><trkpt lat="39.596812450510456" lon="9.5909437498625"><ele>37.0</ele><time>2026-03-28T08:26:38Z</time></trkpt><trkpt lat="39.59690853676661" lon="9.590811864384179"><ele>37.0</ele><time>2026-03-28T08:26:39Z</time></trkpt><trkpt lat="39.59696640089529" lon="9.590630258834976"><ele>37.0</ele><time>2026-03-28T08:26:40Z</time></trkpt><trkpt lat="39.5970090934637" lon="9.590433013707754"><ele>37.0</ele><time>2026-03-28T08:26:41Z</time></trkpt><trkpt lat="39.59705521928126" lon="9.590235371633842"><ele>36.66666666666667</ele><time>2026-03-28T08:26:42Z</time></trkpt><trkpt lat="39.597113127752245" lon="9.59003672302828"><ele>36.333333333333336</ele><time>2026-03-28T08:26:43Z</time></trkpt><trkpt lat="39.597183189786854" lon="9.589840852031324"><ele>36.0</ele><time>2026-03-28T08:26:44Z</time></trkpt><trkpt lat="39.59727511048484" lon="9.589660290707435"><ele>38.0</ele><time>2026-03-28T08:26:45Z</time></trkpt><trkpt lat="39.59739122823217" lon="9.589494663546933"><ele>40.0</ele><time>2026-03-28T08:26:46Z</time></trkpt><trkpt lat="39.59751720693746" lon="9.589337649076807"><ele>42.0</ele><time>2026-03-28T08:26:47Z</time></trkpt><trkpt lat="39.597645952437226" lon="9.589188338942783"><ele>42.0</ele><time>2026-03-28T08:26:48Z</time></trkpt><trkpt lat="39.597786569594696" lon="9.58905546567966"><ele>42.0</ele><time>2026-03-28T08:26:49Z</time></trkpt><trkpt lat="39.59794694719127" lon="9.588963061884895"><ele>42.0</ele><time>2026-03-28T08:26:50Z</time></trkpt><trkpt lat="39.59812372473713" lon="9.58892227682258"><ele>40.0</ele><time>2026-03-28T08:26:51Z</time></trkpt><trkpt lat="39.5983078815197" lon="9.588913614094206"><ele>38.0</ele><time>2026-03-28T08:26:52Z</time></trkpt><trkpt lat="39.598495150391855" lon="9.58890590514593"><ele>36.0</ele><time>2026-03-28T08:26:53Z</time></trkpt><trkpt lat="39.59868839034111" lon="9.588890303664074"><ele>36.0</ele><time>2026-03-28T08:26:54Z</time></trkpt><trkpt lat="39.59888159259113" lon="9.58887438584881"><ele>36.0</ele><time>2026-03-28T08:26:55Z</time></trkpt><trkpt lat="39.59907889650696" lon="9.588857630648388"><ele>36.0</ele><time>2026-03-28T08:26:56Z</time></trkpt><trkpt lat="39.599278173603466" lon="9.588840507531316"><ele>36.0</ele><time>2026-03-28T08:26:57Z</time></trkpt><trkpt lat="39.599479394531315" lon="9.588823769057168"><ele>36.0</ele><time>2026-03-28T08:26:58Z</time></trkpt><trkpt lat="39.59968040396736" lon="9.588807305141415"><ele>36.0</ele><time>2026-03-28T08:26:59Z</time></trkpt><trkpt lat="39.599881137267616" lon="9.588787727427338"><ele>36.333333333333336</ele><time>2026-03-28T08:27:00Z</time></trkpt><trkpt lat="39.60008464924307" lon="9.588765562311384"><ele>36.66666666666667</ele><time>2026-03-28T08:27:01Z</time></trkpt><trkpt lat="39.60028846991588" lon="9.588746837093614"><ele>37.0</ele><time>2026-03-28T08:27:02Z</time></trkpt><trkpt lat="39.60049258055558" lon="9.588732680578602"><ele>37.0</ele><time>2026-03-28T08:27:03Z</time></trkpt><trkpt lat="39.60069714003292" lon="9.588713877283373"><ele>37.0</ele><time>2026-03-28T08:27:04Z</time></trkpt><trkpt lat="39.60090201612966" lon="9.588690872232785"><ele>37.0</ele><time>2026-03-28T08:27:05Z</time></trkpt><trkpt lat="39.601107005653255" lon="9.588670428862606"><ele>37.66666666666667</ele><time>2026-03-28T08:27:06Z</time></trkpt><trkpt lat="39.60131263134648" lon="9.588653301099301"><ele>38.333333333333336</ele><time>2026-03-28T08:27:07Z</time></trkpt><trkpt lat="39.60151889369532" lon="9.588634517140793"><ele>39.0</ele><time>2026-03-28T08:27:08Z</time></trkpt><trkpt lat="39.601726906172885" lon="9.588613574016811"><ele>39.0</ele><time>2026-03-28T08:27:09Z</time></trkpt><trkpt lat="39.60193560370767" lon="9.588592460178731"><ele>39.0</ele><time>2026-03-28T08:27:10Z</time></trkpt><trkpt lat="39.60214551176001" lon="9.588571923793507"><ele>39.0</ele><time>2026-03-28T08:27:11Z</time></trkpt><trkpt lat="39.60235530846436" lon="9.588552542563601"><ele>38.666666666666664</ele><time>2026-03-28T08:27:12Z</time></trkpt><trkpt lat="39.602564412352585" lon="9.588532573093973"><ele>38.33333333333333</ele><time>2026-03-28T08:27:13Z</time></trkpt><trkpt lat="39.60277317100434" lon="9.588511130383866"><ele>38.0</ele><time>2026-03-28T08:27:14Z</time></trkpt><trkpt lat="39.60298129562773" lon="9.588491791474409"><ele>38.666666666666664</ele><time>2026-03-28T08:27:15Z</time></trkpt><trkpt lat="39.60318663639366" lon="9.588484351914419"><ele>39.333333333333336</ele><time>2026-03-28T08:27:16Z</time></trkpt><trkpt lat="39.603382292875715" lon="9.588513451085099"><ele>40.0</ele><time>2026-03-28T08:27:17Z</time></trkpt><trkpt lat="39.60357615640172" lon="9.58858685671636"><ele>39.0</ele><time>2026-03-28T08:27:18Z</time></trkpt><trkpt lat="39.603766058321135" lon="9.588691886408908"><ele>38.0</ele><time>2026-03-28T08:27:19Z</time></trkpt><trkpt lat="39.603956232226395" lon="9.588807048489388"><ele>37.0</ele><time>2026-03-28T08:27:20Z</time></trkpt><trkpt lat="39.6041515213302" lon="9.588921974293687"><ele>37.0</ele><time>2026-03-28T08:27:21Z</time></trkpt><trkpt lat="39.60434609651899" lon="9.589036113256622"><ele>37.0</ele><time>2026-03-28T08:27:22Z</time></trkpt><trkpt lat="39.60454049728092" lon="9.589149076342476"><ele>37.0</ele><time>2026-03-28T08:27:23Z</time></trkpt><trkpt lat="39.60473364476791" lon="9.589261855370014"><ele>41.5</ele><time>2026-03-28T08:27:24Z</time></trkpt><trkpt lat="39.60492545925035" lon="9.58937586644524"><ele>46.0</ele><time>2026-03-28T08:27:25Z</time></trkpt><trkpt lat="39.60514707330318" lon="9.589507221637756"><ele>45.0</ele><time>2026-03-28T08:27:26Z</time></trkpt><trkpt lat="39.60534865879629" lon="9.589629377942535"><ele>44.0</ele><time>2026-03-28T08:27:27Z</time></trkpt><trkpt lat="39.605547691446105" lon="9.589750006400877"><ele>43.0</ele><time>2026-03-28T08:27:28Z</time></trkpt><trkpt lat="39.60574437375217" lon="9.589868085277745"><ele>43.0</ele><time>2026-03-28T08:27:29Z</time></trkpt><trkpt lat="39.6059416664429" lon="9.589986565434248"><ele>43.0</ele><time>2026-03-28T08:27:30Z</time></trkpt><trkpt lat="39.60613940373527" lon="9.590101889026151"><ele>43.0</ele><time>2026-03-28T08:27:31Z</time></trkpt><trkpt lat="39.60634253885068" lon="9.59020863381105"><ele>41.333333333333336</ele><time>2026-03-28T08:27:32Z</time></trkpt><trkpt lat="39.6065462961828" lon="9.590295721304091"><ele>39.666666666666664</ele><time>2026-03-28T08:27:33Z</time></trkpt><trkpt lat="39.60675234869742" lon="9.590366101254494"><ele>38.0</ele><time>2026-03-28T08:27:34Z</time></trkpt><trkpt lat="39.60695202605599" lon="9.590409267302904"><ele>38.0</ele><time>2026-03-28T08:27:35Z</time></trkpt><trkpt lat="39.60714888958893" lon="9.590415271548718"><ele>38.0</ele><time>2026-03-28T08:27:36Z</time></trkpt><trkpt lat="39.607349649375834" lon="9.5903839065635"><ele>38.0</ele><time>2026-03-28T08:27:37Z</time></trkpt><trkpt lat="39.60755399723732" lon="9.59033364439866"><ele>39.33333333333333</ele><time>2026-03-28T08:27:38Z</time></trkpt><trkpt lat="39.60775762627645" lon="9.590280147639902"><ele>40.666666666666664</ele><time>2026-03-28T08:27:39Z</time></trkpt><trkpt lat="39.607961512464215" lon="9.590225462003627"><ele>42.0</ele><time>2026-03-28T08:27:40Z</time></trkpt><trkpt lat="39.60816264842958" lon="9.590171238385249"><ele>42.0</ele><time>2026-03-28T08:27:41Z</time></trkpt><trkpt lat="39.60836463912424" lon="9.590115391871224"><ele>42.0</ele><time>2026-03-28T08:27:42Z</time></trkpt><trkpt lat="39.6085648574334" lon="9.59005818205284"><ele>42.0</ele><time>2026-03-28T08:27:43Z</time></trkpt><trkpt lat="39.60876348368958" lon="9.590000364515861"><ele>41.666666666666664</ele><time>2026-03-28T08:27:44Z</time></trkpt><trkpt lat="39.608962073268536" lon="9.589949121625734"><ele>41.33333333333333</ele><time>2026-03-28T08:27:45Z</time></trkpt><trkpt lat="39.60916080789928" lon="9.589917578306471"><ele>41.0</ele><time>2026-03-28T08:27:46Z</time></trkpt><trkpt lat="39.60936003958267" lon="9.58991104936498"><ele>42.0</ele><time>2026-03-28T08:27:47Z</time></trkpt><trkpt lat="39.60955913212305" lon="9.589915445126154"><ele>43.0</ele><time>2026-03-28T08:27:48Z</time></trkpt><trkpt lat="39.609753095094256" lon="9.589918321618109"><ele>44.0</ele><time>2026-03-28T08:27:49Z</time></trkpt><trkpt lat="39.60994067762007" lon="9.589919606895469"><ele>44.0</ele><time>2026-03-28T08:27:50Z</time></trkpt><trkpt lat="39.610122078638625" lon="9.589917509979625"><ele>44.0</ele><time>2026-03-28T08:27:51Z</time></trkpt><trkpt lat="39.610296299499836" lon="9.589905331769483"><ele>44.0</ele><time>2026-03-28T08:27:52Z</time></trkpt><trkpt lat="39.610463986203385" lon="9.589879040373251"><ele>44.0</ele><time>2026-03-28T08:27:53Z</time></trkpt><trkpt lat="39.6106272997694" lon="9.589839322201165"><ele>44.0</ele><time>2026-03-28T08:27:54Z</time></trkpt><trkpt lat="39.61078326809009" lon="9.589790119382366"><ele>44.0</ele><time>2026-03-28T08:27:55Z</time></trkpt><trkpt lat="39.61092795860095" lon="9.589734946822995"><ele>44.0</ele><time>2026-03-28T08:27:56Z</time></trkpt><trkpt lat="39.61106664444917" lon="9.589685470211455"><ele>44.0</ele><time>2026-03-28T08:27:57Z</time></trkpt><trkpt lat="39.61120209031674" lon="9.589648168959462"><ele>44.0</ele><time>2026-03-28T08:27:58Z</time></trkpt><trkpt lat="39.61134115225503" lon="9.589624730576302"><ele>44.0</ele><time>2026-03-28T08:27:59Z</time></trkpt><trkpt lat="39.61148316128571" lon="9.589610164816966"><ele>44.0</ele><time>2026-03-28T08:28:00Z</time></trkpt><trkpt lat="39.61162537803414" lon="9.58960162936288"><ele>44.0</ele><time>2026-03-28T08:28:01Z</time></trkpt><trkpt lat="39.61176667325632" lon="9.589609046878552"><ele>44.0</ele><time>2026-03-28T08:28:02Z</time></trkpt><trkpt lat="39.6119053644573" lon="9.589640092758142"><ele>44.0</ele><time>2026-03-28T08:28:03Z</time></trkpt><trkpt lat="39.61204653242632" lon="9.589686520134224"><ele>44.0</ele><time>2026-03-28T08:28:04Z</time></trkpt><trkpt lat="39.612196976935344" lon="9.589734144338872"><ele>44.0</ele><time>2026-03-28T08:28:05Z</time></trkpt><trkpt lat="39.61235173725743" lon="9.58977756965451"><ele>44.0</ele><time>2026-03-28T08:28:06Z</time></trkpt><trkpt lat="39.612509228718075" lon="9.589820978751126"><ele>44.0</ele><time>2026-03-28T08:28:07Z</time></trkpt><trkpt lat="39.61266682595524" lon="9.589865091671271"><ele>44.0</ele><time>2026-03-28T08:28:08Z</time></trkpt><trkpt lat="39.61282587547039" lon="9.589907607497697"><ele>44.0</ele><time>2026-03-28T08:28:09Z</time></trkpt><trkpt lat="39.61298333596243" lon="9.589954600919265"><ele>45.33333333333333</ele><time>2026-03-28T08:28:10Z</time></trkpt><trkpt lat="39.613144445096005" lon="9.590006738304508"><ele>46.666666666666664</ele><time>2026-03-28T08:28:11Z</time></trkpt><trkpt lat="39.61330542532692" lon="9.590055257578904"><ele>48.0</ele><time>2026-03-28T08:28:12Z</time></trkpt><trkpt lat="39.61347224150355" lon="9.590099648122573"><ele>48.0</ele><time>2026-03-28T08:28:13Z</time></trkpt><trkpt lat="39.613636164505714" lon="9.590141829197256"><ele>48.0</ele><time>2026-03-28T08:28:14Z</time></trkpt><trkpt lat="39.613801776964536" lon="9.590188886432928"><ele>48.0</ele><time>2026-03-28T08:28:15Z</time></trkpt><trkpt lat="39.613968650850715" lon="9.590238885490601"><ele>46.333333333333336</ele><time>2026-03-28T08:28:16Z</time></trkpt><trkpt lat="39.61413625843745" lon="9.590290864333113"><ele>44.66666666666667</ele><time>2026-03-28T08:28:17Z</time></trkpt><trkpt lat="39.614302158739015" lon="9.590349865905623"><ele>43.0</ele><time>2026-03-28T08:28:18Z</time></trkpt><trkpt lat="39.61447002318309" lon="9.59041024460899"><ele>43.333333333333336</ele><time>2026-03-28T08:28:19Z</time></trkpt><trkpt lat="39.61463861142911" lon="9.590472610629348"><ele>43.666666666666664</ele><time>2026-03-28T08:28:20Z</time></trkpt><trkpt lat="39.614807657491454" lon="9.59053506889449"><ele>44.0</ele><time>2026-03-28T08:28:21Z</time></trkpt><trkpt lat="39.61497489277353" lon="9.590599102308216"><ele>44.0</ele><time>2026-03-28T08:28:22Z</time></trkpt><trkpt lat="39.615139472264836" lon="9.590663325158424"><ele>44.0</ele><time>2026-03-28T08:28:23Z</time></trkpt><trkpt lat="39.615305578902266" lon="9.590717427744083"><ele>44.0</ele><time>2026-03-28T08:28:24Z</time></trkpt><trkpt lat="39.61546558718682" lon="9.590742509855316"><ele>44.33333333333333</ele><time>2026-03-28T08:28:25Z</time></trkpt><trkpt lat="39.615628517623236" lon="9.590728564018137"><ele>44.666666666666664</ele><time>2026-03-28T08:28:26Z</time></trkpt><trkpt lat="39.61578676413598" lon="9.59069338858383"><ele>45.0</ele><time>2026-03-28T08:28:27Z</time></trkpt><trkpt lat="39.61594128525277" lon="9.590651689353646"><ele>45.0</ele><time>2026-03-28T08:28:28Z</time></trkpt><trkpt lat="39.61609374433332" lon="9.590604775399335"><ele>45.0</ele><time>2026-03-28T08:28:29Z</time></trkpt><trkpt lat="39.61624620617539" lon="9.590546680932526"><ele>45.0</ele><time>2026-03-28T08:28:30Z</time></trkpt><trkpt lat="39.61640232791124" lon="9.590481176105573"><ele>44.666666666666664</ele><time>2026-03-28T08:28:31Z</time></trkpt><trkpt lat="39.61656117374865" lon="9.590419747531845"><ele>44.33333333333333</ele><time>2026-03-28T08:28:32Z</time></trkpt><trkpt lat="39.616721921291116" lon="9.590361126787842"><ele>44.0</ele><time>2026-03-28T08:28:33Z</time></trkpt><trkpt lat="39.616886344571675" lon="9.590309093927074"><ele>48.666666666666664</ele><time>2026-03-28T08:28:34Z</time></trkpt><trkpt lat="39.61705744649113" lon="9.590268585758182"><ele>53.33333333333333</ele><time>2026-03-28T08:28:35Z</time></trkpt><trkpt lat="39.617230984573496" lon="9.59023988401638"><ele>58.0</ele><time>2026-03-28T08:28:36Z</time></trkpt><trkpt lat="39.61740595569765" lon="9.590210559050295"><ele>58.0</ele><time>2026-03-28T08:28:37Z</time></trkpt><trkpt lat="39.617583053968545" lon="9.59017778161038"><ele>58.0</ele><time>2026-03-28T08:28:38Z</time></trkpt><trkpt lat="39.61775948065922" lon="9.590143729341317"><ele>58.0</ele><time>2026-03-28T08:28:39Z</time></trkpt><trkpt lat="39.61793528782015" lon="9.590111764530292"><ele>56.33333333333333</ele><time>2026-03-28T08:28:40Z</time></trkpt><trkpt lat="39.61810808940685" lon="9.590087558052362"><ele>54.66666666666667</ele><time>2026-03-28T08:28:41Z</time></trkpt><trkpt lat="39.61827912803328" lon="9.59008921321655"><ele>53.0</ele><time>2026-03-28T08:28:42Z</time></trkpt><trkpt lat="39.61844613620108" lon="9.590124537373365"><ele>53.0</ele><time>2026-03-28T08:28:43Z</time></trkpt><trkpt lat="39.61860799110607" lon="9.590178298456053"><ele>53.0</ele><time>2026-03-28T08:28:44Z</time></trkpt><trkpt lat="39.618768724782875" lon="9.590229882320255"><ele>53.0</ele><time>2026-03-28T08:28:45Z</time></trkpt><trkpt lat="39.618933524397555" lon="9.59026535614108"><ele>54.66666666666667</ele><time>2026-03-28T08:28:46Z</time></trkpt><trkpt lat="39.619098804101654" lon="9.590273415619931"><ele>56.33333333333333</ele><time>2026-03-28T08:28:47Z</time></trkpt><trkpt lat="39.61926710090477" lon="9.590255073570413"><ele>58.0</ele><time>2026-03-28T08:28:48Z</time></trkpt><trkpt lat="39.61943460572101" lon="9.590214566039712"><ele>57.0</ele><time>2026-03-28T08:28:49Z</time></trkpt><trkpt lat="39.6195979447545" lon="9.590163411569144"><ele>56.0</ele><time>2026-03-28T08:28:50Z</time></trkpt><trkpt lat="39.619759946501446" lon="9.590113018979286"><ele>55.0</ele><time>2026-03-28T08:28:51Z</time></trkpt><trkpt lat="39.61992383979555" lon="9.590065310972818"><ele>55.0</ele><time>2026-03-28T08:28:52Z</time></trkpt><trkpt lat="39.62008325014997" lon="9.59002286986306"><ele>55.0</ele><time>2026-03-28T08:28:53Z</time></trkpt><trkpt lat="39.62024153715406" lon="9.589987672322762"><ele>55.0</ele><time>2026-03-28T08:28:54Z</time></trkpt><trkpt lat="39.62039743777481" lon="9.589973698028592"><ele>53.33333333333333</ele><time>2026-03-28T08:28:55Z</time></trkpt><trkpt lat="39.620557043088134" lon="9.589986906841839"><ele>51.66666666666667</ele><time>2026-03-28T08:28:56Z</time></trkpt><trkpt lat="39.62071556714827" lon="9.590020277993636"><ele>50.0</ele><time>2026-03-28T08:28:57Z</time></trkpt><trkpt lat="39.62087359183256" lon="9.590062176401815"><ele>50.0</ele><time>2026-03-28T08:28:58Z</time></trkpt><trkpt lat="39.62102889826754" lon="9.59011943490169"><ele>50.0</ele><time>2026-03-28T08:28:59Z</time></trkpt><trkpt lat="39.62117778431952" lon="9.590205389324154"><ele>50.0</ele><time>2026-03-28T08:29:00Z</time></trkpt><trkpt lat="39.621317447927474" lon="9.590306568501015"><ele>49.66666666666667</ele><time>2026-03-28T08:29:01Z</time></trkpt><trkpt lat="39.62145803033553" lon="9.590403112200452"><ele>49.33333333333333</ele><time>2026-03-28T08:29:02Z</time></trkpt><trkpt lat="39.6215952196851" lon="9.590491734008186"><ele>49.0</ele><time>2026-03-28T08:29:03Z</time></trkpt><trkpt lat="39.62172761568764" lon="9.59056830309721"><ele>49.0</ele><time>2026-03-28T08:29:04Z</time></trkpt><trkpt lat="39.62186300094795" lon="9.59062554092266"><ele>49.0</ele><time>2026-03-28T08:29:05Z</time></trkpt><trkpt lat="39.62200615228283" lon="9.590653210190485"><ele>49.0</ele><time>2026-03-28T08:29:06Z</time></trkpt><trkpt lat="39.622154968788976" lon="9.590643365081682"><ele>49.0</ele><time>2026-03-28T08:29:07Z</time></trkpt><trkpt lat="39.622304941972146" lon="9.59060043052589"><ele>49.33333333333333</ele><time>2026-03-28T08:29:08Z</time></trkpt><trkpt lat="39.62245686662869" lon="9.590540307578994"><ele>49.66666666666667</ele><time>2026-03-28T08:29:09Z</time></trkpt><trkpt lat="39.622607995849854" lon="9.590479533484384"><ele>50.0</ele><time>2026-03-28T08:29:10Z</time></trkpt><trkpt lat="39.6227570044858" lon="9.590424316092435"><ele>49.66666666666667</ele><time>2026-03-28T08:29:11Z</time></trkpt><trkpt lat="39.62290297227315" lon="9.590374849477525"><ele>49.33333333333333</ele><time>2026-03-28T08:29:12Z</time></trkpt><trkpt lat="39.62304674958352" lon="9.590317041235906"><ele>49.0</ele><time>2026-03-28T08:29:13Z</time></trkpt><trkpt lat="39.62318871659795" lon="9.590247714226313"><ele>49.25</ele><time>2026-03-28T08:29:14Z</time></trkpt><trkpt lat="39.62332644177651" lon="9.590165571502862"><ele>49.5</ele><time>2026-03-28T08:29:15Z</time></trkpt><trkpt lat="39.62345371619229" lon="9.590069085114175"><ele>49.75</ele><time>2026-03-28T08:29:16Z</time></trkpt><trkpt lat="39.623574902611786" lon="9.58996374631891"><ele>50.0</ele><time>2026-03-28T08:29:17Z</time></trkpt><trkpt lat="39.62369751817796" lon="9.589860445541223"><ele>50.0</ele><time>2026-03-28T08:29:18Z</time></trkpt><trkpt lat="39.62382420604283" lon="9.589758876442607"><ele>50.0</ele><time>2026-03-28T08:29:19Z</time></trkpt><trkpt lat="39.62395121976364" lon="9.589658570768194"><ele>50.0</ele><time>2026-03-28T08:29:20Z</time></trkpt><trkpt lat="39.62408229374538" lon="9.589554548960688"><ele>49.66666666666667</ele><time>2026-03-28T08:29:21Z</time></trkpt><trkpt lat="39.62421671786123" lon="9.589452047932365"><ele>49.33333333333333</ele><time>2026-03-28T08:29:22Z</time></trkpt><trkpt lat="39.624357327129395" lon="9.589358025025938"><ele>49.0</ele><time>2026-03-28T08:29:23Z</time></trkpt><trkpt lat="39.624505926484325" lon="9.589277204838528"><ele>49.0</ele><time>2026-03-28T08:29:24Z</time></trkpt><trkpt lat="39.62466115594455" lon="9.589207817363263"><ele>49.0</ele><time>2026-03-28T08:29:25Z</time></trkpt><trkpt lat="39.62482196890649" lon="9.589144335010122"><ele>49.0</ele><time>2026-03-28T08:29:26Z</time></trkpt><trkpt lat="39.62498447108733" lon="9.589069761951123"><ele>49.0</ele><time>2026-03-28T08:29:27Z</time></trkpt><trkpt lat="39.625145890663745" lon="9.588998997662447"><ele>49.0</ele><time>2026-03-28T08:29:28Z</time></trkpt><trkpt lat="39.62531020664241" lon="9.588925611248532"><ele>49.0</ele><time>2026-03-28T08:29:29Z</time></trkpt><trkpt lat="39.6254755033634" lon="9.588852273653695"><ele>49.33333333333333</ele><time>2026-03-28T08:29:30Z</time></trkpt><trkpt lat="39.62564482942743" lon="9.588777730993513"><ele>49.66666666666667</ele><time>2026-03-28T08:29:31Z</time></trkpt><trkpt lat="39.62581517676247" lon="9.588703834515622"><ele>50.0</ele><time>2026-03-28T08:29:32Z</time></trkpt><trkpt lat="39.62598596084286" lon="9.588628850903849"><ele>50.333333333333336</ele><time>2026-03-28T08:29:33Z</time></trkpt><trkpt lat="39.62615907625291" lon="9.588553582111475"><ele>50.66666666666667</ele><time>2026-03-28T08:29:34Z</time></trkpt><trkpt lat="39.62633304862523" lon="9.588476904015529"><ele>51.0</ele><time>2026-03-28T08:29:35Z</time></trkpt><trkpt lat="39.6265082504503" lon="9.58840020578951"><ele>51.0</ele><time>2026-03-28T08:29:36Z</time></trkpt><trkpt lat="39.62668320983126" lon="9.588322923662508"><ele>51.0</ele><time>2026-03-28T08:29:37Z</time></trkpt><trkpt lat="39.626857941985726" lon="9.588246412211957"><ele>51.0</ele><time>2026-03-28T08:29:38Z</time></trkpt><trkpt lat="39.627029246290846" lon="9.588173206135325"><ele>51.33333333333333</ele><time>2026-03-28T08:29:39Z</time></trkpt><trkpt lat="39.627197825245666" lon="9.588099221787376"><ele>51.666666666666664</ele><time>2026-03-28T08:29:40Z</time></trkpt><trkpt lat="39.627363284300095" lon="9.588024851194183"><ele>52.0</ele><time>2026-03-28T08:29:41Z</time></trkpt><trkpt lat="39.62752682672286" lon="9.587950235928997"><ele>52.0</ele><time>2026-03-28T08:29:42Z</time></trkpt><trkpt lat="39.627690131689576" lon="9.58787703167913"><ele>52.0</ele><time>2026-03-28T08:29:43Z</time></trkpt><trkpt lat="39.62784865342265" lon="9.587809269662607"><ele>52.0</ele><time>2026-03-28T08:29:44Z</time></trkpt><trkpt lat="39.62800123289099" lon="9.587743838472932"><ele>52.5</ele><time>2026-03-28T08:29:45Z</time></trkpt><trkpt lat="39.62814455110796" lon="9.587680414734281"><ele>53.0</ele><time>2026-03-28T08:29:46Z</time></trkpt><trkpt lat="39.628282413023605" lon="9.587620423683449"><ele>53.5</ele><time>2026-03-28T08:29:47Z</time></trkpt><trkpt lat="39.628419040325774" lon="9.587561807669182"><ele>54.0</ele><time>2026-03-28T08:29:48Z</time></trkpt><trkpt lat="39.62855731935929" lon="9.587502921731401"><ele>54.0</ele><time>2026-03-28T08:29:49Z</time></trkpt><trkpt lat="39.628694177316504" lon="9.587443682266516"><ele>54.0</ele><time>2026-03-28T08:29:50Z</time></trkpt><trkpt lat="39.62883448097208" lon="9.587383121062864"><ele>54.0</ele><time>2026-03-28T08:29:51Z</time></trkpt><trkpt lat="39.62897304730175" lon="9.587322365988342"><ele>54.0</ele><time>2026-03-28T08:29:52Z</time></trkpt><trkpt lat="39.6291077091853" lon="9.587263383087794"><ele>54.0</ele><time>2026-03-28T08:29:53Z</time></trkpt><trkpt lat="39.62923348955752" lon="9.587209423537375"><ele>54.0</ele><time>2026-03-28T08:29:54Z</time></trkpt><trkpt lat="39.62935500396527" lon="9.587170514714174"><ele>54.0</ele><time>2026-03-28T08:29:55Z</time></trkpt><trkpt lat="39.62946491763511" lon="9.587113896402588"><ele>54.0</ele><time>2026-03-28T08:29:56Z</time></trkpt><trkpt lat="39.62955829524527" lon="9.58703736223859"><ele>54.833333333333336</ele><time>2026-03-28T08:29:57Z</time></trkpt><trkpt lat="39.62961953793732" lon="9.586960860022542"><ele>55.66666666666667</ele><time>2026-03-28T08:29:58Z</time></trkpt><trkpt lat="39.62967487528097" lon="9.586917165979747"><ele>56.5</ele><time>2026-03-28T08:29:59Z</time></trkpt><trkpt lat="39.62977701587835" lon="9.58688460497421"><ele>57.333333333333336</ele><time>2026-03-28T08:30:01Z</time></trkpt><trkpt lat="39.629888186593966" lon="9.58687648511199"><ele>58.16666666666667</ele><time>2026-03-28T08:30:03Z</time></trkpt><trkpt lat="39.62995049164232" lon="9.586849562596505"><ele>59.0</ele><time>2026-03-28T08:30:04Z</time></trkpt><trkpt lat="39.63002117200051" lon="9.58681935378218"><ele>59.0</ele><time>2026-03-28T08:30:05Z</time></trkpt><trkpt lat="39.630108747873535" lon="9.586835888843082"><ele>59.00000000000001</ele><time>2026-03-28T08:30:06Z</time></trkpt><trkpt lat="39.630209615770575" lon="9.58682176685461"><ele>59.00000000000001</ele><time>2026-03-28T08:30:07Z</time></trkpt><trkpt lat="39.63032505957754" lon="9.586820890035124"><ele>59.0</ele><time>2026-03-28T08:30:08Z</time></trkpt><trkpt lat="39.63044929442203" lon="9.58680074999688"><ele>59.0</ele><time>2026-03-28T08:30:09Z</time></trkpt><trkpt lat="39.63058255586398" lon="9.586776648387547"><ele>59.0</ele><time>2026-03-28T08:30:10Z</time></trkpt><trkpt lat="39.63072430459178" lon="9.58675327447345"><ele>59.0</ele><time>2026-03-28T08:30:11Z</time></trkpt><trkpt lat="39.63087565013748" lon="9.586729024602347"><ele>59.0</ele><time>2026-03-28T08:30:12Z</time></trkpt><trkpt lat="39.631028531669116" lon="9.586706613340954"><ele>59.0</ele><time>2026-03-28T08:30:13Z</time></trkpt><trkpt lat="39.63118632740135" lon="9.586684807345101"><ele>58.0</ele><time>2026-03-28T08:30:14Z</time></trkpt><trkpt lat="39.63134694849799" lon="9.58665697388654"><ele>57.0</ele><time>2026-03-28T08:30:15Z</time></trkpt><trkpt lat="39.631511563406285" lon="9.586621933221094"><ele>56.0</ele><time>2026-03-28T08:30:16Z</time></trkpt><trkpt lat="39.63167740291021" lon="9.58657108339143"><ele>56.0</ele><time>2026-03-28T08:30:17Z</time></trkpt><trkpt lat="39.631844868600965" lon="9.58649661159646"><ele>56.0</ele><time>2026-03-28T08:30:18Z</time></trkpt><trkpt lat="39.63200870082251" lon="9.586394085050728"><ele>56.0</ele><time>2026-03-28T08:30:19Z</time></trkpt><trkpt lat="39.63216915700446" lon="9.586266653345813"><ele>57.0</ele><time>2026-03-28T08:30:20Z</time></trkpt><trkpt lat="39.63233264799384" lon="9.58612688959295"><ele>58.0</ele><time>2026-03-28T08:30:21Z</time></trkpt><trkpt lat="39.63249589773789" lon="9.585990999470958"><ele>59.0</ele><time>2026-03-28T08:30:22Z</time></trkpt><trkpt lat="39.63265677257204" lon="9.585857923648591"><ele>57.66666666666667</ele><time>2026-03-28T08:30:23Z</time></trkpt><trkpt lat="39.63281554698091" lon="9.585726300657452"><ele>56.33333333333333</ele><time>2026-03-28T08:30:24Z</time></trkpt><trkpt lat="39.632975410533064" lon="9.585596931743565"><ele>55.0</ele><time>2026-03-28T08:30:25Z</time></trkpt><trkpt lat="39.633146658449604" lon="9.585467640740235"><ele>55.0</ele><time>2026-03-28T08:30:26Z</time></trkpt><trkpt lat="39.63332891499465" lon="9.585349578398608"><ele>55.0</ele><time>2026-03-28T08:30:27Z</time></trkpt><trkpt lat="39.63352236453249" lon="9.585244338950064"><ele>55.0</ele><time>2026-03-28T08:30:28Z</time></trkpt><trkpt lat="39.63372123369718" lon="9.585141962241355"><ele>56.33333333333333</ele><time>2026-03-28T08:30:29Z</time></trkpt><trkpt lat="39.63392536069506" lon="9.585033728471567"><ele>57.66666666666667</ele><time>2026-03-28T08:30:30Z</time></trkpt><trkpt lat="39.63413534829606" lon="9.584922940647788"><ele>59.0</ele><time>2026-03-28T08:30:31Z</time></trkpt><trkpt lat="39.63433463441278" lon="9.584820472249984"><ele>57.66666666666667</ele><time>2026-03-28T08:30:32Z</time></trkpt><trkpt lat="39.63454608780076" lon="9.584731824193415"><ele>56.33333333333333</ele><time>2026-03-28T08:30:33Z</time></trkpt><trkpt lat="39.634746754802684" lon="9.584607515704988"><ele>55.0</ele><time>2026-03-28T08:30:34Z</time></trkpt><trkpt lat="39.63495263302497" lon="9.58450736549596"><ele>56.33333333333333</ele><time>2026-03-28T08:30:35Z</time></trkpt><trkpt lat="39.6351572284464" lon="9.584405331652489"><ele>57.66666666666667</ele><time>2026-03-28T08:30:36Z</time></trkpt><trkpt lat="39.63535922539157" lon="9.58429455146791"><ele>59.0</ele><time>2026-03-28T08:30:37Z</time></trkpt><trkpt lat="39.635556264897055" lon="9.584169524391843"><ele>59.0</ele><time>2026-03-28T08:30:38Z</time></trkpt><trkpt lat="39.63574790251821" lon="9.584024490097262"><ele>59.0</ele><time>2026-03-28T08:30:39Z</time></trkpt><trkpt lat="39.63593403081276" lon="9.58386080892526"><ele>59.0</ele><time>2026-03-28T08:30:40Z</time></trkpt><trkpt lat="39.63612667843141" lon="9.583705946542812"><ele>60.0</ele><time>2026-03-28T08:30:41Z</time></trkpt><trkpt lat="39.63631072913955" lon="9.583532288590446"><ele>61.0</ele><time>2026-03-28T08:30:42Z</time></trkpt><trkpt lat="39.6364852883235" lon="9.58334249307953"><ele>61.0</ele><time>2026-03-28T08:30:43Z</time></trkpt><trkpt lat="39.63666600656704" lon="9.583175166986114"><ele>61.0</ele><time>2026-03-28T08:30:44Z</time></trkpt><trkpt lat="39.63684564717306" lon="9.583006712892175"><ele>61.0</ele><time>2026-03-28T08:30:45Z</time></trkpt><trkpt lat="39.63702540777345" lon="9.58283646116255"><ele>61.33333333333333</ele><time>2026-03-28T08:30:46Z</time></trkpt><trkpt lat="39.63720221977931" lon="9.582667869654648"><ele>61.66666666666667</ele><time>2026-03-28T08:30:47Z</time></trkpt><trkpt lat="39.63738045648087" lon="9.582496156086677"><ele>62.0</ele><time>2026-03-28T08:30:48Z</time></trkpt><trkpt lat="39.637558858663446" lon="9.582325668847195"><ele>62.0</ele><time>2026-03-28T08:30:49Z</time></trkpt><trkpt lat="39.63773387743468" lon="9.582155862884157"><ele>62.0</ele><time>2026-03-28T08:30:50Z</time></trkpt><trkpt lat="39.637919483570485" lon="9.582003811647844"><ele>62.0</ele><time>2026-03-28T08:30:51Z</time></trkpt><trkpt lat="39.638094711835535" lon="9.581836678507981"><ele>62.66666666666667</ele><time>2026-03-28T08:30:52Z</time></trkpt><trkpt lat="39.63827015192357" lon="9.581668059805084"><ele>63.33333333333333</ele><time>2026-03-28T08:30:53Z</time></trkpt><trkpt lat="39.638439714538535" lon="9.581489800035072"><ele>64.0</ele><time>2026-03-28T08:30:54Z</time></trkpt><trkpt lat="39.63862236808662" lon="9.581339252472231"><ele>65.0</ele><time>2026-03-28T08:30:55Z</time></trkpt><trkpt lat="39.638807940815774" lon="9.581198996277962"><ele>66.0</ele><time>2026-03-28T08:30:56Z</time></trkpt><trkpt lat="39.63898958280376" lon="9.581070249788826"><ele>67.0</ele><time>2026-03-28T08:30:57Z</time></trkpt><trkpt lat="39.63916609903914" lon="9.580949122360176"><ele>67.0</ele><time>2026-03-28T08:30:58Z</time></trkpt><trkpt lat="39.63933738105053" lon="9.580828852797115"><ele>67.0</ele><time>2026-03-28T08:30:59Z</time></trkpt><trkpt lat="39.63950637117441" lon="9.58071348863951"><ele>67.0</ele><time>2026-03-28T08:31:00Z</time></trkpt><trkpt lat="39.639678621647306" lon="9.580627920091887"><ele>66.0</ele><time>2026-03-28T08:31:01Z</time></trkpt><trkpt lat="39.63985847611408" lon="9.58058518849477"><ele>65.0</ele><time>2026-03-28T08:31:02Z</time></trkpt><trkpt lat="39.64004811303685" lon="9.580574181707153"><ele>64.0</ele><time>2026-03-28T08:31:03Z</time></trkpt><trkpt lat="39.640244549310374" lon="9.580576675283247"><ele>64.33333333333333</ele><time>2026-03-28T08:31:04Z</time></trkpt><trkpt lat="39.640441805518186" lon="9.58061157061698"><ele>64.66666666666667</ele><time>2026-03-28T08:31:05Z</time></trkpt><trkpt lat="39.640643298734766" lon="9.580642528241265"><ele>65.0</ele><time>2026-03-28T08:31:06Z</time></trkpt><trkpt lat="39.64084973077473" lon="9.580665647387034"><ele>65.0</ele><time>2026-03-28T08:31:07Z</time></trkpt><trkpt lat="39.64105380300855" lon="9.58071132989136"><ele>65.0</ele><time>2026-03-28T08:31:08Z</time></trkpt><trkpt lat="39.64125793730828" lon="9.580749376480624"><ele>65.0</ele><time>2026-03-28T08:31:09Z</time></trkpt><trkpt lat="39.64146392392987" lon="9.580782661637475"><ele>66.0</ele><time>2026-03-28T08:31:10Z</time></trkpt><trkpt lat="39.64166341292209" lon="9.58081811947872"><ele>67.0</ele><time>2026-03-28T08:31:11Z</time></trkpt><trkpt lat="39.6418506815499" lon="9.580861191069925"><ele>68.0</ele><time>2026-03-28T08:31:12Z</time></trkpt><trkpt lat="39.642029716303" lon="9.580925838695451"><ele>69.33333333333334</ele><time>2026-03-28T08:31:13Z</time></trkpt><trkpt lat="39.64218849937048" lon="9.58102658545783"><ele>70.66666666666667</ele><time>2026-03-28T08:31:14Z</time></trkpt><trkpt lat="39.64233129771069" lon="9.581168146185759"><ele>72.0</ele><time>2026-03-28T08:31:15Z</time></trkpt><trkpt lat="39.64247519621656" lon="9.581312165035815"><ele>70.0</ele><time>2026-03-28T08:31:16Z</time></trkpt><trkpt lat="39.64263796861036" lon="9.581416282403703"><ele>68.0</ele><time>2026-03-28T08:31:17Z</time></trkpt><trkpt lat="39.64282209639133" lon="9.581491104919968"><ele>66.0</ele><time>2026-03-28T08:31:18Z</time></trkpt><trkpt lat="39.64300496411867" lon="9.581569173898705"><ele>66.0</ele><time>2026-03-28T08:31:19Z</time></trkpt><trkpt lat="39.6431879942872" lon="9.581650171199975"><ele>66.0</ele><time>2026-03-28T08:31:20Z</time></trkpt><trkpt lat="39.64337277022671" lon="9.58172507577382"><ele>66.0</ele><time>2026-03-28T08:31:21Z</time></trkpt><trkpt lat="39.643562993089326" lon="9.581776013714084"><ele>68.0</ele><time>2026-03-28T08:31:22Z</time></trkpt><trkpt lat="39.64375839967998" lon="9.581796369137292"><ele>70.0</ele><time>2026-03-28T08:31:23Z</time></trkpt><trkpt lat="39.64395414147067" lon="9.581794593977602"><ele>72.0</ele><time>2026-03-28T08:31:24Z</time></trkpt><trkpt lat="39.6441519377661" lon="9.581803970007792"><ele>72.0</ele><time>2026-03-28T08:31:25Z</time></trkpt><trkpt lat="39.64434853117488" lon="9.581753657514271"><ele>72.0</ele><time>2026-03-28T08:31:26Z</time></trkpt><trkpt lat="39.644545903856134" lon="9.58171298849847"><ele>72.0</ele><time>2026-03-28T08:31:27Z</time></trkpt><trkpt lat="39.644743444260016" lon="9.581668543542962"><ele>70.33333333333333</ele><time>2026-03-28T08:31:28Z</time></trkpt><trkpt lat="39.64494410577759" lon="9.581627529901752"><ele>68.66666666666666</ele><time>2026-03-28T08:31:29Z</time></trkpt><trkpt lat="39.64514727600554" lon="9.581588763019933"><ele>67.0</ele><time>2026-03-28T08:31:30Z</time></trkpt><trkpt lat="39.645351388450635" lon="9.581552527947366"><ele>66.0</ele><time>2026-03-28T08:31:31Z</time></trkpt><trkpt lat="39.64555409215088" lon="9.581516860904065"><ele>65.0</ele><time>2026-03-28T08:31:32Z</time></trkpt><trkpt lat="39.64575701647962" lon="9.581478173535931"><ele>64.0</ele><time>2026-03-28T08:31:33Z</time></trkpt><trkpt lat="39.645958833211424" lon="9.581435139059993"><ele>64.0</ele><time>2026-03-28T08:31:34Z</time></trkpt><trkpt lat="39.64615962785495" lon="9.581387427494706"><ele>64.0</ele><time>2026-03-28T08:31:35Z</time></trkpt><trkpt lat="39.64636075017872" lon="9.581333110587382"><ele>64.0</ele><time>2026-03-28T08:31:36Z</time></trkpt><trkpt lat="39.64656080303079" lon="9.581277803452599"><ele>64.0</ele><time>2026-03-28T08:31:37Z</time></trkpt><trkpt lat="39.64676365905913" lon="9.58122144527034"><ele>64.0</ele><time>2026-03-28T08:31:38Z</time></trkpt><trkpt lat="39.646964743193166" lon="9.581160891481026"><ele>64.0</ele><time>2026-03-28T08:31:39Z</time></trkpt><trkpt lat="39.647167003169685" lon="9.581097040380955"><ele>66.66666666666666</ele><time>2026-03-28T08:31:40Z</time></trkpt><trkpt lat="39.64736593323123" lon="9.581033573183815"><ele>69.33333333333333</ele><time>2026-03-28T08:31:41Z</time></trkpt><trkpt lat="39.647565794283906" lon="9.580971567002942"><ele>72.0</ele><time>2026-03-28T08:31:42Z</time></trkpt><trkpt lat="39.647764575459256" lon="9.580910470256566"><ele>71.33333333333333</ele><time>2026-03-28T08:31:43Z</time></trkpt><trkpt lat="39.64796074401861" lon="9.580848812960216"><ele>70.66666666666666</ele><time>2026-03-28T08:31:44Z</time></trkpt><trkpt lat="39.64815074946806" lon="9.58078622260572"><ele>70.0</ele><time>2026-03-28T08:31:45Z</time></trkpt><trkpt lat="39.64833300559504" lon="9.580710277627414"><ele>70.0</ele><time>2026-03-28T08:31:46Z</time></trkpt><trkpt lat="39.648501141620116" lon="9.580599116411904"><ele>70.0</ele><time>2026-03-28T08:31:47Z</time></trkpt><trkpt lat="39.64865225544683" lon="9.580447138573392"><ele>70.0</ele><time>2026-03-28T08:31:48Z</time></trkpt><trkpt lat="39.648787714313976" lon="9.580280602518078"><ele>71.33333333333333</ele><time>2026-03-28T08:31:49Z</time></trkpt><trkpt lat="39.64892640182637" lon="9.580113762206176"><ele>72.66666666666667</ele><time>2026-03-28T08:31:50Z</time></trkpt><trkpt lat="39.64907657746698" lon="9.579958992003231"><ele>74.0</ele><time>2026-03-28T08:31:51Z</time></trkpt><trkpt lat="39.649240197517074" lon="9.579827636630661"><ele>74.0</ele><time>2026-03-28T08:31:52Z</time></trkpt><trkpt lat="39.64941345961696" lon="9.579715729733818"><ele>74.0</ele><time>2026-03-28T08:31:53Z</time></trkpt><trkpt lat="39.64959702122191" lon="9.579637673042633"><ele>74.0</ele><time>2026-03-28T08:31:54Z</time></trkpt><trkpt lat="39.649785810642804" lon="9.579589245513908"><ele>72.33333333333334</ele><time>2026-03-28T08:31:55Z</time></trkpt><trkpt lat="39.64998072962147" lon="9.5795713201215"><ele>70.66666666666667</ele><time>2026-03-28T08:31:56Z</time></trkpt><trkpt lat="39.650177427601975" lon="9.579575737259361"><ele>69.0</ele><time>2026-03-28T08:31:57Z</time></trkpt><trkpt lat="39.65037383524573" lon="9.579584644377771"><ele>68.66666666666667</ele><time>2026-03-28T08:31:58Z</time></trkpt><trkpt lat="39.65057286791207" lon="9.579591497728188"><ele>68.33333333333334</ele><time>2026-03-28T08:31:59Z</time></trkpt><trkpt lat="39.65077370825336" lon="9.579599028779237"><ele>68.0</ele><time>2026-03-28T08:32:00Z</time></trkpt><trkpt lat="39.650979970028516" lon="9.57960569872535"><ele>68.33333333333334</ele><time>2026-03-28T08:32:01Z</time></trkpt><trkpt lat="39.651191639523596" lon="9.579612603254684"><ele>68.66666666666667</ele><time>2026-03-28T08:32:02Z</time></trkpt><trkpt lat="39.65140603834876" lon="9.57962230614338"><ele>69.0</ele><time>2026-03-28T08:32:03Z</time></trkpt><trkpt lat="39.651619303360285" lon="9.579636314078304"><ele>69.0</ele><time>2026-03-28T08:32:04Z</time></trkpt><trkpt lat="39.65183850342748" lon="9.579649325830255"><ele>69.0</ele><time>2026-03-28T08:32:05Z</time></trkpt><trkpt lat="39.65205279127241" lon="9.579659201212486"><ele>69.0</ele><time>2026-03-28T08:32:06Z</time></trkpt><trkpt lat="39.652261621078644" lon="9.579667144670882"><ele>69.33333333333333</ele><time>2026-03-28T08:32:07Z</time></trkpt><trkpt lat="39.65245819384965" lon="9.57967696035373"><ele>69.66666666666666</ele><time>2026-03-28T08:32:08Z</time></trkpt><trkpt lat="39.65264343695688" lon="9.579689939138017"><ele>70.0</ele><time>2026-03-28T08:32:09Z</time></trkpt><trkpt lat="39.65283575594386" lon="9.579692068062727"><ele>70.0</ele><time>2026-03-28T08:32:10Z</time></trkpt><trkpt lat="39.65301416464258" lon="9.5796528055218"><ele>70.0</ele><time>2026-03-28T08:32:11Z</time></trkpt><trkpt lat="39.653192621704385" lon="9.579565555389618"><ele>70.0</ele><time>2026-03-28T08:32:12Z</time></trkpt><trkpt lat="39.65336981517138" lon="9.579471430825311"><ele>72.0</ele><time>2026-03-28T08:32:13Z</time></trkpt><trkpt lat="39.653548396000446" lon="9.579389479977513"><ele>74.0</ele><time>2026-03-28T08:32:14Z</time></trkpt><trkpt lat="39.65372444626758" lon="9.579332670554255"><ele>76.0</ele><time>2026-03-28T08:32:15Z</time></trkpt><trkpt lat="39.65390018569476" lon="9.579318648035843"><ele>76.0</ele><time>2026-03-28T08:32:16Z</time></trkpt><trkpt lat="39.65407433545533" lon="9.579355527121498"><ele>76.0</ele><time>2026-03-28T08:32:17Z</time></trkpt><trkpt lat="39.65424430127448" lon="9.579391492586971"><ele>76.0</ele><time>2026-03-28T08:32:18Z</time></trkpt><trkpt lat="39.65442302496091" lon="9.579371952039985"><ele>75.66666666666666</ele><time>2026-03-28T08:32:19Z</time></trkpt><trkpt lat="39.65460398798514" lon="9.579326327477528"><ele>75.33333333333333</ele><time>2026-03-28T08:32:20Z</time></trkpt><trkpt lat="39.65478723474111" lon="9.579304724182277"><ele>75.0</ele><time>2026-03-28T08:32:21Z</time></trkpt><trkpt lat="39.6549767052827" lon="9.57933514519506"><ele>75.0</ele><time>2026-03-28T08:32:22Z</time></trkpt><trkpt lat="39.655162632109835" lon="9.579361560472027"><ele>75.0</ele><time>2026-03-28T08:32:23Z</time></trkpt><trkpt lat="39.65535664430292" lon="9.579348187092785"><ele>75.0</ele><time>2026-03-28T08:32:24Z</time></trkpt><trkpt lat="39.65554943520344" lon="9.579285209095222"><ele>75.33333333333333</ele><time>2026-03-28T08:32:25Z</time></trkpt><trkpt lat="39.65574042986716" lon="9.579187659872957"><ele>75.66666666666666</ele><time>2026-03-28T08:32:26Z</time></trkpt><trkpt lat="39.655926855910316" lon="9.579080363164637"><ele>76.0</ele><time>2026-03-28T08:32:27Z</time></trkpt><trkpt lat="39.656120053231746" lon="9.57900253270238"><ele>75.0</ele><time>2026-03-28T08:32:28Z</time></trkpt><trkpt lat="39.656306435869304" lon="9.578905019905244"><ele>74.0</ele><time>2026-03-28T08:32:29Z</time></trkpt><trkpt lat="39.65648794457377" lon="9.578807864904647"><ele>73.0</ele><time>2026-03-28T08:32:30Z</time></trkpt><trkpt lat="39.656681497079695" lon="9.578775286312224"><ele>73.0</ele><time>2026-03-28T08:32:31Z</time></trkpt><trkpt lat="39.65686712467663" lon="9.578830374101532"><ele>73.0</ele><time>2026-03-28T08:32:32Z</time></trkpt><trkpt lat="39.65705165577513" lon="9.578884808195928"><ele>73.0</ele><time>2026-03-28T08:32:33Z</time></trkpt><trkpt lat="39.65722987498451" lon="9.578961965730938"><ele>74.0</ele><time>2026-03-28T08:32:34Z</time></trkpt><trkpt lat="39.657410259944236" lon="9.579031836041679"><ele>75.0</ele><time>2026-03-28T08:32:35Z</time></trkpt><trkpt lat="39.6576085099417" lon="9.579091588072366"><ele>76.0</ele><time>2026-03-28T08:32:36Z</time></trkpt><trkpt lat="39.65780123699658" lon="9.579163282277799"><ele>77.0</ele><time>2026-03-28T08:32:37Z</time></trkpt><trkpt lat="39.657999229293324" lon="9.579215600744817"><ele>78.0</ele><time>2026-03-28T08:32:38Z</time></trkpt><trkpt lat="39.658200031363634" lon="9.57923249791236"><ele>79.0</ele><time>2026-03-28T08:32:39Z</time></trkpt><trkpt lat="39.658401091257296" lon="9.579210932333298"><ele>79.0</ele><time>2026-03-28T08:32:40Z</time></trkpt><trkpt lat="39.65859978019317" lon="9.579146441855253"><ele>79.0</ele><time>2026-03-28T08:32:41Z</time></trkpt><trkpt lat="39.658797508632844" lon="9.579063284738611"><ele>79.0</ele><time>2026-03-28T08:32:42Z</time></trkpt><trkpt lat="39.6589936405651" lon="9.578979360257302"><ele>78.0</ele><time>2026-03-28T08:32:43Z</time></trkpt><trkpt lat="39.659188877395785" lon="9.578903479031998"><ele>77.0</ele><time>2026-03-28T08:32:44Z</time></trkpt><trkpt lat="39.65938723938281" lon="9.578831079313852"><ele>76.0</ele><time>2026-03-28T08:32:45Z</time></trkpt><trkpt lat="39.659583350267795" lon="9.57875948193619"><ele>75.66666666666666</ele><time>2026-03-28T08:32:46Z</time></trkpt><trkpt lat="39.65977752279349" lon="9.57868840791826"><ele>75.33333333333333</ele><time>2026-03-28T08:32:47Z</time></trkpt><trkpt lat="39.65997575008796" lon="9.57862115651548"><ele>75.0</ele><time>2026-03-28T08:32:48Z</time></trkpt><trkpt lat="39.66017677738029" lon="9.578560273234611"><ele>77.33333333333333</ele><time>2026-03-28T08:32:49Z</time></trkpt><trkpt lat="39.660379688833544" lon="9.578549613247455"><ele>79.66666666666666</ele><time>2026-03-28T08:32:50Z</time></trkpt><trkpt lat="39.66057988292135" lon="9.578557643221522"><ele>82.0</ele><time>2026-03-28T08:32:51Z</time></trkpt><trkpt lat="39.660783935756406" lon="9.578570663733572"><ele>82.0</ele><time>2026-03-28T08:32:52Z</time></trkpt><trkpt lat="39.66098958365895" lon="9.578581913717718"><ele>82.0</ele><time>2026-03-28T08:32:53Z</time></trkpt><trkpt lat="39.66119507095476" lon="9.578574498836682"><ele>82.0</ele><time>2026-03-28T08:32:54Z</time></trkpt><trkpt lat="39.661397824172724" lon="9.57859614191953"><ele>81.66666666666666</ele><time>2026-03-28T08:32:55Z</time></trkpt><trkpt lat="39.6616011723589" lon="9.578606915479375"><ele>81.33333333333333</ele><time>2026-03-28T08:32:56Z</time></trkpt><trkpt lat="39.66180523858069" lon="9.578617103691208"><ele>81.0</ele><time>2026-03-28T08:32:57Z</time></trkpt><trkpt lat="39.66201030627932" lon="9.578629299737887"><ele>81.0</ele><time>2026-03-28T08:32:58Z</time></trkpt><trkpt lat="39.66220922361578" lon="9.578646151240433"><ele>81.0</ele><time>2026-03-28T08:32:59Z</time></trkpt><trkpt lat="39.662403904110505" lon="9.578658512078043"><ele>81.0</ele><time>2026-03-28T08:33:00Z</time></trkpt><trkpt lat="39.662600669054825" lon="9.578666390768944"><ele>81.0</ele><time>2026-03-28T08:33:01Z</time></trkpt><trkpt lat="39.66279248552089" lon="9.578675810547056"><ele>81.0</ele><time>2026-03-28T08:33:02Z</time></trkpt><trkpt lat="39.66298294079013" lon="9.578687864593128"><ele>81.0</ele><time>2026-03-28T08:33:03Z</time></trkpt><trkpt lat="39.6631713345722" lon="9.578720144054596"><ele>81.0</ele><time>2026-03-28T08:33:04Z</time></trkpt><trkpt lat="39.66335787443133" lon="9.578713697315541"><ele>81.0</ele><time>2026-03-28T08:33:05Z</time></trkpt><trkpt lat="39.66353812619779" lon="9.578747133821699"><ele>81.0</ele><time>2026-03-28T08:33:06Z</time></trkpt><trkpt lat="39.66371353371996" lon="9.578791873513637"><ele>81.66666666666667</ele><time>2026-03-28T08:33:07Z</time></trkpt><trkpt lat="39.66386284756236" lon="9.578893697228962"><ele>82.33333333333334</ele><time>2026-03-28T08:33:08Z</time></trkpt><trkpt lat="39.66401264149673" lon="9.578967773824987"><ele>83.0</ele><time>2026-03-28T08:33:09Z</time></trkpt><trkpt lat="39.66415201735338" lon="9.579048678088519"><ele>83.0</ele><time>2026-03-28T08:33:10Z</time></trkpt><trkpt lat="39.66429588701455" lon="9.579068368063842"><ele>83.0</ele><time>2026-03-28T08:33:11Z</time></trkpt><trkpt lat="39.66445756878432" lon="9.579032770552589"><ele>83.0</ele><time>2026-03-28T08:33:12Z</time></trkpt><trkpt lat="39.66461953837705" lon="9.578961668809383"><ele>83.0</ele><time>2026-03-28T08:33:13Z</time></trkpt><trkpt lat="39.664781301982465" lon="9.578904538900543"><ele>83.0</ele><time>2026-03-28T08:33:14Z</time></trkpt><trkpt lat="39.66494438006631" lon="9.578861067297353"><ele>83.0</ele><time>2026-03-28T08:33:15Z</time></trkpt><trkpt lat="39.66510234195332" lon="9.57881440006314"><ele>83.0</ele><time>2026-03-28T08:33:16Z</time></trkpt><trkpt lat="39.66525657681015" lon="9.578749931731895"><ele>83.0</ele><time>2026-03-28T08:33:17Z</time></trkpt><trkpt lat="39.66540292396133" lon="9.578650542382046"><ele>83.0</ele><time>2026-03-28T08:33:18Z</time></trkpt><trkpt lat="39.66554059388189" lon="9.578518915048612"><ele>84.33333333333334</ele><time>2026-03-28T08:33:19Z</time></trkpt><trkpt lat="39.66567628861368" lon="9.57837906576408"><ele>85.66666666666667</ele><time>2026-03-28T08:33:20Z</time></trkpt><trkpt lat="39.66581864835274" lon="9.578250422436135"><ele>87.0</ele><time>2026-03-28T08:33:21Z</time></trkpt><trkpt lat="39.665969900526186" lon="9.578141028672379"><ele>87.0</ele><time>2026-03-28T08:33:22Z</time></trkpt><trkpt lat="39.66613214057098" lon="9.578070582270852"><ele>87.0</ele><time>2026-03-28T08:33:23Z</time></trkpt><trkpt lat="39.66628783756189" lon="9.57801859470477"><ele>87.0</ele><time>2026-03-28T08:33:24Z</time></trkpt><trkpt lat="39.666440023557804" lon="9.577999644818044"><ele>87.0</ele><time>2026-03-28T08:33:25Z</time></trkpt><trkpt lat="39.66659861791156" lon="9.578018713071218"><ele>87.0</ele><time>2026-03-28T08:33:26Z</time></trkpt><trkpt lat="39.666763855027554" lon="9.578037277016332"><ele>87.0</ele><time>2026-03-28T08:33:27Z</time></trkpt><trkpt lat="39.66692813676044" lon="9.57806602607668"><ele>87.33333333333333</ele><time>2026-03-28T08:33:28Z</time></trkpt><trkpt lat="39.66709156202756" lon="9.57808034621086"><ele>87.66666666666666</ele><time>2026-03-28T08:33:29Z</time></trkpt><trkpt lat="39.66725126953714" lon="9.578102203513707"><ele>88.0</ele><time>2026-03-28T08:33:30Z</time></trkpt><trkpt lat="39.667403920918936" lon="9.578128444129124"><ele>88.0</ele><time>2026-03-28T08:33:31Z</time></trkpt><trkpt lat="39.667546915875626" lon="9.578148515407525"><ele>88.0</ele><time>2026-03-28T08:33:32Z</time></trkpt><trkpt lat="39.667680699931935" lon="9.578145672243137"><ele>88.0</ele><time>2026-03-28T08:33:33Z</time></trkpt><trkpt lat="39.66779722430536" lon="9.578092058013054"><ele>88.0</ele><time>2026-03-28T08:33:34Z</time></trkpt><trkpt lat="39.66786829896853" lon="9.577957443235105"><ele>88.25</ele><time>2026-03-28T08:33:35Z</time></trkpt><trkpt lat="39.66789326721091" lon="9.577792035718016"><ele>88.5</ele><time>2026-03-28T08:33:36Z</time></trkpt><trkpt lat="39.66788937332409" lon="9.577608202381663"><ele>88.75</ele><time>2026-03-28T08:33:37Z</time></trkpt><trkpt lat="39.66788901298829" lon="9.577429692677663"><ele>89.0</ele><time>2026-03-28T08:33:38Z</time></trkpt><trkpt lat="39.66792233839749" lon="9.577268078976426"><ele>89.0</ele><time>2026-03-28T08:33:39Z</time></trkpt><trkpt lat="39.66795770916834" lon="9.577125793829243"><ele>89.0</ele><time>2026-03-28T08:33:40Z</time></trkpt><trkpt lat="39.66802025543501" lon="9.577016939763375"><ele>89.0</ele><time>2026-03-28T08:33:41Z</time></trkpt><trkpt lat="39.66811777320205" lon="9.576940853765592"><ele>89.0</ele><time>2026-03-28T08:33:42Z</time></trkpt><trkpt lat="39.668242744286886" lon="9.576920008825843"><ele>91.0</ele><time>2026-03-28T08:33:43Z</time></trkpt><trkpt lat="39.66838237299309" lon="9.576906066842222"><ele>93.0</ele><time>2026-03-28T08:33:44Z</time></trkpt><trkpt lat="39.66852841100869" lon="9.57693300850687"><ele>95.0</ele><time>2026-03-28T08:33:45Z</time></trkpt><trkpt lat="39.66868281045453" lon="9.576950837865143"><ele>97.0</ele><time>2026-03-28T08:33:46Z</time></trkpt><trkpt lat="39.66884136702814" lon="9.57697043251781"><ele>97.66666666666667</ele><time>2026-03-28T08:33:47Z</time></trkpt><trkpt lat="39.66900332867712" lon="9.576998660006758"><ele>98.33333333333334</ele><time>2026-03-28T08:33:48Z</time></trkpt><trkpt lat="39.66916505439203" lon="9.577029624082948"><ele>99.0</ele><time>2026-03-28T08:33:49Z</time></trkpt><trkpt lat="39.6693225924723" lon="9.577071379182707"><ele>97.66666666666667</ele><time>2026-03-28T08:33:50Z</time></trkpt><trkpt lat="39.669482885274554" lon="9.577120566728315"><ele>96.33333333333334</ele><time>2026-03-28T08:33:51Z</time></trkpt><trkpt lat="39.66964108446893" lon="9.577165207312035"><ele>95.0</ele><time>2026-03-28T08:33:52Z</time></trkpt><trkpt lat="39.66980482728337" lon="9.57720395702569"><ele>95.0</ele><time>2026-03-28T08:33:53Z</time></trkpt><trkpt lat="39.66996799084195" lon="9.577237799362745"><ele>95.0</ele><time>2026-03-28T08:33:54Z</time></trkpt><trkpt lat="39.67013161946979" lon="9.577275015447567"><ele>95.0</ele><time>2026-03-28T08:33:55Z</time></trkpt><trkpt lat="39.67029334766585" lon="9.577312873278304"><ele>96.0</ele><time>2026-03-28T08:33:56Z</time></trkpt><trkpt lat="39.670456906750516" lon="9.577354768662353"><ele>97.0</ele><time>2026-03-28T08:33:57Z</time></trkpt><trkpt lat="39.67062136325047" lon="9.57739763702806"><ele>98.0</ele><time>2026-03-28T08:33:58Z</time></trkpt><trkpt lat="39.67078980011338" lon="9.5774418855787"><ele>98.0</ele><time>2026-03-28T08:33:59Z</time></trkpt><trkpt lat="39.67096036882434" lon="9.577480598344335"><ele>98.0</ele><time>2026-03-28T08:34:00Z</time></trkpt><trkpt lat="39.671132202249346" lon="9.577500923179546"><ele>98.0</ele><time>2026-03-28T08:34:01Z</time></trkpt><trkpt lat="39.671308232362804" lon="9.577496479259151"><ele>97.66666666666666</ele><time>2026-03-28T08:34:02Z</time></trkpt><trkpt lat="39.67148856646003" lon="9.577477528454539"><ele>97.33333333333334</ele><time>2026-03-28T08:34:03Z</time></trkpt><trkpt lat="39.67167122253473" lon="9.577460027651066"><ele>97.0</ele><time>2026-03-28T08:34:04Z</time></trkpt><trkpt lat="39.67185891170707" lon="9.5774406796688"><ele>96.0</ele><time>2026-03-28T08:34:05Z</time></trkpt><trkpt lat="39.672045934365386" lon="9.577417750624432"><ele>95.0</ele><time>2026-03-28T08:34:06Z</time></trkpt><trkpt lat="39.67223646452922" lon="9.577390381707758"><ele>94.0</ele><time>2026-03-28T08:34:07Z</time></trkpt><trkpt lat="39.67242758571021" lon="9.577363147529873"><ele>94.0</ele><time>2026-03-28T08:34:08Z</time></trkpt><trkpt lat="39.67261953259367" lon="9.577338350593287"><ele>94.0</ele><time>2026-03-28T08:34:09Z</time></trkpt><trkpt lat="39.672811646626" lon="9.57732261027436"><ele>94.0</ele><time>2026-03-28T08:34:10Z</time></trkpt><trkpt lat="39.67300386238949" lon="9.577326449242024"><ele>93.33333333333333</ele><time>2026-03-28T08:34:11Z</time></trkpt><trkpt lat="39.67319388611008" lon="9.57735335901909"><ele>92.66666666666667</ele><time>2026-03-28T08:34:12Z</time></trkpt><trkpt lat="39.67337751352661" lon="9.57740212008402"><ele>92.0</ele><time>2026-03-28T08:34:13Z</time></trkpt><trkpt lat="39.67354912239295" lon="9.577463732783777"><ele>92.75</ele><time>2026-03-28T08:34:14Z</time></trkpt><trkpt lat="39.67369802784148" lon="9.57753162809499"><ele>93.5</ele><time>2026-03-28T08:34:15Z</time></trkpt><trkpt lat="39.673835737011444" lon="9.577596602510067"><ele>94.25</ele><time>2026-03-28T08:34:16Z</time></trkpt><trkpt lat="39.67394462003078" lon="9.577678126319121"><ele>95.0</ele><time>2026-03-28T08:34:17Z</time></trkpt><trkpt lat="39.674025801807424" lon="9.577737771217896"><ele>95.0</ele><time>2026-03-28T08:34:18Z</time></trkpt><trkpt lat="39.67418440865524" lon="9.577577841977408"><ele>95.0</ele><time>2026-03-28T08:34:20Z</time></trkpt><trkpt lat="39.67425290909008" lon="9.57751615315066"><ele>95.0</ele><time>2026-03-28T08:34:21Z</time></trkpt><trkpt lat="39.67432599703932" lon="9.577457250229845"><ele>95.0</ele><time>2026-03-28T08:34:22Z</time></trkpt><trkpt lat="39.67442251024905" lon="9.577466761447104"><ele>95.25</ele><time>2026-03-28T08:34:23Z</time></trkpt><trkpt lat="39.67452635204942" lon="9.577520186441769"><ele>95.5</ele><time>2026-03-28T08:34:24Z</time></trkpt><trkpt lat="39.674604561611524" lon="9.577614503561074"><ele>95.75</ele><time>2026-03-28T08:34:25Z</time></trkpt><trkpt lat="39.67466305036013" lon="9.577742469066866"><ele>96.0</ele><time>2026-03-28T08:34:26Z</time></trkpt><trkpt lat="39.67463989908669" lon="9.577919277580309"><ele>96.0</ele><time>2026-03-28T08:34:27Z</time></trkpt><trkpt lat="39.67466611312116" lon="9.578084157193727"><ele>96.0</ele><time>2026-03-28T08:34:28Z</time></trkpt><trkpt lat="39.674715571013394" lon="9.578232989615456"><ele>96.0</ele><time>2026-03-28T08:34:29Z</time></trkpt><trkpt lat="39.674785649307196" lon="9.57836835853567"><ele>96.0</ele><time>2026-03-28T08:34:30Z</time></trkpt><trkpt lat="39.67489405826189" lon="9.578453927165905"><ele>96.0</ele><time>2026-03-28T08:34:31Z</time></trkpt><trkpt lat="39.6750255752013" lon="9.578476977788574"><ele>96.0</ele><time>2026-03-28T08:34:32Z</time></trkpt><trkpt lat="39.67516155610558" lon="9.578440456864735"><ele>96.0</ele><time>2026-03-28T08:34:33Z</time></trkpt><trkpt lat="39.67528258516032" lon="9.578344060584307"><ele>96.0</ele><time>2026-03-28T08:34:34Z</time></trkpt><trkpt lat="39.67537986728167" lon="9.578208450498364"><ele>96.4</ele><time>2026-03-28T08:34:35Z</time></trkpt><trkpt lat="39.67546517340267" lon="9.578081746506369"><ele>96.8</ele><time>2026-03-28T08:34:36Z</time></trkpt><trkpt lat="39.675551110680374" lon="9.578005054022551"><ele>97.2</ele><time>2026-03-28T08:34:37Z</time></trkpt><trkpt lat="39.67563940298376" lon="9.57800325615896"><ele>97.60000000000001</ele><time>2026-03-28T08:34:38Z</time></trkpt><trkpt lat="39.675704349103015" lon="9.57809504724518"><ele>98.0</ele><time>2026-03-28T08:34:39Z</time></trkpt><trkpt lat="39.67580014566647" lon="9.578185865633026"><ele>98.0</ele><time>2026-03-28T08:34:40Z</time></trkpt><trkpt lat="39.675898744868405" lon="9.578311139636204"><ele>98.0</ele><time>2026-03-28T08:34:41Z</time></trkpt><trkpt lat="39.67601318298537" lon="9.57844286335008"><ele>98.0</ele><time>2026-03-28T08:34:42Z</time></trkpt><trkpt lat="39.676143565498016" lon="9.578589487906184"><ele>97.66666666666666</ele><time>2026-03-28T08:34:43Z</time></trkpt><trkpt lat="39.676290756810054" lon="9.578745390391816"><ele>97.33333333333334</ele><time>2026-03-28T08:34:44Z</time></trkpt><trkpt lat="39.6764386106047" lon="9.578903207810168"><ele>97.0</ele><time>2026-03-28T08:34:45Z</time></trkpt><trkpt lat="39.67659040298138" lon="9.57906629992665"><ele>97.0</ele><time>2026-03-28T08:34:46Z</time></trkpt><trkpt lat="39.676748911362914" lon="9.579241231029"><ele>97.0</ele><time>2026-03-28T08:34:47Z</time></trkpt><trkpt lat="39.67691475080733" lon="9.579423113207232"><ele>97.0</ele><time>2026-03-28T08:34:48Z</time></trkpt><trkpt lat="39.677083404557216" lon="9.57960841700713"><ele>95.66666666666667</ele><time>2026-03-28T08:34:49Z</time></trkpt><trkpt lat="39.67725146472018" lon="9.579793113349453"><ele>94.33333333333334</ele><time>2026-03-28T08:34:50Z</time></trkpt><trkpt lat="39.67742449315429" lon="9.579984030919428"><ele>93.0</ele><time>2026-03-28T08:34:51Z</time></trkpt><trkpt lat="39.67759892270852" lon="9.580176521729289"><ele>93.0</ele><time>2026-03-28T08:34:52Z</time></trkpt><trkpt lat="39.67777661856729" lon="9.580370899623563"><ele>93.0</ele><time>2026-03-28T08:34:53Z</time></trkpt><trkpt lat="39.67795561006682" lon="9.580566305175344"><ele>93.0</ele><time>2026-03-28T08:34:54Z</time></trkpt><trkpt lat="39.67813283996753" lon="9.580761211238473"><ele>93.0</ele><time>2026-03-28T08:34:55Z</time></trkpt><trkpt lat="39.67830935916852" lon="9.580956871131894"><ele>93.0</ele><time>2026-03-28T08:34:56Z</time></trkpt><trkpt lat="39.67848444669449" lon="9.581150538918527"><ele>93.0</ele><time>2026-03-28T08:34:57Z</time></trkpt><trkpt lat="39.67866132283809" lon="9.581344621164254"><ele>93.0</ele><time>2026-03-28T08:34:58Z</time></trkpt><trkpt lat="39.678836477012254" lon="9.581536820592031"><ele>93.0</ele><time>2026-03-28T08:34:59Z</time></trkpt><trkpt lat="39.679011297978484" lon="9.581729485657117"><ele>93.0</ele><time>2026-03-28T08:35:00Z</time></trkpt><trkpt lat="39.679186441523925" lon="9.581922093076962"><ele>93.0</ele><time>2026-03-28T08:35:01Z</time></trkpt><trkpt lat="39.67936178413709" lon="9.582111878066732"><ele>92.5</ele><time>2026-03-28T08:35:02Z</time></trkpt><trkpt lat="39.67953515959072" lon="9.582298468377395"><ele>92.0</ele><time>2026-03-28T08:35:03Z</time></trkpt><trkpt lat="39.67971289293013" lon="9.582491376507566"><ele>92.0</ele><time>2026-03-28T08:35:04Z</time></trkpt><trkpt lat="39.67988780018564" lon="9.582686747612085"><ele>92.0</ele><time>2026-03-28T08:35:05Z</time></trkpt><trkpt lat="39.68006476425985" lon="9.582884122585744"><ele>91.5</ele><time>2026-03-28T08:35:06Z</time></trkpt><trkpt lat="39.68023817666685" lon="9.583082934340016"><ele>91.0</ele><time>2026-03-28T08:35:07Z</time></trkpt><trkpt lat="39.680416826261165" lon="9.58327739287368"><ele>92.0</ele><time>2026-03-28T08:35:08Z</time></trkpt><trkpt lat="39.68059529696312" lon="9.583472688969639"><ele>93.0</ele><time>2026-03-28T08:35:09Z</time></trkpt><trkpt lat="39.68077204668473" lon="9.583666673437536"><ele>93.0</ele><time>2026-03-28T08:35:10Z</time></trkpt><trkpt lat="39.68095056950444" lon="9.583857240845793"><ele>93.0</ele><time>2026-03-28T08:35:11Z</time></trkpt><trkpt lat="39.681120969372046" lon="9.584047788414246"><ele>93.0</ele><time>2026-03-28T08:35:12Z</time></trkpt><trkpt lat="39.681295309661294" lon="9.584240271129538"><ele>93.0</ele><time>2026-03-28T08:35:13Z</time></trkpt><trkpt lat="39.681468025951354" lon="9.584428668178644"><ele>94.0</ele><time>2026-03-28T08:35:14Z</time></trkpt><trkpt lat="39.68163906583575" lon="9.584619839165384"><ele>95.0</ele><time>2026-03-28T08:35:15Z</time></trkpt><trkpt lat="39.681810187453195" lon="9.584808561272308"><ele>95.0</ele><time>2026-03-28T08:35:16Z</time></trkpt><trkpt lat="39.6819802657028" lon="9.584998315117328"><ele>95.0</ele><time>2026-03-28T08:35:17Z</time></trkpt><trkpt lat="39.68215180523661" lon="9.58518724701743"><ele>95.0</ele><time>2026-03-28T08:35:18Z</time></trkpt><trkpt lat="39.68232354052336" lon="9.585372540254738"><ele>96.0</ele><time>2026-03-28T08:35:19Z</time></trkpt><trkpt lat="39.68249772160546" lon="9.585553801154644"><ele>97.0</ele><time>2026-03-28T08:35:20Z</time></trkpt><trkpt lat="39.68267364819816" lon="9.585728615161313"><ele>98.0</ele><time>2026-03-28T08:35:21Z</time></trkpt><trkpt lat="39.68285303561191" lon="9.585896505705335"><ele>98.66666666666666</ele><time>2026-03-28T08:35:22Z</time></trkpt><trkpt lat="39.68303592592763" lon="9.586059640992318"><ele>99.33333333333334</ele><time>2026-03-28T08:35:23Z</time></trkpt><trkpt lat="39.68321573808098" lon="9.586215089577992"><ele>100.0</ele><time>2026-03-28T08:35:24Z</time></trkpt><trkpt lat="39.68339919265256" lon="9.5863699940785"><ele>100.0</ele><time>2026-03-28T08:35:25Z</time></trkpt><trkpt lat="39.68358564253084" lon="9.58651722326608"><ele>100.0</ele><time>2026-03-28T08:35:26Z</time></trkpt><trkpt lat="39.68377297437099" lon="9.586657002536592"><ele>100.0</ele><time>2026-03-28T08:35:27Z</time></trkpt><trkpt lat="39.68396535122495" lon="9.586789641510407"><ele>101.66666666666667</ele><time>2026-03-28T08:35:28Z</time></trkpt><trkpt lat="39.68416139199194" lon="9.58691374092723"><ele>103.33333333333334</ele><time>2026-03-28T08:35:29Z</time></trkpt><trkpt lat="39.684359173307776" lon="9.587032923344388"><ele>105.0</ele><time>2026-03-28T08:35:30Z</time></trkpt><trkpt lat="39.68456122440744" lon="9.587148916804269"><ele>106.0</ele><time>2026-03-28T08:35:31Z</time></trkpt><trkpt lat="39.68476319643721" lon="9.58726033140122"><ele>107.0</ele><time>2026-03-28T08:35:32Z</time></trkpt><trkpt lat="39.68496730584501" lon="9.587364465119183"><ele>108.0</ele><time>2026-03-28T08:35:33Z</time></trkpt><trkpt lat="39.685174753479224" lon="9.587462224705487"><ele>108.33333333333334</ele><time>2026-03-28T08:35:34Z</time></trkpt><trkpt lat="39.68538459068746" lon="9.58755165470864"><ele>108.66666666666667</ele><time>2026-03-28T08:35:35Z</time></trkpt><trkpt lat="39.68559308591349" lon="9.58763379305277"><ele>109.0</ele><time>2026-03-28T08:35:36Z</time></trkpt><trkpt lat="39.685807078653646" lon="9.587712126278703"><ele>109.0</ele><time>2026-03-28T08:35:37Z</time></trkpt><trkpt lat="39.686018785741375" lon="9.58778264385885"><ele>109.0</ele><time>2026-03-28T08:35:38Z</time></trkpt><trkpt lat="39.68623148759597" lon="9.587847113201827"><ele>109.0</ele><time>2026-03-28T08:35:39Z</time></trkpt><trkpt lat="39.68644406164196" lon="9.587904143055246"><ele>110.66666666666667</ele><time>2026-03-28T08:35:40Z</time></trkpt><trkpt lat="39.68665565451073" lon="9.587953577882754"><ele>112.33333333333334</ele><time>2026-03-28T08:35:41Z</time></trkpt><trkpt lat="39.686868743789745" lon="9.58799553916346"><ele>114.0</ele><time>2026-03-28T08:35:42Z</time></trkpt><trkpt lat="39.687082039996795" lon="9.588030110622253"><ele>114.0</ele><time>2026-03-28T08:35:43Z</time></trkpt><trkpt lat="39.68729200710281" lon="9.588058560182143"><ele>114.0</ele><time>2026-03-28T08:35:44Z</time></trkpt><trkpt lat="39.68750823080089" lon="9.588081071056903"><ele>114.0</ele><time>2026-03-28T08:35:45Z</time></trkpt><trkpt lat="39.687721785589204" lon="9.588098911999342"><ele>113.0</ele><time>2026-03-28T08:35:46Z</time></trkpt><trkpt lat="39.68793650164001" lon="9.588112313496874"><ele>112.0</ele><time>2026-03-28T08:35:47Z</time></trkpt><trkpt lat="39.688150769504496" lon="9.58811829132999"><ele>111.0</ele><time>2026-03-28T08:35:48Z</time></trkpt><trkpt lat="39.688362773923224" lon="9.588141328546476"><ele>111.0</ele><time>2026-03-28T08:35:49Z</time></trkpt><trkpt lat="39.688576868291314" lon="9.588102598971059"><ele>111.0</ele><time>2026-03-28T08:35:50Z</time></trkpt><trkpt lat="39.68879240860502" lon="9.588079421082387"><ele>111.0</ele><time>2026-03-28T08:35:51Z</time></trkpt><trkpt lat="39.68900385648665" lon="9.588048970933864"><ele>107.66666666666666</ele><time>2026-03-28T08:35:52Z</time></trkpt><trkpt lat="39.68921550451547" lon="9.588019904882055"><ele>104.33333333333333</ele><time>2026-03-28T08:35:53Z</time></trkpt><trkpt lat="39.68942988908475" lon="9.587993207692886"><ele>101.0</ele><time>2026-03-28T08:35:54Z</time></trkpt><trkpt lat="39.689644807976876" lon="9.587964433157813"><ele>100.66666666666666</ele><time>2026-03-28T08:35:55Z</time></trkpt><trkpt lat="39.68985992687861" lon="9.587935114415972"><ele>100.33333333333334</ele><time>2026-03-28T08:35:56Z</time></trkpt><trkpt lat="39.69007386270906" lon="9.587903921862427"><ele>100.0</ele><time>2026-03-28T08:35:57Z</time></trkpt><trkpt lat="39.69028641991895" lon="9.587872351711468"><ele>101.0</ele><time>2026-03-28T08:35:58Z</time></trkpt><trkpt lat="39.69049993098151" lon="9.587841656532113"><ele>102.0</ele><time>2026-03-28T08:35:59Z</time></trkpt><trkpt lat="39.69071239593335" lon="9.587810091553223"><ele>103.0</ele><time>2026-03-28T08:36:00Z</time></trkpt><trkpt lat="39.69092848720223" lon="9.587777356350555"><ele>105.33333333333334</ele><time>2026-03-28T08:36:01Z</time></trkpt><trkpt lat="39.69114741961214" lon="9.587743796426162"><ele>107.66666666666666</ele><time>2026-03-28T08:36:02Z</time></trkpt><trkpt lat="39.691369959727545" lon="9.587710900045161"><ele>110.0</ele><time>2026-03-28T08:36:03Z</time></trkpt><trkpt lat="39.691596258002626" lon="9.587677373595833"><ele>110.0</ele><time>2026-03-28T08:36:04Z</time></trkpt><trkpt lat="39.69182521620093" lon="9.58764240282875"><ele>110.0</ele><time>2026-03-28T08:36:05Z</time></trkpt><trkpt lat="39.69195779212205" lon="9.587628230513717"><ele>110.0</ele><time>2026-03-28T08:36:06Z</time></trkpt><trkpt lat="39.69216393617949" lon="9.587594599455809"><ele>110.66666666666666</ele><time>2026-03-28T08:36:07Z</time></trkpt><trkpt lat="39.692371963062755" lon="9.587564433182056"><ele>111.33333333333334</ele><time>2026-03-28T08:36:08Z</time></trkpt><trkpt lat="39.692580069363146" lon="9.58753382314552"><ele>112.0</ele><time>2026-03-28T08:36:09Z</time></trkpt><trkpt lat="39.692788623828356" lon="9.587502925743621"><ele>112.0</ele><time>2026-03-28T08:36:10Z</time></trkpt><trkpt lat="39.69299634319954" lon="9.587471055235543"><ele>112.0</ele><time>2026-03-28T08:36:11Z</time></trkpt><trkpt lat="39.69320560395896" lon="9.587439461558235"><ele>112.0</ele><time>2026-03-28T08:36:12Z</time></trkpt><trkpt lat="39.69341585448612" lon="9.587406103952365"><ele>112.33333333333334</ele><time>2026-03-28T08:36:13Z</time></trkpt><trkpt lat="39.69362691895271" lon="9.587375483885006"><ele>112.66666666666666</ele><time>2026-03-28T08:36:14Z</time></trkpt><trkpt lat="39.6938385534668" lon="9.587352031120348"><ele>113.0</ele><time>2026-03-28T08:36:15Z</time></trkpt><trkpt lat="39.694051080031954" lon="9.587324785373045"><ele>113.0</ele><time>2026-03-28T08:36:16Z</time></trkpt><trkpt lat="39.69426462644987" lon="9.587297624058687"><ele>113.0</ele><time>2026-03-28T08:36:17Z</time></trkpt><trkpt lat="39.69447587203882" lon="9.587268780464964"><ele>113.0</ele><time>2026-03-28T08:36:18Z</time></trkpt><trkpt lat="39.69468827449074" lon="9.587235946333239"><ele>114.66666666666666</ele><time>2026-03-28T08:36:19Z</time></trkpt><trkpt lat="39.694901878257156" lon="9.587204553800678"><ele>116.33333333333334</ele><time>2026-03-28T08:36:20Z</time></trkpt><trkpt lat="39.69511538848063" lon="9.587172931938424"><ele>118.0</ele><time>2026-03-28T08:36:21Z</time></trkpt><trkpt lat="39.69532862588933" lon="9.587139601152883"><ele>121.0</ele><time>2026-03-28T08:36:22Z</time></trkpt><trkpt lat="39.69553961146823" lon="9.587106288635525"><ele>124.0</ele><time>2026-03-28T08:36:23Z</time></trkpt><trkpt lat="39.69574755331646" lon="9.587077255236057"><ele>127.0</ele><time>2026-03-28T08:36:24Z</time></trkpt><trkpt lat="39.69595720034325" lon="9.587047358162199"><ele>124.0</ele><time>2026-03-28T08:36:25Z</time></trkpt><trkpt lat="39.69616644929829" lon="9.58701992800016"><ele>121.0</ele><time>2026-03-28T08:36:26Z</time></trkpt><trkpt lat="39.69637518366434" lon="9.58699343322732"><ele>118.0</ele><time>2026-03-28T08:36:27Z</time></trkpt><trkpt lat="39.69658273872427" lon="9.586965396688685"><ele>118.0</ele><time>2026-03-28T08:36:28Z</time></trkpt><trkpt lat="39.69679297282164" lon="9.586946134565718"><ele>118.0</ele><time>2026-03-28T08:36:29Z</time></trkpt><trkpt lat="39.69700665417244" lon="9.586938262497894"><ele>118.0</ele><time>2026-03-28T08:36:30Z</time></trkpt><trkpt lat="39.69721487656928" lon="9.586946278224824"><ele>118.33333333333334</ele><time>2026-03-28T08:36:31Z</time></trkpt><trkpt lat="39.697427889032234" lon="9.586942931338289"><ele>118.66666666666666</ele><time>2026-03-28T08:36:32Z</time></trkpt><trkpt lat="39.69765677807699" lon="9.586939574474949"><ele>119.0</ele><time>2026-03-28T08:36:33Z</time></trkpt><trkpt lat="39.69786482054928" lon="9.58693480275331"><ele>119.0</ele><time>2026-03-28T08:36:34Z</time></trkpt><trkpt lat="39.69807957572702" lon="9.586932417638854"><ele>119.0</ele><time>2026-03-28T08:36:35Z</time></trkpt><trkpt lat="39.69829484357742" lon="9.586923389953549"><ele>119.0</ele><time>2026-03-28T08:36:36Z</time></trkpt><trkpt lat="39.69851213109192" lon="9.586923195943433"><ele>119.0</ele><time>2026-03-28T08:36:37Z</time></trkpt><trkpt lat="39.698730716244484" lon="9.58691656359445"><ele>119.0</ele><time>2026-03-28T08:36:38Z</time></trkpt><trkpt lat="39.69894982316146" lon="9.586917783622503"><ele>119.0</ele><time>2026-03-28T08:36:39Z</time></trkpt><trkpt lat="39.69916836620342" lon="9.586921022584843"><ele>119.0</ele><time>2026-03-28T08:36:40Z</time></trkpt><trkpt lat="39.69938338135683" lon="9.586920427135992"><ele>119.0</ele><time>2026-03-28T08:36:41Z</time></trkpt><trkpt lat="39.69960152260579" lon="9.586917340551766"><ele>119.0</ele><time>2026-03-28T08:36:42Z</time></trkpt><trkpt lat="39.699820779200614" lon="9.586913937394664"><ele>119.33333333333333</ele><time>2026-03-28T08:36:43Z</time></trkpt><trkpt lat="39.700040402507824" lon="9.5869077855971"><ele>119.66666666666666</ele><time>2026-03-28T08:36:44Z</time></trkpt><trkpt lat="39.700257379820556" lon="9.586903026787708"><ele>120.0</ele><time>2026-03-28T08:36:45Z</time></trkpt><trkpt lat="39.70047616518388" lon="9.586898428485231"><ele>119.0</ele><time>2026-03-28T08:36:46Z</time></trkpt><trkpt lat="39.700695181828216" lon="9.586894300717207"><ele>118.0</ele><time>2026-03-28T08:36:47Z</time></trkpt><trkpt lat="39.700910069830286" lon="9.586893161512629"><ele>117.0</ele><time>2026-03-28T08:36:48Z</time></trkpt><trkpt lat="39.701128222738255" lon="9.586892600757393"><ele>115.0</ele><time>2026-03-28T08:36:49Z</time></trkpt><trkpt lat="39.70133394151191" lon="9.586888468091328"><ele>113.0</ele><time>2026-03-28T08:36:50Z</time></trkpt><trkpt lat="39.701520172062445" lon="9.586886350477984"><ele>111.0</ele><time>2026-03-28T08:36:51Z</time></trkpt><trkpt lat="39.70169669411507" lon="9.586870063810355"><ele>111.0</ele><time>2026-03-28T08:36:52Z</time></trkpt><trkpt lat="39.701882991058106" lon="9.586868954133786"><ele>111.0</ele><time>2026-03-28T08:36:53Z</time></trkpt><trkpt lat="39.70206252899398" lon="9.586865051959311"><ele>111.0</ele><time>2026-03-28T08:36:54Z</time></trkpt><trkpt lat="39.70224948618627" lon="9.586866174982424"><ele>112.33333333333334</ele><time>2026-03-28T08:36:55Z</time></trkpt><trkpt lat="39.702436396341994" lon="9.586880121072912"><ele>113.66666666666667</ele><time>2026-03-28T08:36:56Z</time></trkpt><trkpt lat="39.7026316828042" lon="9.586884412216907"><ele>115.0</ele><time>2026-03-28T08:36:57Z</time></trkpt><trkpt lat="39.70282887052848" lon="9.586878339718625"><ele>115.66666666666667</ele><time>2026-03-28T08:36:58Z</time></trkpt><trkpt lat="39.703030611454764" lon="9.586870936367093"><ele>116.33333333333334</ele><time>2026-03-28T08:36:59Z</time></trkpt><trkpt lat="39.70323655562469" lon="9.58686714193175"><ele>117.0</ele><time>2026-03-28T08:37:00Z</time></trkpt><trkpt lat="39.70344095637136" lon="9.586863914394323"><ele>117.33333333333334</ele><time>2026-03-28T08:37:01Z</time></trkpt><trkpt lat="39.703651877125985" lon="9.586861058533799"><ele>117.66666666666667</ele><time>2026-03-28T08:37:02Z</time></trkpt><trkpt lat="39.70386345465215" lon="9.586857559220325"><ele>118.0</ele><time>2026-03-28T08:37:03Z</time></trkpt><trkpt lat="39.70407804748066" lon="9.58685903966521"><ele>118.0</ele><time>2026-03-28T08:37:04Z</time></trkpt><trkpt lat="39.70429682018727" lon="9.586861713492155"><ele>118.0</ele><time>2026-03-28T08:37:05Z</time></trkpt><trkpt lat="39.70451705760047" lon="9.586861182179135"><ele>118.0</ele><time>2026-03-28T08:37:06Z</time></trkpt><trkpt lat="39.70473922981047" lon="9.586856560571505"><ele>119.0</ele><time>2026-03-28T08:37:07Z</time></trkpt><trkpt lat="39.704963787212456" lon="9.586850226661436"><ele>120.0</ele><time>2026-03-28T08:37:08Z</time></trkpt><trkpt lat="39.70518865765874" lon="9.586844636076812"><ele>121.5</ele><time>2026-03-28T08:37:09Z</time></trkpt><trkpt lat="39.705415851470164" lon="9.586841837182517"><ele>123.0</ele><time>2026-03-28T08:37:10Z</time></trkpt><trkpt lat="39.70564349824667" lon="9.586840801618312"><ele>123.0</ele><time>2026-03-28T08:37:11Z</time></trkpt><trkpt lat="39.70587323394124" lon="9.586840145780185"><ele>123.0</ele><time>2026-03-28T08:37:12Z</time></trkpt><trkpt lat="39.70610236050255" lon="9.586835641977215"><ele>121.0</ele><time>2026-03-28T08:37:13Z</time></trkpt><trkpt lat="39.70633226154109" lon="9.586830843530437"><ele>119.0</ele><time>2026-03-28T08:37:14Z</time></trkpt><trkpt lat="39.706562417721976" lon="9.586828145138524"><ele>119.0</ele><time>2026-03-28T08:37:15Z</time></trkpt><trkpt lat="39.7067912983789" lon="9.586824995779741"><ele>119.0</ele><time>2026-03-28T08:37:16Z</time></trkpt><trkpt lat="39.707020463470606" lon="9.58682248455999"><ele>118.5</ele><time>2026-03-28T08:37:17Z</time></trkpt><trkpt lat="39.70724767948446" lon="9.586817274899005"><ele>118.0</ele><time>2026-03-28T08:37:18Z</time></trkpt><trkpt lat="39.70747322024632" lon="9.586812003479457"><ele>118.0</ele><time>2026-03-28T08:37:19Z</time></trkpt><trkpt lat="39.707697720475615" lon="9.586811619422317"><ele>118.0</ele><time>2026-03-28T08:37:20Z</time></trkpt><trkpt lat="39.707918011586976" lon="9.58681014861762"><ele>118.0</ele><time>2026-03-28T08:37:21Z</time></trkpt><trkpt lat="39.7081374489777" lon="9.586809142130084"><ele>118.0</ele><time>2026-03-28T08:37:22Z</time></trkpt><trkpt lat="39.708353271352074" lon="9.586805967210363"><ele>118.0</ele><time>2026-03-28T08:37:23Z</time></trkpt><trkpt lat="39.70856829364771" lon="9.5868025386077"><ele>118.0</ele><time>2026-03-28T08:37:24Z</time></trkpt><trkpt lat="39.708779481992" lon="9.5867950858236"><ele>118.0</ele><time>2026-03-28T08:37:25Z</time></trkpt><trkpt lat="39.70899065430352" lon="9.586794030502418"><ele>118.0</ele><time>2026-03-28T08:37:26Z</time></trkpt><trkpt lat="39.709201849553416" lon="9.58679407862889"><ele>118.0</ele><time>2026-03-28T08:37:27Z</time></trkpt><trkpt lat="39.709411311530914" lon="9.586794850454941"><ele>119.33333333333334</ele><time>2026-03-28T08:37:28Z</time></trkpt><trkpt lat="39.70962201378039" lon="9.586791474770495"><ele>120.66666666666666</ele><time>2026-03-28T08:37:29Z</time></trkpt><trkpt lat="39.709831331018606" lon="9.586788607264392"><ele>122.0</ele><time>2026-03-28T08:37:30Z</time></trkpt><trkpt lat="39.710045396054035" lon="9.586783640604668"><ele>122.66666666666666</ele><time>2026-03-28T08:37:31Z</time></trkpt><trkpt lat="39.710260286775565" lon="9.586779439436434"><ele>123.33333333333334</ele><time>2026-03-28T08:37:32Z</time></trkpt><trkpt lat="39.71047443977303" lon="9.58677782454004"><ele>124.0</ele><time>2026-03-28T08:37:33Z</time></trkpt><trkpt lat="39.71069076590474" lon="9.586775531689291"><ele>124.0</ele><time>2026-03-28T08:37:34Z</time></trkpt><trkpt lat="39.71091040755675" lon="9.586775285312129"><ele>124.0</ele><time>2026-03-28T08:37:35Z</time></trkpt><trkpt lat="39.711128911671615" lon="9.586772428813953"><ele>124.0</ele><time>2026-03-28T08:37:36Z</time></trkpt><trkpt lat="39.71134891177914" lon="9.58677026637913"><ele>124.33333333333334</ele><time>2026-03-28T08:37:37Z</time></trkpt><trkpt lat="39.7115709754743" lon="9.586768942826563"><ele>124.66666666666666</ele><time>2026-03-28T08:37:38Z</time></trkpt><trkpt lat="39.71179039253709" lon="9.58676479168249"><ele>125.0</ele><time>2026-03-28T08:37:39Z</time></trkpt><trkpt lat="39.7120103075834" lon="9.586761620841143"><ele>125.0</ele><time>2026-03-28T08:37:40Z</time></trkpt><trkpt lat="39.712231434194045" lon="9.586759282595155"><ele>125.0</ele><time>2026-03-28T08:37:41Z</time></trkpt><trkpt lat="39.712448518974774" lon="9.586753641645883"><ele>125.0</ele><time>2026-03-28T08:37:42Z</time></trkpt><trkpt lat="39.712666568516035" lon="9.586742600093082"><ele>125.0</ele><time>2026-03-28T08:37:43Z</time></trkpt><trkpt lat="39.7128829065387" lon="9.586725012388262"><ele>125.0</ele><time>2026-03-28T08:37:44Z</time></trkpt><trkpt lat="39.71310168532827" lon="9.586695707189065"><ele>125.0</ele><time>2026-03-28T08:37:45Z</time></trkpt><trkpt lat="39.71331581525399" lon="9.586655932802636"><ele>125.0</ele><time>2026-03-28T08:37:46Z</time></trkpt><trkpt lat="39.713530761375424" lon="9.58660782518907"><ele>125.0</ele><time>2026-03-28T08:37:47Z</time></trkpt><trkpt lat="39.71374217980075" lon="9.586550885673235"><ele>125.0</ele><time>2026-03-28T08:37:48Z</time></trkpt><trkpt lat="39.713953855317314" lon="9.586488286226311"><ele>125.33333333333333</ele><time>2026-03-28T08:37:49Z</time></trkpt><trkpt lat="39.714165174854635" lon="9.586419522868127"><ele>125.66666666666666</ele><time>2026-03-28T08:37:50Z</time></trkpt><trkpt lat="39.71437078874407" lon="9.5863395528418"><ele>126.0</ele><time>2026-03-28T08:37:51Z</time></trkpt><trkpt lat="39.71457416099731" lon="9.586251765060803"><ele>125.33333333333334</ele><time>2026-03-28T08:37:52Z</time></trkpt><trkpt lat="39.71477253153881" lon="9.586153510217455"><ele>124.66666666666667</ele><time>2026-03-28T08:37:53Z</time></trkpt><trkpt lat="39.71496679823644" lon="9.586047900205283"><ele>124.0</ele><time>2026-03-28T08:37:54Z</time></trkpt><trkpt lat="39.71514600889342" lon="9.585938931954745"><ele>124.33333333333334</ele><time>2026-03-28T08:37:55Z</time></trkpt><trkpt lat="39.71531087583022" lon="9.585837105623154"><ele>124.66666666666666</ele><time>2026-03-28T08:37:56Z</time></trkpt><trkpt lat="39.715457425315115" lon="9.585741976983225"><ele>125.0</ele><time>2026-03-28T08:37:57Z</time></trkpt><trkpt lat="39.715591092064116" lon="9.585652336858166"><ele>125.0</ele><time>2026-03-28T08:37:58Z</time></trkpt><trkpt lat="39.71570776015494" lon="9.585572254749868"><ele>125.0</ele><time>2026-03-28T08:37:59Z</time></trkpt><trkpt lat="39.71581246736403" lon="9.58549895536135"><ele>125.0</ele><time>2026-03-28T08:38:00Z</time></trkpt><trkpt lat="39.71590588937496" lon="9.585432314030246"><ele>125.0</ele><time>2026-03-28T08:38:01Z</time></trkpt><trkpt lat="39.71599144275065" lon="9.585378592974617"><ele>124.99999999999999</ele><time>2026-03-28T08:38:02Z</time></trkpt><trkpt lat="39.716067343802635" lon="9.585339843913415"><ele>125.0</ele><time>2026-03-28T08:38:03Z</time></trkpt><trkpt lat="39.71613419442585" lon="9.585322425080973"><ele>125.0</ele><time>2026-03-28T08:38:04Z</time></trkpt><trkpt lat="39.716232337813764" lon="9.585377809790296"><ele>125.0</ele><time>2026-03-28T08:38:06Z</time></trkpt><trkpt lat="39.71629669421162" lon="9.585446697020428"><ele>124.99999999999999</ele><time>2026-03-28T08:38:08Z</time></trkpt><trkpt lat="39.71636556915909" lon="9.585501969972412"><ele>125.0</ele><time>2026-03-28T08:38:11Z</time></trkpt><trkpt lat="39.716425438555675" lon="9.58546643222631"><ele>125.0</ele><time>2026-03-28T08:57:27Z</time></trkpt><trkpt lat="39.71647208288476" lon="9.58537570335457"><ele>125.0</ele><time>2026-03-28T08:57:29Z</time></trkpt><trkpt lat="39.7164875064009" lon="9.585281904554478"><ele>125.0</ele><time>2026-03-28T08:57:31Z</time></trkpt><trkpt lat="39.71648441480731" lon="9.585157979422462"><ele>125.0</ele><time>2026-03-28T08:57:33Z</time></trkpt><trkpt lat="39.71650307527491" lon="9.585051461163784"><ele>125.0</ele><time>2026-03-28T08:57:35Z</time></trkpt><trkpt lat="39.71654781071428" lon="9.584892272316454"><ele>124.6</ele><time>2026-03-28T08:57:37Z</time></trkpt><trkpt lat="39.716578554782565" lon="9.58481231555161"><ele>124.2</ele><time>2026-03-28T08:57:38Z</time></trkpt><trkpt lat="39.71665464583422" lon="9.584704466668786"><ele>123.80000000000001</ele><time>2026-03-28T08:57:40Z</time></trkpt><trkpt lat="39.71672547700794" lon="9.58463098673959"><ele>123.4</ele><time>2026-03-28T08:57:41Z</time></trkpt><trkpt lat="39.71680606649689" lon="9.58455919618833"><ele>123.0</ele><time>2026-03-28T08:57:42Z</time></trkpt><trkpt lat="39.716898062497044" lon="9.584479601378499"><ele>123.25</ele><time>2026-03-28T08:57:43Z</time></trkpt><trkpt lat="39.71699214504204" lon="9.58439013777566"><ele>123.5</ele><time>2026-03-28T08:57:44Z</time></trkpt><trkpt lat="39.717090957863654" lon="9.584293198836342"><ele>123.75</ele><time>2026-03-28T08:57:45Z</time></trkpt><trkpt lat="39.71719118848705" lon="9.584196684429608"><ele>124.0</ele><time>2026-03-28T08:57:46Z</time></trkpt><trkpt lat="39.717298057747776" lon="9.584092255717234"><ele>124.0</ele><time>2026-03-28T08:57:47Z</time></trkpt><trkpt lat="39.71741025032856" lon="9.58397744922297"><ele>124.0</ele><time>2026-03-28T08:57:48Z</time></trkpt><trkpt lat="39.7175282106718" lon="9.583857331878225"><ele>124.0</ele><time>2026-03-28T08:57:49Z</time></trkpt><trkpt lat="39.71765247235316" lon="9.583734808270641"><ele>124.0</ele><time>2026-03-28T08:57:50Z</time></trkpt><trkpt lat="39.71777441522084" lon="9.583616507058265"><ele>124.0</ele><time>2026-03-28T08:57:51Z</time></trkpt><trkpt lat="39.7179016827853" lon="9.583490069225032"><ele>124.0</ele><time>2026-03-28T08:57:52Z</time></trkpt><trkpt lat="39.718030470768184" lon="9.58336347719397"><ele>124.0</ele><time>2026-03-28T08:57:53Z</time></trkpt><trkpt lat="39.71816465369786" lon="9.583236392108502"><ele>124.0</ele><time>2026-03-28T08:57:54Z</time></trkpt><trkpt lat="39.71830345836704" lon="9.583104712935695"><ele>124.0</ele><time>2026-03-28T08:57:55Z</time></trkpt><trkpt lat="39.71844239522927" lon="9.582975461585058"><ele>124.0</ele><time>2026-03-28T08:57:56Z</time></trkpt><trkpt lat="39.71857988377053" lon="9.582848704188367"><ele>124.66666666666667</ele><time>2026-03-28T08:57:57Z</time></trkpt><trkpt lat="39.718723551456634" lon="9.582722680209708"><ele>125.33333333333334</ele><time>2026-03-28T08:57:58Z</time></trkpt><trkpt lat="39.7188708198623" lon="9.58259984765925"><ele>126.0</ele><time>2026-03-28T08:57:59Z</time></trkpt><trkpt lat="39.71902029040053" lon="9.582486719895051"><ele>126.0</ele><time>2026-03-28T08:58:00Z</time></trkpt><trkpt lat="39.71917629788845" lon="9.582378888373443"><ele>126.0</ele><time>2026-03-28T08:58:01Z</time></trkpt><trkpt lat="39.71933698219882" lon="9.58227863062562"><ele>126.0</ele><time>2026-03-28T08:58:02Z</time></trkpt><trkpt lat="39.719499347015784" lon="9.582187316684772"><ele>126.0</ele><time>2026-03-28T08:58:03Z</time></trkpt><trkpt lat="39.71966715097965" lon="9.582101583662913"><ele>126.0</ele><time>2026-03-28T08:58:04Z</time></trkpt><trkpt lat="39.719838437760764" lon="9.582024138630816"><ele>126.0</ele><time>2026-03-28T08:58:05Z</time></trkpt><trkpt lat="39.72001121424146" lon="9.581956500031746"><ele>126.0</ele><time>2026-03-28T08:58:06Z</time></trkpt><trkpt lat="39.72019126396233" lon="9.581895671770985"><ele>126.0</ele><time>2026-03-28T08:58:07Z</time></trkpt><trkpt lat="39.72037202718652" lon="9.581845278730153"><ele>126.0</ele><time>2026-03-28T08:58:08Z</time></trkpt><trkpt lat="39.720559635417786" lon="9.581800865357424"><ele>126.0</ele><time>2026-03-28T08:58:09Z</time></trkpt><trkpt lat="39.72074899042915" lon="9.581766788984723"><ele>126.0</ele><time>2026-03-28T08:58:10Z</time></trkpt><trkpt lat="39.72093998794706" lon="9.581743275697328"><ele>126.0</ele><time>2026-03-28T08:58:11Z</time></trkpt><trkpt lat="39.72113132783045" lon="9.581725972637964"><ele>126.66666666666666</ele><time>2026-03-28T08:58:12Z</time></trkpt><trkpt lat="39.72132581890987" lon="9.581709050560033"><ele>127.33333333333333</ele><time>2026-03-28T08:58:13Z</time></trkpt><trkpt lat="39.72152254936368" lon="9.581693037926373"><ele>128.0</ele><time>2026-03-28T08:58:14Z</time></trkpt><trkpt lat="39.721720513957116" lon="9.581679637737858"><ele>128.0</ele><time>2026-03-28T08:58:15Z</time></trkpt><trkpt lat="39.72192071547544" lon="9.581667250942344"><ele>128.0</ele><time>2026-03-28T08:58:16Z</time></trkpt><trkpt lat="39.72211535975024" lon="9.581645916150539"><ele>128.0</ele><time>2026-03-28T08:58:17Z</time></trkpt><trkpt lat="39.72231804924395" lon="9.58161788896852"><ele>128.0</ele><time>2026-03-28T08:58:18Z</time></trkpt><trkpt lat="39.72252387294041" lon="9.581580928217164"><ele>128.0</ele><time>2026-03-28T08:58:19Z</time></trkpt><trkpt lat="39.72273075796451" lon="9.581538047502345"><ele>128.0</ele><time>2026-03-28T08:58:20Z</time></trkpt><trkpt lat="39.722938422732234" lon="9.581487771555452"><ele>128.0</ele><time>2026-03-28T08:58:21Z</time></trkpt><trkpt lat="39.723151738816725" lon="9.581427769316221"><ele>128.0</ele><time>2026-03-28T08:58:22Z</time></trkpt><trkpt lat="39.72336104352096" lon="9.581356624448597"><ele>128.0</ele><time>2026-03-28T08:58:23Z</time></trkpt><trkpt lat="39.72356794739519" lon="9.581275862975671"><ele>128.33333333333331</ele><time>2026-03-28T08:58:24Z</time></trkpt><trkpt lat="39.72377596594219" lon="9.581187032582138"><ele>128.66666666666666</ele><time>2026-03-28T08:58:25Z</time></trkpt><trkpt lat="39.7239808941198" lon="9.581096045270076"><ele>129.0</ele><time>2026-03-28T08:58:26Z</time></trkpt><trkpt lat="39.724182887279184" lon="9.581003157043176"><ele>129.33333333333334</ele><time>2026-03-28T08:58:27Z</time></trkpt><trkpt lat="39.72438560057814" lon="9.580906939779656"><ele>129.66666666666669</ele><time>2026-03-28T08:58:28Z</time></trkpt><trkpt lat="39.72458435227931" lon="9.580809749173431"><ele>130.0</ele><time>2026-03-28T08:58:29Z</time></trkpt><trkpt lat="39.72478594523858" lon="9.580711743189793"><ele>130.66666666666669</ele><time>2026-03-28T08:58:30Z</time></trkpt><trkpt lat="39.724990473452756" lon="9.580614067354732"><ele>131.33333333333334</ele><time>2026-03-28T08:58:31Z</time></trkpt><trkpt lat="39.725191410049" lon="9.580521690998884"><ele>132.0</ele><time>2026-03-28T08:58:32Z</time></trkpt><trkpt lat="39.7253832820578" lon="9.58043446939088"><ele>132.66666666666666</ele><time>2026-03-28T08:58:33Z</time></trkpt><trkpt lat="39.72557079638263" lon="9.580350567207024"><ele>133.33333333333331</ele><time>2026-03-28T08:58:34Z</time></trkpt><trkpt lat="39.72575287837701" lon="9.580268995647293"><ele>134.0</ele><time>2026-03-28T08:58:35Z</time></trkpt><trkpt lat="39.72598235866506" lon="9.580161939539034"><ele>134.33333333333331</ele><time>2026-03-28T08:58:36Z</time></trkpt><trkpt lat="39.726183544406425" lon="9.58007541756832"><ele>134.66666666666666</ele><time>2026-03-28T08:58:37Z</time></trkpt><trkpt lat="39.72638343702256" lon="9.579992837442013"><ele>135.0</ele><time>2026-03-28T08:58:38Z</time></trkpt><trkpt lat="39.72658287934314" lon="9.579917054607076"><ele>135.0</ele><time>2026-03-28T08:58:39Z</time></trkpt><trkpt lat="39.726784682304235" lon="9.579847332667395"><ele>135.0</ele><time>2026-03-28T08:58:40Z</time></trkpt><trkpt lat="39.72698661577973" lon="9.579780961724012"><ele>135.0</ele><time>2026-03-28T08:58:41Z</time></trkpt><trkpt lat="39.7271874920872" lon="9.579713247898601"><ele>135.0</ele><time>2026-03-28T08:58:42Z</time></trkpt><trkpt lat="39.7273895917114" lon="9.579646543755693"><ele>135.0</ele><time>2026-03-28T08:58:43Z</time></trkpt><trkpt lat="39.72759184657246" lon="9.579581354417527"><ele>135.0</ele><time>2026-03-28T08:58:44Z</time></trkpt><trkpt lat="39.72779525207395" lon="9.579523035404332"><ele>136.66666666666666</ele><time>2026-03-28T08:58:45Z</time></trkpt><trkpt lat="39.727999132016" lon="9.57946375411612"><ele>138.33333333333331</ele><time>2026-03-28T08:58:46Z</time></trkpt><trkpt lat="39.728203048494734" lon="9.579403749486607"><ele>140.0</ele><time>2026-03-28T08:58:47Z</time></trkpt><trkpt lat="39.72840836778293" lon="9.579344862058484"><ele>139.0</ele><time>2026-03-28T08:58:48Z</time></trkpt><trkpt lat="39.72861335425312" lon="9.579281792958229"><ele>138.0</ele><time>2026-03-28T08:58:49Z</time></trkpt><trkpt lat="39.728818721540506" lon="9.579220061242372"><ele>137.0</ele><time>2026-03-28T08:58:50Z</time></trkpt><trkpt lat="39.72902634170437" lon="9.579162934709805"><ele>137.0</ele><time>2026-03-28T08:58:51Z</time></trkpt><trkpt lat="39.72923339157791" lon="9.5791085833355"><ele>137.0</ele><time>2026-03-28T08:58:52Z</time></trkpt><trkpt lat="39.72944157332202" lon="9.579050520044433"><ele>137.0</ele><time>2026-03-28T08:58:53Z</time></trkpt><trkpt lat="39.729652697063415" lon="9.578989661632265"><ele>136.0</ele><time>2026-03-28T08:58:54Z</time></trkpt><trkpt lat="39.7298630546521" lon="9.578926762266228"><ele>135.0</ele><time>2026-03-28T08:58:55Z</time></trkpt><trkpt lat="39.7300742506712" lon="9.578868921167372"><ele>134.0</ele><time>2026-03-28T08:58:56Z</time></trkpt><trkpt lat="39.7302878102279" lon="9.578811654182244"><ele>134.0</ele><time>2026-03-28T08:58:57Z</time></trkpt><trkpt lat="39.73050264660593" lon="9.578751082750678"><ele>134.0</ele><time>2026-03-28T08:58:58Z</time></trkpt><trkpt lat="39.73072039990346" lon="9.578689453416755"><ele>134.0</ele><time>2026-03-28T08:58:59Z</time></trkpt><trkpt lat="39.73093727369826" lon="9.57862600092143"><ele>135.66666666666666</ele><time>2026-03-28T08:59:00Z</time></trkpt><trkpt lat="39.73115536550737" lon="9.578563116792644"><ele>137.33333333333334</ele><time>2026-03-28T08:59:01Z</time></trkpt><trkpt lat="39.73137355883398" lon="9.57850182239823"><ele>139.0</ele><time>2026-03-28T08:59:02Z</time></trkpt><trkpt lat="39.73159145847692" lon="9.578441127333052"><ele>139.0</ele><time>2026-03-28T08:59:03Z</time></trkpt><trkpt lat="39.731812488529556" lon="9.578382043963765"><ele>139.0</ele><time>2026-03-28T08:59:04Z</time></trkpt><trkpt lat="39.73203176440335" lon="9.578324538255659"><ele>139.0</ele><time>2026-03-28T08:59:05Z</time></trkpt><trkpt lat="39.73225226962476" lon="9.578270879378938"><ele>139.0</ele><time>2026-03-28T08:59:06Z</time></trkpt><trkpt lat="39.73247224835531" lon="9.578219745991547"><ele>139.0</ele><time>2026-03-28T08:59:07Z</time></trkpt><trkpt lat="39.732692365636304" lon="9.578170008945854"><ele>139.0</ele><time>2026-03-28T08:59:08Z</time></trkpt><trkpt lat="39.732913765904264" lon="9.57811974130474"><ele>139.0</ele><time>2026-03-28T08:59:09Z</time></trkpt><trkpt lat="39.733133908492775" lon="9.57807414739102"><ele>139.0</ele><time>2026-03-28T08:59:10Z</time></trkpt><trkpt lat="39.733352508276944" lon="9.57803455342812"><ele>139.0</ele><time>2026-03-28T08:59:11Z</time></trkpt><trkpt lat="39.73357301860547" lon="9.577999440595848"><ele>139.0</ele><time>2026-03-28T08:59:12Z</time></trkpt><trkpt lat="39.73379128657311" lon="9.577970682022492"><ele>139.0</ele><time>2026-03-28T08:59:13Z</time></trkpt><trkpt lat="39.734010000655026" lon="9.577946695534873"><ele>139.0</ele><time>2026-03-28T08:59:14Z</time></trkpt><trkpt lat="39.73423024829595" lon="9.577926989140076"><ele>139.66666666666669</ele><time>2026-03-28T08:59:15Z</time></trkpt><trkpt lat="39.73444913325554" lon="9.577909501553957"><ele>140.33333333333334</ele><time>2026-03-28T08:59:16Z</time></trkpt><trkpt lat="39.734666426002626" lon="9.577893242862466"><ele>141.0</ele><time>2026-03-28T08:59:17Z</time></trkpt><trkpt lat="39.73488884189534" lon="9.577876657986293"><ele>141.0</ele><time>2026-03-28T08:59:18Z</time></trkpt><trkpt lat="39.73511054358326" lon="9.577862055592531"><ele>141.0</ele><time>2026-03-28T08:59:19Z</time></trkpt><trkpt lat="39.73533019614478" lon="9.577853134438715"><ele>141.0</ele><time>2026-03-28T08:59:20Z</time></trkpt><trkpt lat="39.735550196739574" lon="9.577851880242461"><ele>141.0</ele><time>2026-03-28T08:59:21Z</time></trkpt><trkpt lat="39.735768909514" lon="9.577855497561888"><ele>141.0</ele><time>2026-03-28T08:59:22Z</time></trkpt><trkpt lat="39.73598812771295" lon="9.577861827227885"><ele>141.0</ele><time>2026-03-28T08:59:23Z</time></trkpt><trkpt lat="39.73620971761826" lon="9.577869167909057"><ele>140.66666666666666</ele><time>2026-03-28T08:59:24Z</time></trkpt><trkpt lat="39.73642995906009" lon="9.577876985680142"><ele>140.33333333333331</ele><time>2026-03-28T08:59:25Z</time></trkpt><trkpt lat="39.736651737730995" lon="9.577888617634878"><ele>140.0</ele><time>2026-03-28T08:59:26Z</time></trkpt><trkpt lat="39.736874138188554" lon="9.577901990904547"><ele>141.0</ele><time>2026-03-28T08:59:27Z</time></trkpt><trkpt lat="39.73709571973732" lon="9.577918182648425"><ele>142.0</ele><time>2026-03-28T08:59:28Z</time></trkpt><trkpt lat="39.737320174861345" lon="9.577933705663957"><ele>143.0</ele><time>2026-03-28T08:59:29Z</time></trkpt><trkpt lat="39.737541444781" lon="9.577946165828338"><ele>143.66666666666666</ele><time>2026-03-28T08:59:30Z</time></trkpt><trkpt lat="39.73776529132361" lon="9.577957999265328"><ele>144.33333333333334</ele><time>2026-03-28T08:59:31Z</time></trkpt><trkpt lat="39.73798809343489" lon="9.577971341625458"><ele>145.0</ele><time>2026-03-28T08:59:32Z</time></trkpt><trkpt lat="39.7382105328962" lon="9.57798669630709"><ele>145.0</ele><time>2026-03-28T08:59:33Z</time></trkpt><trkpt lat="39.738434302435195" lon="9.578005392167922"><ele>145.0</ele><time>2026-03-28T08:59:34Z</time></trkpt><trkpt lat="39.73865435771893" lon="9.578029408246838"><ele>145.0</ele><time>2026-03-28T08:59:35Z</time></trkpt><trkpt lat="39.73887594893722" lon="9.57805923511097"><ele>144.66666666666669</ele><time>2026-03-28T08:59:36Z</time></trkpt><trkpt lat="39.739095404124" lon="9.57809697649572"><ele>144.33333333333334</ele><time>2026-03-28T08:59:37Z</time></trkpt><trkpt lat="39.73931692748105" lon="9.578139870531155"><ele>144.0</ele><time>2026-03-28T08:59:38Z</time></trkpt><trkpt lat="39.73953720885679" lon="9.578190796179848"><ele>144.66666666666666</ele><time>2026-03-28T08:59:39Z</time></trkpt><trkpt lat="39.73975804786139" lon="9.578247155616191"><ele>145.33333333333331</ele><time>2026-03-28T08:59:40Z</time></trkpt><trkpt lat="39.739976407962764" lon="9.578307557299233"><ele>146.0</ele><time>2026-03-28T08:59:41Z</time></trkpt><trkpt lat="39.740194642791174" lon="9.578367678627517"><ele>146.33333333333331</ele><time>2026-03-28T08:59:42Z</time></trkpt><trkpt lat="39.740409610395844" lon="9.578430093705142"><ele>146.66666666666666</ele><time>2026-03-28T08:59:43Z</time></trkpt><trkpt lat="39.740618466505225" lon="9.578494163417057"><ele>147.0</ele><time>2026-03-28T08:59:44Z</time></trkpt><trkpt lat="39.740822798311484" lon="9.578565151782245"><ele>147.0</ele><time>2026-03-28T08:59:45Z</time></trkpt><trkpt lat="39.7410134735156" lon="9.578630959994342"><ele>147.0</ele><time>2026-03-28T08:59:46Z</time></trkpt><trkpt lat="39.74119277830734" lon="9.578692787901149"><ele>147.0</ele><time>2026-03-28T08:59:47Z</time></trkpt><trkpt lat="39.74136146465715" lon="9.578742721052626"><ele>147.66666666666666</ele><time>2026-03-28T08:59:48Z</time></trkpt><trkpt lat="39.74151887333141" lon="9.578792442997779"><ele>148.33333333333331</ele><time>2026-03-28T08:59:49Z</time></trkpt><trkpt lat="39.741662837340606" lon="9.578837053335825"><ele>149.0</ele><time>2026-03-28T08:59:50Z</time></trkpt><trkpt lat="39.74179813402249" lon="9.578885902900101"><ele>149.5</ele><time>2026-03-28T08:59:51Z</time></trkpt><trkpt lat="39.741922050968114" lon="9.578945932580682"><ele>150.0</ele><time>2026-03-28T08:59:52Z</time></trkpt><trkpt lat="39.74203108399703" lon="9.579026742875909"><ele>150.5</ele><time>2026-03-28T08:59:53Z</time></trkpt><trkpt lat="39.74210704882395" lon="9.579147049611443"><ele>151.0</ele><time>2026-03-28T08:59:54Z</time></trkpt><trkpt lat="39.74215165719478" lon="9.57929758591178"><ele>151.0</ele><time>2026-03-28T08:59:55Z</time></trkpt><trkpt lat="39.742187819303076" lon="9.579470787852253"><ele>151.0</ele><time>2026-03-28T08:59:56Z</time></trkpt><trkpt lat="39.74223158911722" lon="9.579650467297991"><ele>151.0</ele><time>2026-03-28T08:59:57Z</time></trkpt><trkpt lat="39.742289195265364" lon="9.579823393053546"><ele>151.0</ele><time>2026-03-28T08:59:58Z</time></trkpt><trkpt lat="39.742358325649484" lon="9.579991686297772"><ele>153.25</ele><time>2026-03-28T08:59:59Z</time></trkpt><trkpt lat="39.742450389763505" lon="9.580127464319341"><ele>155.5</ele><time>2026-03-28T09:00:00Z</time></trkpt><trkpt lat="39.74256381269245" lon="9.58020874479599"><ele>157.75</ele><time>2026-03-28T09:00:01Z</time></trkpt><trkpt lat="39.74268836514428" lon="9.580224946242264"><ele>160.0</ele><time>2026-03-28T09:00:02Z</time></trkpt><trkpt lat="39.742807595653844" lon="9.580183103864835"><ele>160.0</ele><time>2026-03-28T09:00:03Z</time></trkpt><trkpt lat="39.74291089048378" lon="9.580082569268576"><ele>160.0</ele><time>2026-03-28T09:00:04Z</time></trkpt><trkpt lat="39.74298297269469" lon="9.579941442978892"><ele>160.0</ele><time>2026-03-28T09:00:05Z</time></trkpt><trkpt lat="39.74301196545449" lon="9.579765203312075"><ele>160.0</ele><time>2026-03-28T09:00:06Z</time></trkpt><trkpt lat="39.74301513117664" lon="9.579576100298473"><ele>157.66666666666669</ele><time>2026-03-28T09:00:07Z</time></trkpt><trkpt lat="39.74301045294994" lon="9.579383692343606"><ele>155.33333333333334</ele><time>2026-03-28T09:00:08Z</time></trkpt><trkpt lat="39.743003771236886" lon="9.57918161866216"><ele>153.0</ele><time>2026-03-28T09:00:09Z</time></trkpt><trkpt lat="39.74298068940432" lon="9.578971484632351"><ele>153.0</ele><time>2026-03-28T09:00:10Z</time></trkpt><trkpt lat="39.7429358950733" lon="9.578754125994083"><ele>153.0</ele><time>2026-03-28T09:00:11Z</time></trkpt><trkpt lat="39.74287787629602" lon="9.578536084643169"><ele>153.0</ele><time>2026-03-28T09:00:12Z</time></trkpt><trkpt lat="39.742820139375546" lon="9.57831312774828"><ele>151.66666666666666</ele><time>2026-03-28T09:00:13Z</time></trkpt><trkpt lat="39.74277529499876" lon="9.578087940221833"><ele>150.33333333333331</ele><time>2026-03-28T09:00:14Z</time></trkpt><trkpt lat="39.742732351149996" lon="9.577863467453179"><ele>149.0</ele><time>2026-03-28T09:00:15Z</time></trkpt><trkpt lat="39.74268927172215" lon="9.577644648168937"><ele>149.0</ele><time>2026-03-28T09:00:16Z</time></trkpt><trkpt lat="39.74264421369015" lon="9.577429787256316"><ele>149.0</ele><time>2026-03-28T09:00:17Z</time></trkpt><trkpt lat="39.742597107235625" lon="9.577222695082137"><ele>149.0</ele><time>2026-03-28T09:00:18Z</time></trkpt><trkpt lat="39.74255183699555" lon="9.577021069820654"><ele>149.25</ele><time>2026-03-28T09:00:19Z</time></trkpt><trkpt lat="39.742526444577" lon="9.576819684756394"><ele>149.5</ele><time>2026-03-28T09:00:20Z</time></trkpt><trkpt lat="39.742473510203716" lon="9.576639675586062"><ele>149.75</ele><time>2026-03-28T09:00:21Z</time></trkpt><trkpt lat="39.74244010186439" lon="9.576457874027833"><ele>150.0</ele><time>2026-03-28T09:00:22Z</time></trkpt><trkpt lat="39.742424272822326" lon="9.576280113634258"><ele>150.25</ele><time>2026-03-28T09:00:23Z</time></trkpt><trkpt lat="39.74244565512467" lon="9.576114279420228"><ele>150.5</ele><time>2026-03-28T09:00:24Z</time></trkpt><trkpt lat="39.74248313397794" lon="9.575983388153915"><ele>150.75</ele><time>2026-03-28T09:00:25Z</time></trkpt><trkpt lat="39.74259371995014" lon="9.575901805350707"><ele>151.0</ele><time>2026-03-28T09:00:26Z</time></trkpt><trkpt lat="39.7426936489815" lon="9.5758574045589"><ele>151.5</ele><time>2026-03-28T09:00:27Z</time></trkpt><trkpt lat="39.742795861927384" lon="9.575859798334765"><ele>152.0</ele><time>2026-03-28T09:00:28Z</time></trkpt><trkpt lat="39.74290317183663" lon="9.575903008035338"><ele>152.5</ele><time>2026-03-28T09:00:29Z</time></trkpt><trkpt lat="39.74301784899219" lon="9.57597494202347"><ele>153.0</ele><time>2026-03-28T09:00:30Z</time></trkpt><trkpt lat="39.74314346899394" lon="9.576005792092596"><ele>153.0</ele><time>2026-03-28T09:00:31Z</time></trkpt><trkpt lat="39.743269067022894" lon="9.576102876007436"><ele>153.0</ele><time>2026-03-28T09:00:32Z</time></trkpt><trkpt lat="39.74340866171636" lon="9.576160322019003"><ele>153.0</ele><time>2026-03-28T09:00:33Z</time></trkpt><trkpt lat="39.74354941021015" lon="9.576214785189801"><ele>153.0</ele><time>2026-03-28T09:00:34Z</time></trkpt><trkpt lat="39.743693708300064" lon="9.576255663531224"><ele>153.0</ele><time>2026-03-28T09:00:35Z</time></trkpt><trkpt lat="39.74384204404084" lon="9.576277401722704"><ele>153.0</ele><time>2026-03-28T09:00:36Z</time></trkpt><trkpt lat="39.74399278143745" lon="9.576288535821753"><ele>153.0</ele><time>2026-03-28T09:00:37Z</time></trkpt><trkpt lat="39.74414446640564" lon="9.576297083996367"><ele>153.0</ele><time>2026-03-28T09:00:38Z</time></trkpt><trkpt lat="39.744293758745386" lon="9.576308733899216"><ele>153.0</ele><time>2026-03-28T09:00:39Z</time></trkpt><trkpt lat="39.74444361469702" lon="9.576324957183378"><ele>153.0</ele><time>2026-03-28T09:00:40Z</time></trkpt><trkpt lat="39.74459283530347" lon="9.576346436015234"><ele>153.0</ele><time>2026-03-28T09:00:41Z</time></trkpt><trkpt lat="39.74474196845863" lon="9.576359547908035"><ele>153.0</ele><time>2026-03-28T09:00:42Z</time></trkpt><trkpt lat="39.74489451876749" lon="9.57634686660038"><ele>153.0</ele><time>2026-03-28T09:00:43Z</time></trkpt><trkpt lat="39.745046233040206" lon="9.576316453222264"><ele>153.0</ele><time>2026-03-28T09:00:44Z</time></trkpt><trkpt lat="39.74519566995407" lon="9.576271136961322"><ele>153.0</ele><time>2026-03-28T09:00:45Z</time></trkpt><trkpt lat="39.74534462578907" lon="9.576212310008252"><ele>153.0</ele><time>2026-03-28T09:00:46Z</time></trkpt><trkpt lat="39.74549205572008" lon="9.576140596570873"><ele>156.66666666666666</ele><time>2026-03-28T09:00:47Z</time></trkpt><trkpt lat="39.7456425656597" lon="9.576068611534934"><ele>160.33333333333331</ele><time>2026-03-28T09:00:48Z</time></trkpt><trkpt lat="39.74579758396823" lon="9.575997438689525"><ele>164.0</ele><time>2026-03-28T09:00:49Z</time></trkpt><trkpt lat="39.74595223606506" lon="9.575926598083115"><ele>161.33333333333331</ele><time>2026-03-28T09:00:50Z</time></trkpt><trkpt lat="39.746110890411614" lon="9.575856912146206"><ele>158.66666666666666</ele><time>2026-03-28T09:00:51Z</time></trkpt><trkpt lat="39.74627202151615" lon="9.575788854392961"><ele>156.0</ele><time>2026-03-28T09:00:52Z</time></trkpt><trkpt lat="39.7464338543266" lon="9.575719496388697"><ele>156.0</ele><time>2026-03-28T09:00:53Z</time></trkpt><trkpt lat="39.74659687056968" lon="9.575648421846656"><ele>156.0</ele><time>2026-03-28T09:00:54Z</time></trkpt><trkpt lat="39.74676253225924" lon="9.575579188801083"><ele>156.0</ele><time>2026-03-28T09:00:55Z</time></trkpt><trkpt lat="39.74692854827869" lon="9.575510033126974"><ele>155.66666666666666</ele><time>2026-03-28T09:00:56Z</time></trkpt><trkpt lat="39.747095871698576" lon="9.57544094548602"><ele>155.33333333333331</ele><time>2026-03-28T09:00:57Z</time></trkpt><trkpt lat="39.74726330798322" lon="9.575371691621605"><ele>155.0</ele><time>2026-03-28T09:00:58Z</time></trkpt><trkpt lat="39.74743473162412" lon="9.57531487062916"><ele>156.0</ele><time>2026-03-28T09:00:59Z</time></trkpt><trkpt lat="39.74761292983622" lon="9.575282977851822"><ele>157.0</ele><time>2026-03-28T09:01:00Z</time></trkpt><trkpt lat="39.74779609489332" lon="9.575266705104637"><ele>158.0</ele><time>2026-03-28T09:01:01Z</time></trkpt><trkpt lat="39.74797540750834" lon="9.575232665624918"><ele>158.66666666666666</ele><time>2026-03-28T09:01:02Z</time></trkpt><trkpt lat="39.74815269995377" lon="9.575166693135067"><ele>159.33333333333334</ele><time>2026-03-28T09:01:03Z</time></trkpt><trkpt lat="39.74833060777588" lon="9.57509375256974"><ele>160.0</ele><time>2026-03-28T09:01:04Z</time></trkpt><trkpt lat="39.74851073160063" lon="9.575034902800718"><ele>160.66666666666669</ele><time>2026-03-28T09:01:05Z</time></trkpt><trkpt lat="39.748694785565256" lon="9.575002232904414"><ele>161.33333333333334</ele><time>2026-03-28T09:01:06Z</time></trkpt><trkpt lat="39.748881520450325" lon="9.574984113227378"><ele>162.0</ele><time>2026-03-28T09:01:07Z</time></trkpt><trkpt lat="39.74906916933154" lon="9.574965517519992"><ele>162.0</ele><time>2026-03-28T09:01:08Z</time></trkpt><trkpt lat="39.749255685415406" lon="9.574939314130145"><ele>162.0</ele><time>2026-03-28T09:01:09Z</time></trkpt><trkpt lat="39.74944596432166" lon="9.574909538101354"><ele>162.0</ele><time>2026-03-28T09:01:10Z</time></trkpt><trkpt lat="39.74962942822707" lon="9.574865989374501"><ele>161.66666666666666</ele><time>2026-03-28T09:01:11Z</time></trkpt><trkpt lat="39.74980917748237" lon="9.574811399679467"><ele>161.33333333333331</ele><time>2026-03-28T09:01:12Z</time></trkpt><trkpt lat="39.749992895173186" lon="9.574727273755206"><ele>161.0</ele><time>2026-03-28T09:01:13Z</time></trkpt><trkpt lat="39.75017012188992" lon="9.574618440310587"><ele>161.66666666666666</ele><time>2026-03-28T09:01:14Z</time></trkpt><trkpt lat="39.75034885015954" lon="9.57450735199732"><ele>162.33333333333334</ele><time>2026-03-28T09:01:15Z</time></trkpt><trkpt lat="39.75052488687262" lon="9.574403568184334"><ele>163.0</ele><time>2026-03-28T09:01:16Z</time></trkpt><trkpt lat="39.750702694756995" lon="9.5743034256028"><ele>163.0</ele><time>2026-03-28T09:01:17Z</time></trkpt><trkpt lat="39.750883378440705" lon="9.574203851857359"><ele>163.0</ele><time>2026-03-28T09:01:18Z</time></trkpt><trkpt lat="39.7510646829086" lon="9.574101516933206"><ele>163.0</ele><time>2026-03-28T09:01:19Z</time></trkpt><trkpt lat="39.75124436921879" lon="9.573990886469979"><ele>163.33333333333334</ele><time>2026-03-28T09:01:20Z</time></trkpt><trkpt lat="39.751418300791094" lon="9.573886037555909"><ele>163.66666666666666</ele><time>2026-03-28T09:01:21Z</time></trkpt><trkpt lat="39.75159252097275" lon="9.573784902032674"><ele>164.0</ele><time>2026-03-28T09:01:22Z</time></trkpt><trkpt lat="39.75176994133097" lon="9.573689155858915"><ele>164.0</ele><time>2026-03-28T09:01:23Z</time></trkpt><trkpt lat="39.75194633100629" lon="9.573592124255292"><ele>164.0</ele><time>2026-03-28T09:01:24Z</time></trkpt><trkpt lat="39.75212464383123" lon="9.573491503609452"><ele>164.0</ele><time>2026-03-28T09:01:25Z</time></trkpt><trkpt lat="39.75230273135225" lon="9.57339130937877"><ele>164.0</ele><time>2026-03-28T09:01:26Z</time></trkpt><trkpt lat="39.75248060445288" lon="9.573293001963567"><ele>164.0</ele><time>2026-03-28T09:01:27Z</time></trkpt><trkpt lat="39.75266585799092" lon="9.573193564756542"><ele>164.0</ele><time>2026-03-28T09:01:28Z</time></trkpt><trkpt lat="39.75284092941096" lon="9.57309544717776"><ele>163.66666666666666</ele><time>2026-03-28T09:01:29Z</time></trkpt><trkpt lat="39.75301643889602" lon="9.572995317150957"><ele>163.33333333333334</ele><time>2026-03-28T09:01:30Z</time></trkpt><trkpt lat="39.75319166234489" lon="9.572892562505915"><ele>163.0</ele><time>2026-03-28T09:01:31Z</time></trkpt><trkpt lat="39.75336626698608" lon="9.572794364048042"><ele>164.33333333333334</ele><time>2026-03-28T09:01:32Z</time></trkpt><trkpt lat="39.753538777693706" lon="9.5726971264348"><ele>165.66666666666666</ele><time>2026-03-28T09:01:33Z</time></trkpt><trkpt lat="39.75370963344249" lon="9.572597651304887"><ele>167.0</ele><time>2026-03-28T09:01:34Z</time></trkpt><trkpt lat="39.75388061807036" lon="9.572488808964744"><ele>167.0</ele><time>2026-03-28T09:01:35Z</time></trkpt><trkpt lat="39.75404391508411" lon="9.572369786864463"><ele>167.0</ele><time>2026-03-28T09:01:36Z</time></trkpt><trkpt lat="39.75420323822555" lon="9.572235939971513"><ele>167.0</ele><time>2026-03-28T09:01:37Z</time></trkpt><trkpt lat="39.75436603860874" lon="9.572109530185823"><ele>168.66666666666666</ele><time>2026-03-28T09:01:38Z</time></trkpt><trkpt lat="39.7545378620012" lon="9.57199631628482"><ele>170.33333333333334</ele><time>2026-03-28T09:01:39Z</time></trkpt><trkpt lat="39.75471168305622" lon="9.571887605287614"><ele>172.0</ele><time>2026-03-28T09:01:40Z</time></trkpt><trkpt lat="39.754885253289785" lon="9.571772859219086"><ele>172.0</ele><time>2026-03-28T09:01:41Z</time></trkpt><trkpt lat="39.75505917218839" lon="9.571657694879857"><ele>172.0</ele><time>2026-03-28T09:01:42Z</time></trkpt><trkpt lat="39.755236139194984" lon="9.571545033868691"><ele>172.0</ele><time>2026-03-28T09:01:43Z</time></trkpt><trkpt lat="39.75541473547785" lon="9.571433785757787"><ele>171.0</ele><time>2026-03-28T09:01:44Z</time></trkpt><trkpt lat="39.75559712485466" lon="9.571323958968032"><ele>170.0</ele><time>2026-03-28T09:01:45Z</time></trkpt><trkpt lat="39.755782685538875" lon="9.571222687963314"><ele>169.0</ele><time>2026-03-28T09:01:46Z</time></trkpt><trkpt lat="39.75597007758964" lon="9.571127117827034"><ele>169.66666666666669</ele><time>2026-03-28T09:01:47Z</time></trkpt><trkpt lat="39.756160021041474" lon="9.57102958604698"><ele>170.33333333333334</ele><time>2026-03-28T09:01:48Z</time></trkpt><trkpt lat="39.756347814374976" lon="9.570918810585084"><ele>171.0</ele><time>2026-03-28T09:01:49Z</time></trkpt><trkpt lat="39.75652902131142" lon="9.570789237259216"><ele>171.0</ele><time>2026-03-28T09:01:50Z</time></trkpt><trkpt lat="39.756706086233166" lon="9.570645498198946"><ele>171.0</ele><time>2026-03-28T09:01:51Z</time></trkpt><trkpt lat="39.75688148725154" lon="9.570498868623789"><ele>171.0</ele><time>2026-03-28T09:01:52Z</time></trkpt><trkpt lat="39.75706154695065" lon="9.570361139042578"><ele>173.0</ele><time>2026-03-28T09:01:53Z</time></trkpt><trkpt lat="39.757247770427895" lon="9.570242377293585"><ele>175.0</ele><time>2026-03-28T09:01:54Z</time></trkpt><trkpt lat="39.75743831861039" lon="9.570141593918803"><ele>177.0</ele><time>2026-03-28T09:01:55Z</time></trkpt><trkpt lat="39.75763245872256" lon="9.570048301858378"><ele>175.66666666666666</ele><time>2026-03-28T09:01:56Z</time></trkpt><trkpt lat="39.75782849895795" lon="9.569964154759598"><ele>174.33333333333331</ele><time>2026-03-28T09:01:57Z</time></trkpt><trkpt lat="39.75802112363873" lon="9.569878148376093"><ele>173.0</ele><time>2026-03-28T09:01:58Z</time></trkpt><trkpt lat="39.75820141378032" lon="9.569764838091084"><ele>173.0</ele><time>2026-03-28T09:01:59Z</time></trkpt><trkpt lat="39.758375033429786" lon="9.56962499354388"><ele>173.0</ele><time>2026-03-28T09:02:00Z</time></trkpt><trkpt lat="39.758547334763975" lon="9.569484019357358"><ele>173.0</ele><time>2026-03-28T09:02:01Z</time></trkpt><trkpt lat="39.75872177142809" lon="9.569357491405164"><ele>174.0</ele><time>2026-03-28T09:02:02Z</time></trkpt><trkpt lat="39.75889874770517" lon="9.569236447008457"><ele>175.0</ele><time>2026-03-28T09:02:03Z</time></trkpt><trkpt lat="39.75907556426271" lon="9.569113765804236"><ele>176.0</ele><time>2026-03-28T09:02:04Z</time></trkpt><trkpt lat="39.759255383098356" lon="9.56900232330179"><ele>175.66666666666666</ele><time>2026-03-28T09:02:05Z</time></trkpt><trkpt lat="39.75944622167799" lon="9.568919611761897"><ele>175.33333333333334</ele><time>2026-03-28T09:02:06Z</time></trkpt><trkpt lat="39.759645493709215" lon="9.568864023896092"><ele>175.0</ele><time>2026-03-28T09:02:07Z</time></trkpt><trkpt lat="39.75984299636468" lon="9.568822246599153"><ele>175.0</ele><time>2026-03-28T09:02:08Z</time></trkpt><trkpt lat="39.760038299595" lon="9.568779625183689"><ele>175.0</ele><time>2026-03-28T09:02:09Z</time></trkpt><trkpt lat="39.760226295520695" lon="9.568718375323586"><ele>175.0</ele><time>2026-03-28T09:02:10Z</time></trkpt><trkpt lat="39.760407494815446" lon="9.568630275230875"><ele>176.66666666666669</ele><time>2026-03-28T09:02:11Z</time></trkpt><trkpt lat="39.760572061663844" lon="9.56850661710054"><ele>178.33333333333334</ele><time>2026-03-28T09:02:12Z</time></trkpt><trkpt lat="39.76070914694109" lon="9.568341263243992"><ele>180.0</ele><time>2026-03-28T09:02:13Z</time></trkpt><trkpt lat="39.76082647514858" lon="9.56814397682783"><ele>180.0</ele><time>2026-03-28T09:02:14Z</time></trkpt><trkpt lat="39.76092877772452" lon="9.567930013829272"><ele>180.0</ele><time>2026-03-28T09:02:15Z</time></trkpt><trkpt lat="39.76102956472752" lon="9.567721156075484"><ele>180.0</ele><time>2026-03-28T09:02:16Z</time></trkpt><trkpt lat="39.76114929825049" lon="9.567532259901725"><ele>179.66666666666666</ele><time>2026-03-28T09:02:17Z</time></trkpt><trkpt lat="39.76129316366371" lon="9.567374818590489"><ele>179.33333333333331</ele><time>2026-03-28T09:02:18Z</time></trkpt><trkpt lat="39.7614583217841" lon="9.567242600196508"><ele>179.0</ele><time>2026-03-28T09:02:19Z</time></trkpt><trkpt lat="39.76163496227048" lon="9.567129620074498"><ele>179.66666666666666</ele><time>2026-03-28T09:02:20Z</time></trkpt><trkpt lat="39.76181309266839" lon="9.567021047817443"><ele>180.33333333333334</ele><time>2026-03-28T09:02:21Z</time></trkpt><trkpt lat="39.761991238213405" lon="9.566908124517353"><ele>181.0</ele><time>2026-03-28T09:02:22Z</time></trkpt><trkpt lat="39.762169625086315" lon="9.566790787743473"><ele>181.0</ele><time>2026-03-28T09:02:23Z</time></trkpt><trkpt lat="39.76234713324867" lon="9.566673466223024"><ele>181.0</ele><time>2026-03-28T09:02:24Z</time></trkpt><trkpt lat="39.762527609265604" lon="9.566556095494994"><ele>181.0</ele><time>2026-03-28T09:02:25Z</time></trkpt><trkpt lat="39.762707167798034" lon="9.566438874492961"><ele>181.33333333333334</ele><time>2026-03-28T09:02:26Z</time></trkpt><trkpt lat="39.76288613468854" lon="9.566320294843134"><ele>181.66666666666666</ele><time>2026-03-28T09:02:27Z</time></trkpt><trkpt lat="39.763062703069686" lon="9.566200065406582"><ele>182.0</ele><time>2026-03-28T09:02:28Z</time></trkpt><trkpt lat="39.763240636796695" lon="9.566072650147406"><ele>182.66666666666666</ele><time>2026-03-28T09:02:29Z</time></trkpt><trkpt lat="39.76340867467639" lon="9.565931459459566"><ele>183.33333333333334</ele><time>2026-03-28T09:02:30Z</time></trkpt><trkpt lat="39.76356063286492" lon="9.56576212811014"><ele>184.0</ele><time>2026-03-28T09:02:31Z</time></trkpt><trkpt lat="39.76369629561528" lon="9.565569163618537"><ele>184.33333333333334</ele><time>2026-03-28T09:02:32Z</time></trkpt><trkpt lat="39.763823890162925" lon="9.565370641315559"><ele>184.66666666666666</ele><time>2026-03-28T09:02:33Z</time></trkpt><trkpt lat="39.76395152868626" lon="9.565179197370131"><ele>185.0</ele><time>2026-03-28T09:02:34Z</time></trkpt><trkpt lat="39.76407559728518" lon="9.56500107984841"><ele>184.66666666666666</ele><time>2026-03-28T09:02:35Z</time></trkpt><trkpt lat="39.764190725745166" lon="9.564838581517787"><ele>184.33333333333334</ele><time>2026-03-28T09:02:36Z</time></trkpt><trkpt lat="39.764298619969594" lon="9.56468571574609"><ele>184.0</ele><time>2026-03-28T09:02:37Z</time></trkpt><trkpt lat="39.764424064108844" lon="9.564573063017253"><ele>186.0</ele><time>2026-03-28T09:02:38Z</time></trkpt><trkpt lat="39.764542559614526" lon="9.564476199132882"><ele>188.0</ele><time>2026-03-28T09:02:39Z</time></trkpt><trkpt lat="39.76467813851608" lon="9.564395562165366"><ele>190.0</ele><time>2026-03-28T09:02:40Z</time></trkpt><trkpt lat="39.76483096526246" lon="9.564314423488286"><ele>190.0</ele><time>2026-03-28T09:02:41Z</time></trkpt><trkpt lat="39.76499194114977" lon="9.56423194973134"><ele>190.0</ele><time>2026-03-28T09:02:42Z</time></trkpt><trkpt lat="39.76515036648832" lon="9.564129872615236"><ele>190.0</ele><time>2026-03-28T09:02:43Z</time></trkpt><trkpt lat="39.76532099152439" lon="9.564057814986592"><ele>189.33333333333334</ele><time>2026-03-28T09:02:44Z</time></trkpt><trkpt lat="39.76548899358605" lon="9.563975466962054"><ele>188.66666666666666</ele><time>2026-03-28T09:02:45Z</time></trkpt><trkpt lat="39.76565777984147" lon="9.563882219578593"><ele>188.0</ele><time>2026-03-28T09:02:46Z</time></trkpt><trkpt lat="39.76582658723056" lon="9.563783514480908"><ele>189.33333333333331</ele><time>2026-03-28T09:02:47Z</time></trkpt><trkpt lat="39.76599475950511" lon="9.563680886522302"><ele>190.66666666666666</ele><time>2026-03-28T09:02:48Z</time></trkpt><trkpt lat="39.766163632802495" lon="9.563567058702363"><ele>192.0</ele><time>2026-03-28T09:02:49Z</time></trkpt><trkpt lat="39.76632819552295" lon="9.563442326107479"><ele>192.0</ele><time>2026-03-28T09:02:50Z</time></trkpt><trkpt lat="39.76649300247489" lon="9.563312017081627"><ele>192.0</ele><time>2026-03-28T09:02:51Z</time></trkpt><trkpt lat="39.76666168564706" lon="9.563183214527356"><ele>192.0</ele><time>2026-03-28T09:02:52Z</time></trkpt><trkpt lat="39.766832493123076" lon="9.563057650184277"><ele>191.33333333333334</ele><time>2026-03-28T09:02:53Z</time></trkpt><trkpt lat="39.76700353105513" lon="9.562928431975875"><ele>190.66666666666669</ele><time>2026-03-28T09:02:54Z</time></trkpt><trkpt lat="39.76717595440825" lon="9.56279643538348"><ele>190.0</ele><time>2026-03-28T09:02:55Z</time></trkpt><trkpt lat="39.7673520351385" lon="9.562660960438963"><ele>191.0</ele><time>2026-03-28T09:02:56Z</time></trkpt><trkpt lat="39.76752540518698" lon="9.56252664023774"><ele>192.0</ele><time>2026-03-28T09:02:57Z</time></trkpt><trkpt lat="39.767700031151605" lon="9.562394224564784"><ele>193.0</ele><time>2026-03-28T09:02:58Z</time></trkpt><trkpt lat="39.76787481828981" lon="9.562260810617575"><ele>193.0</ele><time>2026-03-28T09:02:59Z</time></trkpt><trkpt lat="39.76804893612858" lon="9.562126238678076"><ele>193.0</ele><time>2026-03-28T09:03:00Z</time></trkpt><trkpt lat="39.76822407127299" lon="9.561993606349619"><ele>193.0</ele><time>2026-03-28T09:03:01Z</time></trkpt><trkpt lat="39.76840245002613" lon="9.561866827135317"><ele>194.33333333333331</ele><time>2026-03-28T09:03:02Z</time></trkpt><trkpt lat="39.76858345656518" lon="9.561750620485043"><ele>195.66666666666669</ele><time>2026-03-28T09:03:03Z</time></trkpt><trkpt lat="39.768768166563156" lon="9.561643207933496"><ele>197.0</ele><time>2026-03-28T09:03:04Z</time></trkpt><trkpt lat="39.76895557824824" lon="9.56153652343865"><ele>197.0</ele><time>2026-03-28T09:03:05Z</time></trkpt><trkpt lat="39.769142950503294" lon="9.561424567975239"><ele>197.0</ele><time>2026-03-28T09:03:06Z</time></trkpt><trkpt lat="39.76932905843766" lon="9.561312000856839"><ele>197.0</ele><time>2026-03-28T09:03:07Z</time></trkpt><trkpt lat="39.76951754557555" lon="9.561200845379627"><ele>198.33333333333334</ele><time>2026-03-28T09:03:08Z</time></trkpt><trkpt lat="39.76970821679423" lon="9.561089873746278"><ele>199.66666666666669</ele><time>2026-03-28T09:03:09Z</time></trkpt><trkpt lat="39.76989959209897" lon="9.560974863524276"><ele>201.0</ele><time>2026-03-28T09:03:10Z</time></trkpt><trkpt lat="39.77008991224148" lon="9.560862312151562"><ele>201.0</ele><time>2026-03-28T09:03:11Z</time></trkpt><trkpt lat="39.77028134992982" lon="9.560751721006318"><ele>201.0</ele><time>2026-03-28T09:03:12Z</time></trkpt><trkpt lat="39.77047282189487" lon="9.560642657713633"><ele>201.0</ele><time>2026-03-28T09:03:13Z</time></trkpt><trkpt lat="39.77066619439438" lon="9.560534238534832"><ele>201.0</ele><time>2026-03-28T09:03:14Z</time></trkpt><trkpt lat="39.77085439415226" lon="9.560423536942771"><ele>201.0</ele><time>2026-03-28T09:03:15Z</time></trkpt><trkpt lat="39.771046179566106" lon="9.560313955990901"><ele>201.0</ele><time>2026-03-28T09:03:16Z</time></trkpt><trkpt lat="39.77123677091606" lon="9.56020350501674"><ele>202.66666666666669</ele><time>2026-03-28T09:03:17Z</time></trkpt><trkpt lat="39.77142736271712" lon="9.560092204240355"><ele>204.33333333333334</ele><time>2026-03-28T09:03:18Z</time></trkpt><trkpt lat="39.77161792800443" lon="9.559980728568544"><ele>206.0</ele><time>2026-03-28T09:03:19Z</time></trkpt><trkpt lat="39.77180942226432" lon="9.559866187424646"><ele>206.0</ele><time>2026-03-28T09:03:20Z</time></trkpt><trkpt lat="39.77200000237353" lon="9.559755710260635"><ele>206.0</ele><time>2026-03-28T09:03:21Z</time></trkpt><trkpt lat="39.77218971798631" lon="9.559639299276384"><ele>206.0</ele><time>2026-03-28T09:03:22Z</time></trkpt><trkpt lat="39.77237757585605" lon="9.559525902057857"><ele>207.0</ele><time>2026-03-28T09:03:23Z</time></trkpt><trkpt lat="39.772565981013315" lon="9.559413193856797"><ele>208.0</ele><time>2026-03-28T09:03:24Z</time></trkpt><trkpt lat="39.772757117322975" lon="9.559302581615183"><ele>209.0</ele><time>2026-03-28T09:03:25Z</time></trkpt><trkpt lat="39.77294409397877" lon="9.559198332310878"><ele>209.0</ele><time>2026-03-28T09:03:26Z</time></trkpt><trkpt lat="39.77313201081146" lon="9.559107907893734"><ele>209.0</ele><time>2026-03-28T09:03:27Z</time></trkpt><trkpt lat="39.77332815536549" lon="9.559047394390284"><ele>209.0</ele><time>2026-03-28T09:03:28Z</time></trkpt><trkpt lat="39.773531166376685" lon="9.559015109817972"><ele>209.33333333333334</ele><time>2026-03-28T09:03:29Z</time></trkpt><trkpt lat="39.773733066392495" lon="9.558997318333926"><ele>209.66666666666669</ele><time>2026-03-28T09:03:30Z</time></trkpt><trkpt lat="39.773939265277534" lon="9.558978741149424"><ele>210.0</ele><time>2026-03-28T09:03:31Z</time></trkpt><trkpt lat="39.774145367351146" lon="9.55895589301703"><ele>210.0</ele><time>2026-03-28T09:03:32Z</time></trkpt><trkpt lat="39.77435227985607" lon="9.55893548024745"><ele>210.0</ele><time>2026-03-28T09:03:33Z</time></trkpt><trkpt lat="39.77455963841044" lon="9.558916737620708"><ele>210.0</ele><time>2026-03-28T09:03:34Z</time></trkpt><trkpt lat="39.774763232484894" lon="9.558896354057666"><ele>210.66666666666669</ele><time>2026-03-28T09:03:35Z</time></trkpt><trkpt lat="39.77495707953267" lon="9.558876861036637"><ele>211.33333333333334</ele><time>2026-03-28T09:03:36Z</time></trkpt><trkpt lat="39.7751444395981" lon="9.55885776586391"><ele>212.0</ele><time>2026-03-28T09:03:37Z</time></trkpt><trkpt lat="39.77532015687987" lon="9.558823648796643"><ele>213.66666666666669</ele><time>2026-03-28T09:03:38Z</time></trkpt><trkpt lat="39.77548265908995" lon="9.558744160452177"><ele>215.33333333333331</ele><time>2026-03-28T09:03:39Z</time></trkpt><trkpt lat="39.77563430737617" lon="9.5586074981134"><ele>217.0</ele><time>2026-03-28T09:03:40Z</time></trkpt><trkpt lat="39.775777573939926" lon="9.558442868137975"><ele>218.33333333333331</ele><time>2026-03-28T09:03:41Z</time></trkpt><trkpt lat="39.775899821557125" lon="9.558261483679557"><ele>219.66666666666669</ele><time>2026-03-28T09:03:42Z</time></trkpt><trkpt lat="39.775997039852726" lon="9.55806589527816"><ele>221.0</ele><time>2026-03-28T09:03:43Z</time></trkpt><trkpt lat="39.776085948921896" lon="9.557873920010344"><ele>224.0</ele><time>2026-03-28T09:03:44Z</time></trkpt><trkpt lat="39.776200416612355" lon="9.557707673825748"><ele>227.0</ele><time>2026-03-28T09:03:45Z</time></trkpt><trkpt lat="39.776356182136475" lon="9.557584863068838"><ele>230.0</ele><time>2026-03-28T09:03:46Z</time></trkpt><trkpt lat="39.77652357014883" lon="9.557480369273005"><ele>230.0</ele><time>2026-03-28T09:03:47Z</time></trkpt><trkpt lat="39.776702239233074" lon="9.557403058827601"><ele>230.0</ele><time>2026-03-28T09:03:48Z</time></trkpt><trkpt lat="39.7768894035531" lon="9.55735387353694"><ele>230.0</ele><time>2026-03-28T09:03:49Z</time></trkpt><trkpt lat="39.77708077931948" lon="9.557312506754089"><ele>233.0</ele><time>2026-03-28T09:03:50Z</time></trkpt><trkpt lat="39.777274226674415" lon="9.557258018981434"><ele>236.0</ele><time>2026-03-28T09:03:51Z</time></trkpt><trkpt lat="39.77745488289208" lon="9.55720704247693"><ele>239.0</ele><time>2026-03-28T09:03:52Z</time></trkpt><trkpt lat="39.777630759618226" lon="9.557153913412222"><ele>240.66666666666669</ele><time>2026-03-28T09:03:53Z</time></trkpt><trkpt lat="39.77779217343872" lon="9.557064871781753"><ele>242.33333333333331</ele><time>2026-03-28T09:03:54Z</time></trkpt><trkpt lat="39.77792981892294" lon="9.556925404667005"><ele>244.0</ele><time>2026-03-28T09:03:55Z</time></trkpt><trkpt lat="39.77805852519613" lon="9.556765310352308"><ele>244.0</ele><time>2026-03-28T09:03:56Z</time></trkpt><trkpt lat="39.778211117148146" lon="9.556653309495431"><ele>244.0</ele><time>2026-03-28T09:03:57Z</time></trkpt><trkpt lat="39.77839240743536" lon="9.556605545140936"><ele>244.0</ele><time>2026-03-28T09:03:58Z</time></trkpt><trkpt lat="39.778578367755074" lon="9.556559175367786"><ele>249.0</ele><time>2026-03-28T09:03:59Z</time></trkpt><trkpt lat="39.77876243790434" lon="9.556476310845525"><ele>254.0</ele><time>2026-03-28T09:04:00Z</time></trkpt><trkpt lat="39.7789398464144" lon="9.556368354348125"><ele>259.0</ele><time>2026-03-28T09:04:01Z</time></trkpt><trkpt lat="39.77911420564406" lon="9.556260812415346"><ele>261.3333333333333</ele><time>2026-03-28T09:04:02Z</time></trkpt><trkpt lat="39.779271901225734" lon="9.556124414394995"><ele>263.6666666666667</ele><time>2026-03-28T09:04:03Z</time></trkpt><trkpt lat="39.779405566718744" lon="9.555945774825396"><ele>266.0</ele><time>2026-03-28T09:04:04Z</time></trkpt><trkpt lat="39.77953825940755" lon="9.555764766792963"><ele>266.0</ele><time>2026-03-28T09:04:05Z</time></trkpt><trkpt lat="39.77968580441291" lon="9.555608905335664"><ele>266.0</ele><time>2026-03-28T09:04:06Z</time></trkpt><trkpt lat="39.77984009554235" lon="9.555462540310925"><ele>266.0</ele><time>2026-03-28T09:04:07Z</time></trkpt><trkpt lat="39.77999002537372" lon="9.555313449509889"><ele>267.0</ele><time>2026-03-28T09:04:08Z</time></trkpt><trkpt lat="39.78014021129311" lon="9.555163834338183"><ele>268.0</ele><time>2026-03-28T09:04:09Z</time></trkpt><trkpt lat="39.7802978393803" lon="9.55502382184362"><ele>269.0</ele><time>2026-03-28T09:04:10Z</time></trkpt><trkpt lat="39.78046077073012" lon="9.554897637040225"><ele>269.0</ele><time>2026-03-28T09:04:11Z</time></trkpt><trkpt lat="39.780624302017905" lon="9.554772200214224"><ele>269.0</ele><time>2026-03-28T09:04:12Z</time></trkpt><trkpt lat="39.78078742272605" lon="9.554643459816024"><ele>269.0</ele><time>2026-03-28T09:04:13Z</time></trkpt><trkpt lat="39.78095012655787" lon="9.554509412204295"><ele>270.33333333333337</ele><time>2026-03-28T09:04:14Z</time></trkpt><trkpt lat="39.78111069203497" lon="9.554376142724788"><ele>271.6666666666667</ele><time>2026-03-28T09:04:15Z</time></trkpt><trkpt lat="39.78127049908313" lon="9.554250483179095"><ele>273.0</ele><time>2026-03-28T09:04:16Z</time></trkpt><trkpt lat="39.78143173464001" lon="9.554128236914744"><ele>273.0</ele><time>2026-03-28T09:04:17Z</time></trkpt><trkpt lat="39.7815909086072" lon="9.554009744392914"><ele>273.0</ele><time>2026-03-28T09:04:18Z</time></trkpt><trkpt lat="39.7817443591026" lon="9.553886303236231"><ele>273.0</ele><time>2026-03-28T09:04:19Z</time></trkpt><trkpt lat="39.78189210521744" lon="9.553762729954574"><ele>275.25</ele><time>2026-03-28T09:04:20Z</time></trkpt><trkpt lat="39.78203449088463" lon="9.553647037280157"><ele>277.5</ele><time>2026-03-28T09:04:21Z</time></trkpt><trkpt lat="39.78216275067635" lon="9.553519150741463"><ele>279.75</ele><time>2026-03-28T09:04:22Z</time></trkpt><trkpt lat="39.78225457808701" lon="9.553462041685593"><ele>282.0</ele><time>2026-03-28T09:04:23Z</time></trkpt><trkpt lat="39.782341654162906" lon="9.553327178922059"><ele>282.0</ele><time>2026-03-28T09:04:24Z</time></trkpt><trkpt lat="39.78241753639005" lon="9.553190115412818"><ele>282.0</ele><time>2026-03-28T09:04:25Z</time></trkpt><trkpt lat="39.78248608641486" lon="9.553030427195166"><ele>282.0</ele><time>2026-03-28T09:04:26Z</time></trkpt><trkpt lat="39.78255145514399" lon="9.552862312754923"><ele>282.0</ele><time>2026-03-28T09:04:27Z</time></trkpt><trkpt lat="39.78267096627641" lon="9.552929994963064"><ele>282.75</ele><time>2026-03-28T09:04:28Z</time></trkpt><trkpt lat="39.78278299193179" lon="9.552911564423775"><ele>283.5</ele><time>2026-03-28T09:04:29Z</time></trkpt><trkpt lat="39.78291029707507" lon="9.552922405544649"><ele>284.25</ele><time>2026-03-28T09:04:30Z</time></trkpt><trkpt lat="39.78304559311326" lon="9.55292660660511"><ele>285.0</ele><time>2026-03-28T09:04:31Z</time></trkpt><trkpt lat="39.78319141011805" lon="9.55291882080377"><ele>285.0</ele><time>2026-03-28T09:04:32Z</time></trkpt><trkpt lat="39.78334309986817" lon="9.552899624380524"><ele>285.0</ele><time>2026-03-28T09:04:33Z</time></trkpt><trkpt lat="39.78349666176606" lon="9.55287622786415"><ele>285.0</ele><time>2026-03-28T09:04:34Z</time></trkpt><trkpt lat="39.78364796665478" lon="9.552842343924274"><ele>276.0</ele><time>2026-03-28T09:04:35Z</time></trkpt><trkpt lat="39.783798993696" lon="9.552798304924119"><ele>267.0</ele><time>2026-03-28T09:04:36Z</time></trkpt><trkpt lat="39.7839445222483" lon="9.552738975652815"><ele>258.0</ele><time>2026-03-28T09:04:37Z</time></trkpt><trkpt lat="39.78409289188688" lon="9.552678792146468"><ele>258.0</ele><time>2026-03-28T09:04:38Z</time></trkpt><trkpt lat="39.784243536564595" lon="9.552634414294667"><ele>258.0</ele><time>2026-03-28T09:04:39Z</time></trkpt><trkpt lat="39.784401176991544" lon="9.552641503487811"><ele>258.0</ele><time>2026-03-28T09:04:40Z</time></trkpt><trkpt lat="39.7845574166484" lon="9.552616954876818"><ele>257.0</ele><time>2026-03-28T09:04:41Z</time></trkpt><trkpt lat="39.78471024003488" lon="9.552569500083957"><ele>256.0</ele><time>2026-03-28T09:04:42Z</time></trkpt><trkpt lat="39.78486435555331" lon="9.552530240701397"><ele>255.0</ele><time>2026-03-28T09:04:43Z</time></trkpt><trkpt lat="39.78501668557075" lon="9.552489463731401"><ele>255.0</ele><time>2026-03-28T09:04:44Z</time></trkpt><trkpt lat="39.78516997614057" lon="9.552455849464266"><ele>255.0</ele><time>2026-03-28T09:04:45Z</time></trkpt><trkpt lat="39.78531128218539" lon="9.55245098637769"><ele>255.0</ele><time>2026-03-28T09:04:46Z</time></trkpt><trkpt lat="39.78543536962607" lon="9.552530055850214"><ele>255.0</ele><time>2026-03-28T09:04:47Z</time></trkpt><trkpt lat="39.78556544519048" lon="9.552613969232125"><ele>253.5</ele><time>2026-03-28T09:04:48Z</time></trkpt><trkpt lat="39.78570268292134" lon="9.5526676831174"><ele>252.0</ele><time>2026-03-28T09:04:49Z</time></trkpt><trkpt lat="39.785828929301445" lon="9.552713872081084"><ele>250.5</ele><time>2026-03-28T09:04:50Z</time></trkpt><trkpt lat="39.785953250194225" lon="9.552756147902874"><ele>249.0</ele><time>2026-03-28T09:04:51Z</time></trkpt><trkpt lat="39.78606918297975" lon="9.552800510742923"><ele>249.0</ele><time>2026-03-28T09:04:52Z</time></trkpt><trkpt lat="39.786181532583136" lon="9.55281254228913"><ele>249.0</ele><time>2026-03-28T09:04:53Z</time></trkpt><trkpt lat="39.78628412861836" lon="9.552752263812762"><ele>249.0</ele><time>2026-03-28T09:04:54Z</time></trkpt><trkpt lat="39.7863637101478" lon="9.552632222477989"><ele>249.0</ele><time>2026-03-28T09:04:55Z</time></trkpt><trkpt lat="39.786432409402316" lon="9.5524917358139"><ele>249.0</ele><time>2026-03-28T09:04:56Z</time></trkpt><trkpt lat="39.78654144717239" lon="9.552399085844735"><ele>249.0</ele><time>2026-03-28T09:04:57Z</time></trkpt><trkpt lat="39.78666145703452" lon="9.552345580755425"><ele>249.0</ele><time>2026-03-28T09:04:58Z</time></trkpt><trkpt lat="39.78677956475289" lon="9.552280789437308"><ele>249.0</ele><time>2026-03-28T09:04:59Z</time></trkpt><trkpt lat="39.786881232268954" lon="9.552221914963614"><ele>251.2</ele><time>2026-03-28T09:05:00Z</time></trkpt><trkpt lat="39.786957002618266" lon="9.55212745877199"><ele>253.39999999999998</ele><time>2026-03-28T09:05:01Z</time></trkpt><trkpt lat="39.78702221613375" lon="9.55202576372966"><ele>255.6</ele><time>2026-03-28T09:05:02Z</time></trkpt><trkpt lat="39.78710942150096" lon="9.551968705674861"><ele>257.8</ele><time>2026-03-28T09:05:03Z</time></trkpt><trkpt lat="39.78721258381258" lon="9.551973866851082"><ele>260.0</ele><time>2026-03-28T09:05:04Z</time></trkpt><trkpt lat="39.78730589488773" lon="9.552010600512322"><ele>260.0</ele><time>2026-03-28T09:05:05Z</time></trkpt><trkpt lat="39.78738172159405" lon="9.552055553466976"><ele>260.0</ele><time>2026-03-28T09:05:06Z</time></trkpt><trkpt lat="39.78745232519532" lon="9.552083303844235"><ele>260.0</ele><time>2026-03-28T09:05:07Z</time></trkpt><trkpt lat="39.787531269547266" lon="9.552066842254634"><ele>260.0</ele><time>2026-03-28T09:05:08Z</time></trkpt><trkpt lat="39.787609839733136" lon="9.551995816952807"><ele>260.0</ele><time>2026-03-28T09:05:09Z</time></trkpt><trkpt lat="39.78766952881664" lon="9.551880343881734"><ele>260.0</ele><time>2026-03-28T09:05:10Z</time></trkpt><trkpt lat="39.78770917409826" lon="9.551749122237204"><ele>259.2</ele><time>2026-03-28T09:05:11Z</time></trkpt><trkpt lat="39.78775912732323" lon="9.551622868396796"><ele>258.4</ele><time>2026-03-28T09:05:12Z</time></trkpt><trkpt lat="39.78783221717808" lon="9.551516787313131"><ele>257.6</ele><time>2026-03-28T09:05:13Z</time></trkpt><trkpt lat="39.78791181723957" lon="9.55141757409601"><ele>256.8</ele><time>2026-03-28T09:05:14Z</time></trkpt><trkpt lat="39.78798360962841" lon="9.551310331344764"><ele>256.0</ele><time>2026-03-28T09:05:15Z</time></trkpt><trkpt lat="39.78804471574842" lon="9.551189474603003"><ele>248.25</ele><time>2026-03-28T09:05:16Z</time></trkpt><trkpt lat="39.788101990193866" lon="9.551069169240193"><ele>240.5</ele><time>2026-03-28T09:05:17Z</time></trkpt><trkpt lat="39.788174134804855" lon="9.550962619022727"><ele>232.75</ele><time>2026-03-28T09:05:18Z</time></trkpt><trkpt lat="39.78828466390823" lon="9.550891829528044"><ele>225.0</ele><time>2026-03-28T09:05:19Z</time></trkpt><trkpt lat="39.788398637998185" lon="9.550808458928094"><ele>225.25</ele><time>2026-03-28T09:05:20Z</time></trkpt><trkpt lat="39.78852950921617" lon="9.55077026137351"><ele>225.5</ele><time>2026-03-28T09:05:21Z</time></trkpt><trkpt lat="39.78866649142916" lon="9.55073614731106"><ele>225.75</ele><time>2026-03-28T09:05:22Z</time></trkpt><trkpt lat="39.78881018166955" lon="9.550705496973553"><ele>226.0</ele><time>2026-03-28T09:05:23Z</time></trkpt><trkpt lat="39.78895998637245" lon="9.550687461202246"><ele>226.0</ele><time>2026-03-28T09:05:24Z</time></trkpt><trkpt lat="39.7891019679893" lon="9.55072013330866"><ele>226.0</ele><time>2026-03-28T09:05:25Z</time></trkpt><trkpt lat="39.78923740630659" lon="9.550741184103854"><ele>226.0</ele><time>2026-03-28T09:05:26Z</time></trkpt><trkpt lat="39.78934984132817" lon="9.550802896624637"><ele>226.0</ele><time>2026-03-28T09:05:27Z</time></trkpt><trkpt lat="39.7894441644429" lon="9.550894012043734"><ele>225.8</ele><time>2026-03-28T09:05:28Z</time></trkpt><trkpt lat="39.78951491016581" lon="9.551006216468476"><ele>225.60000000000002</ele><time>2026-03-28T09:05:29Z</time></trkpt><trkpt lat="39.78958825050914" lon="9.551087872835216"><ele>225.4</ele><time>2026-03-28T09:05:30Z</time></trkpt><trkpt lat="39.78967482398301" lon="9.55111494373066"><ele>225.2</ele><time>2026-03-28T09:05:31Z</time></trkpt><trkpt lat="39.78976381309794" lon="9.551078115133627"><ele>225.0</ele><time>2026-03-28T09:05:32Z</time></trkpt><trkpt lat="39.78982729512364" lon="9.55099159547969"><ele>225.0</ele><time>2026-03-28T09:05:33Z</time></trkpt><trkpt lat="39.78985823945803" lon="9.550869330292707"><ele>225.0</ele><time>2026-03-28T09:05:34Z</time></trkpt><trkpt lat="39.789861503768975" lon="9.550743897480064"><ele>225.0</ele><time>2026-03-28T09:05:35Z</time></trkpt><trkpt lat="39.78985181219981" lon="9.5506236641414"><ele>225.0</ele><time>2026-03-28T09:05:36Z</time></trkpt><trkpt lat="39.78984460386536" lon="9.550509300564732"><ele>225.0</ele><time>2026-03-28T09:05:37Z</time></trkpt><trkpt lat="39.789880853986425" lon="9.550416133235853"><ele>222.4</ele><time>2026-03-28T09:05:38Z</time></trkpt><trkpt lat="39.78991561506064" lon="9.55033318123563"><ele>219.8</ele><time>2026-03-28T09:05:39Z</time></trkpt><trkpt lat="39.789998423005116" lon="9.55028209829439"><ele>217.2</ele><time>2026-03-28T09:05:40Z</time></trkpt><trkpt lat="39.79009438199221" lon="9.550316897242917"><ele>214.6</ele><time>2026-03-28T09:05:41Z</time></trkpt><trkpt lat="39.79018827533913" lon="9.550346165805715"><ele>212.0</ele><time>2026-03-28T09:05:42Z</time></trkpt><trkpt lat="39.790281631245826" lon="9.550404370572338"><ele>217.39999999999998</ele><time>2026-03-28T09:05:43Z</time></trkpt><trkpt lat="39.79038011988892" lon="9.550441942168288"><ele>222.79999999999998</ele><time>2026-03-28T09:05:44Z</time></trkpt><trkpt lat="39.79047754796655" lon="9.550469917131089"><ele>228.2</ele><time>2026-03-28T09:05:45Z</time></trkpt><trkpt lat="39.79056781633955" lon="9.55048981105472"><ele>233.6</ele><time>2026-03-28T09:05:46Z</time></trkpt><trkpt lat="39.79065816955269" lon="9.55048021622463"><ele>239.0</ele><time>2026-03-28T09:05:47Z</time></trkpt><trkpt lat="39.79073996564067" lon="9.5504171709742"><ele>233.6</ele><time>2026-03-28T09:05:48Z</time></trkpt><trkpt lat="39.790786405886706" lon="9.550299884474384"><ele>228.2</ele><time>2026-03-28T09:05:49Z</time></trkpt><trkpt lat="39.790792874641596" lon="9.550160049550552"><ele>222.79999999999998</ele><time>2026-03-28T09:05:50Z</time></trkpt><trkpt lat="39.79078277265221" lon="9.550021759998048"><ele>217.39999999999998</ele><time>2026-03-28T09:05:51Z</time></trkpt><trkpt lat="39.79079858755413" lon="9.549890876869833"><ele>212.0</ele><time>2026-03-28T09:05:52Z</time></trkpt><trkpt lat="39.79082587321093" lon="9.549770834335858"><ele>212.0</ele><time>2026-03-28T09:05:53Z</time></trkpt><trkpt lat="39.79087209488269" lon="9.54966429201355"><ele>212.0</ele><time>2026-03-28T09:05:54Z</time></trkpt><trkpt lat="39.79095552418282" lon="9.54959197589761"><ele>212.0</ele><time>2026-03-28T09:05:55Z</time></trkpt><trkpt lat="39.791053735043974" lon="9.549531287026841"><ele>212.0</ele><time>2026-03-28T09:05:56Z</time></trkpt><trkpt lat="39.79117172261171" lon="9.549553458420812"><ele>212.0</ele><time>2026-03-28T09:05:57Z</time></trkpt><trkpt lat="39.79128491235177" lon="9.549599815216528"><ele>215.25</ele><time>2026-03-28T09:05:58Z</time></trkpt><trkpt lat="39.79139811281264" lon="9.549655908574954"><ele>218.5</ele><time>2026-03-28T09:05:59Z</time></trkpt><trkpt lat="39.791498797114095" lon="9.549739263959868"><ele>221.75</ele><time>2026-03-28T09:06:00Z</time></trkpt><trkpt lat="39.79160363128913" lon="9.549768111134041"><ele>225.0</ele><time>2026-03-28T09:06:01Z</time></trkpt><trkpt lat="39.79171362393599" lon="9.549721829372968"><ele>225.0</ele><time>2026-03-28T09:06:02Z</time></trkpt><trkpt lat="39.79180065338164" lon="9.549621016037188"><ele>225.0</ele><time>2026-03-28T09:06:03Z</time></trkpt><trkpt lat="39.791869200796455" lon="9.549505294891906"><ele>225.0</ele><time>2026-03-28T09:06:04Z</time></trkpt><trkpt lat="39.79195433195507" lon="9.549412868986213"><ele>225.0</ele><time>2026-03-28T09:06:05Z</time></trkpt><trkpt lat="39.79203687625125" lon="9.549307114079035"><ele>217.75</ele><time>2026-03-28T09:06:06Z</time></trkpt><trkpt lat="39.79213256838721" lon="9.549229149336838"><ele>210.5</ele><time>2026-03-28T09:06:07Z</time></trkpt><trkpt lat="39.79224768662096" lon="9.549174880131668"><ele>203.25</ele><time>2026-03-28T09:06:08Z</time></trkpt><trkpt lat="39.79237295726461" lon="9.549132232970667"><ele>196.0</ele><time>2026-03-28T09:06:09Z</time></trkpt><trkpt lat="39.79249494738994" lon="9.549076567150191"><ele>196.0</ele><time>2026-03-28T09:06:10Z</time></trkpt><trkpt lat="39.79261984751311" lon="9.549066931834394"><ele>196.0</ele><time>2026-03-28T09:06:11Z</time></trkpt><trkpt lat="39.792731477368825" lon="9.549038566431548"><ele>196.0</ele><time>2026-03-28T09:06:12Z</time></trkpt><trkpt lat="39.79283988618663" lon="9.54907458001435"><ele>196.0</ele><time>2026-03-28T09:06:13Z</time></trkpt><trkpt lat="39.79293237067957" lon="9.549169648382714"><ele>198.0</ele><time>2026-03-28T09:06:14Z</time></trkpt><trkpt lat="39.79301268263772" lon="9.549295904234809"><ele>200.0</ele><time>2026-03-28T09:06:15Z</time></trkpt><trkpt lat="39.79310483668982" lon="9.549415295081195"><ele>202.0</ele><time>2026-03-28T09:06:16Z</time></trkpt><trkpt lat="39.793213375017565" lon="9.549510012474963"><ele>204.0</ele><time>2026-03-28T09:06:17Z</time></trkpt><trkpt lat="39.793330012857034" lon="9.549582682094359"><ele>204.0</ele><time>2026-03-28T09:06:18Z</time></trkpt><trkpt lat="39.79344542214486" lon="9.54964196995617"><ele>204.0</ele><time>2026-03-28T09:06:19Z</time></trkpt><trkpt lat="39.79354687745456" lon="9.549721544731467"><ele>204.0</ele><time>2026-03-28T09:06:20Z</time></trkpt><trkpt lat="39.79363011707676" lon="9.549838792578338"><ele>204.0</ele><time>2026-03-28T09:06:21Z</time></trkpt><trkpt lat="39.79369367503726" lon="9.549988878909923"><ele>204.75</ele><time>2026-03-28T09:06:22Z</time></trkpt><trkpt lat="39.79372926585753" lon="9.550158525060867"><ele>205.5</ele><time>2026-03-28T09:06:23Z</time></trkpt><trkpt lat="39.79374353307219" lon="9.550328060803295"><ele>206.25</ele><time>2026-03-28T09:06:24Z</time></trkpt><trkpt lat="39.793768311740976" lon="9.550476613066076"><ele>207.0</ele><time>2026-03-28T09:06:25Z</time></trkpt><trkpt lat="39.79382707689099" lon="9.55059085940439"><ele>207.0</ele><time>2026-03-28T09:06:26Z</time></trkpt><trkpt lat="39.79392569148633" lon="9.550649672804475"><ele>207.0</ele><time>2026-03-28T09:06:27Z</time></trkpt><trkpt lat="39.79404336123379" lon="9.550636827637737"><ele>207.0</ele><time>2026-03-28T09:06:28Z</time></trkpt><trkpt lat="39.79415675175059" lon="9.550570085094988"><ele>207.0</ele><time>2026-03-28T09:06:29Z</time></trkpt><trkpt lat="39.79426292978568" lon="9.550481352949287"><ele>206.5</ele><time>2026-03-28T09:06:30Z</time></trkpt><trkpt lat="39.794368092925545" lon="9.550387003091782"><ele>206.0</ele><time>2026-03-28T09:06:31Z</time></trkpt><trkpt lat="39.79445716161996" lon="9.550268954828494"><ele>205.5</ele><time>2026-03-28T09:06:32Z</time></trkpt><trkpt lat="39.794519078410566" lon="9.550121526210738"><ele>205.0</ele><time>2026-03-28T09:06:33Z</time></trkpt><trkpt lat="39.79457568834928" lon="9.549975052168282"><ele>199.5</ele><time>2026-03-28T09:06:34Z</time></trkpt><trkpt lat="39.79467505815114" lon="9.54987264406591"><ele>194.0</ele><time>2026-03-28T09:06:35Z</time></trkpt><trkpt lat="39.79476447911231" lon="9.549758136004447"><ele>188.5</ele><time>2026-03-28T09:06:36Z</time></trkpt><trkpt lat="39.794857184178085" lon="9.549652565181345"><ele>183.0</ele><time>2026-03-28T09:06:37Z</time></trkpt><trkpt lat="39.794948665191036" lon="9.549552158837608"><ele>177.20000000000002</ele><time>2026-03-28T09:06:38Z</time></trkpt><trkpt lat="39.79503932417558" lon="9.549475321401198"><ele>171.4</ele><time>2026-03-28T09:06:39Z</time></trkpt><trkpt lat="39.795143987624705" lon="9.54947785919439"><ele>165.60000000000002</ele><time>2026-03-28T09:06:40Z</time></trkpt><trkpt lat="39.795239376890834" lon="9.549549332471335"><ele>159.8</ele><time>2026-03-28T09:06:41Z</time></trkpt><trkpt lat="39.7953054792171" lon="9.549677292496785"><ele>154.0</ele><time>2026-03-28T09:06:42Z</time></trkpt><trkpt lat="39.79533345324561" lon="9.549838063086913"><ele>156.5</ele><time>2026-03-28T09:06:43Z</time></trkpt><trkpt lat="39.795357878282" lon="9.55000266095897"><ele>159.0</ele><time>2026-03-28T09:06:44Z</time></trkpt><trkpt lat="39.795389004911456" lon="9.550169678694171"><ele>161.5</ele><time>2026-03-28T09:06:45Z</time></trkpt><trkpt lat="39.79542532093792" lon="9.550339722004143"><ele>164.0</ele><time>2026-03-28T09:06:46Z</time></trkpt><trkpt lat="39.795463408279076" lon="9.55051004913641"><ele>164.0</ele><time>2026-03-28T09:06:47Z</time></trkpt><trkpt lat="39.79551201935317" lon="9.550672416228672"><ele>164.0</ele><time>2026-03-28T09:06:48Z</time></trkpt><trkpt lat="39.79558030213029" lon="9.550819319837824"><ele>164.0</ele><time>2026-03-28T09:06:49Z</time></trkpt><trkpt lat="39.79566291476199" lon="9.550950530818746"><ele>164.0</ele><time>2026-03-28T09:06:50Z</time></trkpt><trkpt lat="39.79574763457039" lon="9.551078396194997"><ele>164.0</ele><time>2026-03-28T09:06:51Z</time></trkpt><trkpt lat="39.7958336806115" lon="9.551205381957976"><ele>164.0</ele><time>2026-03-28T09:06:52Z</time></trkpt><trkpt lat="39.795924566220904" lon="9.551328290213391"><ele>164.0</ele><time>2026-03-28T09:06:53Z</time></trkpt><trkpt lat="39.79600922109953" lon="9.551449527117311"><ele>164.0</ele><time>2026-03-28T09:06:54Z</time></trkpt><trkpt lat="39.796102984936425" lon="9.55156372841173"><ele>162.5</ele><time>2026-03-28T09:06:55Z</time></trkpt><trkpt lat="39.79620493267462" lon="9.551662828475505"><ele>161.0</ele><time>2026-03-28T09:06:56Z</time></trkpt><trkpt lat="39.796319043418755" lon="9.55173808503337"><ele>159.5</ele><time>2026-03-28T09:06:57Z</time></trkpt><trkpt lat="39.796439080623024" lon="9.551798985080628"><ele>158.0</ele><time>2026-03-28T09:06:58Z</time></trkpt><trkpt lat="39.79655019577679" lon="9.551874323358406"><ele>158.0</ele><time>2026-03-28T09:06:59Z</time></trkpt><trkpt lat="39.79664835276314" lon="9.551980997432585"><ele>158.0</ele><time>2026-03-28T09:07:00Z</time></trkpt><trkpt lat="39.79674426190896" lon="9.552070035342144"><ele>158.0</ele><time>2026-03-28T09:07:01Z</time></trkpt><trkpt lat="39.79685100715155" lon="9.55208025450351"><ele>158.0</ele><time>2026-03-28T09:07:02Z</time></trkpt><trkpt lat="39.79696472626987" lon="9.552020608662858"><ele>160.0</ele><time>2026-03-28T09:07:03Z</time></trkpt><trkpt lat="39.79706082757912" lon="9.551920326486899"><ele>162.0</ele><time>2026-03-28T09:07:04Z</time></trkpt><trkpt lat="39.797165185119205" lon="9.551810341992168"><ele>164.0</ele><time>2026-03-28T09:07:05Z</time></trkpt><trkpt lat="39.7972716078977" lon="9.551701549845395"><ele>166.0</ele><time>2026-03-28T09:07:06Z</time></trkpt><trkpt lat="39.79738009469332" lon="9.551594808820157"><ele>166.0</ele><time>2026-03-28T09:07:07Z</time></trkpt><trkpt lat="39.79749073632652" lon="9.551489247156507"><ele>166.0</ele><time>2026-03-28T09:07:08Z</time></trkpt><trkpt lat="39.797598091174365" lon="9.551382626917787"><ele>166.0</ele><time>2026-03-28T09:07:09Z</time></trkpt><trkpt lat="39.79770297679343" lon="9.551272143649387"><ele>166.0</ele><time>2026-03-28T09:07:10Z</time></trkpt><trkpt lat="39.797805808742446" lon="9.551166904636636"><ele>160.25</ele><time>2026-03-28T09:07:11Z</time></trkpt><trkpt lat="39.79790842317624" lon="9.551072177893206"><ele>154.5</ele><time>2026-03-28T09:07:12Z</time></trkpt><trkpt lat="39.79802010961447" lon="9.551006869571598"><ele>148.75</ele><time>2026-03-28T09:07:13Z</time></trkpt><trkpt lat="39.79813886614838" lon="9.550993932047685"><ele>143.0</ele><time>2026-03-28T09:07:14Z</time></trkpt><trkpt lat="39.79825059871751" lon="9.551041394485228"><ele>143.0</ele><time>2026-03-28T09:07:15Z</time></trkpt><trkpt lat="39.798341914870306" lon="9.55113455793036"><ele>143.0</ele><time>2026-03-28T09:07:16Z</time></trkpt><trkpt lat="39.798416054808946" lon="9.55125462582102"><ele>143.0</ele><time>2026-03-28T09:07:17Z</time></trkpt><trkpt lat="39.798482165234944" lon="9.551386149540857"><ele>143.0</ele><time>2026-03-28T09:07:18Z</time></trkpt><trkpt lat="39.79855214632079" lon="9.551516340710444"><ele>144.25</ele><time>2026-03-28T09:07:19Z</time></trkpt><trkpt lat="39.7986272803811" lon="9.551648760337258"><ele>145.5</ele><time>2026-03-28T09:07:20Z</time></trkpt><trkpt lat="39.7987027294606" lon="9.551786689082393"><ele>146.75</ele><time>2026-03-28T09:07:21Z</time></trkpt><trkpt lat="39.798776335768636" lon="9.551930103110738"><ele>148.0</ele><time>2026-03-28T09:07:22Z</time></trkpt><trkpt lat="39.7988460542508" lon="9.552080910865772"><ele>148.0</ele><time>2026-03-28T09:07:23Z</time></trkpt><trkpt lat="39.7989127708726" lon="9.552238891243237"><ele>148.0</ele><time>2026-03-28T09:07:24Z</time></trkpt><trkpt lat="39.79898495553109" lon="9.552400538856993"><ele>148.0</ele><time>2026-03-28T09:07:25Z</time></trkpt><trkpt lat="39.79905307447182" lon="9.552564656925393"><ele>148.0</ele><time>2026-03-28T09:07:26Z</time></trkpt><trkpt lat="39.79911702356153" lon="9.552728755027859"><ele>142.25</ele><time>2026-03-28T09:07:27Z</time></trkpt><trkpt lat="39.7991790021413" lon="9.552892493470662"><ele>136.5</ele><time>2026-03-28T09:07:28Z</time></trkpt><trkpt lat="39.79925235637278" lon="9.553054465407694"><ele>130.75</ele><time>2026-03-28T09:07:29Z</time></trkpt><trkpt lat="39.79934606433655" lon="9.553200689708277"><ele>125.0</ele><time>2026-03-28T09:07:30Z</time></trkpt><trkpt lat="39.799454190665934" lon="9.553339644920362"><ele>125.0</ele><time>2026-03-28T09:07:31Z</time></trkpt><trkpt lat="39.79956145193251" lon="9.55348062121971"><ele>125.0</ele><time>2026-03-28T09:07:32Z</time></trkpt><trkpt lat="39.79966719689098" lon="9.553622604554358"><ele>125.0</ele><time>2026-03-28T09:07:33Z</time></trkpt><trkpt lat="39.79977805159864" lon="9.553763448025299"><ele>124.0</ele><time>2026-03-28T09:07:34Z</time></trkpt><trkpt lat="39.79988947030269" lon="9.553901826037116"><ele>123.0</ele><time>2026-03-28T09:07:35Z</time></trkpt><trkpt lat="39.799999093908596" lon="9.554029966357131"><ele>122.0</ele><time>2026-03-28T09:07:36Z</time></trkpt><trkpt lat="39.80010968595575" lon="9.554138693085063"><ele>121.0</ele><time>2026-03-28T09:07:37Z</time></trkpt><trkpt lat="39.8002257688361" lon="9.554222585904721"><ele>121.0</ele><time>2026-03-28T09:07:38Z</time></trkpt><trkpt lat="39.80032495642261" lon="9.554321654333886"><ele>121.0</ele><time>2026-03-28T09:07:39Z</time></trkpt><trkpt lat="39.80040469106818" lon="9.554452471919435"><ele>121.0</ele><time>2026-03-28T09:07:40Z</time></trkpt><trkpt lat="39.80046671289652" lon="9.554610519198567"><ele>121.0</ele><time>2026-03-28T09:07:41Z</time></trkpt><trkpt lat="39.800517485175604" lon="9.55478362443221"><ele>124.0</ele><time>2026-03-28T09:07:42Z</time></trkpt><trkpt lat="39.80057049469302" lon="9.554960371257227"><ele>127.0</ele><time>2026-03-28T09:07:43Z</time></trkpt><trkpt lat="39.800609635192295" lon="9.555141341797354"><ele>130.0</ele><time>2026-03-28T09:07:44Z</time></trkpt><trkpt lat="39.80061078022231" lon="9.555324680399227"><ele>133.0</ele><time>2026-03-28T09:07:45Z</time></trkpt><trkpt lat="39.80058805341484" lon="9.555509844333178"><ele>133.0</ele><time>2026-03-28T09:07:46Z</time></trkpt><trkpt lat="39.800547046176156" lon="9.555690254483634"><ele>133.0</ele><time>2026-03-28T09:07:47Z</time></trkpt><trkpt lat="39.800476027230744" lon="9.55585301418741"><ele>133.0</ele><time>2026-03-28T09:07:48Z</time></trkpt><trkpt lat="39.800395342848226" lon="9.55600572169011"><ele>133.0</ele><time>2026-03-28T09:07:49Z</time></trkpt><trkpt lat="39.80033737626889" lon="9.556170069760535"><ele>132.0</ele><time>2026-03-28T09:07:50Z</time></trkpt><trkpt lat="39.80032927377186" lon="9.556345095251197"><ele>131.0</ele><time>2026-03-28T09:07:51Z</time></trkpt><trkpt lat="39.80036670479916" lon="9.556517960235478"><ele>130.0</ele><time>2026-03-28T09:07:52Z</time></trkpt><trkpt lat="39.80043676170456" lon="9.556674366824609"><ele>129.0</ele><time>2026-03-28T09:07:53Z</time></trkpt><trkpt lat="39.800501035461636" lon="9.556836867412507"><ele>129.0</ele><time>2026-03-28T09:07:54Z</time></trkpt><trkpt lat="39.80054191780194" lon="9.557014241838191"><ele>129.0</ele><time>2026-03-28T09:07:55Z</time></trkpt><trkpt lat="39.80056284248436" lon="9.557199718084677"><ele>129.0</ele><time>2026-03-28T09:07:56Z</time></trkpt><trkpt lat="39.80060049232921" lon="9.557373521520644"><ele>129.0</ele><time>2026-03-28T09:07:57Z</time></trkpt><trkpt lat="39.800681022346126" lon="9.557511481726547"><ele>131.5</ele><time>2026-03-28T09:07:58Z</time></trkpt><trkpt lat="39.80080040852424" lon="9.557595341774473"><ele>134.0</ele><time>2026-03-28T09:07:59Z</time></trkpt><trkpt lat="39.800943891033874" lon="9.557623709753992"><ele>136.5</ele><time>2026-03-28T09:08:00Z</time></trkpt><trkpt lat="39.80108518731496" lon="9.557665215091943"><ele>139.0</ele><time>2026-03-28T09:08:01Z</time></trkpt><trkpt lat="39.80122230069567" lon="9.557748551202957"><ele>136.6</ele><time>2026-03-28T09:08:02Z</time></trkpt><trkpt lat="39.80133883767493" lon="9.557843691866774"><ele>134.2</ele><time>2026-03-28T09:08:03Z</time></trkpt><trkpt lat="39.80143727776655" lon="9.557932592244633"><ele>131.79999999999998</ele><time>2026-03-28T09:08:04Z</time></trkpt><trkpt lat="39.80149523518833" lon="9.558029271893714"><ele>129.4</ele><time>2026-03-28T09:08:05Z</time></trkpt><trkpt lat="39.80150883503653" lon="9.558148246345079"><ele>127.0</ele><time>2026-03-28T09:08:06Z</time></trkpt><trkpt lat="39.801457869351" lon="9.558268056728917"><ele>127.0</ele><time>2026-03-28T09:08:07Z</time></trkpt><trkpt lat="39.801369569317835" lon="9.558359204650827"><ele>127.0</ele><time>2026-03-28T09:08:08Z</time></trkpt><trkpt lat="39.80127625752445" lon="9.558460434540489"><ele>127.0</ele><time>2026-03-28T09:08:09Z</time></trkpt><trkpt lat="39.80119601845488" lon="9.558594470314072"><ele>127.0</ele><time>2026-03-28T09:08:10Z</time></trkpt><trkpt lat="39.80112341698719" lon="9.558743335437883"><ele>125.75</ele><time>2026-03-28T09:08:11Z</time></trkpt><trkpt lat="39.80104015364355" lon="9.558879944010274"><ele>124.5</ele><time>2026-03-28T09:08:12Z</time></trkpt><trkpt lat="39.80093197095274" lon="9.558986391229313"><ele>123.25</ele><time>2026-03-28T09:08:13Z</time></trkpt><trkpt lat="39.800808256856065" lon="9.559057284213264"><ele>122.0</ele><time>2026-03-28T09:08:14Z</time></trkpt><trkpt lat="39.80069702226754" lon="9.559115899024368"><ele>124.19999999999999</ele><time>2026-03-28T09:08:15Z</time></trkpt><trkpt lat="39.80061191585684" lon="9.559204369407889"><ele>126.39999999999999</ele><time>2026-03-28T09:08:16Z</time></trkpt><trkpt lat="39.80057183072257" lon="9.55933442500461"><ele>128.60000000000002</ele><time>2026-03-28T09:08:17Z</time></trkpt><trkpt lat="39.80058030618842" lon="9.559477354612195"><ele>130.8</ele><time>2026-03-28T09:08:18Z</time></trkpt><trkpt lat="39.80063392090024" lon="9.559597511337712"><ele>133.0</ele><time>2026-03-28T09:08:19Z</time></trkpt><trkpt lat="39.800731501532255" lon="9.559675486069688"><ele>134.5</ele><time>2026-03-28T09:08:20Z</time></trkpt><trkpt lat="39.80082465706222" lon="9.559767967513848"><ele>136.0</ele><time>2026-03-28T09:08:21Z</time></trkpt><trkpt lat="39.80093887414342" lon="9.559844181434062"><ele>137.5</ele><time>2026-03-28T09:08:22Z</time></trkpt><trkpt lat="39.80109459518261" lon="9.559738584703409"><ele>139.0</ele><time>2026-03-28T09:08:23Z</time></trkpt><trkpt lat="39.801223746657584" lon="9.559699454646205"><ele>139.0</ele><time>2026-03-28T09:08:24Z</time></trkpt><trkpt lat="39.80135268276892" lon="9.559655337496098"><ele>139.0</ele><time>2026-03-28T09:08:25Z</time></trkpt><trkpt lat="39.801485413967846" lon="9.559633076285234"><ele>139.0</ele><time>2026-03-28T09:08:26Z</time></trkpt><trkpt lat="39.80161239331589" lon="9.559659713337622"><ele>139.0</ele><time>2026-03-28T09:08:27Z</time></trkpt><trkpt lat="39.801727040200696" lon="9.559736982541889"><ele>139.0</ele><time>2026-03-28T09:08:28Z</time></trkpt><trkpt lat="39.801821356416404" lon="9.559854311145298"><ele>139.0</ele><time>2026-03-28T09:08:29Z</time></trkpt><trkpt lat="39.801909358374104" lon="9.559988646683943"><ele>139.0</ele><time>2026-03-28T09:08:30Z</time></trkpt><trkpt lat="39.80201116691192" lon="9.560066648093875"><ele>139.0</ele><time>2026-03-28T09:08:31Z</time></trkpt><trkpt lat="39.80213762026418" lon="9.560079177455222"><ele>137.75</ele><time>2026-03-28T09:08:32Z</time></trkpt><trkpt lat="39.8022606484257" lon="9.56002479162201"><ele>136.5</ele><time>2026-03-28T09:08:33Z</time></trkpt><trkpt lat="39.80238191895381" lon="9.559982183782799"><ele>135.25</ele><time>2026-03-28T09:08:34Z</time></trkpt><trkpt lat="39.802513377205" lon="9.560003316746931"><ele>134.0</ele><time>2026-03-28T09:08:35Z</time></trkpt><trkpt lat="39.80264550832954" lon="9.56005212864103"><ele>134.0</ele><time>2026-03-28T09:08:36Z</time></trkpt><trkpt lat="39.802784790621416" lon="9.56008804881033"><ele>134.0</ele><time>2026-03-28T09:08:37Z</time></trkpt><trkpt lat="39.80292376014313" lon="9.560078365555116"><ele>134.0</ele><time>2026-03-28T09:08:38Z</time></trkpt><trkpt lat="39.803057804630335" lon="9.560093234016579"><ele>134.0</ele><time>2026-03-28T09:08:39Z</time></trkpt><trkpt lat="39.80318099473871" lon="9.560167075721656"><ele>134.0</ele><time>2026-03-28T09:08:40Z</time></trkpt><trkpt lat="39.80329643231986" lon="9.560243518699258"><ele>134.0</ele><time>2026-03-28T09:08:41Z</time></trkpt><trkpt lat="39.803416246573704" lon="9.560253964549958"><ele>134.0</ele><time>2026-03-28T09:08:42Z</time></trkpt><trkpt lat="39.80353864621045" lon="9.560188587073789"><ele>134.0</ele><time>2026-03-28T09:08:43Z</time></trkpt><trkpt lat="39.80365687770511" lon="9.560123150180955"><ele>135.0</ele><time>2026-03-28T09:08:44Z</time></trkpt><trkpt lat="39.803789612540356" lon="9.560082140415274"><ele>136.0</ele><time>2026-03-28T09:08:45Z</time></trkpt><trkpt lat="39.803925691768086" lon="9.560071044414927"><ele>137.0</ele><time>2026-03-28T09:08:46Z</time></trkpt><trkpt lat="39.80406169626557" lon="9.560093066955195"><ele>138.0</ele><time>2026-03-28T09:08:47Z</time></trkpt><trkpt lat="39.80419220737137" lon="9.5601469594537"><ele>138.0</ele><time>2026-03-28T09:08:48Z</time></trkpt><trkpt lat="39.80431743456461" lon="9.560230831745953"><ele>138.0</ele><time>2026-03-28T09:08:49Z</time></trkpt><trkpt lat="39.80442884545348" lon="9.560344049840428"><ele>138.0</ele><time>2026-03-28T09:08:50Z</time></trkpt><trkpt lat="39.80454042071169" lon="9.560456909710318"><ele>138.0</ele><time>2026-03-28T09:08:51Z</time></trkpt><trkpt lat="39.804664975605924" lon="9.560545397035478"><ele>137.75</ele><time>2026-03-28T09:08:52Z</time></trkpt><trkpt lat="39.804804072009205" lon="9.560596226279646"><ele>137.5</ele><time>2026-03-28T09:08:53Z</time></trkpt><trkpt lat="39.80494560972741" lon="9.560621949211079"><ele>137.25</ele><time>2026-03-28T09:08:54Z</time></trkpt><trkpt lat="39.80508192333575" lon="9.560656705036958"><ele>137.0</ele><time>2026-03-28T09:08:55Z</time></trkpt><trkpt lat="39.80520947217013" lon="9.56073304055061"><ele>137.0</ele><time>2026-03-28T09:08:56Z</time></trkpt><trkpt lat="39.80533190065231" lon="9.56083062670926"><ele>137.0</ele><time>2026-03-28T09:08:57Z</time></trkpt><trkpt lat="39.8054565818953" lon="9.560917115083972"><ele>137.0</ele><time>2026-03-28T09:08:58Z</time></trkpt><trkpt lat="39.80559053205469" lon="9.5609870751059"><ele>137.0</ele><time>2026-03-28T09:08:59Z</time></trkpt><trkpt lat="39.805730925241626" lon="9.561047478281834"><ele>137.0</ele><time>2026-03-28T09:09:00Z</time></trkpt><trkpt lat="39.805872491535666" lon="9.561106993295521"><ele>137.0</ele><time>2026-03-28T09:09:01Z</time></trkpt><trkpt lat="39.80601231374134" lon="9.561177568807958"><ele>137.0</ele><time>2026-03-28T09:09:02Z</time></trkpt><trkpt lat="39.806145528022725" lon="9.561261087749648"><ele>137.0</ele><time>2026-03-28T09:09:03Z</time></trkpt><trkpt lat="39.80627642637158" lon="9.561341757831185"><ele>142.5</ele><time>2026-03-28T09:09:04Z</time></trkpt><trkpt lat="39.80641723071553" lon="9.561393436876683"><ele>148.0</ele><time>2026-03-28T09:09:05Z</time></trkpt><trkpt lat="39.80656272219457" lon="9.561413032840754"><ele>153.5</ele><time>2026-03-28T09:09:06Z</time></trkpt><trkpt lat="39.80670943386646" lon="9.56142802644969"><ele>159.0</ele><time>2026-03-28T09:09:07Z</time></trkpt><trkpt lat="39.80685426416089" lon="9.56144869955357"><ele>159.0</ele><time>2026-03-28T09:09:08Z</time></trkpt><trkpt lat="39.80699701958767" lon="9.561470392453673"><ele>159.0</ele><time>2026-03-28T09:09:09Z</time></trkpt><trkpt lat="39.80713358415867" lon="9.561497152977235"><ele>159.0</ele><time>2026-03-28T09:09:10Z</time></trkpt><trkpt lat="39.80725120518158" lon="9.561565455911358"><ele>159.0</ele><time>2026-03-28T09:09:11Z</time></trkpt><trkpt lat="39.80733659915727" lon="9.561685795376064"><ele>159.0</ele><time>2026-03-28T09:09:12Z</time></trkpt><trkpt lat="39.80740652595255" lon="9.561831127413317"><ele>159.0</ele><time>2026-03-28T09:09:13Z</time></trkpt><trkpt lat="39.80746687891327" lon="9.562008381155609"><ele>159.0</ele><time>2026-03-28T09:09:14Z</time></trkpt><trkpt lat="39.807506981646924" lon="9.562197860744671"><ele>159.0</ele><time>2026-03-28T09:09:15Z</time></trkpt><trkpt lat="39.807542717759034" lon="9.56239935907138"><ele>158.66666666666666</ele><time>2026-03-28T09:09:16Z</time></trkpt><trkpt lat="39.807578649283506" lon="9.562610461830412"><ele>158.33333333333331</ele><time>2026-03-28T09:09:17Z</time></trkpt><trkpt lat="39.80761292663354" lon="9.562831509952732"><ele>158.0</ele><time>2026-03-28T09:09:18Z</time></trkpt><trkpt lat="39.80763679248857" lon="9.56305546572449"><ele>158.0</ele><time>2026-03-28T09:09:19Z</time></trkpt><trkpt lat="39.80765306865011" lon="9.563278954018852"><ele>158.0</ele><time>2026-03-28T09:09:20Z</time></trkpt><trkpt lat="39.8076809917381" lon="9.563493512516231"><ele>158.0</ele><time>2026-03-28T09:09:21Z</time></trkpt><trkpt lat="39.80773002055353" lon="9.56369042246355"><ele>147.66666666666666</ele><time>2026-03-28T09:09:22Z</time></trkpt><trkpt lat="39.807774726707265" lon="9.563889047916765"><ele>137.33333333333334</ele><time>2026-03-28T09:09:23Z</time></trkpt><trkpt lat="39.80778373065303" lon="9.564084498176774"><ele>127.0</ele><time>2026-03-28T09:09:24Z</time></trkpt><trkpt lat="39.807784412674636" lon="9.56428742181504"><ele>127.0</ele><time>2026-03-28T09:09:25Z</time></trkpt><trkpt lat="39.80778776724645" lon="9.564493606952999"><ele>127.0</ele><time>2026-03-28T09:09:26Z</time></trkpt><trkpt lat="39.807794800260744" lon="9.564706205226956"><ele>127.0</ele><time>2026-03-28T09:09:27Z</time></trkpt><trkpt lat="39.80780283965845" lon="9.564923722220822"><ele>126.33333333333334</ele><time>2026-03-28T09:09:28Z</time></trkpt><trkpt lat="39.807815313266545" lon="9.565140816910482"><ele>125.66666666666666</ele><time>2026-03-28T09:09:29Z</time></trkpt><trkpt lat="39.807839359099674" lon="9.56535873357541"><ele>125.0</ele><time>2026-03-28T09:09:30Z</time></trkpt><trkpt lat="39.807869810810644" lon="9.565578741175413"><ele>124.33333333333333</ele><time>2026-03-28T09:09:31Z</time></trkpt><trkpt lat="39.807899644891464" lon="9.565798581537743"><ele>123.66666666666666</ele><time>2026-03-28T09:09:32Z</time></trkpt><trkpt lat="39.80791652779775" lon="9.56601419650398"><ele>123.0</ele><time>2026-03-28T09:09:33Z</time></trkpt><trkpt lat="39.80791404003276" lon="9.566222575023868"><ele>123.0</ele><time>2026-03-28T09:09:34Z</time></trkpt><trkpt lat="39.80791263003575" lon="9.566414161047458"><ele>123.0</ele><time>2026-03-28T09:09:35Z</time></trkpt><trkpt lat="39.807953285896005" lon="9.5665882162285"><ele>123.0</ele><time>2026-03-28T09:09:36Z</time></trkpt><trkpt lat="39.808026680192185" lon="9.566742902979296"><ele>123.0</ele><time>2026-03-28T09:09:37Z</time></trkpt><trkpt lat="39.80807678853528" lon="9.566902844909382"><ele>123.25</ele><time>2026-03-28T09:09:38Z</time></trkpt><trkpt lat="39.80806627156469" lon="9.567082189797526"><ele>123.5</ele><time>2026-03-28T09:09:39Z</time></trkpt><trkpt lat="39.8080131286171" lon="9.567252372231039"><ele>123.75</ele><time>2026-03-28T09:09:40Z</time></trkpt><trkpt lat="39.80797182287738" lon="9.56742510179706"><ele>124.0</ele><time>2026-03-28T09:09:41Z</time></trkpt><trkpt lat="39.80797308888006" lon="9.567613593491943"><ele>124.0</ele><time>2026-03-28T09:09:42Z</time></trkpt><trkpt lat="39.80802706994696" lon="9.567796605349919"><ele>124.0</ele><time>2026-03-28T09:09:43Z</time></trkpt><trkpt lat="39.80810428222763" lon="9.567970296910666"><ele>124.0</ele><time>2026-03-28T09:09:44Z</time></trkpt><trkpt lat="39.80817729875806" lon="9.568151074872668"><ele>124.25</ele><time>2026-03-28T09:09:45Z</time></trkpt><trkpt lat="39.808223294129164" lon="9.568342330633078"><ele>124.5</ele><time>2026-03-28T09:09:46Z</time></trkpt><trkpt lat="39.80822318072427" lon="9.568534317221557"><ele>124.75</ele><time>2026-03-28T09:09:47Z</time></trkpt><trkpt lat="39.808190376701916" lon="9.56871478429125"><ele>125.0</ele><time>2026-03-28T09:09:48Z</time></trkpt><trkpt lat="39.808130620618385" lon="9.568868728273966"><ele>124.5</ele><time>2026-03-28T09:09:49Z</time></trkpt><trkpt lat="39.808082129484234" lon="9.569003655726544"><ele>124.0</ele><time>2026-03-28T09:09:50Z</time></trkpt><trkpt lat="39.80808726364244" lon="9.569144232625614"><ele>123.5</ele><time>2026-03-28T09:09:51Z</time></trkpt><trkpt lat="39.808145791058315" lon="9.5692949174513"><ele>123.0</ele><time>2026-03-28T09:09:52Z</time></trkpt><trkpt lat="39.80820830572286" lon="9.569445055500372"><ele>122.5</ele><time>2026-03-28T09:09:53Z</time></trkpt><trkpt lat="39.80825645435077" lon="9.569612974596305"><ele>122.0</ele><time>2026-03-28T09:09:54Z</time></trkpt><trkpt lat="39.80828712447471" lon="9.56979296425282"><ele>121.5</ele><time>2026-03-28T09:09:55Z</time></trkpt><trkpt lat="39.80831095205965" lon="9.569974765685696"><ele>121.0</ele><time>2026-03-28T09:09:56Z</time></trkpt><trkpt lat="39.80833324448889" lon="9.570160603773136"><ele>121.0</ele><time>2026-03-28T09:09:57Z</time></trkpt><trkpt lat="39.80835394161786" lon="9.570349678500362"><ele>121.0</ele><time>2026-03-28T09:09:58Z</time></trkpt><trkpt lat="39.808368976039546" lon="9.570544095899345"><ele>121.0</ele><time>2026-03-28T09:09:59Z</time></trkpt><trkpt lat="39.80837342857181" lon="9.57074020810659"><ele>121.0</ele><time>2026-03-28T09:10:00Z</time></trkpt><trkpt lat="39.80837665882822" lon="9.570936710294212"><ele>121.33333333333334</ele><time>2026-03-28T09:10:01Z</time></trkpt><trkpt lat="39.8083852093807" lon="9.571134247660009"><ele>121.66666666666666</ele><time>2026-03-28T09:10:02Z</time></trkpt><trkpt lat="39.808410496354504" lon="9.57132693716485"><ele>122.0</ele><time>2026-03-28T09:10:03Z</time></trkpt><trkpt lat="39.80845701103997" lon="9.571512331288321"><ele>116.25</ele><time>2026-03-28T09:10:04Z</time></trkpt><trkpt lat="39.80850674700493" lon="9.571695761512771"><ele>110.5</ele><time>2026-03-28T09:10:05Z</time></trkpt><trkpt lat="39.808530136700206" lon="9.571885877905107"><ele>104.75</ele><time>2026-03-28T09:10:06Z</time></trkpt><trkpt lat="39.80852078385997" lon="9.572078918490972"><ele>99.0</ele><time>2026-03-28T09:10:07Z</time></trkpt><trkpt lat="39.80850100749498" lon="9.572266929880923"><ele>99.0</ele><time>2026-03-28T09:10:08Z</time></trkpt><trkpt lat="39.80849136621214" lon="9.572440413222758"><ele>99.0</ele><time>2026-03-28T09:10:09Z</time></trkpt><trkpt lat="39.80849276791446" lon="9.572593093789983"><ele>99.0</ele><time>2026-03-28T09:10:10Z</time></trkpt><trkpt lat="39.8085228670473" lon="9.572734123745567"><ele>99.0</ele><time>2026-03-28T09:10:11Z</time></trkpt><trkpt lat="39.80860096858072" lon="9.572860477191085"><ele>99.0</ele><time>2026-03-28T09:10:12Z</time></trkpt><trkpt lat="39.808686668114476" lon="9.572966798737818"><ele>99.0</ele><time>2026-03-28T09:10:13Z</time></trkpt><trkpt lat="39.80874683784475" lon="9.573085043652192"><ele>99.0</ele><time>2026-03-28T09:10:14Z</time></trkpt><trkpt lat="39.8087601381186" lon="9.573226707894262"><ele>99.0</ele><time>2026-03-28T09:10:15Z</time></trkpt><trkpt lat="39.808732852357856" lon="9.573373161069984"><ele>99.0</ele><time>2026-03-28T09:10:16Z</time></trkpt><trkpt lat="39.80868397927072" lon="9.573515875975406"><ele>99.0</ele><time>2026-03-28T09:10:17Z</time></trkpt><trkpt lat="39.808645667037915" lon="9.57365544661859"><ele>99.0</ele><time>2026-03-28T09:10:18Z</time></trkpt><trkpt lat="39.80861404413093" lon="9.573786773138796"><ele>99.0</ele><time>2026-03-28T09:10:19Z</time></trkpt><trkpt lat="39.80860128464627" lon="9.573916018688998"><ele>99.0</ele><time>2026-03-28T09:10:20Z</time></trkpt><trkpt lat="39.8086146119593" lon="9.574045326033893"><ele>98.80000000000001</ele><time>2026-03-28T09:10:21Z</time></trkpt><trkpt lat="39.80866916368001" lon="9.574154947960324"><ele>98.60000000000001</ele><time>2026-03-28T09:10:22Z</time></trkpt><trkpt lat="39.808755318893006" lon="9.574235859658414"><ele>98.4</ele><time>2026-03-28T09:10:23Z</time></trkpt><trkpt lat="39.808852707121446" lon="9.574302052855517"><ele>98.2</ele><time>2026-03-28T09:10:24Z</time></trkpt><trkpt lat="39.808950490854606" lon="9.574365209548636"><ele>98.0</ele><time>2026-03-28T09:10:25Z</time></trkpt><trkpt lat="39.80903819387813" lon="9.574459059637997"><ele>99.0</ele><time>2026-03-28T09:10:26Z</time></trkpt><trkpt lat="39.80910285732357" lon="9.57458398453783"><ele>100.0</ele><time>2026-03-28T09:10:27Z</time></trkpt><trkpt lat="39.809141409097656" lon="9.574729007035794"><ele>101.0</ele><time>2026-03-28T09:10:28Z</time></trkpt><trkpt lat="39.80915607013246" lon="9.574881879784119"><ele>102.0</ele><time>2026-03-28T09:10:29Z</time></trkpt><trkpt lat="39.8091603023542" lon="9.575039443075408"><ele>102.0</ele><time>2026-03-28T09:10:30Z</time></trkpt><trkpt lat="39.80914233572446" lon="9.575204575008604"><ele>102.0</ele><time>2026-03-28T09:10:31Z</time></trkpt><trkpt lat="39.80910260351746" lon="9.575373877591687"><ele>102.0</ele><time>2026-03-28T09:10:32Z</time></trkpt><trkpt lat="39.80905497369512" lon="9.575543099383433"><ele>102.0</ele><time>2026-03-28T09:10:33Z</time></trkpt><trkpt lat="39.80901106211583" lon="9.57571578002946"><ele>101.75</ele><time>2026-03-28T09:10:34Z</time></trkpt><trkpt lat="39.80897876815096" lon="9.575896192184771"><ele>101.5</ele><time>2026-03-28T09:10:35Z</time></trkpt><trkpt lat="39.80894961989317" lon="9.576073852895869"><ele>101.25</ele><time>2026-03-28T09:10:36Z</time></trkpt><trkpt lat="39.80891864621475" lon="9.576247364181564"><ele>101.0</ele><time>2026-03-28T09:10:37Z</time></trkpt><trkpt lat="39.80888836584299" lon="9.576419309338787"><ele>100.5</ele><time>2026-03-28T09:10:38Z</time></trkpt><trkpt lat="39.80886058270946" lon="9.576589027589964"><ele>100.0</ele><time>2026-03-28T09:10:39Z</time></trkpt><trkpt lat="39.808816031221134" lon="9.576739399946948"><ele>99.5</ele><time>2026-03-28T09:10:40Z</time></trkpt><trkpt lat="39.808743015402065" lon="9.576870616706769"><ele>99.0</ele><time>2026-03-28T09:10:41Z</time></trkpt><trkpt lat="39.808639285360705" lon="9.576962577885896"><ele>99.0</ele><time>2026-03-28T09:10:42Z</time></trkpt><trkpt lat="39.80851211672619" lon="9.577006365941951"><ele>99.0</ele><time>2026-03-28T09:10:43Z</time></trkpt><trkpt lat="39.80837410348495" lon="9.577015071351784"><ele>99.0</ele><time>2026-03-28T09:10:44Z</time></trkpt><trkpt lat="39.80823321344488" lon="9.577002622348248"><ele>99.0</ele><time>2026-03-28T09:10:45Z</time></trkpt><trkpt lat="39.80809221633982" lon="9.576992378369118"><ele>99.0</ele><time>2026-03-28T09:10:46Z</time></trkpt><trkpt lat="39.807955632008536" lon="9.576996318485582"><ele>99.0</ele><time>2026-03-28T09:10:47Z</time></trkpt><trkpt lat="39.80782844862183" lon="9.577030947327357"><ele>99.0</ele><time>2026-03-28T09:10:48Z</time></trkpt><trkpt lat="39.80771761414712" lon="9.577118846652759"><ele>99.0</ele><time>2026-03-28T09:10:49Z</time></trkpt><trkpt lat="39.807624512536776" lon="9.577238315439844"><ele>99.0</ele><time>2026-03-28T09:10:50Z</time></trkpt><trkpt lat="39.807539233554834" lon="9.5773697179196"><ele>99.0</ele><time>2026-03-28T09:10:51Z</time></trkpt><trkpt lat="39.80744349070809" lon="9.577486470757126"><ele>99.0</ele><time>2026-03-28T09:10:52Z</time></trkpt><trkpt lat="39.80733041561725" lon="9.577572769707421"><ele>99.0</ele><time>2026-03-28T09:10:53Z</time></trkpt><trkpt lat="39.807201186779" lon="9.57762900483898"><ele>99.0</ele><time>2026-03-28T09:10:54Z</time></trkpt><trkpt lat="39.80706650936327" lon="9.577666244631475"><ele>99.0</ele><time>2026-03-28T09:10:55Z</time></trkpt><trkpt lat="39.8069309571999" lon="9.57769823647939"><ele>99.0</ele><time>2026-03-28T09:10:56Z</time></trkpt><trkpt lat="39.80679723458338" lon="9.57774541521283"><ele>99.0</ele><time>2026-03-28T09:10:57Z</time></trkpt><trkpt lat="39.8066706088848" lon="9.577819745718534"><ele>98.25</ele><time>2026-03-28T09:10:58Z</time></trkpt><trkpt lat="39.80655075643936" lon="9.577913200273418"><ele>97.5</ele><time>2026-03-28T09:10:59Z</time></trkpt><trkpt lat="39.806425208050236" lon="9.577996371026908"><ele>96.75</ele><time>2026-03-28T09:11:00Z</time></trkpt><trkpt lat="39.806294584370306" lon="9.578065420303561"><ele>96.0</ele><time>2026-03-28T09:11:01Z</time></trkpt><trkpt lat="39.806161588259236" lon="9.578124133866078"><ele>96.0</ele><time>2026-03-28T09:11:02Z</time></trkpt><trkpt lat="39.806027953337825" lon="9.578172731215634"><ele>96.0</ele><time>2026-03-28T09:11:03Z</time></trkpt><trkpt lat="39.805897708038145" lon="9.578202963465651"><ele>96.0</ele><time>2026-03-28T09:11:04Z</time></trkpt><trkpt lat="39.805774045866535" lon="9.578224805504648"><ele>96.0</ele><time>2026-03-28T09:11:05Z</time></trkpt><trkpt lat="39.80566304048768" lon="9.578259357843649"><ele>96.75</ele><time>2026-03-28T09:11:06Z</time></trkpt><trkpt lat="39.80557579774081" lon="9.578334659835615"><ele>97.5</ele><time>2026-03-28T09:11:07Z</time></trkpt><trkpt lat="39.80552477235248" lon="9.578463540485906"><ele>98.25</ele><time>2026-03-28T09:11:08Z</time></trkpt><trkpt lat="39.805506833739074" lon="9.578612258241035"><ele>99.0</ele><time>2026-03-28T09:11:09Z</time></trkpt><trkpt lat="39.80549761387619" lon="9.57876942187821"><ele>97.5</ele><time>2026-03-28T09:11:10Z</time></trkpt><trkpt lat="39.80548472326296" lon="9.578930866949856"><ele>96.0</ele><time>2026-03-28T09:11:11Z</time></trkpt><trkpt lat="39.80546869249775" lon="9.57910002876801"><ele>94.5</ele><time>2026-03-28T09:11:12Z</time></trkpt><trkpt lat="39.80544327824665" lon="9.579273021824358"><ele>93.0</ele><time>2026-03-28T09:11:13Z</time></trkpt><trkpt lat="39.80540554134822" lon="9.579444304179637"><ele>92.25</ele><time>2026-03-28T09:11:14Z</time></trkpt><trkpt lat="39.80534866509076" lon="9.579605672077337"><ele>91.5</ele><time>2026-03-28T09:11:15Z</time></trkpt><trkpt lat="39.80527359644355" lon="9.579755185553402"><ele>90.75</ele><time>2026-03-28T09:11:16Z</time></trkpt><trkpt lat="39.80518842924616" lon="9.579897412315287"><ele>90.0</ele><time>2026-03-28T09:11:17Z</time></trkpt><trkpt lat="39.80508884917842" lon="9.580026118322383"><ele>92.25</ele><time>2026-03-28T09:11:18Z</time></trkpt><trkpt lat="39.804977811149584" lon="9.580137577755163"><ele>94.5</ele><time>2026-03-28T09:11:19Z</time></trkpt><trkpt lat="39.80485654392224" lon="9.580229263604174"><ele>96.75</ele><time>2026-03-28T09:11:20Z</time></trkpt><trkpt lat="39.804723902653436" lon="9.580284215029012"><ele>99.0</ele><time>2026-03-28T09:11:21Z</time></trkpt><trkpt lat="39.80458709401655" lon="9.580298836116677"><ele>99.0</ele><time>2026-03-28T09:11:22Z</time></trkpt><trkpt lat="39.804461558994554" lon="9.580304423569755"><ele>99.0</ele><time>2026-03-28T09:11:23Z</time></trkpt><trkpt lat="39.804352829123175" lon="9.580357667923154"><ele>99.0</ele><time>2026-03-28T09:11:24Z</time></trkpt><trkpt lat="39.80428054134988" lon="9.580469158089675"><ele>99.0</ele><time>2026-03-28T09:11:25Z</time></trkpt><trkpt lat="39.80425571914239" lon="9.580615865121391"><ele>98.0</ele><time>2026-03-28T09:11:26Z</time></trkpt><trkpt lat="39.80426221091132" lon="9.580776120795377"><ele>97.0</ele><time>2026-03-28T09:11:27Z</time></trkpt><trkpt lat="39.804258730339605" lon="9.580936426266762"><ele>96.0</ele><time>2026-03-28T09:11:28Z</time></trkpt><trkpt lat="39.804234523919305" lon="9.581103359567843"><ele>95.0</ele><time>2026-03-28T09:11:29Z</time></trkpt><trkpt lat="39.804171754187436" lon="9.58126352010937"><ele>93.0</ele><time>2026-03-28T09:11:30Z</time></trkpt><trkpt lat="39.80408891514632" lon="9.581408826162951"><ele>91.0</ele><time>2026-03-28T09:11:31Z</time></trkpt><trkpt lat="39.80400031982999" lon="9.581553738718402"><ele>89.0</ele><time>2026-03-28T09:11:32Z</time></trkpt><trkpt lat="39.80389854007846" lon="9.581692434813807"><ele>87.0</ele><time>2026-03-28T09:11:33Z</time></trkpt><trkpt lat="39.80378805879087" lon="9.58182289198641"><ele>87.0</ele><time>2026-03-28T09:11:34Z</time></trkpt><trkpt lat="39.803675346997565" lon="9.581954274052128"><ele>87.0</ele><time>2026-03-28T09:11:35Z</time></trkpt><trkpt lat="39.80356228346948" lon="9.582089119756777"><ele>87.0</ele><time>2026-03-28T09:11:36Z</time></trkpt><trkpt lat="39.803451947499774" lon="9.582229460983815"><ele>86.66666666666667</ele><time>2026-03-28T09:11:37Z</time></trkpt><trkpt lat="39.80334696177851" lon="9.582377021767503"><ele>86.33333333333334</ele><time>2026-03-28T09:11:38Z</time></trkpt><trkpt lat="39.80325598037349" lon="9.582544166190953"><ele>86.0</ele><time>2026-03-28T09:11:39Z</time></trkpt><trkpt lat="39.80318931255745" lon="9.582733623894303"><ele>84.66666666666667</ele><time>2026-03-28T09:11:40Z</time></trkpt><trkpt lat="39.80314859281538" lon="9.58294063425393"><ele>83.33333333333333</ele><time>2026-03-28T09:11:41Z</time></trkpt><trkpt lat="39.803125102256104" lon="9.583150344524734"><ele>82.0</ele><time>2026-03-28T09:11:42Z</time></trkpt><trkpt lat="39.80309678968145" lon="9.583367389440737"><ele>82.0</ele><time>2026-03-28T09:11:43Z</time></trkpt><trkpt lat="39.80306533384047" lon="9.583589978242333"><ele>82.0</ele><time>2026-03-28T09:11:44Z</time></trkpt><trkpt lat="39.803030494948075" lon="9.583812596319277"><ele>82.0</ele><time>2026-03-28T09:11:45Z</time></trkpt><trkpt lat="39.80299741239044" lon="9.584036686308714"><ele>83.33333333333333</ele><time>2026-03-28T09:11:46Z</time></trkpt><trkpt lat="39.80296585409885" lon="9.58426198264246"><ele>84.66666666666667</ele><time>2026-03-28T09:11:47Z</time></trkpt><trkpt lat="39.80293446180211" lon="9.584490786290326"><ele>86.0</ele><time>2026-03-28T09:11:48Z</time></trkpt><trkpt lat="39.80290315313336" lon="9.584719844480702"><ele>86.33333333333334</ele><time>2026-03-28T09:11:49Z</time></trkpt><trkpt lat="39.8028727086771" lon="9.58495330638833"><ele>86.66666666666667</ele><time>2026-03-28T09:11:50Z</time></trkpt><trkpt lat="39.80284345655039" lon="9.585189810089147"><ele>87.0</ele><time>2026-03-28T09:11:51Z</time></trkpt><trkpt lat="39.80281365194724" lon="9.58542946642286"><ele>85.0</ele><time>2026-03-28T09:11:52Z</time></trkpt><trkpt lat="39.80278194576051" lon="9.585667843348027"><ele>83.0</ele><time>2026-03-28T09:11:53Z</time></trkpt><trkpt lat="39.80274796024573" lon="9.585906084261518"><ele>81.0</ele><time>2026-03-28T09:11:54Z</time></trkpt><trkpt lat="39.802711299233216" lon="9.586155410674056"><ele>80.66666666666667</ele><time>2026-03-28T09:11:55Z</time></trkpt><trkpt lat="39.802671743305105" lon="9.586397366480693"><ele>80.33333333333334</ele><time>2026-03-28T09:11:56Z</time></trkpt><trkpt lat="39.80262716147648" lon="9.586642379958828"><ele>80.0</ele><time>2026-03-28T09:11:57Z</time></trkpt><trkpt lat="39.80257830323212" lon="9.586885965371184"><ele>78.66666666666667</ele><time>2026-03-28T09:11:58Z</time></trkpt><trkpt lat="39.802527306741226" lon="9.587130119876768"><ele>77.33333333333333</ele><time>2026-03-28T09:11:59Z</time></trkpt><trkpt lat="39.802476240943065" lon="9.587374102390882"><ele>76.0</ele><time>2026-03-28T09:12:00Z</time></trkpt><trkpt lat="39.80242596001842" lon="9.587619644776444"><ele>76.33333333333333</ele><time>2026-03-28T09:12:01Z</time></trkpt><trkpt lat="39.80237501764073" lon="9.587863270860106"><ele>76.66666666666667</ele><time>2026-03-28T09:12:02Z</time></trkpt><trkpt lat="39.80232406397113" lon="9.58810673395171"><ele>77.0</ele><time>2026-03-28T09:12:03Z</time></trkpt><trkpt lat="39.80227318176556" lon="9.588346500152577"><ele>77.0</ele><time>2026-03-28T09:12:04Z</time></trkpt><trkpt lat="39.8022231034528" lon="9.588587295916854"><ele>77.0</ele><time>2026-03-28T09:12:05Z</time></trkpt><trkpt lat="39.80217288418069" lon="9.588825965850702"><ele>77.0</ele><time>2026-03-28T09:12:06Z</time></trkpt><trkpt lat="39.80212318361571" lon="9.58906216908692"><ele>76.66666666666667</ele><time>2026-03-28T09:12:07Z</time></trkpt><trkpt lat="39.802073324750936" lon="9.589297582108943"><ele>76.33333333333333</ele><time>2026-03-28T09:12:08Z</time></trkpt><trkpt lat="39.802024782941814" lon="9.589527046160022"><ele>76.0</ele><time>2026-03-28T09:12:09Z</time></trkpt><trkpt lat="39.80197844000382" lon="9.589741087871758"><ele>74.0</ele><time>2026-03-28T09:12:10Z</time></trkpt><trkpt lat="39.80193482209186" lon="9.58994593785554"><ele>72.0</ele><time>2026-03-28T09:12:11Z</time></trkpt><trkpt lat="39.80189340749723" lon="9.590144874512427"><ele>70.0</ele><time>2026-03-28T09:12:12Z</time></trkpt><trkpt lat="39.80184062836127" lon="9.590401896474143"><ele>69.0</ele><time>2026-03-28T09:12:13Z</time></trkpt><trkpt lat="39.801820234957304" lon="9.590614203713475"><ele>68.0</ele><time>2026-03-28T09:12:14Z</time></trkpt><trkpt lat="39.801816757519326" lon="9.590831605318373"><ele>67.0</ele><time>2026-03-28T09:12:15Z</time></trkpt><trkpt lat="39.80183407079026" lon="9.591052376532867"><ele>64.66666666666666</ele><time>2026-03-28T09:12:16Z</time></trkpt><trkpt lat="39.801869309489426" lon="9.59127439141782"><ele>62.33333333333333</ele><time>2026-03-28T09:12:17Z</time></trkpt><trkpt lat="39.801916029486506" lon="9.591493357559546"><ele>60.0</ele><time>2026-03-28T09:12:18Z</time></trkpt><trkpt lat="39.80196593470763" lon="9.591712525839142"><ele>60.0</ele><time>2026-03-28T09:12:19Z</time></trkpt><trkpt lat="39.802011759649545" lon="9.59192860737733"><ele>60.0</ele><time>2026-03-28T09:12:20Z</time></trkpt><trkpt lat="39.80205024241943" lon="9.592139470162463"><ele>60.0</ele><time>2026-03-28T09:12:21Z</time></trkpt><trkpt lat="39.802079370513326" lon="9.592344214714537"><ele>58.0</ele><time>2026-03-28T09:12:22Z</time></trkpt><trkpt lat="39.80208684859188" lon="9.59254900012883"><ele>56.0</ele><time>2026-03-28T09:12:23Z</time></trkpt><trkpt lat="39.80203857438609" lon="9.59274048155543"><ele>54.0</ele><time>2026-03-28T09:12:24Z</time></trkpt><trkpt lat="39.80197814346508" lon="9.592930034037131"><ele>56.0</ele><time>2026-03-28T09:12:25Z</time></trkpt><trkpt lat="39.80190747363113" lon="9.593118785619916"><ele>58.0</ele><time>2026-03-28T09:12:26Z</time></trkpt><trkpt lat="39.801831308944216" lon="9.593312204807425"><ele>60.0</ele><time>2026-03-28T09:12:27Z</time></trkpt><trkpt lat="39.801764985229596" lon="9.593514252946711"><ele>57.33333333333333</ele><time>2026-03-28T09:12:28Z</time></trkpt><trkpt lat="39.8016876274453" lon="9.593709056639053"><ele>54.666666666666664</ele><time>2026-03-28T09:12:29Z</time></trkpt><trkpt lat="39.80162354439182" lon="9.593911444133285"><ele>52.0</ele><time>2026-03-28T09:12:30Z</time></trkpt><trkpt lat="39.80159392147746" lon="9.594126592005896"><ele>52.0</ele><time>2026-03-28T09:12:31Z</time></trkpt><trkpt lat="39.801595663774094" lon="9.5943465137304"><ele>52.0</ele><time>2026-03-28T09:12:32Z</time></trkpt><trkpt lat="39.80162153293002" lon="9.594555803955814"><ele>52.0</ele><time>2026-03-28T09:12:33Z</time></trkpt><trkpt lat="39.801674123773616" lon="9.594753767276337"><ele>51.0</ele><time>2026-03-28T09:12:34Z</time></trkpt><trkpt lat="39.80177986021029" lon="9.594930041513516"><ele>50.0</ele><time>2026-03-28T09:12:35Z</time></trkpt><trkpt lat="39.80188656014033" lon="9.595097709320902"><ele>49.0</ele><time>2026-03-28T09:12:36Z</time></trkpt><trkpt lat="39.80201652972318" lon="9.595237533669723"><ele>47.33333333333333</ele><time>2026-03-28T09:12:37Z</time></trkpt><trkpt lat="39.80216343377674" lon="9.59534912900284"><ele>45.666666666666664</ele><time>2026-03-28T09:12:38Z</time></trkpt><trkpt lat="39.80230727661908" lon="9.595445020354596"><ele>44.0</ele><time>2026-03-28T09:12:39Z</time></trkpt><trkpt lat="39.8024434768685" lon="9.595536406195588"><ele>44.0</ele><time>2026-03-28T09:12:40Z</time></trkpt><trkpt lat="39.80257121532829" lon="9.595618963125006"><ele>44.0</ele><time>2026-03-28T09:12:41Z</time></trkpt><trkpt lat="39.80268857235567" lon="9.59569645236686"><ele>44.0</ele><time>2026-03-28T09:12:42Z</time></trkpt><trkpt lat="39.80279738608303" lon="9.595767320007228"><ele>44.0</ele><time>2026-03-28T09:12:43Z</time></trkpt><trkpt lat="39.802895353897014" lon="9.595827570448616"><ele>44.6</ele><time>2026-03-28T09:12:44Z</time></trkpt><trkpt lat="39.802977964604615" lon="9.595886601298595"><ele>45.2</ele><time>2026-03-28T09:12:45Z</time></trkpt><trkpt lat="39.803040555603054" lon="9.595946216832793"><ele>45.800000000000004</ele><time>2026-03-28T09:12:46Z</time></trkpt><trkpt lat="39.80310777569596" lon="9.596032185673153"><ele>46.400000000000006</ele><time>2026-03-28T09:12:48Z</time></trkpt><trkpt lat="39.80317320198172" lon="9.596095845084957"><ele>47.0</ele><time>2026-03-28T09:12:51Z</time></trkpt><trkpt lat="39.80323741230704" lon="9.59599132501566"><ele>47.0</ele><time>2026-03-28T09:12:52Z</time></trkpt><trkpt lat="39.80329578744949" lon="9.595923140014856"><ele>47.0</ele><time>2026-03-28T09:12:53Z</time></trkpt><trkpt lat="39.80333889978055" lon="9.595811048131063"><ele>47.0</ele><time>2026-03-28T09:12:54Z</time></trkpt><trkpt lat="39.80342258952266" lon="9.595731630554598"><ele>47.0</ele><time>2026-03-28T09:12:55Z</time></trkpt><trkpt lat="39.803515918800876" lon="9.595638148698844"><ele>47.0</ele><time>2026-03-28T09:12:56Z</time></trkpt><trkpt lat="39.80361877387047" lon="9.595523461371034"><ele>47.25</ele><time>2026-03-28T09:12:57Z</time></trkpt><trkpt lat="39.803733219186455" lon="9.595418790342057"><ele>47.5</ele><time>2026-03-28T09:12:58Z</time></trkpt><trkpt lat="39.803849518885194" lon="9.595305192308784"><ele>47.75</ele><time>2026-03-28T09:12:59Z</time></trkpt><trkpt lat="39.80397072693892" lon="9.59518246223381"><ele>48.0</ele><time>2026-03-28T09:13:00Z</time></trkpt><trkpt lat="39.804096726449735" lon="9.595055400629153"><ele>48.0</ele><time>2026-03-28T09:13:01Z</time></trkpt><trkpt lat="39.804220298092304" lon="9.59492178185883"><ele>48.0</ele><time>2026-03-28T09:13:02Z</time></trkpt><trkpt lat="39.804339343780825" lon="9.594789602668046"><ele>48.0</ele><time>2026-03-28T09:13:03Z</time></trkpt><trkpt lat="39.8044448557389" lon="9.5946588084103"><ele>48.25</ele><time>2026-03-28T09:13:04Z</time></trkpt><trkpt lat="39.804544033330046" lon="9.594529892527495"><ele>48.5</ele><time>2026-03-28T09:13:05Z</time></trkpt><trkpt lat="39.804650887740976" lon="9.594416493602338"><ele>48.75</ele><time>2026-03-28T09:13:06Z</time></trkpt><trkpt lat="39.804725871986086" lon="9.594282096511963"><ele>49.0</ele><time>2026-03-28T09:13:07Z</time></trkpt><trkpt lat="39.804793932619" lon="9.59419622707219"><ele>49.0</ele><time>2026-03-28T09:13:08Z</time></trkpt><trkpt lat="39.804865599834926" lon="9.594137421825915"><ele>49.0</ele><time>2026-03-28T09:13:10Z</time></trkpt><trkpt lat="39.80494564249844" lon="9.594245302316383"><ele>49.0</ele><time>2026-03-28T09:13:13Z</time></trkpt><trkpt lat="39.804997253700456" lon="9.594296436223653"><ele>49.0</ele><time>2026-03-28T09:13:14Z</time></trkpt><trkpt lat="39.805073425237055" lon="9.594348227523508"><ele>49.0</ele><time>2026-03-28T09:13:15Z</time></trkpt><trkpt lat="39.80516074046762" lon="9.594425234185593"><ele>51.0</ele><time>2026-03-28T09:13:16Z</time></trkpt><trkpt lat="39.80526511254712" lon="9.594501865474138"><ele>53.0</ele><time>2026-03-28T09:13:17Z</time></trkpt><trkpt lat="39.8053809248646" lon="9.594570224986995"><ele>55.0</ele><time>2026-03-28T09:13:18Z</time></trkpt><trkpt lat="39.805489316465795" lon="9.594633495737591"><ele>57.0</ele><time>2026-03-28T09:13:19Z</time></trkpt><trkpt lat="39.805603187500616" lon="9.5946830432464"><ele>57.5</ele><time>2026-03-28T09:13:20Z</time></trkpt><trkpt lat="39.80572002455684" lon="9.59473537802039"><ele>58.0</ele><time>2026-03-28T09:13:21Z</time></trkpt><trkpt lat="39.805839450577" lon="9.594784815111202"><ele>58.5</ele><time>2026-03-28T09:13:22Z</time></trkpt><trkpt lat="39.80596428075593" lon="9.594819165724584"><ele>59.0</ele><time>2026-03-28T09:13:23Z</time></trkpt><trkpt lat="39.80609240543939" lon="9.594838215122245"><ele>60.0</ele><time>2026-03-28T09:13:24Z</time></trkpt><trkpt lat="39.806216588448926" lon="9.59485785417067"><ele>61.0</ele><time>2026-03-28T09:13:25Z</time></trkpt><trkpt lat="39.80633352836627" lon="9.594882663309662"><ele>62.0</ele><time>2026-03-28T09:13:26Z</time></trkpt><trkpt lat="39.80644848398559" lon="9.594898943741917"><ele>63.0</ele><time>2026-03-28T09:13:27Z</time></trkpt><trkpt lat="39.80656471041486" lon="9.594914966730622"><ele>63.0</ele><time>2026-03-28T09:13:28Z</time></trkpt><trkpt lat="39.806681122227346" lon="9.594933916716716"><ele>63.0</ele><time>2026-03-28T09:13:29Z</time></trkpt><trkpt lat="39.80680080544691" lon="9.59494658836225"><ele>63.0</ele><time>2026-03-28T09:13:30Z</time></trkpt><trkpt lat="39.80692206434398" lon="9.59494693649124"><ele>63.0</ele><time>2026-03-28T09:13:31Z</time></trkpt><trkpt lat="39.807045131701834" lon="9.59493601017304"><ele>63.5</ele><time>2026-03-28T09:13:32Z</time></trkpt><trkpt lat="39.80716621033488" lon="9.594916458443883"><ele>64.0</ele><time>2026-03-28T09:13:33Z</time></trkpt><trkpt lat="39.807285306553965" lon="9.594895409039907"><ele>64.5</ele><time>2026-03-28T09:13:34Z</time></trkpt><trkpt lat="39.807401600346296" lon="9.594876224290802"><ele>65.0</ele><time>2026-03-28T09:13:35Z</time></trkpt><trkpt lat="39.8075154792241" lon="9.594855534033156"><ele>65.0</ele><time>2026-03-28T09:13:36Z</time></trkpt><trkpt lat="39.80762885253862" lon="9.59483799668779"><ele>65.0</ele><time>2026-03-28T09:13:37Z</time></trkpt><trkpt lat="39.80774265463407" lon="9.59482665917205"><ele>65.0</ele><time>2026-03-28T09:13:38Z</time></trkpt><trkpt lat="39.807856189126824" lon="9.594810689315464"><ele>65.0</ele><time>2026-03-28T09:13:39Z</time></trkpt><trkpt lat="39.80796402176668" lon="9.594789787835163"><ele>65.0</ele><time>2026-03-28T09:13:40Z</time></trkpt><trkpt lat="39.808067886117215" lon="9.594773926451664"><ele>65.0</ele><time>2026-03-28T09:13:41Z</time></trkpt><trkpt lat="39.80816814929506" lon="9.594763890904423"><ele>65.0</ele><time>2026-03-28T09:13:42Z</time></trkpt><trkpt lat="39.80826640246675" lon="9.594750341726904"><ele>65.0</ele><time>2026-03-28T09:13:43Z</time></trkpt><trkpt lat="39.808363898182044" lon="9.594730760101921"><ele>65.0</ele><time>2026-03-28T09:13:44Z</time></trkpt><trkpt lat="39.80845965174069" lon="9.594711275672461"><ele>65.6</ele><time>2026-03-28T09:13:45Z</time></trkpt><trkpt lat="39.80855710559311" lon="9.594696448807387"><ele>66.2</ele><time>2026-03-28T09:13:46Z</time></trkpt><trkpt lat="39.80865914708848" lon="9.594677453300287"><ele>66.8</ele><time>2026-03-28T09:13:47Z</time></trkpt><trkpt lat="39.80876330611375" lon="9.594650403401483"><ele>67.4</ele><time>2026-03-28T09:13:48Z</time></trkpt><trkpt lat="39.80886793923457" lon="9.594615971020488"><ele>68.0</ele><time>2026-03-28T09:13:49Z</time></trkpt><trkpt lat="39.80897542560347" lon="9.594587865086792"><ele>68.0</ele><time>2026-03-28T09:13:50Z</time></trkpt><trkpt lat="39.80908540729845" lon="9.594563045170633"><ele>68.0</ele><time>2026-03-28T09:13:51Z</time></trkpt><trkpt lat="39.80919464381266" lon="9.594541102134476"><ele>68.0</ele><time>2026-03-28T09:13:52Z</time></trkpt><trkpt lat="39.80930296852051" lon="9.594521778748534"><ele>68.0</ele><time>2026-03-28T09:13:53Z</time></trkpt><trkpt lat="39.809407237997775" lon="9.59449824086429"><ele>68.0</ele><time>2026-03-28T09:13:54Z</time></trkpt><trkpt lat="39.809503504985194" lon="9.594470524521977"><ele>70.33333333333334</ele><time>2026-03-28T09:13:55Z</time></trkpt><trkpt lat="39.80958220065509" lon="9.594463296999177"><ele>72.66666666666667</ele><time>2026-03-28T09:13:56Z</time></trkpt><trkpt lat="39.80964433286208" lon="9.594490044846413"><ele>75.0</ele><time>2026-03-28T09:13:57Z</time></trkpt><trkpt lat="39.80972121964079" lon="9.594625363350668"><ele>77.33333333333333</ele><time>2026-03-28T09:13:59Z</time></trkpt><trkpt lat="39.809735655777295" lon="9.594725895801012"><ele>79.66666666666666</ele><time>2026-03-28T09:14:00Z</time></trkpt><trkpt lat="39.80972366444518" lon="9.594829956838721"><ele>82.0</ele><time>2026-03-28T09:14:01Z</time></trkpt><trkpt lat="39.80967367155317" lon="9.594905391287032"><ele>82.0</ele><time>2026-03-28T09:14:02Z</time></trkpt><trkpt lat="39.8096299079264" lon="9.594991994141635"><ele>82.0</ele><time>2026-03-28T09:14:03Z</time></trkpt><trkpt lat="39.809582776894935" lon="9.595093664577922"><ele>82.0</ele><time>2026-03-28T09:14:04Z</time></trkpt><trkpt lat="39.8095457964555" lon="9.595194432110707"><ele>82.0</ele><time>2026-03-28T09:14:05Z</time></trkpt><trkpt lat="39.80953406318169" lon="9.595302766159259"><ele>82.0</ele><time>2026-03-28T09:14:06Z</time></trkpt><trkpt lat="39.809556201239" lon="9.59540595191335"><ele>82.0</ele><time>2026-03-28T09:14:07Z</time></trkpt><trkpt lat="39.80960184180059" lon="9.59549947075633"><ele>80.19999999999999</ele><time>2026-03-28T09:14:08Z</time></trkpt><trkpt lat="39.80967626253622" lon="9.595569017544243"><ele>78.39999999999999</ele><time>2026-03-28T09:14:09Z</time></trkpt><trkpt lat="39.809762982445434" lon="9.59558234096688"><ele>76.6</ele><time>2026-03-28T09:14:10Z</time></trkpt><trkpt lat="39.80985316712855" lon="9.595554554432875"><ele>74.8</ele><time>2026-03-28T09:14:11Z</time></trkpt><trkpt lat="39.809941177887694" lon="9.5955039356723"><ele>73.0</ele><time>2026-03-28T09:14:12Z</time></trkpt><trkpt lat="39.810027016987" lon="9.595450391297144"><ele>73.0</ele><time>2026-03-28T09:14:13Z</time></trkpt><trkpt lat="39.81010784502998" lon="9.595400851882587"><ele>73.0</ele><time>2026-03-28T09:14:14Z</time></trkpt><trkpt lat="39.81017454710009" lon="9.595364183926096"><ele>73.0</ele><time>2026-03-28T09:14:15Z</time></trkpt><trkpt lat="39.81029484286685" lon="9.595303695637309"><ele>73.0</ele><time>2026-03-28T09:14:17Z</time></trkpt><trkpt lat="39.810361923468434" lon="9.595267283815124"><ele>73.0</ele><time>2026-03-28T09:14:18Z</time></trkpt><trkpt lat="39.81043815055561" lon="9.595225819080037"><ele>73.0</ele><time>2026-03-28T09:14:19Z</time></trkpt><trkpt lat="39.81051736348944" lon="9.595185132062863"><ele>76.4</ele><time>2026-03-28T09:14:20Z</time></trkpt><trkpt lat="39.81060591626291" lon="9.59514628785777"><ele>79.8</ele><time>2026-03-28T09:14:21Z</time></trkpt><trkpt lat="39.810691692177805" lon="9.595108434625532"><ele>83.2</ele><time>2026-03-28T09:14:22Z</time></trkpt><trkpt lat="39.81077633068766" lon="9.595064067891572"><ele>86.6</ele><time>2026-03-28T09:14:23Z</time></trkpt><trkpt lat="39.8108558087033" lon="9.595013520433003"><ele>90.0</ele><time>2026-03-28T09:14:24Z</time></trkpt><trkpt lat="39.810930574982365" lon="9.594943835797663"><ele>89.6</ele><time>2026-03-28T09:14:25Z</time></trkpt><trkpt lat="39.81100400325947" lon="9.59487621259131"><ele>89.2</ele><time>2026-03-28T09:14:26Z</time></trkpt><trkpt lat="39.811071428566855" lon="9.594798019341711"><ele>88.80000000000001</ele><time>2026-03-28T09:14:27Z</time></trkpt><trkpt lat="39.81114813290546" lon="9.59473402761571"><ele>88.4</ele><time>2026-03-28T09:14:28Z</time></trkpt><trkpt lat="39.81123779320608" lon="9.594700639252986"><ele>88.0</ele><time>2026-03-28T09:14:29Z</time></trkpt><trkpt lat="39.81133031957686" lon="9.59468964496214"><ele>88.0</ele><time>2026-03-28T09:14:30Z</time></trkpt><trkpt lat="39.81142444448601" lon="9.5946947965263"><ele>88.0</ele><time>2026-03-28T09:14:31Z</time></trkpt><trkpt lat="39.81152273359156" lon="9.59469676156953"><ele>88.0</ele><time>2026-03-28T09:14:32Z</time></trkpt><trkpt lat="39.81161902948554" lon="9.594678907783038"><ele>88.0</ele><time>2026-03-28T09:14:33Z</time></trkpt><trkpt lat="39.8117173938376" lon="9.594650540485176"><ele>88.0</ele><time>2026-03-28T09:14:34Z</time></trkpt><trkpt lat="39.81182078035559" lon="9.594624794658912"><ele>88.60000000000001</ele><time>2026-03-28T09:14:35Z</time></trkpt><trkpt lat="39.81192392334767" lon="9.594597063144075"><ele>89.2</ele><time>2026-03-28T09:14:36Z</time></trkpt><trkpt lat="39.81202948923199" lon="9.59456867059117"><ele>89.8</ele><time>2026-03-28T09:14:37Z</time></trkpt><trkpt lat="39.81213525664813" lon="9.594544239319683"><ele>90.4</ele><time>2026-03-28T09:14:38Z</time></trkpt><trkpt lat="39.81224030206568" lon="9.594516451296293"><ele>91.0</ele><time>2026-03-28T09:14:39Z</time></trkpt><trkpt lat="39.81234374509481" lon="9.594485065134272"><ele>95.6</ele><time>2026-03-28T09:14:40Z</time></trkpt><trkpt lat="39.81244299069317" lon="9.594433976949126"><ele>100.19999999999999</ele><time>2026-03-28T09:14:41Z</time></trkpt><trkpt lat="39.81253030245678" lon="9.594349756503648"><ele>104.80000000000001</ele><time>2026-03-28T09:14:42Z</time></trkpt><trkpt lat="39.8126089418667" lon="9.594247763336018"><ele>109.4</ele><time>2026-03-28T09:14:43Z</time></trkpt><trkpt lat="39.81269412590484" lon="9.59416113131906"><ele>114.0</ele><time>2026-03-28T09:14:44Z</time></trkpt><trkpt lat="39.81279029512704" lon="9.59410617355073"><ele>114.4</ele><time>2026-03-28T09:14:45Z</time></trkpt><trkpt lat="39.81289135486829" lon="9.594067414176466"><ele>114.80000000000001</ele><time>2026-03-28T09:14:46Z</time></trkpt><trkpt lat="39.81299312085951" lon="9.594025452086415"><ele>115.19999999999999</ele><time>2026-03-28T09:14:47Z</time></trkpt><trkpt lat="39.813093203578774" lon="9.593992024539709"><ele>115.6</ele><time>2026-03-28T09:14:48Z</time></trkpt><trkpt lat="39.81319587126213" lon="9.593982161416253"><ele>116.0</ele><time>2026-03-28T09:14:49Z</time></trkpt><trkpt lat="39.81329006702549" lon="9.593987944505724"><ele>115.99999999999999</ele><time>2026-03-28T09:14:50Z</time></trkpt><trkpt lat="39.813366189599286" lon="9.594027186890493"><ele>116.0</ele><time>2026-03-28T09:14:51Z</time></trkpt><trkpt lat="39.81341793744908" lon="9.594092660742184"><ele>116.0</ele><time>2026-03-28T09:14:52Z</time></trkpt><trkpt lat="39.8134518091259" lon="9.59417486434162"><ele>116.0</ele><time>2026-03-28T09:14:53Z</time></trkpt><trkpt lat="39.8134673794835" lon="9.594268623239085"><ele>115.99999999999999</ele><time>2026-03-28T09:14:54Z</time></trkpt><trkpt lat="39.81347191262829" lon="9.594375488136091"><ele>116.0</ele><time>2026-03-28T09:14:55Z</time></trkpt><trkpt lat="39.81347190943787" lon="9.594481934903712"><ele>115.66666666666666</ele><time>2026-03-28T09:14:56Z</time></trkpt><trkpt lat="39.81347920254609" lon="9.594595734906214"><ele>115.33333333333333</ele><time>2026-03-28T09:14:57Z</time></trkpt><trkpt lat="39.813487201402644" lon="9.594714472106897"><ele>115.0</ele><time>2026-03-28T09:14:58Z</time></trkpt><trkpt lat="39.81348918078126" lon="9.59483289804898"><ele>114.66666666666666</ele><time>2026-03-28T09:14:59Z</time></trkpt><trkpt lat="39.81349514661173" lon="9.594941357167468"><ele>114.33333333333333</ele><time>2026-03-28T09:15:00Z</time></trkpt><trkpt lat="39.81352614477364" lon="9.59503371554061"><ele>114.0</ele><time>2026-03-28T09:15:01Z</time></trkpt><trkpt lat="39.813585055492986" lon="9.595094384760975"><ele>114.0</ele><time>2026-03-28T09:15:02Z</time></trkpt><trkpt lat="39.81365899996159" lon="9.59512021758972"><ele>114.0</ele><time>2026-03-28T09:15:03Z</time></trkpt><trkpt lat="39.81373648787903" lon="9.595101399229483"><ele>114.0</ele><time>2026-03-28T09:15:04Z</time></trkpt><trkpt lat="39.813810936545984" lon="9.595044183003699"><ele>114.0</ele><time>2026-03-28T09:15:05Z</time></trkpt><trkpt lat="39.813882027438666" lon="9.594978886382691"><ele>114.0</ele><time>2026-03-28T09:15:06Z</time></trkpt><trkpt lat="39.813960299344984" lon="9.59491557137614"><ele>114.0</ele><time>2026-03-28T09:15:07Z</time></trkpt><trkpt lat="39.814044023044794" lon="9.5948615096804"><ele>114.0</ele><time>2026-03-28T09:15:08Z</time></trkpt><trkpt lat="39.814129268919686" lon="9.594801887608114"><ele>114.0</ele><time>2026-03-28T09:15:09Z</time></trkpt><trkpt lat="39.814218603257" lon="9.594737088712566"><ele>114.0</ele><time>2026-03-28T09:15:10Z</time></trkpt><trkpt lat="39.8143104001714" lon="9.594677907365323"><ele>114.0</ele><time>2026-03-28T09:15:11Z</time></trkpt><trkpt lat="39.8144061192171" lon="9.594623616600108"><ele>114.0</ele><time>2026-03-28T09:15:12Z</time></trkpt><trkpt lat="39.81450607547009" lon="9.594571672925662"><ele>111.4</ele><time>2026-03-28T09:15:13Z</time></trkpt><trkpt lat="39.814602956628256" lon="9.594513979634261"><ele>108.80000000000001</ele><time>2026-03-28T09:15:14Z</time></trkpt><trkpt lat="39.81469926516868" lon="9.594450499308689"><ele>106.19999999999999</ele><time>2026-03-28T09:15:15Z</time></trkpt><trkpt lat="39.814793509204705" lon="9.594373229182498"><ele>103.6</ele><time>2026-03-28T09:15:16Z</time></trkpt><trkpt lat="39.81488731162951" lon="9.594287368019241"><ele>101.0</ele><time>2026-03-28T09:15:17Z</time></trkpt><trkpt lat="39.81498459743682" lon="9.594203736289137"><ele>106.5</ele><time>2026-03-28T09:15:18Z</time></trkpt><trkpt lat="39.81508222730072" lon="9.594120647313884"><ele>112.0</ele><time>2026-03-28T09:15:19Z</time></trkpt><trkpt lat="39.81518013405895" lon="9.594035680766979"><ele>117.5</ele><time>2026-03-28T09:15:20Z</time></trkpt><trkpt lat="39.81527696349988" lon="9.593956481421142"><ele>123.0</ele><time>2026-03-28T09:15:21Z</time></trkpt><trkpt lat="39.81536748769936" lon="9.593861092414018"><ele>123.0</ele><time>2026-03-28T09:15:22Z</time></trkpt><trkpt lat="39.8154686327946" lon="9.593782949662108"><ele>123.0</ele><time>2026-03-28T09:15:23Z</time></trkpt><trkpt lat="39.81556845043592" lon="9.593703922387993"><ele>123.0</ele><time>2026-03-28T09:15:24Z</time></trkpt><trkpt lat="39.81566730236426" lon="9.593622470411862"><ele>123.0</ele><time>2026-03-28T09:15:25Z</time></trkpt><trkpt lat="39.815778732622405" lon="9.593575242592257"><ele>126.4</ele><time>2026-03-28T09:15:26Z</time></trkpt><trkpt lat="39.81588340349513" lon="9.593531973157724"><ele>129.8</ele><time>2026-03-28T09:15:27Z</time></trkpt><trkpt lat="39.81598324235878" lon="9.593476789361562"><ele>133.2</ele><time>2026-03-28T09:15:28Z</time></trkpt><trkpt lat="39.81609308563489" lon="9.593460604887554"><ele>136.6</ele><time>2026-03-28T09:15:29Z</time></trkpt><trkpt lat="39.816201026440716" lon="9.593417535406088"><ele>140.0</ele><time>2026-03-28T09:15:30Z</time></trkpt><trkpt lat="39.81630908901372" lon="9.593359488279349"><ele>140.0</ele><time>2026-03-28T09:15:31Z</time></trkpt><trkpt lat="39.81641994488301" lon="9.593302593517766"><ele>140.0</ele><time>2026-03-28T09:15:32Z</time></trkpt><trkpt lat="39.816530576808844" lon="9.59324763790416"><ele>140.0</ele><time>2026-03-28T09:15:33Z</time></trkpt><trkpt lat="39.8166419040463" lon="9.593211075184612"><ele>140.0</ele><time>2026-03-28T09:15:34Z</time></trkpt><trkpt lat="39.816730263539675" lon="9.59310411388579"><ele>140.0</ele><time>2026-03-28T09:15:35Z</time></trkpt><trkpt lat="39.81682171223983" lon="9.593019375815373"><ele>140.0</ele><time>2026-03-28T09:15:36Z</time></trkpt><trkpt lat="39.8169020743599" lon="9.59290639639128"><ele>140.0</ele><time>2026-03-28T09:15:37Z</time></trkpt><trkpt lat="39.81697982875245" lon="9.592791980078728"><ele>140.0</ele><time>2026-03-28T09:15:38Z</time></trkpt><trkpt lat="39.81706326253303" lon="9.592691447184295"><ele>143.2</ele><time>2026-03-28T09:15:39Z</time></trkpt><trkpt lat="39.81715309135857" lon="9.592610033083698"><ele>146.4</ele><time>2026-03-28T09:15:40Z</time></trkpt><trkpt lat="39.81724805938756" lon="9.59254354182727"><ele>149.6</ele><time>2026-03-28T09:15:41Z</time></trkpt><trkpt lat="39.81735085300356" lon="9.592496971264628"><ele>152.8</ele><time>2026-03-28T09:15:42Z</time></trkpt><trkpt lat="39.817462736151555" lon="9.59247902381625"><ele>156.0</ele><time>2026-03-28T09:15:43Z</time></trkpt><trkpt lat="39.81757341332684" lon="9.592451105430024"><ele>155.8</ele><time>2026-03-28T09:15:44Z</time></trkpt><trkpt lat="39.81768510845493" lon="9.592423900447368"><ele>155.6</ele><time>2026-03-28T09:15:45Z</time></trkpt><trkpt lat="39.817794815768536" lon="9.592393508314043"><ele>155.4</ele><time>2026-03-28T09:15:46Z</time></trkpt><trkpt lat="39.817904028670085" lon="9.592357968706038"><ele>155.2</ele><time>2026-03-28T09:15:47Z</time></trkpt><trkpt lat="39.81801004832729" lon="9.592319585688196"><ele>155.0</ele><time>2026-03-28T09:15:48Z</time></trkpt><trkpt lat="39.8181104402518" lon="9.592273874858646"><ele>155.0</ele><time>2026-03-28T09:15:49Z</time></trkpt><trkpt lat="39.81821116948447" lon="9.592216566527926"><ele>155.0</ele><time>2026-03-28T09:15:50Z</time></trkpt><trkpt lat="39.818301283402874" lon="9.592149945680513"><ele>155.0</ele><time>2026-03-28T09:15:51Z</time></trkpt><trkpt lat="39.81838851153715" lon="9.592079233083274"><ele>155.0</ele><time>2026-03-28T09:15:52Z</time></trkpt><trkpt lat="39.81847139931006" lon="9.592006992762615"><ele>155.0</ele><time>2026-03-28T09:15:53Z</time></trkpt><trkpt lat="39.81855595025597" lon="9.59193482763525"><ele>158.0</ele><time>2026-03-28T09:15:54Z</time></trkpt><trkpt lat="39.81863835609454" lon="9.591862637926335"><ele>161.0</ele><time>2026-03-28T09:15:55Z</time></trkpt><trkpt lat="39.818722779924684" lon="9.591792655584788"><ele>164.0</ele><time>2026-03-28T09:15:56Z</time></trkpt><trkpt lat="39.818809606329125" lon="9.5917213562892"><ele>167.0</ele><time>2026-03-28T09:15:57Z</time></trkpt><trkpt lat="39.81889646364577" lon="9.591649574412191"><ele>170.0</ele><time>2026-03-28T09:15:58Z</time></trkpt><trkpt lat="39.81899002007575" lon="9.591584539533576"><ele>170.0</ele><time>2026-03-28T09:15:59Z</time></trkpt><trkpt lat="39.81907526489705" lon="9.591512816275824"><ele>170.0</ele><time>2026-03-28T09:16:00Z</time></trkpt><trkpt lat="39.81914909896028" lon="9.591437712808398"><ele>170.0</ele><time>2026-03-28T09:16:01Z</time></trkpt><trkpt lat="39.819200890975765" lon="9.59135090264737"><ele>170.0</ele><time>2026-03-28T09:16:02Z</time></trkpt><trkpt lat="39.81922562288" lon="9.591267905162491"><ele>170.0</ele><time>2026-03-28T09:16:03Z</time></trkpt><trkpt lat="39.81921142603081" lon="9.591101437767753"><ele>170.33333333333331</ele><time>2026-03-28T09:16:05Z</time></trkpt><trkpt lat="39.81916894680565" lon="9.591030472340726"><ele>170.66666666666666</ele><time>2026-03-28T09:16:06Z</time></trkpt><trkpt lat="39.819114310355864" lon="9.590964541478616"><ele>171.0</ele><time>2026-03-28T09:16:07Z</time></trkpt><trkpt lat="39.819051855610454" lon="9.590904343402093"><ele>171.33333333333334</ele><time>2026-03-28T09:16:08Z</time></trkpt><trkpt lat="39.8189850419739" lon="9.590840869913727"><ele>171.66666666666669</ele><time>2026-03-28T09:16:09Z</time></trkpt><trkpt lat="39.818913977030874" lon="9.590771761927003"><ele>172.0</ele><time>2026-03-28T09:16:10Z</time></trkpt><trkpt lat="39.81884689286439" lon="9.590692215293712"><ele>172.0</ele><time>2026-03-28T09:16:11Z</time></trkpt><trkpt lat="39.81878384541809" lon="9.590602471631112"><ele>172.0</ele><time>2026-03-28T09:16:12Z</time></trkpt><trkpt lat="39.81873004882009" lon="9.590515716192145"><ele>172.0</ele><time>2026-03-28T09:16:13Z</time></trkpt><trkpt lat="39.818682930337694" lon="9.590439471840744"><ele>172.0</ele><time>2026-03-28T09:16:14Z</time></trkpt><trkpt lat="39.81864955936304" lon="9.590363038693987"><ele>172.0</ele><time>2026-03-28T09:16:15Z</time></trkpt><trkpt lat="39.81863299122405" lon="9.590275736615181"><ele>172.0</ele><time>2026-03-28T09:16:16Z</time></trkpt><trkpt lat="39.81862198033221" lon="9.590142000701313"><ele>172.0</ele><time>2026-03-28T09:16:18Z</time></trkpt><trkpt lat="39.818678289672825" lon="9.590002323118282"><ele>172.0</ele><time>2026-03-28T09:16:20Z</time></trkpt><trkpt lat="39.81873534456805" lon="9.589951154933624"><ele>172.0</ele><time>2026-03-28T09:16:21Z</time></trkpt><trkpt lat="39.818808886401385" lon="9.589920841592503"><ele>172.0</ele><time>2026-03-28T09:16:22Z</time></trkpt><trkpt lat="39.818884660844795" lon="9.589906859990755"><ele>172.0</ele><time>2026-03-28T09:16:23Z</time></trkpt><trkpt lat="39.81896739068579" lon="9.589915130151484"><ele>172.0</ele><time>2026-03-28T09:16:24Z</time></trkpt><trkpt lat="39.819052887322684" lon="9.589928067287701"><ele>172.0</ele><time>2026-03-28T09:16:25Z</time></trkpt><trkpt lat="39.819142763172394" lon="9.58993222751658"><ele>172.0</ele><time>2026-03-28T09:16:26Z</time></trkpt><trkpt lat="39.819237598731945" lon="9.58992991190786"><ele>172.0</ele><time>2026-03-28T09:16:27Z</time></trkpt><trkpt lat="39.81933750043241" lon="9.589927841333072"><ele>172.0</ele><time>2026-03-28T09:16:28Z</time></trkpt><trkpt lat="39.81943634229596" lon="9.58990547988185"><ele>172.0</ele><time>2026-03-28T09:16:29Z</time></trkpt><trkpt lat="39.81953489605189" lon="9.589854283822682"><ele>172.8</ele><time>2026-03-28T09:16:30Z</time></trkpt><trkpt lat="39.81962845955601" lon="9.589780566435065"><ele>173.6</ele><time>2026-03-28T09:16:31Z</time></trkpt><trkpt lat="39.81972195310077" lon="9.589704298854267"><ele>174.4</ele><time>2026-03-28T09:16:32Z</time></trkpt><trkpt lat="39.819814031888825" lon="9.58963247531144"><ele>175.20000000000002</ele><time>2026-03-28T09:16:33Z</time></trkpt><trkpt lat="39.81990237990485" lon="9.589559534504941"><ele>176.0</ele><time>2026-03-28T09:16:34Z</time></trkpt><trkpt lat="39.82000114111471" lon="9.589495407264623"><ele>177.60000000000002</ele><time>2026-03-28T09:16:35Z</time></trkpt><trkpt lat="39.82009340725478" lon="9.589424489769819"><ele>179.2</ele><time>2026-03-28T09:16:36Z</time></trkpt><trkpt lat="39.8201893475014" lon="9.58936306723399"><ele>180.8</ele><time>2026-03-28T09:16:37Z</time></trkpt><trkpt lat="39.82029145467963" lon="9.589302604440972"><ele>182.39999999999998</ele><time>2026-03-28T09:16:38Z</time></trkpt><trkpt lat="39.820392790156134" lon="9.58924604006543"><ele>184.0</ele><time>2026-03-28T09:16:39Z</time></trkpt><trkpt lat="39.820495987043" lon="9.58918101763143"><ele>184.0</ele><time>2026-03-28T09:16:40Z</time></trkpt><trkpt lat="39.82059690641903" lon="9.589121372341916"><ele>184.0</ele><time>2026-03-28T09:16:41Z</time></trkpt><trkpt lat="39.82069469118607" lon="9.589044016246126"><ele>184.0</ele><time>2026-03-28T09:16:42Z</time></trkpt><trkpt lat="39.82079133061335" lon="9.588959347258225"><ele>184.0</ele><time>2026-03-28T09:16:43Z</time></trkpt><trkpt lat="39.820886949203825" lon="9.588875025782194"><ele>184.75</ele><time>2026-03-28T09:16:44Z</time></trkpt><trkpt lat="39.82098479129201" lon="9.588790688049949"><ele>185.5</ele><time>2026-03-28T09:16:45Z</time></trkpt><trkpt lat="39.82108390406829" lon="9.588705798494626"><ele>186.25</ele><time>2026-03-28T09:16:46Z</time></trkpt><trkpt lat="39.821181785752465" lon="9.588614475611957"><ele>187.0</ele><time>2026-03-28T09:16:47Z</time></trkpt><trkpt lat="39.82128319277013" lon="9.588529890046166"><ele>187.0</ele><time>2026-03-28T09:16:48Z</time></trkpt><trkpt lat="39.82138344405183" lon="9.588436635041209"><ele>187.0</ele><time>2026-03-28T09:16:49Z</time></trkpt><trkpt lat="39.821476357073486" lon="9.588334023899565"><ele>187.0</ele><time>2026-03-28T09:16:50Z</time></trkpt><trkpt lat="39.82155399161859" lon="9.588217314888906"><ele>187.0</ele><time>2026-03-28T09:16:51Z</time></trkpt><trkpt lat="39.821614076114926" lon="9.588094566211664"><ele>187.0</ele><time>2026-03-28T09:16:52Z</time></trkpt><trkpt lat="39.82162861846218" lon="9.587953706914327"><ele>187.0</ele><time>2026-03-28T09:16:53Z</time></trkpt><trkpt lat="39.82160566134723" lon="9.587810200738273"><ele>187.0</ele><time>2026-03-28T09:16:54Z</time></trkpt><trkpt lat="39.821566543971244" lon="9.587687490836872"><ele>187.0</ele><time>2026-03-28T09:16:55Z</time></trkpt><trkpt lat="39.82155629957172" lon="9.587545695433443"><ele>187.0</ele><time>2026-03-28T09:16:56Z</time></trkpt><trkpt lat="39.82158838899513" lon="9.58741364525953"><ele>189.6</ele><time>2026-03-28T09:16:57Z</time></trkpt><trkpt lat="39.82164232528513" lon="9.587292687583028"><ele>192.2</ele><time>2026-03-28T09:16:58Z</time></trkpt><trkpt lat="39.82169280623924" lon="9.58717341001982"><ele>194.8</ele><time>2026-03-28T09:16:59Z</time></trkpt><trkpt lat="39.82173619807558" lon="9.587047750919568"><ele>197.4</ele><time>2026-03-28T09:17:00Z</time></trkpt><trkpt lat="39.82177036756045" lon="9.58691562522648"><ele>200.0</ele><time>2026-03-28T09:17:01Z</time></trkpt><trkpt lat="39.8217887118314" lon="9.586775365664183"><ele>202.4</ele><time>2026-03-28T09:17:02Z</time></trkpt><trkpt lat="39.821786138185885" lon="9.586628792765088"><ele>204.8</ele><time>2026-03-28T09:17:03Z</time></trkpt><trkpt lat="39.821777543932264" lon="9.586486808257908"><ele>207.2</ele><time>2026-03-28T09:17:04Z</time></trkpt><trkpt lat="39.82176679067752" lon="9.586353075949287"><ele>209.6</ele><time>2026-03-28T09:17:05Z</time></trkpt><trkpt lat="39.82174708066576" lon="9.586230136699935"><ele>212.0</ele><time>2026-03-28T09:17:06Z</time></trkpt><trkpt lat="39.8217092959233" lon="9.58611721059578"><ele>212.39999999999998</ele><time>2026-03-28T09:17:07Z</time></trkpt><trkpt lat="39.82165969936689" lon="9.586010869308488"><ele>212.79999999999998</ele><time>2026-03-28T09:17:08Z</time></trkpt><trkpt lat="39.82162112621264" lon="9.585901764752691"><ele>213.2</ele><time>2026-03-28T09:17:09Z</time></trkpt><trkpt lat="39.82160446718421" lon="9.585780560568024"><ele>213.6</ele><time>2026-03-28T09:17:10Z</time></trkpt><trkpt lat="39.82161383717643" lon="9.585653283676447"><ele>214.0</ele><time>2026-03-28T09:17:11Z</time></trkpt><trkpt lat="39.821651023510505" lon="9.585536343228792"><ele>214.0</ele><time>2026-03-28T09:17:12Z</time></trkpt><trkpt lat="39.82170197215816" lon="9.585423944934243"><ele>213.99999999999997</ele><time>2026-03-28T09:17:13Z</time></trkpt><trkpt lat="39.821731402548295" lon="9.585301820461483"><ele>213.99999999999997</ele><time>2026-03-28T09:17:14Z</time></trkpt><trkpt lat="39.8217348102547" lon="9.585168600648807"><ele>214.0</ele><time>2026-03-28T09:17:15Z</time></trkpt><trkpt lat="39.821713025466806" lon="9.585034048015446"><ele>214.0</ele><time>2026-03-28T09:17:16Z</time></trkpt><trkpt lat="39.821687672271615" lon="9.584898633193388"><ele>214.2</ele><time>2026-03-28T09:17:17Z</time></trkpt><trkpt lat="39.821664386899634" lon="9.584760663632578"><ele>214.39999999999998</ele><time>2026-03-28T09:17:18Z</time></trkpt><trkpt lat="39.82164610956336" lon="9.58462009497477"><ele>214.6</ele><time>2026-03-28T09:17:19Z</time></trkpt><trkpt lat="39.82163634835024" lon="9.58447858772846"><ele>214.8</ele><time>2026-03-28T09:17:20Z</time></trkpt><trkpt lat="39.82164036443935" lon="9.584338916039696"><ele>215.0</ele><time>2026-03-28T09:17:21Z</time></trkpt><trkpt lat="39.821669462294864" lon="9.584212330289379"><ele>215.6</ele><time>2026-03-28T09:17:22Z</time></trkpt><trkpt lat="39.82172612117197" lon="9.584104358471592"><ele>216.2</ele><time>2026-03-28T09:17:23Z</time></trkpt><trkpt lat="39.82179984507744" lon="9.584009102920863"><ele>216.8</ele><time>2026-03-28T09:17:24Z</time></trkpt><trkpt lat="39.8218744391969" lon="9.583915030301753"><ele>217.4</ele><time>2026-03-28T09:17:25Z</time></trkpt><trkpt lat="39.82194679435011" lon="9.58381566380445"><ele>218.0</ele><time>2026-03-28T09:17:26Z</time></trkpt><trkpt lat="39.82201939880686" lon="9.583711000638992"><ele>219.0</ele><time>2026-03-28T09:17:27Z</time></trkpt><trkpt lat="39.82209275087858" lon="9.583602163567871"><ele>220.0</ele><time>2026-03-28T09:17:28Z</time></trkpt><trkpt lat="39.82216710623673" lon="9.583489303922718"><ele>221.0</ele><time>2026-03-28T09:17:29Z</time></trkpt><trkpt lat="39.82223707502734" lon="9.583369361686417"><ele>222.0</ele><time>2026-03-28T09:17:30Z</time></trkpt><trkpt lat="39.822295035232244" lon="9.58323206747191"><ele>222.0</ele><time>2026-03-28T09:17:31Z</time></trkpt><trkpt lat="39.82234668034949" lon="9.583090643785035"><ele>222.0</ele><time>2026-03-28T09:17:32Z</time></trkpt><trkpt lat="39.82239277735335" lon="9.582953104910207"><ele>222.0</ele><time>2026-03-28T09:17:33Z</time></trkpt><trkpt lat="39.822450346263906" lon="9.58282803646339"><ele>222.0</ele><time>2026-03-28T09:17:34Z</time></trkpt><trkpt lat="39.822526376258786" lon="9.582721103932668"><ele>223.8</ele><time>2026-03-28T09:17:35Z</time></trkpt><trkpt lat="39.822622049903075" lon="9.582639685883938"><ele>225.6</ele><time>2026-03-28T09:17:36Z</time></trkpt><trkpt lat="39.82271605822237" lon="9.582564799593463"><ele>227.40000000000003</ele><time>2026-03-28T09:17:37Z</time></trkpt><trkpt lat="39.822804027236295" lon="9.582477101611284"><ele>229.20000000000002</ele><time>2026-03-28T09:17:38Z</time></trkpt><trkpt lat="39.822892061105264" lon="9.582392411158851"><ele>231.0</ele><time>2026-03-28T09:17:39Z</time></trkpt><trkpt lat="39.82297638913503" lon="9.582304216234489"><ele>231.0</ele><time>2026-03-28T09:17:40Z</time></trkpt><trkpt lat="39.823054201789084" lon="9.582207478356654"><ele>231.00000000000003</ele><time>2026-03-28T09:17:41Z</time></trkpt><trkpt lat="39.8231311429031" lon="9.582112280367229"><ele>231.00000000000003</ele><time>2026-03-28T09:17:42Z</time></trkpt><trkpt lat="39.823214874973644" lon="9.582028844671918"><ele>231.0</ele><time>2026-03-28T09:17:43Z</time></trkpt><trkpt lat="39.8233098858928" lon="9.58196167682245"><ele>231.0</ele><time>2026-03-28T09:17:44Z</time></trkpt><trkpt lat="39.82341009622042" lon="9.581910901975993"><ele>233.4</ele><time>2026-03-28T09:17:45Z</time></trkpt><trkpt lat="39.82350993186121" lon="9.581856259612817"><ele>235.8</ele><time>2026-03-28T09:17:46Z</time></trkpt><trkpt lat="39.82361088740862" lon="9.58179707072703"><ele>238.20000000000002</ele><time>2026-03-28T09:17:47Z</time></trkpt><trkpt lat="39.82371452214503" lon="9.581741761940165"><ele>240.60000000000002</ele><time>2026-03-28T09:17:48Z</time></trkpt><trkpt lat="39.823820045342075" lon="9.581684704494716"><ele>243.0</ele><time>2026-03-28T09:17:49Z</time></trkpt><trkpt lat="39.82392305137507" lon="9.581618303555864"><ele>243.0</ele><time>2026-03-28T09:17:50Z</time></trkpt><trkpt lat="39.82402524050297" lon="9.581556489153964"><ele>243.0</ele><time>2026-03-28T09:17:51Z</time></trkpt><trkpt lat="39.824126851848156" lon="9.581543070638126"><ele>243.0</ele><time>2026-03-28T09:17:52Z</time></trkpt><trkpt lat="39.824207367078955" lon="9.581609016237312"><ele>243.0</ele><time>2026-03-28T09:17:53Z</time></trkpt><trkpt lat="39.82424488965822" lon="9.581714854238584"><ele>243.0</ele><time>2026-03-28T09:17:54Z</time></trkpt><trkpt lat="39.824255951739225" lon="9.581839600258531"><ele>243.0</ele><time>2026-03-28T09:17:55Z</time></trkpt><trkpt lat="39.824251332388855" lon="9.581974839659418"><ele>243.0</ele><time>2026-03-28T09:17:56Z</time></trkpt><trkpt lat="39.824232266365854" lon="9.58211949092852"><ele>243.0</ele><time>2026-03-28T09:17:57Z</time></trkpt><trkpt lat="39.824206813276696" lon="9.582266812244871"><ele>243.0</ele><time>2026-03-28T09:17:58Z</time></trkpt><trkpt lat="39.82418012992031" lon="9.582418132966453"><ele>243.5</ele><time>2026-03-28T09:17:59Z</time></trkpt><trkpt lat="39.82416468153367" lon="9.582568696235574"><ele>244.0</ele><time>2026-03-28T09:18:00Z</time></trkpt><trkpt lat="39.824177294302665" lon="9.582719645994368"><ele>244.5</ele><time>2026-03-28T09:18:01Z</time></trkpt><trkpt lat="39.824210257031176" lon="9.582868061463435"><ele>245.0</ele><time>2026-03-28T09:18:02Z</time></trkpt><trkpt lat="39.824232728725725" lon="9.583013892750172"><ele>246.0</ele><time>2026-03-28T09:18:03Z</time></trkpt><trkpt lat="39.824226486670554" lon="9.583152814219787"><ele>247.0</ele><time>2026-03-28T09:18:04Z</time></trkpt><trkpt lat="39.824192824018894" lon="9.583277108194629"><ele>248.0</ele><time>2026-03-28T09:18:05Z</time></trkpt><trkpt lat="39.82414520768292" lon="9.583390680347152"><ele>249.0</ele><time>2026-03-28T09:18:06Z</time></trkpt><trkpt lat="39.82409799873611" lon="9.583500940402326"><ele>250.0</ele><time>2026-03-28T09:18:07Z</time></trkpt><trkpt lat="39.82405727416165" lon="9.58361666464114"><ele>251.4</ele><time>2026-03-28T09:18:08Z</time></trkpt><trkpt lat="39.8240154349057" lon="9.58372848439061"><ele>252.8</ele><time>2026-03-28T09:18:09Z</time></trkpt><trkpt lat="39.823971740323266" lon="9.5838360208552"><ele>254.2</ele><time>2026-03-28T09:18:10Z</time></trkpt><trkpt lat="39.8239267855041" lon="9.583943927609763"><ele>255.6</ele><time>2026-03-28T09:18:11Z</time></trkpt><trkpt lat="39.82388532053438" lon="9.584056101358316"><ele>257.0</ele><time>2026-03-28T09:18:12Z</time></trkpt><trkpt lat="39.8238464323359" lon="9.584175841618814"><ele>257.0</ele><time>2026-03-28T09:18:13Z</time></trkpt><trkpt lat="39.82381176401335" lon="9.584289872853722"><ele>257.0</ele><time>2026-03-28T09:18:14Z</time></trkpt><trkpt lat="39.82378280416954" lon="9.58441397268636"><ele>257.0</ele><time>2026-03-28T09:18:15Z</time></trkpt><trkpt lat="39.823761597931636" lon="9.58453448974822"><ele>257.0</ele><time>2026-03-28T09:18:16Z</time></trkpt><trkpt lat="39.82374916003989" lon="9.584641317061276"><ele>257.0</ele><time>2026-03-28T09:18:17Z</time></trkpt><trkpt lat="39.82376597527815" lon="9.5847290733433"><ele>257.0</ele><time>2026-03-28T09:18:18Z</time></trkpt><trkpt lat="39.82382164938109" lon="9.584793408934154"><ele>254.8</ele><time>2026-03-28T09:18:19Z</time></trkpt><trkpt lat="39.82390327837076" lon="9.584804617312555"><ele>252.6</ele><time>2026-03-28T09:18:20Z</time></trkpt><trkpt lat="39.82398862139631" lon="9.58476613940559"><ele>250.40000000000003</ele><time>2026-03-28T09:18:21Z</time></trkpt><trkpt lat="39.824072796860634" lon="9.58471956724714"><ele>248.20000000000002</ele><time>2026-03-28T09:18:22Z</time></trkpt><trkpt lat="39.82416323767805" lon="9.584674337687616"><ele>246.0</ele><time>2026-03-28T09:18:23Z</time></trkpt><trkpt lat="39.82425921595795" lon="9.584632874003717"><ele>246.0</ele><time>2026-03-28T09:18:24Z</time></trkpt><trkpt lat="39.82435771736485" lon="9.584595262889104"><ele>246.00000000000003</ele><time>2026-03-28T09:18:25Z</time></trkpt><trkpt lat="39.824456657937645" lon="9.584555565611959"><ele>246.00000000000003</ele><time>2026-03-28T09:18:26Z</time></trkpt><trkpt lat="39.82455408380735" lon="9.584515873320871"><ele>246.0</ele><time>2026-03-28T09:18:27Z</time></trkpt><trkpt lat="39.824653250942696" lon="9.584478357203896"><ele>246.0</ele><time>2026-03-28T09:18:28Z</time></trkpt><trkpt lat="39.82475188461098" lon="9.584437181758302"><ele>251.8</ele><time>2026-03-28T09:18:29Z</time></trkpt><trkpt lat="39.824850619906826" lon="9.584389782733783"><ele>257.6</ele><time>2026-03-28T09:18:30Z</time></trkpt><trkpt lat="39.8249488527398" lon="9.584337746195283"><ele>263.4</ele><time>2026-03-28T09:18:31Z</time></trkpt><trkpt lat="39.825048195132226" lon="9.584288256278267"><ele>269.2</ele><time>2026-03-28T09:18:32Z</time></trkpt><trkpt lat="39.8251472526199" lon="9.584240818495713"><ele>275.0</ele><time>2026-03-28T09:18:33Z</time></trkpt><trkpt lat="39.82524809976997" lon="9.584189938026238"><ele>275.8</ele><time>2026-03-28T09:18:34Z</time></trkpt><trkpt lat="39.82535069139959" lon="9.5841423436875"><ele>276.6</ele><time>2026-03-28T09:18:35Z</time></trkpt><trkpt lat="39.8254554420376" lon="9.584093151543486"><ele>277.4</ele><time>2026-03-28T09:18:36Z</time></trkpt><trkpt lat="39.82556154369215" lon="9.584046514431193"><ele>278.2</ele><time>2026-03-28T09:18:37Z</time></trkpt><trkpt lat="39.825667160420444" lon="9.584006266025288"><ele>279.0</ele><time>2026-03-28T09:18:38Z</time></trkpt><trkpt lat="39.82577294547937" lon="9.58397191876638"><ele>279.0</ele><time>2026-03-28T09:18:39Z</time></trkpt><trkpt lat="39.825881051514386" lon="9.583964259347262"><ele>279.0</ele><time>2026-03-28T09:18:40Z</time></trkpt><trkpt lat="39.82598969408745" lon="9.583976025340023"><ele>279.0</ele><time>2026-03-28T09:18:41Z</time></trkpt><trkpt lat="39.82609779926439" lon="9.583997177434005"><ele>279.0</ele><time>2026-03-28T09:18:42Z</time></trkpt><trkpt lat="39.82620614394078" lon="9.584013925905998"><ele>279.0</ele><time>2026-03-28T09:18:43Z</time></trkpt><trkpt lat="39.82631658517144" lon="9.584025960948004"><ele>279.4</ele><time>2026-03-28T09:18:44Z</time></trkpt><trkpt lat="39.82642548611593" lon="9.584020601388783"><ele>279.79999999999995</ele><time>2026-03-28T09:18:45Z</time></trkpt><trkpt lat="39.82653221520941" lon="9.583989341235045"><ele>280.20000000000005</ele><time>2026-03-28T09:18:46Z</time></trkpt><trkpt lat="39.826632188778824" lon="9.58392760339137"><ele>280.6</ele><time>2026-03-28T09:18:47Z</time></trkpt><trkpt lat="39.82672644983156" lon="9.583848892916553"><ele>281.0</ele><time>2026-03-28T09:18:48Z</time></trkpt><trkpt lat="39.82681613473777" lon="9.583763569025447"><ele>281.0</ele><time>2026-03-28T09:18:49Z</time></trkpt><trkpt lat="39.82690891783158" lon="9.583684928385363"><ele>281.0</ele><time>2026-03-28T09:18:50Z</time></trkpt><trkpt lat="39.8270017349712" lon="9.58360575992216"><ele>281.0</ele><time>2026-03-28T09:18:51Z</time></trkpt><trkpt lat="39.82709500829794" lon="9.583531025156343"><ele>281.0</ele><time>2026-03-28T09:18:52Z</time></trkpt><trkpt lat="39.827188948988095" lon="9.583457083451163"><ele>281.0</ele><time>2026-03-28T09:18:53Z</time></trkpt><trkpt lat="39.827279718451685" lon="9.5833765734469"><ele>285.5</ele><time>2026-03-28T09:18:54Z</time></trkpt><trkpt lat="39.82736290352208" lon="9.583280031546687"><ele>290.0</ele><time>2026-03-28T09:18:55Z</time></trkpt><trkpt lat="39.827447450725124" lon="9.583178156596594"><ele>294.5</ele><time>2026-03-28T09:18:56Z</time></trkpt><trkpt lat="39.8275334860363" lon="9.5830821426121"><ele>299.0</ele><time>2026-03-28T09:18:57Z</time></trkpt><trkpt lat="39.82762126277567" lon="9.582989735977465"><ele>299.59999999999997</ele><time>2026-03-28T09:18:58Z</time></trkpt><trkpt lat="39.82771027446584" lon="9.582904666814207"><ele>300.2</ele><time>2026-03-28T09:18:59Z</time></trkpt><trkpt lat="39.827795575115935" lon="9.582824581026156"><ele>300.79999999999995</ele><time>2026-03-28T09:19:00Z</time></trkpt><trkpt lat="39.827885662953456" lon="9.582742566441633"><ele>301.4</ele><time>2026-03-28T09:19:01Z</time></trkpt><trkpt lat="39.82797836899982" lon="9.582666208864167"><ele>302.0</ele><time>2026-03-28T09:19:02Z</time></trkpt><trkpt lat="39.82807269486188" lon="9.582592012625364"><ele>302.0</ele><time>2026-03-28T09:19:03Z</time></trkpt><trkpt lat="39.82816560911276" lon="9.582510335068573"><ele>302.0</ele><time>2026-03-28T09:19:04Z</time></trkpt><trkpt lat="39.82826123617752" lon="9.582431887756723"><ele>302.0</ele><time>2026-03-28T09:19:05Z</time></trkpt><trkpt lat="39.828358903270484" lon="9.5823571265267"><ele>302.0</ele><time>2026-03-28T09:19:06Z</time></trkpt><trkpt lat="39.82845235037551" lon="9.582279789902302"><ele>302.0</ele><time>2026-03-28T09:19:07Z</time></trkpt><trkpt lat="39.82853423831899" lon="9.582189424352185"><ele>300.2</ele><time>2026-03-28T09:19:08Z</time></trkpt><trkpt lat="39.82860157050435" lon="9.582086261774208"><ele>298.4</ele><time>2026-03-28T09:19:09Z</time></trkpt><trkpt lat="39.828645463737324" lon="9.581966848496728"><ele>296.6</ele><time>2026-03-28T09:19:10Z</time></trkpt><trkpt lat="39.828664369864335" lon="9.581839721880863"><ele>294.8</ele><time>2026-03-28T09:19:11Z</time></trkpt><trkpt lat="39.828657424664506" lon="9.581713314080279"><ele>293.0</ele><time>2026-03-28T09:19:12Z</time></trkpt><trkpt lat="39.82862739998976" lon="9.581595407472918"><ele>293.0</ele><time>2026-03-28T09:19:13Z</time></trkpt><trkpt lat="39.82859897677038" lon="9.581470138646761"><ele>293.0</ele><time>2026-03-28T09:19:14Z</time></trkpt><trkpt lat="39.828545020352585" lon="9.58135842810835"><ele>293.0</ele><time>2026-03-28T09:19:15Z</time></trkpt><trkpt lat="39.82848870602861" lon="9.58125189202991"><ele>293.0</ele><time>2026-03-28T09:19:16Z</time></trkpt><trkpt lat="39.828433197019514" lon="9.581145512259162"><ele>293.0</ele><time>2026-03-28T09:19:17Z</time></trkpt><trkpt lat="39.82837747330934" lon="9.581037823955917"><ele>297.2</ele><time>2026-03-28T09:19:18Z</time></trkpt><trkpt lat="39.82832299535577" lon="9.580930997647508"><ele>301.4</ele><time>2026-03-28T09:19:19Z</time></trkpt><trkpt lat="39.8282709502265" lon="9.580825394944846"><ele>305.59999999999997</ele><time>2026-03-28T09:19:20Z</time></trkpt><trkpt lat="39.82822101880417" lon="9.580714582293108"><ele>309.8</ele><time>2026-03-28T09:19:21Z</time></trkpt><trkpt lat="39.828168640584465" lon="9.58060281687144"><ele>314.0</ele><time>2026-03-28T09:19:22Z</time></trkpt><trkpt lat="39.828113317026464" lon="9.580491711846967"><ele>314.0</ele><time>2026-03-28T09:19:23Z</time></trkpt><trkpt lat="39.8280583337787" lon="9.580381290287404"><ele>314.0</ele><time>2026-03-28T09:19:24Z</time></trkpt><trkpt lat="39.828006198455746" lon="9.580269288648564"><ele>314.0</ele><time>2026-03-28T09:19:25Z</time></trkpt><trkpt lat="39.82795689918847" lon="9.580156972306122"><ele>314.0</ele><time>2026-03-28T09:19:26Z</time></trkpt><trkpt lat="39.82791914685311" lon="9.580039320844687"><ele>314.0</ele><time>2026-03-28T09:19:27Z</time></trkpt><trkpt lat="39.8278954293761" lon="9.579917201628119"><ele>314.8</ele><time>2026-03-28T09:19:28Z</time></trkpt><trkpt lat="39.82787404843205" lon="9.579792508004127"><ele>315.59999999999997</ele><time>2026-03-28T09:19:29Z</time></trkpt><trkpt lat="39.82785390599348" lon="9.579664629131832"><ele>316.4</ele><time>2026-03-28T09:19:30Z</time></trkpt><trkpt lat="39.827834809621066" lon="9.579540002636497"><ele>317.2</ele><time>2026-03-28T09:19:31Z</time></trkpt><trkpt lat="39.82781653217715" lon="9.57941371093272"><ele>318.0</ele><time>2026-03-28T09:19:32Z</time></trkpt><trkpt lat="39.82779659389883" lon="9.579289314468848"><ele>319.6</ele><time>2026-03-28T09:19:33Z</time></trkpt><trkpt lat="39.82777590888699" lon="9.579165677277333"><ele>321.20000000000005</ele><time>2026-03-28T09:19:34Z</time></trkpt><trkpt lat="39.82775361812126" lon="9.5790407301858"><ele>322.8</ele><time>2026-03-28T09:19:35Z</time></trkpt><trkpt lat="39.82772778390551" lon="9.578915252589015"><ele>324.40000000000003</ele><time>2026-03-28T09:19:36Z</time></trkpt><trkpt lat="39.82769999370418" lon="9.578784852440442"><ele>326.0</ele><time>2026-03-28T09:19:37Z</time></trkpt><trkpt lat="39.827662840176316" lon="9.578659623713246"><ele>326.6</ele><time>2026-03-28T09:19:38Z</time></trkpt><trkpt lat="39.82765334102668" lon="9.578529868238196"><ele>327.20000000000005</ele><time>2026-03-28T09:19:39Z</time></trkpt><trkpt lat="39.82768048464027" lon="9.578401907171534"><ele>327.79999999999995</ele><time>2026-03-28T09:19:40Z</time></trkpt><trkpt lat="39.82768106481768" lon="9.578278569393467"><ele>328.4</ele><time>2026-03-28T09:19:41Z</time></trkpt><trkpt lat="39.82769914022743" lon="9.578160372845197"><ele>329.0</ele><time>2026-03-28T09:19:42Z</time></trkpt><trkpt lat="39.82770601891027" lon="9.578054889958258"><ele>329.0</ele><time>2026-03-28T09:19:43Z</time></trkpt><trkpt lat="39.82770081597152" lon="9.577957761052131"><ele>329.0</ele><time>2026-03-28T09:19:44Z</time></trkpt><trkpt lat="39.82768178379635" lon="9.577830163240844"><ele>329.0</ele><time>2026-03-28T09:19:45Z</time></trkpt><trkpt lat="39.82763017933329" lon="9.577754534692652"><ele>329.0</ele><time>2026-03-28T09:19:46Z</time></trkpt><trkpt lat="39.82755664593789" lon="9.57770039446241"><ele>329.0</ele><time>2026-03-28T09:19:47Z</time></trkpt><trkpt lat="39.82747470726893" lon="9.577665971842189"><ele>329.0</ele><time>2026-03-28T09:19:48Z</time></trkpt><trkpt lat="39.8273866406801" lon="9.577660487390304"><ele>329.5</ele><time>2026-03-28T09:19:49Z</time></trkpt><trkpt lat="39.82729793718684" lon="9.57766521954607"><ele>330.0</ele><time>2026-03-28T09:19:50Z</time></trkpt><trkpt lat="39.82721163124186" lon="9.577645716631391"><ele>330.5</ele><time>2026-03-28T09:19:51Z</time></trkpt><trkpt lat="39.82712702323462" lon="9.577634552450142"><ele>331.0</ele><time>2026-03-28T09:19:52Z</time></trkpt><trkpt lat="39.82704534433485" lon="9.577615314481305"><ele>331.5</ele><time>2026-03-28T09:19:53Z</time></trkpt><trkpt lat="39.82697054990035" lon="9.577582479330376"><ele>332.0</ele><time>2026-03-28T09:19:54Z</time></trkpt><trkpt lat="39.82688964990288" lon="9.577547212348385"><ele>332.8</ele><time>2026-03-28T09:19:55Z</time></trkpt><trkpt lat="39.82680900858479" lon="9.577516491254471"><ele>333.6</ele><time>2026-03-28T09:19:56Z</time></trkpt><trkpt lat="39.82672054244406" lon="9.577506134793968"><ele>334.40000000000003</ele><time>2026-03-28T09:19:57Z</time></trkpt><trkpt lat="39.826635010947975" lon="9.577486160960058"><ele>335.20000000000005</ele><time>2026-03-28T09:19:58Z</time></trkpt><trkpt lat="39.826542945914795" lon="9.577462130845609"><ele>336.0</ele><time>2026-03-28T09:19:59Z</time></trkpt><trkpt lat="39.8264468492704" lon="9.577458248543085"><ele>336.0</ele><time>2026-03-28T09:20:00Z</time></trkpt><trkpt lat="39.82634723588468" lon="9.577459943960317"><ele>336.0</ele><time>2026-03-28T09:20:01Z</time></trkpt><trkpt lat="39.8262474896939" lon="9.57746289213324"><ele>336.0</ele><time>2026-03-28T09:20:02Z</time></trkpt><trkpt lat="39.82614660202104" lon="9.577460449569342"><ele>336.0</ele><time>2026-03-28T09:20:03Z</time></trkpt><trkpt lat="39.826046768474505" lon="9.577467830621565"><ele>336.0</ele><time>2026-03-28T09:20:04Z</time></trkpt><trkpt lat="39.82594694735081" lon="9.577481760508785"><ele>335.8333333333333</ele><time>2026-03-28T09:20:05Z</time></trkpt><trkpt lat="39.82585016568417" lon="9.577473915109097"><ele>335.6666666666667</ele><time>2026-03-28T09:20:06Z</time></trkpt><trkpt lat="39.82575680970104" lon="9.577487101855114"><ele>335.5</ele><time>2026-03-28T09:20:07Z</time></trkpt><trkpt lat="39.82567396331119" lon="9.577508374757315"><ele>335.33333333333337</ele><time>2026-03-28T09:20:08Z</time></trkpt><trkpt lat="39.82559849609195" lon="9.577455037140894"><ele>335.1666666666667</ele><time>2026-03-28T09:20:09Z</time></trkpt><trkpt lat="39.82557555760799" lon="9.577349196341613"><ele>335.0</ele><time>2026-03-28T09:20:10Z</time></trkpt><trkpt lat="39.82557287495244" lon="9.577259378782674"><ele>335.0</ele><time>2026-03-28T09:20:11Z</time></trkpt><trkpt lat="39.8255930298415" lon="9.577169558839932"><ele>335.0</ele><time>2026-03-28T09:20:12Z</time></trkpt><trkpt lat="39.82558844962405" lon="9.57706452730556"><ele>335.0</ele><time>2026-03-28T09:20:13Z</time></trkpt><trkpt lat="39.82560910858137" lon="9.57695116594117"><ele>335.0</ele><time>2026-03-28T09:20:14Z</time></trkpt><trkpt lat="39.8256513041123" lon="9.576846324980956"><ele>335.0</ele><time>2026-03-28T09:20:15Z</time></trkpt><trkpt lat="39.825680536752195" lon="9.57673657179014"><ele>335.0</ele><time>2026-03-28T09:20:16Z</time></trkpt><trkpt lat="39.82574773037174" lon="9.57665324136364"><ele>337.1666666666667</ele><time>2026-03-28T09:20:17Z</time></trkpt><trkpt lat="39.825796598090605" lon="9.5765569143127"><ele>339.33333333333337</ele><time>2026-03-28T09:20:18Z</time></trkpt><trkpt lat="39.825844621922734" lon="9.576463143181511"><ele>341.5</ele><time>2026-03-28T09:20:19Z</time></trkpt><trkpt lat="39.82587989341846" lon="9.576354079647142"><ele>343.6666666666667</ele><time>2026-03-28T09:20:20Z</time></trkpt><trkpt lat="39.82593328636368" lon="9.576260061785545"><ele>345.8333333333333</ele><time>2026-03-28T09:20:21Z</time></trkpt><trkpt lat="39.825981896849314" lon="9.57616057208369"><ele>348.0</ele><time>2026-03-28T09:20:22Z</time></trkpt><trkpt lat="39.82603112458864" lon="9.576061001882977"><ele>351.59999999999997</ele><time>2026-03-28T09:20:23Z</time></trkpt><trkpt lat="39.82607062037498" lon="9.575956022966876"><ele>355.2</ele><time>2026-03-28T09:20:24Z</time></trkpt><trkpt lat="39.826108864540124" lon="9.575850800375408"><ele>358.8</ele><time>2026-03-28T09:20:25Z</time></trkpt><trkpt lat="39.826143317566995" lon="9.575740481363587"><ele>362.4</ele><time>2026-03-28T09:20:26Z</time></trkpt><trkpt lat="39.826172516644085" lon="9.575629017570789"><ele>366.0</ele><time>2026-03-28T09:20:27Z</time></trkpt><trkpt lat="39.82621399970877" lon="9.575519967463883"><ele>366.0</ele><time>2026-03-28T09:20:28Z</time></trkpt><trkpt lat="39.8262521014936" lon="9.575410234343474"><ele>366.0</ele><time>2026-03-28T09:20:29Z</time></trkpt><trkpt lat="39.826283147097726" lon="9.575302242303087"><ele>366.0</ele><time>2026-03-28T09:20:30Z</time></trkpt><trkpt lat="39.82631602218558" lon="9.575198621327907"><ele>366.0</ele><time>2026-03-28T09:20:31Z</time></trkpt><trkpt lat="39.82636483201083" lon="9.575108459152299"><ele>366.0</ele><time>2026-03-28T09:20:32Z</time></trkpt><trkpt lat="39.82639054614408" lon="9.575006431946022"><ele>366.0</ele><time>2026-03-28T09:20:33Z</time></trkpt><trkpt lat="39.8264387293895" lon="9.574921873672926"><ele>364.6666666666667</ele><time>2026-03-28T09:20:34Z</time></trkpt><trkpt lat="39.82651490757835" lon="9.574867754243698"><ele>363.3333333333333</ele><time>2026-03-28T09:20:35Z</time></trkpt><trkpt lat="39.8265819251947" lon="9.574794607479296"><ele>362.0</ele><time>2026-03-28T09:20:36Z</time></trkpt><trkpt lat="39.82666501091694" lon="9.57475494703206"><ele>360.66666666666663</ele><time>2026-03-28T09:20:37Z</time></trkpt><trkpt lat="39.826738238730535" lon="9.574711902026213"><ele>359.3333333333333</ele><time>2026-03-28T09:20:38Z</time></trkpt><trkpt lat="39.826813294003856" lon="9.574660164036322"><ele>358.0</ele><time>2026-03-28T09:20:39Z</time></trkpt><trkpt lat="39.82688385006674" lon="9.574612637534267"><ele>361.16666666666663</ele><time>2026-03-28T09:20:40Z</time></trkpt><trkpt lat="39.82695244980182" lon="9.57455493975011"><ele>364.3333333333333</ele><time>2026-03-28T09:20:41Z</time></trkpt><trkpt lat="39.82701002145984" lon="9.574471817534873"><ele>367.5</ele><time>2026-03-28T09:20:42Z</time></trkpt><trkpt lat="39.8270559741503" lon="9.574381348211945"><ele>370.6666666666667</ele><time>2026-03-28T09:20:43Z</time></trkpt><trkpt lat="39.82708507480914" lon="9.574289159455944"><ele>373.83333333333337</ele><time>2026-03-28T09:20:44Z</time></trkpt><trkpt lat="39.82709686311768" lon="9.574192739632755"><ele>377.0</ele><time>2026-03-28T09:20:45Z</time></trkpt><trkpt lat="39.82708984719911" lon="9.57408812075718"><ele>377.0</ele><time>2026-03-28T09:20:46Z</time></trkpt><trkpt lat="39.82707151795954" lon="9.573982323709567"><ele>377.0</ele><time>2026-03-28T09:20:47Z</time></trkpt><trkpt lat="39.8270322274235" lon="9.573895889215141"><ele>377.0</ele><time>2026-03-28T09:20:48Z</time></trkpt><trkpt lat="39.82698781420496" lon="9.573803621870331"><ele>377.0</ele><time>2026-03-28T09:20:49Z</time></trkpt><trkpt lat="39.826954999781954" lon="9.573702192944431"><ele>377.0</ele><time>2026-03-28T09:20:50Z</time></trkpt><trkpt lat="39.82691592466146" lon="9.5735997217453"><ele>377.0</ele><time>2026-03-28T09:20:51Z</time></trkpt><trkpt lat="39.82687822927018" lon="9.57349385367062"><ele>378.0</ele><time>2026-03-28T09:20:52Z</time></trkpt><trkpt lat="39.826826637361926" lon="9.573393494063032"><ele>379.0</ele><time>2026-03-28T09:20:53Z</time></trkpt><trkpt lat="39.82678652588067" lon="9.57328547723257"><ele>380.0</ele><time>2026-03-28T09:20:54Z</time></trkpt><trkpt lat="39.82674527771718" lon="9.573181248879674"><ele>381.0</ele><time>2026-03-28T09:20:55Z</time></trkpt><trkpt lat="39.82670754095683" lon="9.57307962190597"><ele>382.0</ele><time>2026-03-28T09:20:56Z</time></trkpt><trkpt lat="39.826668238072024" lon="9.57298091793155"><ele>383.0</ele><time>2026-03-28T09:20:57Z</time></trkpt><trkpt lat="39.82663825549141" lon="9.572873226069847"><ele>380.83333333333337</ele><time>2026-03-28T09:20:58Z</time></trkpt><trkpt lat="39.82661819370883" lon="9.572761213065888"><ele>378.6666666666667</ele><time>2026-03-28T09:20:59Z</time></trkpt><trkpt lat="39.82660192125985" lon="9.572645653226488"><ele>376.5</ele><time>2026-03-28T09:21:00Z</time></trkpt><trkpt lat="39.82661391466164" lon="9.572528034252166"><ele>374.3333333333333</ele><time>2026-03-28T09:21:01Z</time></trkpt><trkpt lat="39.82659756258375" lon="9.572409428054625"><ele>372.16666666666663</ele><time>2026-03-28T09:21:02Z</time></trkpt><trkpt lat="39.82658953770651" lon="9.5722968187034"><ele>370.0</ele><time>2026-03-28T09:21:03Z</time></trkpt><trkpt lat="39.82658112563946" lon="9.572177276625903"><ele>370.0</ele><time>2026-03-28T09:21:04Z</time></trkpt><trkpt lat="39.82657490555941" lon="9.572057176130054"><ele>370.0</ele><time>2026-03-28T09:21:05Z</time></trkpt><trkpt lat="39.826578329826745" lon="9.571941932590368"><ele>370.0</ele><time>2026-03-28T09:21:06Z</time></trkpt><trkpt lat="39.82657074780231" lon="9.571826219873516"><ele>370.0</ele><time>2026-03-28T09:21:07Z</time></trkpt><trkpt lat="39.82656817520612" lon="9.571708615868829"><ele>370.0</ele><time>2026-03-28T09:21:08Z</time></trkpt><trkpt lat="39.82656974470494" lon="9.571594397012685"><ele>370.0</ele><time>2026-03-28T09:21:09Z</time></trkpt><trkpt lat="39.82657800681404" lon="9.571481533309782"><ele>370.2</ele><time>2026-03-28T09:21:10Z</time></trkpt><trkpt lat="39.8265906754424" lon="9.571365040030662"><ele>370.4</ele><time>2026-03-28T09:21:11Z</time></trkpt><trkpt lat="39.82660433850096" lon="9.571249764816828"><ele>370.6</ele><time>2026-03-28T09:21:12Z</time></trkpt><trkpt lat="39.82661425601059" lon="9.57112771219724"><ele>370.8</ele><time>2026-03-28T09:21:13Z</time></trkpt><trkpt lat="39.82662748526494" lon="9.571006997636248"><ele>371.0</ele><time>2026-03-28T09:21:14Z</time></trkpt><trkpt lat="39.826631913836444" lon="9.570879724870128"><ele>371.0</ele><time>2026-03-28T09:21:15Z</time></trkpt><trkpt lat="39.826644093464196" lon="9.570758156024896"><ele>371.0</ele><time>2026-03-28T09:21:16Z</time></trkpt><trkpt lat="39.826646268988874" lon="9.570628554089327"><ele>371.0</ele><time>2026-03-28T09:21:17Z</time></trkpt><trkpt lat="39.82665070643463" lon="9.570497051218759"><ele>371.0</ele><time>2026-03-28T09:21:18Z</time></trkpt><trkpt lat="39.82664897643315" lon="9.57036191053231"><ele>371.0</ele><time>2026-03-28T09:21:19Z</time></trkpt><trkpt lat="39.82664085262564" lon="9.57022626749473"><ele>371.5</ele><time>2026-03-28T09:21:20Z</time></trkpt><trkpt lat="39.8266407564929" lon="9.570093485548638"><ele>372.0</ele><time>2026-03-28T09:21:21Z</time></trkpt><trkpt lat="39.82661192096027" lon="9.569969449090484"><ele>372.5</ele><time>2026-03-28T09:21:22Z</time></trkpt><trkpt lat="39.82660896246793" lon="9.56985464839793"><ele>373.0</ele><time>2026-03-28T09:21:23Z</time></trkpt><trkpt lat="39.826625324073795" lon="9.569749916840337"><ele>373.5</ele><time>2026-03-28T09:21:24Z</time></trkpt><trkpt lat="39.826656013517805" lon="9.569658737843426"><ele>374.0</ele><time>2026-03-28T09:21:25Z</time></trkpt><trkpt lat="39.82672822423844" lon="9.569602946166814"><ele>374.0</ele><time>2026-03-28T09:21:26Z</time></trkpt><trkpt lat="39.82680885655699" lon="9.56958263943199"><ele>374.0</ele><time>2026-03-28T09:21:27Z</time></trkpt><trkpt lat="39.82689699449242" lon="9.569583356673233"><ele>374.0</ele><time>2026-03-28T09:21:28Z</time></trkpt><trkpt lat="39.82697881058624" lon="9.569598596605845"><ele>374.0</ele><time>2026-03-28T09:21:29Z</time></trkpt><trkpt lat="39.82705719755868" lon="9.56963281557675"><ele>374.0</ele><time>2026-03-28T09:21:30Z</time></trkpt><trkpt lat="39.827124606114864" lon="9.569684514069937"><ele>374.0</ele><time>2026-03-28T09:21:31Z</time></trkpt><trkpt lat="39.82716738566011" lon="9.569758623832225"><ele>376.0</ele><time>2026-03-28T09:21:32Z</time></trkpt><trkpt lat="39.827189050704064" lon="9.569852074444526"><ele>378.0</ele><time>2026-03-28T09:21:33Z</time></trkpt><trkpt lat="39.82717317906183" lon="9.569954130109268"><ele>380.0</ele><time>2026-03-28T09:21:34Z</time></trkpt><trkpt lat="39.827167102843624" lon="9.570053760270794"><ele>382.0</ele><time>2026-03-28T09:21:35Z</time></trkpt><trkpt lat="39.827173003817634" lon="9.570163315772374"><ele>383.99999999999994</ele><time>2026-03-28T09:21:36Z</time></trkpt><trkpt lat="39.82716351423416" lon="9.570275472389804"><ele>386.0</ele><time>2026-03-28T09:21:37Z</time></trkpt><trkpt lat="39.82715915976583" lon="9.570392513383785"><ele>386.99999999999994</ele><time>2026-03-28T09:21:38Z</time></trkpt><trkpt lat="39.82715200323363" lon="9.570513599526379"><ele>388.0</ele><time>2026-03-28T09:21:39Z</time></trkpt><trkpt lat="39.82714205960538" lon="9.570637005215183"><ele>389.0</ele><time>2026-03-28T09:21:40Z</time></trkpt><trkpt lat="39.82713620229084" lon="9.570751744439447"><ele>390.0</ele><time>2026-03-28T09:21:41Z</time></trkpt><trkpt lat="39.82714310965962" lon="9.570864193135312"><ele>390.99999999999994</ele><time>2026-03-28T09:21:42Z</time></trkpt><trkpt lat="39.82716635489456" lon="9.570971663584684"><ele>392.0</ele><time>2026-03-28T09:21:43Z</time></trkpt><trkpt lat="39.827204213147006" lon="9.571075366025072"><ele>392.0</ele><time>2026-03-28T09:21:44Z</time></trkpt><trkpt lat="39.82724781871955" lon="9.571178426270631"><ele>392.0</ele><time>2026-03-28T09:21:45Z</time></trkpt><trkpt lat="39.82729025717192" lon="9.571287430407914"><ele>392.0</ele><time>2026-03-28T09:21:46Z</time></trkpt><trkpt lat="39.827334762710905" lon="9.571399060222177"><ele>392.0</ele><time>2026-03-28T09:21:47Z</time></trkpt><trkpt lat="39.827382483240186" lon="9.571509611563346"><ele>392.0</ele><time>2026-03-28T09:21:48Z</time></trkpt><trkpt lat="39.827430516504684" lon="9.57162124328458"><ele>392.0</ele><time>2026-03-28T09:21:49Z</time></trkpt><trkpt lat="39.827472907974986" lon="9.571738276511722"><ele>392.0</ele><time>2026-03-28T09:21:50Z</time></trkpt><trkpt lat="39.827509992687965" lon="9.57185761323991"><ele>392.0</ele><time>2026-03-28T09:21:51Z</time></trkpt><trkpt lat="39.82754390146092" lon="9.571977433374489"><ele>392.0</ele><time>2026-03-28T09:21:52Z</time></trkpt><trkpt lat="39.827578832960356" lon="9.572098539968168"><ele>392.0</ele><time>2026-03-28T09:21:53Z</time></trkpt><trkpt lat="39.82761206044692" lon="9.572220321896776"><ele>391.20000000000005</ele><time>2026-03-28T09:21:54Z</time></trkpt><trkpt lat="39.82764004819361" lon="9.572341691483397"><ele>390.4</ele><time>2026-03-28T09:21:55Z</time></trkpt><trkpt lat="39.8276651089215" lon="9.572463787110683"><ele>389.6</ele><time>2026-03-28T09:21:56Z</time></trkpt><trkpt lat="39.82768779214865" lon="9.57258467525923"><ele>388.79999999999995</ele><time>2026-03-28T09:21:57Z</time></trkpt><trkpt lat="39.82771377713462" lon="9.572703878052323"><ele>388.0</ele><time>2026-03-28T09:21:58Z</time></trkpt><trkpt lat="39.82773919036018" lon="9.572822632877045"><ele>392.59999999999997</ele><time>2026-03-28T09:21:59Z</time></trkpt><trkpt lat="39.827762425008146" lon="9.572941360176804"><ele>397.2</ele><time>2026-03-28T09:22:00Z</time></trkpt><trkpt lat="39.8277825091093" lon="9.573058250508732"><ele>401.8</ele><time>2026-03-28T09:22:01Z</time></trkpt><trkpt lat="39.82782414215268" lon="9.573165783199673"><ele>406.4</ele><time>2026-03-28T09:22:02Z</time></trkpt><trkpt lat="39.82787529405347" lon="9.573268007976347"><ele>411.0</ele><time>2026-03-28T09:22:03Z</time></trkpt><trkpt lat="39.82793028387843" lon="9.573365961378702"><ele>411.0</ele><time>2026-03-28T09:22:04Z</time></trkpt><trkpt lat="39.82797950437761" lon="9.573467273467532"><ele>411.0</ele><time>2026-03-28T09:22:05Z</time></trkpt><trkpt lat="39.82802659890398" lon="9.57356847228422"><ele>411.0</ele><time>2026-03-28T09:22:06Z</time></trkpt><trkpt lat="39.82806410703683" lon="9.573673825391335"><ele>411.0</ele><time>2026-03-28T09:22:07Z</time></trkpt><trkpt lat="39.828093423642635" lon="9.573779106726146"><ele>411.0</ele><time>2026-03-28T09:22:08Z</time></trkpt><trkpt lat="39.82811502033077" lon="9.573880852342377"><ele>411.0</ele><time>2026-03-28T09:22:09Z</time></trkpt><trkpt lat="39.82812767175049" lon="9.573966264433416"><ele>409.0</ele><time>2026-03-28T09:22:10Z</time></trkpt><trkpt lat="39.82815664777898" lon="9.574047053686789"><ele>407.0</ele><time>2026-03-28T09:22:11Z</time></trkpt><trkpt lat="39.82822592323082" lon="9.57412251738044"><ele>405.0</ele><time>2026-03-28T09:22:14Z</time></trkpt><trkpt lat="39.82829675821426" lon="9.574118648085047"><ele>403.0</ele><time>2026-03-28T09:22:16Z</time></trkpt><trkpt lat="39.82836652748607" lon="9.574069885905038"><ele>401.0</ele><time>2026-03-28T09:22:18Z</time></trkpt><trkpt lat="39.8284637690808" lon="9.573984864628365"><ele>399.0</ele><time>2026-03-28T09:22:20Z</time></trkpt><trkpt lat="39.82852158001046" lon="9.573930313483583"><ele>398.1666666666667</ele><time>2026-03-28T09:22:21Z</time></trkpt><trkpt lat="39.828579114197716" lon="9.573865858556035"><ele>397.33333333333337</ele><time>2026-03-28T09:22:22Z</time></trkpt><trkpt lat="39.828639417995994" lon="9.57379891666054"><ele>396.5</ele><time>2026-03-28T09:22:23Z</time></trkpt><trkpt lat="39.828708027897264" lon="9.5737299972945"><ele>395.6666666666667</ele><time>2026-03-28T09:22:24Z</time></trkpt><trkpt lat="39.8287741434553" lon="9.57365392409018"><ele>394.83333333333337</ele><time>2026-03-28T09:22:25Z</time></trkpt><trkpt lat="39.828840948303714" lon="9.573570330340415"><ele>394.0</ele><time>2026-03-28T09:22:26Z</time></trkpt><trkpt lat="39.82891043643909" lon="9.57348815536109"><ele>397.2</ele><time>2026-03-28T09:22:27Z</time></trkpt><trkpt lat="39.828984930227435" lon="9.573416205202625"><ele>400.4</ele><time>2026-03-28T09:22:28Z</time></trkpt><trkpt lat="39.829065535861744" lon="9.573351202218412"><ele>403.6</ele><time>2026-03-28T09:22:29Z</time></trkpt><trkpt lat="39.829155036448405" lon="9.573311615009917"><ele>406.8</ele><time>2026-03-28T09:22:30Z</time></trkpt><trkpt lat="39.82923751855929" lon="9.573268605932462"><ele>410.0</ele><time>2026-03-28T09:22:31Z</time></trkpt><trkpt lat="39.82932251855524" lon="9.573248546783718"><ele>409.99999999999994</ele><time>2026-03-28T09:22:32Z</time></trkpt><trkpt lat="39.829404970352854" lon="9.57321103444377"><ele>410.0</ele><time>2026-03-28T09:22:33Z</time></trkpt><trkpt lat="39.82949387832779" lon="9.573197254303913"><ele>410.0</ele><time>2026-03-28T09:22:34Z</time></trkpt><trkpt lat="39.829579041856064" lon="9.573169301301201"><ele>410.0</ele><time>2026-03-28T09:22:35Z</time></trkpt><trkpt lat="39.82966643016153" lon="9.573142962033515"><ele>409.99999999999994</ele><time>2026-03-28T09:22:36Z</time></trkpt><trkpt lat="39.829755987403416" lon="9.573117373363711"><ele>410.0</ele><time>2026-03-28T09:22:37Z</time></trkpt><trkpt lat="39.8298460294709" lon="9.57308461573059"><ele>410.0</ele><time>2026-03-28T09:22:38Z</time></trkpt><trkpt lat="39.82993537613488" lon="9.573056464573227"><ele>410.0</ele><time>2026-03-28T09:22:39Z</time></trkpt><trkpt lat="39.83002729031617" lon="9.573028106632782"><ele>410.0</ele><time>2026-03-28T09:22:40Z</time></trkpt><trkpt lat="39.83011703118175" lon="9.572990843032409"><ele>410.0</ele><time>2026-03-28T09:22:41Z</time></trkpt><trkpt lat="39.83020494028427" lon="9.572944137174623"><ele>410.0</ele><time>2026-03-28T09:22:42Z</time></trkpt><trkpt lat="39.8302900458663" lon="9.572889861758531"><ele>412.4</ele><time>2026-03-28T09:22:43Z</time></trkpt><trkpt lat="39.83037281303577" lon="9.572823673991529"><ele>414.8</ele><time>2026-03-28T09:22:44Z</time></trkpt><trkpt lat="39.830457339404084" lon="9.57275639571353"><ele>417.20000000000005</ele><time>2026-03-28T09:22:45Z</time></trkpt><trkpt lat="39.83053864599779" lon="9.572691138629807"><ele>419.6</ele><time>2026-03-28T09:22:46Z</time></trkpt><trkpt lat="39.83061493026284" lon="9.572623478781692"><ele>422.0</ele><time>2026-03-28T09:22:47Z</time></trkpt><trkpt lat="39.83069131181365" lon="9.572557724644238"><ele>421.99999999999994</ele><time>2026-03-28T09:22:48Z</time></trkpt><trkpt lat="39.830759110214544" lon="9.572485973262523"><ele>422.0</ele><time>2026-03-28T09:22:49Z</time></trkpt><trkpt lat="39.83082568631454" lon="9.572415065660644"><ele>422.0</ele><time>2026-03-28T09:22:50Z</time></trkpt><trkpt lat="39.83088347885196" lon="9.572335852125818"><ele>422.0</ele><time>2026-03-28T09:22:51Z</time></trkpt><trkpt lat="39.830930977748395" lon="9.572240248319384"><ele>421.99999999999994</ele><time>2026-03-28T09:22:52Z</time></trkpt><trkpt lat="39.830961449449916" lon="9.572132693334643"><ele>422.0</ele><time>2026-03-28T09:22:53Z</time></trkpt><trkpt lat="39.83100219413345" lon="9.572028344547125"><ele>420.49999999999994</ele><time>2026-03-28T09:22:54Z</time></trkpt><trkpt lat="39.83105478124794" lon="9.571936621179818"><ele>419.0</ele><time>2026-03-28T09:22:55Z</time></trkpt><trkpt lat="39.83109572400345" lon="9.57183621157813"><ele>417.5</ele><time>2026-03-28T09:22:56Z</time></trkpt><trkpt lat="39.83112500332305" lon="9.571724144239692"><ele>416.0</ele><time>2026-03-28T09:22:57Z</time></trkpt><trkpt lat="39.83117324114498" lon="9.571623391170245"><ele>414.49999999999994</ele><time>2026-03-28T09:22:58Z</time></trkpt><trkpt lat="39.83122001722549" lon="9.571523622102601"><ele>413.0</ele><time>2026-03-28T09:22:59Z</time></trkpt><trkpt lat="39.83127206747097" lon="9.571428735192704"><ele>413.0</ele><time>2026-03-28T09:23:00Z</time></trkpt><trkpt lat="39.831319465325144" lon="9.571322425680897"><ele>413.0</ele><time>2026-03-28T09:23:01Z</time></trkpt><trkpt lat="39.83135944012578" lon="9.571213306945994"><ele>413.0</ele><time>2026-03-28T09:23:02Z</time></trkpt><trkpt lat="39.83139164452892" lon="9.571096171939415"><ele>413.0</ele><time>2026-03-28T09:23:03Z</time></trkpt><trkpt lat="39.83141062011244" lon="9.570976793091667"><ele>413.0</ele><time>2026-03-28T09:23:04Z</time></trkpt><trkpt lat="39.83144796007594" lon="9.570873905766424"><ele>413.0</ele><time>2026-03-28T09:23:05Z</time></trkpt><trkpt lat="39.83151346457898" lon="9.570794656630023"><ele>413.0</ele><time>2026-03-28T09:23:06Z</time></trkpt><trkpt lat="39.831601647194994" lon="9.57076995692493"><ele>413.0</ele><time>2026-03-28T09:23:07Z</time></trkpt><trkpt lat="39.831681470462605" lon="9.570720961981465"><ele>413.0</ele><time>2026-03-28T09:23:08Z</time></trkpt><trkpt lat="39.83177245354362" lon="9.570686926538869"><ele>413.0</ele><time>2026-03-28T09:23:09Z</time></trkpt><trkpt lat="39.83187345234867" lon="9.570647377519853"><ele>413.0</ele><time>2026-03-28T09:23:10Z</time></trkpt><trkpt lat="39.83194354929029" lon="9.570582795683329"><ele>413.0</ele><time>2026-03-28T09:23:11Z</time></trkpt><trkpt lat="39.83202709954744" lon="9.570518312342916"><ele>413.0</ele><time>2026-03-28T09:23:12Z</time></trkpt><trkpt lat="39.832109188088076" lon="9.570450916742"><ele>413.0</ele><time>2026-03-28T09:23:13Z</time></trkpt><trkpt lat="39.83218706386057" lon="9.570381166430437"><ele>413.0</ele><time>2026-03-28T09:23:14Z</time></trkpt><trkpt lat="39.83226939723331" lon="9.570309553151336"><ele>416.79999999999995</ele><time>2026-03-28T09:23:15Z</time></trkpt><trkpt lat="39.83234825360169" lon="9.570236857925169"><ele>420.6</ele><time>2026-03-28T09:23:16Z</time></trkpt><trkpt lat="39.83242020942624" lon="9.570172782190957"><ele>424.40000000000003</ele><time>2026-03-28T09:23:17Z</time></trkpt><trkpt lat="39.83248783034794" lon="9.570113884707812"><ele>428.20000000000005</ele><time>2026-03-28T09:23:18Z</time></trkpt><trkpt lat="39.832571041041824" lon="9.570061877723502"><ele>432.0</ele><time>2026-03-28T09:23:19Z</time></trkpt><trkpt lat="39.8326617006529" lon="9.57002714834308"><ele>432.0</ele><time>2026-03-28T09:23:20Z</time></trkpt><trkpt lat="39.83275600994062" lon="9.570003239046969"><ele>432.00000000000006</ele><time>2026-03-28T09:23:21Z</time></trkpt><trkpt lat="39.832853176800434" lon="9.569986228118422"><ele>432.00000000000006</ele><time>2026-03-28T09:23:22Z</time></trkpt><trkpt lat="39.83295243038543" lon="9.569973420226066"><ele>432.0</ele><time>2026-03-28T09:23:23Z</time></trkpt><trkpt lat="39.83305111538205" lon="9.569966111748016"><ele>432.0</ele><time>2026-03-28T09:23:24Z</time></trkpt><trkpt lat="39.83314944062243" lon="9.569968030211443"><ele>432.0</ele><time>2026-03-28T09:23:25Z</time></trkpt><trkpt lat="39.83324880992968" lon="9.569970378703815"><ele>432.00000000000006</ele><time>2026-03-28T09:23:26Z</time></trkpt><trkpt lat="39.83334696305236" lon="9.569961517244248"><ele>432.00000000000006</ele><time>2026-03-28T09:23:27Z</time></trkpt><trkpt lat="39.833443599658935" lon="9.569944067568139"><ele>432.0</ele><time>2026-03-28T09:23:28Z</time></trkpt><trkpt lat="39.83353735302119" lon="9.569923469917498"><ele>432.0</ele><time>2026-03-28T09:23:29Z</time></trkpt><trkpt lat="39.833629493211845" lon="9.569893204782685"><ele>432.6</ele><time>2026-03-28T09:23:30Z</time></trkpt><trkpt lat="39.83371502652904" lon="9.569846107977042"><ele>433.20000000000005</ele><time>2026-03-28T09:23:31Z</time></trkpt><trkpt lat="39.83379852017898" lon="9.569790601290599"><ele>433.8</ele><time>2026-03-28T09:23:32Z</time></trkpt><trkpt lat="39.8338696039298" lon="9.569719564799703"><ele>434.4</ele><time>2026-03-28T09:23:33Z</time></trkpt><trkpt lat="39.83392506750987" lon="9.569622914776923"><ele>435.0</ele><time>2026-03-28T09:23:34Z</time></trkpt><trkpt lat="39.833968276737956" lon="9.569518183071008"><ele>435.0</ele><time>2026-03-28T09:23:35Z</time></trkpt><trkpt lat="39.833983941550606" lon="9.569397528644348"><ele>435.0</ele><time>2026-03-28T09:23:36Z</time></trkpt><trkpt lat="39.8339640299086" lon="9.569273242692397"><ele>435.0</ele><time>2026-03-28T09:23:37Z</time></trkpt><trkpt lat="39.833922047375104" lon="9.56915936058385"><ele>435.0</ele><time>2026-03-28T09:23:38Z</time></trkpt><trkpt lat="39.833908863442794" lon="9.569043192177853"><ele>435.0</ele><time>2026-03-28T09:23:39Z</time></trkpt><trkpt lat="39.8338866802925" lon="9.568942331869557"><ele>435.0</ele><time>2026-03-28T09:23:40Z</time></trkpt><trkpt lat="39.83387484328467" lon="9.568843570999544"><ele>435.0</ele><time>2026-03-28T09:23:41Z</time></trkpt><trkpt lat="39.833865904970885" lon="9.568734551427811"><ele>435.0</ele><time>2026-03-28T09:23:42Z</time></trkpt><trkpt lat="39.83391234041321" lon="9.568632590130928"><ele>435.0</ele><time>2026-03-28T09:23:43Z</time></trkpt><trkpt lat="39.83393772050064" lon="9.568522857771535"><ele>435.0</ele><time>2026-03-28T09:23:44Z</time></trkpt><trkpt lat="39.8339810077576" lon="9.568423054759949"><ele>435.0</ele><time>2026-03-28T09:23:45Z</time></trkpt><trkpt lat="39.83402127269634" lon="9.568323004722261"><ele>436.5</ele><time>2026-03-28T09:23:46Z</time></trkpt><trkpt lat="39.834057438044916" lon="9.568219410023564"><ele>438.0</ele><time>2026-03-28T09:23:47Z</time></trkpt><trkpt lat="39.8340927411865" lon="9.568114238563071"><ele>439.5</ele><time>2026-03-28T09:23:48Z</time></trkpt><trkpt lat="39.83413154559976" lon="9.568009980701854"><ele>441.0</ele><time>2026-03-28T09:23:49Z</time></trkpt><trkpt lat="39.83417215037891" lon="9.567905143421182"><ele>442.5</ele><time>2026-03-28T09:23:50Z</time></trkpt><trkpt lat="39.83421491612273" lon="9.567800172196872"><ele>444.0</ele><time>2026-03-28T09:23:51Z</time></trkpt><trkpt lat="39.834258107812346" lon="9.567694822928862"><ele>444.6</ele><time>2026-03-28T09:23:52Z</time></trkpt><trkpt lat="39.83430135000094" lon="9.567586479629592"><ele>445.2</ele><time>2026-03-28T09:23:53Z</time></trkpt><trkpt lat="39.83434670962245" lon="9.567478588799846"><ele>445.80000000000007</ele><time>2026-03-28T09:23:54Z</time></trkpt><trkpt lat="39.834388917748726" lon="9.567367269006821"><ele>446.40000000000003</ele><time>2026-03-28T09:23:55Z</time></trkpt><trkpt lat="39.83442877466048" lon="9.567253851508054"><ele>447.0</ele><time>2026-03-28T09:23:56Z</time></trkpt><trkpt lat="39.834462528862446" lon="9.567140916098932"><ele>445.6</ele><time>2026-03-28T09:23:57Z</time></trkpt><trkpt lat="39.834493757911886" lon="9.567029299525316"><ele>444.20000000000005</ele><time>2026-03-28T09:23:58Z</time></trkpt><trkpt lat="39.834523774856336" lon="9.566917503316809"><ele>442.8</ele><time>2026-03-28T09:23:59Z</time></trkpt><trkpt lat="39.834552681098174" lon="9.566805679636225"><ele>441.4</ele><time>2026-03-28T09:24:00Z</time></trkpt><trkpt lat="39.83458370916396" lon="9.566695770432638"><ele>440.0</ele><time>2026-03-28T09:24:01Z</time></trkpt><trkpt lat="39.834622503416405" lon="9.56659442801921"><ele>439.99999999999994</ele><time>2026-03-28T09:24:02Z</time></trkpt><trkpt lat="39.83467537530153" lon="9.566511523328916"><ele>440.0</ele><time>2026-03-28T09:24:03Z</time></trkpt><trkpt lat="39.83475698456241" lon="9.566477893932863"><ele>440.0</ele><time>2026-03-28T09:24:04Z</time></trkpt><trkpt lat="39.83482899696081" lon="9.566432948799738"><ele>440.0</ele><time>2026-03-28T09:24:05Z</time></trkpt><trkpt lat="39.83490248530587" lon="9.56636983947253"><ele>439.99999999999994</ele><time>2026-03-28T09:24:06Z</time></trkpt><trkpt lat="39.83499213199302" lon="9.566336155884521"><ele>440.0</ele><time>2026-03-28T09:24:07Z</time></trkpt><trkpt lat="39.83508625178909" lon="9.566284475473969"><ele>439.8</ele><time>2026-03-28T09:24:08Z</time></trkpt><trkpt lat="39.83517857250863" lon="9.56623738876036"><ele>439.6</ele><time>2026-03-28T09:24:09Z</time></trkpt><trkpt lat="39.835275163115554" lon="9.566194387027725"><ele>439.4</ele><time>2026-03-28T09:24:10Z</time></trkpt><trkpt lat="39.83537163448183" lon="9.566154395856724"><ele>439.2</ele><time>2026-03-28T09:24:11Z</time></trkpt><trkpt lat="39.8354664423259" lon="9.56611076482124"><ele>439.0</ele><time>2026-03-28T09:24:12Z</time></trkpt><trkpt lat="39.83556032743593" lon="9.566071173949075"><ele>439.00000000000006</ele><time>2026-03-28T09:24:13Z</time></trkpt><trkpt lat="39.835651512206155" lon="9.566034081125151"><ele>439.0</ele><time>2026-03-28T09:24:14Z</time></trkpt><trkpt lat="39.8357377271107" lon="9.565991055652725"><ele>439.0</ele><time>2026-03-28T09:24:15Z</time></trkpt><trkpt lat="39.83581980061848" lon="9.56595487338667"><ele>439.0</ele><time>2026-03-28T09:24:16Z</time></trkpt><trkpt lat="39.83589452196037" lon="9.565928418238718"><ele>439.00000000000006</ele><time>2026-03-28T09:24:17Z</time></trkpt><trkpt lat="39.83596463508536" lon="9.565905925834725"><ele>439.0</ele><time>2026-03-28T09:24:18Z</time></trkpt><trkpt lat="39.83602889306448" lon="9.565910579278508"><ele>440.50000000000006</ele><time>2026-03-28T09:24:19Z</time></trkpt><trkpt lat="39.8361265691114" lon="9.565892362636971"><ele>442.0</ele><time>2026-03-28T09:24:21Z</time></trkpt><trkpt lat="39.8361565639397" lon="9.56575950333632"><ele>443.5</ele><time>2026-03-28T09:24:22Z</time></trkpt><trkpt lat="39.836185403565295" lon="9.565684741042285"><ele>445.0</ele><time>2026-03-28T09:24:23Z</time></trkpt><trkpt lat="39.83621380691189" lon="9.56559664252697"><ele>446.50000000000006</ele><time>2026-03-28T09:24:24Z</time></trkpt><trkpt lat="39.83625011382127" lon="9.565500240527113"><ele>448.0</ele><time>2026-03-28T09:24:25Z</time></trkpt><trkpt lat="39.836290150121364" lon="9.565392333056806"><ele>448.0</ele><time>2026-03-28T09:24:26Z</time></trkpt><trkpt lat="39.8363448768781" lon="9.565291995763436"><ele>447.99999999999994</ele><time>2026-03-28T09:24:27Z</time></trkpt><trkpt lat="39.83639077032585" lon="9.565179391790341"><ele>447.99999999999994</ele><time>2026-03-28T09:24:28Z</time></trkpt><trkpt lat="39.8364265921149" lon="9.565054037416994"><ele>448.0</ele><time>2026-03-28T09:24:29Z</time></trkpt><trkpt lat="39.83650067211238" lon="9.56496912187907"><ele>448.0</ele><time>2026-03-28T09:24:30Z</time></trkpt><trkpt lat="39.8365478609064" lon="9.564861718359003"><ele>448.00000000000006</ele><time>2026-03-28T09:24:31Z</time></trkpt><trkpt lat="39.83656489427976" lon="9.564746330966724"><ele>448.0</ele><time>2026-03-28T09:24:32Z</time></trkpt><trkpt lat="39.83658805768934" lon="9.564635910456342"><ele>448.0</ele><time>2026-03-28T09:24:33Z</time></trkpt><trkpt lat="39.83664043122609" lon="9.564543637919451"><ele>448.0</ele><time>2026-03-28T09:24:34Z</time></trkpt><trkpt lat="39.836681296047416" lon="9.564441151709406"><ele>448.00000000000006</ele><time>2026-03-28T09:24:35Z</time></trkpt><trkpt lat="39.83674318443446" lon="9.564355377843217"><ele>448.0</ele><time>2026-03-28T09:24:36Z</time></trkpt><trkpt lat="39.83679627584357" lon="9.564278190283805"><ele>446.33333333333337</ele><time>2026-03-28T09:24:37Z</time></trkpt><trkpt lat="39.8368508274525" lon="9.564218066378777"><ele>444.6666666666667</ele><time>2026-03-28T09:24:38Z</time></trkpt><trkpt lat="39.83691264153967" lon="9.564198151368517"><ele>443.0</ele><time>2026-03-28T09:24:39Z</time></trkpt><trkpt lat="39.83700207182099" lon="9.564313762658257"><ele>441.33333333333337</ele><time>2026-03-28T09:24:41Z</time></trkpt><trkpt lat="39.83704482494878" lon="9.564405456686828"><ele>439.6666666666667</ele><time>2026-03-28T09:24:42Z</time></trkpt><trkpt lat="39.83709843169156" lon="9.56449211037634"><ele>438.0</ele><time>2026-03-28T09:24:43Z</time></trkpt><trkpt lat="39.837162552650774" lon="9.564548437528376"><ele>438.0</ele><time>2026-03-28T09:24:44Z</time></trkpt><trkpt lat="39.83723088296705" lon="9.564561208314222"><ele>438.0</ele><time>2026-03-28T09:24:45Z</time></trkpt><trkpt lat="39.83729552188245" lon="9.564537947041421"><ele>438.0</ele><time>2026-03-28T09:24:46Z</time></trkpt><trkpt lat="39.837357471443134" lon="9.56449578159393"><ele>438.0</ele><time>2026-03-28T09:24:47Z</time></trkpt><trkpt lat="39.837424503616155" lon="9.564455161282892"><ele>438.0</ele><time>2026-03-28T09:24:48Z</time></trkpt><trkpt lat="39.83748902829291" lon="9.564404638927895"><ele>438.0</ele><time>2026-03-28T09:24:49Z</time></trkpt><trkpt lat="39.83754926904962" lon="9.564341197325376"><ele>438.0</ele><time>2026-03-28T09:24:50Z</time></trkpt><trkpt lat="39.837601891327346" lon="9.564260429565097"><ele>441.6666666666667</ele><time>2026-03-28T09:24:51Z</time></trkpt><trkpt lat="39.8376432590244" lon="9.56417341591096"><ele>445.33333333333337</ele><time>2026-03-28T09:24:52Z</time></trkpt><trkpt lat="39.83769932615379" lon="9.564105346278595"><ele>449.0</ele><time>2026-03-28T09:24:53Z</time></trkpt><trkpt lat="39.83773801762823" lon="9.564019355375663"><ele>452.6666666666667</ele><time>2026-03-28T09:24:54Z</time></trkpt><trkpt lat="39.83777445222488" lon="9.563933716358923"><ele>456.33333333333337</ele><time>2026-03-28T09:24:55Z</time></trkpt><trkpt lat="39.83781658758506" lon="9.563854467264756"><ele>460.0</ele><time>2026-03-28T09:24:56Z</time></trkpt><trkpt lat="39.83785675732276" lon="9.563781589477724"><ele>459.99999999999994</ele><time>2026-03-28T09:24:57Z</time></trkpt><trkpt lat="39.83790234407937" lon="9.563720140291947"><ele>460.0</ele><time>2026-03-28T09:24:58Z</time></trkpt><trkpt lat="39.83795631464961" lon="9.563663502418134"><ele>459.99999999999994</ele><time>2026-03-28T09:24:59Z</time></trkpt><trkpt lat="39.8380173842137" lon="9.563623746118845"><ele>459.99999999999994</ele><time>2026-03-28T09:25:00Z</time></trkpt><trkpt lat="39.83808763733053" lon="9.563588418898346"><ele>460.0</ele><time>2026-03-28T09:25:01Z</time></trkpt><trkpt lat="39.83816212610042" lon="9.563565161377133"><ele>459.99999999999994</ele><time>2026-03-28T09:25:02Z</time></trkpt><trkpt lat="39.83823842633877" lon="9.563549127853243"><ele>459.99999999999994</ele><time>2026-03-28T09:25:03Z</time></trkpt><trkpt lat="39.83831709645877" lon="9.563531138651443"><ele>457.6666666666667</ele><time>2026-03-28T09:25:04Z</time></trkpt><trkpt lat="39.83839291568711" lon="9.563510731057399"><ele>455.33333333333337</ele><time>2026-03-28T09:25:05Z</time></trkpt><trkpt lat="39.83846791225582" lon="9.563489366350355"><ele>453.0</ele><time>2026-03-28T09:25:06Z</time></trkpt><trkpt lat="39.83854672223054" lon="9.563460544656092"><ele>450.66666666666663</ele><time>2026-03-28T09:25:07Z</time></trkpt><trkpt lat="39.838621419772835" lon="9.563434154027743"><ele>448.3333333333333</ele><time>2026-03-28T09:25:08Z</time></trkpt><trkpt lat="39.83869678332245" lon="9.56341974582949"><ele>446.0</ele><time>2026-03-28T09:25:09Z</time></trkpt><trkpt lat="39.8387745449012" lon="9.563411680829432"><ele>446.0</ele><time>2026-03-28T09:25:10Z</time></trkpt><trkpt lat="39.83884956946981" lon="9.563411314124433"><ele>446.0</ele><time>2026-03-28T09:25:11Z</time></trkpt><trkpt lat="39.83892142241729" lon="9.563408677688189"><ele>446.0</ele><time>2026-03-28T09:25:12Z</time></trkpt><trkpt lat="39.83899850977642" lon="9.563404932064328"><ele>446.0</ele><time>2026-03-28T09:25:13Z</time></trkpt><trkpt lat="39.839071341692254" lon="9.563382304213606"><ele>446.0</ele><time>2026-03-28T09:25:14Z</time></trkpt><trkpt lat="39.83913238070481" lon="9.563348350832248"><ele>446.0</ele><time>2026-03-28T09:25:15Z</time></trkpt><trkpt lat="39.839183569562834" lon="9.563295723908848"><ele>446.0</ele><time>2026-03-28T09:25:16Z</time></trkpt><trkpt lat="39.83923710371584" lon="9.563248382697566"><ele>445.99999999999994</ele><time>2026-03-28T09:25:17Z</time></trkpt><trkpt lat="39.839255386740184" lon="9.563151609782821"><ele>446.0</ele><time>2026-03-28T09:25:18Z</time></trkpt><trkpt lat="39.8392522608004" lon="9.563039703824662"><ele>446.0</ele><time>2026-03-28T09:25:19Z</time></trkpt><trkpt lat="39.839192340830955" lon="9.562943624010295"><ele>446.0</ele><time>2026-03-28T09:25:20Z</time></trkpt><trkpt lat="39.839171014223886" lon="9.562848592076923"><ele>445.99999999999994</ele><time>2026-03-28T09:25:21Z</time></trkpt><trkpt lat="39.8391593993031" lon="9.562746640060265"><ele>446.0</ele><time>2026-03-28T09:25:22Z</time></trkpt><trkpt lat="39.839147806150805" lon="9.562641379883733"><ele>443.66666666666663</ele><time>2026-03-28T09:25:23Z</time></trkpt><trkpt lat="39.8391355652956" lon="9.562538302679846"><ele>441.3333333333333</ele><time>2026-03-28T09:25:24Z</time></trkpt><trkpt lat="39.83912334637203" lon="9.562435410799614"><ele>439.0</ele><time>2026-03-28T09:25:25Z</time></trkpt><trkpt lat="39.83910908077977" lon="9.562329429990417"><ele>436.66666666666663</ele><time>2026-03-28T09:25:26Z</time></trkpt><trkpt lat="39.839093180638926" lon="9.562230485246952"><ele>434.3333333333333</ele><time>2026-03-28T09:25:27Z</time></trkpt><trkpt lat="39.83908058096675" lon="9.562134883282758"><ele>432.0</ele><time>2026-03-28T09:25:28Z</time></trkpt><trkpt lat="39.83907912649722" lon="9.562045065957907"><ele>430.0</ele><time>2026-03-28T09:25:29Z</time></trkpt><trkpt lat="39.83909948118784" lon="9.561965660639984"><ele>428.0</ele><time>2026-03-28T09:25:30Z</time></trkpt><trkpt lat="39.83913611565217" lon="9.5618961596862"><ele>426.0</ele><time>2026-03-28T09:25:31Z</time></trkpt><trkpt lat="39.83917982499703" lon="9.56183670859832"><ele>424.0</ele><time>2026-03-28T09:25:32Z</time></trkpt><trkpt lat="39.83922519379263" lon="9.5617749923284"><ele>422.0</ele><time>2026-03-28T09:25:33Z</time></trkpt><trkpt lat="39.83926242877923" lon="9.56170474348036"><ele>420.0</ele><time>2026-03-28T09:25:34Z</time></trkpt><trkpt lat="39.83931339117817" lon="9.56164518845065"><ele>418.0</ele><time>2026-03-28T09:25:35Z</time></trkpt><trkpt lat="39.83936388010967" lon="9.561574471262917"><ele>419.1666666666667</ele><time>2026-03-28T09:25:36Z</time></trkpt><trkpt lat="39.839422480154866" lon="9.56149792342094"><ele>420.33333333333337</ele><time>2026-03-28T09:25:37Z</time></trkpt><trkpt lat="39.83947887788197" lon="9.561407370354974"><ele>421.5</ele><time>2026-03-28T09:25:38Z</time></trkpt><trkpt lat="39.83953720840716" lon="9.56131923772227"><ele>422.66666666666663</ele><time>2026-03-28T09:25:39Z</time></trkpt><trkpt lat="39.83959239386818" lon="9.561227712387987"><ele>423.8333333333333</ele><time>2026-03-28T09:25:40Z</time></trkpt><trkpt lat="39.83964264957762" lon="9.561133636940896"><ele>425.0</ele><time>2026-03-28T09:25:41Z</time></trkpt><trkpt lat="39.839697905153436" lon="9.561046244039709"><ele>424.99999999999994</ele><time>2026-03-28T09:25:42Z</time></trkpt><trkpt lat="39.83974085102578" lon="9.560954496619969"><ele>425.0</ele><time>2026-03-28T09:25:43Z</time></trkpt><trkpt lat="39.83977686591064" lon="9.560854085270686"><ele>425.0</ele><time>2026-03-28T09:25:44Z</time></trkpt><trkpt lat="39.83984099399695" lon="9.560776757064218"><ele>425.0</ele><time>2026-03-28T09:25:45Z</time></trkpt><trkpt lat="39.83990934020736" lon="9.560711454416056"><ele>424.99999999999994</ele><time>2026-03-28T09:25:46Z</time></trkpt><trkpt lat="39.83997627914009" lon="9.560663059433502"><ele>425.0</ele><time>2026-03-28T09:25:47Z</time></trkpt><trkpt lat="39.84005184197801" lon="9.560627991628712"><ele>424.99999999999994</ele><time>2026-03-28T09:25:48Z</time></trkpt><trkpt lat="39.840124899253176" lon="9.56059834208401"><ele>425.0</ele><time>2026-03-28T09:25:49Z</time></trkpt><trkpt lat="39.840195855944515" lon="9.560570945513527"><ele>425.0</ele><time>2026-03-28T09:25:50Z</time></trkpt><trkpt lat="39.840257269887935" lon="9.560528790157525"><ele>425.0</ele><time>2026-03-28T09:25:51Z</time></trkpt><trkpt lat="39.84030913662232" lon="9.560461204974384"><ele>424.99999999999994</ele><time>2026-03-28T09:25:52Z</time></trkpt><trkpt lat="39.840350310904476" lon="9.560375950782179"><ele>425.0</ele><time>2026-03-28T09:25:53Z</time></trkpt><trkpt lat="39.840407473518326" lon="9.560303321495663"><ele>425.8333333333333</ele><time>2026-03-28T09:25:54Z</time></trkpt><trkpt lat="39.840439747116015" lon="9.560203259542613"><ele>426.66666666666663</ele><time>2026-03-28T09:25:55Z</time></trkpt><trkpt lat="39.84048986369265" lon="9.560118470416947"><ele>427.5</ele><time>2026-03-28T09:25:56Z</time></trkpt><trkpt lat="39.840532498457456" lon="9.56002196551073"><ele>428.33333333333337</ele><time>2026-03-28T09:25:57Z</time></trkpt><trkpt lat="39.84057337708754" lon="9.559931046702966"><ele>429.1666666666667</ele><time>2026-03-28T09:25:58Z</time></trkpt><trkpt lat="39.84061608781073" lon="9.559846160127263"><ele>430.0</ele><time>2026-03-28T09:25:59Z</time></trkpt><trkpt lat="39.840660115604535" lon="9.559758309598713"><ele>430.00000000000006</ele><time>2026-03-28T09:26:00Z</time></trkpt><trkpt lat="39.84070750820003" lon="9.55968060187667"><ele>430.0</ele><time>2026-03-28T09:26:01Z</time></trkpt><trkpt lat="39.84074859658743" lon="9.559592143814323"><ele>430.0</ele><time>2026-03-28T09:26:02Z</time></trkpt><trkpt lat="39.84078909225307" lon="9.559505056620951"><ele>430.0</ele><time>2026-03-28T09:26:03Z</time></trkpt><trkpt lat="39.84083143781709" lon="9.559414570538609"><ele>430.00000000000006</ele><time>2026-03-28T09:26:04Z</time></trkpt><trkpt lat="39.84087640909408" lon="9.559326442598575"><ele>430.0</ele><time>2026-03-28T09:26:05Z</time></trkpt><trkpt lat="39.840923418610615" lon="9.559240727791046"><ele>429.83333333333337</ele><time>2026-03-28T09:26:06Z</time></trkpt><trkpt lat="39.840971334247904" lon="9.559153161143522"><ele>429.6666666666667</ele><time>2026-03-28T09:26:07Z</time></trkpt><trkpt lat="39.84102279041426" lon="9.559067064073211"><ele>429.5</ele><time>2026-03-28T09:26:08Z</time></trkpt><trkpt lat="39.841077762223904" lon="9.558984086481571"><ele>429.33333333333337</ele><time>2026-03-28T09:26:09Z</time></trkpt><trkpt lat="39.84113334358687" lon="9.558905516214473"><ele>429.1666666666667</ele><time>2026-03-28T09:26:10Z</time></trkpt><trkpt lat="39.84119226322433" lon="9.558836301333926"><ele>429.0</ele><time>2026-03-28T09:26:11Z</time></trkpt><trkpt lat="39.841251442991705" lon="9.558780457109311"><ele>429.0</ele><time>2026-03-28T09:26:12Z</time></trkpt><trkpt lat="39.84131541780749" lon="9.558739513140459"><ele>429.0</ele><time>2026-03-28T09:26:13Z</time></trkpt><trkpt lat="39.841383818450026" lon="9.558713536827913"><ele>429.0</ele><time>2026-03-28T09:26:14Z</time></trkpt><trkpt lat="39.84145234184401" lon="9.558700111320093"><ele>429.0</ele><time>2026-03-28T09:26:15Z</time></trkpt><trkpt lat="39.84152867731158" lon="9.55870385241363"><ele>429.0</ele><time>2026-03-28T09:26:16Z</time></trkpt><trkpt lat="39.841610286394186" lon="9.55871277290315"><ele>429.0</ele><time>2026-03-28T09:26:17Z</time></trkpt><trkpt lat="39.8416959788926" lon="9.558722751613036"><ele>429.0</ele><time>2026-03-28T09:26:18Z</time></trkpt><trkpt lat="39.84178195395821" lon="9.558732305767704"><ele>429.0</ele><time>2026-03-28T09:26:19Z</time></trkpt><trkpt lat="39.84186804912235" lon="9.55873833997143"><ele>429.0</ele><time>2026-03-28T09:26:20Z</time></trkpt><trkpt lat="39.841949060633034" lon="9.558759141865343"><ele>429.0</ele><time>2026-03-28T09:26:21Z</time></trkpt><trkpt lat="39.84202690097242" lon="9.558785577851971"><ele>429.0</ele><time>2026-03-28T09:26:22Z</time></trkpt><trkpt lat="39.84210370895418" lon="9.558801902307744"><ele>429.0</ele><time>2026-03-28T09:26:23Z</time></trkpt><trkpt lat="39.84217724274046" lon="9.558784352775938"><ele>430.0</ele><time>2026-03-28T09:26:24Z</time></trkpt><trkpt lat="39.842249910239076" lon="9.55874750754572"><ele>431.0</ele><time>2026-03-28T09:26:25Z</time></trkpt><trkpt lat="39.8422795604766" lon="9.558645893415148"><ele>432.0</ele><time>2026-03-28T09:26:26Z</time></trkpt><trkpt lat="39.84229290040637" lon="9.558556370002236"><ele>433.0</ele><time>2026-03-28T09:26:27Z</time></trkpt><trkpt lat="39.84229950451353" lon="9.558466626710738"><ele>434.0</ele><time>2026-03-28T09:26:28Z</time></trkpt><trkpt lat="39.842319602521926" lon="9.558376405989154"><ele>435.0</ele><time>2026-03-28T09:26:29Z</time></trkpt><trkpt lat="39.842360884362684" lon="9.55829914299017"><ele>436.0</ele><time>2026-03-28T09:26:30Z</time></trkpt><trkpt lat="39.84242305732568" lon="9.558239833608912"><ele>433.83333333333337</ele><time>2026-03-28T09:26:31Z</time></trkpt><trkpt lat="39.84249613948476" lon="9.558196490584635"><ele>431.6666666666667</ele><time>2026-03-28T09:26:32Z</time></trkpt><trkpt lat="39.84257086894337" lon="9.558147872689661"><ele>429.5</ele><time>2026-03-28T09:26:33Z</time></trkpt><trkpt lat="39.84264850733217" lon="9.558105330880801"><ele>427.33333333333337</ele><time>2026-03-28T09:26:34Z</time></trkpt><trkpt lat="39.842725534772484" lon="9.558062318217143"><ele>425.1666666666667</ele><time>2026-03-28T09:26:35Z</time></trkpt><trkpt lat="39.8427984414216" lon="9.558017845855435"><ele>423.0</ele><time>2026-03-28T09:26:36Z</time></trkpt><trkpt lat="39.84286848401053" lon="9.557969673291865"><ele>423.0</ele><time>2026-03-28T09:26:37Z</time></trkpt><trkpt lat="39.842932896380105" lon="9.557920898489883"><ele>423.0</ele><time>2026-03-28T09:26:38Z</time></trkpt><trkpt lat="39.84299849069189" lon="9.557888654964017"><ele>423.0</ele><time>2026-03-28T09:26:39Z</time></trkpt><trkpt lat="39.84307271883225" lon="9.557866435694129"><ele>423.0</ele><time>2026-03-28T09:26:40Z</time></trkpt><trkpt lat="39.84314894440808" lon="9.557864869314342"><ele>423.0</ele><time>2026-03-28T09:26:41Z</time></trkpt><trkpt lat="39.84322986493406" lon="9.55786437087797"><ele>423.0</ele><time>2026-03-28T09:26:42Z</time></trkpt><trkpt lat="39.84330855107788" lon="9.557858167156223"><ele>421.5</ele><time>2026-03-28T09:26:43Z</time></trkpt><trkpt lat="39.84339045181784" lon="9.557851180517376"><ele>420.0</ele><time>2026-03-28T09:26:44Z</time></trkpt><trkpt lat="39.84347181027587" lon="9.55785215484635"><ele>418.5</ele><time>2026-03-28T09:26:45Z</time></trkpt><trkpt lat="39.84355344390642" lon="9.557863483766058"><ele>417.0</ele><time>2026-03-28T09:26:46Z</time></trkpt><trkpt lat="39.843635112127494" lon="9.55788368396172"><ele>415.5</ele><time>2026-03-28T09:26:47Z</time></trkpt><trkpt lat="39.84371738680269" lon="9.557897057140352"><ele>414.0</ele><time>2026-03-28T09:26:48Z</time></trkpt><trkpt lat="39.84379059320608" lon="9.557928611962366"><ele>414.0</ele><time>2026-03-28T09:26:49Z</time></trkpt><trkpt lat="39.843863292190846" lon="9.557977617474824"><ele>414.0</ele><time>2026-03-28T09:26:50Z</time></trkpt><trkpt lat="39.84393644947005" lon="9.558036169803263"><ele>414.0</ele><time>2026-03-28T09:26:51Z</time></trkpt><trkpt lat="39.84400855822802" lon="9.558101030411414"><ele>414.0</ele><time>2026-03-28T09:26:52Z</time></trkpt><trkpt lat="39.84408300156352" lon="9.55816479806743"><ele>414.0</ele><time>2026-03-28T09:26:53Z</time></trkpt><trkpt lat="39.84416178643928" lon="9.558226522781542"><ele>414.0</ele><time>2026-03-28T09:26:54Z</time></trkpt><trkpt lat="39.84422945660951" lon="9.558296958721023"><ele>414.0</ele><time>2026-03-28T09:26:55Z</time></trkpt><trkpt lat="39.844284184469544" lon="9.558373781592977"><ele>414.0</ele><time>2026-03-28T09:26:56Z</time></trkpt><trkpt lat="39.84436058036317" lon="9.558465624869736"><ele>414.0</ele><time>2026-03-28T09:26:58Z</time></trkpt><trkpt lat="39.8444410184253" lon="9.558475636265305"><ele>414.0</ele><time>2026-03-28T09:27:00Z</time></trkpt><trkpt lat="39.844521341209635" lon="9.558410211405382"><ele>414.0</ele><time>2026-03-28T09:27:03Z</time></trkpt><trkpt lat="39.84457304536023" lon="9.558291755257269"><ele>414.6666666666667</ele><time>2026-03-28T09:27:05Z</time></trkpt><trkpt lat="39.844602097759434" lon="9.558215108292778"><ele>415.33333333333337</ele><time>2026-03-28T09:27:06Z</time></trkpt><trkpt lat="39.844611012854436" lon="9.55812933651145"><ele>416.0</ele><time>2026-03-28T09:27:07Z</time></trkpt><trkpt lat="39.84460212407939" lon="9.557969421732325"><ele>416.6666666666667</ele><time>2026-03-28T09:27:09Z</time></trkpt><trkpt lat="39.8445970035836" lon="9.557885112270915"><ele>417.33333333333337</ele><time>2026-03-28T09:27:10Z</time></trkpt><trkpt lat="39.844596223332374" lon="9.557789552498317"><ele>418.0</ele><time>2026-03-28T09:27:11Z</time></trkpt><trkpt lat="39.844605509984355" lon="9.557690479674188"><ele>418.00000000000006</ele><time>2026-03-28T09:27:12Z</time></trkpt><trkpt lat="39.84462931257692" lon="9.557589498880949"><ele>418.0</ele><time>2026-03-28T09:27:13Z</time></trkpt><trkpt lat="39.84466014887311" lon="9.557484646326028"><ele>418.0</ele><time>2026-03-28T09:27:14Z</time></trkpt><trkpt lat="39.84469239569263" lon="9.557374625138898"><ele>418.0</ele><time>2026-03-28T09:27:15Z</time></trkpt><trkpt lat="39.84471556689944" lon="9.557257441004486"><ele>418.00000000000006</ele><time>2026-03-28T09:27:16Z</time></trkpt><trkpt lat="39.84473265727488" lon="9.557144201825501"><ele>418.0</ele><time>2026-03-28T09:27:17Z</time></trkpt><trkpt lat="39.84473685407744" lon="9.557029550048405"><ele>415.33333333333337</ele><time>2026-03-28T09:27:18Z</time></trkpt><trkpt lat="39.84475161719784" lon="9.556926547335516"><ele>412.6666666666667</ele><time>2026-03-28T09:27:19Z</time></trkpt><trkpt lat="39.84477247625402" lon="9.556826642307973"><ele>410.0</ele><time>2026-03-28T09:27:20Z</time></trkpt><trkpt lat="39.84480468517372" lon="9.556745541370391"><ele>407.33333333333337</ele><time>2026-03-28T09:27:21Z</time></trkpt><trkpt lat="39.84485354182517" lon="9.556669504681743"><ele>404.6666666666667</ele><time>2026-03-28T09:27:22Z</time></trkpt><trkpt lat="39.84490595214824" lon="9.556591554502573"><ele>402.0</ele><time>2026-03-28T09:27:23Z</time></trkpt><trkpt lat="39.844951297484585" lon="9.556505063164595"><ele>402.0</ele><time>2026-03-28T09:27:24Z</time></trkpt><trkpt lat="39.84497973246503" lon="9.556407522147362"><ele>402.0</ele><time>2026-03-28T09:27:25Z</time></trkpt><trkpt lat="39.844994428878216" lon="9.55630230381127"><ele>402.0</ele><time>2026-03-28T09:27:26Z</time></trkpt><trkpt lat="39.84500601110155" lon="9.55620390418622"><ele>402.0</ele><time>2026-03-28T09:27:27Z</time></trkpt><trkpt lat="39.84500588674497" lon="9.556098570218987"><ele>402.0</ele><time>2026-03-28T09:27:28Z</time></trkpt><trkpt lat="39.845028482099934" lon="9.555994537019869"><ele>402.0</ele><time>2026-03-28T09:27:29Z</time></trkpt><trkpt lat="39.84506223868899" lon="9.55589454082525"><ele>404.1666666666667</ele><time>2026-03-28T09:27:30Z</time></trkpt><trkpt lat="39.84510725460003" lon="9.555799068309943"><ele>406.33333333333337</ele><time>2026-03-28T09:27:31Z</time></trkpt><trkpt lat="39.84516682592234" lon="9.555719743554198"><ele>408.5</ele><time>2026-03-28T09:27:32Z</time></trkpt><trkpt lat="39.84523242878566" lon="9.555651494290869"><ele>410.6666666666667</ele><time>2026-03-28T09:27:33Z</time></trkpt><trkpt lat="39.84529987491986" lon="9.555586009918386"><ele>412.83333333333337</ele><time>2026-03-28T09:27:34Z</time></trkpt><trkpt lat="39.845363601838834" lon="9.555506842452957"><ele>415.0</ele><time>2026-03-28T09:27:35Z</time></trkpt><trkpt lat="39.8454154582894" lon="9.555405030047549"><ele>411.0</ele><time>2026-03-28T09:27:36Z</time></trkpt><trkpt lat="39.84546280748209" lon="9.555292188398173"><ele>407.0</ele><time>2026-03-28T09:27:37Z</time></trkpt><trkpt lat="39.84550417655311" lon="9.555170245352645"><ele>403.0</ele><time>2026-03-28T09:27:38Z</time></trkpt><trkpt lat="39.84554884275213" lon="9.555049497338992"><ele>399.0</ele><time>2026-03-28T09:27:39Z</time></trkpt><trkpt lat="39.845615141110244" lon="9.554902152649783"><ele>395.0</ele><time>2026-03-28T09:27:41Z</time></trkpt><trkpt lat="39.84565337903503" lon="9.55480252509247"><ele>395.0</ele><time>2026-03-28T09:27:42Z</time></trkpt><trkpt lat="39.8456890109433" lon="9.554709690635336"><ele>395.0</ele><time>2026-03-28T09:27:43Z</time></trkpt><trkpt lat="39.84572564733319" lon="9.554628952537147"><ele>395.0</ele><time>2026-03-28T09:27:44Z</time></trkpt><trkpt lat="39.84576460990893" lon="9.554558760674906"><ele>395.0</ele><time>2026-03-28T09:27:45Z</time></trkpt><trkpt lat="39.84580569874833" lon="9.554488989772768"><ele>395.0</ele><time>2026-03-28T09:27:46Z</time></trkpt><trkpt lat="39.845875743299686" lon="9.55445604837784"><ele>395.0</ele><time>2026-03-28T09:27:47Z</time></trkpt><trkpt lat="39.845956829871334" lon="9.554440588714852"><ele>395.0</ele><time>2026-03-28T09:27:48Z</time></trkpt><trkpt lat="39.84604143008347" lon="9.554446777473565"><ele>394.3333333333333</ele><time>2026-03-28T09:27:49Z</time></trkpt><trkpt lat="39.846126669516025" lon="9.554456381947892"><ele>393.66666666666663</ele><time>2026-03-28T09:27:50Z</time></trkpt><trkpt lat="39.84621134301848" lon="9.554459722843202"><ele>393.0</ele><time>2026-03-28T09:27:51Z</time></trkpt><trkpt lat="39.84628667918397" lon="9.55444619643137"><ele>392.33333333333337</ele><time>2026-03-28T09:27:52Z</time></trkpt><trkpt lat="39.84634871913459" lon="9.554411789864584"><ele>391.6666666666667</ele><time>2026-03-28T09:27:53Z</time></trkpt><trkpt lat="39.846427930517095" lon="9.554292264632412"><ele>391.0</ele><time>2026-03-28T09:27:55Z</time></trkpt><trkpt lat="39.846454542187004" lon="9.554214663807478"><ele>390.99999999999994</ele><time>2026-03-28T09:27:56Z</time></trkpt><trkpt lat="39.84648814491235" lon="9.554137765215112"><ele>391.0</ele><time>2026-03-28T09:27:57Z</time></trkpt><trkpt lat="39.8465338440965" lon="9.554063320178203"><ele>391.0</ele><time>2026-03-28T09:27:58Z</time></trkpt><trkpt lat="39.846588442520265" lon="9.553996151001718"><ele>391.0</ele><time>2026-03-28T09:27:59Z</time></trkpt><trkpt lat="39.846652981769104" lon="9.553955404624437"><ele>391.0</ele><time>2026-03-28T09:28:00Z</time></trkpt><trkpt lat="39.84671965151474" lon="9.553914876983562"><ele>390.99999999999994</ele><time>2026-03-28T09:28:01Z</time></trkpt><trkpt lat="39.84678990791053" lon="9.553874996217116"><ele>391.0</ele><time>2026-03-28T09:28:02Z</time></trkpt><trkpt lat="39.84682839305116" lon="9.55377554303625"><ele>389.2857142857143</ele><time>2026-03-28T09:28:03Z</time></trkpt><trkpt lat="39.84684786892765" lon="9.55368371740264"><ele>387.57142857142856</ele><time>2026-03-28T09:28:04Z</time></trkpt><trkpt lat="39.84684546646403" lon="9.553595503560803"><ele>385.8571428571429</ele><time>2026-03-28T09:28:05Z</time></trkpt><trkpt lat="39.846826620990974" lon="9.553509396545886"><ele>384.1428571428571</ele><time>2026-03-28T09:28:06Z</time></trkpt><trkpt lat="39.846802260682196" lon="9.5534226921995"><ele>382.42857142857144</ele><time>2026-03-28T09:28:07Z</time></trkpt><trkpt lat="39.846777192959415" lon="9.553340549647169"><ele>380.7142857142857</ele><time>2026-03-28T09:28:08Z</time></trkpt><trkpt lat="39.84674835776755" lon="9.553258563237035"><ele>379.0</ele><time>2026-03-28T09:28:09Z</time></trkpt><trkpt lat="39.84674817307988" lon="9.553162636265721"><ele>379.0</ele><time>2026-03-28T09:28:10Z</time></trkpt><trkpt lat="39.846752460908505" lon="9.553068166118713"><ele>379.0</ele><time>2026-03-28T09:28:11Z</time></trkpt><trkpt lat="39.84677318810593" lon="9.55297248483767"><ele>379.0</ele><time>2026-03-28T09:28:12Z</time></trkpt><trkpt lat="39.846796283840455" lon="9.552872453105802"><ele>379.0</ele><time>2026-03-28T09:28:13Z</time></trkpt><trkpt lat="39.846838635332425" lon="9.552788748216761"><ele>379.0</ele><time>2026-03-28T09:28:14Z</time></trkpt><trkpt lat="39.84688635331652" lon="9.552701478749583"><ele>379.0</ele><time>2026-03-28T09:28:15Z</time></trkpt><trkpt lat="39.846940928732515" lon="9.552621531195243"><ele>381.66666666666663</ele><time>2026-03-28T09:28:16Z</time></trkpt><trkpt lat="39.84700043407268" lon="9.552542004029673"><ele>384.3333333333333</ele><time>2026-03-28T09:28:17Z</time></trkpt><trkpt lat="39.847053540242804" lon="9.552447290171859"><ele>387.0</ele><time>2026-03-28T09:28:18Z</time></trkpt><trkpt lat="39.847120406920794" lon="9.552370570131258"><ele>389.66666666666663</ele><time>2026-03-28T09:28:19Z</time></trkpt><trkpt lat="39.847181077554836" lon="9.552284787263481"><ele>392.3333333333333</ele><time>2026-03-28T09:28:20Z</time></trkpt><trkpt lat="39.847234491049335" lon="9.552190064091755"><ele>395.0</ele><time>2026-03-28T09:28:21Z</time></trkpt><trkpt lat="39.8472722140291" lon="9.552086062557322"><ele>392.2</ele><time>2026-03-28T09:28:22Z</time></trkpt><trkpt lat="39.847319854502565" lon="9.551990198814487"><ele>389.4</ele><time>2026-03-28T09:28:23Z</time></trkpt><trkpt lat="39.847370488862495" lon="9.551891782205697"><ele>386.6</ele><time>2026-03-28T09:28:24Z</time></trkpt><trkpt lat="39.84742568843426" lon="9.551801887333493"><ele>383.8</ele><time>2026-03-28T09:28:25Z</time></trkpt><trkpt lat="39.84748514629301" lon="9.551709563036368"><ele>381.0</ele><time>2026-03-28T09:28:26Z</time></trkpt><trkpt lat="39.84754671537867" lon="9.551621694034056"><ele>381.0</ele><time>2026-03-28T09:28:27Z</time></trkpt><trkpt lat="39.847618716137724" lon="9.551542314226333"><ele>381.0</ele><time>2026-03-28T09:28:28Z</time></trkpt><trkpt lat="39.84768875094677" lon="9.551468801771545"><ele>381.0</ele><time>2026-03-28T09:28:29Z</time></trkpt><trkpt lat="39.84775600515624" lon="9.551390562218266"><ele>381.0</ele><time>2026-03-28T09:28:30Z</time></trkpt><trkpt lat="39.847821503981336" lon="9.551308376166364"><ele>381.0</ele><time>2026-03-28T09:28:31Z</time></trkpt><trkpt lat="39.84788570283349" lon="9.551223619325324"><ele>382.0</ele><time>2026-03-28T09:28:32Z</time></trkpt><trkpt lat="39.84795127919017" lon="9.551135741814514"><ele>383.0</ele><time>2026-03-28T09:28:33Z</time></trkpt><trkpt lat="39.84798942809155" lon="9.551011519953674"><ele>384.0</ele><time>2026-03-28T09:28:34Z</time></trkpt><trkpt lat="39.84805154439369" lon="9.550909381894755"><ele>385.0</ele><time>2026-03-28T09:28:35Z</time></trkpt><trkpt lat="39.84812106618128" lon="9.550820838204611"><ele>386.0</ele><time>2026-03-28T09:28:36Z</time></trkpt><trkpt lat="39.84819404931901" lon="9.550732426902622"><ele>386.0</ele><time>2026-03-28T09:28:37Z</time></trkpt><trkpt lat="39.84826952278155" lon="9.550645203138947"><ele>386.0</ele><time>2026-03-28T09:28:38Z</time></trkpt><trkpt lat="39.848336600036745" lon="9.550550692496511"><ele>386.0</ele><time>2026-03-28T09:28:39Z</time></trkpt><trkpt lat="39.848407001196286" lon="9.550457245271518"><ele>386.0</ele><time>2026-03-28T09:28:40Z</time></trkpt><trkpt lat="39.848487892426974" lon="9.550389440361622"><ele>386.0</ele><time>2026-03-28T09:28:41Z</time></trkpt><trkpt lat="39.84857384080719" lon="9.550327745165207"><ele>387.4</ele><time>2026-03-28T09:28:42Z</time></trkpt><trkpt lat="39.84866808902055" lon="9.550278247284304"><ele>388.8</ele><time>2026-03-28T09:28:43Z</time></trkpt><trkpt lat="39.84876109323859" lon="9.550230680980297"><ele>390.2</ele><time>2026-03-28T09:28:44Z</time></trkpt><trkpt lat="39.84884518275069" lon="9.550164810353378"><ele>391.59999999999997</ele><time>2026-03-28T09:28:45Z</time></trkpt><trkpt lat="39.84891665114636" lon="9.55007818820668"><ele>393.0</ele><time>2026-03-28T09:28:46Z</time></trkpt><trkpt lat="39.84897809609107" lon="9.549986768129072"><ele>393.0</ele><time>2026-03-28T09:28:47Z</time></trkpt><trkpt lat="39.84903717970738" lon="9.549913639894948"><ele>393.0</ele><time>2026-03-28T09:28:48Z</time></trkpt><trkpt lat="39.849093227637894" lon="9.54984399981897"><ele>393.0</ele><time>2026-03-28T09:28:49Z</time></trkpt><trkpt lat="39.84916702000615" lon="9.549799184500728"><ele>393.0</ele><time>2026-03-28T09:28:50Z</time></trkpt><trkpt lat="39.84924219358746" lon="9.549749527847176"><ele>393.0</ele><time>2026-03-28T09:28:51Z</time></trkpt><trkpt lat="39.84931802478064" lon="9.549697696029193"><ele>393.0</ele><time>2026-03-28T09:28:52Z</time></trkpt><trkpt lat="39.849394251067864" lon="9.549651818424993"><ele>391.5</ele><time>2026-03-28T09:28:53Z</time></trkpt><trkpt lat="39.8494733544042" lon="9.549602841944855"><ele>390.0</ele><time>2026-03-28T09:28:54Z</time></trkpt><trkpt lat="39.84955641033389" lon="9.549562982583438"><ele>388.5</ele><time>2026-03-28T09:28:55Z</time></trkpt><trkpt lat="39.84964226901258" lon="9.549532548040734"><ele>387.0</ele><time>2026-03-28T09:28:56Z</time></trkpt><trkpt lat="39.84972960307059" lon="9.549512524079493"><ele>385.5</ele><time>2026-03-28T09:28:57Z</time></trkpt><trkpt lat="39.84981933106769" lon="9.549494662291677"><ele>384.0</ele><time>2026-03-28T09:28:58Z</time></trkpt><trkpt lat="39.84990765928184" lon="9.549477755517968"><ele>384.0</ele><time>2026-03-28T09:28:59Z</time></trkpt><trkpt lat="39.849995614736095" lon="9.549456346154699"><ele>384.0</ele><time>2026-03-28T09:29:00Z</time></trkpt><trkpt lat="39.85008339010461" lon="9.549438531299442"><ele>384.0</ele><time>2026-03-28T09:29:01Z</time></trkpt><trkpt lat="39.85017017893216" lon="9.549426553780995"><ele>384.0</ele><time>2026-03-28T09:29:02Z</time></trkpt><trkpt lat="39.85025724172706" lon="9.549433732632272"><ele>384.0</ele><time>2026-03-28T09:29:03Z</time></trkpt><trkpt lat="39.850341239460505" lon="9.549457053778024"><ele>384.0</ele><time>2026-03-28T09:29:04Z</time></trkpt><trkpt lat="39.85042053031607" lon="9.5494960281021"><ele>385.2857142857143</ele><time>2026-03-28T09:29:05Z</time></trkpt><trkpt lat="39.8504961681842" lon="9.549538690662832"><ele>386.57142857142856</ele><time>2026-03-28T09:29:06Z</time></trkpt><trkpt lat="39.850565372749635" lon="9.549583902350006"><ele>387.8571428571429</ele><time>2026-03-28T09:29:07Z</time></trkpt><trkpt lat="39.85063042097886" lon="9.549592741323195"><ele>389.1428571428571</ele><time>2026-03-28T09:29:08Z</time></trkpt><trkpt lat="39.850693327207104" lon="9.549574381371135"><ele>390.42857142857144</ele><time>2026-03-28T09:29:09Z</time></trkpt><trkpt lat="39.850750527153906" lon="9.549525372853438"><ele>391.7142857142857</ele><time>2026-03-28T09:29:10Z</time></trkpt><trkpt lat="39.850802852289924" lon="9.54945968111"><ele>393.0</ele><time>2026-03-28T09:29:11Z</time></trkpt><trkpt lat="39.85086224219564" lon="9.549389277546277"><ele>393.0</ele><time>2026-03-28T09:29:12Z</time></trkpt><trkpt lat="39.85093581422762" lon="9.549337349561423"><ele>393.0</ele><time>2026-03-28T09:29:13Z</time></trkpt><trkpt lat="39.851021399657284" lon="9.549317279517862"><ele>393.0</ele><time>2026-03-28T09:29:14Z</time></trkpt><trkpt lat="39.851111970751695" lon="9.549313433616788"><ele>393.0</ele><time>2026-03-28T09:29:15Z</time></trkpt><trkpt lat="39.85119785737177" lon="9.549314787267873"><ele>393.0</ele><time>2026-03-28T09:29:16Z</time></trkpt><trkpt lat="39.851284063879376" lon="9.549333960939656"><ele>393.0</ele><time>2026-03-28T09:29:17Z</time></trkpt><trkpt lat="39.85136780414045" lon="9.549365800262613"><ele>393.0</ele><time>2026-03-28T09:29:18Z</time></trkpt><trkpt lat="39.851445206873336" lon="9.549410416037187"><ele>393.0</ele><time>2026-03-28T09:29:19Z</time></trkpt><trkpt lat="39.85151720187579" lon="9.549451055341738"><ele>393.0</ele><time>2026-03-28T09:29:20Z</time></trkpt><trkpt lat="39.85159030888216" lon="9.549509439079703"><ele>393.0</ele><time>2026-03-28T09:29:21Z</time></trkpt><trkpt lat="39.85166395051201" lon="9.549568389588595"><ele>393.0</ele><time>2026-03-28T09:29:22Z</time></trkpt><trkpt lat="39.85173000745681" lon="9.549640549805362"><ele>393.0</ele><time>2026-03-28T09:29:23Z</time></trkpt><trkpt lat="39.8517939170053" lon="9.549716171169926"><ele>394.5</ele><time>2026-03-28T09:29:24Z</time></trkpt><trkpt lat="39.851856772513116" lon="9.549789483123416"><ele>396.0</ele><time>2026-03-28T09:29:25Z</time></trkpt><trkpt lat="39.85192137693417" lon="9.549863843505875"><ele>397.5</ele><time>2026-03-28T09:29:26Z</time></trkpt><trkpt lat="39.85198339225428" lon="9.549942659120754"><ele>399.0</ele><time>2026-03-28T09:29:27Z</time></trkpt><trkpt lat="39.852048068691204" lon="9.550013082085627"><ele>400.5</ele><time>2026-03-28T09:29:28Z</time></trkpt><trkpt lat="39.85210480872142" lon="9.55008397722713"><ele>402.0</ele><time>2026-03-28T09:29:29Z</time></trkpt><trkpt lat="39.85216256096562" lon="9.55015209576313"><ele>402.0</ele><time>2026-03-28T09:29:30Z</time></trkpt><trkpt lat="39.85221693502816" lon="9.550200599467658"><ele>402.0</ele><time>2026-03-28T09:29:31Z</time></trkpt><trkpt lat="39.85228238467841" lon="9.55023976135086"><ele>402.0</ele><time>2026-03-28T09:29:32Z</time></trkpt><trkpt lat="39.85234719058451" lon="9.550257366455904"><ele>402.0</ele><time>2026-03-28T09:29:33Z</time></trkpt><trkpt lat="39.85241635236353" lon="9.550263331900421"><ele>402.0</ele><time>2026-03-28T09:29:34Z</time></trkpt><trkpt lat="39.85248123125205" lon="9.550265209199647"><ele>402.0</ele><time>2026-03-28T09:29:35Z</time></trkpt><trkpt lat="39.852606109717456" lon="9.550324120436173"><ele>403.1666666666667</ele><time>2026-03-28T09:29:37Z</time></trkpt><trkpt lat="39.85266462863851" lon="9.55038039204495"><ele>404.33333333333337</ele><time>2026-03-28T09:29:38Z</time></trkpt><trkpt lat="39.85272371317514" lon="9.550443881507187"><ele>405.5</ele><time>2026-03-28T09:29:39Z</time></trkpt><trkpt lat="39.85278493896656" lon="9.55050806346264"><ele>406.6666666666667</ele><time>2026-03-28T09:29:40Z</time></trkpt><trkpt lat="39.85284726830205" lon="9.550565038132513"><ele>407.83333333333337</ele><time>2026-03-28T09:29:41Z</time></trkpt><trkpt lat="39.8529084357394" lon="9.550614969381469"><ele>409.0</ele><time>2026-03-28T09:29:42Z</time></trkpt><trkpt lat="39.85296849788439" lon="9.550670116070652"><ele>409.00000000000006</ele><time>2026-03-28T09:29:43Z</time></trkpt><trkpt lat="39.85301952840763" lon="9.55074722064725"><ele>409.0</ele><time>2026-03-28T09:29:44Z</time></trkpt><trkpt lat="39.8530646363793" lon="9.550829302986358"><ele>409.0</ele><time>2026-03-28T09:29:45Z</time></trkpt><trkpt lat="39.853100776240666" lon="9.55091895694101"><ele>409.0</ele><time>2026-03-28T09:29:46Z</time></trkpt><trkpt lat="39.8531393880712" lon="9.551009459536902"><ele>409.00000000000006</ele><time>2026-03-28T09:29:47Z</time></trkpt><trkpt lat="39.853188363822596" lon="9.55108769458553"><ele>409.0</ele><time>2026-03-28T09:29:48Z</time></trkpt><trkpt lat="39.85324182430787" lon="9.551149519873979"><ele>409.00000000000006</ele><time>2026-03-28T09:29:49Z</time></trkpt><trkpt lat="39.853313777276384" lon="9.55117783067085"><ele>409.0</ele><time>2026-03-28T09:29:50Z</time></trkpt><trkpt lat="39.85339185758867" lon="9.551177824745235"><ele>409.0</ele><time>2026-03-28T09:29:51Z</time></trkpt><trkpt lat="39.85346743703784" lon="9.551168861113192"><ele>409.0</ele><time>2026-03-28T09:29:52Z</time></trkpt><trkpt lat="39.853541172574296" lon="9.551179152450354"><ele>409.00000000000006</ele><time>2026-03-28T09:29:53Z</time></trkpt><trkpt lat="39.85360553689711" lon="9.551220858036988"><ele>409.0</ele><time>2026-03-28T09:29:54Z</time></trkpt><trkpt lat="39.85366509523561" lon="9.551287602690822"><ele>409.6666666666667</ele><time>2026-03-28T09:29:55Z</time></trkpt><trkpt lat="39.853715621472546" lon="9.551360321955642"><ele>410.33333333333337</ele><time>2026-03-28T09:29:56Z</time></trkpt><trkpt lat="39.85376986157142" lon="9.551429087721377"><ele>411.0</ele><time>2026-03-28T09:29:57Z</time></trkpt><trkpt lat="39.85382452084461" lon="9.55149958408002"><ele>411.66666666666663</ele><time>2026-03-28T09:29:58Z</time></trkpt><trkpt lat="39.85388269797246" lon="9.551567021224363"><ele>412.3333333333333</ele><time>2026-03-28T09:29:59Z</time></trkpt><trkpt lat="39.85393984662531" lon="9.551636714656558"><ele>413.0</ele><time>2026-03-28T09:30:00Z</time></trkpt><trkpt lat="39.853997520805265" lon="9.551703229860337"><ele>412.99999999999994</ele><time>2026-03-28T09:30:01Z</time></trkpt><trkpt lat="39.85406166569517" lon="9.55175962391246"><ele>413.0</ele><time>2026-03-28T09:30:02Z</time></trkpt><trkpt lat="39.854120494587114" lon="9.55182520129897"><ele>413.0</ele><time>2026-03-28T09:30:03Z</time></trkpt><trkpt lat="39.85416501136691" lon="9.55190498165141"><ele>413.0</ele><time>2026-03-28T09:30:04Z</time></trkpt><trkpt lat="39.85418467556596" lon="9.552000282498764"><ele>412.99999999999994</ele><time>2026-03-28T09:30:05Z</time></trkpt><trkpt lat="39.854205314790995" lon="9.552101218729653"><ele>413.0</ele><time>2026-03-28T09:30:06Z</time></trkpt><trkpt lat="39.8542369537708" lon="9.552196718237495"><ele>417.16666666666663</ele><time>2026-03-28T09:30:07Z</time></trkpt><trkpt lat="39.85428125847425" lon="9.552284517971378"><ele>421.3333333333333</ele><time>2026-03-28T09:30:08Z</time></trkpt><trkpt lat="39.85434412536731" lon="9.55235533427643"><ele>425.5</ele><time>2026-03-28T09:30:09Z</time></trkpt><trkpt lat="39.854416065899294" lon="9.552406391084842"><ele>429.66666666666663</ele><time>2026-03-28T09:30:10Z</time></trkpt><trkpt lat="39.85448894129717" lon="9.552457771790346"><ele>433.8333333333333</ele><time>2026-03-28T09:30:11Z</time></trkpt><trkpt lat="39.854558149070726" lon="9.552516652298298"><ele>438.0</ele><time>2026-03-28T09:30:12Z</time></trkpt><trkpt lat="39.854628629726136" lon="9.552575101761633"><ele>438.0</ele><time>2026-03-28T09:30:13Z</time></trkpt><trkpt lat="39.85470391964676" lon="9.552606845544329"><ele>438.0</ele><time>2026-03-28T09:30:14Z</time></trkpt><trkpt lat="39.85478542888674" lon="9.55260242599204"><ele>438.0</ele><time>2026-03-28T09:30:15Z</time></trkpt><trkpt lat="39.85486488071226" lon="9.552579392006308"><ele>438.0</ele><time>2026-03-28T09:30:16Z</time></trkpt><trkpt lat="39.85493656115176" lon="9.55254101884937"><ele>438.0</ele><time>2026-03-28T09:30:17Z</time></trkpt><trkpt lat="39.854993069435636" lon="9.552479969668374"><ele>438.0</ele><time>2026-03-28T09:30:18Z</time></trkpt><trkpt lat="39.855032072165216" lon="9.552398409529323"><ele>438.0</ele><time>2026-03-28T09:30:19Z</time></trkpt><trkpt lat="39.85507858433463" lon="9.55225688455723"><ele>437.99999999999994</ele><time>2026-03-28T09:30:21Z</time></trkpt><trkpt lat="39.8550238428925" lon="9.552116964228833"><ele>437.99999999999994</ele><time>2026-03-28T09:30:23Z</time></trkpt><trkpt lat="39.85496794244681" lon="9.551986536481875"><ele>438.0</ele><time>2026-03-28T09:30:25Z</time></trkpt><trkpt lat="39.85495498502083" lon="9.55190177349651"><ele>438.0</ele><time>2026-03-28T09:30:26Z</time></trkpt><trkpt lat="39.85496467435376" lon="9.551806319734231"><ele>436.5</ele><time>2026-03-28T09:30:27Z</time></trkpt><trkpt lat="39.85500138147969" lon="9.55172330794234"><ele>435.0</ele><time>2026-03-28T09:30:28Z</time></trkpt><trkpt lat="39.855038370671046" lon="9.55163011627789"><ele>433.5</ele><time>2026-03-28T09:30:29Z</time></trkpt><trkpt lat="39.8550620022843" lon="9.551525631327598"><ele>432.0</ele><time>2026-03-28T09:30:30Z</time></trkpt><trkpt lat="39.85508197772415" lon="9.551421136916115"><ele>430.5</ele><time>2026-03-28T09:30:31Z</time></trkpt><trkpt lat="39.855105979175086" lon="9.551315559725907"><ele>429.0</ele><time>2026-03-28T09:30:32Z</time></trkpt><trkpt lat="39.85510565936393" lon="9.551209227016976"><ele>428.14285714285717</ele><time>2026-03-28T09:30:33Z</time></trkpt><trkpt lat="39.85509764625773" lon="9.551106647994429"><ele>427.28571428571433</ele><time>2026-03-28T09:30:34Z</time></trkpt><trkpt lat="39.85507693663246" lon="9.551008111215934"><ele>426.42857142857144</ele><time>2026-03-28T09:30:35Z</time></trkpt><trkpt lat="39.85507436396554" lon="9.550906433414278"><ele>425.57142857142856</ele><time>2026-03-28T09:30:36Z</time></trkpt><trkpt lat="39.85511057993603" lon="9.5508294815185"><ele>424.7142857142857</ele><time>2026-03-28T09:30:37Z</time></trkpt><trkpt lat="39.85513292446223" lon="9.550751363428665"><ele>423.85714285714283</ele><time>2026-03-28T09:30:38Z</time></trkpt><trkpt lat="39.85517907897163" lon="9.550678987679525"><ele>423.0</ele><time>2026-03-28T09:30:39Z</time></trkpt><trkpt lat="39.85522426008261" lon="9.550602898281767"><ele>427.8333333333333</ele><time>2026-03-28T09:30:40Z</time></trkpt><trkpt lat="39.8552675505454" lon="9.550520482277564"><ele>432.66666666666663</ele><time>2026-03-28T09:30:41Z</time></trkpt><trkpt lat="39.8553156848904" lon="9.550440902621153"><ele>437.5</ele><time>2026-03-28T09:30:42Z</time></trkpt><trkpt lat="39.85537108385692" lon="9.550375120023203"><ele>442.3333333333333</ele><time>2026-03-28T09:30:43Z</time></trkpt><trkpt lat="39.855431136993595" lon="9.55030206910207"><ele>447.16666666666663</ele><time>2026-03-28T09:30:44Z</time></trkpt><trkpt lat="39.855497917984664" lon="9.550245442948967"><ele>452.0</ele><time>2026-03-28T09:30:45Z</time></trkpt><trkpt lat="39.85557143474786" lon="9.550196440705976"><ele>451.99999999999994</ele><time>2026-03-28T09:30:46Z</time></trkpt><trkpt lat="39.85564991339029" lon="9.55015305183363"><ele>452.0</ele><time>2026-03-28T09:30:47Z</time></trkpt><trkpt lat="39.85572129528308" lon="9.550094321002696"><ele>452.0</ele><time>2026-03-28T09:30:48Z</time></trkpt><trkpt lat="39.85576465986536" lon="9.550008939924282"><ele>452.0</ele><time>2026-03-28T09:30:49Z</time></trkpt><trkpt lat="39.85580233850677" lon="9.549914175239556"><ele>451.99999999999994</ele><time>2026-03-28T09:30:50Z</time></trkpt><trkpt lat="39.855806052333485" lon="9.549801498222871"><ele>452.0</ele><time>2026-03-28T09:30:51Z</time></trkpt><trkpt lat="39.85580777463078" lon="9.549695174423837"><ele>451.99999999999994</ele><time>2026-03-28T09:30:52Z</time></trkpt><trkpt lat="39.85581410389136" lon="9.549595020155355"><ele>452.0</ele><time>2026-03-28T09:30:53Z</time></trkpt><trkpt lat="39.85585202869444" lon="9.54950588103959"><ele>452.0</ele><time>2026-03-28T09:30:54Z</time></trkpt><trkpt lat="39.85590162891801" lon="9.549422123696974"><ele>452.0</ele><time>2026-03-28T09:30:55Z</time></trkpt><trkpt lat="39.85595910275812" lon="9.549346985790612"><ele>451.99999999999994</ele><time>2026-03-28T09:30:56Z</time></trkpt><trkpt lat="39.85601906462958" lon="9.549271946907"><ele>452.0</ele><time>2026-03-28T09:30:57Z</time></trkpt><trkpt lat="39.8560833058511" lon="9.54920015088946"><ele>455.3333333333333</ele><time>2026-03-28T09:30:58Z</time></trkpt><trkpt lat="39.856149554267304" lon="9.549130409845715"><ele>458.66666666666663</ele><time>2026-03-28T09:30:59Z</time></trkpt><trkpt lat="39.85622044635807" lon="9.549060984661496"><ele>462.0</ele><time>2026-03-28T09:31:00Z</time></trkpt><trkpt lat="39.85628899814834" lon="9.54898381128684"><ele>465.33333333333337</ele><time>2026-03-28T09:31:01Z</time></trkpt><trkpt lat="39.856352370037975" lon="9.548900750746245"><ele>468.6666666666667</ele><time>2026-03-28T09:31:02Z</time></trkpt><trkpt lat="39.856411096069735" lon="9.548809688706065"><ele>472.0</ele><time>2026-03-28T09:31:03Z</time></trkpt><trkpt lat="39.85647007931515" lon="9.54872497801263"><ele>471.6666666666667</ele><time>2026-03-28T09:31:04Z</time></trkpt><trkpt lat="39.856524913437624" lon="9.548640806729063"><ele>471.33333333333337</ele><time>2026-03-28T09:31:05Z</time></trkpt><trkpt lat="39.85658089369347" lon="9.548557820128677"><ele>471.0</ele><time>2026-03-28T09:31:06Z</time></trkpt><trkpt lat="39.85664772221565" lon="9.548490831087019"><ele>470.66666666666663</ele><time>2026-03-28T09:31:07Z</time></trkpt><trkpt lat="39.85672416598139" lon="9.548433227390523"><ele>470.3333333333333</ele><time>2026-03-28T09:31:08Z</time></trkpt><trkpt lat="39.856806597250504" lon="9.54838907907613"><ele>470.0</ele><time>2026-03-28T09:31:09Z</time></trkpt><trkpt lat="39.85689113795801" lon="9.548360072755601"><ele>469.99999999999994</ele><time>2026-03-28T09:31:10Z</time></trkpt><trkpt lat="39.856976306328846" lon="9.548337383754099"><ele>470.0</ele><time>2026-03-28T09:31:11Z</time></trkpt><trkpt lat="39.85705681911665" lon="9.548353101872422"><ele>470.0</ele><time>2026-03-28T09:31:12Z</time></trkpt><trkpt lat="39.85713351905083" lon="9.548399063594154"><ele>470.0</ele><time>2026-03-28T09:31:13Z</time></trkpt><trkpt lat="39.8572104512276" lon="9.548421754554772"><ele>469.99999999999994</ele><time>2026-03-28T09:31:14Z</time></trkpt><trkpt lat="39.85730102583888" lon="9.548406468743261"><ele>470.0</ele><time>2026-03-28T09:31:15Z</time></trkpt><trkpt lat="39.85739152699502" lon="9.548384633416756"><ele>469.99999999999994</ele><time>2026-03-28T09:31:16Z</time></trkpt><trkpt lat="39.85747945539668" lon="9.54836752730004"><ele>470.0</ele><time>2026-03-28T09:31:17Z</time></trkpt><trkpt lat="39.85756698557477" lon="9.548351757903431"><ele>470.0</ele><time>2026-03-28T09:31:18Z</time></trkpt><trkpt lat="39.85765484764505" lon="9.548339949641646"><ele>470.0</ele><time>2026-03-28T09:31:19Z</time></trkpt><trkpt lat="39.857735460933995" lon="9.548327852301718"><ele>469.99999999999994</ele><time>2026-03-28T09:31:20Z</time></trkpt><trkpt lat="39.85780018835605" lon="9.548282484925013"><ele>470.0</ele><time>2026-03-28T09:31:21Z</time></trkpt><trkpt lat="39.85786281365999" lon="9.548225650552148"><ele>470.99999999999994</ele><time>2026-03-28T09:31:22Z</time></trkpt><trkpt lat="39.85788283360787" lon="9.548117730153836"><ele>472.0</ele><time>2026-03-28T09:31:23Z</time></trkpt><trkpt lat="39.85785141221627" lon="9.548012105079152"><ele>473.0</ele><time>2026-03-28T09:31:24Z</time></trkpt><trkpt lat="39.8578463606306" lon="9.547928205326455"><ele>474.0</ele><time>2026-03-28T09:31:25Z</time></trkpt><trkpt lat="39.85792207411366" lon="9.547842066594312"><ele>474.99999999999994</ele><time>2026-03-28T09:31:27Z</time></trkpt><trkpt lat="39.8580093701559" lon="9.547849561483613"><ele>476.0</ele><time>2026-03-28T09:31:28Z</time></trkpt><trkpt lat="39.858091837960174" lon="9.547860194612149"><ele>475.99999999999994</ele><time>2026-03-28T09:31:29Z</time></trkpt><trkpt lat="39.85817386740096" lon="9.547861973327494"><ele>476.0</ele><time>2026-03-28T09:31:30Z</time></trkpt><trkpt lat="39.8582551705589" lon="9.547845532350863"><ele>476.0</ele><time>2026-03-28T09:31:31Z</time></trkpt><trkpt lat="39.858334053252044" lon="9.547803241990355"><ele>476.0</ele><time>2026-03-28T09:31:32Z</time></trkpt><trkpt lat="39.858404650390995" lon="9.547734428710557"><ele>475.99999999999994</ele><time>2026-03-28T09:31:33Z</time></trkpt><trkpt lat="39.8584713548867" lon="9.547658908092162"><ele>476.0</ele><time>2026-03-28T09:31:34Z</time></trkpt><trkpt lat="39.85853958129731" lon="9.547585860830972"><ele>479.49999999999994</ele><time>2026-03-28T09:31:35Z</time></trkpt><trkpt lat="39.85861140059378" lon="9.54751583817118"><ele>483.0</ele><time>2026-03-28T09:31:36Z</time></trkpt><trkpt lat="39.85868067826162" lon="9.54745955953604"><ele>486.5</ele><time>2026-03-28T09:31:37Z</time></trkpt><trkpt lat="39.85875186360909" lon="9.547413943270886"><ele>490.0</ele><time>2026-03-28T09:31:38Z</time></trkpt><trkpt lat="39.85882385739867" lon="9.547399362905596"><ele>493.49999999999994</ele><time>2026-03-28T09:31:39Z</time></trkpt><trkpt lat="39.85889698111208" lon="9.547417905633086"><ele>497.0</ele><time>2026-03-28T09:31:40Z</time></trkpt><trkpt lat="39.85897033548961" lon="9.547430703362041"><ele>496.99999999999994</ele><time>2026-03-28T09:31:41Z</time></trkpt><trkpt lat="39.859048471351066" lon="9.547435651308716"><ele>497.0</ele><time>2026-03-28T09:31:42Z</time></trkpt><trkpt lat="39.85913535359849" lon="9.54740708695731"><ele>497.0</ele><time>2026-03-28T09:31:44Z</time></trkpt><trkpt lat="39.85921341205375" lon="9.547331266695245"><ele>497.0</ele><time>2026-03-28T09:31:56Z</time></trkpt><trkpt lat="39.85926429662699" lon="9.547194733758545"><ele>496.99999999999994</ele><time>2026-03-28T09:31:58Z</time></trkpt><trkpt lat="39.859302321624405" lon="9.547126571380662"><ele>497.0</ele><time>2026-03-28T09:31:59Z</time></trkpt><trkpt lat="39.8593358042651" lon="9.547051765526973"><ele>497.8333333333333</ele><time>2026-03-28T09:32:00Z</time></trkpt><trkpt lat="39.8593784546255" lon="9.546981008788027"><ele>498.66666666666663</ele><time>2026-03-28T09:32:01Z</time></trkpt><trkpt lat="39.85943239959642" lon="9.546925548721934"><ele>499.5</ele><time>2026-03-28T09:32:02Z</time></trkpt><trkpt lat="39.859488395291784" lon="9.54684819342373"><ele>500.33333333333337</ele><time>2026-03-28T09:32:03Z</time></trkpt><trkpt lat="39.859560540192206" lon="9.546803643165068"><ele>501.1666666666667</ele><time>2026-03-28T09:32:04Z</time></trkpt><trkpt lat="39.85963303985722" lon="9.54674685186792"><ele>502.0</ele><time>2026-03-28T09:32:05Z</time></trkpt><trkpt lat="39.8597050294052" lon="9.546681626173148"><ele>502.0</ele><time>2026-03-28T09:32:06Z</time></trkpt><trkpt lat="39.85978973194232" lon="9.54663580510106"><ele>502.00000000000006</ele><time>2026-03-28T09:32:07Z</time></trkpt><trkpt lat="39.85986688583037" lon="9.54656796671316"><ele>502.00000000000006</ele><time>2026-03-28T09:32:08Z</time></trkpt><trkpt lat="39.85994100862709" lon="9.546487145248236"><ele>502.0</ele><time>2026-03-28T09:32:09Z</time></trkpt><trkpt lat="39.86001357731693" lon="9.546406014471634"><ele>502.0</ele><time>2026-03-28T09:32:10Z</time></trkpt><trkpt lat="39.8600827723972" lon="9.5463274029259"><ele>502.00000000000006</ele><time>2026-03-28T09:32:11Z</time></trkpt><trkpt lat="39.86014295287605" lon="9.546243936162474"><ele>502.0</ele><time>2026-03-28T09:32:12Z</time></trkpt><trkpt lat="39.86021801393581" lon="9.546186846703337"><ele>502.0</ele><time>2026-03-28T09:32:13Z</time></trkpt><trkpt lat="39.86027262961485" lon="9.54610452083917"><ele>502.0</ele><time>2026-03-28T09:32:14Z</time></trkpt><trkpt lat="39.86034490616552" lon="9.5460468113085"><ele>502.00000000000006</ele><time>2026-03-28T09:32:15Z</time></trkpt><trkpt lat="39.8604159213325" lon="9.545988732650084"><ele>502.0</ele><time>2026-03-28T09:32:16Z</time></trkpt><trkpt lat="39.86049375211366" lon="9.545937469284674"><ele>502.00000000000006</ele><time>2026-03-28T09:32:17Z</time></trkpt><trkpt lat="39.860552664595396" lon="9.545849428946756"><ele>502.0</ele><time>2026-03-28T09:32:18Z</time></trkpt><trkpt lat="39.860601101916465" lon="9.54575802920558"><ele>502.0</ele><time>2026-03-28T09:32:19Z</time></trkpt><trkpt lat="39.86064332154308" lon="9.54565939926945"><ele>502.0</ele><time>2026-03-28T09:32:20Z</time></trkpt><trkpt lat="39.86067394970471" lon="9.545570341277474"><ele>502.00000000000006</ele><time>2026-03-28T09:32:21Z</time></trkpt><trkpt lat="39.86072798643094" lon="9.545517637672644"><ele>502.0</ele><time>2026-03-28T09:32:22Z</time></trkpt><trkpt lat="39.860841431755674" lon="9.545513651544466"><ele>502.00000000000006</ele><time>2026-03-28T09:32:24Z</time></trkpt><trkpt lat="39.86090703747427" lon="9.545520401233414"><ele>502.0</ele><time>2026-03-28T09:32:25Z</time></trkpt><trkpt lat="39.8609858177324" lon="9.545520288931886"><ele>502.0</ele><time>2026-03-28T09:32:26Z</time></trkpt><trkpt lat="39.861064643904" lon="9.545519769342226"><ele>502.0</ele><time>2026-03-28T09:32:27Z</time></trkpt><trkpt lat="39.86114900431569" lon="9.545517345529625"><ele>502.00000000000006</ele><time>2026-03-28T09:32:28Z</time></trkpt><trkpt lat="39.86123589923454" lon="9.545517432391613"><ele>502.0</ele><time>2026-03-28T09:32:29Z</time></trkpt><trkpt lat="39.861322757236245" lon="9.545516081085516"><ele>505.0</ele><time>2026-03-28T09:32:30Z</time></trkpt><trkpt lat="39.86141112752012" lon="9.545516128528595"><ele>508.00000000000006</ele><time>2026-03-28T09:32:31Z</time></trkpt><trkpt lat="39.86150471405736" lon="9.545517774606427"><ele>511.00000000000006</ele><time>2026-03-28T09:32:32Z</time></trkpt><trkpt lat="39.86159658230288" lon="9.545509899595425"><ele>514.0</ele><time>2026-03-28T09:32:33Z</time></trkpt><trkpt lat="39.86168604784459" lon="9.545498218936913"><ele>517.0</ele><time>2026-03-28T09:32:34Z</time></trkpt><trkpt lat="39.86177230445441" lon="9.545486491041132"><ele>519.0</ele><time>2026-03-28T09:32:35Z</time></trkpt><trkpt lat="39.86185916644291" lon="9.545481017700268"><ele>521.0</ele><time>2026-03-28T09:32:36Z</time></trkpt><trkpt lat="39.861947940858016" lon="9.545493566489194"><ele>523.0</ele><time>2026-03-28T09:32:37Z</time></trkpt><trkpt lat="39.86203148275064" lon="9.545530134768237"><ele>525.0</ele><time>2026-03-28T09:32:38Z</time></trkpt><trkpt lat="39.86210547784349" lon="9.545569836406436"><ele>527.0</ele><time>2026-03-28T09:32:39Z</time></trkpt><trkpt lat="39.86218047070949" lon="9.545589474764832"><ele>529.0</ele><time>2026-03-28T09:32:40Z</time></trkpt><trkpt lat="39.86225612728685" lon="9.545573875175872"><ele>529.0</ele><time>2026-03-28T09:32:41Z</time></trkpt><trkpt lat="39.86232666760255" lon="9.5455272243635"><ele>529.0</ele><time>2026-03-28T09:32:42Z</time></trkpt><trkpt lat="39.86238864117248" lon="9.545462019166301"><ele>529.0</ele><time>2026-03-28T09:32:43Z</time></trkpt><trkpt lat="39.862441707227575" lon="9.545384822528117"><ele>529.0</ele><time>2026-03-28T09:32:44Z</time></trkpt><trkpt lat="39.862481905321786" lon="9.545293170726264"><ele>529.0</ele><time>2026-03-28T09:32:45Z</time></trkpt><trkpt lat="39.86252212586642" lon="9.545208564906527"><ele>529.0</ele><time>2026-03-28T09:32:46Z</time></trkpt><trkpt lat="39.86257212709957" lon="9.545143324097173"><ele>528.3333333333334</ele><time>2026-03-28T09:32:47Z</time></trkpt><trkpt lat="39.862674642302515" lon="9.545083989835444"><ele>527.6666666666667</ele><time>2026-03-28T09:32:49Z</time></trkpt><trkpt lat="39.86274033436726" lon="9.545099983451234"><ele>527.0</ele><time>2026-03-28T09:32:50Z</time></trkpt><trkpt lat="39.862813361109296" lon="9.545107079213768"><ele>526.3333333333334</ele><time>2026-03-28T09:32:51Z</time></trkpt><trkpt lat="39.86288986472416" lon="9.545087020424738"><ele>525.6666666666666</ele><time>2026-03-28T09:32:52Z</time></trkpt><trkpt lat="39.862968513289914" lon="9.545044589270919"><ele>525.0</ele><time>2026-03-28T09:32:53Z</time></trkpt><trkpt lat="39.86304077127736" lon="9.544985092471187"><ele>525.0</ele><time>2026-03-28T09:32:54Z</time></trkpt><trkpt lat="39.863111810822154" lon="9.544918322544744"><ele>525.0</ele><time>2026-03-28T09:32:55Z</time></trkpt><trkpt lat="39.86317629854777" lon="9.544856717468093"><ele>525.0</ele><time>2026-03-28T09:32:56Z</time></trkpt><trkpt lat="39.863242312909136" lon="9.544804349888526"><ele>525.0</ele><time>2026-03-28T09:32:57Z</time></trkpt><trkpt lat="39.86330853306067" lon="9.544758532315363"><ele>525.0</ele><time>2026-03-28T09:32:58Z</time></trkpt><trkpt lat="39.86338079848575" lon="9.544724992771673"><ele>525.0</ele><time>2026-03-28T09:32:59Z</time></trkpt><trkpt lat="39.86345924960126" lon="9.544715861585104"><ele>525.5714285714286</ele><time>2026-03-28T09:33:00Z</time></trkpt><trkpt lat="39.8635362951762" lon="9.544712026040136"><ele>526.1428571428571</ele><time>2026-03-28T09:33:01Z</time></trkpt><trkpt lat="39.8636140762925" lon="9.544688081917805"><ele>526.7142857142858</ele><time>2026-03-28T09:33:02Z</time></trkpt><trkpt lat="39.863682986159446" lon="9.544643695793745"><ele>527.2857142857142</ele><time>2026-03-28T09:33:03Z</time></trkpt><trkpt lat="39.863727452387984" lon="9.544581341878452"><ele>527.8571428571429</ele><time>2026-03-28T09:33:04Z</time></trkpt><trkpt lat="39.86377184490941" lon="9.54452087574799"><ele>528.4285714285714</ele><time>2026-03-28T09:33:05Z</time></trkpt><trkpt lat="39.863796888228244" lon="9.544433170970462"><ele>529.0</ele><time>2026-03-28T09:33:06Z</time></trkpt><trkpt lat="39.86381083550273" lon="9.544348453846833"><ele>529.0</ele><time>2026-03-28T09:33:07Z</time></trkpt><trkpt lat="39.863832047800166" lon="9.54425866145028"><ele>529.0</ele><time>2026-03-28T09:33:08Z</time></trkpt><trkpt lat="39.86384424478558" lon="9.54416508330398"><ele>529.0</ele><time>2026-03-28T09:33:09Z</time></trkpt><trkpt lat="39.8638861720761" lon="9.544085826933143"><ele>529.0</ele><time>2026-03-28T09:33:10Z</time></trkpt><trkpt lat="39.86393169309546" lon="9.544011692226295"><ele>529.0</ele><time>2026-03-28T09:33:11Z</time></trkpt><trkpt lat="39.86397960266684" lon="9.543957201728613"><ele>529.0</ele><time>2026-03-28T09:33:12Z</time></trkpt><trkpt lat="39.86403989600834" lon="9.543926288931873"><ele>529.0</ele><time>2026-03-28T09:33:13Z</time></trkpt><trkpt lat="39.864108281148916" lon="9.543922955062182"><ele>529.0</ele><time>2026-03-28T09:33:14Z</time></trkpt><trkpt lat="39.864177530095034" lon="9.543928068885823"><ele>529.0</ele><time>2026-03-28T09:33:15Z</time></trkpt><trkpt lat="39.8642481179419" lon="9.543903644277329"><ele>529.0</ele><time>2026-03-28T09:33:16Z</time></trkpt><trkpt lat="39.864318948957816" lon="9.54387162265062"><ele>529.0</ele><time>2026-03-28T09:33:17Z</time></trkpt><trkpt lat="39.86437448060313" lon="9.543788468436425"><ele>529.0</ele><time>2026-03-28T09:33:18Z</time></trkpt><trkpt lat="39.86443632947197" lon="9.543726236805789"><ele>529.0</ele><time>2026-03-28T09:33:19Z</time></trkpt><trkpt lat="39.864500195921245" lon="9.543665928080344"><ele>529.8333333333334</ele><time>2026-03-28T09:33:20Z</time></trkpt><trkpt lat="39.86456338283574" lon="9.543606932893084"><ele>530.6666666666667</ele><time>2026-03-28T09:33:21Z</time></trkpt><trkpt lat="39.864624375604485" lon="9.543549802205266"><ele>531.5</ele><time>2026-03-28T09:33:22Z</time></trkpt><trkpt lat="39.8646854619603" lon="9.543492429702534"><ele>532.3333333333334</ele><time>2026-03-28T09:33:23Z</time></trkpt><trkpt lat="39.864747928087226" lon="9.543435371753397"><ele>533.1666666666666</ele><time>2026-03-28T09:33:24Z</time></trkpt><trkpt lat="39.86480846868423" lon="9.54337635787867"><ele>534.0</ele><time>2026-03-28T09:33:25Z</time></trkpt><trkpt lat="39.8648707256852" lon="9.543312897964293"><ele>534.0</ele><time>2026-03-28T09:33:26Z</time></trkpt><trkpt lat="39.86493554498385" lon="9.543255669077183"><ele>534.0</ele><time>2026-03-28T09:33:27Z</time></trkpt><trkpt lat="39.865008210921985" lon="9.543211290644578"><ele>534.0</ele><time>2026-03-28T09:33:28Z</time></trkpt><trkpt lat="39.8650889850472" lon="9.54319326329676"><ele>534.0</ele><time>2026-03-28T09:33:29Z</time></trkpt><trkpt lat="39.865165653699606" lon="9.543188988476894"><ele>534.0</ele><time>2026-03-28T09:33:30Z</time></trkpt><trkpt lat="39.86524618837972" lon="9.543188647801191"><ele>534.0</ele><time>2026-03-28T09:33:31Z</time></trkpt><trkpt lat="39.86532737461144" lon="9.543195369039454"><ele>537.5</ele><time>2026-03-28T09:33:32Z</time></trkpt><trkpt lat="39.865406485451" lon="9.543208414860212"><ele>541.0</ele><time>2026-03-28T09:33:33Z</time></trkpt><trkpt lat="39.8654889835213" lon="9.543219694586357"><ele>544.5</ele><time>2026-03-28T09:33:34Z</time></trkpt><trkpt lat="39.86556900966295" lon="9.543216084611144"><ele>548.0</ele><time>2026-03-28T09:33:35Z</time></trkpt><trkpt lat="39.86564885515526" lon="9.543196427785574"><ele>551.5</ele><time>2026-03-28T09:33:36Z</time></trkpt><trkpt lat="39.86572463288293" lon="9.543161536615694"><ele>555.0</ele><time>2026-03-28T09:33:37Z</time></trkpt><trkpt lat="39.86578821884275" lon="9.543099320447075"><ele>555.0</ele><time>2026-03-28T09:33:38Z</time></trkpt><trkpt lat="39.86583686517315" lon="9.543015539571812"><ele>555.0</ele><time>2026-03-28T09:33:39Z</time></trkpt><trkpt lat="39.86588089860412" lon="9.542925892291104"><ele>555.0</ele><time>2026-03-28T09:33:40Z</time></trkpt><trkpt lat="39.86592238919288" lon="9.542836870307474"><ele>555.0</ele><time>2026-03-28T09:33:41Z</time></trkpt><trkpt lat="39.86597848236662" lon="9.542757173129337"><ele>555.0</ele><time>2026-03-28T09:33:42Z</time></trkpt><trkpt lat="39.866009609105426" lon="9.542657820524719"><ele>555.0</ele><time>2026-03-28T09:33:43Z</time></trkpt><trkpt lat="39.8660568156153" lon="9.542567127421016"><ele>556.8333333333334</ele><time>2026-03-28T09:33:44Z</time></trkpt><trkpt lat="39.86611419015274" lon="9.542482716056696"><ele>558.6666666666666</ele><time>2026-03-28T09:33:45Z</time></trkpt><trkpt lat="39.8661615925373" lon="9.54238719197819"><ele>560.5</ele><time>2026-03-28T09:33:46Z</time></trkpt><trkpt lat="39.866210438447446" lon="9.54229556860235"><ele>562.3333333333333</ele><time>2026-03-28T09:33:47Z</time></trkpt><trkpt lat="39.86625981723155" lon="9.54220611522918"><ele>564.1666666666666</ele><time>2026-03-28T09:33:48Z</time></trkpt><trkpt lat="39.86634483041223" lon="9.542162740708658"><ele>566.0</ele><time>2026-03-28T09:33:49Z</time></trkpt><trkpt lat="39.86643364598107" lon="9.542147006900993"><ele>566.0</ele><time>2026-03-28T09:33:50Z</time></trkpt><trkpt lat="39.866526268562744" lon="9.54213753274502"><ele>566.0</ele><time>2026-03-28T09:33:51Z</time></trkpt><trkpt lat="39.86661627977169" lon="9.542123254026164"><ele>566.0</ele><time>2026-03-28T09:33:52Z</time></trkpt><trkpt lat="39.86670782586771" lon="9.542095216995689"><ele>566.0</ele><time>2026-03-28T09:33:53Z</time></trkpt><trkpt lat="39.86679258455705" lon="9.542048936497384"><ele>566.0</ele><time>2026-03-28T09:33:54Z</time></trkpt><trkpt lat="39.86687216089402" lon="9.541984461529466"><ele>567.8333333333333</ele><time>2026-03-28T09:33:55Z</time></trkpt><trkpt lat="39.86695523667655" lon="9.54193010886055"><ele>569.6666666666666</ele><time>2026-03-28T09:33:56Z</time></trkpt><trkpt lat="39.867039633532684" lon="9.541882563716886"><ele>571.5</ele><time>2026-03-28T09:33:57Z</time></trkpt><trkpt lat="39.86712147733392" lon="9.541833489595081"><ele>573.3333333333334</ele><time>2026-03-28T09:33:58Z</time></trkpt><trkpt lat="39.867197744628804" lon="9.541780275283887"><ele>575.1666666666667</ele><time>2026-03-28T09:33:59Z</time></trkpt><trkpt lat="39.86725396045712" lon="9.5417025349757"><ele>577.0</ele><time>2026-03-28T09:34:00Z</time></trkpt><trkpt lat="39.8673074091277" lon="9.541629026769831"><ele>577.0</ele><time>2026-03-28T09:34:01Z</time></trkpt><trkpt lat="39.86735948861367" lon="9.541462074431303"><ele>577.0</ele><time>2026-03-28T09:34:02Z</time></trkpt><trkpt lat="39.8673880976458" lon="9.54136116814701"><ele>577.0</ele><time>2026-03-28T09:34:03Z</time></trkpt><trkpt lat="39.86742643349172" lon="9.541246067742513"><ele>577.0</ele><time>2026-03-28T09:34:04Z</time></trkpt><trkpt lat="39.867472689814065" lon="9.541144572242969"><ele>577.0</ele><time>2026-03-28T09:34:05Z</time></trkpt><trkpt lat="39.86753064589213" lon="9.541056375297353"><ele>575.2</ele><time>2026-03-28T09:34:06Z</time></trkpt><trkpt lat="39.867591578323726" lon="9.540967517594561"><ele>573.4000000000001</ele><time>2026-03-28T09:34:07Z</time></trkpt><trkpt lat="39.86763421151273" lon="9.540863498992097"><ele>571.5999999999999</ele><time>2026-03-28T09:34:08Z</time></trkpt><trkpt lat="39.867696605746396" lon="9.540762838682584"><ele>569.8</ele><time>2026-03-28T09:34:09Z</time></trkpt><trkpt lat="39.867739830074605" lon="9.540652157460844"><ele>568.0</ele><time>2026-03-28T09:34:10Z</time></trkpt><trkpt lat="39.86777778459568" lon="9.54053716376081"><ele>571.1999999999999</ele><time>2026-03-28T09:34:11Z</time></trkpt><trkpt lat="39.86782250589002" lon="9.540426837071115"><ele>574.4</ele><time>2026-03-28T09:34:12Z</time></trkpt><trkpt lat="39.86786976469421" lon="9.540318034573685"><ele>577.5999999999999</ele><time>2026-03-28T09:34:13Z</time></trkpt><trkpt lat="39.86793014298261" lon="9.54022695505492"><ele>580.8</ele><time>2026-03-28T09:34:14Z</time></trkpt><trkpt lat="39.868011939154776" lon="9.540150998852905"><ele>584.0</ele><time>2026-03-28T09:34:15Z</time></trkpt><trkpt lat="39.868098843706235" lon="9.540085293332972"><ele>584.0</ele><time>2026-03-28T09:34:16Z</time></trkpt><trkpt lat="39.868179705042806" lon="9.540020400585822"><ele>584.0</ele><time>2026-03-28T09:34:17Z</time></trkpt><trkpt lat="39.868262436215964" lon="9.539952810601063"><ele>584.0</ele><time>2026-03-28T09:34:18Z</time></trkpt><trkpt lat="39.868349384571765" lon="9.539893684405559"><ele>584.0</ele><time>2026-03-28T09:34:19Z</time></trkpt><trkpt lat="39.8684414302548" lon="9.539845657456206"><ele>584.0</ele><time>2026-03-28T09:34:20Z</time></trkpt><trkpt lat="39.868534987247834" lon="9.53980751078817"><ele>589.8</ele><time>2026-03-28T09:34:21Z</time></trkpt><trkpt lat="39.868632823512606" lon="9.53978198463594"><ele>595.5999999999999</ele><time>2026-03-28T09:34:22Z</time></trkpt><trkpt lat="39.868733104033055" lon="9.539763329049132"><ele>601.4</ele><time>2026-03-28T09:34:23Z</time></trkpt><trkpt lat="39.86882965724956" lon="9.539735074023511"><ele>607.1999999999999</ele><time>2026-03-28T09:34:24Z</time></trkpt><trkpt lat="39.86891035109404" lon="9.539684157088876"><ele>613.0</ele><time>2026-03-28T09:34:25Z</time></trkpt><trkpt lat="39.86897356262334" lon="9.53960286755838"><ele>610.0</ele><time>2026-03-28T09:34:26Z</time></trkpt><trkpt lat="39.86901975005998" lon="9.53949827163605"><ele>607.0</ele><time>2026-03-28T09:34:27Z</time></trkpt><trkpt lat="39.869044935172106" lon="9.539386740908165"><ele>604.0</ele><time>2026-03-28T09:34:28Z</time></trkpt><trkpt lat="39.869076026077735" lon="9.5392784697301"><ele>601.0</ele><time>2026-03-28T09:34:29Z</time></trkpt><trkpt lat="39.86908703658472" lon="9.539173388280219"><ele>598.0</ele><time>2026-03-28T09:34:30Z</time></trkpt><trkpt lat="39.869142014754004" lon="9.539091889255209"><ele>595.0</ele><time>2026-03-28T09:34:31Z</time></trkpt><trkpt lat="39.8692078751586" lon="9.53902864286456"><ele>595.0</ele><time>2026-03-28T09:34:32Z</time></trkpt><trkpt lat="39.86927209315071" lon="9.53895936675278"><ele>595.0</ele><time>2026-03-28T09:34:33Z</time></trkpt><trkpt lat="39.869332866665935" lon="9.53889144564202"><ele>595.0</ele><time>2026-03-28T09:34:34Z</time></trkpt><trkpt lat="39.86940148663148" lon="9.538835247233019"><ele>595.0</ele><time>2026-03-28T09:34:35Z</time></trkpt><trkpt lat="39.86948058174877" lon="9.538801109627219"><ele>595.0</ele><time>2026-03-28T09:34:36Z</time></trkpt><trkpt lat="39.869562749404345" lon="9.538792857682907"><ele>595.0</ele><time>2026-03-28T09:34:37Z</time></trkpt><trkpt lat="39.86964695523752" lon="9.5388037603947"><ele>597.6666666666667</ele><time>2026-03-28T09:34:38Z</time></trkpt><trkpt lat="39.869726558827026" lon="9.538805297575877"><ele>600.3333333333334</ele><time>2026-03-28T09:34:39Z</time></trkpt><trkpt lat="39.869797489961734" lon="9.538783714316109"><ele>603.0</ele><time>2026-03-28T09:34:40Z</time></trkpt><trkpt lat="39.86985828462731" lon="9.538733383706438"><ele>605.6666666666666</ele><time>2026-03-28T09:34:41Z</time></trkpt><trkpt lat="39.86991328213962" lon="9.538668735827466"><ele>608.3333333333333</ele><time>2026-03-28T09:34:42Z</time></trkpt><trkpt lat="39.86995257896892" lon="9.538586564926897"><ele>611.0</ele><time>2026-03-28T09:34:43Z</time></trkpt><trkpt lat="39.86999100251715" lon="9.538496587314633"><ele>611.0</ele><time>2026-03-28T09:34:44Z</time></trkpt><trkpt lat="39.8699824723064" lon="9.538391274035954"><ele>611.0</ele><time>2026-03-28T09:34:45Z</time></trkpt><trkpt lat="39.869995784922" lon="9.53828534923458"><ele>611.0</ele><time>2026-03-28T09:34:46Z</time></trkpt><trkpt lat="39.8700036573979" lon="9.538179165634062"><ele>611.0</ele><time>2026-03-28T09:34:47Z</time></trkpt><trkpt lat="39.87005744909925" lon="9.538096171128664"><ele>611.0</ele><time>2026-03-28T09:34:48Z</time></trkpt><trkpt lat="39.870103035894466" lon="9.5380043178104"><ele>611.0</ele><time>2026-03-28T09:34:49Z</time></trkpt><trkpt lat="39.870148698012564" lon="9.53791489038007"><ele>615.0</ele><time>2026-03-28T09:34:50Z</time></trkpt><trkpt lat="39.870195355159595" lon="9.537823514184705"><ele>619.0</ele><time>2026-03-28T09:34:51Z</time></trkpt><trkpt lat="39.87024284125368" lon="9.53773051452866"><ele>623.0</ele><time>2026-03-28T09:34:52Z</time></trkpt><trkpt lat="39.87029217213554" lon="9.53764179016482"><ele>627.0</ele><time>2026-03-28T09:34:53Z</time></trkpt><trkpt lat="39.87034844885506" lon="9.537553674092042"><ele>631.0</ele><time>2026-03-28T09:34:54Z</time></trkpt><trkpt lat="39.87041212691372" lon="9.53746798125394"><ele>635.0</ele><time>2026-03-28T09:34:55Z</time></trkpt><trkpt lat="39.87046394434138" lon="9.53736533010912"><ele>635.0</ele><time>2026-03-28T09:34:56Z</time></trkpt><trkpt lat="39.870541726255695" lon="9.537289928243199"><ele>635.0</ele><time>2026-03-28T09:34:57Z</time></trkpt><trkpt lat="39.87060772002858" lon="9.537199320683749"><ele>635.0</ele><time>2026-03-28T09:34:58Z</time></trkpt><trkpt lat="39.870665259996564" lon="9.5370933872424"><ele>635.0</ele><time>2026-03-28T09:34:59Z</time></trkpt><trkpt lat="39.87074135776059" lon="9.537001202286522"><ele>635.0</ele><time>2026-03-28T09:35:00Z</time></trkpt><trkpt lat="39.870811814845865" lon="9.536899397468376"><ele>634.6666666666666</ele><time>2026-03-28T09:35:01Z</time></trkpt><trkpt lat="39.8708863643971" lon="9.536807545499006"><ele>634.3333333333333</ele><time>2026-03-28T09:35:02Z</time></trkpt><trkpt lat="39.87096013268297" lon="9.536730944114217"><ele>634.0</ele><time>2026-03-28T09:35:03Z</time></trkpt><trkpt lat="39.87102416282636" lon="9.536668703405498"><ele>633.6666666666666</ele><time>2026-03-28T09:35:04Z</time></trkpt><trkpt lat="39.871083147243304" lon="9.536618654433182"><ele>633.3333333333334</ele><time>2026-03-28T09:35:05Z</time></trkpt><trkpt lat="39.87115482920346" lon="9.536599798565762"><ele>633.0</ele><time>2026-03-28T09:35:06Z</time></trkpt><trkpt lat="39.87123561253664" lon="9.536610019607377"><ele>633.0</ele><time>2026-03-28T09:35:07Z</time></trkpt><trkpt lat="39.87131385055796" lon="9.536667674347033"><ele>633.0</ele><time>2026-03-28T09:35:08Z</time></trkpt><trkpt lat="39.87136860682407" lon="9.536729071791864"><ele>633.0</ele><time>2026-03-28T09:35:09Z</time></trkpt><trkpt lat="39.87142208521684" lon="9.536775520919795"><ele>633.0</ele><time>2026-03-28T09:35:10Z</time></trkpt><trkpt lat="39.871486355794275" lon="9.53676303338625"><ele>633.0</ele><time>2026-03-28T09:35:11Z</time></trkpt><trkpt lat="39.87154672108162" lon="9.536710882672333"><ele>633.0</ele><time>2026-03-28T09:35:12Z</time></trkpt><trkpt lat="39.87160431393128" lon="9.536648861925402"><ele>633.0</ele><time>2026-03-28T09:35:13Z</time></trkpt><trkpt lat="39.87163546450827" lon="9.53655829757059"><ele>633.0</ele><time>2026-03-28T09:35:14Z</time></trkpt><trkpt lat="39.87169589607469" lon="9.536498987841481"><ele>633.0</ele><time>2026-03-28T09:35:15Z</time></trkpt><trkpt lat="39.871769426989495" lon="9.536468180975048"><ele>633.0</ele><time>2026-03-28T09:35:16Z</time></trkpt><trkpt lat="39.871846186602205" lon="9.536448523464992"><ele>633.0</ele><time>2026-03-28T09:35:17Z</time></trkpt><trkpt lat="39.87193015926324" lon="9.536434814743986"><ele>633.0</ele><time>2026-03-28T09:35:18Z</time></trkpt><trkpt lat="39.87201372470421" lon="9.536417302836835"><ele>633.0</ele><time>2026-03-28T09:35:19Z</time></trkpt><trkpt lat="39.87208915227225" lon="9.536386077021268"><ele>637.8</ele><time>2026-03-28T09:35:20Z</time></trkpt><trkpt lat="39.87215316062771" lon="9.536357437818449"><ele>642.5999999999999</ele><time>2026-03-28T09:35:21Z</time></trkpt><trkpt lat="39.872235667070576" lon="9.536404203809772"><ele>647.4000000000001</ele><time>2026-03-28T09:35:23Z</time></trkpt><trkpt lat="39.87221826052595" lon="9.536529940563288"><ele>652.2</ele><time>2026-03-28T09:35:25Z</time></trkpt><trkpt lat="39.87209726841953" lon="9.536481240446042"><ele>657.0</ele><time>2026-03-28T09:35:27Z</time></trkpt><trkpt lat="39.872022496596564" lon="9.536498737960873"><ele>657.0</ele><time>2026-03-28T09:35:28Z</time></trkpt><trkpt lat="39.871949679394476" lon="9.53656993105695"><ele>657.0</ele><time>2026-03-28T09:35:29Z</time></trkpt><trkpt lat="39.87187488702597" lon="9.536638724605876"><ele>657.0</ele><time>2026-03-28T09:35:30Z</time></trkpt><trkpt lat="39.871809314124874" lon="9.536711489366953"><ele>657.0</ele><time>2026-03-28T09:35:31Z</time></trkpt><trkpt lat="39.871749883974786" lon="9.536789824393551"><ele>657.0</ele><time>2026-03-28T09:35:32Z</time></trkpt><trkpt lat="39.871705694298534" lon="9.53689652520978"><ele>657.0</ele><time>2026-03-28T09:35:33Z</time></trkpt><trkpt lat="39.87166255978799" lon="9.537003299490165"><ele>657.2</ele><time>2026-03-28T09:35:34Z</time></trkpt><trkpt lat="39.8716310509585" lon="9.537114823651951"><ele>657.4000000000001</ele><time>2026-03-28T09:35:35Z</time></trkpt><trkpt lat="39.871599892694235" lon="9.53721919230728"><ele>657.5999999999999</ele><time>2026-03-28T09:35:36Z</time></trkpt><trkpt lat="39.87156132057094" lon="9.537302817916954"><ele>657.8</ele><time>2026-03-28T09:35:37Z</time></trkpt><trkpt lat="39.871468811471814" lon="9.53737172530616"><ele>658.0</ele><time>2026-03-28T09:35:39Z</time></trkpt><trkpt lat="39.87134888983959" lon="9.537298935073471"><ele>658.0</ele><time>2026-03-28T09:35:41Z</time></trkpt><trkpt lat="39.8712785715477" lon="9.537277238313813"><ele>658.0</ele><time>2026-03-28T09:35:42Z</time></trkpt><trkpt lat="39.87121318463598" lon="9.537260140642415"><ele>658.0</ele><time>2026-03-28T09:35:43Z</time></trkpt><trkpt lat="39.87114533390717" lon="9.53728673391968"><ele>658.0</ele><time>2026-03-28T09:35:44Z</time></trkpt><trkpt lat="39.87109305404084" lon="9.537352374398894"><ele>658.0</ele><time>2026-03-28T09:35:45Z</time></trkpt><trkpt lat="39.87105119063277" lon="9.537414771588425"><ele>658.0</ele><time>2026-03-28T09:35:46Z</time></trkpt><trkpt lat="39.871020913286046" lon="9.537494170239414"><ele>658.0</ele><time>2026-03-28T09:35:47Z</time></trkpt><trkpt lat="39.870994048917" lon="9.53758104832605"><ele>658.0</ele><time>2026-03-28T09:35:48Z</time></trkpt><trkpt lat="39.870972112962086" lon="9.537671361557281"><ele>658.0</ele><time>2026-03-28T09:35:49Z</time></trkpt><trkpt lat="39.87094460885241" lon="9.537763195446178"><ele>658.0</ele><time>2026-03-28T09:35:50Z</time></trkpt><trkpt lat="39.870912626667135" lon="9.53785426021207"><ele>658.0</ele><time>2026-03-28T09:35:51Z</time></trkpt><trkpt lat="39.87088443919539" lon="9.537946053698452"><ele>658.0</ele><time>2026-03-28T09:35:52Z</time></trkpt><trkpt lat="39.870867532405825" lon="9.538042330240538"><ele>658.0</ele><time>2026-03-28T09:35:53Z</time></trkpt><trkpt lat="39.87085146277558" lon="9.53814358274027"><ele>657.3333333333334</ele><time>2026-03-28T09:35:54Z</time></trkpt><trkpt lat="39.8708321172871" lon="9.538239529170367"><ele>656.6666666666667</ele><time>2026-03-28T09:35:55Z</time></trkpt><trkpt lat="39.87081054142879" lon="9.538330543581505"><ele>656.0</ele><time>2026-03-28T09:35:56Z</time></trkpt><trkpt lat="39.87078791383578" lon="9.538419271499254"><ele>655.3333333333334</ele><time>2026-03-28T09:35:57Z</time></trkpt><trkpt lat="39.87076602382939" lon="9.538504332079276"><ele>654.6666666666666</ele><time>2026-03-28T09:35:58Z</time></trkpt><trkpt lat="39.87074396237132" lon="9.538590707010744"><ele>654.0</ele><time>2026-03-28T09:35:59Z</time></trkpt><trkpt lat="39.870710483771404" lon="9.538713344632274"><ele>654.0</ele><time>2026-03-28T09:36:01Z</time></trkpt><trkpt lat="39.870732785152185" lon="9.53880145720355"><ele>654.0</ele><time>2026-03-28T09:36:03Z</time></trkpt><trkpt lat="39.87080793515312" lon="9.53879260997829"><ele>654.0</ele><time>2026-03-28T09:36:05Z</time></trkpt><trkpt lat="39.870886810488564" lon="9.53866399029845"><ele>654.0</ele><time>2026-03-28T09:36:07Z</time></trkpt><trkpt lat="39.87092343350158" lon="9.538589497409683"><ele>654.0</ele><time>2026-03-28T09:36:08Z</time></trkpt><trkpt lat="39.87096381626486" lon="9.538511917402667"><ele>654.0</ele><time>2026-03-28T09:36:09Z</time></trkpt><trkpt lat="39.87099069347539" lon="9.538418012969519"><ele>660.2</ele><time>2026-03-28T09:36:10Z</time></trkpt><trkpt lat="39.87103228459761" lon="9.538337867449155"><ele>666.4000000000001</ele><time>2026-03-28T09:36:11Z</time></trkpt><trkpt lat="39.871082559201646" lon="9.538268643505774"><ele>672.6</ele><time>2026-03-28T09:36:12Z</time></trkpt><trkpt lat="39.871170468810504" lon="9.538173651699827"><ele>678.8</ele><time>2026-03-28T09:36:14Z</time></trkpt><trkpt lat="39.871301532224" lon="9.53816472870538"><ele>685.0</ele><time>2026-03-28T09:36:16Z</time></trkpt><trkpt lat="39.87137644947621" lon="9.53817380183024"><ele>685.0</ele><time>2026-03-28T09:36:17Z</time></trkpt><trkpt lat="39.87145238949" lon="9.538184413821932"><ele>685.0</ele><time>2026-03-28T09:36:18Z</time></trkpt><trkpt lat="39.87152957888947" lon="9.53818934973588"><ele>685.0</ele><time>2026-03-28T09:36:19Z</time></trkpt><trkpt lat="39.871605750826795" lon="9.538177517565611"><ele>685.0</ele><time>2026-03-28T09:36:20Z</time></trkpt><trkpt lat="39.871677011394524" lon="9.538136455541379"><ele>685.0</ele><time>2026-03-28T09:36:21Z</time></trkpt><trkpt lat="39.871743359352116" lon="9.538077357368751"><ele>685.0</ele><time>2026-03-28T09:36:22Z</time></trkpt><trkpt lat="39.87180798015696" lon="9.5380165622711"><ele>684.6666666666667</ele><time>2026-03-28T09:36:23Z</time></trkpt><trkpt lat="39.87187124221813" lon="9.537956718831342"><ele>684.3333333333334</ele><time>2026-03-28T09:36:24Z</time></trkpt><trkpt lat="39.871935484651225" lon="9.537897965385492"><ele>684.0</ele><time>2026-03-28T09:36:25Z</time></trkpt><trkpt lat="39.87200738920401" lon="9.537847116161466"><ele>683.6666666666666</ele><time>2026-03-28T09:36:26Z</time></trkpt><trkpt lat="39.87210042300174" lon="9.537800002762634"><ele>683.3333333333333</ele><time>2026-03-28T09:36:27Z</time></trkpt><trkpt lat="39.87218833776808" lon="9.537766454255042"><ele>683.0</ele><time>2026-03-28T09:36:28Z</time></trkpt><trkpt lat="39.87227813850188" lon="9.537740068574209"><ele>683.0</ele><time>2026-03-28T09:36:29Z</time></trkpt><trkpt lat="39.87236732915426" lon="9.537715074667002"><ele>683.0</ele><time>2026-03-28T09:36:30Z</time></trkpt><trkpt lat="39.872451603102014" lon="9.537685530340731"><ele>683.0</ele><time>2026-03-28T09:36:31Z</time></trkpt><trkpt lat="39.8725309883971" lon="9.537645664316335"><ele>683.0</ele><time>2026-03-28T09:36:32Z</time></trkpt><trkpt lat="39.87260625351851" lon="9.537592694308678"><ele>683.0</ele><time>2026-03-28T09:36:33Z</time></trkpt><trkpt lat="39.872678143169146" lon="9.537528417178333"><ele>683.0</ele><time>2026-03-28T09:36:34Z</time></trkpt><trkpt lat="39.87275332143616" lon="9.537466140718712"><ele>689.0</ele><time>2026-03-28T09:36:35Z</time></trkpt><trkpt lat="39.872837952762865" lon="9.53742913586802"><ele>695.0</ele><time>2026-03-28T09:36:36Z</time></trkpt><trkpt lat="39.87292327056068" lon="9.537396270456863"><ele>701.0</ele><time>2026-03-28T09:36:37Z</time></trkpt><trkpt lat="39.873010520620674" lon="9.537357368198128"><ele>707.0</ele><time>2026-03-28T09:36:38Z</time></trkpt><trkpt lat="39.87309184373062" lon="9.537309879301587"><ele>713.0</ele><time>2026-03-28T09:36:39Z</time></trkpt><trkpt lat="39.87317156872039" lon="9.537254261003604"><ele>713.0</ele><time>2026-03-28T09:36:40Z</time></trkpt><trkpt lat="39.87323851433449" lon="9.537183260265541"><ele>713.0</ele><time>2026-03-28T09:36:41Z</time></trkpt><trkpt lat="39.87330835399446" lon="9.537140379496792"><ele>713.0</ele><time>2026-03-28T09:36:42Z</time></trkpt><trkpt lat="39.873370103781" lon="9.537037882903045"><ele>713.0</ele><time>2026-03-28T09:36:44Z</time></trkpt><trkpt lat="39.873442436571295" lon="9.537096609197528"><ele>713.0</ele><time>2026-03-28T09:36:46Z</time></trkpt><trkpt lat="39.873389106470775" lon="9.537235092897347"><ele>713.0</ele><time>2026-03-28T09:36:48Z</time></trkpt><trkpt lat="39.87331811098657" lon="9.537275192622854"><ele>713.0</ele><time>2026-03-28T09:36:49Z</time></trkpt><trkpt lat="39.87327301688717" lon="9.537357334364438"><ele>713.0</ele><time>2026-03-28T09:36:50Z</time></trkpt><trkpt lat="39.87321301084673" lon="9.537435869100552"><ele>713.0</ele><time>2026-03-28T09:36:51Z</time></trkpt><trkpt lat="39.8731414496495" lon="9.537513036056616"><ele>713.0</ele><time>2026-03-28T09:36:52Z</time></trkpt><trkpt lat="39.873071197308015" lon="9.537607892044734"><ele>713.0</ele><time>2026-03-28T09:36:53Z</time></trkpt><trkpt lat="39.872998697412115" lon="9.537709707703948"><ele>713.0</ele><time>2026-03-28T09:36:54Z</time></trkpt><trkpt lat="39.87293380599056" lon="9.53782726393816"><ele>713.0</ele><time>2026-03-28T09:36:55Z</time></trkpt><trkpt lat="39.872857789924865" lon="9.53792867448295"><ele>713.0</ele><time>2026-03-28T09:36:56Z</time></trkpt><trkpt lat="39.8727784756302" lon="9.538020163034435"><ele>713.0</ele><time>2026-03-28T09:36:57Z</time></trkpt><trkpt lat="39.8727065139011" lon="9.538087525704093"><ele>713.0</ele><time>2026-03-28T09:36:58Z</time></trkpt><trkpt lat="39.87264431007424" lon="9.538133862249547"><ele>712.8333333333333</ele><time>2026-03-28T09:36:59Z</time></trkpt><trkpt lat="39.872574745591145" lon="9.538188930065601"><ele>712.6666666666666</ele><time>2026-03-28T09:37:01Z</time></trkpt><trkpt lat="39.87265200427742" lon="9.538282452706701"><ele>712.5</ele><time>2026-03-28T09:56:59Z</time></trkpt><trkpt lat="39.87272206071814" lon="9.538274325487416"><ele>712.3333333333334</ele><time>2026-03-28T09:57:00Z</time></trkpt><trkpt lat="39.87278710119229" lon="9.538245271165824"><ele>712.1666666666667</ele><time>2026-03-28T09:57:01Z</time></trkpt><trkpt lat="39.872855362422875" lon="9.538192598143407"><ele>712.0</ele><time>2026-03-28T09:57:02Z</time></trkpt><trkpt lat="39.87292297364822" lon="9.538118365568995"><ele>712.1666666666667</ele><time>2026-03-28T09:57:03Z</time></trkpt><trkpt lat="39.87300417438823" lon="9.538069650759743"><ele>712.3333333333334</ele><time>2026-03-28T09:57:04Z</time></trkpt><trkpt lat="39.873074020462134" lon="9.538005429878236"><ele>712.5</ele><time>2026-03-28T09:57:05Z</time></trkpt><trkpt lat="39.87313603196159" lon="9.537926538684946"><ele>712.6666666666666</ele><time>2026-03-28T09:57:06Z</time></trkpt><trkpt lat="39.8732084160446" lon="9.537861961052238"><ele>712.8333333333333</ele><time>2026-03-28T09:57:07Z</time></trkpt><trkpt lat="39.87328992683336" lon="9.537813656660306"><ele>713.0</ele><time>2026-03-28T09:57:08Z</time></trkpt><trkpt lat="39.87336829770073" lon="9.537750231991039"><ele>713.0</ele><time>2026-03-28T09:57:09Z</time></trkpt><trkpt lat="39.87343831616311" lon="9.537686625435171"><ele>713.0</ele><time>2026-03-28T09:57:10Z</time></trkpt><trkpt lat="39.87351241089127" lon="9.537618431486388"><ele>713.0</ele><time>2026-03-28T09:57:11Z</time></trkpt><trkpt lat="39.873583015165444" lon="9.53755205027483"><ele>713.0</ele><time>2026-03-28T09:57:12Z</time></trkpt><trkpt lat="39.87365357923296" lon="9.537487250239153"><ele>713.0</ele><time>2026-03-28T09:57:13Z</time></trkpt><trkpt lat="39.873733275515605" lon="9.537435215586145"><ele>713.0</ele><time>2026-03-28T09:57:14Z</time></trkpt><trkpt lat="39.87381972076949" lon="9.53739574380708"><ele>716.8</ele><time>2026-03-28T09:57:15Z</time></trkpt><trkpt lat="39.873963582919465" lon="9.537375944381607"><ele>720.5999999999999</ele><time>2026-03-28T09:57:17Z</time></trkpt><trkpt lat="39.87404290545729" lon="9.537375621315926"><ele>724.4000000000001</ele><time>2026-03-28T09:57:18Z</time></trkpt><trkpt lat="39.874121386771094" lon="9.53736076526176"><ele>728.2</ele><time>2026-03-28T09:57:19Z</time></trkpt><trkpt lat="39.874196288151154" lon="9.537369049465417"><ele>732.0</ele><time>2026-03-28T09:57:20Z</time></trkpt><trkpt lat="39.874270409327934" lon="9.53736424465848"><ele>731.7142857142858</ele><time>2026-03-28T09:57:21Z</time></trkpt><trkpt lat="39.87434135177155" lon="9.537343214036827"><ele>731.4285714285714</ele><time>2026-03-28T09:57:22Z</time></trkpt><trkpt lat="39.87440604258044" lon="9.537309384973032"><ele>731.1428571428571</ele><time>2026-03-28T09:57:23Z</time></trkpt><trkpt lat="39.8744638259003" lon="9.53718876084848"><ele>730.8571428571429</ele><time>2026-03-28T09:57:25Z</time></trkpt><trkpt lat="39.87446583194897" lon="9.537099912202137"><ele>730.5714285714286</ele><time>2026-03-28T09:57:26Z</time></trkpt><trkpt lat="39.87445988869269" lon="9.537014602866334"><ele>730.2857142857143</ele><time>2026-03-28T09:57:27Z</time></trkpt><trkpt lat="39.87447752994666" lon="9.536934973301907"><ele>730.0</ele><time>2026-03-28T09:57:28Z</time></trkpt><trkpt lat="39.87447267899556" lon="9.536779808826811"><ele>733.2</ele><time>2026-03-28T09:57:30Z</time></trkpt><trkpt lat="39.87449816843419" lon="9.53666003519746"><ele>736.4</ele><time>2026-03-28T09:57:32Z</time></trkpt><trkpt lat="39.87451395225982" lon="9.536532717014992"><ele>739.5999999999999</ele><time>2026-03-28T09:57:34Z</time></trkpt><trkpt lat="39.874532274648274" lon="9.53640938535328"><ele>742.8</ele><time>2026-03-28T09:57:36Z</time></trkpt><trkpt lat="39.87459582775452" lon="9.536382094874792"><ele>746.0</ele><time>2026-03-28T09:57:37Z</time></trkpt><trkpt lat="39.87467431876413" lon="9.536261215361746"><ele>747.8</ele><time>2026-03-28T09:57:39Z</time></trkpt><trkpt lat="39.87475099969436" lon="9.536125858123079"><ele>749.5999999999999</ele><time>2026-03-28T09:57:41Z</time></trkpt><trkpt lat="39.87481525704491" lon="9.535992129802453"><ele>751.4</ele><time>2026-03-28T09:57:43Z</time></trkpt><trkpt lat="39.87486772593661" lon="9.535863033629262"><ele>753.2</ele><time>2026-03-28T09:57:45Z</time></trkpt><trkpt lat="39.87490431483949" lon="9.535775371020593"><ele>755.0</ele><time>2026-03-28T09:57:47Z</time></trkpt><trkpt lat="39.87500509283849" lon="9.53580691343466"><ele>755.0</ele><time>2026-03-28T09:57:50Z</time></trkpt><trkpt lat="39.87504268891528" lon="9.535876144317324"><ele>755.0</ele><time>2026-03-28T09:57:51Z</time></trkpt><trkpt lat="39.87507989034151" lon="9.535955552606605"><ele>755.0</ele><time>2026-03-28T09:57:52Z</time></trkpt><trkpt lat="39.87512822099682" lon="9.536032306058065"><ele>755.0</ele><time>2026-03-28T09:57:53Z</time></trkpt><trkpt lat="39.87519651119036" lon="9.536081321995175"><ele>755.0</ele><time>2026-03-28T09:57:54Z</time></trkpt><trkpt lat="39.87526631337738" lon="9.536133644524865"><ele>755.0</ele><time>2026-03-28T09:57:55Z</time></trkpt><trkpt lat="39.87533635546366" lon="9.53617260324496"><ele>755.0</ele><time>2026-03-28T09:57:56Z</time></trkpt><trkpt lat="39.87539685708327" lon="9.53619867736893"><ele>754.6</ele><time>2026-03-28T09:57:57Z</time></trkpt><trkpt lat="39.87548632770591" lon="9.536183090623286"><ele>754.2</ele><time>2026-03-28T09:57:59Z</time></trkpt><trkpt lat="39.8755584196925" lon="9.536107579445353"><ele>753.8</ele><time>2026-03-28T09:58:01Z</time></trkpt><trkpt lat="39.87563374269713" lon="9.536028391675927"><ele>753.4</ele><time>2026-03-28T09:58:03Z</time></trkpt><trkpt lat="39.87569658473344" lon="9.535909519490497"><ele>753.0</ele><time>2026-03-28T09:58:05Z</time></trkpt><trkpt lat="39.8757688696821" lon="9.535770453154933"><ele>753.0</ele><time>2026-03-28T09:58:07Z</time></trkpt><trkpt lat="39.87580806540889" lon="9.535698260070548"><ele>753.0</ele><time>2026-03-28T09:58:08Z</time></trkpt><trkpt lat="39.87584881019743" lon="9.535623735800788"><ele>753.0</ele><time>2026-03-28T09:58:09Z</time></trkpt><trkpt lat="39.87589136306024" lon="9.535548625548984"><ele>753.0</ele><time>2026-03-28T09:58:10Z</time></trkpt><trkpt lat="39.87594199028582" lon="9.535475705753854"><ele>753.0</ele><time>2026-03-28T09:58:11Z</time></trkpt><trkpt lat="39.876000600243685" lon="9.535399270247396"><ele>753.0</ele><time>2026-03-28T09:58:12Z</time></trkpt><trkpt lat="39.87606384936565" lon="9.535318444400767"><ele>751.4</ele><time>2026-03-28T09:58:13Z</time></trkpt><trkpt lat="39.87612920407981" lon="9.535236524246447"><ele>749.8</ele><time>2026-03-28T09:58:14Z</time></trkpt><trkpt lat="39.87619561051165" lon="9.535152371078246"><ele>748.2</ele><time>2026-03-28T09:58:15Z</time></trkpt><trkpt lat="39.87626083813524" lon="9.535068453077717"><ele>746.6</ele><time>2026-03-28T09:58:16Z</time></trkpt><trkpt lat="39.87632658716895" lon="9.53498386425644"><ele>745.0</ele><time>2026-03-28T09:58:17Z</time></trkpt><trkpt lat="39.87639776235879" lon="9.534892294473972"><ele>745.0</ele><time>2026-03-28T09:58:18Z</time></trkpt><trkpt lat="39.87646372149153" lon="9.534807435360092"><ele>745.0</ele><time>2026-03-28T09:58:19Z</time></trkpt><trkpt lat="39.876531966838485" lon="9.534718488834741"><ele>745.0</ele><time>2026-03-28T09:58:20Z</time></trkpt><trkpt lat="39.87660078630402" lon="9.534625903254852"><ele>745.0</ele><time>2026-03-28T09:58:21Z</time></trkpt><trkpt lat="39.87666791020777" lon="9.534529951841977"><ele>745.0</ele><time>2026-03-28T09:58:22Z</time></trkpt><trkpt lat="39.87673467809108" lon="9.534432897793597"><ele>744.4</ele><time>2026-03-28T09:58:23Z</time></trkpt><trkpt lat="39.87679973567632" lon="9.534335221145344"><ele>743.8</ele><time>2026-03-28T09:58:24Z</time></trkpt><trkpt lat="39.876864156350244" lon="9.534238500741006"><ele>743.2</ele><time>2026-03-28T09:58:25Z</time></trkpt><trkpt lat="39.87692769380487" lon="9.53414310639754"><ele>742.6</ele><time>2026-03-28T09:58:26Z</time></trkpt><trkpt lat="39.876991964599576" lon="9.534055174836276"><ele>742.0</ele><time>2026-03-28T09:58:27Z</time></trkpt><trkpt lat="39.877059917137814" lon="9.533968748871576"><ele>742.0</ele><time>2026-03-28T09:58:28Z</time></trkpt><trkpt lat="39.877131542596686" lon="9.533883116119725"><ele>742.0</ele><time>2026-03-28T09:58:29Z</time></trkpt><trkpt lat="39.87720553206373" lon="9.53379870222608"><ele>742.0</ele><time>2026-03-28T09:58:30Z</time></trkpt><trkpt lat="39.8772670880613" lon="9.533704369769763"><ele>742.0</ele><time>2026-03-28T09:58:31Z</time></trkpt><trkpt lat="39.877340400822376" lon="9.53362208514186"><ele>742.0</ele><time>2026-03-28T09:58:32Z</time></trkpt><trkpt lat="39.87742044309642" lon="9.533552631736617"><ele>742.2</ele><time>2026-03-28T09:58:33Z</time></trkpt><trkpt lat="39.877489906751975" lon="9.533468813460823"><ele>742.4000000000001</ele><time>2026-03-28T09:58:34Z</time></trkpt><trkpt lat="39.87755875890236" lon="9.533387784650694"><ele>742.5999999999999</ele><time>2026-03-28T09:58:35Z</time></trkpt><trkpt lat="39.877621698333975" lon="9.533287079899033"><ele>742.8</ele><time>2026-03-28T09:58:36Z</time></trkpt><trkpt lat="39.877697462621825" lon="9.533205954242195"><ele>743.0</ele><time>2026-03-28T09:58:37Z</time></trkpt><trkpt lat="39.87777987736573" lon="9.533125891007113"><ele>743.0</ele><time>2026-03-28T09:58:38Z</time></trkpt><trkpt lat="39.87786151181986" lon="9.533055861195395"><ele>743.0</ele><time>2026-03-28T09:58:39Z</time></trkpt><trkpt lat="39.87794527751502" lon="9.532989574286374"><ele>743.0</ele><time>2026-03-28T09:58:40Z</time></trkpt><trkpt lat="39.87802797371812" lon="9.532926769424533"><ele>743.0</ele><time>2026-03-28T09:58:41Z</time></trkpt><trkpt lat="39.8781096446312" lon="9.532865919128795"><ele>743.0</ele><time>2026-03-28T09:58:42Z</time></trkpt><trkpt lat="39.87818866447552" lon="9.532808499282517"><ele>744.5999999999999</ele><time>2026-03-28T09:58:43Z</time></trkpt><trkpt lat="39.87827057244622" lon="9.532742678060247"><ele>746.1999999999999</ele><time>2026-03-28T09:58:44Z</time></trkpt><trkpt lat="39.87834934655697" lon="9.532682630882029"><ele>747.8</ele><time>2026-03-28T09:58:45Z</time></trkpt><trkpt lat="39.87842878733276" lon="9.532621593486335"><ele>749.4</ele><time>2026-03-28T09:58:46Z</time></trkpt><trkpt lat="39.87850913942548" lon="9.53255875885504"><ele>751.0</ele><time>2026-03-28T09:58:47Z</time></trkpt><trkpt lat="39.8785815660705" lon="9.532498843658054"><ele>751.0</ele><time>2026-03-28T09:58:48Z</time></trkpt><trkpt lat="39.8786457352079" lon="9.532437387502156"><ele>751.0</ele><time>2026-03-28T09:58:49Z</time></trkpt><trkpt lat="39.87870796968689" lon="9.532373744812098"><ele>751.0</ele><time>2026-03-28T09:58:50Z</time></trkpt><trkpt lat="39.87875989469952" lon="9.532322699230523"><ele>751.0</ele><time>2026-03-28T09:58:51Z</time></trkpt><trkpt lat="39.87883758864725" lon="9.532246792015473"><ele>751.0</ele><time>2026-03-28T09:58:53Z</time></trkpt><trkpt lat="39.87889214278355" lon="9.532190100411812"><ele>751.0</ele><time>2026-03-28T09:58:55Z</time></trkpt><trkpt lat="39.878963598975666" lon="9.532136282174793"><ele>751.0</ele><time>2026-03-28T09:58:58Z</time></trkpt><trkpt lat="39.87905418674261" lon="9.53212391473361"><ele>751.0</ele><time>2026-03-28T09:59:01Z</time></trkpt><trkpt lat="39.879122258548065" lon="9.532170016430788"><ele>751.0</ele><time>2026-03-28T09:59:04Z</time></trkpt><trkpt lat="39.879123700046215" lon="9.532277767014058"><ele>751.0</ele><time>2026-03-28T10:00:28Z</time></trkpt><trkpt lat="39.87905595835842" lon="9.532361206465893"><ele>751.0</ele><time>2026-03-28T10:00:30Z</time></trkpt><trkpt lat="39.87896859340528" lon="9.532436234964049"><ele>751.0</ele><time>2026-03-28T10:00:32Z</time></trkpt><trkpt lat="39.878914772581844" lon="9.532507739421265"><ele>751.0</ele><time>2026-03-28T10:00:34Z</time></trkpt><trkpt lat="39.8788434370477" lon="9.532601282313873"><ele>751.0</ele><time>2026-03-28T10:00:54Z</time></trkpt><trkpt lat="39.87879429038955" lon="9.5326590375948"><ele>751.0</ele><time>2026-03-28T10:00:55Z</time></trkpt><trkpt lat="39.878736798436016" lon="9.532729950268033"><ele>751.0</ele><time>2026-03-28T10:00:56Z</time></trkpt><trkpt lat="39.878667075232904" lon="9.532809303182406"><ele>751.0</ele><time>2026-03-28T10:00:57Z</time></trkpt><trkpt lat="39.878603549240744" lon="9.532898749050734"><ele>751.0</ele><time>2026-03-28T10:00:58Z</time></trkpt><trkpt lat="39.87854008865328" lon="9.532992424007919"><ele>749.6666666666667</ele><time>2026-03-28T10:00:59Z</time></trkpt><trkpt lat="39.87848535269283" lon="9.533085356532187"><ele>748.3333333333334</ele><time>2026-03-28T10:01:00Z</time></trkpt><trkpt lat="39.878432175288374" lon="9.533178198725247"><ele>747.0</ele><time>2026-03-28T10:01:01Z</time></trkpt><trkpt lat="39.87838200246573" lon="9.533262705333986"><ele>745.6666666666666</ele><time>2026-03-28T10:01:02Z</time></trkpt><trkpt lat="39.87832601491953" lon="9.5333450989663"><ele>744.3333333333333</ele><time>2026-03-28T10:01:03Z</time></trkpt><trkpt lat="39.878271603042215" lon="9.533428361032406"><ele>743.0</ele><time>2026-03-28T10:01:04Z</time></trkpt><trkpt lat="39.87821699712863" lon="9.533501664939353"><ele>743.0</ele><time>2026-03-28T10:01:05Z</time></trkpt><trkpt lat="39.87816774691888" lon="9.533586207098868"><ele>743.0</ele><time>2026-03-28T10:01:06Z</time></trkpt><trkpt lat="39.878118942652186" lon="9.533673967900649"><ele>743.0</ele><time>2026-03-28T10:01:07Z</time></trkpt><trkpt lat="39.87807687628713" lon="9.533766371386521"><ele>743.0</ele><time>2026-03-28T10:01:08Z</time></trkpt><trkpt lat="39.878050367841695" lon="9.533876485902287"><ele>743.0</ele><time>2026-03-28T10:01:09Z</time></trkpt><trkpt lat="39.8780275411392" lon="9.53399294203585"><ele>743.0</ele><time>2026-03-28T10:01:10Z</time></trkpt><trkpt lat="39.87801087883711" lon="9.5341177412183"><ele>738.5999999999999</ele><time>2026-03-28T10:01:11Z</time></trkpt><trkpt lat="39.87799723987728" lon="9.53425337479341"><ele>734.1999999999999</ele><time>2026-03-28T10:01:12Z</time></trkpt><trkpt lat="39.87798030477405" lon="9.534392861289167"><ele>729.8</ele><time>2026-03-28T10:01:13Z</time></trkpt><trkpt lat="39.87796309284923" lon="9.53453937482919"><ele>725.4</ele><time>2026-03-28T10:01:14Z</time></trkpt><trkpt lat="39.877942582103074" lon="9.534688092476816"><ele>721.0</ele><time>2026-03-28T10:01:15Z</time></trkpt><trkpt lat="39.8779241556045" lon="9.534832607304669"><ele>717.8</ele><time>2026-03-28T10:01:16Z</time></trkpt><trkpt lat="39.877908232345405" lon="9.534968880829911"><ele>714.5999999999999</ele><time>2026-03-28T10:01:17Z</time></trkpt><trkpt lat="39.87789343530871" lon="9.535081815912717"><ele>711.4</ele><time>2026-03-28T10:01:18Z</time></trkpt><trkpt lat="39.877880431450635" lon="9.535180077692843"><ele>708.2</ele><time>2026-03-28T10:01:19Z</time></trkpt><trkpt lat="39.8778682446402" lon="9.535268695763833"><ele>705.0</ele><time>2026-03-28T10:01:20Z</time></trkpt><trkpt lat="39.87785093639352" lon="9.535423391276893"><ele>703.5</ele><time>2026-03-28T10:01:22Z</time></trkpt><trkpt lat="39.87789087650604" lon="9.535574951441804"><ele>702.0</ele><time>2026-03-28T10:01:24Z</time></trkpt><trkpt lat="39.87793684389114" lon="9.535649082498523"><ele>700.5</ele><time>2026-03-28T10:01:25Z</time></trkpt><trkpt lat="39.87798371254942" lon="9.535712699184478"><ele>699.0</ele><time>2026-03-28T10:01:26Z</time></trkpt><trkpt lat="39.87802581302533" lon="9.535776125913692"><ele>697.5</ele><time>2026-03-28T10:01:27Z</time></trkpt><trkpt lat="39.87807821368942" lon="9.53588318595566"><ele>696.0</ele><time>2026-03-28T10:01:28Z</time></trkpt><trkpt lat="39.87812060210123" lon="9.535971698456946"><ele>696.0</ele><time>2026-03-28T10:01:29Z</time></trkpt><trkpt lat="39.878162434476394" lon="9.536061352265019"><ele>696.0</ele><time>2026-03-28T10:01:30Z</time></trkpt><trkpt lat="39.878199799205035" lon="9.53615584755129"><ele>696.0</ele><time>2026-03-28T10:01:31Z</time></trkpt><trkpt lat="39.87822704914286" lon="9.536260804316152"><ele>696.0</ele><time>2026-03-28T10:01:32Z</time></trkpt><trkpt lat="39.87823760781476" lon="9.53637614100372"><ele>696.0</ele><time>2026-03-28T10:01:33Z</time></trkpt><trkpt lat="39.87822242193393" lon="9.536480180921053"><ele>696.0</ele><time>2026-03-28T10:01:34Z</time></trkpt><trkpt lat="39.87821419820132" lon="9.536602615235822"><ele>693.8</ele><time>2026-03-28T10:01:35Z</time></trkpt><trkpt lat="39.87820944053628" lon="9.5367234793025"><ele>691.5999999999999</ele><time>2026-03-28T10:01:36Z</time></trkpt><trkpt lat="39.87820501922457" lon="9.536849082887626"><ele>689.4</ele><time>2026-03-28T10:01:37Z</time></trkpt><trkpt lat="39.878196853575936" lon="9.536976628872843"><ele>687.2</ele><time>2026-03-28T10:01:38Z</time></trkpt><trkpt lat="39.87818872887716" lon="9.537101025172431"><ele>685.0</ele><time>2026-03-28T10:01:39Z</time></trkpt><trkpt lat="39.87818053440961" lon="9.537225902141586"><ele>682.6</ele><time>2026-03-28T10:01:40Z</time></trkpt><trkpt lat="39.87817596503126" lon="9.537362491909777"><ele>680.2</ele><time>2026-03-28T10:01:41Z</time></trkpt><trkpt lat="39.87817255569254" lon="9.537501982647123"><ele>677.8</ele><time>2026-03-28T10:01:42Z</time></trkpt><trkpt lat="39.878171924853284" lon="9.53764966189342"><ele>675.4</ele><time>2026-03-28T10:01:43Z</time></trkpt><trkpt lat="39.878174841062844" lon="9.537799207240296"><ele>673.0</ele><time>2026-03-28T10:01:44Z</time></trkpt><trkpt lat="39.87817468153013" lon="9.537949708093242"><ele>670.5999999999999</ele><time>2026-03-28T10:01:45Z</time></trkpt><trkpt lat="39.87817110978127" lon="9.53809473296239"><ele>668.1999999999999</ele><time>2026-03-28T10:01:46Z</time></trkpt><trkpt lat="39.878168680060924" lon="9.538231508628497"><ele>665.8</ele><time>2026-03-28T10:01:47Z</time></trkpt><trkpt lat="39.87816369135021" lon="9.538349744262305"><ele>663.4</ele><time>2026-03-28T10:01:48Z</time></trkpt><trkpt lat="39.87815416356463" lon="9.53845505095567"><ele>661.0</ele><time>2026-03-28T10:01:49Z</time></trkpt><trkpt lat="39.87814721839116" lon="9.53855117687238"><ele>661.0</ele><time>2026-03-28T10:01:50Z</time></trkpt><trkpt lat="39.87814553752673" lon="9.538641825515933"><ele>661.0</ele><time>2026-03-28T10:01:51Z</time></trkpt><trkpt lat="39.87815367272471" lon="9.538784773665792"><ele>661.0</ele><time>2026-03-28T10:01:53Z</time></trkpt><trkpt lat="39.878171343006414" lon="9.538872459500459"><ele>661.0</ele><time>2026-03-28T10:01:56Z</time></trkpt><trkpt lat="39.878223396571414" lon="9.538926173020947"><ele>661.0</ele><time>2026-03-28T10:01:59Z</time></trkpt><trkpt lat="39.878308068702424" lon="9.538774820548312"><ele>661.0</ele><time>2026-03-28T10:02:02Z</time></trkpt><trkpt lat="39.878337955058946" lon="9.538702516877633"><ele>661.0</ele><time>2026-03-28T10:02:03Z</time></trkpt><trkpt lat="39.87835290619477" lon="9.538619885522932"><ele>661.0</ele><time>2026-03-28T10:02:04Z</time></trkpt><trkpt lat="39.87838397779317" lon="9.538540795000962"><ele>661.0</ele><time>2026-03-28T10:02:05Z</time></trkpt><trkpt lat="39.87841567535312" lon="9.538460884686215"><ele>661.0</ele><time>2026-03-28T10:02:06Z</time></trkpt><trkpt lat="39.878451429599345" lon="9.538376052932296"><ele>661.0</ele><time>2026-03-28T10:02:07Z</time></trkpt><trkpt lat="39.878485930628685" lon="9.538288865800693"><ele>661.0</ele><time>2026-03-28T10:02:08Z</time></trkpt><trkpt lat="39.878517037501716" lon="9.538201744404677"><ele>657.5999999999999</ele><time>2026-03-28T10:02:09Z</time></trkpt><trkpt lat="39.87857404564027" lon="9.538065950234461"><ele>654.2</ele><time>2026-03-28T10:02:11Z</time></trkpt><trkpt lat="39.878609692445295" lon="9.537973658293307"><ele>650.8</ele><time>2026-03-28T10:02:13Z</time></trkpt><trkpt lat="39.8786287546646" lon="9.53788990935334"><ele>647.4000000000001</ele><time>2026-03-28T10:02:40Z</time></trkpt><trkpt lat="39.878665576561644" lon="9.53773760737092"><ele>644.0</ele><time>2026-03-28T10:02:42Z</time></trkpt><trkpt lat="39.87868244926497" lon="9.53765717484463"><ele>644.0</ele><time>2026-03-28T10:02:43Z</time></trkpt><trkpt lat="39.8787542744299" lon="9.53755171133341"><ele>644.0</ele><time>2026-03-28T10:02:45Z</time></trkpt><trkpt lat="39.87884647747733" lon="9.53762666689508"><ele>644.0</ele><time>2026-03-28T10:02:47Z</time></trkpt><trkpt lat="39.87882070574526" lon="9.537788851986964"><ele>644.0</ele><time>2026-03-28T10:02:49Z</time></trkpt><trkpt lat="39.87879232217457" lon="9.537883156384504"><ele>644.0</ele><time>2026-03-28T10:02:50Z</time></trkpt><trkpt lat="39.87876487775897" lon="9.537983037681492"><ele>641.4000000000001</ele><time>2026-03-28T10:02:51Z</time></trkpt><trkpt lat="39.87873893928329" lon="9.538098041604586"><ele>638.8000000000001</ele><time>2026-03-28T10:02:52Z</time></trkpt><trkpt lat="39.87870990751862" lon="9.538220926256148"><ele>636.2</ele><time>2026-03-28T10:02:53Z</time></trkpt><trkpt lat="39.87868095775422" lon="9.538347222269847"><ele>633.6</ele><time>2026-03-28T10:02:54Z</time></trkpt><trkpt lat="39.87865666997682" lon="9.538470627419292"><ele>631.0</ele><time>2026-03-28T10:02:55Z</time></trkpt><trkpt lat="39.87862697722216" lon="9.538591706458007"><ele>631.0</ele><time>2026-03-28T10:02:56Z</time></trkpt><trkpt lat="39.878591927561004" lon="9.538704528404072"><ele>631.0</ele><time>2026-03-28T10:02:57Z</time></trkpt><trkpt lat="39.8785550126398" lon="9.538811771988291"><ele>631.0</ele><time>2026-03-28T10:02:58Z</time></trkpt><trkpt lat="39.87851301417264" lon="9.538913287917167"><ele>631.0</ele><time>2026-03-28T10:02:59Z</time></trkpt><trkpt lat="39.878484784309826" lon="9.539010672734108"><ele>631.0</ele><time>2026-03-28T10:03:00Z</time></trkpt><trkpt lat="39.878452720695066" lon="9.539103786515845"><ele>631.0</ele><time>2026-03-28T10:03:01Z</time></trkpt><trkpt lat="39.878417391723765" lon="9.539193218388508"><ele>632.0</ele><time>2026-03-28T10:03:02Z</time></trkpt><trkpt lat="39.87837648018892" lon="9.539278965715779"><ele>633.0</ele><time>2026-03-28T10:03:03Z</time></trkpt><trkpt lat="39.87834216159544" lon="9.539364395891747"><ele>634.0</ele><time>2026-03-28T10:03:04Z</time></trkpt><trkpt lat="39.878311990161656" lon="9.539446838324698"><ele>635.0</ele><time>2026-03-28T10:03:05Z</time></trkpt><trkpt lat="39.878311938410576" lon="9.539576973839944"><ele>636.0</ele><time>2026-03-28T10:03:07Z</time></trkpt><trkpt lat="39.878381343389805" lon="9.539623405383669"><ele>637.0</ele><time>2026-03-28T10:03:09Z</time></trkpt><trkpt lat="39.87846514130146" lon="9.539520200953477"><ele>633.8000000000001</ele><time>2026-03-28T10:03:11Z</time></trkpt><trkpt lat="39.87854162682328" lon="9.539400317511811"><ele>630.6</ele><time>2026-03-28T10:03:13Z</time></trkpt><trkpt lat="39.8785798898607" lon="9.539332722946625"><ele>627.4000000000001</ele><time>2026-03-28T10:03:14Z</time></trkpt><trkpt lat="39.8786176543016" lon="9.53926600921098"><ele>624.2</ele><time>2026-03-28T10:03:15Z</time></trkpt><trkpt lat="39.87867560077419" lon="9.539132546302085"><ele>621.0</ele><time>2026-03-28T10:03:17Z</time></trkpt><trkpt lat="39.87875019620162" lon="9.539042567531157"><ele>621.0</ele><time>2026-03-28T10:03:19Z</time></trkpt><trkpt lat="39.87880678848471" lon="9.538948598456841"><ele>621.0</ele><time>2026-03-28T10:03:21Z</time></trkpt><trkpt lat="39.87886471014736" lon="9.538852422002474"><ele>621.0</ele><time>2026-03-28T10:03:23Z</time></trkpt><trkpt lat="39.87892932672383" lon="9.538745128936252"><ele>621.0</ele><time>2026-03-28T10:03:25Z</time></trkpt><trkpt lat="39.87897993914167" lon="9.53866108917342"><ele>621.0</ele><time>2026-03-28T10:03:27Z</time></trkpt><trkpt lat="39.87904035835349" lon="9.53856076565089"><ele>622.6666666666666</ele><time>2026-03-28T10:03:29Z</time></trkpt><trkpt lat="39.879079842000486" lon="9.53849520473032"><ele>624.3333333333334</ele><time>2026-03-28T10:03:30Z</time></trkpt><trkpt lat="39.87912413541566" lon="9.538421657410742"><ele>626.0</ele><time>2026-03-28T10:03:31Z</time></trkpt><trkpt lat="39.879174359951655" lon="9.53833691593137"><ele>627.6666666666667</ele><time>2026-03-28T10:03:32Z</time></trkpt><trkpt lat="39.87921393151703" lon="9.53823521252502"><ele>629.3333333333334</ele><time>2026-03-28T10:03:33Z</time></trkpt><trkpt lat="39.87928384540658" lon="9.538149675094266"><ele>631.0</ele><time>2026-03-28T10:03:34Z</time></trkpt><trkpt lat="39.879342282988006" lon="9.538049735761543"><ele>627.4</ele><time>2026-03-28T10:03:35Z</time></trkpt><trkpt lat="39.87940160227031" lon="9.537948288566389"><ele>623.8</ele><time>2026-03-28T10:03:36Z</time></trkpt><trkpt lat="39.87944655572025" lon="9.53783619953369"><ele>620.1999999999999</ele><time>2026-03-28T10:03:37Z</time></trkpt><trkpt lat="39.87951809725127" lon="9.537749379292759"><ele>616.6</ele><time>2026-03-28T10:03:38Z</time></trkpt><trkpt lat="39.87956537223127" lon="9.537641109782458"><ele>613.0</ele><time>2026-03-28T10:03:39Z</time></trkpt><trkpt lat="39.879623977445476" lon="9.537548044630038"><ele>613.0</ele><time>2026-03-28T10:03:40Z</time></trkpt><trkpt lat="39.87967676870291" lon="9.537457564189921"><ele>613.0</ele><time>2026-03-28T10:03:41Z</time></trkpt><trkpt lat="39.879731557960255" lon="9.53737087924597"><ele>613.0</ele><time>2026-03-28T10:03:42Z</time></trkpt><trkpt lat="39.87978653980075" lon="9.53728848612149"><ele>613.0</ele><time>2026-03-28T10:03:43Z</time></trkpt><trkpt lat="39.879841095620826" lon="9.537203573269668"><ele>613.0</ele><time>2026-03-28T10:03:44Z</time></trkpt><trkpt lat="39.879893548774405" lon="9.537120839575957"><ele>613.0</ele><time>2026-03-28T10:03:45Z</time></trkpt><trkpt lat="39.879943715305025" lon="9.537036666881079"><ele>615.1666666666667</ele><time>2026-03-28T10:03:46Z</time></trkpt><trkpt lat="39.87997626339678" lon="9.53694325470519"><ele>617.3333333333334</ele><time>2026-03-28T10:03:47Z</time></trkpt><trkpt lat="39.88002099941113" lon="9.53685444626612"><ele>619.5</ele><time>2026-03-28T10:03:48Z</time></trkpt><trkpt lat="39.88004271434436" lon="9.5367557035895"><ele>621.6666666666666</ele><time>2026-03-28T10:03:49Z</time></trkpt><trkpt lat="39.880046931800315" lon="9.536649456412208"><ele>623.8333333333333</ele><time>2026-03-28T10:03:50Z</time></trkpt><trkpt lat="39.8800516088812" lon="9.5365624068856"><ele>626.0</ele><time>2026-03-28T10:03:51Z</time></trkpt><trkpt lat="39.880061019086845" lon="9.536433757806424"><ele>626.0</ele><time>2026-03-28T10:03:53Z</time></trkpt><trkpt lat="39.8800889887587" lon="9.53635727827987"><ele>626.0</ele><time>2026-03-28T10:03:56Z</time></trkpt><trkpt lat="39.880128976312925" lon="9.536478612191972"><ele>626.0</ele><time>2026-03-28T10:03:59Z</time></trkpt><trkpt lat="39.880115857806786" lon="9.536642390415498"><ele>626.0</ele><time>2026-03-28T10:04:01Z</time></trkpt><trkpt lat="39.88012351204613" lon="9.536745545045568"><ele>626.0</ele><time>2026-03-28T10:04:02Z</time></trkpt><trkpt lat="39.88013957626947" lon="9.536853370855457"><ele>623.8333333333333</ele><time>2026-03-28T10:04:03Z</time></trkpt><trkpt lat="39.88016183417534" lon="9.536968094514085"><ele>621.6666666666666</ele><time>2026-03-28T10:04:04Z</time></trkpt><trkpt lat="39.880171870574365" lon="9.537079469169143"><ele>619.5</ele><time>2026-03-28T10:04:05Z</time></trkpt><trkpt lat="39.880175174294884" lon="9.537186571435992"><ele>617.3333333333334</ele><time>2026-03-28T10:04:06Z</time></trkpt><trkpt lat="39.88016829323624" lon="9.537292313783976"><ele>615.1666666666667</ele><time>2026-03-28T10:04:07Z</time></trkpt><trkpt lat="39.88014255258986" lon="9.537393531226037"><ele>613.0</ele><time>2026-03-28T10:04:08Z</time></trkpt><trkpt lat="39.88009929022553" lon="9.53748339765655"><ele>613.0</ele><time>2026-03-28T10:04:09Z</time></trkpt><trkpt lat="39.88005932733648" lon="9.537572933196156"><ele>613.0</ele><time>2026-03-28T10:04:10Z</time></trkpt><trkpt lat="39.8800179440458" lon="9.537666429455314"><ele>613.0</ele><time>2026-03-28T10:04:11Z</time></trkpt><trkpt lat="39.87997659002269" lon="9.537760068497134"><ele>613.0</ele><time>2026-03-28T10:04:12Z</time></trkpt><trkpt lat="39.87993893293532" lon="9.537859166189783"><ele>613.0</ele><time>2026-03-28T10:04:13Z</time></trkpt><trkpt lat="39.87990123560865" lon="9.537961406445124"><ele>613.0</ele><time>2026-03-28T10:04:14Z</time></trkpt><trkpt lat="39.879861043059414" lon="9.53806423762943"><ele>611.0</ele><time>2026-03-28T10:04:15Z</time></trkpt><trkpt lat="39.87981836829416" lon="9.538161611967734"><ele>609.0</ele><time>2026-03-28T10:04:16Z</time></trkpt><trkpt lat="39.87977677305608" lon="9.538260141500114"><ele>607.0</ele><time>2026-03-28T10:04:17Z</time></trkpt><trkpt lat="39.87973655628647" lon="9.538359158763898"><ele>605.0</ele><time>2026-03-28T10:04:18Z</time></trkpt><trkpt lat="39.87970171536511" lon="9.538461627730793"><ele>603.0</ele><time>2026-03-28T10:04:19Z</time></trkpt><trkpt lat="39.87967443237666" lon="9.538562483501375"><ele>601.0</ele><time>2026-03-28T10:04:20Z</time></trkpt><trkpt lat="39.879647874965606" lon="9.538662958967366"><ele>599.8571428571428</ele><time>2026-03-28T10:04:21Z</time></trkpt><trkpt lat="39.87962252899859" lon="9.538757922607802"><ele>598.7142857142858</ele><time>2026-03-28T10:04:22Z</time></trkpt><trkpt lat="39.87959813172726" lon="9.538843143880914"><ele>597.5714285714286</ele><time>2026-03-28T10:04:23Z</time></trkpt><trkpt lat="39.87957868061662" lon="9.538928009662827"><ele>596.4285714285713</ele><time>2026-03-28T10:04:24Z</time></trkpt><trkpt lat="39.879560924479" lon="9.539012793020769"><ele>595.2857142857142</ele><time>2026-03-28T10:04:25Z</time></trkpt><trkpt lat="39.87954823320724" lon="9.539099321086846"><ele>594.1428571428571</ele><time>2026-03-28T10:04:26Z</time></trkpt><trkpt lat="39.87953430575324" lon="9.53918267006769"><ele>593.0</ele><time>2026-03-28T10:04:27Z</time></trkpt><trkpt lat="39.87952261315715" lon="9.53927232869502"><ele>592.9999999999999</ele><time>2026-03-28T10:04:28Z</time></trkpt><trkpt lat="39.87951156524657" lon="9.53936416356175"><ele>593.0</ele><time>2026-03-28T10:04:29Z</time></trkpt><trkpt lat="39.87949642176431" lon="9.539457523455354"><ele>593.0</ele><time>2026-03-28T10:04:30Z</time></trkpt><trkpt lat="39.87947792621743" lon="9.539549106103122"><ele>593.0</ele><time>2026-03-28T10:04:31Z</time></trkpt><trkpt lat="39.87945966050714" lon="9.539647894856483"><ele>593.0</ele><time>2026-03-28T10:04:32Z</time></trkpt><trkpt lat="39.879445362909905" lon="9.539744241516038"><ele>592.9999999999999</ele><time>2026-03-28T10:04:33Z</time></trkpt><trkpt lat="39.87943383108631" lon="9.53983447512512"><ele>593.0</ele><time>2026-03-28T10:04:34Z</time></trkpt><trkpt lat="39.87941454028645" lon="9.539916619479497"><ele>591.8</ele><time>2026-03-28T10:04:35Z</time></trkpt><trkpt lat="39.879345642504255" lon="9.540023436958595"><ele>590.5999999999999</ele><time>2026-03-28T10:04:37Z</time></trkpt><trkpt lat="39.87925867616624" lon="9.540111217164126"><ele>589.4000000000001</ele><time>2026-03-28T10:04:39Z</time></trkpt><trkpt lat="39.87916912765247" lon="9.54017365415948"><ele>588.2</ele><time>2026-03-28T10:04:41Z</time></trkpt><trkpt lat="39.87910187422338" lon="9.540243467579472"><ele>587.0</ele><time>2026-03-28T10:04:43Z</time></trkpt><trkpt lat="39.87904677817148" lon="9.540331159377748"><ele>589.5</ele><time>2026-03-28T10:04:45Z</time></trkpt><trkpt lat="39.87902370684659" lon="9.540429440826811"><ele>592.0</ele><time>2026-03-28T10:04:47Z</time></trkpt><trkpt lat="39.87903050321136" lon="9.540521909186362"><ele>594.5</ele><time>2026-03-28T10:04:49Z</time></trkpt><trkpt lat="39.87904848174078" lon="9.540626930258407"><ele>597.0</ele><time>2026-03-28T10:04:51Z</time></trkpt><trkpt lat="39.87909736528471" lon="9.540731492944058"><ele>599.5</ele><time>2026-03-28T10:04:53Z</time></trkpt><trkpt lat="39.879144256155975" lon="9.540834889565845"><ele>602.0</ele><time>2026-03-28T10:04:55Z</time></trkpt><trkpt lat="39.87918125458285" lon="9.540935672821771"><ele>602.0</ele><time>2026-03-28T10:04:57Z</time></trkpt><trkpt lat="39.87922045640286" lon="9.541046642326789"><ele>602.0</ele><time>2026-03-28T10:04:59Z</time></trkpt><trkpt lat="39.879248689133945" lon="9.541165629407407"><ele>602.0</ele><time>2026-03-28T10:05:01Z</time></trkpt><trkpt lat="39.87929987110018" lon="9.54129833887832"><ele>602.0</ele><time>2026-03-28T10:05:03Z</time></trkpt><trkpt lat="39.87935613952017" lon="9.54144775941746"><ele>602.0</ele><time>2026-03-28T10:05:05Z</time></trkpt><trkpt lat="39.879385981950115" lon="9.54152654776821"><ele>600.5</ele><time>2026-03-28T10:05:06Z</time></trkpt><trkpt lat="39.87941420332165" lon="9.541605551656291"><ele>599.0</ele><time>2026-03-28T10:05:07Z</time></trkpt><trkpt lat="39.87944329137361" lon="9.541682044218582"><ele>597.5</ele><time>2026-03-28T10:05:08Z</time></trkpt><trkpt lat="39.879471079706754" lon="9.54175568796969"><ele>596.0</ele><time>2026-03-28T10:05:09Z</time></trkpt><trkpt lat="39.87953436220556" lon="9.54188164549783"><ele>594.5</ele><time>2026-03-28T10:05:11Z</time></trkpt><trkpt lat="39.879617333759164" lon="9.541930659058561"><ele>593.0</ele><time>2026-03-28T10:05:13Z</time></trkpt><trkpt lat="39.87971615788394" lon="9.541902000756021"><ele>593.0</ele><time>2026-03-28T10:05:15Z</time></trkpt><trkpt lat="39.879823762818425" lon="9.541860218775888"><ele>593.0</ele><time>2026-03-28T10:05:17Z</time></trkpt><trkpt lat="39.879877702854756" lon="9.5418178155264"><ele>593.0</ele><time>2026-03-28T10:05:18Z</time></trkpt><trkpt lat="39.87994270456607" lon="9.541798436660777"><ele>593.0</ele><time>2026-03-28T10:05:19Z</time></trkpt><trkpt lat="39.88000966730374" lon="9.541771615164967"><ele>593.0</ele><time>2026-03-28T10:05:20Z</time></trkpt><trkpt lat="39.88007895271031" lon="9.541733152043086"><ele>593.0</ele><time>2026-03-28T10:05:21Z</time></trkpt><trkpt lat="39.88014309168553" lon="9.541677855004663"><ele>590.8571428571428</ele><time>2026-03-28T10:05:22Z</time></trkpt><trkpt lat="39.88020182053549" lon="9.541614631963826"><ele>588.7142857142857</ele><time>2026-03-28T10:05:23Z</time></trkpt><trkpt lat="39.88025536151636" lon="9.541549112587946"><ele>586.5714285714286</ele><time>2026-03-28T10:05:24Z</time></trkpt><trkpt lat="39.88030779332957" lon="9.541481782008825"><ele>584.4285714285713</ele><time>2026-03-28T10:05:25Z</time></trkpt><trkpt lat="39.88035701103075" lon="9.541415045329982"><ele>582.2857142857142</ele><time>2026-03-28T10:05:26Z</time></trkpt><trkpt lat="39.88040295880198" lon="9.541343874640232"><ele>580.1428571428571</ele><time>2026-03-28T10:05:27Z</time></trkpt><trkpt lat="39.88044823477446" lon="9.541272779393443"><ele>578.0</ele><time>2026-03-28T10:05:28Z</time></trkpt><trkpt lat="39.88048733484177" lon="9.541203530297393"><ele>578.0</ele><time>2026-03-28T10:05:29Z</time></trkpt><trkpt lat="39.88054337300235" lon="9.54107348668227"><ele>578.0</ele><time>2026-03-28T10:05:31Z</time></trkpt><trkpt lat="39.88053546414642" lon="9.540927421214864"><ele>578.0</ele><time>2026-03-28T10:05:33Z</time></trkpt><trkpt lat="39.88045773782061" lon="9.54083138323162"><ele>578.0</ele><time>2026-03-28T10:05:35Z</time></trkpt><trkpt lat="39.88034507597822" lon="9.540785705535228"><ele>578.0</ele><time>2026-03-28T10:05:37Z</time></trkpt><trkpt lat="39.88021840836906" lon="9.540784571084213"><ele>578.0</ele><time>2026-03-28T10:05:39Z</time></trkpt><trkpt lat="39.88015351760291" lon="9.540789228894898"><ele>578.0</ele><time>2026-03-28T10:05:40Z</time></trkpt><trkpt lat="39.88003580295113" lon="9.540769359223592"><ele>578.0</ele><time>2026-03-28T10:05:42Z</time></trkpt><trkpt lat="39.87992607423736" lon="9.54071633289893"><ele>578.0</ele><time>2026-03-28T10:05:44Z</time></trkpt><trkpt lat="39.879858410319926" lon="9.54059081874209"><ele>579.8</ele><time>2026-03-28T10:05:46Z</time></trkpt><trkpt lat="39.87988046875798" lon="9.540455934638864"><ele>581.5999999999999</ele><time>2026-03-28T10:05:48Z</time></trkpt><trkpt lat="39.87994015804257" lon="9.5403391629226"><ele>583.4000000000001</ele><time>2026-03-28T10:05:50Z</time></trkpt><trkpt lat="39.87999701629284" lon="9.54023166634025"><ele>585.2</ele><time>2026-03-28T10:05:52Z</time></trkpt><trkpt lat="39.880044579788624" lon="9.540134510972752"><ele>587.0</ele><time>2026-03-28T10:05:54Z</time></trkpt><trkpt lat="39.88009799874803" lon="9.54003858977621"><ele>583.5</ele><time>2026-03-28T10:05:56Z</time></trkpt><trkpt lat="39.880157590435196" lon="9.53991724611915"><ele>580.0</ele><time>2026-03-28T10:05:58Z</time></trkpt><trkpt lat="39.88023640074883" lon="9.5398099794478"><ele>576.5</ele><time>2026-03-28T10:06:00Z</time></trkpt><trkpt lat="39.88030356392598" lon="9.539681013118033"><ele>573.0</ele><time>2026-03-28T10:06:02Z</time></trkpt><trkpt lat="39.88037615139659" lon="9.539556020576992"><ele>571.8333333333334</ele><time>2026-03-28T10:06:04Z</time></trkpt><trkpt lat="39.88042538582775" lon="9.539408409025594"><ele>570.6666666666666</ele><time>2026-03-28T10:06:06Z</time></trkpt><trkpt lat="39.88045868332224" lon="9.539338098227484"><ele>569.5</ele><time>2026-03-28T10:06:07Z</time></trkpt><trkpt lat="39.880488035684635" lon="9.539263557877929"><ele>568.3333333333333</ele><time>2026-03-28T10:06:08Z</time></trkpt><trkpt lat="39.88051342891336" lon="9.539185004547054"><ele>567.1666666666666</ele><time>2026-03-28T10:06:09Z</time></trkpt><trkpt lat="39.880537089058315" lon="9.539102581970331"><ele>566.0</ele><time>2026-03-28T10:06:10Z</time></trkpt><trkpt lat="39.8805812708354" lon="9.539031720236412"><ele>566.0</ele><time>2026-03-28T10:06:11Z</time></trkpt><trkpt lat="39.880588230359194" lon="9.538936563382226"><ele>566.0</ele><time>2026-03-28T10:06:12Z</time></trkpt><trkpt lat="39.88062747388583" lon="9.538854881214357"><ele>566.0</ele><time>2026-03-28T10:06:13Z</time></trkpt><trkpt lat="39.88068089005695" lon="9.53878542927331"><ele>566.0</ele><time>2026-03-28T10:06:14Z</time></trkpt><trkpt lat="39.88074388380767" lon="9.538731697795107"><ele>566.0</ele><time>2026-03-28T10:06:15Z</time></trkpt><trkpt lat="39.88081406987435" lon="9.538696426536932"><ele>566.0</ele><time>2026-03-28T10:06:16Z</time></trkpt><trkpt lat="39.88088457859231" lon="9.538661850670444"><ele>566.0</ele><time>2026-03-28T10:06:17Z</time></trkpt><trkpt lat="39.88095556267406" lon="9.53862401149521"><ele>564.1666666666666</ele><time>2026-03-28T10:06:18Z</time></trkpt><trkpt lat="39.88102525404917" lon="9.538582599776925"><ele>562.3333333333333</ele><time>2026-03-28T10:06:19Z</time></trkpt><trkpt lat="39.88109437464521" lon="9.538538999722572"><ele>560.5</ele><time>2026-03-28T10:06:20Z</time></trkpt><trkpt lat="39.88116055390355" lon="9.538494605150296"><ele>558.6666666666666</ele><time>2026-03-28T10:06:21Z</time></trkpt><trkpt lat="39.88122223618884" lon="9.538438936402217"><ele>556.8333333333334</ele><time>2026-03-28T10:06:22Z</time></trkpt><trkpt lat="39.88129347065694" lon="9.538403507419863"><ele>555.0</ele><time>2026-03-28T10:06:23Z</time></trkpt><trkpt lat="39.88134981018107" lon="9.538336287726747"><ele>555.0</ele><time>2026-03-28T10:06:24Z</time></trkpt><trkpt lat="39.881400109022195" lon="9.538255598068332"><ele>555.0</ele><time>2026-03-28T10:06:25Z</time></trkpt><trkpt lat="39.88144834447507" lon="9.538177933252754"><ele>555.0</ele><time>2026-03-28T10:06:26Z</time></trkpt><trkpt lat="39.88149684330246" lon="9.538097030699664"><ele>555.0</ele><time>2026-03-28T10:06:27Z</time></trkpt><trkpt lat="39.881539304382336" lon="9.538008094515101"><ele>555.0</ele><time>2026-03-28T10:06:28Z</time></trkpt><trkpt lat="39.88160213548376" lon="9.537937944273516"><ele>555.0</ele><time>2026-03-28T10:06:29Z</time></trkpt><trkpt lat="39.881668625531915" lon="9.53787136958564"><ele>554.0</ele><time>2026-03-28T10:06:30Z</time></trkpt><trkpt lat="39.88174301078022" lon="9.53781555224472"><ele>553.0</ele><time>2026-03-28T10:06:31Z</time></trkpt><trkpt lat="39.88182467512101" lon="9.537772036232317"><ele>552.0</ele><time>2026-03-28T10:06:32Z</time></trkpt><trkpt lat="39.88191147140007" lon="9.53773445264569"><ele>551.0</ele><time>2026-03-28T10:06:33Z</time></trkpt><trkpt lat="39.88200265782845" lon="9.53769660393189"><ele>550.0</ele><time>2026-03-28T10:06:34Z</time></trkpt><trkpt lat="39.882093163553314" lon="9.537647869924701"><ele>550.0</ele><time>2026-03-28T10:06:35Z</time></trkpt><trkpt lat="39.88218885560896" lon="9.537613000703375"><ele>550.0</ele><time>2026-03-28T10:06:36Z</time></trkpt><trkpt lat="39.88227141538999" lon="9.53754109119302"><ele>550.0</ele><time>2026-03-28T10:06:37Z</time></trkpt><trkpt lat="39.88233770321114" lon="9.537445801241118"><ele>550.0</ele><time>2026-03-28T10:06:38Z</time></trkpt><trkpt lat="39.88240831869814" lon="9.537363973574886"><ele>550.0</ele><time>2026-03-28T10:06:39Z</time></trkpt><trkpt lat="39.882488745840924" lon="9.53729667180077"><ele>550.0</ele><time>2026-03-28T10:06:40Z</time></trkpt><trkpt lat="39.88256527441436" lon="9.537228262786751"><ele>550.0</ele><time>2026-03-28T10:06:41Z</time></trkpt><trkpt lat="39.882641283583496" lon="9.537184776165274"><ele>550.0</ele><time>2026-03-28T10:06:42Z</time></trkpt><trkpt lat="39.88273499589382" lon="9.537136820327005"><ele>550.0</ele><time>2026-03-28T10:06:43Z</time></trkpt><trkpt lat="39.88282810059927" lon="9.537117662876142"><ele>550.0</ele><time>2026-03-28T10:06:44Z</time></trkpt><trkpt lat="39.882918323518716" lon="9.537093065508516"><ele>550.2</ele><time>2026-03-28T10:06:45Z</time></trkpt><trkpt lat="39.88300792865717" lon="9.537071104838752"><ele>550.4</ele><time>2026-03-28T10:06:46Z</time></trkpt><trkpt lat="39.883104797360104" lon="9.537024643397517"><ele>550.6</ele><time>2026-03-28T10:06:47Z</time></trkpt><trkpt lat="39.88319740044085" lon="9.536997100753775"><ele>550.8</ele><time>2026-03-28T10:06:48Z</time></trkpt><trkpt lat="39.88329164714238" lon="9.536967235187106"><ele>551.0</ele><time>2026-03-28T10:06:49Z</time></trkpt><trkpt lat="39.883383474554556" lon="9.536942167427016"><ele>552.4</ele><time>2026-03-28T10:06:50Z</time></trkpt><trkpt lat="39.88347517311863" lon="9.53693556542468"><ele>553.8</ele><time>2026-03-28T10:06:51Z</time></trkpt><trkpt lat="39.883567824181675" lon="9.536956328300645"><ele>555.1999999999999</ele><time>2026-03-28T10:06:52Z</time></trkpt><trkpt lat="39.88365935221286" lon="9.53699774903029"><ele>556.6</ele><time>2026-03-28T10:06:53Z</time></trkpt><trkpt lat="39.883752977871715" lon="9.53706208259647"><ele>558.0</ele><time>2026-03-28T10:06:54Z</time></trkpt><trkpt lat="39.88384018032227" lon="9.537151545621914"><ele>552.5</ele><time>2026-03-28T10:06:55Z</time></trkpt><trkpt lat="39.883917172936385" lon="9.537266690043507"><ele>547.0</ele><time>2026-03-28T10:06:56Z</time></trkpt><trkpt lat="39.883988449266376" lon="9.537389771389275"><ele>541.5</ele><time>2026-03-28T10:06:57Z</time></trkpt><trkpt lat="39.88406883879873" lon="9.537501572105858"><ele>536.0</ele><time>2026-03-28T10:06:58Z</time></trkpt><trkpt lat="39.88417000434259" lon="9.53758463253279"><ele>535.0</ele><time>2026-03-28T10:06:59Z</time></trkpt><trkpt lat="39.884293858735546" lon="9.537624406348852"><ele>534.0</ele><time>2026-03-28T10:07:00Z</time></trkpt><trkpt lat="39.88441435663837" lon="9.537620146528411"><ele>533.0</ele><time>2026-03-28T10:07:01Z</time></trkpt><trkpt lat="39.88453344858255" lon="9.537593989666291"><ele>532.0</ele><time>2026-03-28T10:07:02Z</time></trkpt><trkpt lat="39.88464845003146" lon="9.537570607041"><ele>532.0</ele><time>2026-03-28T10:07:03Z</time></trkpt><trkpt lat="39.884758394424516" lon="9.537550728814383"><ele>532.0</ele><time>2026-03-28T10:07:04Z</time></trkpt><trkpt lat="39.88486692774466" lon="9.53752863231999"><ele>532.0</ele><time>2026-03-28T10:07:05Z</time></trkpt><trkpt lat="39.884960161802816" lon="9.537507215933436"><ele>532.0</ele><time>2026-03-28T10:07:06Z</time></trkpt><trkpt lat="39.8850424740193" lon="9.537482987068321"><ele>532.0</ele><time>2026-03-28T10:07:07Z</time></trkpt><trkpt lat="39.885120337695135" lon="9.537459964302608"><ele>531.6666666666667</ele><time>2026-03-28T10:07:08Z</time></trkpt><trkpt lat="39.88519149228215" lon="9.53744396428201"><ele>531.3333333333334</ele><time>2026-03-28T10:07:09Z</time></trkpt><trkpt lat="39.885269508541704" lon="9.537432687274098"><ele>531.0</ele><time>2026-03-28T10:07:10Z</time></trkpt><trkpt lat="39.88534240500091" lon="9.537442293729008"><ele>530.6666666666666</ele><time>2026-03-28T10:07:11Z</time></trkpt><trkpt lat="39.88540347190692" lon="9.53747701049238"><ele>530.3333333333333</ele><time>2026-03-28T10:07:12Z</time></trkpt><trkpt lat="39.885449797699906" lon="9.537533540290621"><ele>530.0</ele><time>2026-03-28T10:07:13Z</time></trkpt><trkpt lat="39.885497881878436" lon="9.537641357350353"><ele>530.0</ele><time>2026-03-28T10:07:15Z</time></trkpt><trkpt lat="39.88547784325394" lon="9.537756346882368"><ele>530.0</ele><time>2026-03-28T10:07:17Z</time></trkpt><trkpt lat="39.88537636141895" lon="9.537791804885941"><ele>530.0</ele><time>2026-03-28T10:07:19Z</time></trkpt><trkpt lat="39.88530897033359" lon="9.537776807673232"><ele>530.0</ele><time>2026-03-28T10:07:20Z</time></trkpt><trkpt lat="39.88523294875815" lon="9.537773215514292"><ele>530.0</ele><time>2026-03-28T10:07:21Z</time></trkpt><trkpt lat="39.8851525332232" lon="9.537783144481205"><ele>530.0</ele><time>2026-03-28T10:07:22Z</time></trkpt><trkpt lat="39.8850662478264" lon="9.537788750211615"><ele>530.3333333333333</ele><time>2026-03-28T10:07:23Z</time></trkpt><trkpt lat="39.88497705366021" lon="9.537788948058198"><ele>530.6666666666666</ele><time>2026-03-28T10:07:24Z</time></trkpt><trkpt lat="39.88488822147288" lon="9.53779234567353"><ele>531.0</ele><time>2026-03-28T10:07:25Z</time></trkpt><trkpt lat="39.88480094209615" lon="9.537801383592416"><ele>531.3333333333334</ele><time>2026-03-28T10:07:26Z</time></trkpt><trkpt lat="39.88471576968067" lon="9.537811621579497"><ele>531.6666666666667</ele><time>2026-03-28T10:07:27Z</time></trkpt><trkpt lat="39.884631710723525" lon="9.537822550484565"><ele>532.0</ele><time>2026-03-28T10:07:28Z</time></trkpt><trkpt lat="39.88454732402577" lon="9.537832650160421"><ele>532.0</ele><time>2026-03-28T10:07:29Z</time></trkpt><trkpt lat="39.88446258058756" lon="9.537837403571837"><ele>532.0</ele><time>2026-03-28T10:07:30Z</time></trkpt><trkpt lat="39.884377541868055" lon="9.537842007448296"><ele>532.0</ele><time>2026-03-28T10:07:31Z</time></trkpt><trkpt lat="39.88428863161733" lon="9.53783915094559"><ele>532.0</ele><time>2026-03-28T10:07:32Z</time></trkpt><trkpt lat="39.88419895180491" lon="9.537828116956518"><ele>532.0</ele><time>2026-03-28T10:07:33Z</time></trkpt><trkpt lat="39.88411126851945" lon="9.53780782443464"><ele>532.0</ele><time>2026-03-28T10:07:34Z</time></trkpt><trkpt lat="39.884023388720806" lon="9.537781415760806"><ele>532.8000000000001</ele><time>2026-03-28T10:07:35Z</time></trkpt><trkpt lat="39.883934473919616" lon="9.537753482677084"><ele>533.6</ele><time>2026-03-28T10:07:36Z</time></trkpt><trkpt lat="39.883845358529406" lon="9.537724811998798"><ele>534.4000000000001</ele><time>2026-03-28T10:07:37Z</time></trkpt><trkpt lat="39.88375757317725" lon="9.537689375682046"><ele>535.2</ele><time>2026-03-28T10:07:38Z</time></trkpt><trkpt lat="39.88367145885926" lon="9.537651410654949"><ele>536.0</ele><time>2026-03-28T10:07:39Z</time></trkpt><trkpt lat="39.883578644868514" lon="9.537621420716812"><ele>536.0</ele><time>2026-03-28T10:07:40Z</time></trkpt><trkpt lat="39.88347830736803" lon="9.53760126235714"><ele>536.0</ele><time>2026-03-28T10:07:41Z</time></trkpt><trkpt lat="39.883367632167065" lon="9.537604467554571"><ele>536.0</ele><time>2026-03-28T10:07:42Z</time></trkpt><trkpt lat="39.883250401548814" lon="9.537644241449549"><ele>536.0</ele><time>2026-03-28T10:07:43Z</time></trkpt><trkpt lat="39.8831346671751" lon="9.537721951886544"><ele>535.75</ele><time>2026-03-28T10:07:44Z</time></trkpt><trkpt lat="39.88303165425954" lon="9.537845611492468"><ele>535.5</ele><time>2026-03-28T10:07:45Z</time></trkpt><trkpt lat="39.88295328295025" lon="9.538002237377341"><ele>535.25</ele><time>2026-03-28T10:07:46Z</time></trkpt><trkpt lat="39.88288462479006" lon="9.538156106373416"><ele>535.0</ele><time>2026-03-28T10:07:47Z</time></trkpt><trkpt lat="39.88281655540139" lon="9.538302740639999"><ele>532.25</ele><time>2026-03-28T10:07:48Z</time></trkpt><trkpt lat="39.88273991010886" lon="9.538460194631904"><ele>529.5</ele><time>2026-03-28T10:07:49Z</time></trkpt><trkpt lat="39.88267171169339" lon="9.538613345118334"><ele>526.75</ele><time>2026-03-28T10:07:50Z</time></trkpt><trkpt lat="39.88260546573055" lon="9.538763728356248"><ele>524.0</ele><time>2026-03-28T10:07:51Z</time></trkpt><trkpt lat="39.882538545846465" lon="9.538910691202771"><ele>524.0</ele><time>2026-03-28T10:07:52Z</time></trkpt><trkpt lat="39.88247589300063" lon="9.539067565126947"><ele>524.0</ele><time>2026-03-28T10:07:53Z</time></trkpt><trkpt lat="39.882429129403526" lon="9.539243693696946"><ele>524.0</ele><time>2026-03-28T10:07:54Z</time></trkpt><trkpt lat="39.88241521765941" lon="9.539437884501288"><ele>524.0</ele><time>2026-03-28T10:07:55Z</time></trkpt><trkpt lat="39.88243363484958" lon="9.539646064207712"><ele>522.0</ele><time>2026-03-28T10:07:56Z</time></trkpt><trkpt lat="39.88247678116898" lon="9.539845912772476"><ele>520.0</ele><time>2026-03-28T10:07:57Z</time></trkpt><trkpt lat="39.88253046292133" lon="9.54002690521203"><ele>518.0</ele><time>2026-03-28T10:07:58Z</time></trkpt><trkpt lat="39.88257861872127" lon="9.540196169332193"><ele>516.0</ele><time>2026-03-28T10:07:59Z</time></trkpt><trkpt lat="39.88260607553046" lon="9.540363811905525"><ele>515.5</ele><time>2026-03-28T10:08:00Z</time></trkpt><trkpt lat="39.882593250536466" lon="9.540536872403965"><ele>515.0</ele><time>2026-03-28T10:08:01Z</time></trkpt><trkpt lat="39.882532678404104" lon="9.540680487787883"><ele>514.5</ele><time>2026-03-28T10:08:02Z</time></trkpt><trkpt lat="39.88248819262427" lon="9.540808483984543"><ele>514.0</ele><time>2026-03-28T10:08:03Z</time></trkpt><trkpt lat="39.88244535984878" lon="9.540954877603447"><ele>514.0</ele><time>2026-03-28T10:08:04Z</time></trkpt><trkpt lat="39.88242477522878" lon="9.541095878256947"><ele>514.0</ele><time>2026-03-28T10:08:05Z</time></trkpt><trkpt lat="39.88242182756248" lon="9.541236474569281"><ele>514.0</ele><time>2026-03-28T10:08:06Z</time></trkpt><trkpt lat="39.882423255748044" lon="9.541379166794373"><ele>514.0</ele><time>2026-03-28T10:08:07Z</time></trkpt><trkpt lat="39.882430662828945" lon="9.541531287160858"><ele>514.0</ele><time>2026-03-28T10:08:08Z</time></trkpt><trkpt lat="39.88246361396036" lon="9.541690630105592"><ele>512.5</ele><time>2026-03-28T10:08:09Z</time></trkpt><trkpt lat="39.8825316987349" lon="9.541842366541887"><ele>511.0</ele><time>2026-03-28T10:08:10Z</time></trkpt><trkpt lat="39.88261407470739" lon="9.541984977614753"><ele>509.5</ele><time>2026-03-28T10:08:11Z</time></trkpt><trkpt lat="39.88270706507623" lon="9.542115878638086"><ele>508.0</ele><time>2026-03-28T10:08:12Z</time></trkpt><trkpt lat="39.88279572121766" lon="9.542241711429185"><ele>504.5</ele><time>2026-03-28T10:08:13Z</time></trkpt><trkpt lat="39.88287423300163" lon="9.542363107383204"><ele>501.0</ele><time>2026-03-28T10:08:14Z</time></trkpt><trkpt lat="39.88294484669557" lon="9.542487345882911"><ele>497.5</ele><time>2026-03-28T10:08:15Z</time></trkpt><trkpt lat="39.88299940355461" lon="9.542617230513159"><ele>494.0</ele><time>2026-03-28T10:08:16Z</time></trkpt><trkpt lat="39.883038601353455" lon="9.542755832831876"><ele>493.2</ele><time>2026-03-28T10:08:17Z</time></trkpt><trkpt lat="39.883061516702924" lon="9.542895426699328"><ele>492.4</ele><time>2026-03-28T10:08:18Z</time></trkpt><trkpt lat="39.88307616710761" lon="9.54303631814787"><ele>491.6</ele><time>2026-03-28T10:08:19Z</time></trkpt><trkpt lat="39.88308748744808" lon="9.543177770403497"><ele>490.8</ele><time>2026-03-28T10:08:20Z</time></trkpt><trkpt lat="39.88310046758213" lon="9.543319230895067"><ele>490.0</ele><time>2026-03-28T10:08:21Z</time></trkpt><trkpt lat="39.883112175343705" lon="9.543459677565183"><ele>490.0</ele><time>2026-03-28T10:08:22Z</time></trkpt><trkpt lat="39.883125357011544" lon="9.54358269626579"><ele>490.0</ele><time>2026-03-28T10:08:23Z</time></trkpt><trkpt lat="39.88313550100307" lon="9.54369958874027"><ele>490.0</ele><time>2026-03-28T10:08:24Z</time></trkpt><trkpt lat="39.883141713815" lon="9.54381673827594"><ele>490.0</ele><time>2026-03-28T10:08:25Z</time></trkpt><trkpt lat="39.88314310941231" lon="9.543932206423081"><ele>490.0</ele><time>2026-03-28T10:08:26Z</time></trkpt><trkpt lat="39.88314275140702" lon="9.54404996129904"><ele>490.2</ele><time>2026-03-28T10:08:27Z</time></trkpt><trkpt lat="39.88314042467954" lon="9.54417423888513"><ele>490.4</ele><time>2026-03-28T10:08:28Z</time></trkpt><trkpt lat="39.883134147810615" lon="9.54430544710733"><ele>490.6</ele><time>2026-03-28T10:08:29Z</time></trkpt><trkpt lat="39.88312062912372" lon="9.544440950510285"><ele>490.8</ele><time>2026-03-28T10:08:30Z</time></trkpt><trkpt lat="39.88310156248276" lon="9.544574073823338"><ele>491.0</ele><time>2026-03-28T10:08:31Z</time></trkpt><trkpt lat="39.88308230325907" lon="9.544701320136232"><ele>490.4</ele><time>2026-03-28T10:08:32Z</time></trkpt><trkpt lat="39.88306631228949" lon="9.544821874205958"><ele>489.8</ele><time>2026-03-28T10:08:33Z</time></trkpt><trkpt lat="39.88303552628682" lon="9.54493008075589"><ele>489.19999999999993</ele><time>2026-03-28T10:08:34Z</time></trkpt><trkpt lat="39.88301926679807" lon="9.54502893849849"><ele>488.59999999999997</ele><time>2026-03-28T10:08:35Z</time></trkpt><trkpt lat="39.883152166951085" lon="9.545135220857452"><ele>488.0</ele><time>2026-03-28T10:08:36Z</time></trkpt><trkpt lat="39.88319333066051" lon="9.545238833973098"><ele>488.0</ele><time>2026-03-28T10:08:37Z</time></trkpt><trkpt lat="39.88325181641717" lon="9.545334450100853"><ele>487.99999999999994</ele><time>2026-03-28T10:08:38Z</time></trkpt><trkpt lat="39.88331405503844" lon="9.545439561325953"><ele>487.99999999999994</ele><time>2026-03-28T10:08:39Z</time></trkpt><trkpt lat="39.883363878867236" lon="9.545551614973597"><ele>488.0</ele><time>2026-03-28T10:08:40Z</time></trkpt><trkpt lat="39.88340882826672" lon="9.54567179036515"><ele>488.0</ele><time>2026-03-28T10:08:41Z</time></trkpt><trkpt lat="39.8834436912193" lon="9.545800312589414"><ele>484.4</ele><time>2026-03-28T10:08:42Z</time></trkpt><trkpt lat="39.883474630374735" lon="9.545931229489925"><ele>480.79999999999995</ele><time>2026-03-28T10:08:43Z</time></trkpt><trkpt lat="39.883506274832804" lon="9.54606282656409"><ele>477.2</ele><time>2026-03-28T10:08:44Z</time></trkpt><trkpt lat="39.88355030705318" lon="9.54618917146063"><ele>473.6</ele><time>2026-03-28T10:08:45Z</time></trkpt><trkpt lat="39.88360458374727" lon="9.54629511515615"><ele>470.0</ele><time>2026-03-28T10:08:46Z</time></trkpt><trkpt lat="39.883663567516756" lon="9.546384224412975"><ele>469.66666666666663</ele><time>2026-03-28T10:08:47Z</time></trkpt><trkpt lat="39.88372574591221" lon="9.546460194588722"><ele>469.3333333333333</ele><time>2026-03-28T10:08:48Z</time></trkpt><trkpt lat="39.883786274738895" lon="9.546513777959792"><ele>469.0</ele><time>2026-03-28T10:08:49Z</time></trkpt><trkpt lat="39.88384470018138" lon="9.546548756220947"><ele>468.66666666666663</ele><time>2026-03-28T10:08:50Z</time></trkpt><trkpt lat="39.883913382200944" lon="9.546573630977935"><ele>468.3333333333333</ele><time>2026-03-28T10:08:51Z</time></trkpt><trkpt lat="39.88398051041289" lon="9.546627735663044"><ele>468.0</ele><time>2026-03-28T10:08:52Z</time></trkpt><trkpt lat="39.88406075095355" lon="9.54666967297251"><ele>468.0</ele><time>2026-03-28T10:08:53Z</time></trkpt><trkpt lat="39.88414820787803" lon="9.546717388746144"><ele>467.99999999999994</ele><time>2026-03-28T10:08:54Z</time></trkpt><trkpt lat="39.884239050816" lon="9.54677553282473"><ele>467.99999999999994</ele><time>2026-03-28T10:08:55Z</time></trkpt><trkpt lat="39.88432286915144" lon="9.546865331022543"><ele>468.0</ele><time>2026-03-28T10:08:56Z</time></trkpt><trkpt lat="39.8844106003326" lon="9.546958053533015"><ele>468.0</ele><time>2026-03-28T10:08:57Z</time></trkpt><trkpt lat="39.88449436449317" lon="9.547065536753458"><ele>466.4</ele><time>2026-03-28T10:08:58Z</time></trkpt><trkpt lat="39.884552661778514" lon="9.547180697587365"><ele>464.79999999999995</ele><time>2026-03-28T10:08:59Z</time></trkpt><trkpt lat="39.88460821525624" lon="9.547295387134676"><ele>463.2</ele><time>2026-03-28T10:09:00Z</time></trkpt><trkpt lat="39.884661433613914" lon="9.547406511465187"><ele>461.6</ele><time>2026-03-28T10:09:01Z</time></trkpt><trkpt lat="39.88471725225154" lon="9.547516528189384"><ele>460.0</ele><time>2026-03-28T10:09:02Z</time></trkpt><trkpt lat="39.88476459919676" lon="9.547632893176273"><ele>460.0</ele><time>2026-03-28T10:09:03Z</time></trkpt><trkpt lat="39.88480272430318" lon="9.547758737289143"><ele>460.0</ele><time>2026-03-28T10:09:04Z</time></trkpt><trkpt lat="39.88488590849612" lon="9.547873834367302"><ele>460.0</ele><time>2026-03-28T10:09:05Z</time></trkpt><trkpt lat="39.88494903919953" lon="9.547995478254697"><ele>460.0</ele><time>2026-03-28T10:09:06Z</time></trkpt><trkpt lat="39.8850121525876" lon="9.548118026215688"><ele>458.0</ele><time>2026-03-28T10:09:07Z</time></trkpt><trkpt lat="39.88507544849807" lon="9.548240405031004"><ele>456.0</ele><time>2026-03-28T10:09:08Z</time></trkpt><trkpt lat="39.88513546050781" lon="9.548365629157328"><ele>454.0</ele><time>2026-03-28T10:09:09Z</time></trkpt><trkpt lat="39.88519100166749" lon="9.548496553748121"><ele>452.0</ele><time>2026-03-28T10:09:10Z</time></trkpt><trkpt lat="39.88523547343846" lon="9.548635207009308"><ele>447.25</ele><time>2026-03-28T10:09:11Z</time></trkpt><trkpt lat="39.88526218756041" lon="9.548785440020353"><ele>442.5</ele><time>2026-03-28T10:09:12Z</time></trkpt><trkpt lat="39.885277095020136" lon="9.548940458390941"><ele>437.75</ele><time>2026-03-28T10:09:13Z</time></trkpt><trkpt lat="39.88529382458613" lon="9.549096085089126"><ele>433.0</ele><time>2026-03-28T10:09:14Z</time></trkpt><trkpt lat="39.885314834589316" lon="9.549253607410154"><ele>433.0</ele><time>2026-03-28T10:09:15Z</time></trkpt><trkpt lat="39.885339294958406" lon="9.549409891322115"><ele>433.0</ele><time>2026-03-28T10:09:16Z</time></trkpt><trkpt lat="39.88536421594716" lon="9.549565716963588"><ele>433.0</ele><time>2026-03-28T10:09:17Z</time></trkpt><trkpt lat="39.88538825984559" lon="9.549721550660083"><ele>433.0</ele><time>2026-03-28T10:09:18Z</time></trkpt><trkpt lat="39.88541067960782" lon="9.549875908703513"><ele>431.75</ele><time>2026-03-28T10:09:19Z</time></trkpt><trkpt lat="39.88543590601028" lon="9.55003192178219"><ele>430.5</ele><time>2026-03-28T10:09:20Z</time></trkpt><trkpt lat="39.88546271601035" lon="9.550187138101716"><ele>429.25</ele><time>2026-03-28T10:09:21Z</time></trkpt><trkpt lat="39.885497160968114" lon="9.550340683492996"><ele>428.0</ele><time>2026-03-28T10:09:22Z</time></trkpt><trkpt lat="39.88553999397674" lon="9.55049335979519"><ele>427.5</ele><time>2026-03-28T10:09:23Z</time></trkpt><trkpt lat="39.885596108212276" lon="9.550635123012281"><ele>427.0</ele><time>2026-03-28T10:09:24Z</time></trkpt><trkpt lat="39.88565739747158" lon="9.550771449590169"><ele>426.5</ele><time>2026-03-28T10:09:25Z</time></trkpt><trkpt lat="39.885715417577416" lon="9.550895917108122"><ele>426.0</ele><time>2026-03-28T10:09:26Z</time></trkpt><trkpt lat="39.8857822936755" lon="9.551013512424975"><ele>426.0</ele><time>2026-03-28T10:09:27Z</time></trkpt><trkpt lat="39.88585892676496" lon="9.551128142504771"><ele>426.0</ele><time>2026-03-28T10:09:28Z</time></trkpt><trkpt lat="39.88594459244362" lon="9.55123799877374"><ele>426.0</ele><time>2026-03-28T10:09:29Z</time></trkpt><trkpt lat="39.88602897373996" lon="9.551331564974241"><ele>426.0</ele><time>2026-03-28T10:09:30Z</time></trkpt><trkpt lat="39.88612300886397" lon="9.551385351552065"><ele>424.0</ele><time>2026-03-28T10:09:31Z</time></trkpt><trkpt lat="39.886219955579165" lon="9.551393039519892"><ele>422.0</ele><time>2026-03-28T10:09:32Z</time></trkpt><trkpt lat="39.88630950743023" lon="9.55137365541121"><ele>420.0</ele><time>2026-03-28T10:09:33Z</time></trkpt><trkpt lat="39.88637557104837" lon="9.551257784928241"><ele>418.0</ele><time>2026-03-28T10:09:34Z</time></trkpt><trkpt lat="39.88645551532492" lon="9.551157404734463"><ele>416.0</ele><time>2026-03-28T10:09:35Z</time></trkpt><trkpt lat="39.886502350111215" lon="9.551025653998954"><ele>416.0</ele><time>2026-03-28T10:09:36Z</time></trkpt><trkpt lat="39.88657247127001" lon="9.550918377350909"><ele>416.0</ele><time>2026-03-28T10:09:37Z</time></trkpt><trkpt lat="39.88668859207519" lon="9.550834417606499"><ele>416.0</ele><time>2026-03-28T10:09:38Z</time></trkpt><trkpt lat="39.886828978336744" lon="9.550812521916582"><ele>416.0</ele><time>2026-03-28T10:09:39Z</time></trkpt><trkpt lat="39.886966012478005" lon="9.550812597062455"><ele>415.75</ele><time>2026-03-28T10:09:40Z</time></trkpt><trkpt lat="39.88710042355989" lon="9.550780030294835"><ele>415.5</ele><time>2026-03-28T10:09:41Z</time></trkpt><trkpt lat="39.88723377246207" lon="9.550762055017273"><ele>415.25</ele><time>2026-03-28T10:09:42Z</time></trkpt><trkpt lat="39.88736441416364" lon="9.55071477026443"><ele>415.0</ele><time>2026-03-28T10:09:43Z</time></trkpt><trkpt lat="39.88748883499236" lon="9.550640946856888"><ele>415.0</ele><time>2026-03-28T10:09:44Z</time></trkpt><trkpt lat="39.88759051539258" lon="9.55053935714498"><ele>415.0</ele><time>2026-03-28T10:09:45Z</time></trkpt><trkpt lat="39.88767678315608" lon="9.55042602182446"><ele>415.0</ele><time>2026-03-28T10:09:46Z</time></trkpt><trkpt lat="39.88775242076735" lon="9.550300936773706"><ele>415.0</ele><time>2026-03-28T10:09:47Z</time></trkpt><trkpt lat="39.887820151567375" lon="9.550159842256708"><ele>416.5</ele><time>2026-03-28T10:09:48Z</time></trkpt><trkpt lat="39.887878015472765" lon="9.550007193310998"><ele>418.0</ele><time>2026-03-28T10:09:49Z</time></trkpt><trkpt lat="39.887929437261015" lon="9.549853152793034"><ele>419.5</ele><time>2026-03-28T10:09:50Z</time></trkpt><trkpt lat="39.88797055635525" lon="9.549699094809894"><ele>421.0</ele><time>2026-03-28T10:09:51Z</time></trkpt><trkpt lat="39.8880066239435" lon="9.54954550192329"><ele>420.20000000000005</ele><time>2026-03-28T10:09:52Z</time></trkpt><trkpt lat="39.88803332698626" lon="9.549392552709785"><ele>419.40000000000003</ele><time>2026-03-28T10:09:53Z</time></trkpt><trkpt lat="39.88804153238412" lon="9.54925427655109"><ele>418.6</ele><time>2026-03-28T10:09:54Z</time></trkpt><trkpt lat="39.888044289006004" lon="9.549127765391875"><ele>417.8</ele><time>2026-03-28T10:09:55Z</time></trkpt><trkpt lat="39.88805259807458" lon="9.54901363952319"><ele>417.0</ele><time>2026-03-28T10:09:56Z</time></trkpt><trkpt lat="39.88810043256547" lon="9.54891054001525"><ele>417.0</ele><time>2026-03-28T10:09:57Z</time></trkpt><trkpt lat="39.88815005698735" lon="9.548809117993562"><ele>417.0</ele><time>2026-03-28T10:09:58Z</time></trkpt><trkpt lat="39.88818563137339" lon="9.54868285215073"><ele>417.0</ele><time>2026-03-28T10:09:59Z</time></trkpt><trkpt lat="39.88823899571934" lon="9.54857436965274"><ele>417.0</ele><time>2026-03-28T10:10:00Z</time></trkpt><trkpt lat="39.88829051969865" lon="9.548458287280118"><ele>417.0</ele><time>2026-03-28T10:10:01Z</time></trkpt><trkpt lat="39.88834200903565" lon="9.548341406668923"><ele>416.6</ele><time>2026-03-28T10:10:02Z</time></trkpt><trkpt lat="39.88838748254201" lon="9.548224817442827"><ele>416.20000000000005</ele><time>2026-03-28T10:10:03Z</time></trkpt><trkpt lat="39.88841801456169" lon="9.548100005163063"><ele>415.8</ele><time>2026-03-28T10:10:04Z</time></trkpt><trkpt lat="39.88842859203183" lon="9.547966891692862"><ele>415.4</ele><time>2026-03-28T10:10:05Z</time></trkpt><trkpt lat="39.88837605753416" lon="9.547823710762561"><ele>415.0</ele><time>2026-03-28T10:10:06Z</time></trkpt><trkpt lat="39.888327261502546" lon="9.547718606971454"><ele>414.4</ele><time>2026-03-28T10:10:07Z</time></trkpt><trkpt lat="39.88825550616845" lon="9.547615752391623"><ele>413.8</ele><time>2026-03-28T10:10:08Z</time></trkpt><trkpt lat="39.888174987339674" lon="9.547509740465944"><ele>413.20000000000005</ele><time>2026-03-28T10:10:09Z</time></trkpt><trkpt lat="39.888123946987754" lon="9.547395822598613"><ele>412.6</ele><time>2026-03-28T10:10:10Z</time></trkpt><trkpt lat="39.88811811172344" lon="9.547259361639606"><ele>412.0</ele><time>2026-03-28T10:10:11Z</time></trkpt><trkpt lat="39.8881301572962" lon="9.547129164416416"><ele>410.8</ele><time>2026-03-28T10:10:12Z</time></trkpt><trkpt lat="39.888151733414894" lon="9.546994557455086"><ele>409.6</ele><time>2026-03-28T10:10:13Z</time></trkpt><trkpt lat="39.88819208691527" lon="9.546866940855075"><ele>408.40000000000003</ele><time>2026-03-28T10:10:14Z</time></trkpt><trkpt lat="39.888245735989244" lon="9.546755953330775"><ele>407.20000000000005</ele><time>2026-03-28T10:10:15Z</time></trkpt><trkpt lat="39.8883582527134" lon="9.54671603227054"><ele>406.0</ele><time>2026-03-28T10:10:16Z</time></trkpt><trkpt lat="39.88845884200166" lon="9.546683314709352"><ele>405.0</ele><time>2026-03-28T10:10:17Z</time></trkpt><trkpt lat="39.888565322469184" lon="9.54665975697264"><ele>404.0</ele><time>2026-03-28T10:10:18Z</time></trkpt><trkpt lat="39.88866510632739" lon="9.546624609827312"><ele>403.0</ele><time>2026-03-28T10:10:19Z</time></trkpt><trkpt lat="39.88875746445909" lon="9.546582148983994"><ele>402.0</ele><time>2026-03-28T10:10:20Z</time></trkpt><trkpt lat="39.88885173270531" lon="9.546545698795816"><ele>401.0</ele><time>2026-03-28T10:10:21Z</time></trkpt><trkpt lat="39.88894690243038" lon="9.546526255243164"><ele>401.0</ele><time>2026-03-28T10:10:22Z</time></trkpt><trkpt lat="39.88904402759376" lon="9.546530127179569"><ele>401.0</ele><time>2026-03-28T10:10:23Z</time></trkpt><trkpt lat="39.88912467738167" lon="9.546571891478573"><ele>401.0</ele><time>2026-03-28T10:10:24Z</time></trkpt><trkpt lat="39.889189832908535" lon="9.546643436801764"><ele>401.0</ele><time>2026-03-28T10:10:25Z</time></trkpt><trkpt lat="39.889241708346475" lon="9.546740560185539"><ele>401.0</ele><time>2026-03-28T10:10:26Z</time></trkpt><trkpt lat="39.88925935729699" lon="9.5468671225067"><ele>402.6</ele><time>2026-03-28T10:10:27Z</time></trkpt><trkpt lat="39.88929080709114" lon="9.546987995475494"><ele>404.20000000000005</ele><time>2026-03-28T10:10:28Z</time></trkpt><trkpt lat="39.889307420286926" lon="9.54711395636576"><ele>405.79999999999995</ele><time>2026-03-28T10:10:29Z</time></trkpt><trkpt lat="39.88933053778317" lon="9.547236998299159"><ele>407.4</ele><time>2026-03-28T10:10:30Z</time></trkpt><trkpt lat="39.88935500923033" lon="9.547363163808182"><ele>409.0</ele><time>2026-03-28T10:10:31Z</time></trkpt><trkpt lat="39.88937293617323" lon="9.547491463339476"><ele>409.0</ele><time>2026-03-28T10:10:32Z</time></trkpt><trkpt lat="39.889390322636544" lon="9.547627659170669"><ele>409.0</ele><time>2026-03-28T10:10:33Z</time></trkpt><trkpt lat="39.88941362348497" lon="9.547765587860862"><ele>409.0</ele><time>2026-03-28T10:10:34Z</time></trkpt><trkpt lat="39.88943923303253" lon="9.54789943580061"><ele>409.0</ele><time>2026-03-28T10:10:35Z</time></trkpt><trkpt lat="39.88946112809503" lon="9.548028491110008"><ele>409.0</ele><time>2026-03-28T10:10:36Z</time></trkpt><trkpt lat="39.8894792895969" lon="9.548152732276534"><ele>409.50000000000006</ele><time>2026-03-28T10:10:37Z</time></trkpt><trkpt lat="39.88949934977215" lon="9.548273016648267"><ele>410.0</ele><time>2026-03-28T10:10:38Z</time></trkpt><trkpt lat="39.8895205190206" lon="9.548391120051598"><ele>410.5</ele><time>2026-03-28T10:10:39Z</time></trkpt><trkpt lat="39.88953524994677" lon="9.54850546228268"><ele>411.0</ele><time>2026-03-28T10:10:40Z</time></trkpt><trkpt lat="39.88953863038744" lon="9.548615378647845"><ele>411.50000000000006</ele><time>2026-03-28T10:10:41Z</time></trkpt><trkpt lat="39.889535549828075" lon="9.548717754661778"><ele>412.0</ele><time>2026-03-28T10:10:42Z</time></trkpt><trkpt lat="39.88952948471493" lon="9.548815066914484"><ele>410.20000000000005</ele><time>2026-03-28T10:10:43Z</time></trkpt><trkpt lat="39.88951239564797" lon="9.548912333239908"><ele>408.4</ele><time>2026-03-28T10:10:44Z</time></trkpt><trkpt lat="39.88948150892816" lon="9.549020829399659"><ele>406.6</ele><time>2026-03-28T10:10:45Z</time></trkpt><trkpt lat="39.889448726608734" lon="9.54913884398804"><ele>404.79999999999995</ele><time>2026-03-28T10:10:46Z</time></trkpt><trkpt lat="39.889427351065066" lon="9.549266941747865"><ele>403.0</ele><time>2026-03-28T10:10:47Z</time></trkpt><trkpt lat="39.889432135946116" lon="9.549400100246118"><ele>403.0</ele><time>2026-03-28T10:10:48Z</time></trkpt><trkpt lat="39.889467942709096" lon="9.549526446529423"><ele>403.0</ele><time>2026-03-28T10:10:49Z</time></trkpt><trkpt lat="39.889537186673934" lon="9.54963345616668"><ele>403.0</ele><time>2026-03-28T10:10:50Z</time></trkpt><trkpt lat="39.889626843177055" lon="9.549728196052676"><ele>403.0</ele><time>2026-03-28T10:10:51Z</time></trkpt><trkpt lat="39.889726115304406" lon="9.549834395732079"><ele>400.75</ele><time>2026-03-28T10:10:52Z</time></trkpt><trkpt lat="39.88981932821911" lon="9.549944486566016"><ele>398.5</ele><time>2026-03-28T10:10:53Z</time></trkpt><trkpt lat="39.88989287208967" lon="9.550054645858943"><ele>396.25</ele><time>2026-03-28T10:10:54Z</time></trkpt><trkpt lat="39.88997896153688" lon="9.55017199961485"><ele>394.0</ele><time>2026-03-28T10:10:55Z</time></trkpt><trkpt lat="39.89006886194851" lon="9.550283377612557"><ele>390.79999999999995</ele><time>2026-03-28T10:10:56Z</time></trkpt><trkpt lat="39.890154332051786" lon="9.550390445283364"><ele>387.59999999999997</ele><time>2026-03-28T10:10:57Z</time></trkpt><trkpt lat="39.89021238082578" lon="9.550512216732587"><ele>384.4</ele><time>2026-03-28T10:10:58Z</time></trkpt><trkpt lat="39.890228866721486" lon="9.55064830121202"><ele>381.2</ele><time>2026-03-28T10:10:59Z</time></trkpt><trkpt lat="39.89020117022646" lon="9.550788694255619"><ele>378.0</ele><time>2026-03-28T10:11:00Z</time></trkpt><trkpt lat="39.89011104878996" lon="9.550887762927092"><ele>377.75</ele><time>2026-03-28T10:11:01Z</time></trkpt><trkpt lat="39.89004796916604" lon="9.551020421103903"><ele>377.5</ele><time>2026-03-28T10:11:02Z</time></trkpt><trkpt lat="39.88997142763431" lon="9.551145092922877"><ele>377.25</ele><time>2026-03-28T10:11:03Z</time></trkpt><trkpt lat="39.889894971252716" lon="9.551276933681821"><ele>377.0</ele><time>2026-03-28T10:11:04Z</time></trkpt><trkpt lat="39.88981070478513" lon="9.551403600869353"><ele>377.0</ele><time>2026-03-28T10:11:05Z</time></trkpt><trkpt lat="39.889717430519994" lon="9.551517866638633"><ele>377.0</ele><time>2026-03-28T10:11:06Z</time></trkpt><trkpt lat="39.889618844643515" lon="9.551622976280461"><ele>377.0</ele><time>2026-03-28T10:11:07Z</time></trkpt><trkpt lat="39.88953737832176" lon="9.551741719666099"><ele>377.0</ele><time>2026-03-28T10:11:08Z</time></trkpt><trkpt lat="39.889493037052205" lon="9.55190428747156"><ele>374.6666666666667</ele><time>2026-03-28T10:11:09Z</time></trkpt><trkpt lat="39.88948561206614" lon="9.552105997945912"><ele>372.3333333333333</ele><time>2026-03-28T10:11:10Z</time></trkpt><trkpt lat="39.88950397203701" lon="9.552316562769622"><ele>370.0</ele><time>2026-03-28T10:11:11Z</time></trkpt><trkpt lat="39.88949763313519" lon="9.552514129247172"><ele>370.0</ele><time>2026-03-28T10:11:12Z</time></trkpt><trkpt lat="39.88946472583761" lon="9.55271803238741"><ele>370.0</ele><time>2026-03-28T10:11:13Z</time></trkpt><trkpt lat="39.88942974841449" lon="9.552922382650326"><ele>370.0</ele><time>2026-03-28T10:11:14Z</time></trkpt><trkpt lat="39.88942974666914" lon="9.553146924725668"><ele>369.5</ele><time>2026-03-28T10:11:15Z</time></trkpt><trkpt lat="39.88944572474937" lon="9.553354351076672"><ele>369.0</ele><time>2026-03-28T10:11:16Z</time></trkpt><trkpt lat="39.889459174322575" lon="9.553549479334022"><ele>368.5</ele><time>2026-03-28T10:11:17Z</time></trkpt><trkpt lat="39.889439138965784" lon="9.553721649782851"><ele>368.0</ele><time>2026-03-28T10:11:18Z</time></trkpt><trkpt lat="39.88939828732611" lon="9.553878971588924"><ele>367.5</ele><time>2026-03-28T10:11:19Z</time></trkpt><trkpt lat="39.88932329533067" lon="9.55400701840911"><ele>367.0</ele><time>2026-03-28T10:11:20Z</time></trkpt><trkpt lat="39.88919973920514" lon="9.554077690696344"><ele>366.5</ele><time>2026-03-28T10:11:21Z</time></trkpt><trkpt lat="39.88909612796976" lon="9.554178492075295"><ele>366.0</ele><time>2026-03-28T10:11:22Z</time></trkpt><trkpt lat="39.888995275256335" lon="9.554262877275873"><ele>368.0</ele><time>2026-03-28T10:11:23Z</time></trkpt><trkpt lat="39.888909363524846" lon="9.554362814284588"><ele>370.0</ele><time>2026-03-28T10:11:24Z</time></trkpt><trkpt lat="39.88884220529015" lon="9.554476242095728"><ele>372.0</ele><time>2026-03-28T10:11:25Z</time></trkpt><trkpt lat="39.88880387725266" lon="9.554614495135912"><ele>374.0</ele><time>2026-03-28T10:11:26Z</time></trkpt><trkpt lat="39.888805911397846" lon="9.554770784059363"><ele>374.0</ele><time>2026-03-28T10:11:27Z</time></trkpt><trkpt lat="39.88885400688018" lon="9.554918519797036"><ele>374.0</ele><time>2026-03-28T10:11:28Z</time></trkpt><trkpt lat="39.88894516775257" lon="9.5550372665168"><ele>374.0</ele><time>2026-03-28T10:11:29Z</time></trkpt><trkpt lat="39.88906115525648" lon="9.555117341484639"><ele>374.0</ele><time>2026-03-28T10:11:30Z</time></trkpt><trkpt lat="39.889194815330484" lon="9.555144503315207"><ele>373.0</ele><time>2026-03-28T10:11:31Z</time></trkpt><trkpt lat="39.88932714847946" lon="9.555101804501724"><ele>372.0</ele><time>2026-03-28T10:11:32Z</time></trkpt><trkpt lat="39.88945312559083" lon="9.555017495879191"><ele>371.0</ele><time>2026-03-28T10:11:33Z</time></trkpt><trkpt lat="39.88957320503241" lon="9.554943750367183"><ele>370.0</ele><time>2026-03-28T10:11:34Z</time></trkpt><trkpt lat="39.889680698490956" lon="9.554908399331762"><ele>370.0</ele><time>2026-03-28T10:11:35Z</time></trkpt><trkpt lat="39.88977045810208" lon="9.554923400396197"><ele>370.0</ele><time>2026-03-28T10:11:36Z</time></trkpt><trkpt lat="39.88983308739578" lon="9.55499551330493"><ele>370.0</ele><time>2026-03-28T10:11:37Z</time></trkpt><trkpt lat="39.88986573717065" lon="9.555102891911366"><ele>370.0</ele><time>2026-03-28T10:11:38Z</time></trkpt><trkpt lat="39.88988123033274" lon="9.55521559654193"><ele>370.0</ele><time>2026-03-28T10:11:39Z</time></trkpt><trkpt lat="39.889898791083816" lon="9.555328792218534"><ele>370.0</ele><time>2026-03-28T10:11:40Z</time></trkpt><trkpt lat="39.88989963707441" lon="9.555464792732524"><ele>370.25</ele><time>2026-03-28T10:11:42Z</time></trkpt><trkpt lat="39.889842224798585" lon="9.555617281345008"><ele>370.5</ele><time>2026-03-28T10:11:44Z</time></trkpt><trkpt lat="39.889782674079335" lon="9.555788856493994"><ele>370.75</ele><time>2026-03-28T10:11:46Z</time></trkpt><trkpt lat="39.889761455904036" lon="9.555880715548165"><ele>371.0</ele><time>2026-03-28T10:11:47Z</time></trkpt><trkpt lat="39.88972515272038" lon="9.55601623279332"><ele>371.0</ele><time>2026-03-28T10:11:49Z</time></trkpt><trkpt lat="39.88968167119725" lon="9.556138587615028"><ele>371.0</ele><time>2026-03-28T10:11:51Z</time></trkpt><trkpt lat="39.889658214036274" lon="9.556217566202315"><ele>371.0</ele><time>2026-03-28T10:11:52Z</time></trkpt><trkpt lat="39.88962277606701" lon="9.556333698121254"><ele>371.0</ele><time>2026-03-28T10:11:54Z</time></trkpt><trkpt lat="39.88957993647725" lon="9.556474071819844"><ele>371.0</ele><time>2026-03-28T10:11:56Z</time></trkpt><trkpt lat="39.88957268129721" lon="9.556561623767173"><ele>371.0</ele><time>2026-03-28T10:11:57Z</time></trkpt><trkpt lat="39.889584563327546" lon="9.556657052477481"><ele>371.33333333333337</ele><time>2026-03-28T10:11:58Z</time></trkpt><trkpt lat="39.88960464668943" lon="9.556757640930535"><ele>371.6666666666667</ele><time>2026-03-28T10:11:59Z</time></trkpt><trkpt lat="39.889612483407056" lon="9.556862409893608"><ele>372.0</ele><time>2026-03-28T10:12:00Z</time></trkpt><trkpt lat="39.88960547101737" lon="9.556959049013138"><ele>372.3333333333333</ele><time>2026-03-28T10:12:01Z</time></trkpt><trkpt lat="39.88957186400152" lon="9.557051922056985"><ele>372.66666666666663</ele><time>2026-03-28T10:12:02Z</time></trkpt><trkpt lat="39.8894984955921" lon="9.557109566194782"><ele>373.0</ele><time>2026-03-28T10:12:03Z</time></trkpt><trkpt lat="39.88944828163208" lon="9.557196804506106"><ele>374.0</ele><time>2026-03-28T10:12:04Z</time></trkpt><trkpt lat="39.88938593783114" lon="9.55726044814884"><ele>375.0</ele><time>2026-03-28T10:12:05Z</time></trkpt><trkpt lat="39.88932284483356" lon="9.557331568479256"><ele>376.0</ele><time>2026-03-28T10:12:06Z</time></trkpt><trkpt lat="39.88925849511231" lon="9.557413653668375"><ele>377.0</ele><time>2026-03-28T10:12:07Z</time></trkpt><trkpt lat="39.889193424401505" lon="9.557504365038298"><ele>378.0</ele><time>2026-03-28T10:12:08Z</time></trkpt><trkpt lat="39.88911993562893" lon="9.557594388022554"><ele>379.0</ele><time>2026-03-28T10:12:09Z</time></trkpt><trkpt lat="39.889061211309546" lon="9.557680428988485"><ele>380.16666666666663</ele><time>2026-03-28T10:12:10Z</time></trkpt><trkpt lat="39.88900225684838" lon="9.557750206640033"><ele>381.3333333333333</ele><time>2026-03-28T10:12:11Z</time></trkpt><trkpt lat="39.88894471776784" lon="9.557819016930523"><ele>382.5</ele><time>2026-03-28T10:12:12Z</time></trkpt><trkpt lat="39.888885134634414" lon="9.557891818014081"><ele>383.66666666666663</ele><time>2026-03-28T10:12:13Z</time></trkpt><trkpt lat="39.88882717719432" lon="9.557963191862681"><ele>384.8333333333333</ele><time>2026-03-28T10:12:14Z</time></trkpt><trkpt lat="39.88876451078065" lon="9.558041798347015"><ele>386.0</ele><time>2026-03-28T10:12:15Z</time></trkpt><trkpt lat="39.88870038622677" lon="9.558122475905572"><ele>386.4</ele><time>2026-03-28T10:12:16Z</time></trkpt><trkpt lat="39.88862929478648" lon="9.558214998649856"><ele>386.8</ele><time>2026-03-28T10:12:17Z</time></trkpt><trkpt lat="39.88855988647585" lon="9.558318095039725"><ele>387.2</ele><time>2026-03-28T10:12:18Z</time></trkpt><trkpt lat="39.88849642400655" lon="9.558428870547004"><ele>387.59999999999997</ele><time>2026-03-28T10:12:19Z</time></trkpt><trkpt lat="39.88844251161215" lon="9.558547836776787"><ele>388.0</ele><time>2026-03-28T10:12:20Z</time></trkpt><trkpt lat="39.88840074380581" lon="9.558674597083037"><ele>385.6666666666667</ele><time>2026-03-28T10:12:21Z</time></trkpt><trkpt lat="39.88835760467277" lon="9.558798623803554"><ele>383.33333333333337</ele><time>2026-03-28T10:12:22Z</time></trkpt><trkpt lat="39.888302412629876" lon="9.558907328740718"><ele>381.0</ele><time>2026-03-28T10:12:23Z</time></trkpt><trkpt lat="39.88823071954579" lon="9.558990884655676"><ele>378.6666666666667</ele><time>2026-03-28T10:12:24Z</time></trkpt><trkpt lat="39.88816677032016" lon="9.559052809996466"><ele>376.33333333333337</ele><time>2026-03-28T10:12:25Z</time></trkpt><trkpt lat="39.88810154221209" lon="9.559059672680275"><ele>374.0</ele><time>2026-03-28T10:12:26Z</time></trkpt><trkpt lat="39.88803339375405" lon="9.55907970178963"><ele>374.0</ele><time>2026-03-28T10:12:27Z</time></trkpt><trkpt lat="39.88795294497872" lon="9.559101296519472"><ele>374.0</ele><time>2026-03-28T10:12:28Z</time></trkpt><trkpt lat="39.88786477219391" lon="9.559098057101098"><ele>374.0</ele><time>2026-03-28T10:12:29Z</time></trkpt><trkpt lat="39.887768196720465" lon="9.559100988570188"><ele>374.0</ele><time>2026-03-28T10:12:30Z</time></trkpt><trkpt lat="39.88767544062286" lon="9.559117370605124"><ele>374.0</ele><time>2026-03-28T10:12:31Z</time></trkpt><trkpt lat="39.88759141046017" lon="9.55914775979778"><ele>374.0</ele><time>2026-03-28T10:12:32Z</time></trkpt><trkpt lat="39.88751981102086" lon="9.559196269383499"><ele>374.0</ele><time>2026-03-28T10:12:33Z</time></trkpt><trkpt lat="39.88746267977139" lon="9.559252665377716"><ele>374.0</ele><time>2026-03-28T10:12:34Z</time></trkpt><trkpt lat="39.8874219466206" lon="9.55932075950105"><ele>374.0</ele><time>2026-03-28T10:12:35Z</time></trkpt><trkpt lat="39.88739827131741" lon="9.559399315437787"><ele>374.0</ele><time>2026-03-28T10:12:36Z</time></trkpt><trkpt lat="39.88739448100019" lon="9.559568460486489"><ele>374.0</ele><time>2026-03-28T10:12:38Z</time></trkpt><trkpt lat="39.88742021412919" lon="9.55965228398402"><ele>374.0</ele><time>2026-03-28T10:12:39Z</time></trkpt><trkpt lat="39.88745688954771" lon="9.55973393387419"><ele>372.6666666666667</ele><time>2026-03-28T10:12:40Z</time></trkpt><trkpt lat="39.8874984606392" lon="9.559819321858432"><ele>371.33333333333337</ele><time>2026-03-28T10:12:41Z</time></trkpt><trkpt lat="39.88753436596268" lon="9.559915130727804"><ele>370.0</ele><time>2026-03-28T10:12:42Z</time></trkpt><trkpt lat="39.88755317088158" lon="9.560017640794541"><ele>368.6666666666667</ele><time>2026-03-28T10:12:43Z</time></trkpt><trkpt lat="39.887537045926194" lon="9.560129305243361"><ele>367.3333333333333</ele><time>2026-03-28T10:12:44Z</time></trkpt><trkpt lat="39.887494475205145" lon="9.560233680288158"><ele>366.0</ele><time>2026-03-28T10:12:45Z</time></trkpt><trkpt lat="39.887450880685165" lon="9.56033912788629"><ele>363.6</ele><time>2026-03-28T10:12:46Z</time></trkpt><trkpt lat="39.887398331650985" lon="9.560436743343015"><ele>361.20000000000005</ele><time>2026-03-28T10:12:47Z</time></trkpt><trkpt lat="39.88733102506596" lon="9.560518549291652"><ele>358.79999999999995</ele><time>2026-03-28T10:12:48Z</time></trkpt><trkpt lat="39.887249156869764" lon="9.560593059242454"><ele>356.4</ele><time>2026-03-28T10:12:49Z</time></trkpt><trkpt lat="39.88715974259249" lon="9.560651830107881"><ele>354.0</ele><time>2026-03-28T10:12:50Z</time></trkpt><trkpt lat="39.88706881861499" lon="9.560712921400519"><ele>354.0</ele><time>2026-03-28T10:12:51Z</time></trkpt><trkpt lat="39.8869782863548" lon="9.560770008119931"><ele>354.0</ele><time>2026-03-28T10:12:52Z</time></trkpt><trkpt lat="39.88688972627991" lon="9.560827913666456"><ele>354.0</ele><time>2026-03-28T10:12:53Z</time></trkpt><trkpt lat="39.88680423825656" lon="9.560889672301673"><ele>354.0</ele><time>2026-03-28T10:12:54Z</time></trkpt><trkpt lat="39.88673024487993" lon="9.560947480701318"><ele>354.0</ele><time>2026-03-28T10:12:55Z</time></trkpt><trkpt lat="39.886674944407424" lon="9.561007545457965"><ele>353.8333333333333</ele><time>2026-03-28T10:12:56Z</time></trkpt><trkpt lat="39.88663382872204" lon="9.561082195713682"><ele>353.6666666666667</ele><time>2026-03-28T10:12:57Z</time></trkpt><trkpt lat="39.88661746907392" lon="9.561175065429113"><ele>353.5</ele><time>2026-03-28T10:12:58Z</time></trkpt><trkpt lat="39.88662582942538" lon="9.561275780811577"><ele>353.33333333333337</ele><time>2026-03-28T10:12:59Z</time></trkpt><trkpt lat="39.88664147717899" lon="9.561380462337775"><ele>353.1666666666667</ele><time>2026-03-28T10:13:00Z</time></trkpt><trkpt lat="39.886658346272924" lon="9.561484976385117"><ele>353.0</ele><time>2026-03-28T10:13:01Z</time></trkpt><trkpt lat="39.88667898303981" lon="9.561594116275037"><ele>351.1666666666667</ele><time>2026-03-28T10:13:02Z</time></trkpt><trkpt lat="39.88670504727442" lon="9.561708225230241"><ele>349.33333333333337</ele><time>2026-03-28T10:13:03Z</time></trkpt><trkpt lat="39.886733924477284" lon="9.561825290945354"><ele>347.5</ele><time>2026-03-28T10:13:04Z</time></trkpt><trkpt lat="39.88675499154076" lon="9.561940015892285"><ele>345.6666666666667</ele><time>2026-03-28T10:13:05Z</time></trkpt><trkpt lat="39.88675409917843" lon="9.562046514660526"><ele>343.8333333333333</ele><time>2026-03-28T10:13:06Z</time></trkpt><trkpt lat="39.88672631543963" lon="9.562136819186101"><ele>342.0</ele><time>2026-03-28T10:13:07Z</time></trkpt><trkpt lat="39.886683325030944" lon="9.562204554215514"><ele>340.4285714285714</ele><time>2026-03-28T10:13:08Z</time></trkpt><trkpt lat="39.88663048060689" lon="9.562254987193484"><ele>338.85714285714283</ele><time>2026-03-28T10:13:09Z</time></trkpt><trkpt lat="39.88656820031762" lon="9.56227733892807"><ele>337.2857142857143</ele><time>2026-03-28T10:13:10Z</time></trkpt><trkpt lat="39.88649650952938" lon="9.562273953201547"><ele>335.71428571428567</ele><time>2026-03-28T10:13:11Z</time></trkpt><trkpt lat="39.88642715465807" lon="9.562243945394933"><ele>334.1428571428571</ele><time>2026-03-28T10:13:12Z</time></trkpt><trkpt lat="39.88636316379275" lon="9.562185807230584"><ele>332.57142857142856</ele><time>2026-03-28T10:13:13Z</time></trkpt><trkpt lat="39.886277978188744" lon="9.562163118734114"><ele>331.0</ele><time>2026-03-28T10:13:14Z</time></trkpt><trkpt lat="39.886196505557535" lon="9.562128925263915"><ele>331.0</ele><time>2026-03-28T10:13:15Z</time></trkpt><trkpt lat="39.88611734672845" lon="9.562075375061124"><ele>331.0</ele><time>2026-03-28T10:13:16Z</time></trkpt><trkpt lat="39.88602314866588" lon="9.562081919313533"><ele>331.0</ele><time>2026-03-28T10:13:17Z</time></trkpt><trkpt lat="39.88593796559059" lon="9.562090316842044"><ele>331.0</ele><time>2026-03-28T10:13:18Z</time></trkpt><trkpt lat="39.88585050866865" lon="9.562128367019957"><ele>331.0</ele><time>2026-03-28T10:13:19Z</time></trkpt><trkpt lat="39.88576394556637" lon="9.562183581126195"><ele>329.8</ele><time>2026-03-28T10:13:20Z</time></trkpt><trkpt lat="39.88567587350117" lon="9.562245859950465"><ele>328.6</ele><time>2026-03-28T10:13:21Z</time></trkpt><trkpt lat="39.88558758479247" lon="9.56231025832427"><ele>327.4</ele><time>2026-03-28T10:13:22Z</time></trkpt><trkpt lat="39.88549645596191" lon="9.562375955478291"><ele>326.2</ele><time>2026-03-28T10:13:23Z</time></trkpt><trkpt lat="39.8854088184104" lon="9.5624397527742"><ele>325.0</ele><time>2026-03-28T10:13:24Z</time></trkpt><trkpt lat="39.88533471090618" lon="9.562498472702442"><ele>325.0</ele><time>2026-03-28T10:13:25Z</time></trkpt><trkpt lat="39.88528183434859" lon="9.56256962924808"><ele>325.0</ele><time>2026-03-28T10:13:26Z</time></trkpt><trkpt lat="39.88525696799717" lon="9.562657250367009"><ele>325.0</ele><time>2026-03-28T10:13:27Z</time></trkpt><trkpt lat="39.885272784485004" lon="9.562749349509126"><ele>325.0</ele><time>2026-03-28T10:13:28Z</time></trkpt><trkpt lat="39.885321784723025" lon="9.562840667924506"><ele>325.0</ele><time>2026-03-28T10:13:29Z</time></trkpt><trkpt lat="39.88539659869052" lon="9.562928503022587"><ele>325.0</ele><time>2026-03-28T10:13:30Z</time></trkpt><trkpt lat="39.88546491715485" lon="9.563015555687187"><ele>323.4</ele><time>2026-03-28T10:13:31Z</time></trkpt><trkpt lat="39.885487099979294" lon="9.563099299767128"><ele>321.8</ele><time>2026-03-28T10:13:32Z</time></trkpt><trkpt lat="39.88555905866832" lon="9.563195547901897"><ele>320.2</ele><time>2026-03-28T10:13:33Z</time></trkpt><trkpt lat="39.885636357670535" lon="9.563290601095826"><ele>318.6</ele><time>2026-03-28T10:13:34Z</time></trkpt><trkpt lat="39.885712791946" lon="9.563383326984225"><ele>317.0</ele><time>2026-03-28T10:13:35Z</time></trkpt><trkpt lat="39.885785738224556" lon="9.563473833519007"><ele>317.0</ele><time>2026-03-28T10:13:36Z</time></trkpt><trkpt lat="39.885854510373186" lon="9.563563025242273"><ele>317.0</ele><time>2026-03-28T10:13:37Z</time></trkpt><trkpt lat="39.88591395907067" lon="9.56366492764725"><ele>317.0</ele><time>2026-03-28T10:13:38Z</time></trkpt><trkpt lat="39.885963708315145" lon="9.5637798888525"><ele>317.0</ele><time>2026-03-28T10:13:39Z</time></trkpt><trkpt lat="39.88598231663807" lon="9.563906632061707"><ele>317.0</ele><time>2026-03-28T10:13:40Z</time></trkpt><trkpt lat="39.88599635449816" lon="9.56402888357263"><ele>317.2</ele><time>2026-03-28T10:13:41Z</time></trkpt><trkpt lat="39.88599483902744" lon="9.564153575976674"><ele>317.4</ele><time>2026-03-28T10:13:42Z</time></trkpt><trkpt lat="39.88598801914819" lon="9.5642651476389"><ele>317.6</ele><time>2026-03-28T10:13:43Z</time></trkpt><trkpt lat="39.88596324504653" lon="9.564375906321533"><ele>317.8</ele><time>2026-03-28T10:13:44Z</time></trkpt><trkpt lat="39.885910374304615" lon="9.564466363160976"><ele>318.0</ele><time>2026-03-28T10:13:45Z</time></trkpt><trkpt lat="39.88583271380064" lon="9.564536619661677"><ele>316.8</ele><time>2026-03-28T10:13:46Z</time></trkpt><trkpt lat="39.885765489096634" lon="9.56462600008306"><ele>315.6</ele><time>2026-03-28T10:13:47Z</time></trkpt><trkpt lat="39.88571267120828" lon="9.564736220609413"><ele>314.4</ele><time>2026-03-28T10:13:48Z</time></trkpt><trkpt lat="39.885654015900364" lon="9.564843253769341"><ele>313.2</ele><time>2026-03-28T10:13:49Z</time></trkpt><trkpt lat="39.885607599906315" lon="9.564947437340372"><ele>312.0</ele><time>2026-03-28T10:13:50Z</time></trkpt><trkpt lat="39.88558127677236" lon="9.565060491913293"><ele>312.0</ele><time>2026-03-28T10:13:51Z</time></trkpt><trkpt lat="39.88558526227287" lon="9.565186383571609"><ele>312.0</ele><time>2026-03-28T10:13:52Z</time></trkpt><trkpt lat="39.88560607736377" lon="9.565303820694137"><ele>312.0</ele><time>2026-03-28T10:13:53Z</time></trkpt><trkpt lat="39.885629437644795" lon="9.565411349244142"><ele>312.0</ele><time>2026-03-28T10:13:54Z</time></trkpt><trkpt lat="39.88563445947578" lon="9.56551940026931"><ele>312.0</ele><time>2026-03-28T10:13:55Z</time></trkpt><trkpt lat="39.8856336263382" lon="9.565634152486735"><ele>312.0</ele><time>2026-03-28T10:13:56Z</time></trkpt><trkpt lat="39.88563557530273" lon="9.565757255663307"><ele>310.8</ele><time>2026-03-28T10:13:57Z</time></trkpt><trkpt lat="39.88565513057358" lon="9.565881991712212"><ele>309.6</ele><time>2026-03-28T10:13:58Z</time></trkpt><trkpt lat="39.88568435760629" lon="9.56600498066669"><ele>308.40000000000003</ele><time>2026-03-28T10:13:59Z</time></trkpt><trkpt lat="39.88570792830308" lon="9.566122954244678"><ele>307.2</ele><time>2026-03-28T10:14:00Z</time></trkpt><trkpt lat="39.88573175448324" lon="9.566241827921354"><ele>306.0</ele><time>2026-03-28T10:14:01Z</time></trkpt><trkpt lat="39.88576115764186" lon="9.566359852571775"><ele>306.0</ele><time>2026-03-28T10:14:02Z</time></trkpt><trkpt lat="39.885782433702815" lon="9.566474942742676"><ele>306.0</ele><time>2026-03-28T10:14:03Z</time></trkpt><trkpt lat="39.88580010760997" lon="9.566589627596914"><ele>306.0</ele><time>2026-03-28T10:14:04Z</time></trkpt><trkpt lat="39.885817601727226" lon="9.566704603930534"><ele>306.0</ele><time>2026-03-28T10:14:05Z</time></trkpt><trkpt lat="39.8858364594168" lon="9.56681915035062"><ele>306.0</ele><time>2026-03-28T10:14:06Z</time></trkpt><trkpt lat="39.885855195235855" lon="9.566931979757781"><ele>306.0</ele><time>2026-03-28T10:14:07Z</time></trkpt><trkpt lat="39.88587271128075" lon="9.567046335928683"><ele>305.0</ele><time>2026-03-28T10:14:08Z</time></trkpt><trkpt lat="39.885871568317164" lon="9.567160209286499"><ele>304.0</ele><time>2026-03-28T10:14:09Z</time></trkpt><trkpt lat="39.88585227570413" lon="9.567272445520794"><ele>303.0</ele><time>2026-03-28T10:14:10Z</time></trkpt><trkpt lat="39.88582212615005" lon="9.567386586495353"><ele>302.0</ele><time>2026-03-28T10:14:11Z</time></trkpt><trkpt lat="39.88579717761517" lon="9.567503377431535"><ele>301.0</ele><time>2026-03-28T10:14:12Z</time></trkpt><trkpt lat="39.885784168668216" lon="9.567632145890443"><ele>301.0</ele><time>2026-03-28T10:14:13Z</time></trkpt><trkpt lat="39.88577297974361" lon="9.567760175164324"><ele>301.0</ele><time>2026-03-28T10:14:14Z</time></trkpt><trkpt lat="39.88577726393945" lon="9.56789180063727"><ele>301.0</ele><time>2026-03-28T10:14:15Z</time></trkpt><trkpt lat="39.885787755123715" lon="9.568017537479168"><ele>301.0</ele><time>2026-03-28T10:14:16Z</time></trkpt><trkpt lat="39.88580113830808" lon="9.568136922180003"><ele>301.0</ele><time>2026-03-28T10:14:17Z</time></trkpt><trkpt lat="39.88581955131193" lon="9.568249981609863"><ele>299.8</ele><time>2026-03-28T10:14:18Z</time></trkpt><trkpt lat="39.885851953624034" lon="9.56835686129814"><ele>298.6</ele><time>2026-03-28T10:14:19Z</time></trkpt><trkpt lat="39.88589944799782" lon="9.568461782195305"><ele>297.4</ele><time>2026-03-28T10:14:20Z</time></trkpt><trkpt lat="39.88595065969234" lon="9.56856809763083"><ele>296.2</ele><time>2026-03-28T10:14:21Z</time></trkpt><trkpt lat="39.88598621113122" lon="9.568686747327007"><ele>295.0</ele><time>2026-03-28T10:14:22Z</time></trkpt><trkpt lat="39.88600814252884" lon="9.568818505626963"><ele>293.8</ele><time>2026-03-28T10:14:23Z</time></trkpt><trkpt lat="39.88602195321242" lon="9.568954388606443"><ele>292.6</ele><time>2026-03-28T10:14:24Z</time></trkpt><trkpt lat="39.88602821768478" lon="9.569093714510696"><ele>291.4</ele><time>2026-03-28T10:14:25Z</time></trkpt><trkpt lat="39.886012480588406" lon="9.56923007151111"><ele>290.2</ele><time>2026-03-28T10:14:26Z</time></trkpt><trkpt lat="39.885971570952115" lon="9.56935896436239"><ele>289.0</ele><time>2026-03-28T10:14:27Z</time></trkpt><trkpt lat="39.88590203557767" lon="9.569461777999535"><ele>286.8</ele><time>2026-03-28T10:14:28Z</time></trkpt><trkpt lat="39.88581446685583" lon="9.569532720171763"><ele>284.59999999999997</ele><time>2026-03-28T10:14:29Z</time></trkpt><trkpt lat="39.88573279805948" lon="9.569591587366366"><ele>282.4</ele><time>2026-03-28T10:14:30Z</time></trkpt><trkpt lat="39.88566375984615" lon="9.569669267005224"><ele>280.2</ele><time>2026-03-28T10:14:31Z</time></trkpt><trkpt lat="39.885615131627006" lon="9.569778607130136"><ele>278.0</ele><time>2026-03-28T10:14:32Z</time></trkpt><trkpt lat="39.88558833940266" lon="9.56990417358207"><ele>278.0</ele><time>2026-03-28T10:14:33Z</time></trkpt><trkpt lat="39.88557893618489" lon="9.570039676328058"><ele>278.0</ele><time>2026-03-28T10:14:34Z</time></trkpt><trkpt lat="39.88557835436451" lon="9.570170346986025"><ele>278.0</ele><time>2026-03-28T10:14:35Z</time></trkpt><trkpt lat="39.88558088873044" lon="9.570295638657264"><ele>278.0</ele><time>2026-03-28T10:14:36Z</time></trkpt><trkpt lat="39.885570882073495" lon="9.570412656675634"><ele>278.0</ele><time>2026-03-28T10:14:37Z</time></trkpt><trkpt lat="39.8855556129015" lon="9.5705303223606"><ele>278.4</ele><time>2026-03-28T10:14:38Z</time></trkpt><trkpt lat="39.88554854616405" lon="9.570651431346656"><ele>278.8</ele><time>2026-03-28T10:14:39Z</time></trkpt><trkpt lat="39.885562579520744" lon="9.570765372565758"><ele>279.2</ele><time>2026-03-28T10:14:40Z</time></trkpt><trkpt lat="39.88560242022859" lon="9.570864526406874"><ele>279.6</ele><time>2026-03-28T10:14:41Z</time></trkpt><trkpt lat="39.88567838602186" lon="9.57093498307831"><ele>280.0</ele><time>2026-03-28T10:14:42Z</time></trkpt><trkpt lat="39.885776758836734" lon="9.570981477578547"><ele>280.0</ele><time>2026-03-28T10:14:43Z</time></trkpt><trkpt lat="39.88587599820089" lon="9.571037871161336"><ele>280.0</ele><time>2026-03-28T10:14:44Z</time></trkpt><trkpt lat="39.885968281272845" lon="9.571116013747195"><ele>280.0</ele><time>2026-03-28T10:14:45Z</time></trkpt><trkpt lat="39.88605797990394" lon="9.571213315159962"><ele>280.0</ele><time>2026-03-28T10:14:46Z</time></trkpt><trkpt lat="39.886147452899145" lon="9.571319151097264"><ele>279.4</ele><time>2026-03-28T10:14:47Z</time></trkpt><trkpt lat="39.88624253423045" lon="9.571418305320293"><ele>278.8</ele><time>2026-03-28T10:14:48Z</time></trkpt><trkpt lat="39.88633664013997" lon="9.571510325312879"><ele>278.2</ele><time>2026-03-28T10:14:49Z</time></trkpt><trkpt lat="39.886424137576704" lon="9.571592294227234"><ele>277.6</ele><time>2026-03-28T10:14:50Z</time></trkpt><trkpt lat="39.88650573790796" lon="9.571663326502131"><ele>277.0</ele><time>2026-03-28T10:14:51Z</time></trkpt><trkpt lat="39.886572021574075" lon="9.571736493927585"><ele>277.0</ele><time>2026-03-28T10:14:52Z</time></trkpt><trkpt lat="39.886606892369265" lon="9.571825340964638"><ele>277.0</ele><time>2026-03-28T10:14:53Z</time></trkpt><trkpt lat="39.88660242682566" lon="9.57193381370774"><ele>277.0</ele><time>2026-03-28T10:14:54Z</time></trkpt><trkpt lat="39.88656963933279" lon="9.572038074202634"><ele>277.0</ele><time>2026-03-28T10:14:55Z</time></trkpt><trkpt lat="39.88653196327109" lon="9.572141339684489"><ele>277.0</ele><time>2026-03-28T10:14:56Z</time></trkpt><trkpt lat="39.88649449337656" lon="9.572246354815974"><ele>277.0</ele><time>2026-03-28T10:14:57Z</time></trkpt><trkpt lat="39.88645504192951" lon="9.57235776969636"><ele>276.6</ele><time>2026-03-28T10:14:58Z</time></trkpt><trkpt lat="39.88640818640093" lon="9.57246937917863"><ele>276.2</ele><time>2026-03-28T10:14:59Z</time></trkpt><trkpt lat="39.88636190379624" lon="9.572576638685618"><ele>275.8</ele><time>2026-03-28T10:15:00Z</time></trkpt><trkpt lat="39.8863118046553" lon="9.572668817868033"><ele>275.4</ele><time>2026-03-28T10:15:01Z</time></trkpt><trkpt lat="39.88623706629151" lon="9.572716771833171"><ele>275.0</ele><time>2026-03-28T10:15:02Z</time></trkpt><trkpt lat="39.88615105126045" lon="9.572754451314912"><ele>275.0</ele><time>2026-03-28T10:15:03Z</time></trkpt><trkpt lat="39.88605866378401" lon="9.57277817723841"><ele>275.0</ele><time>2026-03-28T10:15:04Z</time></trkpt><trkpt lat="39.88596652936417" lon="9.57282311079668"><ele>275.0</ele><time>2026-03-28T10:15:05Z</time></trkpt><trkpt lat="39.88586570005292" lon="9.572851644743213"><ele>275.0</ele><time>2026-03-28T10:15:06Z</time></trkpt><trkpt lat="39.885749259719205" lon="9.572864935113586"><ele>275.0</ele><time>2026-03-28T10:15:07Z</time></trkpt><trkpt lat="39.885658104584294" lon="9.57291166405588"><ele>271.8571428571429</ele><time>2026-03-28T10:15:08Z</time></trkpt><trkpt lat="39.885572678086575" lon="9.572940717104217"><ele>268.7142857142857</ele><time>2026-03-28T10:15:09Z</time></trkpt><trkpt lat="39.88550302383183" lon="9.57297523122596"><ele>265.57142857142856</ele><time>2026-03-28T10:15:10Z</time></trkpt><trkpt lat="39.88544416457931" lon="9.57300639125717"><ele>262.42857142857144</ele><time>2026-03-28T10:15:11Z</time></trkpt><trkpt lat="39.88539273268295" lon="9.573054398115474"><ele>259.2857142857143</ele><time>2026-03-28T10:15:12Z</time></trkpt><trkpt lat="39.885352915848486" lon="9.573122129303448"><ele>256.14285714285717</ele><time>2026-03-28T10:15:13Z</time></trkpt><trkpt lat="39.88534364257294" lon="9.57321321919081"><ele>253.00000000000003</ele><time>2026-03-28T10:15:14Z</time></trkpt><trkpt lat="39.88534791011903" lon="9.573306536160302"><ele>252.99999999999997</ele><time>2026-03-28T10:15:15Z</time></trkpt><trkpt lat="39.88534750888974" lon="9.573408895805546"><ele>253.0</ele><time>2026-03-28T10:15:16Z</time></trkpt><trkpt lat="39.88534143085626" lon="9.573517369761278"><ele>253.0</ele><time>2026-03-28T10:15:17Z</time></trkpt><trkpt lat="39.88533757416965" lon="9.573631151598693"><ele>253.0</ele><time>2026-03-28T10:15:18Z</time></trkpt><trkpt lat="39.88533639700479" lon="9.573751434582952"><ele>252.99999999999997</ele><time>2026-03-28T10:15:19Z</time></trkpt><trkpt lat="39.88535258164694" lon="9.573872438989227"><ele>253.0</ele><time>2026-03-28T10:15:20Z</time></trkpt><trkpt lat="39.88539541959769" lon="9.573978781738692"><ele>251.60000000000002</ele><time>2026-03-28T10:15:21Z</time></trkpt><trkpt lat="39.885467155747946" lon="9.574046949263655"><ele>250.20000000000002</ele><time>2026-03-28T10:15:22Z</time></trkpt><trkpt lat="39.885554952821884" lon="9.574093677920402"><ele>248.8</ele><time>2026-03-28T10:15:23Z</time></trkpt><trkpt lat="39.88564897071446" lon="9.574131532808105"><ele>247.4</ele><time>2026-03-28T10:15:24Z</time></trkpt><trkpt lat="39.88574746925756" lon="9.574174012488948"><ele>246.0</ele><time>2026-03-28T10:15:25Z</time></trkpt><trkpt lat="39.885830474792805" lon="9.574224752605797"><ele>246.0</ele><time>2026-03-28T10:15:26Z</time></trkpt><trkpt lat="39.885887235785866" lon="9.574303782469938"><ele>246.0</ele><time>2026-03-28T10:15:27Z</time></trkpt><trkpt lat="39.885914427640934" lon="9.574402165853526"><ele>246.0</ele><time>2026-03-28T10:15:28Z</time></trkpt><trkpt lat="39.88591506916874" lon="9.57450986733716"><ele>246.0</ele><time>2026-03-28T10:15:29Z</time></trkpt><trkpt lat="39.88591158259548" lon="9.57461821605822"><ele>246.0</ele><time>2026-03-28T10:15:30Z</time></trkpt><trkpt lat="39.8859169266278" lon="9.574731716641486"><ele>246.0</ele><time>2026-03-28T10:15:31Z</time></trkpt><trkpt lat="39.88592795339854" lon="9.57485450002944"><ele>244.4</ele><time>2026-03-28T10:15:32Z</time></trkpt><trkpt lat="39.88595114154786" lon="9.574977643587479"><ele>242.8</ele><time>2026-03-28T10:15:33Z</time></trkpt><trkpt lat="39.88599065660472" lon="9.575094373380244"><ele>241.20000000000002</ele><time>2026-03-28T10:15:34Z</time></trkpt><trkpt lat="39.886045220092065" lon="9.575195091113999"><ele>239.60000000000002</ele><time>2026-03-28T10:15:35Z</time></trkpt><trkpt lat="39.8861075054401" lon="9.575288278982347"><ele>238.0</ele><time>2026-03-28T10:15:36Z</time></trkpt><trkpt lat="39.88617181857201" lon="9.575379231446554"><ele>238.0</ele><time>2026-03-28T10:15:37Z</time></trkpt><trkpt lat="39.88623930245368" lon="9.575471649439537"><ele>238.0</ele><time>2026-03-28T10:15:38Z</time></trkpt><trkpt lat="39.8863103901915" lon="9.575563977184073"><ele>238.0</ele><time>2026-03-28T10:15:39Z</time></trkpt><trkpt lat="39.886380596221514" lon="9.575659811267702"><ele>238.0</ele><time>2026-03-28T10:15:40Z</time></trkpt><trkpt lat="39.886451444154076" lon="9.575746999565892"><ele>238.0</ele><time>2026-03-28T10:15:41Z</time></trkpt><trkpt lat="39.88650935229466" lon="9.575836054871044"><ele>237.99999999999997</ele><time>2026-03-28T10:15:42Z</time></trkpt><trkpt lat="39.88656024184797" lon="9.575921187200422"><ele>238.0</ele><time>2026-03-28T10:15:43Z</time></trkpt><trkpt lat="39.88660938183033" lon="9.576002078437929"><ele>238.0</ele><time>2026-03-28T10:15:44Z</time></trkpt><trkpt lat="39.886645218687825" lon="9.576093715789966"><ele>238.0</ele><time>2026-03-28T10:15:45Z</time></trkpt><trkpt lat="39.88665134375456" lon="9.576197259264788"><ele>237.99999999999997</ele><time>2026-03-28T10:15:46Z</time></trkpt><trkpt lat="39.88663923567369" lon="9.57630842840852"><ele>238.0</ele><time>2026-03-28T10:15:47Z</time></trkpt><trkpt lat="39.88662053699054" lon="9.576424436406022"><ele>237.60000000000002</ele><time>2026-03-28T10:15:48Z</time></trkpt><trkpt lat="39.88660428309999" lon="9.576549590799344"><ele>237.20000000000002</ele><time>2026-03-28T10:15:49Z</time></trkpt><trkpt lat="39.88659043918025" lon="9.576685540455522"><ele>236.8</ele><time>2026-03-28T10:15:50Z</time></trkpt><trkpt lat="39.88657856559683" lon="9.576828481915772"><ele>236.4</ele><time>2026-03-28T10:15:51Z</time></trkpt><trkpt lat="39.88656027407087" lon="9.576973122716655"><ele>236.0</ele><time>2026-03-28T10:15:52Z</time></trkpt><trkpt lat="39.886546631075504" lon="9.577114969394767"><ele>234.60000000000002</ele><time>2026-03-28T10:15:53Z</time></trkpt><trkpt lat="39.886531732641025" lon="9.57725347472949"><ele>233.20000000000002</ele><time>2026-03-28T10:15:54Z</time></trkpt><trkpt lat="39.88651791937259" lon="9.57738964857694"><ele>231.79999999999998</ele><time>2026-03-28T10:15:55Z</time></trkpt><trkpt lat="39.88650242429677" lon="9.577523516631434"><ele>230.39999999999998</ele><time>2026-03-28T10:15:56Z</time></trkpt><trkpt lat="39.88648282059565" lon="9.577651892032376"><ele>229.0</ele><time>2026-03-28T10:15:57Z</time></trkpt><trkpt lat="39.88646663581815" lon="9.577779971009761"><ele>228.6</ele><time>2026-03-28T10:15:58Z</time></trkpt><trkpt lat="39.886462755482974" lon="9.577906576081478"><ele>228.2</ele><time>2026-03-28T10:15:59Z</time></trkpt><trkpt lat="39.88648831236609" lon="9.57802765136352"><ele>227.79999999999998</ele><time>2026-03-28T10:16:00Z</time></trkpt><trkpt lat="39.88653673576573" lon="9.578140114562066"><ele>227.39999999999998</ele><time>2026-03-28T10:16:01Z</time></trkpt><trkpt lat="39.88658750276656" lon="9.578254545412271"><ele>227.0</ele><time>2026-03-28T10:16:02Z</time></trkpt><trkpt lat="39.88662982398178" lon="9.578372903320929"><ele>227.0</ele><time>2026-03-28T10:16:03Z</time></trkpt><trkpt lat="39.88666098983893" lon="9.578494169011794"><ele>227.0</ele><time>2026-03-28T10:16:04Z</time></trkpt><trkpt lat="39.886684276765166" lon="9.578618412559624"><ele>227.0</ele><time>2026-03-28T10:16:05Z</time></trkpt><trkpt lat="39.886701825427586" lon="9.578744013781261"><ele>227.0</ele><time>2026-03-28T10:16:06Z</time></trkpt><trkpt lat="39.88671611945722" lon="9.578872538510193"><ele>227.0</ele><time>2026-03-28T10:16:07Z</time></trkpt><trkpt lat="39.88673069927359" lon="9.579003793219142"><ele>228.39999999999998</ele><time>2026-03-28T10:16:08Z</time></trkpt><trkpt lat="39.88674606545312" lon="9.57913613182911"><ele>229.79999999999998</ele><time>2026-03-28T10:16:09Z</time></trkpt><trkpt lat="39.88676158207024" lon="9.579269974253297"><ele>231.2</ele><time>2026-03-28T10:16:10Z</time></trkpt><trkpt lat="39.88677573003934" lon="9.579402350754997"><ele>232.6</ele><time>2026-03-28T10:16:11Z</time></trkpt><trkpt lat="39.886787453146944" lon="9.579529314926534"><ele>234.0</ele><time>2026-03-28T10:16:12Z</time></trkpt><trkpt lat="39.886801605193874" lon="9.579649461600354"><ele>235.2</ele><time>2026-03-28T10:16:13Z</time></trkpt><trkpt lat="39.88681707574163" lon="9.579764164415229"><ele>236.39999999999998</ele><time>2026-03-28T10:16:14Z</time></trkpt><trkpt lat="39.88681821788896" lon="9.579879878632731"><ele>237.6</ele><time>2026-03-28T10:16:15Z</time></trkpt><trkpt lat="39.886799365932085" lon="9.579998719819296"><ele>238.8</ele><time>2026-03-28T10:16:16Z</time></trkpt><trkpt lat="39.88676155056037" lon="9.580113075272747"><ele>240.0</ele><time>2026-03-28T10:16:17Z</time></trkpt><trkpt lat="39.886723571559685" lon="9.580231390489109"><ele>241.0</ele><time>2026-03-28T10:16:18Z</time></trkpt><trkpt lat="39.88668492326795" lon="9.58035081723446"><ele>242.0</ele><time>2026-03-28T10:16:19Z</time></trkpt><trkpt lat="39.886654775796224" lon="9.580473826669973"><ele>243.0</ele><time>2026-03-28T10:16:20Z</time></trkpt><trkpt lat="39.886631462677926" lon="9.58060136775915"><ele>244.0</ele><time>2026-03-28T10:16:21Z</time></trkpt><trkpt lat="39.886622361549755" lon="9.580733656097022"><ele>245.0</ele><time>2026-03-28T10:16:22Z</time></trkpt><trkpt lat="39.88663237852631" lon="9.580866569816628"><ele>245.0</ele><time>2026-03-28T10:16:23Z</time></trkpt><trkpt lat="39.886644161734814" lon="9.580993276125252"><ele>245.0</ele><time>2026-03-28T10:16:24Z</time></trkpt><trkpt lat="39.88665916506022" lon="9.581119463472108"><ele>245.0</ele><time>2026-03-28T10:16:25Z</time></trkpt><trkpt lat="39.88667279070028" lon="9.581238174982559"><ele>245.0</ele><time>2026-03-28T10:16:26Z</time></trkpt><trkpt lat="39.886686396917995" lon="9.581351357997864"><ele>245.0</ele><time>2026-03-28T10:16:27Z</time></trkpt><trkpt lat="39.88669872650625" lon="9.581449661898136"><ele>245.50000000000003</ele><time>2026-03-28T10:16:28Z</time></trkpt><trkpt lat="39.88670852461306" lon="9.58154506316519"><ele>246.0</ele><time>2026-03-28T10:16:29Z</time></trkpt><trkpt lat="39.8867153006193" lon="9.581646684932252"><ele>246.5</ele><time>2026-03-28T10:16:30Z</time></trkpt><trkpt lat="39.88671437585017" lon="9.581751166896412"><ele>247.0</ele><time>2026-03-28T10:16:31Z</time></trkpt><trkpt lat="39.88670163942691" lon="9.581860380188434"><ele>247.50000000000003</ele><time>2026-03-28T10:16:32Z</time></trkpt><trkpt lat="39.886680028688545" lon="9.581975259946725"><ele>248.0</ele><time>2026-03-28T10:16:33Z</time></trkpt><trkpt lat="39.8866469472612" lon="9.582086805471059"><ele>246.4</ele><time>2026-03-28T10:16:34Z</time></trkpt><trkpt lat="39.88660762491199" lon="9.582196402855908"><ele>244.8</ele><time>2026-03-28T10:16:35Z</time></trkpt><trkpt lat="39.88657115127625" lon="9.582309149041496"><ele>243.2</ele><time>2026-03-28T10:16:36Z</time></trkpt><trkpt lat="39.8865389421069" lon="9.582423243272858"><ele>241.6</ele><time>2026-03-28T10:16:37Z</time></trkpt><trkpt lat="39.8865029019796" lon="9.582538002858167"><ele>240.0</ele><time>2026-03-28T10:16:38Z</time></trkpt><trkpt lat="39.88646027869429" lon="9.582651535601366"><ele>240.0</ele><time>2026-03-28T10:16:39Z</time></trkpt><trkpt lat="39.88640909716592" lon="9.582758728687399"><ele>240.0</ele><time>2026-03-28T10:16:40Z</time></trkpt><trkpt lat="39.88635088390983" lon="9.582857811793389"><ele>240.0</ele><time>2026-03-28T10:16:41Z</time></trkpt><trkpt lat="39.886292385182486" lon="9.58295559009251"><ele>240.0</ele><time>2026-03-28T10:16:42Z</time></trkpt><trkpt lat="39.88623366998011" lon="9.583055191975424"><ele>240.0</ele><time>2026-03-28T10:16:43Z</time></trkpt><trkpt lat="39.88617310860824" lon="9.583154567405911"><ele>241.0</ele><time>2026-03-28T10:16:44Z</time></trkpt><trkpt lat="39.886110398411695" lon="9.583250459632888"><ele>242.0</ele><time>2026-03-28T10:16:45Z</time></trkpt><trkpt lat="39.8860433334725" lon="9.583345661887813"><ele>243.0</ele><time>2026-03-28T10:16:46Z</time></trkpt><trkpt lat="39.88596981522684" lon="9.583435581888903"><ele>244.0</ele><time>2026-03-28T10:16:47Z</time></trkpt><trkpt lat="39.88588847866988" lon="9.583520797544278"><ele>245.0</ele><time>2026-03-28T10:16:48Z</time></trkpt><trkpt lat="39.885803914256726" lon="9.58360112039446"><ele>245.0</ele><time>2026-03-28T10:16:49Z</time></trkpt><trkpt lat="39.88571226761803" lon="9.583677999334789"><ele>245.0</ele><time>2026-03-28T10:16:50Z</time></trkpt><trkpt lat="39.88561826185782" lon="9.583749341339935"><ele>245.0</ele><time>2026-03-28T10:16:51Z</time></trkpt><trkpt lat="39.8855243379952" lon="9.583817128014994"><ele>245.0</ele><time>2026-03-28T10:16:52Z</time></trkpt><trkpt lat="39.88543361809429" lon="9.58388767151153"><ele>245.0</ele><time>2026-03-28T10:16:53Z</time></trkpt><trkpt lat="39.88534609662244" lon="9.583956670947165"><ele>242.6</ele><time>2026-03-28T10:16:54Z</time></trkpt><trkpt lat="39.8852551468795" lon="9.584018962305949"><ele>240.2</ele><time>2026-03-28T10:16:55Z</time></trkpt><trkpt lat="39.88515958756616" lon="9.58407714036665"><ele>237.8</ele><time>2026-03-28T10:16:56Z</time></trkpt><trkpt lat="39.88505960979423" lon="9.58413366256943"><ele>235.4</ele><time>2026-03-28T10:16:57Z</time></trkpt><trkpt lat="39.88495969856248" lon="9.58419356240545"><ele>233.0</ele><time>2026-03-28T10:16:58Z</time></trkpt><trkpt lat="39.88485968240824" lon="9.58426093395945"><ele>233.0</ele><time>2026-03-28T10:16:59Z</time></trkpt><trkpt lat="39.884757587407705" lon="9.58432616985205"><ele>233.0</ele><time>2026-03-28T10:17:00Z</time></trkpt><trkpt lat="39.88464984539824" lon="9.584382225248648"><ele>233.0</ele><time>2026-03-28T10:17:01Z</time></trkpt><trkpt lat="39.88453476104041" lon="9.584432187633434"><ele>233.0</ele><time>2026-03-28T10:17:02Z</time></trkpt><trkpt lat="39.88441254282738" lon="9.584482126487863"><ele>230.75</ele><time>2026-03-28T10:17:03Z</time></trkpt><trkpt lat="39.8842801911404" lon="9.584527520267914"><ele>228.5</ele><time>2026-03-28T10:17:04Z</time></trkpt><trkpt lat="39.88415528597265" lon="9.584570392170923"><ele>226.25</ele><time>2026-03-28T10:17:05Z</time></trkpt><trkpt lat="39.884037484912895" lon="9.584613241954653"><ele>224.0</ele><time>2026-03-28T10:17:06Z</time></trkpt><trkpt lat="39.8839318915629" lon="9.58465888038813"><ele>224.0</ele><time>2026-03-28T10:17:07Z</time></trkpt><trkpt lat="39.88383070219005" lon="9.584712744594771"><ele>223.99999999999997</ele><time>2026-03-28T10:17:08Z</time></trkpt><trkpt lat="39.88373025617146" lon="9.584777853677508"><ele>223.99999999999997</ele><time>2026-03-28T10:17:09Z</time></trkpt><trkpt lat="39.883635817151024" lon="9.584854222185935"><ele>224.0</ele><time>2026-03-28T10:17:10Z</time></trkpt><trkpt lat="39.8835507007996" lon="9.584949857429567"><ele>224.0</ele><time>2026-03-28T10:17:11Z</time></trkpt><trkpt lat="39.88347887639026" lon="9.585064562270178"><ele>225.75</ele><time>2026-03-28T10:17:12Z</time></trkpt><trkpt lat="39.88341812942013" lon="9.585191400465451"><ele>227.5</ele><time>2026-03-28T10:17:13Z</time></trkpt><trkpt lat="39.88338135600362" lon="9.585329660859637"><ele>229.25</ele><time>2026-03-28T10:17:14Z</time></trkpt><trkpt lat="39.88337059717048" lon="9.58548479107443"><ele>231.0</ele><time>2026-03-28T10:17:15Z</time></trkpt><trkpt lat="39.88337573662903" lon="9.585636932550804"><ele>231.0</ele><time>2026-03-28T10:17:16Z</time></trkpt><trkpt lat="39.88339109230579" lon="9.585783860817818"><ele>231.00000000000003</ele><time>2026-03-28T10:17:17Z</time></trkpt><trkpt lat="39.88341097426049" lon="9.585927505919333"><ele>231.00000000000003</ele><time>2026-03-28T10:17:18Z</time></trkpt><trkpt lat="39.883432359730776" lon="9.586066921068431"><ele>231.0</ele><time>2026-03-28T10:17:19Z</time></trkpt><trkpt lat="39.883454675892644" lon="9.586202997771949"><ele>231.0</ele><time>2026-03-28T10:17:20Z</time></trkpt><trkpt lat="39.88348402879002" lon="9.586338025280067"><ele>228.0</ele><time>2026-03-28T10:17:21Z</time></trkpt><trkpt lat="39.883526495122936" lon="9.58646879669219"><ele>225.0</ele><time>2026-03-28T10:17:22Z</time></trkpt><trkpt lat="39.88358585942249" lon="9.586596741539754"><ele>222.0</ele><time>2026-03-28T10:17:23Z</time></trkpt><trkpt lat="39.88367002642147" lon="9.58670877965903"><ele>219.0</ele><time>2026-03-28T10:17:24Z</time></trkpt><trkpt lat="39.883767768527576" lon="9.586813539017347"><ele>219.0</ele><time>2026-03-28T10:17:25Z</time></trkpt><trkpt lat="39.88386711183082" lon="9.586921532379607"><ele>219.0</ele><time>2026-03-28T10:17:26Z</time></trkpt><trkpt lat="39.883969330200976" lon="9.587033094028977"><ele>219.0</ele><time>2026-03-28T10:17:27Z</time></trkpt><trkpt lat="39.8840719486737" lon="9.58714465221622"><ele>219.0</ele><time>2026-03-28T10:17:28Z</time></trkpt><trkpt lat="39.8841715543643" lon="9.587255385835698"><ele>218.25</ele><time>2026-03-28T10:17:29Z</time></trkpt><trkpt lat="39.88426975403497" lon="9.587367353884526"><ele>217.5</ele><time>2026-03-28T10:17:30Z</time></trkpt><trkpt lat="39.88436810958049" lon="9.587481108195956"><ele>216.75</ele><time>2026-03-28T10:17:31Z</time></trkpt><trkpt lat="39.884468796195854" lon="9.587596180460228"><ele>216.0</ele><time>2026-03-28T10:17:32Z</time></trkpt><trkpt lat="39.88456972850048" lon="9.587707887504541"><ele>216.0</ele><time>2026-03-28T10:17:33Z</time></trkpt><trkpt lat="39.88467575447226" lon="9.587815319838878"><ele>216.0</ele><time>2026-03-28T10:17:34Z</time></trkpt><trkpt lat="39.88478791347555" lon="9.587912379362429"><ele>216.0</ele><time>2026-03-28T10:17:35Z</time></trkpt><trkpt lat="39.88490515073344" lon="9.587994441542925"><ele>216.0</ele><time>2026-03-28T10:17:36Z</time></trkpt><trkpt lat="39.88502399669478" lon="9.588070278742373"><ele>219.5</ele><time>2026-03-28T10:17:37Z</time></trkpt><trkpt lat="39.88513795741452" lon="9.588141714854936"><ele>223.0</ele><time>2026-03-28T10:17:38Z</time></trkpt><trkpt lat="39.88525351158629" lon="9.588213011645234"><ele>226.5</ele><time>2026-03-28T10:17:39Z</time></trkpt><trkpt lat="39.885372701938074" lon="9.588284721820884"><ele>230.0</ele><time>2026-03-28T10:17:40Z</time></trkpt><trkpt lat="39.885491413033606" lon="9.588352912215914"><ele>230.0</ele><time>2026-03-28T10:17:41Z</time></trkpt><trkpt lat="39.88561085905182" lon="9.588420165817839"><ele>230.0</ele><time>2026-03-28T10:17:42Z</time></trkpt><trkpt lat="39.88573235476938" lon="9.588482557196253"><ele>230.0</ele><time>2026-03-28T10:17:43Z</time></trkpt><trkpt lat="39.88585160408285" lon="9.588526879830228"><ele>230.0</ele><time>2026-03-28T10:17:44Z</time></trkpt><trkpt lat="39.88596252535178" lon="9.588540393622347"><ele>229.2</ele><time>2026-03-28T10:17:45Z</time></trkpt><trkpt lat="39.88605681596928" lon="9.588562874037027"><ele>228.4</ele><time>2026-03-28T10:17:46Z</time></trkpt><trkpt lat="39.88614237255313" lon="9.58862107231124"><ele>227.60000000000002</ele><time>2026-03-28T10:17:47Z</time></trkpt><trkpt lat="39.88620732916061" lon="9.588703586158253"><ele>226.8</ele><time>2026-03-28T10:17:48Z</time></trkpt><trkpt lat="39.886253500215965" lon="9.58881010486001"><ele>226.0</ele><time>2026-03-28T10:17:49Z</time></trkpt><trkpt lat="39.886273287867596" lon="9.588939876344694"><ele>229.8</ele><time>2026-03-28T10:17:50Z</time></trkpt><trkpt lat="39.88626919438598" lon="9.589073229071776"><ele>233.60000000000002</ele><time>2026-03-28T10:17:51Z</time></trkpt><trkpt lat="39.88623901130819" lon="9.589204794683175"><ele>237.4</ele><time>2026-03-28T10:17:52Z</time></trkpt><trkpt lat="39.88620374481976" lon="9.589323033486897"><ele>241.2</ele><time>2026-03-28T10:17:53Z</time></trkpt><trkpt lat="39.88618853852283" lon="9.589424434119215"><ele>245.0</ele><time>2026-03-28T10:17:54Z</time></trkpt><trkpt lat="39.88619660156803" lon="9.589518764788"><ele>245.33333333333334</ele><time>2026-03-28T10:17:55Z</time></trkpt><trkpt lat="39.88622498420876" lon="9.589607722218224"><ele>245.66666666666669</ele><time>2026-03-28T10:17:56Z</time></trkpt><trkpt lat="39.88625865747326" lon="9.589694599601042"><ele>246.0</ele><time>2026-03-28T10:17:57Z</time></trkpt><trkpt lat="39.8862830355558" lon="9.589792467470263"><ele>246.33333333333331</ele><time>2026-03-28T10:17:58Z</time></trkpt><trkpt lat="39.88630090102168" lon="9.589902114828702"><ele>246.66666666666666</ele><time>2026-03-28T10:17:59Z</time></trkpt><trkpt lat="39.88631492431988" lon="9.590023455180859"><ele>247.0</ele><time>2026-03-28T10:18:00Z</time></trkpt><trkpt lat="39.886317320856975" lon="9.590154986061469"><ele>247.0</ele><time>2026-03-28T10:18:01Z</time></trkpt><trkpt lat="39.886307338243775" lon="9.590285917254175"><ele>247.0</ele><time>2026-03-28T10:18:02Z</time></trkpt><trkpt lat="39.8862893694782" lon="9.590414608214402"><ele>247.0</ele><time>2026-03-28T10:18:03Z</time></trkpt><trkpt lat="39.886266535852585" lon="9.590544201576678"><ele>247.0</ele><time>2026-03-28T10:18:04Z</time></trkpt><trkpt lat="39.886243493390715" lon="9.590674873490943"><ele>247.0</ele><time>2026-03-28T10:18:05Z</time></trkpt><trkpt lat="39.88623002508188" lon="9.590809313998017"><ele>245.2</ele><time>2026-03-28T10:18:06Z</time></trkpt><trkpt lat="39.88623277482651" lon="9.590948674820426"><ele>243.39999999999998</ele><time>2026-03-28T10:18:07Z</time></trkpt><trkpt lat="39.88625113621468" lon="9.5910856414824"><ele>241.60000000000002</ele><time>2026-03-28T10:18:08Z</time></trkpt><trkpt lat="39.886275174456465" lon="9.591218873436357"><ele>239.8</ele><time>2026-03-28T10:18:09Z</time></trkpt><trkpt lat="39.88629131683294" lon="9.59135169594452"><ele>238.0</ele><time>2026-03-28T10:18:10Z</time></trkpt><trkpt lat="39.88628434763736" lon="9.591480105736943"><ele>236.2</ele><time>2026-03-28T10:18:11Z</time></trkpt><trkpt lat="39.88624681655204" lon="9.591598784350166"><ele>234.4</ele><time>2026-03-28T10:18:12Z</time></trkpt><trkpt lat="39.886173285350274" lon="9.591681503801937"><ele>232.59999999999997</ele><time>2026-03-28T10:18:13Z</time></trkpt><trkpt lat="39.88609077442628" lon="9.591735589095176"><ele>230.79999999999998</ele><time>2026-03-28T10:18:14Z</time></trkpt><trkpt lat="39.886016256159195" lon="9.591802045090551"><ele>229.0</ele><time>2026-03-28T10:18:15Z</time></trkpt><trkpt lat="39.88593991317407" lon="9.591887437957801"><ele>229.0</ele><time>2026-03-28T10:18:16Z</time></trkpt><trkpt lat="39.88585998312027" lon="9.591963058049634"><ele>228.99999999999997</ele><time>2026-03-28T10:18:17Z</time></trkpt><trkpt lat="39.885780282944296" lon="9.592042029345462"><ele>228.99999999999997</ele><time>2026-03-28T10:18:18Z</time></trkpt><trkpt lat="39.88570094329196" lon="9.592126293949164"><ele>229.0</ele><time>2026-03-28T10:18:19Z</time></trkpt><trkpt lat="39.88562534001595" lon="9.59221518999947"><ele>229.0</ele><time>2026-03-28T10:18:20Z</time></trkpt><trkpt lat="39.885554166784516" lon="9.592312724502378"><ele>229.0</ele><time>2026-03-28T10:18:21Z</time></trkpt><trkpt lat="39.88548692272691" lon="9.592413574192493"><ele>228.99999999999997</ele><time>2026-03-28T10:18:22Z</time></trkpt><trkpt lat="39.885422933062166" lon="9.592514220941318"><ele>228.99999999999997</ele><time>2026-03-28T10:18:23Z</time></trkpt><trkpt lat="39.88536961830817" lon="9.592624408178352"><ele>229.0</ele><time>2026-03-28T10:18:24Z</time></trkpt><trkpt lat="39.88532805147857" lon="9.592745608070617"><ele>229.0</ele><time>2026-03-28T10:18:25Z</time></trkpt><trkpt lat="39.8852953224448" lon="9.592870041411961"><ele>227.0</ele><time>2026-03-28T10:18:26Z</time></trkpt><trkpt lat="39.88526539213608" lon="9.592996621881476"><ele>224.99999999999997</ele><time>2026-03-28T10:18:27Z</time></trkpt><trkpt lat="39.88523814866217" lon="9.593124652804747"><ele>222.99999999999997</ele><time>2026-03-28T10:18:28Z</time></trkpt><trkpt lat="39.885216533675745" lon="9.593255974048434"><ele>221.0</ele><time>2026-03-28T10:18:29Z</time></trkpt><trkpt lat="39.88520297864297" lon="9.593390047670749"><ele>219.0</ele><time>2026-03-28T10:18:30Z</time></trkpt><trkpt lat="39.88519716528131" lon="9.593526708358725"><ele>219.0</ele><time>2026-03-28T10:18:31Z</time></trkpt><trkpt lat="39.88519825914052" lon="9.593665573947039"><ele>218.99999999999997</ele><time>2026-03-28T10:18:32Z</time></trkpt><trkpt lat="39.88520656510127" lon="9.593803902967622"><ele>218.99999999999997</ele><time>2026-03-28T10:18:33Z</time></trkpt><trkpt lat="39.885213939553246" lon="9.593942081195141"><ele>219.0</ele><time>2026-03-28T10:18:34Z</time></trkpt><trkpt lat="39.88521722649033" lon="9.59408201376914"><ele>219.0</ele><time>2026-03-28T10:18:35Z</time></trkpt><trkpt lat="39.88522729918641" lon="9.594222978194315"><ele>218.75</ele><time>2026-03-28T10:18:36Z</time></trkpt><trkpt lat="39.88524003259512" lon="9.5943678445628"><ele>218.5</ele><time>2026-03-28T10:18:37Z</time></trkpt><trkpt lat="39.8852551595883" lon="9.594514486343138"><ele>218.25</ele><time>2026-03-28T10:18:38Z</time></trkpt><trkpt lat="39.88527652972137" lon="9.594659330569202"><ele>218.0</ele><time>2026-03-28T10:18:39Z</time></trkpt><trkpt lat="39.88532134354366" lon="9.594794594118774"><ele>218.00000000000003</ele><time>2026-03-28T10:18:40Z</time></trkpt><trkpt lat="39.88537792285914" lon="9.594907405669623"><ele>218.0</ele><time>2026-03-28T10:18:41Z</time></trkpt><trkpt lat="39.885432840786834" lon="9.595009764686353"><ele>218.0</ele><time>2026-03-28T10:18:42Z</time></trkpt><trkpt lat="39.88547487158123" lon="9.595112376681575"><ele>218.0</ele><time>2026-03-28T10:18:43Z</time></trkpt><trkpt lat="39.88548486523252" lon="9.595210686944215"><ele>218.00000000000003</ele><time>2026-03-28T10:18:44Z</time></trkpt><trkpt lat="39.88546259088174" lon="9.595308337970284"><ele>218.0</ele><time>2026-03-28T10:18:45Z</time></trkpt><trkpt lat="39.88541038879735" lon="9.595392078255053"><ele>218.2</ele><time>2026-03-28T10:18:46Z</time></trkpt><trkpt lat="39.8853344264917" lon="9.595477732832416"><ele>218.4</ele><time>2026-03-28T10:18:47Z</time></trkpt><trkpt lat="39.88525058204476" lon="9.595566284779826"><ele>218.59999999999997</ele><time>2026-03-28T10:18:48Z</time></trkpt><trkpt lat="39.88516717393139" lon="9.59566272210075"><ele>218.79999999999998</ele><time>2026-03-28T10:18:49Z</time></trkpt><trkpt lat="39.885094423253825" lon="9.59577396125494"><ele>219.0</ele><time>2026-03-28T10:18:50Z</time></trkpt><trkpt lat="39.885035049959356" lon="9.595897540403028"><ele>219.0</ele><time>2026-03-28T10:18:51Z</time></trkpt><trkpt lat="39.88498894156224" lon="9.596031198552222"><ele>218.99999999999997</ele><time>2026-03-28T10:18:52Z</time></trkpt><trkpt lat="39.88494536969142" lon="9.596163347062346"><ele>218.99999999999997</ele><time>2026-03-28T10:18:53Z</time></trkpt><trkpt lat="39.88490705490729" lon="9.596291541421024"><ele>219.0</ele><time>2026-03-28T10:18:54Z</time></trkpt><trkpt lat="39.88487232511433" lon="9.596417117380746"><ele>219.0</ele><time>2026-03-28T10:18:55Z</time></trkpt><trkpt lat="39.884833469763684" lon="9.596542533463012"><ele>217.39999999999998</ele><time>2026-03-28T10:18:56Z</time></trkpt><trkpt lat="39.884779110588454" lon="9.596658926610178"><ele>215.79999999999998</ele><time>2026-03-28T10:18:57Z</time></trkpt><trkpt lat="39.8847186980596" lon="9.596754509204029"><ele>214.2</ele><time>2026-03-28T10:18:58Z</time></trkpt><trkpt lat="39.88465583257443" lon="9.596853251971838"><ele>212.60000000000002</ele><time>2026-03-28T10:18:59Z</time></trkpt><trkpt lat="39.88459825781953" lon="9.596958876837302"><ele>211.0</ele><time>2026-03-28T10:19:00Z</time></trkpt><trkpt lat="39.88454184662272" lon="9.597067706955544"><ele>210.20000000000002</ele><time>2026-03-28T10:19:01Z</time></trkpt><trkpt lat="39.88449214297767" lon="9.597179264285622"><ele>209.4</ele><time>2026-03-28T10:19:02Z</time></trkpt><trkpt lat="39.88444349744009" lon="9.597289217010475"><ele>208.6</ele><time>2026-03-28T10:19:03Z</time></trkpt><trkpt lat="39.884403284326325" lon="9.597394339266794"><ele>207.8</ele><time>2026-03-28T10:19:04Z</time></trkpt><trkpt lat="39.88437578566366" lon="9.597502250449134"><ele>207.0</ele><time>2026-03-28T10:19:05Z</time></trkpt><trkpt lat="39.88436156020735" lon="9.597610830674823"><ele>207.0</ele><time>2026-03-28T10:19:06Z</time></trkpt><trkpt lat="39.88435614845147" lon="9.597726436434568"><ele>207.0</ele><time>2026-03-28T10:19:07Z</time></trkpt><trkpt lat="39.88435570779276" lon="9.597846543397159"><ele>207.0</ele><time>2026-03-28T10:19:08Z</time></trkpt><trkpt lat="39.884350608785745" lon="9.597972364921675"><ele>207.0</ele><time>2026-03-28T10:19:09Z</time></trkpt><trkpt lat="39.88434821631813" lon="9.598107155097647"><ele>207.0</ele><time>2026-03-28T10:19:10Z</time></trkpt><trkpt lat="39.884350382210656" lon="9.598238575717321"><ele>208.39999999999998</ele><time>2026-03-28T10:19:11Z</time></trkpt><trkpt lat="39.884364828604106" lon="9.59836455074231"><ele>209.79999999999998</ele><time>2026-03-28T10:19:12Z</time></trkpt><trkpt lat="39.88439764428335" lon="9.598479124249407"><ele>211.2</ele><time>2026-03-28T10:19:13Z</time></trkpt><trkpt lat="39.884451783972374" lon="9.598577079620423"><ele>212.6</ele><time>2026-03-28T10:19:14Z</time></trkpt><trkpt lat="39.88451268128848" lon="9.598675304482061"><ele>214.0</ele><time>2026-03-28T10:19:15Z</time></trkpt><trkpt lat="39.884579748800924" lon="9.598779085183896"><ele>215.79999999999998</ele><time>2026-03-28T10:19:16Z</time></trkpt><trkpt lat="39.8846414020875" lon="9.598888381545573"><ele>217.59999999999997</ele><time>2026-03-28T10:19:17Z</time></trkpt><trkpt lat="39.884703091228275" lon="9.59900144635383"><ele>219.4</ele><time>2026-03-28T10:19:18Z</time></trkpt><trkpt lat="39.88477125039069" lon="9.599112342608244"><ele>221.2</ele><time>2026-03-28T10:19:19Z</time></trkpt><trkpt lat="39.884835735999545" lon="9.59922495404428"><ele>223.0</ele><time>2026-03-28T10:19:20Z</time></trkpt><trkpt lat="39.884900201395695" lon="9.599331627802483"><ele>223.0</ele><time>2026-03-28T10:19:21Z</time></trkpt><trkpt lat="39.8849648088492" lon="9.599431878898118"><ele>223.0</ele><time>2026-03-28T10:19:22Z</time></trkpt><trkpt lat="39.885029262750145" lon="9.59953403587558"><ele>223.0</ele><time>2026-03-28T10:19:23Z</time></trkpt><trkpt lat="39.88510159577931" lon="9.599634318085297"><ele>223.0</ele><time>2026-03-28T10:19:24Z</time></trkpt><trkpt lat="39.88517664362164" lon="9.59973567692742"><ele>223.0</ele><time>2026-03-28T10:19:25Z</time></trkpt><trkpt lat="39.88525018182782" lon="9.599834243928399"><ele>224.60000000000002</ele><time>2026-03-28T10:19:26Z</time></trkpt><trkpt lat="39.885319070589766" lon="9.599931810906718"><ele>226.20000000000002</ele><time>2026-03-28T10:19:27Z</time></trkpt><trkpt lat="39.88538453115184" lon="9.600024647712171"><ele>227.8</ele><time>2026-03-28T10:19:28Z</time></trkpt><trkpt lat="39.885447426994" lon="9.600118445769441"><ele>229.4</ele><time>2026-03-28T10:19:29Z</time></trkpt><trkpt lat="39.885503893987604" lon="9.6002167803196"><ele>231.0</ele><time>2026-03-28T10:19:30Z</time></trkpt><trkpt lat="39.88555892740895" lon="9.600316288951056"><ele>229.8</ele><time>2026-03-28T10:19:31Z</time></trkpt><trkpt lat="39.88560927744415" lon="9.600419470421913"><ele>228.60000000000002</ele><time>2026-03-28T10:19:32Z</time></trkpt><trkpt lat="39.885652980585874" lon="9.600530095559254"><ele>227.4</ele><time>2026-03-28T10:19:33Z</time></trkpt><trkpt lat="39.88569716923952" lon="9.60064341216074"><ele>226.2</ele><time>2026-03-28T10:19:34Z</time></trkpt><trkpt lat="39.885735325774206" lon="9.600757124264971"><ele>225.0</ele><time>2026-03-28T10:19:35Z</time></trkpt><trkpt lat="39.88576139047618" lon="9.600873954741056"><ele>225.0</ele><time>2026-03-28T10:19:36Z</time></trkpt><trkpt lat="39.88577018840835" lon="9.600995833406145"><ele>225.0</ele><time>2026-03-28T10:19:37Z</time></trkpt><trkpt lat="39.88576455804126" lon="9.60111992629101"><ele>225.0</ele><time>2026-03-28T10:19:38Z</time></trkpt><trkpt lat="39.885763559503424" lon="9.60124267871964"><ele>225.0</ele><time>2026-03-28T10:19:39Z</time></trkpt><trkpt lat="39.8857590336611" lon="9.601371391413961"><ele>225.0</ele><time>2026-03-28T10:19:40Z</time></trkpt><trkpt lat="39.88575479533019" lon="9.60150206198223"><ele>224.0</ele><time>2026-03-28T10:19:41Z</time></trkpt><trkpt lat="39.88575220544969" lon="9.601636084453586"><ele>223.0</ele><time>2026-03-28T10:19:42Z</time></trkpt><trkpt lat="39.88575648543678" lon="9.601774056855026"><ele>222.0</ele><time>2026-03-28T10:19:43Z</time></trkpt><trkpt lat="39.88576899865449" lon="9.601913889754298"><ele>221.0</ele><time>2026-03-28T10:19:44Z</time></trkpt><trkpt lat="39.885785580294815" lon="9.60205619942973"><ele>220.0</ele><time>2026-03-28T10:19:45Z</time></trkpt><trkpt lat="39.88580627063644" lon="9.602194488889163"><ele>219.0</ele><time>2026-03-28T10:19:46Z</time></trkpt><trkpt lat="39.885827449942425" lon="9.602340484386936"><ele>218.0</ele><time>2026-03-28T10:19:47Z</time></trkpt><trkpt lat="39.88584729579126" lon="9.602479098398701"><ele>217.0</ele><time>2026-03-28T10:19:48Z</time></trkpt><trkpt lat="39.88586928564232" lon="9.602618539990795"><ele>216.0</ele><time>2026-03-28T10:19:49Z</time></trkpt><trkpt lat="39.885895194109445" lon="9.602756092249429"><ele>215.0</ele><time>2026-03-28T10:19:50Z</time></trkpt><trkpt lat="39.88591709519046" lon="9.602894168887941"><ele>213.8</ele><time>2026-03-28T10:19:51Z</time></trkpt><trkpt lat="39.88593715095317" lon="9.603029090286913"><ele>212.6</ele><time>2026-03-28T10:19:52Z</time></trkpt><trkpt lat="39.88596324473025" lon="9.6031613882237"><ele>211.39999999999998</ele><time>2026-03-28T10:19:53Z</time></trkpt><trkpt lat="39.88598565636982" lon="9.603293544575902"><ele>210.2</ele><time>2026-03-28T10:19:54Z</time></trkpt><trkpt lat="39.88599629642439" lon="9.6034208704392"><ele>209.0</ele><time>2026-03-28T10:19:55Z</time></trkpt><trkpt lat="39.88598684145223" lon="9.603546084854175"><ele>209.0</ele><time>2026-03-28T10:19:56Z</time></trkpt><trkpt lat="39.8859618591459" lon="9.60366313800345"><ele>209.0</ele><time>2026-03-28T10:19:57Z</time></trkpt><trkpt lat="39.88593348636621" lon="9.603777140066391"><ele>209.0</ele><time>2026-03-28T10:19:58Z</time></trkpt><trkpt lat="39.88592618011891" lon="9.603895232398022"><ele>209.0</ele><time>2026-03-28T10:19:59Z</time></trkpt><trkpt lat="39.88596626971319" lon="9.604008590612986"><ele>209.0</ele><time>2026-03-28T10:20:00Z</time></trkpt><trkpt lat="39.88603808605796" lon="9.60411425112808"><ele>208.2</ele><time>2026-03-28T10:20:01Z</time></trkpt><trkpt lat="39.88611553880926" lon="9.604214508187601"><ele>207.39999999999998</ele><time>2026-03-28T10:20:02Z</time></trkpt><trkpt lat="39.886193333030384" lon="9.604317194529354"><ele>206.6</ele><time>2026-03-28T10:20:03Z</time></trkpt><trkpt lat="39.88626486538909" lon="9.60441471537685"><ele>205.8</ele><time>2026-03-28T10:20:04Z</time></trkpt><trkpt lat="39.886323674165034" lon="9.604498938012002"><ele>205.0</ele><time>2026-03-28T10:20:05Z</time></trkpt><trkpt lat="39.88637013431709" lon="9.60456180612589"><ele>203.6</ele><time>2026-03-28T10:20:06Z</time></trkpt><trkpt lat="39.88641669891015" lon="9.60462838157424"><ele>202.2</ele><time>2026-03-28T10:20:08Z</time></trkpt><trkpt lat="39.88649832874882" lon="9.604696366073389"><ele>200.8</ele><time>2026-03-28T10:20:11Z</time></trkpt><trkpt lat="39.88663553872444" lon="9.60467748402875"><ele>199.4</ele><time>2026-03-28T10:20:13Z</time></trkpt><trkpt lat="39.88671545229413" lon="9.604658257175808"><ele>198.0</ele><time>2026-03-28T10:20:14Z</time></trkpt><trkpt lat="39.88679478363136" lon="9.604636753076319"><ele>197.2</ele><time>2026-03-28T10:20:15Z</time></trkpt><trkpt lat="39.88687519988198" lon="9.604604689185678"><ele>196.4</ele><time>2026-03-28T10:20:16Z</time></trkpt><trkpt lat="39.88696679440386" lon="9.604571468430557"><ele>195.6</ele><time>2026-03-28T10:20:17Z</time></trkpt><trkpt lat="39.88706484270688" lon="9.60453302604237"><ele>194.79999999999998</ele><time>2026-03-28T10:20:18Z</time></trkpt><trkpt lat="39.887165047972026" lon="9.604494251638094"><ele>194.0</ele><time>2026-03-28T10:20:19Z</time></trkpt><trkpt lat="39.887263968718315" lon="9.604458666298543"><ele>194.0</ele><time>2026-03-28T10:20:20Z</time></trkpt><trkpt lat="39.88736163234145" lon="9.60442021955851"><ele>194.0</ele><time>2026-03-28T10:20:21Z</time></trkpt><trkpt lat="39.88745837036963" lon="9.604383944824043"><ele>194.0</ele><time>2026-03-28T10:20:22Z</time></trkpt><trkpt lat="39.8875554997786" lon="9.604348482103372"><ele>194.0</ele><time>2026-03-28T10:20:23Z</time></trkpt><trkpt lat="39.88765168300076" lon="9.604311275837706"><ele>194.0</ele><time>2026-03-28T10:20:24Z</time></trkpt><trkpt lat="39.887748083468594" lon="9.604274840912439"><ele>192.79999999999998</ele><time>2026-03-28T10:20:25Z</time></trkpt><trkpt lat="39.88784427440938" lon="9.60424134246998"><ele>191.6</ele><time>2026-03-28T10:20:26Z</time></trkpt><trkpt lat="39.887941587488214" lon="9.604211607164686"><ele>190.4</ele><time>2026-03-28T10:20:27Z</time></trkpt><trkpt lat="39.888038528306694" lon="9.60417791122617"><ele>189.2</ele><time>2026-03-28T10:20:28Z</time></trkpt><trkpt lat="39.888132239540994" lon="9.604143377136143"><ele>188.0</ele><time>2026-03-28T10:20:29Z</time></trkpt><trkpt lat="39.88822706967252" lon="9.604112504348484"><ele>188.0</ele><time>2026-03-28T10:20:30Z</time></trkpt><trkpt lat="39.88832167713141" lon="9.60408080949253"><ele>188.0</ele><time>2026-03-28T10:20:31Z</time></trkpt><trkpt lat="39.88841791467728" lon="9.604057506851484"><ele>188.0</ele><time>2026-03-28T10:20:32Z</time></trkpt><trkpt lat="39.88851495043083" lon="9.604048142772301"><ele>188.0</ele><time>2026-03-28T10:20:33Z</time></trkpt><trkpt lat="39.888610844343965" lon="9.60404271024674"><ele>188.0</ele><time>2026-03-28T10:20:34Z</time></trkpt><trkpt lat="39.88870665782765" lon="9.60404931511762"><ele>187.0</ele><time>2026-03-28T10:20:35Z</time></trkpt><trkpt lat="39.88879966873738" lon="9.604068477758958"><ele>186.0</ele><time>2026-03-28T10:20:36Z</time></trkpt><trkpt lat="39.88888842551939" lon="9.604099055768504"><ele>185.0</ele><time>2026-03-28T10:20:37Z</time></trkpt><trkpt lat="39.88897626656883" lon="9.604128077513915"><ele>184.0</ele><time>2026-03-28T10:20:38Z</time></trkpt><trkpt lat="39.88906520505563" lon="9.604149971266647"><ele>183.0</ele><time>2026-03-28T10:20:39Z</time></trkpt><trkpt lat="39.889154884936076" lon="9.604156623943185"><ele>183.0</ele><time>2026-03-28T10:20:40Z</time></trkpt><trkpt lat="39.88924162599633" lon="9.604144687813724"><ele>183.0</ele><time>2026-03-28T10:20:41Z</time></trkpt><trkpt lat="39.88932269089277" lon="9.604112536356757"><ele>183.0</ele><time>2026-03-28T10:20:42Z</time></trkpt><trkpt lat="39.889401958322246" lon="9.604074109897335"><ele>183.0</ele><time>2026-03-28T10:20:43Z</time></trkpt><trkpt lat="39.88948425685419" lon="9.604028706244865"><ele>183.0</ele><time>2026-03-28T10:20:44Z</time></trkpt><trkpt lat="39.88956672681367" lon="9.603969481132367"><ele>183.0</ele><time>2026-03-28T10:20:45Z</time></trkpt><trkpt lat="39.88965249470807" lon="9.603905758367656"><ele>183.4</ele><time>2026-03-28T10:20:46Z</time></trkpt><trkpt lat="39.889736995892406" lon="9.603828771912799"><ele>183.8</ele><time>2026-03-28T10:20:47Z</time></trkpt><trkpt lat="39.88982140400077" lon="9.603740311012935"><ele>184.2</ele><time>2026-03-28T10:20:48Z</time></trkpt><trkpt lat="39.88989662160126" lon="9.603632880981948"><ele>184.6</ele><time>2026-03-28T10:20:49Z</time></trkpt><trkpt lat="39.88995481462503" lon="9.603503868359056"><ele>185.0</ele><time>2026-03-28T10:20:50Z</time></trkpt><trkpt lat="39.89002098410085" lon="9.603387323836904"><ele>185.0</ele><time>2026-03-28T10:20:51Z</time></trkpt><trkpt lat="39.89006641397393" lon="9.603253347142266"><ele>185.0</ele><time>2026-03-28T10:20:52Z</time></trkpt><trkpt lat="39.89013769897434" lon="9.603147102218546"><ele>185.0</ele><time>2026-03-28T10:20:53Z</time></trkpt><trkpt lat="39.890209194144845" lon="9.603053643572844"><ele>185.0</ele><time>2026-03-28T10:20:54Z</time></trkpt><trkpt lat="39.89028217947005" lon="9.602962905205784"><ele>185.0</ele><time>2026-03-28T10:20:55Z</time></trkpt><trkpt lat="39.890358887928066" lon="9.602870284826093"><ele>183.25</ele><time>2026-03-28T10:20:56Z</time></trkpt><trkpt lat="39.890436422921745" lon="9.60277045166776"><ele>181.5</ele><time>2026-03-28T10:20:57Z</time></trkpt><trkpt lat="39.8905171377982" lon="9.602666455185455"><ele>179.75</ele><time>2026-03-28T10:20:58Z</time></trkpt><trkpt lat="39.890598628060744" lon="9.602558275584665"><ele>178.0</ele><time>2026-03-28T10:20:59Z</time></trkpt><trkpt lat="39.890678847473815" lon="9.60244565345245"><ele>178.0</ele><time>2026-03-28T10:21:00Z</time></trkpt><trkpt lat="39.89075861466174" lon="9.602327034325308"><ele>178.0</ele><time>2026-03-28T10:21:01Z</time></trkpt><trkpt lat="39.89083902006996" lon="9.602207252537008"><ele>178.0</ele><time>2026-03-28T10:21:02Z</time></trkpt><trkpt lat="39.890918072272534" lon="9.602085109313588"><ele>178.0</ele><time>2026-03-28T10:21:03Z</time></trkpt><trkpt lat="39.89099473002217" lon="9.60195935686053"><ele>178.0</ele><time>2026-03-28T10:21:04Z</time></trkpt><trkpt lat="39.891069368148734" lon="9.601834540395718"><ele>178.0</ele><time>2026-03-28T10:21:05Z</time></trkpt><trkpt lat="39.89113911517779" lon="9.60170665295865"><ele>178.0</ele><time>2026-03-28T10:21:06Z</time></trkpt><trkpt lat="39.89122215884316" lon="9.601590294987302"><ele>178.0</ele><time>2026-03-28T10:21:07Z</time></trkpt><trkpt lat="39.891264620475894" lon="9.60143922376358"><ele>178.0</ele><time>2026-03-28T10:21:08Z</time></trkpt><trkpt lat="39.89132666915349" lon="9.601311856355903"><ele>178.0</ele><time>2026-03-28T10:21:09Z</time></trkpt><trkpt lat="39.891392260717794" lon="9.601183952980868"><ele>178.0</ele><time>2026-03-28T10:21:10Z</time></trkpt><trkpt lat="39.89145835449065" lon="9.60106095967111"><ele>178.0</ele><time>2026-03-28T10:21:11Z</time></trkpt><trkpt lat="39.891523731519484" lon="9.600942032020276"><ele>176.8</ele><time>2026-03-28T10:21:12Z</time></trkpt><trkpt lat="39.891593731274384" lon="9.600827543659511"><ele>175.60000000000002</ele><time>2026-03-28T10:21:13Z</time></trkpt><trkpt lat="39.89166815505457" lon="9.600727034357721"><ele>174.39999999999998</ele><time>2026-03-28T10:21:14Z</time></trkpt><trkpt lat="39.891747677540614" lon="9.600643416410948"><ele>173.2</ele><time>2026-03-28T10:21:15Z</time></trkpt><trkpt lat="39.89183279842691" lon="9.600568411234775"><ele>172.0</ele><time>2026-03-28T10:21:16Z</time></trkpt><trkpt lat="39.891919382717646" lon="9.60049328014813"><ele>171.8</ele><time>2026-03-28T10:21:17Z</time></trkpt><trkpt lat="39.89201214435671" lon="9.600423844478293"><ele>171.6</ele><time>2026-03-28T10:21:18Z</time></trkpt><trkpt lat="39.892112387407636" lon="9.600369075942838"><ele>171.4</ele><time>2026-03-28T10:21:19Z</time></trkpt><trkpt lat="39.89222063087552" lon="9.60032389775607"><ele>171.20000000000002</ele><time>2026-03-28T10:21:20Z</time></trkpt><trkpt lat="39.89232096487477" lon="9.60027408273824"><ele>171.0</ele><time>2026-03-28T10:21:21Z</time></trkpt><trkpt lat="39.89241649359912" lon="9.600228122587135"><ele>170.60000000000002</ele><time>2026-03-28T10:21:22Z</time></trkpt><trkpt lat="39.89249968552855" lon="9.600167918137318"><ele>170.2</ele><time>2026-03-28T10:21:23Z</time></trkpt><trkpt lat="39.892572560907816" lon="9.600090504260477"><ele>169.8</ele><time>2026-03-28T10:21:24Z</time></trkpt><trkpt lat="39.892623970977304" lon="9.599992663833689"><ele>169.39999999999998</ele><time>2026-03-28T10:21:25Z</time></trkpt><trkpt lat="39.89268639089954" lon="9.599905134562817"><ele>169.0</ele><time>2026-03-28T10:21:26Z</time></trkpt><trkpt lat="39.892748174671105" lon="9.599810226261969"><ele>168.6</ele><time>2026-03-28T10:21:27Z</time></trkpt><trkpt lat="39.89282211161331" lon="9.599728103935893"><ele>168.2</ele><time>2026-03-28T10:21:28Z</time></trkpt><trkpt lat="39.89289942746164" lon="9.59964338433981"><ele>167.79999999999998</ele><time>2026-03-28T10:21:29Z</time></trkpt><trkpt lat="39.892984911045495" lon="9.599556202884227"><ele>167.39999999999998</ele><time>2026-03-28T10:21:30Z</time></trkpt><trkpt lat="39.893052663235366" lon="9.599469717878723"><ele>167.0</ele><time>2026-03-28T10:21:31Z</time></trkpt><trkpt lat="39.893121721066365" lon="9.599375102838234"><ele>167.0</ele><time>2026-03-28T10:21:32Z</time></trkpt><trkpt lat="39.893191430323164" lon="9.599283710732703"><ele>167.0</ele><time>2026-03-28T10:21:33Z</time></trkpt><trkpt lat="39.89326259922097" lon="9.59919654335815"><ele>167.0</ele><time>2026-03-28T10:21:34Z</time></trkpt><trkpt lat="39.89333643543348" lon="9.599113891963"><ele>167.0</ele><time>2026-03-28T10:21:35Z</time></trkpt><trkpt lat="39.89341026546075" lon="9.599032113404839"><ele>167.0</ele><time>2026-03-28T10:21:36Z</time></trkpt><trkpt lat="39.89348876296921" lon="9.598956456816078"><ele>167.0</ele><time>2026-03-28T10:21:37Z</time></trkpt><trkpt lat="39.89357185602527" lon="9.59889489791259"><ele>167.0</ele><time>2026-03-28T10:21:38Z</time></trkpt><trkpt lat="39.89365704710999" lon="9.598839422633226"><ele>167.0</ele><time>2026-03-28T10:21:39Z</time></trkpt><trkpt lat="39.893738076820405" lon="9.598789796474605"><ele>167.0</ele><time>2026-03-28T10:21:40Z</time></trkpt><trkpt lat="39.89381744702046" lon="9.598740315368671"><ele>167.0</ele><time>2026-03-28T10:21:41Z</time></trkpt><trkpt lat="39.89389586905421" lon="9.598685545997856"><ele>167.0</ele><time>2026-03-28T10:21:42Z</time></trkpt><trkpt lat="39.893975726843415" lon="9.598627265594727"><ele>167.0</ele><time>2026-03-28T10:21:43Z</time></trkpt><trkpt lat="39.894055473914605" lon="9.598568282706497"><ele>167.0</ele><time>2026-03-28T10:21:44Z</time></trkpt><trkpt lat="39.89414028433723" lon="9.598512517217621"><ele>167.0</ele><time>2026-03-28T10:21:45Z</time></trkpt><trkpt lat="39.89423122051294" lon="9.598463637775412"><ele>167.0</ele><time>2026-03-28T10:21:46Z</time></trkpt><trkpt lat="39.89432680567014" lon="9.598419338247515"><ele>167.0</ele><time>2026-03-28T10:21:47Z</time></trkpt><trkpt lat="39.89442594776322" lon="9.598375272066185"><ele>167.0</ele><time>2026-03-28T10:21:48Z</time></trkpt><trkpt lat="39.894522666247546" lon="9.59830989407743"><ele>167.0</ele><time>2026-03-28T10:21:49Z</time></trkpt><trkpt lat="39.89460964012859" lon="9.598225934635819"><ele>167.0</ele><time>2026-03-28T10:21:50Z</time></trkpt><trkpt lat="39.894690558118384" lon="9.598128127162044"><ele>167.0</ele><time>2026-03-28T10:21:51Z</time></trkpt><trkpt lat="39.894772248999345" lon="9.598038336790712"><ele>167.0</ele><time>2026-03-28T10:21:52Z</time></trkpt><trkpt lat="39.89485269597304" lon="9.597958011988403"><ele>167.0</ele><time>2026-03-28T10:21:53Z</time></trkpt><trkpt lat="39.89493544318889" lon="9.597884683426994"><ele>167.0</ele><time>2026-03-28T10:21:54Z</time></trkpt><trkpt lat="39.89501261519568" lon="9.597820623019304"><ele>167.0</ele><time>2026-03-28T10:21:55Z</time></trkpt><trkpt lat="39.895077622540626" lon="9.5977619140855"><ele>167.0</ele><time>2026-03-28T10:21:56Z</time></trkpt><trkpt lat="39.89512829858709" lon="9.597698506769241"><ele>167.0</ele><time>2026-03-28T10:21:57.001Z</time></trkpt><trkpt lat="39.89517042354362" lon="9.597635009678406"><ele>165.83333333333331</ele><time>2026-03-28T10:21:58Z</time></trkpt><trkpt lat="39.895209487011535" lon="9.597558498767961"><ele>164.66666666666666</ele><time>2026-03-28T10:21:59Z</time></trkpt><trkpt lat="39.8952395196265" lon="9.597468693319065"><ele>163.5</ele><time>2026-03-28T10:22:00Z</time></trkpt><trkpt lat="39.8952808375028" lon="9.597375836670112"><ele>162.33333333333334</ele><time>2026-03-28T10:22:01Z</time></trkpt><trkpt lat="39.89530682924802" lon="9.597269144210845"><ele>161.16666666666669</ele><time>2026-03-28T10:22:02Z</time></trkpt><trkpt lat="39.89533333500439" lon="9.597160404800519"><ele>160.0</ele><time>2026-03-28T10:22:03Z</time></trkpt><trkpt lat="39.89536442318725" lon="9.59705169414738"><ele>159.8</ele><time>2026-03-28T10:22:04Z</time></trkpt><trkpt lat="39.89540329525004" lon="9.596946315890296"><ele>159.6</ele><time>2026-03-28T10:22:05Z</time></trkpt><trkpt lat="39.89545161816968" lon="9.59684536965719"><ele>159.4</ele><time>2026-03-28T10:22:06Z</time></trkpt><trkpt lat="39.895492231151785" lon="9.59673423284664"><ele>159.2</ele><time>2026-03-28T10:22:07Z</time></trkpt><trkpt lat="39.89556788319323" lon="9.596658627365779"><ele>159.0</ele><time>2026-03-28T10:22:08Z</time></trkpt><trkpt lat="39.89563677762043" lon="9.596569969285538"><ele>159.0</ele><time>2026-03-28T10:22:09Z</time></trkpt><trkpt lat="39.895698375279274" lon="9.596468300391296"><ele>159.0</ele><time>2026-03-28T10:22:10Z</time></trkpt><trkpt lat="39.89577704768951" lon="9.596376386062438"><ele>159.0</ele><time>2026-03-28T10:22:11Z</time></trkpt><trkpt lat="39.895847545396855" lon="9.596286497886727"><ele>159.0</ele><time>2026-03-28T10:22:12Z</time></trkpt><trkpt lat="39.89592235458474" lon="9.59619438137733"><ele>159.0</ele><time>2026-03-28T10:22:13Z</time></trkpt><trkpt lat="39.89600037495906" lon="9.596106739440852"><ele>156.5</ele><time>2026-03-28T10:22:14Z</time></trkpt><trkpt lat="39.8960770735524" lon="9.596042233507323"><ele>154.0</ele><time>2026-03-28T10:22:15Z</time></trkpt><trkpt lat="39.89615465883036" lon="9.596004611961026"><ele>151.5</ele><time>2026-03-28T10:22:16Z</time></trkpt><trkpt lat="39.896236461644584" lon="9.5959857560966"><ele>149.0</ele><time>2026-03-28T10:22:17Z</time></trkpt><trkpt lat="39.89632362609971" lon="9.595978636604254"><ele>146.5</ele><time>2026-03-28T10:22:18Z</time></trkpt><trkpt lat="39.896413182061735" lon="9.595983968766872"><ele>144.0</ele><time>2026-03-28T10:22:19Z</time></trkpt><trkpt lat="39.89650535599946" lon="9.595994502891338"><ele>144.0</ele><time>2026-03-28T10:22:20Z</time></trkpt><trkpt lat="39.8966029148763" lon="9.596008880498797"><ele>144.0</ele><time>2026-03-28T10:22:21Z</time></trkpt><trkpt lat="39.896695116373614" lon="9.596022810410886"><ele>144.0</ele><time>2026-03-28T10:22:22Z</time></trkpt><trkpt lat="39.89678093519067" lon="9.596031672963566"><ele>144.0</ele><time>2026-03-28T10:22:23Z</time></trkpt><trkpt lat="39.89686224524699" lon="9.596029617538933"><ele>144.0</ele><time>2026-03-28T10:22:24Z</time></trkpt><trkpt lat="39.89693325087326" lon="9.596010454065892"><ele>144.0</ele><time>2026-03-28T10:22:25Z</time></trkpt><trkpt lat="39.89699812703388" lon="9.595978265017663"><ele>143.8</ele><time>2026-03-28T10:22:26Z</time></trkpt><trkpt lat="39.89710263971206" lon="9.595877929152767"><ele>143.60000000000002</ele><time>2026-03-28T10:22:28Z</time></trkpt><trkpt lat="39.897159219309025" lon="9.595806813897205"><ele>143.4</ele><time>2026-03-28T10:22:29Z</time></trkpt><trkpt lat="39.89721867625955" lon="9.595733837909822"><ele>143.20000000000002</ele><time>2026-03-28T10:22:30Z</time></trkpt><trkpt lat="39.89728701673201" lon="9.595675462530394"><ele>143.0</ele><time>2026-03-28T10:22:31Z</time></trkpt><trkpt lat="39.897364695920096" lon="9.595634080590221"><ele>143.0</ele><time>2026-03-28T10:22:32Z</time></trkpt><trkpt lat="39.897446698906116" lon="9.595613615386835"><ele>143.0</ele><time>2026-03-28T10:22:33Z</time></trkpt><trkpt lat="39.897528013480404" lon="9.595601591063309"><ele>143.0</ele><time>2026-03-28T10:22:34Z</time></trkpt><trkpt lat="39.897611088266174" lon="9.595592733615966"><ele>143.0</ele><time>2026-03-28T10:22:35Z</time></trkpt><trkpt lat="39.89768871756235" lon="9.59559346885049"><ele>143.0</ele><time>2026-03-28T10:22:36Z</time></trkpt><trkpt lat="39.89776777493546" lon="9.595593428222843"><ele>143.0</ele><time>2026-03-28T10:22:37Z</time></trkpt><trkpt lat="39.89785192232098" lon="9.595595151031855"><ele>142.8</ele><time>2026-03-28T10:22:38Z</time></trkpt><trkpt lat="39.89794587807527" lon="9.59559949065247"><ele>142.60000000000002</ele><time>2026-03-28T10:22:39Z</time></trkpt><trkpt lat="39.898046337402135" lon="9.595605181021169"><ele>142.39999999999998</ele><time>2026-03-28T10:22:40Z</time></trkpt><trkpt lat="39.89815082999705" lon="9.595614773862193"><ele>142.2</ele><time>2026-03-28T10:22:41Z</time></trkpt><trkpt lat="39.89825744280999" lon="9.595622192088738"><ele>142.0</ele><time>2026-03-28T10:22:42Z</time></trkpt><trkpt lat="39.898363344677485" lon="9.595629509772317"><ele>140.79999999999998</ele><time>2026-03-28T10:22:43Z</time></trkpt><trkpt lat="39.898467321151934" lon="9.59563566415148"><ele>139.6</ele><time>2026-03-28T10:22:44Z</time></trkpt><trkpt lat="39.89856911514933" lon="9.595639367289834"><ele>138.39999999999998</ele><time>2026-03-28T10:22:45Z</time></trkpt><trkpt lat="39.898661537661724" lon="9.595642055127444"><ele>137.2</ele><time>2026-03-28T10:22:46Z</time></trkpt><trkpt lat="39.89874516534774" lon="9.595637498831337"><ele>136.0</ele><time>2026-03-28T10:22:47Z</time></trkpt><trkpt lat="39.89883272874444" lon="9.595621061592139"><ele>136.0</ele><time>2026-03-28T10:22:48Z</time></trkpt><trkpt lat="39.89892564125852" lon="9.59558927371784"><ele>136.0</ele><time>2026-03-28T10:22:49Z</time></trkpt><trkpt lat="39.899019085562045" lon="9.59555017301321"><ele>136.0</ele><time>2026-03-28T10:22:50Z</time></trkpt><trkpt lat="39.89910220880488" lon="9.595496304396788"><ele>136.0</ele><time>2026-03-28T10:22:51Z</time></trkpt><trkpt lat="39.899172963796296" lon="9.595437234338702"><ele>136.0</ele><time>2026-03-28T10:22:52Z</time></trkpt><trkpt lat="39.89923659901633" lon="9.595369362594445"><ele>136.33333333333334</ele><time>2026-03-28T10:22:53Z</time></trkpt><trkpt lat="39.899296168336384" lon="9.595294289927818"><ele>136.66666666666669</ele><time>2026-03-28T10:22:54Z</time></trkpt><trkpt lat="39.89935781766901" lon="9.595211800164876"><ele>137.0</ele><time>2026-03-28T10:22:55Z</time></trkpt><trkpt lat="39.899412672598764" lon="9.595129497552236"><ele>137.33333333333334</ele><time>2026-03-28T10:22:56Z</time></trkpt><trkpt lat="39.89946519868292" lon="9.59504373153838"><ele>137.66666666666666</ele><time>2026-03-28T10:22:57Z</time></trkpt><trkpt lat="39.89951060622197" lon="9.594951590600264"><ele>138.0</ele><time>2026-03-28T10:22:58Z</time></trkpt><trkpt lat="39.899552988608946" lon="9.594857077717734"><ele>138.0</ele><time>2026-03-28T10:22:59Z</time></trkpt><trkpt lat="39.89959288457031" lon="9.594757405869002"><ele>138.0</ele><time>2026-03-28T10:23:00Z</time></trkpt><trkpt lat="39.89964390007472" lon="9.594663528919574"><ele>138.0</ele><time>2026-03-28T10:23:01Z</time></trkpt><trkpt lat="39.899682190076405" lon="9.594559600214266"><ele>138.0</ele><time>2026-03-28T10:23:02Z</time></trkpt><trkpt lat="39.89971110879423" lon="9.594453235529722"><ele>138.0</ele><time>2026-03-28T10:23:03Z</time></trkpt><trkpt lat="39.89977448090183" lon="9.594374502764554"><ele>138.0</ele><time>2026-03-28T10:23:04Z</time></trkpt><trkpt lat="39.89984396254026" lon="9.594312140318129"><ele>137.16666666666666</ele><time>2026-03-28T10:23:05Z</time></trkpt><trkpt lat="39.89992201018554" lon="9.594273705680722"><ele>136.33333333333334</ele><time>2026-03-28T10:23:06Z</time></trkpt><trkpt lat="39.900001505866996" lon="9.594239309337091"><ele>135.5</ele><time>2026-03-28T10:23:07Z</time></trkpt><trkpt lat="39.90007947985774" lon="9.594204885749159"><ele>134.66666666666669</ele><time>2026-03-28T10:23:08Z</time></trkpt><trkpt lat="39.90015422484886" lon="9.594170121992642"><ele>133.83333333333334</ele><time>2026-03-28T10:23:09Z</time></trkpt><trkpt lat="39.90022229570638" lon="9.59412098546041"><ele>133.0</ele><time>2026-03-28T10:23:10Z</time></trkpt><trkpt lat="39.90028123503459" lon="9.59405928551357"><ele>132.83333333333334</ele><time>2026-03-28T10:23:11Z</time></trkpt><trkpt lat="39.90033336171911" lon="9.594000272063704"><ele>132.66666666666669</ele><time>2026-03-28T10:23:12Z</time></trkpt><trkpt lat="39.900381682883435" lon="9.593942505744316"><ele>132.5</ele><time>2026-03-28T10:23:13Z</time></trkpt><trkpt lat="39.90043220659039" lon="9.593877242266164"><ele>132.33333333333334</ele><time>2026-03-28T10:23:14Z</time></trkpt><trkpt lat="39.900484601525065" lon="9.593802118793262"><ele>132.16666666666666</ele><time>2026-03-28T10:23:15Z</time></trkpt><trkpt lat="39.90053767510309" lon="9.593718024588014"><ele>132.0</ele><time>2026-03-28T10:23:16Z</time></trkpt><trkpt lat="39.900586084155805" lon="9.593627826977649"><ele>132.79999999999998</ele><time>2026-03-28T10:23:17Z</time></trkpt><trkpt lat="39.90065327067175" lon="9.593544180411794"><ele>133.6</ele><time>2026-03-28T10:23:18Z</time></trkpt><trkpt lat="39.90068968951869" lon="9.5934321571874"><ele>134.39999999999998</ele><time>2026-03-28T10:23:19Z</time></trkpt><trkpt lat="39.90073470603393" lon="9.59332642434219"><ele>135.2</ele><time>2026-03-28T10:23:20Z</time></trkpt><trkpt lat="39.90077178528757" lon="9.59322071741393"><ele>136.0</ele><time>2026-03-28T10:23:21Z</time></trkpt><trkpt lat="39.90077763807632" lon="9.593103349825997"><ele>136.0</ele><time>2026-03-28T10:23:22Z</time></trkpt><trkpt lat="39.90078411492916" lon="9.592992202907423"><ele>136.0</ele><time>2026-03-28T10:23:23Z</time></trkpt><trkpt lat="39.900793499462836" lon="9.59287916999867"><ele>136.0</ele><time>2026-03-28T10:23:24Z</time></trkpt><trkpt lat="39.90080326973698" lon="9.592765791015127"><ele>136.0</ele><time>2026-03-28T10:23:25Z</time></trkpt><trkpt lat="39.90081668926893" lon="9.592651533114116"><ele>136.0</ele><time>2026-03-28T10:23:26Z</time></trkpt><trkpt lat="39.900837452206574" lon="9.592542823110984"><ele>136.0</ele><time>2026-03-28T10:23:27Z</time></trkpt><trkpt lat="39.90086910396303" lon="9.592436245680284"><ele>136.83333333333334</ele><time>2026-03-28T10:23:28Z</time></trkpt><trkpt lat="39.900904711464335" lon="9.59233356428348"><ele>137.66666666666669</ele><time>2026-03-28T10:23:29Z</time></trkpt><trkpt lat="39.90092925837639" lon="9.592231200547676"><ele>138.5</ele><time>2026-03-28T10:23:30Z</time></trkpt><trkpt lat="39.90097184092824" lon="9.5921509594455"><ele>139.33333333333334</ele><time>2026-03-28T10:23:31Z</time></trkpt><trkpt lat="39.901023320596046" lon="9.592086979581183"><ele>140.16666666666666</ele><time>2026-03-28T10:23:32Z</time></trkpt><trkpt lat="39.901082831018755" lon="9.592030648724425"><ele>141.0</ele><time>2026-03-28T10:23:33Z</time></trkpt><trkpt lat="39.90114219063144" lon="9.591973574479992"><ele>141.66666666666666</ele><time>2026-03-28T10:23:34Z</time></trkpt><trkpt lat="39.90120457830638" lon="9.591919314525978"><ele>142.33333333333334</ele><time>2026-03-28T10:23:35Z</time></trkpt><trkpt lat="39.90126964612213" lon="9.59185932582783"><ele>143.0</ele><time>2026-03-28T10:23:36Z</time></trkpt><trkpt lat="39.901341473740594" lon="9.591794474632133"><ele>143.66666666666669</ele><time>2026-03-28T10:23:37Z</time></trkpt><trkpt lat="39.90142409745988" lon="9.591736208174382"><ele>144.33333333333334</ele><time>2026-03-28T10:23:38Z</time></trkpt><trkpt lat="39.90150835620796" lon="9.59167629093527"><ele>145.0</ele><time>2026-03-28T10:23:39Z</time></trkpt><trkpt lat="39.9015897013629" lon="9.591612809622154"><ele>145.0</ele><time>2026-03-28T10:23:40Z</time></trkpt><trkpt lat="39.9016663169559" lon="9.591547907838823"><ele>145.0</ele><time>2026-03-28T10:23:41Z</time></trkpt><trkpt lat="39.9017369147161" lon="9.591472243778371"><ele>145.0</ele><time>2026-03-28T10:23:42Z</time></trkpt><trkpt lat="39.90180807698109" lon="9.591394322562518"><ele>145.0</ele><time>2026-03-28T10:23:43Z</time></trkpt><trkpt lat="39.90187978182908" lon="9.5913189602662"><ele>145.0</ele><time>2026-03-28T10:23:44Z</time></trkpt><trkpt lat="39.901953804486844" lon="9.591252683339645"><ele>144.8</ele><time>2026-03-28T10:23:45Z</time></trkpt><trkpt lat="39.902030066160336" lon="9.591195184730811"><ele>144.6</ele><time>2026-03-28T10:23:46Z</time></trkpt><trkpt lat="39.90211385977483" lon="9.591152046040099"><ele>144.4</ele><time>2026-03-28T10:23:47Z</time></trkpt><trkpt lat="39.90220185400932" lon="9.5911186168616"><ele>144.2</ele><time>2026-03-28T10:23:48Z</time></trkpt><trkpt lat="39.902289865140276" lon="9.591085782200606"><ele>144.0</ele><time>2026-03-28T10:23:49Z</time></trkpt><trkpt lat="39.90238240581064" lon="9.591045519523876"><ele>143.0</ele><time>2026-03-28T10:23:50Z</time></trkpt><trkpt lat="39.90247174509321" lon="9.590984388156404"><ele>142.0</ele><time>2026-03-28T10:23:51Z</time></trkpt><trkpt lat="39.90255432145039" lon="9.590902030876835"><ele>141.0</ele><time>2026-03-28T10:23:52Z</time></trkpt><trkpt lat="39.90263046884766" lon="9.590802681287249"><ele>140.0</ele><time>2026-03-28T10:23:53Z</time></trkpt><trkpt lat="39.902705210726495" lon="9.590710331111667"><ele>139.0</ele><time>2026-03-28T10:23:54Z</time></trkpt><trkpt lat="39.902791956299936" lon="9.59063321346525"><ele>139.0</ele><time>2026-03-28T10:23:55Z</time></trkpt><trkpt lat="39.90286504184396" lon="9.590542322938061"><ele>139.0</ele><time>2026-03-28T10:23:56Z</time></trkpt><trkpt lat="39.902936663832875" lon="9.59045325252296"><ele>139.0</ele><time>2026-03-28T10:23:57Z</time></trkpt><trkpt lat="39.90299547005906" lon="9.590351388994428"><ele>139.0</ele><time>2026-03-28T10:23:58Z</time></trkpt><trkpt lat="39.90307599155672" lon="9.590282173215305"><ele>139.0</ele><time>2026-03-28T10:23:59Z</time></trkpt><trkpt lat="39.90314368644379" lon="9.590199937898833"><ele>137.66666666666669</ele><time>2026-03-28T10:24:00Z</time></trkpt><trkpt lat="39.90320934979654" lon="9.590120170468904"><ele>136.33333333333334</ele><time>2026-03-28T10:24:01Z</time></trkpt><trkpt lat="39.90327656635831" lon="9.590041717310944"><ele>135.0</ele><time>2026-03-28T10:24:02Z</time></trkpt><trkpt lat="39.903342043767175" lon="9.589965769530764"><ele>133.66666666666666</ele><time>2026-03-28T10:24:03Z</time></trkpt><trkpt lat="39.90340881106265" lon="9.589892414379928"><ele>132.33333333333331</ele><time>2026-03-28T10:24:04Z</time></trkpt><trkpt lat="39.903469290686765" lon="9.589803854502385"><ele>131.0</ele><time>2026-03-28T10:24:05Z</time></trkpt><trkpt lat="39.903541776646776" lon="9.589737800113369"><ele>131.0</ele><time>2026-03-28T10:24:06Z</time></trkpt><trkpt lat="39.903614702900306" lon="9.589666121714206"><ele>131.0</ele><time>2026-03-28T10:24:07Z</time></trkpt><trkpt lat="39.903683804542474" lon="9.589586958288235"><ele>131.0</ele><time>2026-03-28T10:24:08Z</time></trkpt><trkpt lat="39.90374422088586" lon="9.589499113666477"><ele>131.0</ele><time>2026-03-28T10:24:09Z</time></trkpt><trkpt lat="39.90379986896578" lon="9.589403127686156"><ele>131.0</ele><time>2026-03-28T10:24:10Z</time></trkpt><trkpt lat="39.90385222582327" lon="9.589304967321194"><ele>129.2</ele><time>2026-03-28T10:24:11Z</time></trkpt><trkpt lat="39.90390291572416" lon="9.589204984428223"><ele>127.39999999999999</ele><time>2026-03-28T10:24:12Z</time></trkpt><trkpt lat="39.90395295238945" lon="9.589108362970393"><ele>125.6</ele><time>2026-03-28T10:24:13Z</time></trkpt><trkpt lat="39.90400370443473" lon="9.589011464272085"><ele>123.8</ele><time>2026-03-28T10:24:14Z</time></trkpt><trkpt lat="39.904050342434196" lon="9.58891583420953"><ele>122.0</ele><time>2026-03-28T10:24:15Z</time></trkpt><trkpt lat="39.904120039752975" lon="9.588833466997402"><ele>122.0</ele><time>2026-03-28T10:24:16Z</time></trkpt><trkpt lat="39.9041702734019" lon="9.588733543274522"><ele>121.99999999999999</ele><time>2026-03-28T10:24:17Z</time></trkpt><trkpt lat="39.904241682843534" lon="9.588655585147277"><ele>121.99999999999999</ele><time>2026-03-28T10:24:18Z</time></trkpt><trkpt lat="39.90431390040082" lon="9.588576697913377"><ele>122.0</ele><time>2026-03-28T10:24:19Z</time></trkpt><trkpt lat="39.90438156319861" lon="9.5884871868667"><ele>122.0</ele><time>2026-03-28T10:24:20Z</time></trkpt><trkpt lat="39.90443755094373" lon="9.588381927739475"><ele>119.19999999999999</ele><time>2026-03-28T10:24:21Z</time></trkpt><trkpt lat="39.904501299512276" lon="9.588283003789503"><ele>116.39999999999999</ele><time>2026-03-28T10:24:22Z</time></trkpt><trkpt lat="39.904544831099564" lon="9.588167001680953"><ele>113.60000000000001</ele><time>2026-03-28T10:24:23Z</time></trkpt><trkpt lat="39.90458168800106" lon="9.588046209072443"><ele>110.80000000000001</ele><time>2026-03-28T10:24:24Z</time></trkpt><trkpt lat="39.904616999612074" lon="9.587926914526705"><ele>108.0</ele><time>2026-03-28T10:24:25Z</time></trkpt><trkpt lat="39.90465656522807" lon="9.587816597566743"><ele>108.0</ele><time>2026-03-28T10:24:26Z</time></trkpt><trkpt lat="39.90469247417129" lon="9.587707294313546"><ele>108.00000000000001</ele><time>2026-03-28T10:24:27Z</time></trkpt><trkpt lat="39.90475366142769" lon="9.587618718317033"><ele>108.00000000000001</ele><time>2026-03-28T10:24:28Z</time></trkpt><trkpt lat="39.90482384482596" lon="9.587545503162085"><ele>108.0</ele><time>2026-03-28T10:24:29Z</time></trkpt><trkpt lat="39.90489821495862" lon="9.587468433423384"><ele>108.0</ele><time>2026-03-28T10:24:30Z</time></trkpt><trkpt lat="39.904978620384085" lon="9.587402440699877"><ele>108.0</ele><time>2026-03-28T10:24:31Z</time></trkpt><trkpt lat="39.90506571984529" lon="9.587345364585024"><ele>108.00000000000001</ele><time>2026-03-28T10:24:32Z</time></trkpt><trkpt lat="39.90515611828503" lon="9.58729713280506"><ele>108.00000000000001</ele><time>2026-03-28T10:24:33Z</time></trkpt><trkpt lat="39.90524476033623" lon="9.58725723146719"><ele>108.0</ele><time>2026-03-28T10:24:34Z</time></trkpt><trkpt lat="39.90532998730548" lon="9.587218510582037"><ele>108.0</ele><time>2026-03-28T10:24:35Z</time></trkpt><trkpt lat="39.90540803031549" lon="9.587176947625101"><ele>106.4</ele><time>2026-03-28T10:24:36Z</time></trkpt><trkpt lat="39.905481360896346" lon="9.587141953363316"><ele>104.80000000000001</ele><time>2026-03-28T10:24:37Z</time></trkpt><trkpt lat="39.905550383464075" lon="9.587110606677923"><ele>103.2</ele><time>2026-03-28T10:24:38Z</time></trkpt><trkpt lat="39.905641058979214" lon="9.587020514545769"><ele>101.6</ele><time>2026-03-28T10:24:40Z</time></trkpt><trkpt lat="39.90571334295092" lon="9.586886566776316"><ele>100.0</ele><time>2026-03-28T10:24:42Z</time></trkpt><trkpt lat="39.90578575840347" lon="9.586760554884245"><ele>100.00000000000001</ele><time>2026-03-28T10:24:44Z</time></trkpt><trkpt lat="39.905816482324184" lon="9.586687828460626"><ele>100.0</ele><time>2026-03-28T10:24:45Z</time></trkpt><trkpt lat="39.905830944692724" lon="9.586604050332095"><ele>100.0</ele><time>2026-03-28T10:24:46Z</time></trkpt><trkpt lat="39.90587408099448" lon="9.586536220443696"><ele>100.0</ele><time>2026-03-28T10:24:47Z</time></trkpt><trkpt lat="39.905897630830424" lon="9.58645505962041"><ele>100.0</ele><time>2026-03-28T10:24:48Z</time></trkpt><trkpt lat="39.905907061479795" lon="9.58635887050121"><ele>100.00000000000001</ele><time>2026-03-28T10:24:49Z</time></trkpt><trkpt lat="39.905892197656364" lon="9.58626317642857"><ele>100.0</ele><time>2026-03-28T10:24:50Z</time></trkpt><trkpt lat="39.90585216175367" lon="9.586178196329419"><ele>98.2</ele><time>2026-03-28T10:24:51Z</time></trkpt><trkpt lat="39.90579507037825" lon="9.586101115578249"><ele>96.4</ele><time>2026-03-28T10:24:52Z</time></trkpt><trkpt lat="39.905735168044345" lon="9.586027170468277"><ele>94.6</ele><time>2026-03-28T10:24:53Z</time></trkpt><trkpt lat="39.905666335817436" lon="9.58595260586553"><ele>92.8</ele><time>2026-03-28T10:24:54Z</time></trkpt><trkpt lat="39.90558534196445" lon="9.585879540440615"><ele>91.0</ele><time>2026-03-28T10:24:55Z</time></trkpt><trkpt lat="39.905488847613675" lon="9.585822962338751"><ele>91.0</ele><time>2026-03-28T10:24:56Z</time></trkpt><trkpt lat="39.90538883864425" lon="9.585786466135069"><ele>91.0</ele><time>2026-03-28T10:24:57Z</time></trkpt><trkpt lat="39.90529080337865" lon="9.585748779053988"><ele>91.0</ele><time>2026-03-28T10:24:58Z</time></trkpt><trkpt lat="39.905194372079045" lon="9.585711708576445"><ele>91.0</ele><time>2026-03-28T10:24:59Z</time></trkpt><trkpt lat="39.90510369051253" lon="9.585677035780456"><ele>91.0</ele><time>2026-03-28T10:25:00Z</time></trkpt><trkpt lat="39.90502323478147" lon="9.585647423357496"><ele>90.83333333333333</ele><time>2026-03-28T10:25:01Z</time></trkpt><trkpt lat="39.90494950039114" lon="9.585620407312954"><ele>90.66666666666666</ele><time>2026-03-28T10:25:02Z</time></trkpt><trkpt lat="39.90489984987742" lon="9.585553188285791"><ele>90.5</ele><time>2026-03-28T10:25:03Z</time></trkpt><trkpt lat="39.90487645833317" lon="9.585403308131923"><ele>90.33333333333333</ele><time>2026-03-28T10:25:05Z</time></trkpt><trkpt lat="39.904861023066516" lon="9.585295316792793"><ele>90.16666666666667</ele><time>2026-03-28T10:25:06Z</time></trkpt><trkpt lat="39.90484375059061" lon="9.585172943079963"><ele>90.0</ele><time>2026-03-28T10:25:07Z</time></trkpt><trkpt lat="39.90482850755503" lon="9.585059162497584"><ele>90.0</ele><time>2026-03-28T10:25:08Z</time></trkpt><trkpt lat="39.904812850391465" lon="9.58493987564201"><ele>90.0</ele><time>2026-03-28T10:25:09Z</time></trkpt><trkpt lat="39.90479371947289" lon="9.5848109210703"><ele>90.0</ele><time>2026-03-28T10:25:10Z</time></trkpt><trkpt lat="39.904761029820214" lon="9.58467289900802"><ele>90.0</ele><time>2026-03-28T10:25:11Z</time></trkpt><trkpt lat="39.90471508092809" lon="9.58453394731019"><ele>90.0</ele><time>2026-03-28T10:25:12Z</time></trkpt><trkpt lat="39.90466163592685" lon="9.58440671340076"><ele>90.4</ele><time>2026-03-28T10:25:13Z</time></trkpt><trkpt lat="39.904610973482264" lon="9.584285293880269"><ele>90.8</ele><time>2026-03-28T10:25:14Z</time></trkpt><trkpt lat="39.90456238317229" lon="9.584168840514774"><ele>91.19999999999999</ele><time>2026-03-28T10:25:15Z</time></trkpt><trkpt lat="39.90451946082693" lon="9.584057016935885"><ele>91.6</ele><time>2026-03-28T10:25:16Z</time></trkpt><trkpt lat="39.904490324529625" lon="9.583941027217246"><ele>92.0</ele><time>2026-03-28T10:25:17Z</time></trkpt><trkpt lat="39.90447098923045" lon="9.583823770176648"><ele>92.0</ele><time>2026-03-28T10:25:18Z</time></trkpt><trkpt lat="39.90445911189715" lon="9.58370882010454"><ele>92.0</ele><time>2026-03-28T10:25:19Z</time></trkpt><trkpt lat="39.90445456833899" lon="9.583587643209183"><ele>92.0</ele><time>2026-03-28T10:25:20Z</time></trkpt><trkpt lat="39.90445426148504" lon="9.583477437899349"><ele>92.0</ele><time>2026-03-28T10:25:21Z</time></trkpt><trkpt lat="39.904454721026994" lon="9.58337770541088"><ele>92.0</ele><time>2026-03-28T10:25:22Z</time></trkpt><trkpt lat="39.90445543867634" lon="9.583289613801021"><ele>92.0</ele><time>2026-03-28T10:25:23Z</time></trkpt><trkpt lat="39.904446424888334" lon="9.583162951389523"><ele>92.39999999999999</ele><time>2026-03-28T10:25:25Z</time></trkpt><trkpt lat="39.90458943942709" lon="9.583167235011862"><ele>92.8</ele><time>2026-03-28T10:25:29Z</time></trkpt><trkpt lat="39.904656086515324" lon="9.583232680080808"><ele>93.2</ele><time>2026-03-28T10:25:30Z</time></trkpt><trkpt lat="39.90471791770818" lon="9.583301409440665"><ele>93.6</ele><time>2026-03-28T10:25:31Z</time></trkpt><trkpt lat="39.90479819983733" lon="9.583376686912377"><ele>94.0</ele><time>2026-03-28T10:25:32Z</time></trkpt><trkpt lat="39.90488592683622" lon="9.583459062377434"><ele>94.0</ele><time>2026-03-28T10:25:33Z</time></trkpt><trkpt lat="39.904984449540905" lon="9.583555272250086"><ele>94.0</ele><time>2026-03-28T10:25:34Z</time></trkpt><trkpt lat="39.90509118446037" lon="9.583657126403388"><ele>94.0</ele><time>2026-03-28T10:25:35Z</time></trkpt><trkpt lat="39.90520091873518" lon="9.583758901930867"><ele>94.0</ele><time>2026-03-28T10:25:36Z</time></trkpt><trkpt lat="39.90530826319229" lon="9.583863587495667"><ele>94.25</ele><time>2026-03-28T10:25:37Z</time></trkpt><trkpt lat="39.90541161820802" lon="9.583966155691055"><ele>94.5</ele><time>2026-03-28T10:25:38Z</time></trkpt><trkpt lat="39.905518322647836" lon="9.584060538994523"><ele>94.75</ele><time>2026-03-28T10:25:39Z</time></trkpt><trkpt lat="39.90563799790525" lon="9.584144139928819"><ele>95.0</ele><time>2026-03-28T10:25:40Z</time></trkpt><trkpt lat="39.90577530834409" lon="9.584212680565559"><ele>95.0</ele><time>2026-03-28T10:25:41Z</time></trkpt><trkpt lat="39.905915730628536" lon="9.5842679035953"><ele>95.0</ele><time>2026-03-28T10:25:42Z</time></trkpt><trkpt lat="39.90606181403342" lon="9.584322590959495"><ele>95.0</ele><time>2026-03-28T10:25:43Z</time></trkpt><trkpt lat="39.906211179038905" lon="9.58437647948255"><ele>95.0</ele><time>2026-03-28T10:25:44Z</time></trkpt><trkpt lat="39.9063597518191" lon="9.584432108959021"><ele>95.0</ele><time>2026-03-28T10:25:45Z</time></trkpt><trkpt lat="39.90650967768735" lon="9.584487694141774"><ele>95.0</ele><time>2026-03-28T10:25:46Z</time></trkpt><trkpt lat="39.90666203846407" lon="9.584542708574068"><ele>93.66666666666667</ele><time>2026-03-28T10:25:47Z</time></trkpt><trkpt lat="39.90681400927802" lon="9.58461169761807"><ele>92.33333333333333</ele><time>2026-03-28T10:25:48Z</time></trkpt><trkpt lat="39.90696614395018" lon="9.584689775475209"><ele>91.0</ele><time>2026-03-28T10:25:49Z</time></trkpt><trkpt lat="39.90711634257174" lon="9.584772856759367"><ele>91.0</ele><time>2026-03-28T10:25:50Z</time></trkpt><trkpt lat="39.90726939994662" lon="9.58486708370812"><ele>91.0</ele><time>2026-03-28T10:25:51Z</time></trkpt><trkpt lat="39.90741550762609" lon="9.58496425325506"><ele>91.0</ele><time>2026-03-28T10:25:52Z</time></trkpt><trkpt lat="39.9075587487951" lon="9.585075001376012"><ele>91.66666666666666</ele><time>2026-03-28T10:25:53Z</time></trkpt><trkpt lat="39.90769789724694" lon="9.58519977543674"><ele>92.33333333333333</ele><time>2026-03-28T10:25:54Z</time></trkpt><trkpt lat="39.90783295228802" lon="9.585329899511299"><ele>93.0</ele><time>2026-03-28T10:25:55Z</time></trkpt><trkpt lat="39.90796491509484" lon="9.585464505187375"><ele>91.5</ele><time>2026-03-28T10:25:56Z</time></trkpt><trkpt lat="39.90807792489857" lon="9.585598884184835"><ele>90.0</ele><time>2026-03-28T10:25:57Z</time></trkpt><trkpt lat="39.90816878464808" lon="9.585716078556649"><ele>88.5</ele><time>2026-03-28T10:25:58Z</time></trkpt><trkpt lat="39.9082447277844" lon="9.585817661398048"><ele>87.0</ele><time>2026-03-28T10:25:59Z</time></trkpt><trkpt lat="39.90830433495607" lon="9.585906438406225"><ele>87.0</ele><time>2026-03-28T10:26:00Z</time></trkpt><trkpt lat="39.90836038145778" lon="9.585996437640302"><ele>87.0</ele><time>2026-03-28T10:26:01Z</time></trkpt><trkpt lat="39.908413945944666" lon="9.586091133401883"><ele>87.0</ele><time>2026-03-28T10:26:02Z</time></trkpt><trkpt lat="39.908473219932176" lon="9.586194671774871"><ele>87.0</ele><time>2026-03-28T10:26:03Z</time></trkpt><trkpt lat="39.90853300324273" lon="9.586306411439093"><ele>87.0</ele><time>2026-03-28T10:26:04Z</time></trkpt><trkpt lat="39.90859366456959" lon="9.586423949185637"><ele>86.8</ele><time>2026-03-28T10:26:05Z</time></trkpt><trkpt lat="39.908654823426254" lon="9.586544390170033"><ele>86.6</ele><time>2026-03-28T10:26:06Z</time></trkpt><trkpt lat="39.90871509950265" lon="9.586658432672941"><ele>86.39999999999999</ele><time>2026-03-28T10:26:07Z</time></trkpt><trkpt lat="39.90876515219848" lon="9.586756295248684"><ele>86.19999999999999</ele><time>2026-03-28T10:26:08Z</time></trkpt><trkpt lat="39.90880743099742" lon="9.586836270791158"><ele>86.0</ele><time>2026-03-28T10:26:09Z</time></trkpt><trkpt lat="39.9088718648721" lon="9.586935906776546"><ele>86.0</ele><time>2026-03-28T10:26:11Z</time></trkpt><trkpt lat="39.90898606300073" lon="9.586922181653065"><ele>86.0</ele><time>2026-03-28T10:26:14Z</time></trkpt><trkpt lat="39.90902935529967" lon="9.586862121444133"><ele>86.0</ele><time>2026-03-28T10:26:15Z</time></trkpt><trkpt lat="39.90909473745675" lon="9.586794179157858"><ele>86.0</ele><time>2026-03-28T10:26:16Z</time></trkpt><trkpt lat="39.90915739698516" lon="9.586715704652056"><ele>86.0</ele><time>2026-03-28T10:26:17Z</time></trkpt><trkpt lat="39.90922634792165" lon="9.586626937419963"><ele>86.0</ele><time>2026-03-28T10:26:18Z</time></trkpt><trkpt lat="39.90929803456963" lon="9.586534648249408"><ele>86.4</ele><time>2026-03-28T10:26:19Z</time></trkpt><trkpt lat="39.90937058818559" lon="9.586445054921066"><ele>86.8</ele><time>2026-03-28T10:26:20Z</time></trkpt><trkpt lat="39.90944464344026" lon="9.58635518976197"><ele>87.2</ele><time>2026-03-28T10:26:21Z</time></trkpt><trkpt lat="39.90951124626023" lon="9.58627449906185"><ele>87.60000000000001</ele><time>2026-03-28T10:26:22Z</time></trkpt><trkpt lat="39.9095710510398" lon="9.586202044330596"><ele>88.0</ele><time>2026-03-28T10:26:23Z</time></trkpt><trkpt lat="39.90962886188799" lon="9.586132982853188"><ele>88.0</ele><time>2026-03-28T10:26:24Z</time></trkpt><trkpt lat="39.90969477236701" lon="9.586054989544673"><ele>88.0</ele><time>2026-03-28T10:26:25Z</time></trkpt><trkpt lat="39.90976963973714" lon="9.585967412195332"><ele>88.0</ele><time>2026-03-28T10:26:26Z</time></trkpt><trkpt lat="39.90983744939762" lon="9.585889157319858"><ele>88.0</ele><time>2026-03-28T10:26:27Z</time></trkpt><trkpt lat="39.909903678707025" lon="9.585804235090375"><ele>88.0</ele><time>2026-03-28T10:26:28Z</time></trkpt><trkpt lat="39.909964183472766" lon="9.585711626086944"><ele>88.0</ele><time>2026-03-28T10:26:29Z</time></trkpt><trkpt lat="39.910019286962076" lon="9.585609375479688"><ele>88.0</ele><time>2026-03-28T10:26:30Z</time></trkpt><trkpt lat="39.91006574292832" lon="9.585505157366624"><ele>88.0</ele><time>2026-03-28T10:26:31Z</time></trkpt><trkpt lat="39.9101063502355" lon="9.585390136822348"><ele>88.0</ele><time>2026-03-28T10:26:32Z</time></trkpt><trkpt lat="39.91014268947292" lon="9.585279275803181"><ele>88.0</ele><time>2026-03-28T10:26:33Z</time></trkpt><trkpt lat="39.91018128869369" lon="9.585164767113861"><ele>89.2</ele><time>2026-03-28T10:26:34Z</time></trkpt><trkpt lat="39.910220615475005" lon="9.585050781324625"><ele>90.4</ele><time>2026-03-28T10:26:35Z</time></trkpt><trkpt lat="39.91026096673496" lon="9.584934509073664"><ele>91.60000000000001</ele><time>2026-03-28T10:26:36Z</time></trkpt><trkpt lat="39.91030151165983" lon="9.584819690598442"><ele>92.80000000000001</ele><time>2026-03-28T10:26:37Z</time></trkpt><trkpt lat="39.910341600529904" lon="9.584707618506743"><ele>94.0</ele><time>2026-03-28T10:26:38Z</time></trkpt><trkpt lat="39.91037078771946" lon="9.584578526614822"><ele>93.80000000000001</ele><time>2026-03-28T10:26:39Z</time></trkpt><trkpt lat="39.91041237801159" lon="9.584458522804804"><ele>93.60000000000001</ele><time>2026-03-28T10:26:40Z</time></trkpt><trkpt lat="39.91045120041698" lon="9.584336910027764"><ele>93.4</ele><time>2026-03-28T10:26:41Z</time></trkpt><trkpt lat="39.910475822086866" lon="9.584207810563527"><ele>93.2</ele><time>2026-03-28T10:26:42Z</time></trkpt><trkpt lat="39.91050695599297" lon="9.58407801687323"><ele>93.0</ele><time>2026-03-28T10:26:43Z</time></trkpt><trkpt lat="39.91051663541226" lon="9.583952341036369"><ele>93.0</ele><time>2026-03-28T10:26:44Z</time></trkpt><trkpt lat="39.91050944366227" lon="9.583817999207074"><ele>93.0</ele><time>2026-03-28T10:26:45Z</time></trkpt><trkpt lat="39.910502058103035" lon="9.583688174004594"><ele>93.0</ele><time>2026-03-28T10:26:46Z</time></trkpt><trkpt lat="39.910488795795644" lon="9.583553204103598"><ele>93.0</ele><time>2026-03-28T10:26:47Z</time></trkpt><trkpt lat="39.9104731086809" lon="9.583424942129177"><ele>93.0</ele><time>2026-03-28T10:26:48Z</time></trkpt><trkpt lat="39.910459043274194" lon="9.583286596238949"><ele>93.0</ele><time>2026-03-28T10:26:49Z</time></trkpt><trkpt lat="39.91044541459816" lon="9.583151911516898"><ele>93.0</ele><time>2026-03-28T10:26:50Z</time></trkpt><trkpt lat="39.91043272844444" lon="9.583018453773127"><ele>93.0</ele><time>2026-03-28T10:26:51Z</time></trkpt><trkpt lat="39.91042178465808" lon="9.582887159932323"><ele>93.0</ele><time>2026-03-28T10:26:52Z</time></trkpt><trkpt lat="39.91041250749455" lon="9.582745128878956"><ele>93.0</ele><time>2026-03-28T10:26:53Z</time></trkpt><trkpt lat="39.91040358527941" lon="9.582599319088917"><ele>93.0</ele><time>2026-03-28T10:26:54Z</time></trkpt><trkpt lat="39.91039463259726" lon="9.582450705528977"><ele>93.0</ele><time>2026-03-28T10:26:55Z</time></trkpt><trkpt lat="39.91038781787302" lon="9.582306931633688"><ele>93.0</ele><time>2026-03-28T10:26:56Z</time></trkpt><trkpt lat="39.91038289654048" lon="9.582174096503481"><ele>93.0</ele><time>2026-03-28T10:26:57Z</time></trkpt><trkpt lat="39.91037845635406" lon="9.582045999642238"><ele>93.0</ele><time>2026-03-28T10:26:58Z</time></trkpt><trkpt lat="39.910374719801816" lon="9.581916346616861"><ele>93.2</ele><time>2026-03-28T10:26:59Z</time></trkpt><trkpt lat="39.910371283869026" lon="9.581788653832207"><ele>93.4</ele><time>2026-03-28T10:27:00Z</time></trkpt><trkpt lat="39.91036706148868" lon="9.581668905879125"><ele>93.60000000000001</ele><time>2026-03-28T10:27:01Z</time></trkpt><trkpt lat="39.910356971353465" lon="9.581551464818947"><ele>93.80000000000001</ele><time>2026-03-28T10:27:02Z</time></trkpt><trkpt lat="39.91039124208803" lon="9.581443270894251"><ele>94.0</ele><time>2026-03-28T10:27:03Z</time></trkpt><trkpt lat="39.910444343057776" lon="9.581345703440364"><ele>94.0</ele><time>2026-03-28T10:27:04Z</time></trkpt><trkpt lat="39.91050832400974" lon="9.581258289374826"><ele>94.0</ele><time>2026-03-28T10:27:05Z</time></trkpt><trkpt lat="39.910579105310234" lon="9.58117110261859"><ele>94.0</ele><time>2026-03-28T10:27:06Z</time></trkpt><trkpt lat="39.91066676877463" lon="9.581093905371478"><ele>94.0</ele><time>2026-03-28T10:27:07Z</time></trkpt><trkpt lat="39.910748971256695" lon="9.580999286181715"><ele>94.0</ele><time>2026-03-28T10:27:08Z</time></trkpt><trkpt lat="39.9108333252606" lon="9.580906062106951"><ele>95.0</ele><time>2026-03-28T10:27:09Z</time></trkpt><trkpt lat="39.910916075472436" lon="9.580806089213677"><ele>96.0</ele><time>2026-03-28T10:27:10Z</time></trkpt><trkpt lat="39.911013635123744" lon="9.580732288416376"><ele>97.0</ele><time>2026-03-28T10:27:11Z</time></trkpt><trkpt lat="39.91111624094404" lon="9.58066514084804"><ele>98.0</ele><time>2026-03-28T10:27:12Z</time></trkpt><trkpt lat="39.911220974797786" lon="9.580603168312015"><ele>98.0</ele><time>2026-03-28T10:27:13Z</time></trkpt><trkpt lat="39.91132444213858" lon="9.580541297699497"><ele>98.0</ele><time>2026-03-28T10:27:14Z</time></trkpt><trkpt lat="39.91143388626803" lon="9.580498242827895"><ele>98.0</ele><time>2026-03-28T10:27:15Z</time></trkpt><trkpt lat="39.91153326416662" lon="9.580442385335417"><ele>98.0</ele><time>2026-03-28T10:27:16Z</time></trkpt><trkpt lat="39.91163429682814" lon="9.580387320500426"><ele>98.0</ele><time>2026-03-28T10:27:17Z</time></trkpt><trkpt lat="39.91173544785998" lon="9.580332899032468"><ele>97.5</ele><time>2026-03-28T10:27:18Z</time></trkpt><trkpt lat="39.911836864475454" lon="9.580278383550807"><ele>97.0</ele><time>2026-03-28T10:27:19Z</time></trkpt><trkpt lat="39.91194004512376" lon="9.580224507144088"><ele>96.5</ele><time>2026-03-28T10:27:20Z</time></trkpt><trkpt lat="39.912045476415976" lon="9.580169867763955"><ele>96.0</ele><time>2026-03-28T10:27:21Z</time></trkpt><trkpt lat="39.91215370023375" lon="9.580113781229496"><ele>96.0</ele><time>2026-03-28T10:27:22Z</time></trkpt><trkpt lat="39.912256398553275" lon="9.580037302948543"><ele>96.0</ele><time>2026-03-28T10:27:23Z</time></trkpt><trkpt lat="39.91236658012263" lon="9.579984986904217"><ele>96.0</ele><time>2026-03-28T10:27:24Z</time></trkpt><trkpt lat="39.91247444568388" lon="9.579927035248648"><ele>96.0</ele><time>2026-03-28T10:27:25Z</time></trkpt><trkpt lat="39.9125889053583" lon="9.579886285579128"><ele>97.5</ele><time>2026-03-28T10:27:26Z</time></trkpt><trkpt lat="39.91269730011031" lon="9.579827942703316"><ele>99.0</ele><time>2026-03-28T10:27:27Z</time></trkpt><trkpt lat="39.91280073695064" lon="9.57974997796719"><ele>100.5</ele><time>2026-03-28T10:27:28Z</time></trkpt><trkpt lat="39.912911837542104" lon="9.579693420776055"><ele>102.0</ele><time>2026-03-28T10:27:29Z</time></trkpt><trkpt lat="39.91302329520821" lon="9.579638278224685"><ele>102.0</ele><time>2026-03-28T10:27:30Z</time></trkpt><trkpt lat="39.91313482541988" lon="9.579590629233"><ele>102.0</ele><time>2026-03-28T10:27:31Z</time></trkpt><trkpt lat="39.91324877512537" lon="9.579555414492262"><ele>102.0</ele><time>2026-03-28T10:27:32Z</time></trkpt><trkpt lat="39.91336475859551" lon="9.579531956397592"><ele>102.0</ele><time>2026-03-28T10:27:33Z</time></trkpt><trkpt lat="39.913481983207525" lon="9.579520191262654"><ele>101.25</ele><time>2026-03-28T10:27:34Z</time></trkpt><trkpt lat="39.913600349071324" lon="9.579512769655913"><ele>100.5</ele><time>2026-03-28T10:27:35Z</time></trkpt><trkpt lat="39.91372152522876" lon="9.579500740481942"><ele>99.75</ele><time>2026-03-28T10:27:36Z</time></trkpt><trkpt lat="39.9138390950287" lon="9.579487097207435"><ele>99.0</ele><time>2026-03-28T10:27:37Z</time></trkpt><trkpt lat="39.91395629605923" lon="9.579467811036611"><ele>99.0</ele><time>2026-03-28T10:27:38Z</time></trkpt><trkpt lat="39.914070755398306" lon="9.579447724504703"><ele>99.0</ele><time>2026-03-28T10:27:39Z</time></trkpt><trkpt lat="39.91418563432472" lon="9.579423479197857"><ele>99.0</ele><time>2026-03-28T10:27:40Z</time></trkpt><trkpt lat="39.914299612668366" lon="9.579403104974194"><ele>99.0</ele><time>2026-03-28T10:27:41Z</time></trkpt><trkpt lat="39.91441113514049" lon="9.579370087175635"><ele>99.75</ele><time>2026-03-28T10:27:42Z</time></trkpt><trkpt lat="39.91452308497733" lon="9.579339256816741"><ele>100.5</ele><time>2026-03-28T10:27:43Z</time></trkpt><trkpt lat="39.91463728685259" lon="9.579307900182544"><ele>101.25</ele><time>2026-03-28T10:27:44Z</time></trkpt><trkpt lat="39.914749750500675" lon="9.579275635866429"><ele>102.0</ele><time>2026-03-28T10:27:45Z</time></trkpt><trkpt lat="39.91486298802684" lon="9.579239288663826"><ele>102.0</ele><time>2026-03-28T10:27:46Z</time></trkpt><trkpt lat="39.91497571380464" lon="9.57920020013752"><ele>102.0</ele><time>2026-03-28T10:27:47Z</time></trkpt><trkpt lat="39.91508862446832" lon="9.579160956983726"><ele>102.0</ele><time>2026-03-28T10:27:48Z</time></trkpt><trkpt lat="39.91519935291553" lon="9.579121075553454"><ele>102.0</ele><time>2026-03-28T10:27:49Z</time></trkpt><trkpt lat="39.91530902741499" lon="9.579081320179522"><ele>103.6</ele><time>2026-03-28T10:27:50Z</time></trkpt><trkpt lat="39.9154201021798" lon="9.579046879331186"><ele>105.19999999999999</ele><time>2026-03-28T10:27:51Z</time></trkpt><trkpt lat="39.91552770681226" lon="9.579013636075208"><ele>106.8</ele><time>2026-03-28T10:27:52Z</time></trkpt><trkpt lat="39.915633304149075" lon="9.57897251726911"><ele>108.4</ele><time>2026-03-28T10:27:53Z</time></trkpt><trkpt lat="39.915741215304585" lon="9.578925096500864"><ele>110.0</ele><time>2026-03-28T10:27:54Z</time></trkpt><trkpt lat="39.915843716917685" lon="9.578859330682068"><ele>110.0</ele><time>2026-03-28T10:27:55Z</time></trkpt><trkpt lat="39.91593961491703" lon="9.578778685786862"><ele>110.0</ele><time>2026-03-28T10:27:56Z</time></trkpt><trkpt lat="39.916024229396086" lon="9.578696446175416"><ele>110.0</ele><time>2026-03-28T10:27:57Z</time></trkpt><trkpt lat="39.916110363831386" lon="9.578638360357377"><ele>110.0</ele><time>2026-03-28T10:27:58Z</time></trkpt><trkpt lat="39.91616960108854" lon="9.578546041175821"><ele>110.0</ele><time>2026-03-28T10:27:59Z</time></trkpt><trkpt lat="39.91623248017567" lon="9.578470832971623"><ele>110.0</ele><time>2026-03-28T10:28:00Z</time></trkpt><trkpt lat="39.91631010322256" lon="9.578402741544407"><ele>110.0</ele><time>2026-03-28T10:28:01Z</time></trkpt><trkpt lat="39.916377981696954" lon="9.578313542041123"><ele>110.0</ele><time>2026-03-28T10:28:02Z</time></trkpt><trkpt lat="39.91643401148293" lon="9.578202439922313"><ele>110.0</ele><time>2026-03-28T10:28:03Z</time></trkpt><trkpt lat="39.91649674369008" lon="9.5780932235029"><ele>110.0</ele><time>2026-03-28T10:28:04Z</time></trkpt><trkpt lat="39.91654963089907" lon="9.577970118319397"><ele>108.75</ele><time>2026-03-28T10:28:05Z</time></trkpt><trkpt lat="39.91660073384289" lon="9.577840684019346"><ele>107.5</ele><time>2026-03-28T10:28:06Z</time></trkpt><trkpt lat="39.91666003401223" lon="9.577712598901341"><ele>106.25</ele><time>2026-03-28T10:28:07Z</time></trkpt><trkpt lat="39.91670848410303" lon="9.577573551932057"><ele>105.0</ele><time>2026-03-28T10:28:08Z</time></trkpt><trkpt lat="39.91675325927837" lon="9.577443317801226"><ele>106.8</ele><time>2026-03-28T10:28:09Z</time></trkpt><trkpt lat="39.91678617839049" lon="9.57730313924231"><ele>108.6</ele><time>2026-03-28T10:28:10Z</time></trkpt><trkpt lat="39.91684364589921" lon="9.577176456962324"><ele>110.4</ele><time>2026-03-28T10:28:11Z</time></trkpt><trkpt lat="39.91688292742413" lon="9.577046676248381"><ele>112.2</ele><time>2026-03-28T10:28:12Z</time></trkpt><trkpt lat="39.91690764913951" lon="9.576914885005408"><ele>114.0</ele><time>2026-03-28T10:28:13Z</time></trkpt><trkpt lat="39.91691726107368" lon="9.576772416167149"><ele>114.0</ele><time>2026-03-28T10:28:14Z</time></trkpt><trkpt lat="39.91691909154077" lon="9.57663150374345"><ele>114.0</ele><time>2026-03-28T10:28:15Z</time></trkpt><trkpt lat="39.9169179502397" lon="9.576489683375254"><ele>114.0</ele><time>2026-03-28T10:28:16Z</time></trkpt><trkpt lat="39.9169163227949" lon="9.576353083288788"><ele>114.0</ele><time>2026-03-28T10:28:17Z</time></trkpt><trkpt lat="39.91691658965102" lon="9.576215172046137"><ele>114.0</ele><time>2026-03-28T10:28:18Z</time></trkpt><trkpt lat="39.91691693459685" lon="9.576075433381032"><ele>115.2</ele><time>2026-03-28T10:28:19Z</time></trkpt><trkpt lat="39.91691733818637" lon="9.575935941456097"><ele>116.4</ele><time>2026-03-28T10:28:20Z</time></trkpt><trkpt lat="39.91691883289007" lon="9.575795581444455"><ele>117.6</ele><time>2026-03-28T10:28:21Z</time></trkpt><trkpt lat="39.91692196941827" lon="9.575660555265756"><ele>118.8</ele><time>2026-03-28T10:28:22Z</time></trkpt><trkpt lat="39.91694257173333" lon="9.575540189021165"><ele>120.0</ele><time>2026-03-28T10:28:23Z</time></trkpt><trkpt lat="39.91697635694608" lon="9.575417691710856"><ele>120.0</ele><time>2026-03-28T10:28:24Z</time></trkpt><trkpt lat="39.91701843726737" lon="9.575300174170149"><ele>120.0</ele><time>2026-03-28T10:28:25Z</time></trkpt><trkpt lat="39.917073713867495" lon="9.57518888346523"><ele>120.0</ele><time>2026-03-28T10:28:26Z</time></trkpt><trkpt lat="39.917123440847504" lon="9.575071388715957"><ele>120.0</ele><time>2026-03-28T10:28:27Z</time></trkpt><trkpt lat="39.9171922817129" lon="9.574966995699818"><ele>120.0</ele><time>2026-03-28T10:28:28Z</time></trkpt><trkpt lat="39.917274045453134" lon="9.574873746041225"><ele>120.0</ele><time>2026-03-28T10:28:29Z</time></trkpt><trkpt lat="39.9173450355377" lon="9.574767121660685"><ele>120.0</ele><time>2026-03-28T10:28:30Z</time></trkpt><trkpt lat="39.91741613245909" lon="9.57465903713705"><ele>120.0</ele><time>2026-03-28T10:28:31Z</time></trkpt><trkpt lat="39.91748722723264" lon="9.574553915700365"><ele>120.0</ele><time>2026-03-28T10:28:32Z</time></trkpt><trkpt lat="39.917554387081786" lon="9.574457900202429"><ele>120.0</ele><time>2026-03-28T10:28:33Z</time></trkpt><trkpt lat="39.91761550746411" lon="9.57435678238519"><ele>120.0</ele><time>2026-03-28T10:28:34Z</time></trkpt><trkpt lat="39.9177044300952" lon="9.574294871703207"><ele>120.0</ele><time>2026-03-28T10:28:35Z</time></trkpt><trkpt lat="39.9177989088385" lon="9.574238972007327"><ele>120.0</ele><time>2026-03-28T10:28:36Z</time></trkpt><trkpt lat="39.917898188471476" lon="9.574188854156086"><ele>120.0</ele><time>2026-03-28T10:28:37Z</time></trkpt><trkpt lat="39.917998994649786" lon="9.574140298312404"><ele>120.0</ele><time>2026-03-28T10:28:38Z</time></trkpt><trkpt lat="39.918099429286144" lon="9.574089434698758"><ele>120.0</ele><time>2026-03-28T10:28:39Z</time></trkpt><trkpt lat="39.91820194632977" lon="9.574038842050957"><ele>120.0</ele><time>2026-03-28T10:28:40Z</time></trkpt><trkpt lat="39.91830387264657" lon="9.573993846484438"><ele>120.0</ele><time>2026-03-28T10:28:41Z</time></trkpt><trkpt lat="39.91840569698584" lon="9.573952877244755"><ele>120.0</ele><time>2026-03-28T10:28:42Z</time></trkpt><trkpt lat="39.91850761071294" lon="9.573909910578708"><ele>120.0</ele><time>2026-03-28T10:28:43Z</time></trkpt><trkpt lat="39.91860824451247" lon="9.573862295854962"><ele>120.4</ele><time>2026-03-28T10:28:44Z</time></trkpt><trkpt lat="39.918709625817" lon="9.573817157151995"><ele>120.8</ele><time>2026-03-28T10:28:45Z</time></trkpt><trkpt lat="39.91881197464966" lon="9.573774658947617"><ele>121.19999999999999</ele><time>2026-03-28T10:28:46Z</time></trkpt><trkpt lat="39.9189126780329" lon="9.57373145743815"><ele>121.6</ele><time>2026-03-28T10:28:47Z</time></trkpt><trkpt lat="39.91901541426326" lon="9.573684443294285"><ele>122.0</ele><time>2026-03-28T10:28:48Z</time></trkpt><trkpt lat="39.91911695722374" lon="9.573642476851411"><ele>122.0</ele><time>2026-03-28T10:28:49Z</time></trkpt><trkpt lat="39.91921832383244" lon="9.573595628725993"><ele>121.99999999999999</ele><time>2026-03-28T10:28:50Z</time></trkpt><trkpt lat="39.919319173181755" lon="9.573556672977523"><ele>121.99999999999999</ele><time>2026-03-28T10:28:51Z</time></trkpt><trkpt lat="39.91942165637594" lon="9.573530227224182"><ele>122.0</ele><time>2026-03-28T10:28:52Z</time></trkpt><trkpt lat="39.919526838658214" lon="9.573520308784992"><ele>122.0</ele><time>2026-03-28T10:28:53Z</time></trkpt><trkpt lat="39.91963015882022" lon="9.573533671022387"><ele>122.8</ele><time>2026-03-28T10:28:54Z</time></trkpt><trkpt lat="39.919731636064945" lon="9.57356265452971"><ele>123.6</ele><time>2026-03-28T10:28:55Z</time></trkpt><trkpt lat="39.919832428242444" lon="9.573597993029153"><ele>124.39999999999999</ele><time>2026-03-28T10:28:56Z</time></trkpt><trkpt lat="39.91993737856636" lon="9.573640438695229"><ele>125.19999999999999</ele><time>2026-03-28T10:28:57Z</time></trkpt><trkpt lat="39.920041256348895" lon="9.573686433749575"><ele>126.0</ele><time>2026-03-28T10:28:58Z</time></trkpt><trkpt lat="39.920145346770255" lon="9.57373286261738"><ele>127.19999999999999</ele><time>2026-03-28T10:28:59Z</time></trkpt><trkpt lat="39.920249811517444" lon="9.57378372077995"><ele>128.39999999999998</ele><time>2026-03-28T10:29:00Z</time></trkpt><trkpt lat="39.9203535818615" lon="9.573837016235528"><ele>129.6</ele><time>2026-03-28T10:29:01Z</time></trkpt><trkpt lat="39.920458662877245" lon="9.57388495887759"><ele>130.79999999999998</ele><time>2026-03-28T10:29:02Z</time></trkpt><trkpt lat="39.92056347344828" lon="9.573932740996637"><ele>132.0</ele><time>2026-03-28T10:29:03Z</time></trkpt><trkpt lat="39.920669715127" lon="9.573982122697924"><ele>132.0</ele><time>2026-03-28T10:29:04Z</time></trkpt><trkpt lat="39.92077478863393" lon="9.574032291846962"><ele>132.0</ele><time>2026-03-28T10:29:05Z</time></trkpt><trkpt lat="39.9208797696409" lon="9.574080408658121"><ele>132.0</ele><time>2026-03-28T10:29:06Z</time></trkpt><trkpt lat="39.92098358945022" lon="9.574127978146473"><ele>132.0</ele><time>2026-03-28T10:29:07Z</time></trkpt><trkpt lat="39.9210848125593" lon="9.57417899931927"><ele>132.0</ele><time>2026-03-28T10:29:08Z</time></trkpt><trkpt lat="39.92118505139208" lon="9.574225797215862"><ele>133.4</ele><time>2026-03-28T10:29:09Z</time></trkpt><trkpt lat="39.92128555925337" lon="9.574271825149964"><ele>134.79999999999998</ele><time>2026-03-28T10:29:10Z</time></trkpt><trkpt lat="39.92138506311526" lon="9.574318671230929"><ele>136.2</ele><time>2026-03-28T10:29:11Z</time></trkpt><trkpt lat="39.921486252334425" lon="9.574366251671245"><ele>137.6</ele><time>2026-03-28T10:29:12Z</time></trkpt><trkpt lat="39.92158956304657" lon="9.574410203427373"><ele>139.0</ele><time>2026-03-28T10:29:13Z</time></trkpt><trkpt lat="39.921694094467114" lon="9.574449826640546"><ele>140.0</ele><time>2026-03-28T10:29:14Z</time></trkpt><trkpt lat="39.92180117904804" lon="9.574481181328615"><ele>141.0</ele><time>2026-03-28T10:29:15Z</time></trkpt><trkpt lat="39.92191061510147" lon="9.574498612037578"><ele>142.0</ele><time>2026-03-28T10:29:16Z</time></trkpt><trkpt lat="39.922020138610115" lon="9.574495850699892"><ele>143.0</ele><time>2026-03-28T10:29:17Z</time></trkpt><trkpt lat="39.922125967722344" lon="9.57447093081251"><ele>144.0</ele><time>2026-03-28T10:29:18Z</time></trkpt><trkpt lat="39.92223169377292" lon="9.57443542980829"><ele>144.0</ele><time>2026-03-28T10:29:19Z</time></trkpt><trkpt lat="39.922334997630564" lon="9.57439838789929"><ele>144.0</ele><time>2026-03-28T10:29:20Z</time></trkpt><trkpt lat="39.92244023327283" lon="9.574360020641285"><ele>144.0</ele><time>2026-03-28T10:29:21Z</time></trkpt><trkpt lat="39.922540069176286" lon="9.5743049819355"><ele>144.0</ele><time>2026-03-28T10:29:22Z</time></trkpt><trkpt lat="39.9226352810298" lon="9.574235490065611"><ele>144.0</ele><time>2026-03-28T10:29:23Z</time></trkpt><trkpt lat="39.922729300120615" lon="9.574159300625166"><ele>146.2</ele><time>2026-03-28T10:29:24Z</time></trkpt><trkpt lat="39.92281996987618" lon="9.574073741296253"><ele>148.4</ele><time>2026-03-28T10:29:25Z</time></trkpt><trkpt lat="39.92291311668815" lon="9.573990099130173"><ele>150.6</ele><time>2026-03-28T10:29:26Z</time></trkpt><trkpt lat="39.92300884238093" lon="9.573914882856787"><ele>152.8</ele><time>2026-03-28T10:29:27Z</time></trkpt><trkpt lat="39.923109333678454" lon="9.57385201584126"><ele>155.0</ele><time>2026-03-28T10:29:28Z</time></trkpt><trkpt lat="39.92321693032927" lon="9.573821136554901"><ele>155.0</ele><time>2026-03-28T10:29:29Z</time></trkpt><trkpt lat="39.92333659189393" lon="9.573806376922864"><ele>155.0</ele><time>2026-03-28T10:29:30Z</time></trkpt><trkpt lat="39.92343784860539" lon="9.573775620439434"><ele>155.0</ele><time>2026-03-28T10:29:31Z</time></trkpt><trkpt lat="39.92354770016296" lon="9.57374067361153"><ele>155.0</ele><time>2026-03-28T10:29:32Z</time></trkpt><trkpt lat="39.92365239958801" lon="9.573684397583158"><ele>156.8</ele><time>2026-03-28T10:29:33Z</time></trkpt><trkpt lat="39.923754924651696" lon="9.5736263903595"><ele>158.6</ele><time>2026-03-28T10:29:34Z</time></trkpt><trkpt lat="39.92385978628842" lon="9.573571584918941"><ele>160.39999999999998</ele><time>2026-03-28T10:29:35Z</time></trkpt><trkpt lat="39.92395769121716" lon="9.573508419690056"><ele>162.2</ele><time>2026-03-28T10:29:36Z</time></trkpt><trkpt lat="39.92404782006742" lon="9.573435369130413"><ele>164.0</ele><time>2026-03-28T10:29:37Z</time></trkpt><trkpt lat="39.924129989039045" lon="9.573346519527702"><ele>164.0</ele><time>2026-03-28T10:29:38Z</time></trkpt><trkpt lat="39.92420801695237" lon="9.573248849674782"><ele>164.0</ele><time>2026-03-28T10:29:39Z</time></trkpt><trkpt lat="39.92427931104153" lon="9.573142293806637"><ele>164.0</ele><time>2026-03-28T10:29:40Z</time></trkpt><trkpt lat="39.924342847131975" lon="9.573028372052615"><ele>164.0</ele><time>2026-03-28T10:29:41Z</time></trkpt><trkpt lat="39.924409318712016" lon="9.572920190512082"><ele>164.0</ele><time>2026-03-28T10:29:42Z</time></trkpt><trkpt lat="39.9244794061301" lon="9.572816785591149"><ele>166.79999999999998</ele><time>2026-03-28T10:29:43Z</time></trkpt><trkpt lat="39.924546404364" lon="9.57270710671391"><ele>169.6</ele><time>2026-03-28T10:29:44Z</time></trkpt><trkpt lat="39.92460449451836" lon="9.572592184203815"><ele>172.4</ele><time>2026-03-28T10:29:45Z</time></trkpt><trkpt lat="39.92466086340438" lon="9.572475669420943"><ele>175.2</ele><time>2026-03-28T10:29:46Z</time></trkpt><trkpt lat="39.924718379837664" lon="9.5723600548308"><ele>178.0</ele><time>2026-03-28T10:29:47Z</time></trkpt><trkpt lat="39.92478123869219" lon="9.572245905125456"><ele>178.0</ele><time>2026-03-28T10:29:48Z</time></trkpt><trkpt lat="39.924840829093036" lon="9.572132375467806"><ele>178.0</ele><time>2026-03-28T10:29:49Z</time></trkpt><trkpt lat="39.924901073345566" lon="9.572019839684444"><ele>178.0</ele><time>2026-03-28T10:29:50Z</time></trkpt><trkpt lat="39.924968634565154" lon="9.571923068263375"><ele>178.0</ele><time>2026-03-28T10:29:51Z</time></trkpt><trkpt lat="39.92503519890973" lon="9.571836204938553"><ele>178.0</ele><time>2026-03-28T10:29:52Z</time></trkpt><trkpt lat="39.92510023623022" lon="9.571759326985935"><ele>179.33333333333334</ele><time>2026-03-28T10:29:53Z</time></trkpt><trkpt lat="39.925162639203094" lon="9.571685930822326"><ele>180.66666666666669</ele><time>2026-03-28T10:29:54Z</time></trkpt><trkpt lat="39.925223401685905" lon="9.571617199832264"><ele>182.0</ele><time>2026-03-28T10:29:55Z</time></trkpt><trkpt lat="39.925289115434914" lon="9.571547612498767"><ele>183.33333333333334</ele><time>2026-03-28T10:29:56Z</time></trkpt><trkpt lat="39.92535191185453" lon="9.571470966200398"><ele>184.66666666666666</ele><time>2026-03-28T10:29:57Z</time></trkpt><trkpt lat="39.92540722070739" lon="9.571378605451978"><ele>186.0</ele><time>2026-03-28T10:29:58Z</time></trkpt><trkpt lat="39.92544570729721" lon="9.57127719281531"><ele>185.4</ele><time>2026-03-28T10:29:59Z</time></trkpt><trkpt lat="39.92548610915855" lon="9.571173118825902"><ele>184.8</ele><time>2026-03-28T10:30:00Z</time></trkpt><trkpt lat="39.92549751459416" lon="9.571033701191162"><ele>184.20000000000002</ele><time>2026-03-28T10:30:01Z</time></trkpt><trkpt lat="39.92549428646961" lon="9.570903476210043"><ele>183.60000000000002</ele><time>2026-03-28T10:30:02Z</time></trkpt><trkpt lat="39.92549216121877" lon="9.57078274784535"><ele>183.0</ele><time>2026-03-28T10:30:03Z</time></trkpt><trkpt lat="39.92550958094988" lon="9.570669660664299"><ele>183.0</ele><time>2026-03-28T10:30:04Z</time></trkpt><trkpt lat="39.92552995633273" lon="9.570547547260777"><ele>183.0</ele><time>2026-03-28T10:30:05Z</time></trkpt><trkpt lat="39.92557680599492" lon="9.57043056455367"><ele>183.0</ele><time>2026-03-28T10:30:06Z</time></trkpt><trkpt lat="39.92562888507791" lon="9.570321577390512"><ele>183.0</ele><time>2026-03-28T10:30:07Z</time></trkpt><trkpt lat="39.92568616829528" lon="9.570218865772945"><ele>183.0</ele><time>2026-03-28T10:30:08Z</time></trkpt><trkpt lat="39.9257501028193" lon="9.57012326951136"><ele>183.2</ele><time>2026-03-28T10:30:09Z</time></trkpt><trkpt lat="39.925823671839076" lon="9.570033522259335"><ele>183.4</ele><time>2026-03-28T10:30:10Z</time></trkpt><trkpt lat="39.92589671146875" lon="9.5699402270751"><ele>183.6</ele><time>2026-03-28T10:30:11Z</time></trkpt><trkpt lat="39.92596783517568" lon="9.569848330936729"><ele>183.79999999999998</ele><time>2026-03-28T10:30:12Z</time></trkpt><trkpt lat="39.926044575971005" lon="9.569755090023511"><ele>184.0</ele><time>2026-03-28T10:30:13Z</time></trkpt><trkpt lat="39.92612790009961" lon="9.569667929353615"><ele>186.25</ele><time>2026-03-28T10:30:14Z</time></trkpt><trkpt lat="39.926214977351805" lon="9.569575779880976"><ele>188.5</ele><time>2026-03-28T10:30:15Z</time></trkpt><trkpt lat="39.926298507968575" lon="9.56947430343932"><ele>190.75</ele><time>2026-03-28T10:30:16Z</time></trkpt><trkpt lat="39.92638097884535" lon="9.56936979717212"><ele>193.0</ele><time>2026-03-28T10:30:17Z</time></trkpt><trkpt lat="39.92646975490759" lon="9.569276572270237"><ele>193.0</ele><time>2026-03-28T10:30:18Z</time></trkpt><trkpt lat="39.92655566265918" lon="9.56918005435796"><ele>193.0</ele><time>2026-03-28T10:30:19Z</time></trkpt><trkpt lat="39.92664415375216" lon="9.569086293868924"><ele>193.0</ele><time>2026-03-28T10:30:20Z</time></trkpt><trkpt lat="39.926727118718" lon="9.568985287160263"><ele>193.0</ele><time>2026-03-28T10:30:21Z</time></trkpt><trkpt lat="39.92680886489385" lon="9.568881354525667"><ele>195.25</ele><time>2026-03-28T10:30:22Z</time></trkpt><trkpt lat="39.92688271210422" lon="9.568770452950002"><ele>197.5</ele><time>2026-03-28T10:30:23Z</time></trkpt><trkpt lat="39.92696588862359" lon="9.568663784864858"><ele>199.75</ele><time>2026-03-28T10:30:24Z</time></trkpt><trkpt lat="39.92703383093047" lon="9.568543190223963"><ele>202.0</ele><time>2026-03-28T10:30:25Z</time></trkpt><trkpt lat="39.92710031101843" lon="9.568417434280361"><ele>202.0</ele><time>2026-03-28T10:30:26Z</time></trkpt><trkpt lat="39.92716518407705" lon="9.568289579746502"><ele>202.0</ele><time>2026-03-28T10:30:27Z</time></trkpt><trkpt lat="39.927214509109916" lon="9.568148132510832"><ele>202.0</ele><time>2026-03-28T10:30:28Z</time></trkpt><trkpt lat="39.92727721739448" lon="9.568017218597276"><ele>202.0</ele><time>2026-03-28T10:30:29Z</time></trkpt><trkpt lat="39.92734256876685" lon="9.567888961409805"><ele>201.75</ele><time>2026-03-28T10:30:30Z</time></trkpt><trkpt lat="39.927407383929626" lon="9.567759363791144"><ele>201.5</ele><time>2026-03-28T10:30:31Z</time></trkpt><trkpt lat="39.92747353263591" lon="9.567632354494936"><ele>201.25</ele><time>2026-03-28T10:30:32Z</time></trkpt><trkpt lat="39.927542913718916" lon="9.56750631863922"><ele>201.0</ele><time>2026-03-28T10:30:33Z</time></trkpt><trkpt lat="39.92761182339105" lon="9.567378988709057"><ele>204.0</ele><time>2026-03-28T10:30:34Z</time></trkpt><trkpt lat="39.92768333959556" lon="9.567252795241652"><ele>207.0</ele><time>2026-03-28T10:30:35Z</time></trkpt><trkpt lat="39.92774916531405" lon="9.56711975749855"><ele>210.0</ele><time>2026-03-28T10:30:36Z</time></trkpt><trkpt lat="39.927808778890494" lon="9.566981492774271"><ele>213.0</ele><time>2026-03-28T10:30:37Z</time></trkpt><trkpt lat="39.92786928154873" lon="9.566847147833185"><ele>213.0</ele><time>2026-03-28T10:30:38Z</time></trkpt><trkpt lat="39.92793460922775" lon="9.56671779636716"><ele>213.0</ele><time>2026-03-28T10:30:39Z</time></trkpt><trkpt lat="39.928000258414095" lon="9.566587019909171"><ele>213.0</ele><time>2026-03-28T10:30:40Z</time></trkpt><trkpt lat="39.9280806893432" lon="9.566467993072681"><ele>213.0</ele><time>2026-03-28T10:30:41Z</time></trkpt><trkpt lat="39.92814695615449" lon="9.566338270083618"><ele>213.0</ele><time>2026-03-28T10:30:42Z</time></trkpt><trkpt lat="39.92820218483558" lon="9.566197015168077"><ele>213.0</ele><time>2026-03-28T10:30:43Z</time></trkpt><trkpt lat="39.92827016327226" lon="9.566068102318125"><ele>213.0</ele><time>2026-03-28T10:30:44Z</time></trkpt><trkpt lat="39.928351255026385" lon="9.565952153767729"><ele>213.0</ele><time>2026-03-28T10:30:45Z</time></trkpt><trkpt lat="39.92841921536018" lon="9.565824525982343"><ele>213.66666666666666</ele><time>2026-03-28T10:30:46Z</time></trkpt><trkpt lat="39.928462693021906" lon="9.56569937231035"><ele>214.33333333333331</ele><time>2026-03-28T10:30:47Z</time></trkpt><trkpt lat="39.928511877249775" lon="9.565602435232611"><ele>215.0</ele><time>2026-03-28T10:30:48Z</time></trkpt><trkpt lat="39.92856693325758" lon="9.565531641202492"><ele>215.66666666666666</ele><time>2026-03-28T10:30:49Z</time></trkpt><trkpt lat="39.92861642720364" lon="9.565434176828198"><ele>216.33333333333331</ele><time>2026-03-28T10:30:51Z</time></trkpt><trkpt lat="39.928656141836235" lon="9.565357530893209"><ele>217.0</ele><time>2026-03-28T10:30:53Z</time></trkpt><trkpt lat="39.92869831343848" lon="9.565245826939694"><ele>217.39999999999998</ele><time>2026-03-28T10:30:55Z</time></trkpt><trkpt lat="39.9287370982534" lon="9.565165352051197"><ele>217.79999999999998</ele><time>2026-03-28T10:30:56Z</time></trkpt><trkpt lat="39.92879882602367" lon="9.565081665305117"><ele>218.2</ele><time>2026-03-28T10:30:57Z</time></trkpt><trkpt lat="39.92883884867403" lon="9.5649561301077"><ele>218.6</ele><time>2026-03-28T10:30:58Z</time></trkpt><trkpt lat="39.92889640918988" lon="9.564857593864202"><ele>219.0</ele><time>2026-03-28T10:30:59Z</time></trkpt><trkpt lat="39.9289425331773" lon="9.564743551628714"><ele>219.0</ele><time>2026-03-28T10:31:00Z</time></trkpt><trkpt lat="39.92898780913217" lon="9.564617887690892"><ele>218.99999999999997</ele><time>2026-03-28T10:31:01Z</time></trkpt><trkpt lat="39.92903144605741" lon="9.564486415044886"><ele>218.99999999999997</ele><time>2026-03-28T10:31:02Z</time></trkpt><trkpt lat="39.92907589210182" lon="9.564355493226124"><ele>219.0</ele><time>2026-03-28T10:31:03Z</time></trkpt><trkpt lat="39.92912130680305" lon="9.564227576327154"><ele>219.0</ele><time>2026-03-28T10:31:04Z</time></trkpt><trkpt lat="39.92916601634312" lon="9.564105712151113"><ele>218.79999999999998</ele><time>2026-03-28T10:31:05Z</time></trkpt><trkpt lat="39.92920059768639" lon="9.563985377422936"><ele>218.59999999999997</ele><time>2026-03-28T10:31:06Z</time></trkpt><trkpt lat="39.92926048800115" lon="9.563878978811111"><ele>218.4</ele><time>2026-03-28T10:31:07Z</time></trkpt><trkpt lat="39.92933941490323" lon="9.563785974073717"><ele>218.2</ele><time>2026-03-28T10:31:08Z</time></trkpt><trkpt lat="39.92939665553087" lon="9.5636638284799"><ele>218.0</ele><time>2026-03-28T10:31:09Z</time></trkpt><trkpt lat="39.929479415704975" lon="9.563568073622744"><ele>217.8</ele><time>2026-03-28T10:31:10Z</time></trkpt><trkpt lat="39.92954836904423" lon="9.563460753051416"><ele>217.60000000000002</ele><time>2026-03-28T10:31:11Z</time></trkpt><trkpt lat="39.929615562673476" lon="9.56335075927823"><ele>217.39999999999998</ele><time>2026-03-28T10:31:12Z</time></trkpt><trkpt lat="39.92967852987725" lon="9.56324701047919"><ele>217.2</ele><time>2026-03-28T10:31:13Z</time></trkpt><trkpt lat="39.92973943583559" lon="9.563151027016586"><ele>217.0</ele><time>2026-03-28T10:31:14Z</time></trkpt><trkpt lat="39.92982309051597" lon="9.563089590177311"><ele>217.0</ele><time>2026-03-28T10:31:15Z</time></trkpt><trkpt lat="39.92991388217101" lon="9.563052692953747"><ele>217.0</ele><time>2026-03-28T10:31:16Z</time></trkpt><trkpt lat="39.93001225311651" lon="9.56303810382721"><ele>217.0</ele><time>2026-03-28T10:31:17Z</time></trkpt><trkpt lat="39.9301139316789" lon="9.563035657759176"><ele>217.0</ele><time>2026-03-28T10:31:18Z</time></trkpt><trkpt lat="39.93021378357693" lon="9.563025537428674"><ele>217.0</ele><time>2026-03-28T10:31:19Z</time></trkpt><trkpt lat="39.93030867620138" lon="9.562993767928628"><ele>216.2</ele><time>2026-03-28T10:31:20Z</time></trkpt><trkpt lat="39.93039672161776" lon="9.562958328118778"><ele>215.39999999999998</ele><time>2026-03-28T10:31:21Z</time></trkpt><trkpt lat="39.93046144799328" lon="9.56285410406758"><ele>214.60000000000002</ele><time>2026-03-28T10:31:22Z</time></trkpt><trkpt lat="39.93047949568327" lon="9.56271529493637"><ele>213.8</ele><time>2026-03-28T10:31:23Z</time></trkpt><trkpt lat="39.9304789905784" lon="9.562575530636517"><ele>213.0</ele><time>2026-03-28T10:31:24Z</time></trkpt><trkpt lat="39.9304540070405" lon="9.562431008077649"><ele>212.4</ele><time>2026-03-28T10:31:25Z</time></trkpt><trkpt lat="39.93043005507448" lon="9.562291430656384"><ele>211.8</ele><time>2026-03-28T10:31:26Z</time></trkpt><trkpt lat="39.93040537512865" lon="9.562154864083134"><ele>211.2</ele><time>2026-03-28T10:31:27Z</time></trkpt><trkpt lat="39.930375204102134" lon="9.562024676345118"><ele>210.6</ele><time>2026-03-28T10:31:28Z</time></trkpt><trkpt lat="39.93036516844751" lon="9.561910875589723"><ele>210.0</ele><time>2026-03-28T10:31:29Z</time></trkpt><trkpt lat="39.93037374226524" lon="9.56180541503384"><ele>210.0</ele><time>2026-03-28T10:31:30Z</time></trkpt><trkpt lat="39.93037009308179" lon="9.561703360820301"><ele>210.0</ele><time>2026-03-28T10:31:31Z</time></trkpt><trkpt lat="39.93042545342787" lon="9.561623876549582"><ele>210.0</ele><time>2026-03-28T10:31:32Z</time></trkpt><trkpt lat="39.930508313279" lon="9.561571319222175"><ele>210.0</ele><time>2026-03-28T10:31:33Z</time></trkpt><trkpt lat="39.93060462439148" lon="9.561546733104418"><ele>210.0</ele><time>2026-03-28T10:31:34Z</time></trkpt><trkpt lat="39.93070597736793" lon="9.561542747724769"><ele>210.0</ele><time>2026-03-28T10:31:35Z</time></trkpt><trkpt lat="39.930812225364924" lon="9.561545531495147"><ele>210.0</ele><time>2026-03-28T10:31:36Z</time></trkpt><trkpt lat="39.930919522970214" lon="9.561551561414586"><ele>210.0</ele><time>2026-03-28T10:31:37Z</time></trkpt><trkpt lat="39.93102710340396" lon="9.561560110179151"><ele>210.0</ele><time>2026-03-28T10:31:38Z</time></trkpt><trkpt lat="39.93113275459368" lon="9.56156904055905"><ele>210.0</ele><time>2026-03-28T10:31:39Z</time></trkpt><trkpt lat="39.93123147978225" lon="9.561565709297527"><ele>210.2</ele><time>2026-03-28T10:31:40Z</time></trkpt><trkpt lat="39.93132328866067" lon="9.5615393333303"><ele>210.4</ele><time>2026-03-28T10:31:41Z</time></trkpt><trkpt lat="39.931404269390185" lon="9.56147475621278"><ele>210.60000000000002</ele><time>2026-03-28T10:31:42Z</time></trkpt><trkpt lat="39.93148517156253" lon="9.561397945585794"><ele>210.8</ele><time>2026-03-28T10:31:43Z</time></trkpt><trkpt lat="39.93154860403191" lon="9.561284524122891"><ele>211.0</ele><time>2026-03-28T10:31:44Z</time></trkpt><trkpt lat="39.93161092735841" lon="9.561169043337916"><ele>212.20000000000002</ele><time>2026-03-28T10:31:45Z</time></trkpt><trkpt lat="39.93167680442537" lon="9.561054405215497"><ele>213.4</ele><time>2026-03-28T10:31:46Z</time></trkpt><trkpt lat="39.93174633898669" lon="9.560939970190422"><ele>214.6</ele><time>2026-03-28T10:31:47Z</time></trkpt><trkpt lat="39.93179991933113" lon="9.56081479126253"><ele>215.8</ele><time>2026-03-28T10:31:48Z</time></trkpt><trkpt lat="39.931861929916465" lon="9.560704403884369"><ele>217.0</ele><time>2026-03-28T10:31:49Z</time></trkpt><trkpt lat="39.931933822432626" lon="9.560611946002558"><ele>217.49999999999997</ele><time>2026-03-28T10:31:50Z</time></trkpt><trkpt lat="39.93198733997551" lon="9.560519486007491"><ele>218.0</ele><time>2026-03-28T10:31:51Z</time></trkpt><trkpt lat="39.93203873813467" lon="9.560444313273253"><ele>218.5</ele><time>2026-03-28T10:31:52Z</time></trkpt><trkpt lat="39.93209492875023" lon="9.560402621475346"><ele>219.0</ele><time>2026-03-28T10:31:53Z</time></trkpt><trkpt lat="39.93222086162042" lon="9.56040624443605"><ele>219.49999999999997</ele><time>2026-03-28T10:31:55Z</time></trkpt><trkpt lat="39.93228891457532" lon="9.56046428981241"><ele>220.0</ele><time>2026-03-28T10:31:56Z</time></trkpt><trkpt lat="39.932351187381116" lon="9.560544111695618"><ele>220.0</ele><time>2026-03-28T10:31:57Z</time></trkpt><trkpt lat="39.93241627447568" lon="9.560633991386107"><ele>220.0</ele><time>2026-03-28T10:31:58Z</time></trkpt><trkpt lat="39.93246933268206" lon="9.560744983749055"><ele>220.0</ele><time>2026-03-28T10:31:59Z</time></trkpt><trkpt lat="39.93250987480623" lon="9.560871989184998"><ele>220.0</ele><time>2026-03-28T10:32:00Z</time></trkpt><trkpt lat="39.932551547580815" lon="9.560995002064919"><ele>220.0</ele><time>2026-03-28T10:32:01Z</time></trkpt><trkpt lat="39.93259807405279" lon="9.561112251708312"><ele>220.8</ele><time>2026-03-28T10:32:02Z</time></trkpt><trkpt lat="39.93264462326361" lon="9.561227423044704"><ele>221.6</ele><time>2026-03-28T10:32:03Z</time></trkpt><trkpt lat="39.932695279973316" lon="9.561336582430718"><ele>222.39999999999998</ele><time>2026-03-28T10:32:04Z</time></trkpt><trkpt lat="39.93275901374979" lon="9.561426185886573"><ele>223.2</ele><time>2026-03-28T10:32:05Z</time></trkpt><trkpt lat="39.932835504544705" lon="9.561490620521184"><ele>224.0</ele><time>2026-03-28T10:32:06Z</time></trkpt><trkpt lat="39.9329310509953" lon="9.561526195258779"><ele>224.0</ele><time>2026-03-28T10:32:07Z</time></trkpt><trkpt lat="39.93303836960618" lon="9.561526531684382"><ele>223.99999999999997</ele><time>2026-03-28T10:32:08Z</time></trkpt><trkpt lat="39.93314890729361" lon="9.561508516187681"><ele>223.99999999999997</ele><time>2026-03-28T10:32:09Z</time></trkpt><trkpt lat="39.9332648500672" lon="9.56148520065399"><ele>224.0</ele><time>2026-03-28T10:32:10Z</time></trkpt><trkpt lat="39.933374688003966" lon="9.561462650544703"><ele>224.0</ele><time>2026-03-28T10:32:11Z</time></trkpt><trkpt lat="39.9334879511264" lon="9.561442097147255"><ele>225.25</ele><time>2026-03-28T10:32:12Z</time></trkpt><trkpt lat="39.93360210571588" lon="9.561424190509761"><ele>226.5</ele><time>2026-03-28T10:32:13Z</time></trkpt><trkpt lat="39.93371747894046" lon="9.561410019049845"><ele>227.75</ele><time>2026-03-28T10:32:14Z</time></trkpt><trkpt lat="39.93383359630796" lon="9.561393403592577"><ele>229.0</ele><time>2026-03-28T10:32:15Z</time></trkpt><trkpt lat="39.93394824657048" lon="9.561369795469195"><ele>229.0</ele><time>2026-03-28T10:32:16Z</time></trkpt><trkpt lat="39.934062896855515" lon="9.561347268460182"><ele>228.99999999999997</ele><time>2026-03-28T10:32:17Z</time></trkpt><trkpt lat="39.934176418256996" lon="9.561327667019622"><ele>228.99999999999997</ele><time>2026-03-28T10:32:18Z</time></trkpt><trkpt lat="39.93428860505046" lon="9.561308168889651"><ele>229.0</ele><time>2026-03-28T10:32:19Z</time></trkpt><trkpt lat="39.934388320892616" lon="9.561289036553488"><ele>229.0</ele><time>2026-03-28T10:32:20Z</time></trkpt><trkpt lat="39.93448525556932" lon="9.56127390266619"><ele>229.79999999999998</ele><time>2026-03-28T10:32:21Z</time></trkpt><trkpt lat="39.93458312961177" lon="9.56125895544123"><ele>230.59999999999997</ele><time>2026-03-28T10:32:22Z</time></trkpt><trkpt lat="39.93467857441013" lon="9.561238364848592"><ele>231.4</ele><time>2026-03-28T10:32:23Z</time></trkpt><trkpt lat="39.934769273181395" lon="9.56120834185898"><ele>232.2</ele><time>2026-03-28T10:32:24Z</time></trkpt><trkpt lat="39.93486708557599" lon="9.561183697655192"><ele>233.0</ele><time>2026-03-28T10:32:25Z</time></trkpt><trkpt lat="39.9349588592335" lon="9.561113069004497"><ele>233.75</ele><time>2026-03-28T10:32:26Z</time></trkpt><trkpt lat="39.935051416789" lon="9.561040996184117"><ele>234.5</ele><time>2026-03-28T10:32:27Z</time></trkpt><trkpt lat="39.93514510178117" lon="9.560963471339862"><ele>235.25</ele><time>2026-03-28T10:32:28Z</time></trkpt><trkpt lat="39.935233461313814" lon="9.560864957875026"><ele>236.0</ele><time>2026-03-28T10:32:29Z</time></trkpt><trkpt lat="39.935331457447674" lon="9.560780107001982"><ele>237.0</ele><time>2026-03-28T10:32:30Z</time></trkpt><trkpt lat="39.93544073468863" lon="9.560713116827479"><ele>238.0</ele><time>2026-03-28T10:32:31Z</time></trkpt><trkpt lat="39.935541565944504" lon="9.560628593194302"><ele>239.0</ele><time>2026-03-28T10:32:32Z</time></trkpt><trkpt lat="39.935637478277826" lon="9.560552929251115"><ele>240.0</ele><time>2026-03-28T10:32:33Z</time></trkpt><trkpt lat="39.935719244836356" lon="9.560469234944245"><ele>240.0</ele><time>2026-03-28T10:32:34Z</time></trkpt><trkpt lat="39.93580648055677" lon="9.560395759498345"><ele>240.0</ele><time>2026-03-28T10:32:35Z</time></trkpt><trkpt lat="39.93590276322601" lon="9.560340566047673"><ele>240.0</ele><time>2026-03-28T10:32:36Z</time></trkpt><trkpt lat="39.93598276246981" lon="9.56025262921247"><ele>240.0</ele><time>2026-03-28T10:32:37Z</time></trkpt><trkpt lat="39.93605929624393" lon="9.560184950659318"><ele>240.0</ele><time>2026-03-28T10:32:38Z</time></trkpt><trkpt lat="39.93612600096465" lon="9.560120014404829"><ele>241.6</ele><time>2026-03-28T10:32:39Z</time></trkpt><trkpt lat="39.93614996275287" lon="9.560015597460296"><ele>243.2</ele><time>2026-03-28T10:32:40Z</time></trkpt><trkpt lat="39.93611965524895" lon="9.559904751069505"><ele>244.8</ele><time>2026-03-28T10:32:41Z</time></trkpt><trkpt lat="39.93602608330733" lon="9.559819224902295"><ele>246.4</ele><time>2026-03-28T10:32:42Z</time></trkpt><trkpt lat="39.9359479167948" lon="9.559752237554498"><ele>248.0</ele><time>2026-03-28T10:32:43Z</time></trkpt><trkpt lat="39.93587439818354" lon="9.559686403970503"><ele>248.0</ele><time>2026-03-28T10:32:44Z</time></trkpt><trkpt lat="39.935805237762246" lon="9.559618827219946"><ele>248.0</ele><time>2026-03-28T10:32:45Z</time></trkpt><trkpt lat="39.93574759507647" lon="9.559561464334307"><ele>248.0</ele><time>2026-03-28T10:32:46Z</time></trkpt><trkpt lat="39.93566094869203" lon="9.559484568640901"><ele>248.0</ele><time>2026-03-28T10:32:48Z</time></trkpt><trkpt lat="39.93559522699453" lon="9.559416441167258"><ele>248.0</ele><time>2026-03-28T10:32:50Z</time></trkpt><trkpt lat="39.93549434258134" lon="9.559313295941083"><ele>249.33333333333334</ele><time>2026-03-28T10:32:52Z</time></trkpt><trkpt lat="39.93542317149129" lon="9.55927418036115"><ele>250.66666666666669</ele><time>2026-03-28T10:32:53Z</time></trkpt><trkpt lat="39.935337338645304" lon="9.559262626787593"><ele>252.0</ele><time>2026-03-28T10:32:54Z</time></trkpt><trkpt lat="39.935255075949364" lon="9.559215029598237"><ele>253.33333333333331</ele><time>2026-03-28T10:32:55Z</time></trkpt><trkpt lat="39.93517414905898" lon="9.559184877285464"><ele>254.66666666666666</ele><time>2026-03-28T10:32:56Z</time></trkpt><trkpt lat="39.93509453793032" lon="9.559148603161093"><ele>256.0</ele><time>2026-03-28T10:32:57Z</time></trkpt><trkpt lat="39.93501498037157" lon="9.559097875053835"><ele>255.99999999999997</ele><time>2026-03-28T10:32:58Z</time></trkpt><trkpt lat="39.93494388770278" lon="9.559028476369708"><ele>256.0</ele><time>2026-03-28T10:32:59Z</time></trkpt><trkpt lat="39.9348985413736" lon="9.558932828579158"><ele>256.0</ele><time>2026-03-28T10:33:00Z</time></trkpt><trkpt lat="39.934866436641286" lon="9.558826575750729"><ele>256.0</ele><time>2026-03-28T10:33:01Z</time></trkpt><trkpt lat="39.9348548064835" lon="9.558716049277493"><ele>255.99999999999997</ele><time>2026-03-28T10:33:02Z</time></trkpt><trkpt lat="39.93485698416151" lon="9.558615705027574"><ele>256.0</ele><time>2026-03-28T10:33:03Z</time></trkpt><trkpt lat="39.9349243936714" lon="9.558544602926979"><ele>256.8</ele><time>2026-03-28T10:33:04Z</time></trkpt><trkpt lat="39.93501367321541" lon="9.558489449729793"><ele>257.6</ele><time>2026-03-28T10:33:05Z</time></trkpt><trkpt lat="39.93511120463823" lon="9.558455206780613"><ele>258.4</ele><time>2026-03-28T10:33:06Z</time></trkpt><trkpt lat="39.93521260780991" lon="9.558432581948557"><ele>259.2</ele><time>2026-03-28T10:33:07Z</time></trkpt><trkpt lat="39.93531594069021" lon="9.55840054161298"><ele>260.0</ele><time>2026-03-28T10:33:08Z</time></trkpt><trkpt lat="39.93542093436529" lon="9.558360330496027"><ele>262.4</ele><time>2026-03-28T10:33:09Z</time></trkpt><trkpt lat="39.935522439275445" lon="9.558343058204075"><ele>264.8</ele><time>2026-03-28T10:33:10Z</time></trkpt><trkpt lat="39.93562225036872" lon="9.558304412032038"><ele>267.2</ele><time>2026-03-28T10:33:11Z</time></trkpt><trkpt lat="39.93572388446197" lon="9.55826639011294"><ele>269.6</ele><time>2026-03-28T10:33:12Z</time></trkpt><trkpt lat="39.9358226496661" lon="9.558223776089118"><ele>272.0</ele><time>2026-03-28T10:33:13Z</time></trkpt><trkpt lat="39.93591958741442" lon="9.558220364017316"><ele>274.0</ele><time>2026-03-28T10:33:14Z</time></trkpt><trkpt lat="39.93600919598797" lon="9.558243250684564"><ele>276.0</ele><time>2026-03-28T10:33:15Z</time></trkpt><trkpt lat="39.936098457154046" lon="9.558276787193837"><ele>278.0</ele><time>2026-03-28T10:33:16Z</time></trkpt><trkpt lat="39.9361851255028" lon="9.558323182321992"><ele>280.0</ele><time>2026-03-28T10:33:17Z</time></trkpt><trkpt lat="39.93627078401703" lon="9.558378591438213"><ele>282.0</ele><time>2026-03-28T10:33:18Z</time></trkpt><trkpt lat="39.93636605141318" lon="9.558420444357921"><ele>282.0</ele><time>2026-03-28T10:33:19Z</time></trkpt><trkpt lat="39.93646654608591" lon="9.558440926553525"><ele>282.0</ele><time>2026-03-28T10:33:20Z</time></trkpt><trkpt lat="39.93656935752802" lon="9.55843310552897"><ele>282.0</ele><time>2026-03-28T10:33:21Z</time></trkpt><trkpt lat="39.93667174889808" lon="9.558402126797574"><ele>282.0</ele><time>2026-03-28T10:33:22Z</time></trkpt><trkpt lat="39.93677451327482" lon="9.558355043616853"><ele>282.0</ele><time>2026-03-28T10:33:23Z</time></trkpt><trkpt lat="39.93687494896916" lon="9.558305655016824"><ele>283.2</ele><time>2026-03-28T10:33:24Z</time></trkpt><trkpt lat="39.936980992081914" lon="9.558286278924296"><ele>284.4</ele><time>2026-03-28T10:33:25Z</time></trkpt><trkpt lat="39.9370802726753" lon="9.558247069763599"><ele>285.6</ele><time>2026-03-28T10:33:26Z</time></trkpt><trkpt lat="39.93717721269984" lon="9.558188176849791"><ele>286.8</ele><time>2026-03-28T10:33:27Z</time></trkpt><trkpt lat="39.937283575621656" lon="9.55816255977757"><ele>288.0</ele><time>2026-03-28T10:33:28Z</time></trkpt><trkpt lat="39.93739255553194" lon="9.558145699787545"><ele>288.0</ele><time>2026-03-28T10:33:29Z</time></trkpt><trkpt lat="39.93750148715902" lon="9.558142189634141"><ele>288.0</ele><time>2026-03-28T10:33:30Z</time></trkpt><trkpt lat="39.93760882149769" lon="9.558146652342563"><ele>288.0</ele><time>2026-03-28T10:33:31Z</time></trkpt><trkpt lat="39.93771329427535" lon="9.558156701205583"><ele>288.0</ele><time>2026-03-28T10:33:32Z</time></trkpt><trkpt lat="39.93781675482452" lon="9.558158993174136"><ele>288.0</ele><time>2026-03-28T10:33:33Z</time></trkpt><trkpt lat="39.93791793016764" lon="9.558141377799146"><ele>287.8</ele><time>2026-03-28T10:33:34Z</time></trkpt><trkpt lat="39.938016791582506" lon="9.55809989440258"><ele>287.6</ele><time>2026-03-28T10:33:35Z</time></trkpt><trkpt lat="39.93811057194535" lon="9.558042697256303"><ele>287.4</ele><time>2026-03-28T10:33:36Z</time></trkpt><trkpt lat="39.938202881744765" lon="9.557981126976422"><ele>287.2</ele><time>2026-03-28T10:33:37Z</time></trkpt><trkpt lat="39.938294562855475" lon="9.557917077254482"><ele>287.0</ele><time>2026-03-28T10:33:38Z</time></trkpt><trkpt lat="39.93838342758055" lon="9.55785039233422"><ele>289.1666666666667</ele><time>2026-03-28T10:33:39Z</time></trkpt><trkpt lat="39.938469974708745" lon="9.557785316591826"><ele>291.33333333333337</ele><time>2026-03-28T10:33:40Z</time></trkpt><trkpt lat="39.938550991670375" lon="9.55772568727085"><ele>293.5</ele><time>2026-03-28T10:33:41Z</time></trkpt><trkpt lat="39.938628473343435" lon="9.557674090744053"><ele>295.6666666666667</ele><time>2026-03-28T10:33:42Z</time></trkpt><trkpt lat="39.938697136133705" lon="9.557623056111565"><ele>297.8333333333333</ele><time>2026-03-28T10:33:43Z</time></trkpt><trkpt lat="39.93875126801622" lon="9.557572269327823"><ele>300.0</ele><time>2026-03-28T10:33:44Z</time></trkpt><trkpt lat="39.93882460167312" lon="9.557470643707052"><ele>300.0</ele><time>2026-03-28T10:33:46Z</time></trkpt><trkpt lat="39.93884648944274" lon="9.557340707131903"><ele>300.0</ele><time>2026-03-28T10:33:48Z</time></trkpt><trkpt lat="39.938844237182565" lon="9.557187855325983"><ele>300.0</ele><time>2026-03-28T10:33:50Z</time></trkpt><trkpt lat="39.93883676310593" lon="9.55709673753511"><ele>300.0</ele><time>2026-03-28T10:33:51Z</time></trkpt><trkpt lat="39.938809335472435" lon="9.556970845390016"><ele>300.0</ele><time>2026-03-28T10:33:52Z</time></trkpt><trkpt lat="39.93877492227219" lon="9.556858585860482"><ele>302.2</ele><time>2026-03-28T10:33:53Z</time></trkpt><trkpt lat="39.938739120871745" lon="9.556742166880275"><ele>304.4</ele><time>2026-03-28T10:33:54Z</time></trkpt><trkpt lat="39.93870160751494" lon="9.5566202076334"><ele>306.6</ele><time>2026-03-28T10:33:55Z</time></trkpt><trkpt lat="39.93866727965289" lon="9.55649828054511"><ele>308.8</ele><time>2026-03-28T10:33:56Z</time></trkpt><trkpt lat="39.938668283451356" lon="9.556322888843871"><ele>311.0</ele><time>2026-03-28T10:33:58Z</time></trkpt><trkpt lat="39.93869849533397" lon="9.556199644246329"><ele>312.8</ele><time>2026-03-28T10:33:59Z</time></trkpt><trkpt lat="39.938725733073206" lon="9.556068112572715"><ele>314.6</ele><time>2026-03-28T10:34:00Z</time></trkpt><trkpt lat="39.93875217501716" lon="9.555940423854896"><ele>316.4</ele><time>2026-03-28T10:34:01Z</time></trkpt><trkpt lat="39.93877826229185" lon="9.555814447816651"><ele>318.2</ele><time>2026-03-28T10:34:02Z</time></trkpt><trkpt lat="39.938802665021825" lon="9.555700547145012"><ele>320.0</ele><time>2026-03-28T10:34:03Z</time></trkpt><trkpt lat="39.93883318619525" lon="9.55559588235064"><ele>320.0</ele><time>2026-03-28T10:34:04Z</time></trkpt><trkpt lat="39.93888157642763" lon="9.555511506842564"><ele>320.0</ele><time>2026-03-28T10:34:05Z</time></trkpt><trkpt lat="39.93893948975529" lon="9.555442674484649"><ele>320.0</ele><time>2026-03-28T10:34:06Z</time></trkpt><trkpt lat="39.939010071534156" lon="9.55538465912315"><ele>320.0</ele><time>2026-03-28T10:34:07Z</time></trkpt><trkpt lat="39.93909089647612" lon="9.555339131156822"><ele>320.0</ele><time>2026-03-28T10:34:08Z</time></trkpt><trkpt lat="39.93917607359545" lon="9.55529236664721"><ele>320.0</ele><time>2026-03-28T10:34:09Z</time></trkpt><trkpt lat="39.93926063747644" lon="9.555258802605314"><ele>321.33333333333337</ele><time>2026-03-28T10:34:10Z</time></trkpt><trkpt lat="39.9393412619268" lon="9.555239330413194"><ele>322.6666666666667</ele><time>2026-03-28T10:34:11Z</time></trkpt><trkpt lat="39.93941871660162" lon="9.55523247586087"><ele>324.0</ele><time>2026-03-28T10:34:12Z</time></trkpt><trkpt lat="39.93949427706134" lon="9.55522697834673"><ele>325.3333333333333</ele><time>2026-03-28T10:34:13Z</time></trkpt><trkpt lat="39.939555251689185" lon="9.555311416723244"><ele>326.66666666666663</ele><time>2026-03-28T10:34:14Z</time></trkpt><trkpt lat="39.93961458575464" lon="9.555391736554679"><ele>328.0</ele><time>2026-03-28T10:34:15Z</time></trkpt><trkpt lat="39.93967765803412" lon="9.555471237535087"><ele>328.0</ele><time>2026-03-28T10:34:16Z</time></trkpt><trkpt lat="39.93972843402727" lon="9.55556248374236"><ele>328.0</ele><time>2026-03-28T10:34:17Z</time></trkpt><trkpt lat="39.93978509020448" lon="9.555645635265474"><ele>328.0</ele><time>2026-03-28T10:34:18Z</time></trkpt><trkpt lat="39.939850382273804" lon="9.55572165929378"><ele>328.0</ele><time>2026-03-28T10:34:19Z</time></trkpt><trkpt lat="39.93992555130295" lon="9.555775696965977"><ele>328.0</ele><time>2026-03-28T10:34:20Z</time></trkpt><trkpt lat="39.94000907286665" lon="9.555811028747177"><ele>328.0</ele><time>2026-03-28T10:34:21Z</time></trkpt><trkpt lat="39.94009805999759" lon="9.555818199383774"><ele>329.4</ele><time>2026-03-28T10:34:22Z</time></trkpt><trkpt lat="39.94018675716159" lon="9.555789960947953"><ele>330.79999999999995</ele><time>2026-03-28T10:34:23Z</time></trkpt><trkpt lat="39.940270838641446" lon="9.55573745821589"><ele>332.2</ele><time>2026-03-28T10:34:24Z</time></trkpt><trkpt lat="39.94035101575036" lon="9.555678646346118"><ele>333.6</ele><time>2026-03-28T10:34:25Z</time></trkpt><trkpt lat="39.940440935797106" lon="9.555647471346612"><ele>335.0</ele><time>2026-03-28T10:34:26Z</time></trkpt><trkpt lat="39.94052806593084" lon="9.55559536500336"><ele>335.0</ele><time>2026-03-28T10:34:27Z</time></trkpt><trkpt lat="39.940626249896894" lon="9.555589548651785"><ele>335.0</ele><time>2026-03-28T10:34:28Z</time></trkpt><trkpt lat="39.94072508640195" lon="9.555598115727316"><ele>335.0</ele><time>2026-03-28T10:34:29Z</time></trkpt><trkpt lat="39.940824147330424" lon="9.555613126843838"><ele>335.0</ele><time>2026-03-28T10:34:30Z</time></trkpt><trkpt lat="39.94092245992329" lon="9.555635730749385"><ele>335.0</ele><time>2026-03-28T10:34:31Z</time></trkpt><trkpt lat="39.94101992827124" lon="9.555662362575879"><ele>337.6</ele><time>2026-03-28T10:34:32Z</time></trkpt><trkpt lat="39.94111426220053" lon="9.555688138792236"><ele>340.2</ele><time>2026-03-28T10:34:33Z</time></trkpt><trkpt lat="39.9412077256461" lon="9.555710388451509"><ele>342.79999999999995</ele><time>2026-03-28T10:34:34Z</time></trkpt><trkpt lat="39.94129965669062" lon="9.555730474309785"><ele>345.4</ele><time>2026-03-28T10:34:35Z</time></trkpt><trkpt lat="39.94139334349791" lon="9.555755747422953"><ele>348.0</ele><time>2026-03-28T10:34:36Z</time></trkpt><trkpt lat="39.941486540380815" lon="9.555786658064621"><ele>348.0</ele><time>2026-03-28T10:34:37Z</time></trkpt><trkpt lat="39.941580371059686" lon="9.555815782704983"><ele>348.0</ele><time>2026-03-28T10:34:38Z</time></trkpt><trkpt lat="39.941674477920365" lon="9.555846114091697"><ele>348.0</ele><time>2026-03-28T10:34:39Z</time></trkpt><trkpt lat="39.94176720312073" lon="9.555875344804623"><ele>348.0</ele><time>2026-03-28T10:34:40Z</time></trkpt><trkpt lat="39.94186043991247" lon="9.555901954375646"><ele>348.0</ele><time>2026-03-28T10:34:41Z</time></trkpt><trkpt lat="39.94195166671945" lon="9.555931990099728"><ele>349.5</ele><time>2026-03-28T10:34:42Z</time></trkpt><trkpt lat="39.942040515970724" lon="9.555964862905137"><ele>351.0</ele><time>2026-03-28T10:34:43Z</time></trkpt><trkpt lat="39.94212886124086" lon="9.555983449476617"><ele>352.5</ele><time>2026-03-28T10:34:44Z</time></trkpt><trkpt lat="39.942212554708256" lon="9.555985002977486"><ele>354.0</ele><time>2026-03-28T10:34:45Z</time></trkpt><trkpt lat="39.94227573256717" lon="9.555949744256244"><ele>355.5</ele><time>2026-03-28T10:34:46Z</time></trkpt><trkpt lat="39.94232559164778" lon="9.555820901508767"><ele>357.0</ele><time>2026-03-28T10:34:48Z</time></trkpt><trkpt lat="39.94231102227485" lon="9.555730683601489"><ele>357.0</ele><time>2026-03-28T10:34:49Z</time></trkpt><trkpt lat="39.942264496154536" lon="9.555645524881399"><ele>357.0</ele><time>2026-03-28T10:34:50Z</time></trkpt><trkpt lat="39.94219823762032" lon="9.5555834240308"><ele>357.0</ele><time>2026-03-28T10:34:51Z</time></trkpt><trkpt lat="39.942134426803406" lon="9.555517555309926"><ele>357.0</ele><time>2026-03-28T10:34:52Z</time></trkpt><trkpt lat="39.942058170507785" lon="9.555445938775907"><ele>357.0</ele><time>2026-03-28T10:34:53Z</time></trkpt><trkpt lat="39.94197126410657" lon="9.555363511318507"><ele>357.0</ele><time>2026-03-28T10:34:54Z</time></trkpt><trkpt lat="39.941873102961296" lon="9.5552653825603"><ele>359.25</ele><time>2026-03-28T10:34:55Z</time></trkpt><trkpt lat="39.94177279829957" lon="9.555172805053513"><ele>361.5</ele><time>2026-03-28T10:34:56Z</time></trkpt><trkpt lat="39.94168205926633" lon="9.555082778296585"><ele>363.75</ele><time>2026-03-28T10:34:57Z</time></trkpt><trkpt lat="39.94159651686365" lon="9.55498419381713"><ele>366.0</ele><time>2026-03-28T10:34:58Z</time></trkpt><trkpt lat="39.94150989820276" lon="9.554879037425207"><ele>366.0</ele><time>2026-03-28T10:34:59Z</time></trkpt><trkpt lat="39.94142714637514" lon="9.554779164837074"><ele>366.0</ele><time>2026-03-28T10:35:00Z</time></trkpt><trkpt lat="39.94134849588768" lon="9.554683256291408"><ele>366.0</ele><time>2026-03-28T10:35:01Z</time></trkpt><trkpt lat="39.941276584721855" lon="9.554598885893425"><ele>366.0</ele><time>2026-03-28T10:35:02Z</time></trkpt><trkpt lat="39.941219777613036" lon="9.554505161602975"><ele>366.0</ele><time>2026-03-28T10:35:03Z</time></trkpt><trkpt lat="39.9411551995913" lon="9.5544005005049"><ele>366.0</ele><time>2026-03-28T10:35:04Z</time></trkpt><trkpt lat="39.94115220774819" lon="9.554284839400164"><ele>366.0</ele><time>2026-03-28T10:35:05Z</time></trkpt><trkpt lat="39.94116780337369" lon="9.554202551866588"><ele>366.0</ele><time>2026-03-28T10:35:08Z</time></trkpt><trkpt lat="39.94121135434536" lon="9.554271380163016"><ele>366.0</ele><time>2026-03-28T10:35:10Z</time></trkpt><trkpt lat="39.94126187487942" lon="9.55434555168513"><ele>366.0</ele><time>2026-03-28T10:35:11Z</time></trkpt><trkpt lat="39.941341236799715" lon="9.554462211540118"><ele>366.0</ele><time>2026-03-28T10:35:12Z</time></trkpt><trkpt lat="39.941450512461145" lon="9.554552008053935"><ele>366.0</ele><time>2026-03-28T10:35:13Z</time></trkpt><trkpt lat="39.941543839951905" lon="9.55460650459361"><ele>366.0</ele><time>2026-03-28T10:35:14Z</time></trkpt><trkpt lat="39.94163416500255" lon="9.554665323466732"><ele>366.0</ele><time>2026-03-28T10:35:15Z</time></trkpt><trkpt lat="39.94172956666648" lon="9.554733882523"><ele>366.0</ele><time>2026-03-28T10:35:16Z</time></trkpt><trkpt lat="39.941833966822635" lon="9.55480892500241"><ele>366.0</ele><time>2026-03-28T10:35:17Z</time></trkpt><trkpt lat="39.94194560032863" lon="9.554889139972508"><ele>368.25</ele><time>2026-03-28T10:35:18Z</time></trkpt><trkpt lat="39.94205857105201" lon="9.554973425958723"><ele>370.5</ele><time>2026-03-28T10:35:19Z</time></trkpt><trkpt lat="39.94217341800915" lon="9.55506240357465"><ele>372.75</ele><time>2026-03-28T10:35:20Z</time></trkpt><trkpt lat="39.942277134338" lon="9.55513691897354"><ele>375.0</ele><time>2026-03-28T10:35:21Z</time></trkpt><trkpt lat="39.94237730931909" lon="9.555174860142673"><ele>375.0</ele><time>2026-03-28T10:35:22Z</time></trkpt><trkpt lat="39.94247715516441" lon="9.555151458271645"><ele>375.0</ele><time>2026-03-28T10:35:23Z</time></trkpt><trkpt lat="39.94256524479115" lon="9.55507628910525"><ele>375.0</ele><time>2026-03-28T10:35:24Z</time></trkpt><trkpt lat="39.94264548033712" lon="9.554973252164256"><ele>375.0</ele><time>2026-03-28T10:35:25Z</time></trkpt><trkpt lat="39.94271982654959" lon="9.55486306131955"><ele>375.0</ele><time>2026-03-28T10:35:26Z</time></trkpt><trkpt lat="39.94279366109372" lon="9.55474742639022"><ele>375.0</ele><time>2026-03-28T10:35:27Z</time></trkpt><trkpt lat="39.94286077571391" lon="9.55462272736702"><ele>375.0</ele><time>2026-03-28T10:35:28Z</time></trkpt><trkpt lat="39.94291805319015" lon="9.55448676983692"><ele>375.0</ele><time>2026-03-28T10:35:29Z</time></trkpt><trkpt lat="39.9429712330253" lon="9.55434640875042"><ele>375.0</ele><time>2026-03-28T10:35:30Z</time></trkpt><trkpt lat="39.94302473590903" lon="9.554209615024227"><ele>376.0</ele><time>2026-03-28T10:35:31Z</time></trkpt><trkpt lat="39.94307220709593" lon="9.55407005079261"><ele>377.0</ele><time>2026-03-28T10:35:32Z</time></trkpt><trkpt lat="39.94311104532422" lon="9.553928616473318"><ele>378.0</ele><time>2026-03-28T10:35:33Z</time></trkpt><trkpt lat="39.94315425790561" lon="9.553791354582891"><ele>379.0</ele><time>2026-03-28T10:35:34Z</time></trkpt><trkpt lat="39.94317532931129" lon="9.553649179452277"><ele>381.6</ele><time>2026-03-28T10:35:35Z</time></trkpt><trkpt lat="39.94318683294451" lon="9.553522498287682"><ele>384.2</ele><time>2026-03-28T10:35:36Z</time></trkpt><trkpt lat="39.94320812290395" lon="9.553417605904665"><ele>386.8</ele><time>2026-03-28T10:35:37Z</time></trkpt><trkpt lat="39.94326306889412" lon="9.553345938457852"><ele>389.40000000000003</ele><time>2026-03-28T10:35:38Z</time></trkpt><trkpt lat="39.943343673788654" lon="9.553288732115895"><ele>392.0</ele><time>2026-03-28T10:35:39Z</time></trkpt><trkpt lat="39.94345575552428" lon="9.55330037833838"><ele>392.0</ele><time>2026-03-28T10:35:40Z</time></trkpt><trkpt lat="39.94356653049724" lon="9.55334401712253"><ele>392.0</ele><time>2026-03-28T10:35:41Z</time></trkpt><trkpt lat="39.94367185323342" lon="9.553378986059005"><ele>392.0</ele><time>2026-03-28T10:35:42Z</time></trkpt><trkpt lat="39.943781890417036" lon="9.55338750233467"><ele>392.0</ele><time>2026-03-28T10:35:43Z</time></trkpt><trkpt lat="39.943893925173185" lon="9.5533719008204"><ele>392.0</ele><time>2026-03-28T10:35:44Z</time></trkpt><trkpt lat="39.944012728784976" lon="9.553344811742296"><ele>392.0</ele><time>2026-03-28T10:35:45Z</time></trkpt><trkpt lat="39.94412804873102" lon="9.553311704145525"><ele>392.0</ele><time>2026-03-28T10:35:46Z</time></trkpt><trkpt lat="39.94422927995833" lon="9.553275457800483"><ele>392.0</ele><time>2026-03-28T10:35:47Z</time></trkpt><trkpt lat="39.94430757938089" lon="9.553213040063538"><ele>392.0</ele><time>2026-03-28T10:35:48Z</time></trkpt><trkpt lat="39.944353448465776" lon="9.553112916652596"><ele>392.0</ele><time>2026-03-28T10:35:49Z</time></trkpt><trkpt lat="39.94435936571953" lon="9.55298828246849"><ele>389.40000000000003</ele><time>2026-03-28T10:35:50Z</time></trkpt><trkpt lat="39.944334353534714" lon="9.552861235330452"><ele>386.8</ele><time>2026-03-28T10:35:51Z</time></trkpt><trkpt lat="39.94429256613168" lon="9.552735035515632"><ele>384.2</ele><time>2026-03-28T10:35:52Z</time></trkpt><trkpt lat="39.94427128398384" lon="9.552599068788913"><ele>381.6</ele><time>2026-03-28T10:35:53Z</time></trkpt><trkpt lat="39.94426943838242" lon="9.552477106062153"><ele>379.0</ele><time>2026-03-28T10:35:54Z</time></trkpt><trkpt lat="39.94429292175908" lon="9.552370781940791"><ele>379.0</ele><time>2026-03-28T10:35:55Z</time></trkpt><trkpt lat="39.94435003938966" lon="9.552287801328665"><ele>379.0</ele><time>2026-03-28T10:35:56Z</time></trkpt><trkpt lat="39.9444099794701" lon="9.552220125502336"><ele>379.0</ele><time>2026-03-28T10:35:57Z</time></trkpt><trkpt lat="39.94447521440887" lon="9.55216765494823"><ele>379.0</ele><time>2026-03-28T10:35:58Z</time></trkpt><trkpt lat="39.94453762835989" lon="9.552129740603736"><ele>379.0</ele><time>2026-03-28T10:35:59Z</time></trkpt><trkpt lat="39.94463186976996" lon="9.552115764298245"><ele>379.0</ele><time>2026-03-28T10:36:01Z</time></trkpt><trkpt lat="39.94466266089781" lon="9.55220755977458"><ele>379.0</ele><time>2026-03-28T10:36:03Z</time></trkpt><trkpt lat="39.944551624776295" lon="9.552231361575068"><ele>379.0</ele><time>2026-03-28T10:36:06Z</time></trkpt><trkpt lat="39.94444365840898" lon="9.552324608493803"><ele>379.0</ele><time>2026-03-28T10:36:08Z</time></trkpt><trkpt lat="39.944389234876674" lon="9.552405335496978"><ele>379.0</ele><time>2026-03-28T10:36:09Z</time></trkpt><trkpt lat="39.94436673464469" lon="9.552520991655724"><ele>379.0</ele><time>2026-03-28T10:36:10Z</time></trkpt><trkpt lat="39.94438514103758" lon="9.552634577366733"><ele>379.0</ele><time>2026-03-28T10:36:11Z</time></trkpt><trkpt lat="39.94443643989171" lon="9.552731216439676"><ele>379.0</ele><time>2026-03-28T10:36:12Z</time></trkpt><trkpt lat="39.944509555171486" lon="9.552783579332063"><ele>379.0</ele><time>2026-03-28T10:36:13Z</time></trkpt><trkpt lat="39.94459921955294" lon="9.552784879125603"><ele>379.0</ele><time>2026-03-28T10:36:14Z</time></trkpt><trkpt lat="39.944702269623804" lon="9.552766346950381"><ele>379.0</ele><time>2026-03-28T10:36:15Z</time></trkpt><trkpt lat="39.94481167977233" lon="9.55274171560588"><ele>379.0</ele><time>2026-03-28T10:36:16Z</time></trkpt><trkpt lat="39.944927189594104" lon="9.552717050497462"><ele>379.0</ele><time>2026-03-28T10:36:17Z</time></trkpt><trkpt lat="39.94504567003085" lon="9.552690691224525"><ele>379.0</ele><time>2026-03-28T10:36:18Z</time></trkpt><trkpt lat="39.945163550331465" lon="9.552667950953612"><ele>379.0</ele><time>2026-03-28T10:36:19Z</time></trkpt><trkpt lat="39.94527946108149" lon="9.552644159639334"><ele>375.5</ele><time>2026-03-28T10:36:20Z</time></trkpt><trkpt lat="39.945389475164774" lon="9.552597566865785"><ele>372.0</ele><time>2026-03-28T10:36:21Z</time></trkpt><trkpt lat="39.94548685317822" lon="9.552515228169549"><ele>368.5</ele><time>2026-03-28T10:36:22Z</time></trkpt><trkpt lat="39.94556868700464" lon="9.552402182365608"><ele>365.0</ele><time>2026-03-28T10:36:23Z</time></trkpt><trkpt lat="39.9456345268027" lon="9.55227209865838"><ele>365.0</ele><time>2026-03-28T10:36:24Z</time></trkpt><trkpt lat="39.94568305580772" lon="9.552134089992235"><ele>365.0</ele><time>2026-03-28T10:36:25Z</time></trkpt><trkpt lat="39.945725239210645" lon="9.55199219517211"><ele>365.0</ele><time>2026-03-28T10:36:26Z</time></trkpt><trkpt lat="39.94576921488881" lon="9.551848329766635"><ele>365.0</ele><time>2026-03-28T10:36:27Z</time></trkpt><trkpt lat="39.945820575326294" lon="9.551708316519862"><ele>367.25</ele><time>2026-03-28T10:36:28Z</time></trkpt><trkpt lat="39.945882358940096" lon="9.551574603058791"><ele>369.5</ele><time>2026-03-28T10:36:29Z</time></trkpt><trkpt lat="39.94595316659423" lon="9.55144136045924"><ele>371.75</ele><time>2026-03-28T10:36:30Z</time></trkpt><trkpt lat="39.94602732925241" lon="9.551307897683312"><ele>374.0</ele><time>2026-03-28T10:36:31Z</time></trkpt><trkpt lat="39.94611649821258" lon="9.551181232474805"><ele>374.0</ele><time>2026-03-28T10:36:32Z</time></trkpt><trkpt lat="39.94621308677338" lon="9.551056215304023"><ele>374.0</ele><time>2026-03-28T10:36:33Z</time></trkpt><trkpt lat="39.94631988099745" lon="9.55094803561959"><ele>374.0</ele><time>2026-03-28T10:36:34Z</time></trkpt><trkpt lat="39.94644196821084" lon="9.550854118619954"><ele>374.0</ele><time>2026-03-28T10:36:35Z</time></trkpt><trkpt lat="39.94657418914256" lon="9.550762196309073"><ele>368.6666666666667</ele><time>2026-03-28T10:36:36Z</time></trkpt><trkpt lat="39.94671865599769" lon="9.550678706982682"><ele>363.3333333333333</ele><time>2026-03-28T10:36:37Z</time></trkpt><trkpt lat="39.94687084593313" lon="9.55061126204134"><ele>358.0</ele><time>2026-03-28T10:36:38Z</time></trkpt><trkpt lat="39.947026289897686" lon="9.550559481335675"><ele>358.0</ele><time>2026-03-28T10:36:39Z</time></trkpt><trkpt lat="39.9471897071345" lon="9.55050944360833"><ele>358.0</ele><time>2026-03-28T10:36:40Z</time></trkpt><trkpt lat="39.947357505689546" lon="9.550451457263545"><ele>358.0</ele><time>2026-03-28T10:36:41Z</time></trkpt><trkpt lat="39.947532486300595" lon="9.550387264059202"><ele>358.66666666666663</ele><time>2026-03-28T10:36:42Z</time></trkpt><trkpt lat="39.94771388460813" lon="9.55032241763307"><ele>359.3333333333333</ele><time>2026-03-28T10:36:43Z</time></trkpt><trkpt lat="39.947906977456725" lon="9.550256287460488"><ele>360.0</ele><time>2026-03-28T10:36:44Z</time></trkpt><trkpt lat="39.94810787951806" lon="9.550189234723856"><ele>360.0</ele><time>2026-03-28T10:36:45Z</time></trkpt><trkpt lat="39.94832278584181" lon="9.550115482663921"><ele>360.0</ele><time>2026-03-28T10:36:46Z</time></trkpt><trkpt lat="39.94854217033348" lon="9.550039627990554"><ele>360.0</ele><time>2026-03-28T10:36:47Z</time></trkpt><trkpt lat="39.94875808382715" lon="9.549964108661225"><ele>358.0</ele><time>2026-03-28T10:36:48Z</time></trkpt><trkpt lat="39.948965437404496" lon="9.549887502586445"><ele>356.0</ele><time>2026-03-28T10:36:49Z</time></trkpt><trkpt lat="39.949167449079575" lon="9.549811283275007"><ele>354.0</ele><time>2026-03-28T10:36:50Z</time></trkpt><trkpt lat="39.94936946900386" lon="9.549741528753659"><ele>354.0</ele><time>2026-03-28T10:36:51Z</time></trkpt><trkpt lat="39.94956826586755" lon="9.549679418789257"><ele>354.0</ele><time>2026-03-28T10:36:52Z</time></trkpt><trkpt lat="39.94975906244123" lon="9.549619152768843"><ele>354.0</ele><time>2026-03-28T10:36:53Z</time></trkpt><trkpt lat="39.9499404909868" lon="9.549562083610686"><ele>350.6666666666667</ele><time>2026-03-28T10:36:54Z</time></trkpt><trkpt lat="39.95011795003127" lon="9.549501446146493"><ele>347.33333333333337</ele><time>2026-03-28T10:36:55Z</time></trkpt><trkpt lat="39.950299617769744" lon="9.549445984099384"><ele>344.0</ele><time>2026-03-28T10:36:56Z</time></trkpt><trkpt lat="39.95048853384095" lon="9.549412250799856"><ele>344.0</ele><time>2026-03-28T10:36:57Z</time></trkpt><trkpt lat="39.950681956852314" lon="9.549399906911217"><ele>344.0</ele><time>2026-03-28T10:36:58Z</time></trkpt><trkpt lat="39.950866785012416" lon="9.549407327211625"><ele>344.0</ele><time>2026-03-28T10:36:59Z</time></trkpt><trkpt lat="39.951058359012485" lon="9.549434331266516"><ele>341.0</ele><time>2026-03-28T10:37:00Z</time></trkpt><trkpt lat="39.95125380554639" lon="9.549461746577233"><ele>338.0</ele><time>2026-03-28T10:37:01Z</time></trkpt><trkpt lat="39.95145460208464" lon="9.549490354627478"><ele>335.0</ele><time>2026-03-28T10:37:02Z</time></trkpt><trkpt lat="39.95166273761443" lon="9.549521135302292"><ele>338.0</ele><time>2026-03-28T10:37:03Z</time></trkpt><trkpt lat="39.95186715682469" lon="9.549557442490576"><ele>341.0</ele><time>2026-03-28T10:37:04Z</time></trkpt><trkpt lat="39.95206106843116" lon="9.54959496609435"><ele>344.0</ele><time>2026-03-28T10:37:05Z</time></trkpt><trkpt lat="39.95224816230149" lon="9.549621585800411"><ele>344.0</ele><time>2026-03-28T10:37:06Z</time></trkpt><trkpt lat="39.95243389130947" lon="9.549625678068164"><ele>344.0</ele><time>2026-03-28T10:37:07Z</time></trkpt><trkpt lat="39.95262432916495" lon="9.549608084561052"><ele>344.0</ele><time>2026-03-28T10:37:08Z</time></trkpt><trkpt lat="39.95281374325631" lon="9.549556331440662"><ele>340.33333333333337</ele><time>2026-03-28T10:37:09Z</time></trkpt><trkpt lat="39.952997215784144" lon="9.549454290714708"><ele>336.6666666666667</ele><time>2026-03-28T10:37:10Z</time></trkpt><trkpt lat="39.95317095962531" lon="9.549335152209252"><ele>333.0</ele><time>2026-03-28T10:37:11Z</time></trkpt><trkpt lat="39.95333665864642" lon="9.54921896231053"><ele>333.6666666666667</ele><time>2026-03-28T10:37:12Z</time></trkpt><trkpt lat="39.95350082769304" lon="9.54910868684879"><ele>334.33333333333337</ele><time>2026-03-28T10:37:13Z</time></trkpt><trkpt lat="39.95366641906567" lon="9.54902253746505"><ele>335.0</ele><time>2026-03-28T10:37:14Z</time></trkpt><trkpt lat="39.95383640826547" lon="9.548973243102557"><ele>335.0</ele><time>2026-03-28T10:37:15Z</time></trkpt><trkpt lat="39.95401307294354" lon="9.548965788738991"><ele>335.0</ele><time>2026-03-28T10:37:16Z</time></trkpt><trkpt lat="39.954189511718496" lon="9.548987951488431"><ele>335.0</ele><time>2026-03-28T10:37:17Z</time></trkpt><trkpt lat="39.95436376719774" lon="9.549043534240418"><ele>333.0</ele><time>2026-03-28T10:37:18Z</time></trkpt><trkpt lat="39.95452256429281" lon="9.549134194013844"><ele>331.0</ele><time>2026-03-28T10:37:19Z</time></trkpt><trkpt lat="39.95466928477342" lon="9.549259149151915"><ele>329.0</ele><time>2026-03-28T10:37:20Z</time></trkpt><trkpt lat="39.95480212035766" lon="9.549410384361627"><ele>328.33333333333337</ele><time>2026-03-28T10:37:21Z</time></trkpt><trkpt lat="39.954912992848854" lon="9.549591760176698"><ele>327.6666666666667</ele><time>2026-03-28T10:37:22Z</time></trkpt><trkpt lat="39.9550006994156" lon="9.549800582355223"><ele>327.0</ele><time>2026-03-28T10:37:23Z</time></trkpt><trkpt lat="39.95506189510363" lon="9.550021660137483"><ele>316.6666666666667</ele><time>2026-03-28T10:37:24Z</time></trkpt><trkpt lat="39.95509628103169" lon="9.550249569109384"><ele>306.33333333333337</ele><time>2026-03-28T10:37:25Z</time></trkpt><trkpt lat="39.95510642920602" lon="9.550474602602792"><ele>296.0</ele><time>2026-03-28T10:37:26Z</time></trkpt><trkpt lat="39.95508746890963" lon="9.550697336121361"><ele>300.33333333333337</ele><time>2026-03-28T10:37:27Z</time></trkpt><trkpt lat="39.95503575406741" lon="9.550911165395544"><ele>304.6666666666667</ele><time>2026-03-28T10:37:28Z</time></trkpt><trkpt lat="39.95495907687359" lon="9.551117300596605"><ele>309.0</ele><time>2026-03-28T10:37:29Z</time></trkpt><trkpt lat="39.95488297550481" lon="9.551324753076795"><ele>309.0</ele><time>2026-03-28T10:37:30Z</time></trkpt><trkpt lat="39.95481611313144" lon="9.55153508966629"><ele>309.0</ele><time>2026-03-28T10:37:31Z</time></trkpt><trkpt lat="39.95474967896789" lon="9.551744340517052"><ele>309.0</ele><time>2026-03-28T10:37:32Z</time></trkpt><trkpt lat="39.95468217891295" lon="9.551951904347863"><ele>306.6666666666667</ele><time>2026-03-28T10:37:33Z</time></trkpt><trkpt lat="39.95461260436425" lon="9.55215917112806"><ele>304.33333333333337</ele><time>2026-03-28T10:37:34Z</time></trkpt><trkpt lat="39.954540002655456" lon="9.552364714041751"><ele>302.0</ele><time>2026-03-28T10:37:35Z</time></trkpt><trkpt lat="39.95446148161686" lon="9.55257028629995"><ele>302.0</ele><time>2026-03-28T10:37:36Z</time></trkpt><trkpt lat="39.95437488401311" lon="9.552774157758744"><ele>302.0</ele><time>2026-03-28T10:37:37Z</time></trkpt><trkpt lat="39.954276646577775" lon="9.552978314273101"><ele>302.0</ele><time>2026-03-28T10:37:38Z</time></trkpt><trkpt lat="39.95416773075397" lon="9.55318167542949"><ele>303.0</ele><time>2026-03-28T10:37:39Z</time></trkpt><trkpt lat="39.95405298894929" lon="9.553385859823946"><ele>304.0</ele><time>2026-03-28T10:37:40Z</time></trkpt><trkpt lat="39.95393752118659" lon="9.553591757204643"><ele>305.0</ele><time>2026-03-28T10:37:41Z</time></trkpt><trkpt lat="39.95382089545398" lon="9.553798072722458"><ele>300.6666666666667</ele><time>2026-03-28T10:37:42Z</time></trkpt><trkpt lat="39.9537062423142" lon="9.553997743663691"><ele>296.3333333333333</ele><time>2026-03-28T10:37:43Z</time></trkpt><trkpt lat="39.953591573532336" lon="9.554198777896703"><ele>292.0</ele><time>2026-03-28T10:37:44Z</time></trkpt><trkpt lat="39.95347772832278" lon="9.554394596848603"><ele>290.3333333333333</ele><time>2026-03-28T10:37:45Z</time></trkpt><trkpt lat="39.95336409980175" lon="9.55458965995387"><ele>288.6666666666667</ele><time>2026-03-28T10:37:46Z</time></trkpt><trkpt lat="39.953250264268476" lon="9.554784429366089"><ele>287.0</ele><time>2026-03-28T10:37:47Z</time></trkpt><trkpt lat="39.95313527795252" lon="9.554979817775896"><ele>287.0</ele><time>2026-03-28T10:37:48Z</time></trkpt><trkpt lat="39.95301894495565" lon="9.555177793744207"><ele>287.0</ele><time>2026-03-28T10:37:49Z</time></trkpt><trkpt lat="39.952898887835254" lon="9.555375205022095"><ele>287.0</ele><time>2026-03-28T10:37:50Z</time></trkpt><trkpt lat="39.95276867206417" lon="9.555560624202503"><ele>287.0</ele><time>2026-03-28T10:37:51Z</time></trkpt><trkpt lat="39.95262290960674" lon="9.555732929195134"><ele>287.0</ele><time>2026-03-28T10:37:52Z</time></trkpt><trkpt lat="39.95246578122593" lon="9.5558940987967"><ele>287.0</ele><time>2026-03-28T10:37:53Z</time></trkpt><trkpt lat="39.95230645888458" lon="9.556054698571927"><ele>281.0</ele><time>2026-03-28T10:37:54Z</time></trkpt><trkpt lat="39.95214994759601" lon="9.55622036403082"><ele>275.0</ele><time>2026-03-28T10:37:55Z</time></trkpt><trkpt lat="39.95199955628889" lon="9.556378937095978"><ele>269.0</ele><time>2026-03-28T10:37:56Z</time></trkpt><trkpt lat="39.95185003228634" lon="9.556536299915257"><ele>272.6666666666667</ele><time>2026-03-28T10:37:57Z</time></trkpt><trkpt lat="39.9517053228481" lon="9.556685806748625"><ele>276.3333333333333</ele><time>2026-03-28T10:37:58Z</time></trkpt><trkpt lat="39.951561347634346" lon="9.55683499933358"><ele>280.0</ele><time>2026-03-28T10:37:59Z</time></trkpt><trkpt lat="39.95142110842472" lon="9.556982340715118"><ele>273.66666666666663</ele><time>2026-03-28T10:38:00Z</time></trkpt><trkpt lat="39.95129140640583" lon="9.557123202557129"><ele>267.3333333333333</ele><time>2026-03-28T10:38:01Z</time></trkpt><trkpt lat="39.95118011758783" lon="9.557263101344548"><ele>261.0</ele><time>2026-03-28T10:38:02Z</time></trkpt><trkpt lat="39.951088659487084" lon="9.557394490908772"><ele>261.0</ele><time>2026-03-28T10:38:03Z</time></trkpt><trkpt lat="39.95101389818698" lon="9.557502797174301"><ele>261.0</ele><time>2026-03-28T10:38:04Z</time></trkpt><trkpt lat="39.950945853272216" lon="9.557593798430519"><ele>261.0</ele><time>2026-03-28T10:38:05Z</time></trkpt><trkpt lat="39.95088748426605" lon="9.5576669911671"><ele>261.0</ele><time>2026-03-28T10:38:06Z</time></trkpt><trkpt lat="39.95083952341757" lon="9.557731216502676"><ele>261.0</ele><time>2026-03-28T10:38:07Z</time></trkpt><trkpt lat="39.950796961204816" lon="9.557791938836852"><ele>261.0</ele><time>2026-03-28T10:38:08Z</time></trkpt><trkpt lat="39.95072085693503" lon="9.557859911199497"><ele>259.8</ele><time>2026-03-28T10:38:10Z</time></trkpt><trkpt lat="39.95086587420869" lon="9.557984163902516"><ele>258.6</ele><time>2026-03-28T10:38:12Z</time></trkpt><trkpt lat="39.950929626292435" lon="9.557953709511963"><ele>257.4</ele><time>2026-03-28T10:38:13Z</time></trkpt><trkpt lat="39.950997566113315" lon="9.557925903464806"><ele>256.2</ele><time>2026-03-28T10:38:14Z</time></trkpt><trkpt lat="39.95107115348722" lon="9.557899929586007"><ele>255.0</ele><time>2026-03-28T10:38:15Z</time></trkpt><trkpt lat="39.95114508684213" lon="9.557884454876584"><ele>256.2</ele><time>2026-03-28T10:38:16Z</time></trkpt><trkpt lat="39.95121068128044" lon="9.557892318059112"><ele>257.4</ele><time>2026-03-28T10:38:17Z</time></trkpt><trkpt lat="39.951316636732564" lon="9.55791839217407"><ele>258.6</ele><time>2026-03-28T10:38:19Z</time></trkpt><trkpt lat="39.951415975631654" lon="9.557879093438922"><ele>259.8</ele><time>2026-03-28T10:38:21Z</time></trkpt><trkpt lat="39.95147425670537" lon="9.557786406380345"><ele>261.0</ele><time>2026-03-28T10:38:23Z</time></trkpt><trkpt lat="39.95152946372676" lon="9.557640499003874"><ele>261.0</ele><time>2026-03-28T10:38:25Z</time></trkpt><trkpt lat="39.95153402887395" lon="9.55754316547547"><ele>261.0</ele><time>2026-03-28T10:38:26Z</time></trkpt><trkpt lat="39.95153666531969" lon="9.557447417598196"><ele>261.0</ele><time>2026-03-28T10:38:27Z</time></trkpt><trkpt lat="39.95154389923793" lon="9.557362276903275"><ele>261.0</ele><time>2026-03-28T10:38:28Z</time></trkpt><trkpt lat="39.95157975155457" lon="9.557211889102199"><ele>261.0</ele><time>2026-03-28T10:38:30Z</time></trkpt><trkpt lat="39.951638257785014" lon="9.557174606411847"><ele>261.0</ele><time>2026-03-28T10:38:31Z</time></trkpt><trkpt lat="39.95170794673288" lon="9.55715892425444"><ele>260.1666666666667</ele><time>2026-03-28T10:38:32Z</time></trkpt><trkpt lat="39.95177619473377" lon="9.557149889090113"><ele>259.3333333333333</ele><time>2026-03-28T10:38:33Z</time></trkpt><trkpt lat="39.95185067247344" lon="9.557125473390373"><ele>258.5</ele><time>2026-03-28T10:38:34Z</time></trkpt><trkpt lat="39.95192808482604" lon="9.557091873941872"><ele>257.66666666666663</ele><time>2026-03-28T10:38:35Z</time></trkpt><trkpt lat="39.95200911584265" lon="9.557062209823822"><ele>256.8333333333333</ele><time>2026-03-28T10:38:36Z</time></trkpt><trkpt lat="39.9520882664758" lon="9.557043024157556"><ele>256.0</ele><time>2026-03-28T10:38:37Z</time></trkpt><trkpt lat="39.95216801416016" lon="9.557031087809225"><ele>255.99999999999997</ele><time>2026-03-28T10:38:38Z</time></trkpt><trkpt lat="39.95224625265646" lon="9.557044564034593"><ele>256.0</ele><time>2026-03-28T10:38:39Z</time></trkpt><trkpt lat="39.9523113384072" lon="9.557099244690296"><ele>256.0</ele><time>2026-03-28T10:38:40Z</time></trkpt><trkpt lat="39.95235438521104" lon="9.557187552005976"><ele>256.0</ele><time>2026-03-28T10:38:41Z</time></trkpt><trkpt lat="39.95237752122351" lon="9.557286113737717"><ele>255.99999999999997</ele><time>2026-03-28T10:38:42Z</time></trkpt><trkpt lat="39.95238142579171" lon="9.557397757407957"><ele>256.0</ele><time>2026-03-28T10:38:43Z</time></trkpt><trkpt lat="39.95238564759176" lon="9.55750575567889"><ele>255.99999999999997</ele><time>2026-03-28T10:38:44Z</time></trkpt><trkpt lat="39.95239509412401" lon="9.5576061969947"><ele>256.0</ele><time>2026-03-28T10:38:45Z</time></trkpt><trkpt lat="39.952431679032166" lon="9.557693653481182"><ele>256.0</ele><time>2026-03-28T10:38:46Z</time></trkpt><trkpt lat="39.95249211308855" lon="9.557759971361637"><ele>256.0</ele><time>2026-03-28T10:38:47Z</time></trkpt><trkpt lat="39.95256485554942" lon="9.557809914998176"><ele>255.99999999999997</ele><time>2026-03-28T10:38:48Z</time></trkpt><trkpt lat="39.95264107194069" lon="9.557865453350443"><ele>256.0</ele><time>2026-03-28T10:38:49Z</time></trkpt><trkpt lat="39.95272034123386" lon="9.557928311171805"><ele>258.40000000000003</ele><time>2026-03-28T10:38:50Z</time></trkpt><trkpt lat="39.952788358568995" lon="9.55801350463825"><ele>260.8</ele><time>2026-03-28T10:38:51Z</time></trkpt><trkpt lat="39.95282493562444" lon="9.558130886656894"><ele>263.20000000000005</ele><time>2026-03-28T10:38:52Z</time></trkpt><trkpt lat="39.95282384796052" lon="9.558260393725147"><ele>265.6</ele><time>2026-03-28T10:38:53Z</time></trkpt><trkpt lat="39.95280073394566" lon="9.558387869702003"><ele>268.0</ele><time>2026-03-28T10:38:54Z</time></trkpt><trkpt lat="39.952783112550335" lon="9.55851126335089"><ele>268.0</ele><time>2026-03-28T10:38:55Z</time></trkpt><trkpt lat="39.952788639292585" lon="9.558630986000306"><ele>268.0</ele><time>2026-03-28T10:38:56Z</time></trkpt><trkpt lat="39.95283491977024" lon="9.558729809949273"><ele>268.0</ele><time>2026-03-28T10:38:57Z</time></trkpt><trkpt lat="39.952915407877974" lon="9.558791660744266"><ele>268.0</ele><time>2026-03-28T10:38:58Z</time></trkpt><trkpt lat="39.95300263365351" lon="9.558856475819884"><ele>268.0</ele><time>2026-03-28T10:38:59Z</time></trkpt><trkpt lat="39.953068184126835" lon="9.558954114741935"><ele>265.6</ele><time>2026-03-28T10:39:00Z</time></trkpt><trkpt lat="39.95311872682306" lon="9.559081285974269"><ele>263.20000000000005</ele><time>2026-03-28T10:39:01Z</time></trkpt><trkpt lat="39.95316086180901" lon="9.559214770397352"><ele>260.8</ele><time>2026-03-28T10:39:02Z</time></trkpt><trkpt lat="39.95320229994791" lon="9.559349448032213"><ele>258.40000000000003</ele><time>2026-03-28T10:39:03Z</time></trkpt><trkpt lat="39.953243448562205" lon="9.559485187845683"><ele>256.0</ele><time>2026-03-28T10:39:04Z</time></trkpt><trkpt lat="39.95328028510944" lon="9.559618646453146"><ele>254.0</ele><time>2026-03-28T10:39:05Z</time></trkpt><trkpt lat="39.95331626974505" lon="9.559742753105901"><ele>252.00000000000003</ele><time>2026-03-28T10:39:06Z</time></trkpt><trkpt lat="39.95335080272526" lon="9.559857361812497"><ele>250.00000000000003</ele><time>2026-03-28T10:39:07Z</time></trkpt><trkpt lat="39.953369883957365" lon="9.559969418379058"><ele>248.0</ele><time>2026-03-28T10:39:08Z</time></trkpt><trkpt lat="39.95335225468167" lon="9.560080026434617"><ele>246.0</ele><time>2026-03-28T10:39:09Z</time></trkpt><trkpt lat="39.953319188820224" lon="9.560175463173875"><ele>246.0</ele><time>2026-03-28T10:39:10Z</time></trkpt><trkpt lat="39.95328876512823" lon="9.56027299301476"><ele>246.0</ele><time>2026-03-28T10:39:11Z</time></trkpt><trkpt lat="39.95325584263344" lon="9.560376362786306"><ele>246.0</ele><time>2026-03-28T10:39:12Z</time></trkpt><trkpt lat="39.95320186507255" lon="9.56046072320193"><ele>246.0</ele><time>2026-03-28T10:39:13Z</time></trkpt><trkpt lat="39.95312788189759" lon="9.560509365595884"><ele>246.0</ele><time>2026-03-28T10:39:14Z</time></trkpt><trkpt lat="39.95304812339726" lon="9.56053505630866"><ele>246.0</ele><time>2026-03-28T10:39:15Z</time></trkpt><trkpt lat="39.952980727542354" lon="9.560575865441617"><ele>245.5</ele><time>2026-03-28T10:39:16Z</time></trkpt><trkpt lat="39.95293051451789" lon="9.560652974747667"><ele>245.0</ele><time>2026-03-28T10:39:17Z</time></trkpt><trkpt lat="39.95290135928473" lon="9.56074504935552"><ele>244.5</ele><time>2026-03-28T10:39:18Z</time></trkpt><trkpt lat="39.95288030552864" lon="9.560842038643168"><ele>244.0</ele><time>2026-03-28T10:39:19Z</time></trkpt><trkpt lat="39.95286966588999" lon="9.560945509183835"><ele>243.5</ele><time>2026-03-28T10:39:20Z</time></trkpt><trkpt lat="39.95287590278702" lon="9.561052548212254"><ele>243.0</ele><time>2026-03-28T10:39:21Z</time></trkpt><trkpt lat="39.95289007633544" lon="9.56115957086387"><ele>239.83333333333334</ele><time>2026-03-28T10:39:22Z</time></trkpt><trkpt lat="39.95291908460207" lon="9.561262269637117"><ele>236.66666666666669</ele><time>2026-03-28T10:39:23Z</time></trkpt><trkpt lat="39.9529733496466" lon="9.56134977840579"><ele>233.5</ele><time>2026-03-28T10:39:24Z</time></trkpt><trkpt lat="39.95304673535049" lon="9.561415157037413"><ele>230.33333333333334</ele><time>2026-03-28T10:39:25Z</time></trkpt><trkpt lat="39.95312776048301" lon="9.561462796966383"><ele>227.16666666666669</ele><time>2026-03-28T10:39:26Z</time></trkpt><trkpt lat="39.95320363675211" lon="9.561520408913523"><ele>224.0</ele><time>2026-03-28T10:39:27Z</time></trkpt><trkpt lat="39.95327273328863" lon="9.56158497480156"><ele>224.00000000000003</ele><time>2026-03-28T10:39:28Z</time></trkpt><trkpt lat="39.95333894605698" lon="9.56164987253774"><ele>224.0</ele><time>2026-03-28T10:39:29Z</time></trkpt><trkpt lat="39.95341062822182" lon="9.561688558679151"><ele>224.0</ele><time>2026-03-28T10:39:30Z</time></trkpt><trkpt lat="39.95348736974095" lon="9.561692013841785"><ele>224.0</ele><time>2026-03-28T10:39:31Z</time></trkpt><trkpt lat="39.95356418858637" lon="9.56166614414951"><ele>224.00000000000003</ele><time>2026-03-28T10:39:32Z</time></trkpt><trkpt lat="39.95363830887869" lon="9.561628966185607"><ele>224.0</ele><time>2026-03-28T10:39:33Z</time></trkpt><trkpt lat="39.953711419440104" lon="9.561599653520243"><ele>224.16666666666669</ele><time>2026-03-28T10:39:34Z</time></trkpt><trkpt lat="39.953786404844536" lon="9.561588805920822"><ele>224.33333333333334</ele><time>2026-03-28T10:39:35Z</time></trkpt><trkpt lat="39.953860063386024" lon="9.561609525826078"><ele>224.5</ele><time>2026-03-28T10:39:36Z</time></trkpt><trkpt lat="39.95391950464139" lon="9.561668939554341"><ele>224.66666666666669</ele><time>2026-03-28T10:39:37Z</time></trkpt><trkpt lat="39.953970043526766" lon="9.561744439247066"><ele>224.83333333333334</ele><time>2026-03-28T10:39:38Z</time></trkpt><trkpt lat="39.95402619354478" lon="9.561804665110296"><ele>225.0</ele><time>2026-03-28T10:39:39Z</time></trkpt><trkpt lat="39.954096235558566" lon="9.56184268543166"><ele>225.0</ele><time>2026-03-28T10:39:40Z</time></trkpt><trkpt lat="39.954170938446985" lon="9.561870454765357"><ele>225.0</ele><time>2026-03-28T10:39:41Z</time></trkpt><trkpt lat="39.954248046883116" lon="9.561883993980949"><ele>225.0</ele><time>2026-03-28T10:39:42Z</time></trkpt><trkpt lat="39.954322338749115" lon="9.561865580747542"><ele>225.0</ele><time>2026-03-28T10:39:43Z</time></trkpt><trkpt lat="39.95439309373383" lon="9.561819932230211"><ele>225.0</ele><time>2026-03-28T10:39:44Z</time></trkpt><trkpt lat="39.95445417372223" lon="9.561749094428425"><ele>225.0</ele><time>2026-03-28T10:39:45Z</time></trkpt><trkpt lat="39.95449830807137" lon="9.561657152397894"><ele>221.66666666666666</ele><time>2026-03-28T10:39:46Z</time></trkpt><trkpt lat="39.95452391006066" lon="9.56155237798957"><ele>218.33333333333331</ele><time>2026-03-28T10:39:47Z</time></trkpt><trkpt lat="39.95456917984397" lon="9.56145860400163"><ele>215.0</ele><time>2026-03-28T10:39:48Z</time></trkpt><trkpt lat="39.95458692105815" lon="9.561359810784788"><ele>211.66666666666666</ele><time>2026-03-28T10:39:49Z</time></trkpt><trkpt lat="39.95464862142099" lon="9.561311026209646"><ele>208.33333333333331</ele><time>2026-03-28T10:39:50Z</time></trkpt><trkpt lat="39.95472172730167" lon="9.56130225053272"><ele>205.0</ele><time>2026-03-28T10:39:51Z</time></trkpt><trkpt lat="39.95480154939205" lon="9.561308956838847"><ele>205.0</ele><time>2026-03-28T10:39:52Z</time></trkpt><trkpt lat="39.95487206033335" lon="9.561296978560037"><ele>205.0</ele><time>2026-03-28T10:39:53Z</time></trkpt><trkpt lat="39.954941711121535" lon="9.561276971731537"><ele>205.0</ele><time>2026-03-28T10:39:54Z</time></trkpt><trkpt lat="39.95500696806542" lon="9.561238993127484"><ele>205.0</ele><time>2026-03-28T10:39:55Z</time></trkpt><trkpt lat="39.955073946814586" lon="9.56120800722306"><ele>205.0</ele><time>2026-03-28T10:39:56Z</time></trkpt><trkpt lat="39.95514315056765" lon="9.561199515319167"><ele>205.0</ele><time>2026-03-28T10:39:57Z</time></trkpt><trkpt lat="39.95521272437604" lon="9.561219598056168"><ele>205.0</ele><time>2026-03-28T10:39:58Z</time></trkpt><trkpt lat="39.955275676266126" lon="9.561264477492495"><ele>202.83333333333331</ele><time>2026-03-28T10:39:59Z</time></trkpt><trkpt lat="39.955330797439295" lon="9.561323757192644"><ele>200.66666666666666</ele><time>2026-03-28T10:40:00Z</time></trkpt><trkpt lat="39.95538271229301" lon="9.56138615995966"><ele>198.5</ele><time>2026-03-28T10:40:01Z</time></trkpt><trkpt lat="39.95543066404227" lon="9.561441015793504"><ele>196.33333333333331</ele><time>2026-03-28T10:40:02Z</time></trkpt><trkpt lat="39.95554037416712" lon="9.561495232225539"><ele>194.16666666666666</ele><time>2026-03-28T10:40:04Z</time></trkpt><trkpt lat="39.95563570510336" lon="9.561468754076659"><ele>192.0</ele><time>2026-03-28T10:40:06Z</time></trkpt><trkpt lat="39.955683621494686" lon="9.56141071043462"><ele>192.0</ele><time>2026-03-28T10:40:08Z</time></trkpt><trkpt lat="39.95572178748809" lon="9.561325563900796"><ele>192.0</ele><time>2026-03-28T10:40:14Z</time></trkpt><trkpt lat="39.955797661755604" lon="9.561178454118187"><ele>192.0</ele><time>2026-03-28T10:40:16Z</time></trkpt><trkpt lat="39.95582918670278" lon="9.561094671617608"><ele>192.0</ele><time>2026-03-28T10:40:17Z</time></trkpt><trkpt lat="39.95585620980704" lon="9.560994033225292"><ele>192.0</ele><time>2026-03-28T10:40:18Z</time></trkpt><trkpt lat="39.955919467285696" lon="9.560913252052016"><ele>192.8</ele><time>2026-03-28T10:40:19Z</time></trkpt><trkpt lat="39.95598249797308" lon="9.560841737345116"><ele>193.6</ele><time>2026-03-28T10:40:20Z</time></trkpt><trkpt lat="39.95605759713361" lon="9.560784885748365"><ele>194.4</ele><time>2026-03-28T10:40:21Z</time></trkpt><trkpt lat="39.95615076309163" lon="9.560764855019373"><ele>195.20000000000002</ele><time>2026-03-28T10:40:22Z</time></trkpt><trkpt lat="39.956245428214956" lon="9.560744333456153"><ele>196.0</ele><time>2026-03-28T10:40:23Z</time></trkpt><trkpt lat="39.9563386153248" lon="9.560711848838835"><ele>196.0</ele><time>2026-03-28T10:40:24Z</time></trkpt><trkpt lat="39.956430883369485" lon="9.560666647993774"><ele>196.0</ele><time>2026-03-28T10:40:25Z</time></trkpt><trkpt lat="39.95652337986664" lon="9.560626293064079"><ele>196.0</ele><time>2026-03-28T10:40:26Z</time></trkpt><trkpt lat="39.9566110750744" lon="9.560594284345694"><ele>196.0</ele><time>2026-03-28T10:40:27Z</time></trkpt><trkpt lat="39.95669710395241" lon="9.560562216661536"><ele>196.0</ele><time>2026-03-28T10:40:28Z</time></trkpt><trkpt lat="39.95678046445178" lon="9.560529140064022"><ele>195.16666666666666</ele><time>2026-03-28T10:40:29Z</time></trkpt><trkpt lat="39.95686591762424" lon="9.560534081772031"><ele>194.33333333333331</ele><time>2026-03-28T10:40:30Z</time></trkpt><trkpt lat="39.956944625816895" lon="9.56057193036543"><ele>193.5</ele><time>2026-03-28T10:40:31Z</time></trkpt><trkpt lat="39.95700747664688" lon="9.560640532527035"><ele>192.66666666666666</ele><time>2026-03-28T10:40:32Z</time></trkpt><trkpt lat="39.95705247755369" lon="9.560729096446556"><ele>191.83333333333331</ele><time>2026-03-28T10:40:33Z</time></trkpt><trkpt lat="39.95709124982117" lon="9.56081288915147"><ele>191.0</ele><time>2026-03-28T10:40:34Z</time></trkpt><trkpt lat="39.95715078075315" lon="9.560884562737678"><ele>191.0</ele><time>2026-03-28T10:40:36Z</time></trkpt><trkpt lat="39.95723963412785" lon="9.560929558972328"><ele>191.0</ele><time>2026-03-28T10:40:39Z</time></trkpt><trkpt lat="39.95735758231328" lon="9.560956153445712"><ele>191.0</ele><time>2026-03-28T10:40:41Z</time></trkpt><trkpt lat="39.9574294407697" lon="9.560965579051992"><ele>191.0</ele><time>2026-03-28T10:40:42Z</time></trkpt><trkpt lat="39.95750851623606" lon="9.560951193548082"><ele>191.0</ele><time>2026-03-28T10:40:43Z</time></trkpt><trkpt lat="39.957586669574276" lon="9.560925521395257"><ele>191.0</ele><time>2026-03-28T10:40:44Z</time></trkpt><trkpt lat="39.95766222529909" lon="9.560886952631158"><ele>187.16666666666666</ele><time>2026-03-28T10:40:45Z</time></trkpt><trkpt lat="39.957728320381015" lon="9.560834481065474"><ele>183.33333333333331</ele><time>2026-03-28T10:40:46Z</time></trkpt><trkpt lat="39.95777926782744" lon="9.560758431201176"><ele>179.5</ele><time>2026-03-28T10:40:47Z</time></trkpt><trkpt lat="39.957830121109225" lon="9.560679429182182"><ele>175.66666666666666</ele><time>2026-03-28T10:40:48Z</time></trkpt><trkpt lat="39.95786094872933" lon="9.560573477864589"><ele>171.83333333333334</ele><time>2026-03-28T10:40:49Z</time></trkpt><trkpt lat="39.95788242183339" lon="9.560469271691966"><ele>168.0</ele><time>2026-03-28T10:40:50Z</time></trkpt><trkpt lat="39.95790240467753" lon="9.560363344490437"><ele>168.0</ele><time>2026-03-28T10:40:51Z</time></trkpt><trkpt lat="39.95790987058959" lon="9.56024772101693"><ele>168.0</ele><time>2026-03-28T10:40:52Z</time></trkpt><trkpt lat="39.95793098806504" lon="9.560137201373363"><ele>168.0</ele><time>2026-03-28T10:40:53Z</time></trkpt><trkpt lat="39.95796203492304" lon="9.56002644131312"><ele>168.0</ele><time>2026-03-28T10:40:54Z</time></trkpt><trkpt lat="39.957964615167086" lon="9.559903367921567"><ele>168.0</ele><time>2026-03-28T10:40:55Z</time></trkpt><trkpt lat="39.95796226111859" lon="9.559790199862578"><ele>168.0</ele><time>2026-03-28T10:40:56Z</time></trkpt><trkpt lat="39.95796413195886" lon="9.559681270966417"><ele>168.0</ele><time>2026-03-28T10:40:57Z</time></trkpt><trkpt lat="39.95797305258512" lon="9.559576793341234"><ele>168.0</ele><time>2026-03-28T10:40:58Z</time></trkpt><trkpt lat="39.95797795538099" lon="9.559480441969287"><ele>168.0</ele><time>2026-03-28T10:40:59Z</time></trkpt><trkpt lat="39.95803676053613" lon="9.559424879197053"><ele>168.0</ele><time>2026-03-28T10:41:00Z</time></trkpt><trkpt lat="39.9580894010354" lon="9.559369222205897"><ele>168.0</ele><time>2026-03-28T10:41:01Z</time></trkpt><trkpt lat="39.9581587104031" lon="9.55936522421903"><ele>168.0</ele><time>2026-03-28T10:41:02Z</time></trkpt><trkpt lat="39.95821640830656" lon="9.559403926268466"><ele>168.0</ele><time>2026-03-28T10:41:03Z</time></trkpt><trkpt lat="39.9582524154439" lon="9.55948299143145"><ele>168.0</ele><time>2026-03-28T10:41:04Z</time></trkpt><trkpt lat="39.95828889757713" lon="9.559563163230017"><ele>168.0</ele><time>2026-03-28T10:41:05Z</time></trkpt><trkpt lat="39.95835098743837" lon="9.559629426925296"><ele>168.0</ele><time>2026-03-28T10:41:06Z</time></trkpt><trkpt lat="39.95842739779257" lon="9.559674525239783"><ele>168.0</ele><time>2026-03-28T10:41:07Z</time></trkpt><trkpt lat="39.95851559432409" lon="9.559699158162655"><ele>168.0</ele><time>2026-03-28T10:41:08Z</time></trkpt><trkpt lat="39.95860853813734" lon="9.559700593502045"><ele>168.0</ele><time>2026-03-28T10:41:09Z</time></trkpt><trkpt lat="39.95870315638612" lon="9.559675394491068"><ele>165.20000000000002</ele><time>2026-03-28T10:41:10Z</time></trkpt><trkpt lat="39.95879660543463" lon="9.559648989705448"><ele>162.4</ele><time>2026-03-28T10:41:11Z</time></trkpt><trkpt lat="39.95888923439721" lon="9.559628335679363"><ele>159.60000000000002</ele><time>2026-03-28T10:41:12Z</time></trkpt><trkpt lat="39.95898262652149" lon="9.559606926340543"><ele>156.8</ele><time>2026-03-28T10:41:13Z</time></trkpt><trkpt lat="39.95907194867401" lon="9.55958356919151"><ele>154.0</ele><time>2026-03-28T10:41:14Z</time></trkpt><trkpt lat="39.959154142669256" lon="9.559562401520418"><ele>150.0</ele><time>2026-03-28T10:41:15Z</time></trkpt><trkpt lat="39.95922667661921" lon="9.55951911257177"><ele>146.0</ele><time>2026-03-28T10:41:16Z</time></trkpt><trkpt lat="39.95928201709574" lon="9.559451583970711"><ele>142.0</ele><time>2026-03-28T10:41:17Z</time></trkpt><trkpt lat="39.95933147217169" lon="9.559378689654187"><ele>138.0</ele><time>2026-03-28T10:41:18Z</time></trkpt><trkpt lat="39.95934960685628" lon="9.559275290593783"><ele>134.0</ele><time>2026-03-28T10:41:19Z</time></trkpt><trkpt lat="39.95934910484827" lon="9.559161292744626"><ele>130.0</ele><time>2026-03-28T10:41:20Z</time></trkpt><trkpt lat="39.959347799270574" lon="9.559046137933224"><ele>130.0</ele><time>2026-03-28T10:41:21Z</time></trkpt><trkpt lat="39.95934601719787" lon="9.558932204120412"><ele>130.0</ele><time>2026-03-28T10:41:22Z</time></trkpt><trkpt lat="39.95934379087315" lon="9.55881822074299"><ele>130.0</ele><time>2026-03-28T10:41:23Z</time></trkpt><trkpt lat="39.95934104613993" lon="9.55870426143473"><ele>130.0</ele><time>2026-03-28T10:41:24Z</time></trkpt><trkpt lat="39.9593398611419" lon="9.558590151072563"><ele>130.0</ele><time>2026-03-28T10:41:25Z</time></trkpt><trkpt lat="39.959339521892744" lon="9.55847422167586"><ele>130.0</ele><time>2026-03-28T10:41:26Z</time></trkpt><trkpt lat="39.959331270303686" lon="9.558356580970546"><ele>129.0</ele><time>2026-03-28T10:41:27Z</time></trkpt><trkpt lat="39.95930775177982" lon="9.558240369245214"><ele>128.0</ele><time>2026-03-28T10:41:28Z</time></trkpt><trkpt lat="39.95927513357972" lon="9.558129102770595"><ele>127.0</ele><time>2026-03-28T10:41:29Z</time></trkpt><trkpt lat="39.959243062401484" lon="9.558015688559925"><ele>126.0</ele><time>2026-03-28T10:41:30Z</time></trkpt><trkpt lat="39.959210706445894" lon="9.557898713031172"><ele>125.0</ele><time>2026-03-28T10:41:31Z</time></trkpt><trkpt lat="39.959177018640005" lon="9.557778724297481"><ele>133.6</ele><time>2026-03-28T10:41:32Z</time></trkpt><trkpt lat="39.95914329464045" lon="9.557659559647034"><ele>142.2</ele><time>2026-03-28T10:41:33Z</time></trkpt><trkpt lat="39.95911025178169" lon="9.557542802016293"><ele>150.8</ele><time>2026-03-28T10:41:34Z</time></trkpt><trkpt lat="39.95907645000136" lon="9.557426770276555"><ele>159.4</ele><time>2026-03-28T10:41:35Z</time></trkpt><trkpt lat="39.95904247918994" lon="9.557313693815095"><ele>168.0</ele><time>2026-03-28T10:41:36Z</time></trkpt><trkpt lat="39.95901008376721" lon="9.55720358374458"><ele>168.0</ele><time>2026-03-28T10:41:37Z</time></trkpt><trkpt lat="39.95897854450205" lon="9.5570939619544"><ele>168.0</ele><time>2026-03-28T10:41:38Z</time></trkpt><trkpt lat="39.95894338168866" lon="9.556996825909062"><ele>168.0</ele><time>2026-03-28T10:41:39Z</time></trkpt><trkpt lat="39.95890929841825" lon="9.556913209254107"><ele>168.0</ele><time>2026-03-28T10:41:40Z</time></trkpt><trkpt lat="39.95887558569281" lon="9.556792567761237"><ele>168.0</ele><time>2026-03-28T10:41:42Z</time></trkpt><trkpt lat="39.958872061149066" lon="9.55669568172245"><ele>168.0</ele><time>2026-03-28T10:41:44Z</time></trkpt><trkpt lat="39.95889070434696" lon="9.556582928959982"><ele>168.16666666666666</ele><time>2026-03-28T10:41:46Z</time></trkpt><trkpt lat="39.95895589944461" lon="9.5564519856757"><ele>168.33333333333334</ele><time>2026-03-28T10:41:48Z</time></trkpt><trkpt lat="39.95903020191856" lon="9.55642389225531"><ele>168.5</ele><time>2026-03-28T10:41:49Z</time></trkpt><trkpt lat="39.959108003569" lon="9.556428934609604"><ele>168.66666666666669</ele><time>2026-03-28T10:41:50Z</time></trkpt><trkpt lat="39.95918541551692" lon="9.556444994928473"><ele>168.83333333333334</ele><time>2026-03-28T10:41:51Z</time></trkpt><trkpt lat="39.95926745729917" lon="9.55644755054381"><ele>169.0</ele><time>2026-03-28T10:41:52Z</time></trkpt><trkpt lat="39.9593512450966" lon="9.556450042965405"><ele>164.16666666666669</ele><time>2026-03-28T10:41:53Z</time></trkpt><trkpt lat="39.959437116449095" lon="9.55645010093373"><ele>159.33333333333334</ele><time>2026-03-28T10:41:54Z</time></trkpt><trkpt lat="39.95952180734047" lon="9.556430593391168"><ele>154.5</ele><time>2026-03-28T10:41:55Z</time></trkpt><trkpt lat="39.95960127382397" lon="9.5563950659562"><ele>149.66666666666666</ele><time>2026-03-28T10:41:56Z</time></trkpt><trkpt lat="39.95967609580178" lon="9.556349612336145"><ele>144.83333333333331</ele><time>2026-03-28T10:41:57Z</time></trkpt><trkpt lat="39.95974594301477" lon="9.556287122035563"><ele>140.0</ele><time>2026-03-28T10:41:58Z</time></trkpt><trkpt lat="39.959810764709644" lon="9.556211566016307"><ele>139.16666666666666</ele><time>2026-03-28T10:41:59Z</time></trkpt><trkpt lat="39.95987406886139" lon="9.55613215394397"><ele>138.33333333333331</ele><time>2026-03-28T10:42:00Z</time></trkpt><trkpt lat="39.959940403301694" lon="9.556055259385648"><ele>137.5</ele><time>2026-03-28T10:42:01Z</time></trkpt><trkpt lat="39.9600041835069" lon="9.555978362168869"><ele>136.66666666666666</ele><time>2026-03-28T10:42:02Z</time></trkpt><trkpt lat="39.96007203860204" lon="9.555906048267113"><ele>135.83333333333334</ele><time>2026-03-28T10:42:03Z</time></trkpt><trkpt lat="39.96014544362871" lon="9.555845371278773"><ele>135.0</ele><time>2026-03-28T10:42:04Z</time></trkpt><trkpt lat="39.960222670022944" lon="9.555798453908436"><ele>135.0</ele><time>2026-03-28T10:42:05Z</time></trkpt><trkpt lat="39.96029437040535" lon="9.555742580526239"><ele>135.0</ele><time>2026-03-28T10:42:06Z</time></trkpt><trkpt lat="39.960355980294615" lon="9.555665346205041"><ele>135.0</ele><time>2026-03-28T10:42:07Z</time></trkpt><trkpt lat="39.96040358914969" lon="9.555568120896561"><ele>135.0</ele><time>2026-03-28T10:42:08Z</time></trkpt><trkpt lat="39.960456585666975" lon="9.555468859591207"><ele>135.0</ele><time>2026-03-28T10:42:09Z</time></trkpt><trkpt lat="39.96048115982366" lon="9.555350034437998"><ele>135.0</ele><time>2026-03-28T10:42:10Z</time></trkpt><trkpt lat="39.9604777349732" lon="9.555222302884891"><ele>136.8</ele><time>2026-03-28T10:42:11Z</time></trkpt><trkpt lat="39.96044922617311" lon="9.555096456745703"><ele>138.6</ele><time>2026-03-28T10:42:12Z</time></trkpt><trkpt lat="39.96039602517354" lon="9.554979780421702"><ele>140.4</ele><time>2026-03-28T10:42:13Z</time></trkpt><trkpt lat="39.96034802873064" lon="9.554876936227094"><ele>142.2</ele><time>2026-03-28T10:42:14Z</time></trkpt><trkpt lat="39.96030941681679" lon="9.554770249415192"><ele>144.0</ele><time>2026-03-28T10:42:15Z</time></trkpt><trkpt lat="39.96027772605287" lon="9.554659738102389"><ele>144.0</ele><time>2026-03-28T10:42:16Z</time></trkpt><trkpt lat="39.960258837619534" lon="9.554538950895983"><ele>144.0</ele><time>2026-03-28T10:42:17Z</time></trkpt><trkpt lat="39.960255880265365" lon="9.554415979386766"><ele>144.0</ele><time>2026-03-28T10:42:18Z</time></trkpt><trkpt lat="39.960255364161384" lon="9.554290098796779"><ele>144.0</ele><time>2026-03-28T10:42:19Z</time></trkpt><trkpt lat="39.96025656508047" lon="9.554159667453954"><ele>144.0</ele><time>2026-03-28T10:42:20Z</time></trkpt><trkpt lat="39.960257776391074" lon="9.554028107300985"><ele>143.0</ele><time>2026-03-28T10:42:21Z</time></trkpt><trkpt lat="39.96025902930464" lon="9.553896233897973"><ele>142.0</ele><time>2026-03-28T10:42:22Z</time></trkpt><trkpt lat="39.96026055028713" lon="9.553771414344272"><ele>141.0</ele><time>2026-03-28T10:42:23Z</time></trkpt><trkpt lat="39.96024785099955" lon="9.553653278029666"><ele>140.0</ele><time>2026-03-28T10:42:24Z</time></trkpt><trkpt lat="39.96022000418552" lon="9.553545440904347"><ele>139.0</ele><time>2026-03-28T10:42:25Z</time></trkpt><trkpt lat="39.960161794966886" lon="9.55345692911872"><ele>139.0</ele><time>2026-03-28T10:42:26Z</time></trkpt><trkpt lat="39.960068031779834" lon="9.553428912169359"><ele>139.0</ele><time>2026-03-28T10:42:27Z</time></trkpt><trkpt lat="39.95998269207615" lon="9.553381377269472"><ele>139.0</ele><time>2026-03-28T10:42:28Z</time></trkpt><trkpt lat="39.959889661552424" lon="9.553362379254786"><ele>139.0</ele><time>2026-03-28T10:42:29Z</time></trkpt><trkpt lat="39.95979442311121" lon="9.553343305671333"><ele>139.0</ele><time>2026-03-28T10:42:30Z</time></trkpt><trkpt lat="39.95969833326507" lon="9.55332241409923"><ele>142.8</ele><time>2026-03-28T10:42:31Z</time></trkpt><trkpt lat="39.95960219418752" lon="9.553300673865301"><ele>146.60000000000002</ele><time>2026-03-28T10:42:32Z</time></trkpt><trkpt lat="39.959504255841765" lon="9.553278013613335"><ele>150.4</ele><time>2026-03-28T10:42:33Z</time></trkpt><trkpt lat="39.959408663553404" lon="9.553255896208656"><ele>154.20000000000002</ele><time>2026-03-28T10:42:34Z</time></trkpt><trkpt lat="39.95931373543619" lon="9.553231147459748"><ele>158.0</ele><time>2026-03-28T10:42:35Z</time></trkpt><trkpt lat="39.959219124328456" lon="9.553203728745041"><ele>160.60000000000002</ele><time>2026-03-28T10:42:36Z</time></trkpt><trkpt lat="39.95912853306434" lon="9.55317167209961"><ele>163.20000000000002</ele><time>2026-03-28T10:42:37Z</time></trkpt><trkpt lat="39.95904894697501" lon="9.553114651972251"><ele>165.8</ele><time>2026-03-28T10:42:38Z</time></trkpt><trkpt lat="39.95898314686711" lon="9.553026801440582"><ele>168.4</ele><time>2026-03-28T10:42:39Z</time></trkpt><trkpt lat="39.958907954677315" lon="9.552959219444226"><ele>171.0</ele><time>2026-03-28T10:42:40Z</time></trkpt><trkpt lat="39.95882801144853" lon="9.5528969571964"><ele>165.0</ele><time>2026-03-28T10:42:41Z</time></trkpt><trkpt lat="39.95874414840974" lon="9.552841437808741"><ele>159.0</ele><time>2026-03-28T10:42:42Z</time></trkpt><trkpt lat="39.95865465205695" lon="9.552798982519029"><ele>153.0</ele><time>2026-03-28T10:42:43Z</time></trkpt><trkpt lat="39.95856339425383" lon="9.552767714883553"><ele>147.0</ele><time>2026-03-28T10:42:44Z</time></trkpt><trkpt lat="39.95847101462536" lon="9.552744520451977"><ele>141.0</ele><time>2026-03-28T10:42:45Z</time></trkpt><trkpt lat="39.95838125001529" lon="9.552723750302334"><ele>144.0</ele><time>2026-03-28T10:42:46Z</time></trkpt><trkpt lat="39.95829520786266" lon="9.552707691752438"><ele>147.0</ele><time>2026-03-28T10:42:47Z</time></trkpt><trkpt lat="39.95822105717143" lon="9.552692098739618"><ele>150.0</ele><time>2026-03-28T10:42:48Z</time></trkpt><trkpt lat="39.958158449711604" lon="9.552655975213515"><ele>153.0</ele><time>2026-03-28T10:42:49Z</time></trkpt><trkpt lat="39.958114362032916" lon="9.55251848577284"><ele>156.0</ele><time>2026-03-28T10:42:51Z</time></trkpt><trkpt lat="39.95811414746556" lon="9.552412070688117"><ele>159.0</ele><time>2026-03-28T10:42:52Z</time></trkpt><trkpt lat="39.958085544773155" lon="9.552306184332219"><ele>159.0</ele><time>2026-03-28T10:42:53Z</time></trkpt><trkpt lat="39.95804797012328" lon="9.552196557134755"><ele>159.0</ele><time>2026-03-28T10:42:54Z</time></trkpt><trkpt lat="39.95801307223254" lon="9.552075109291666"><ele>159.0</ele><time>2026-03-28T10:42:55Z</time></trkpt><trkpt lat="39.95796356970453" lon="9.551966207945336"><ele>159.0</ele><time>2026-03-28T10:42:56Z</time></trkpt><trkpt lat="39.957907670152004" lon="9.551864553137625"><ele>159.0</ele><time>2026-03-28T10:42:57Z</time></trkpt><trkpt lat="39.95784295894414" lon="9.551776536542784"><ele>155.5</ele><time>2026-03-28T10:42:58Z</time></trkpt><trkpt lat="39.95777304473515" lon="9.551703642483968"><ele>152.0</ele><time>2026-03-28T10:42:59Z</time></trkpt><trkpt lat="39.9577014603109" lon="9.551658928961128"><ele>148.5</ele><time>2026-03-28T10:43:00Z</time></trkpt><trkpt lat="39.95763517218019" lon="9.551537595674409"><ele>145.0</ele><time>2026-03-28T10:43:02Z</time></trkpt><trkpt lat="39.957661375723944" lon="9.551436437726913"><ele>141.5</ele><time>2026-03-28T10:43:03Z</time></trkpt><trkpt lat="39.95771440240502" lon="9.551353621743381"><ele>138.0</ele><time>2026-03-28T10:43:04Z</time></trkpt><trkpt lat="39.95775710101473" lon="9.551251857448285"><ele>139.0</ele><time>2026-03-28T10:43:05Z</time></trkpt><trkpt lat="39.95781000679123" lon="9.551154355024101"><ele>140.0</ele><time>2026-03-28T10:43:06Z</time></trkpt><trkpt lat="39.95782575070431" lon="9.551037518544502"><ele>141.0</ele><time>2026-03-28T10:43:07Z</time></trkpt><trkpt lat="39.95782343645812" lon="9.550924784422518"><ele>142.0</ele><time>2026-03-28T10:43:08Z</time></trkpt><trkpt lat="39.957781654466324" lon="9.550823054977304"><ele>143.0</ele><time>2026-03-28T10:43:09Z</time></trkpt><trkpt lat="39.95776879764197" lon="9.550737565715766"><ele>144.0</ele><time>2026-03-28T10:43:10Z</time></trkpt><trkpt lat="39.9577764934694" lon="9.550652584706379"><ele>144.0</ele><time>2026-03-28T10:43:11Z</time></trkpt><trkpt lat="39.95782547605773" lon="9.550588344203113"><ele>144.0</ele><time>2026-03-28T10:43:12Z</time></trkpt><trkpt lat="39.95788436324283" lon="9.550518550663387"><ele>144.0</ele><time>2026-03-28T10:43:13Z</time></trkpt><trkpt lat="39.95796458455978" lon="9.550466373650503"><ele>144.0</ele><time>2026-03-28T10:43:14Z</time></trkpt><trkpt lat="39.95805360215529" lon="9.550408653258454"><ele>144.0</ele><time>2026-03-28T10:43:15Z</time></trkpt><trkpt lat="39.958135335544696" lon="9.55033156853703"><ele>144.0</ele><time>2026-03-28T10:43:16Z</time></trkpt><trkpt lat="39.958206064080045" lon="9.55023313593433"><ele>143.2</ele><time>2026-03-28T10:43:17Z</time></trkpt><trkpt lat="39.958286951938994" lon="9.550151938363669"><ele>142.4</ele><time>2026-03-28T10:43:18Z</time></trkpt><trkpt lat="39.958364352657085" lon="9.550063880840584"><ele>141.6</ele><time>2026-03-28T10:43:19Z</time></trkpt><trkpt lat="39.958452935744766" lon="9.550000865558594"><ele>140.8</ele><time>2026-03-28T10:43:20Z</time></trkpt><trkpt lat="39.958525255377" lon="9.549925127426105"><ele>140.0</ele><time>2026-03-28T10:43:21Z</time></trkpt><trkpt lat="39.95860407885359" lon="9.549885227170734"><ele>140.0</ele><time>2026-03-28T10:43:22Z</time></trkpt><trkpt lat="39.95866730456658" lon="9.549824877152048"><ele>140.0</ele><time>2026-03-28T10:43:23Z</time></trkpt><trkpt lat="39.95869555130879" lon="9.549737764507947"><ele>140.0</ele><time>2026-03-28T10:43:24Z</time></trkpt><trkpt lat="39.95868241216581" lon="9.549649940226764"><ele>140.0</ele><time>2026-03-28T10:43:25Z</time></trkpt><trkpt lat="39.95863736423471" lon="9.54957321296255"><ele>140.0</ele><time>2026-03-28T10:43:26Z</time></trkpt><trkpt lat="39.95859041524158" lon="9.54948291275327"><ele>140.0</ele><time>2026-03-28T10:43:27Z</time></trkpt><trkpt lat="39.95851982685433" lon="9.549408594588172"><ele>140.66666666666666</ele><time>2026-03-28T10:43:28Z</time></trkpt><trkpt lat="39.95845490230958" lon="9.54933583723265"><ele>141.33333333333331</ele><time>2026-03-28T10:43:29Z</time></trkpt><trkpt lat="39.95840342550923" lon="9.54925728446957"><ele>142.0</ele><time>2026-03-28T10:43:30Z</time></trkpt><trkpt lat="39.95837165970417" lon="9.549170251387721"><ele>142.66666666666666</ele><time>2026-03-28T10:43:31Z</time></trkpt><trkpt lat="39.958353172710304" lon="9.549070348242822"><ele>143.33333333333334</ele><time>2026-03-28T10:43:32Z</time></trkpt><trkpt lat="39.95834750411321" lon="9.54896024084568"><ele>144.0</ele><time>2026-03-28T10:43:33Z</time></trkpt><trkpt lat="39.95835448522781" lon="9.548850860237803"><ele>144.0</ele><time>2026-03-28T10:43:34Z</time></trkpt><trkpt lat="39.95837116216524" lon="9.548748468284476"><ele>144.0</ele><time>2026-03-28T10:43:35Z</time></trkpt><trkpt lat="39.958394689901866" lon="9.548654241331487"><ele>144.0</ele><time>2026-03-28T10:43:36Z</time></trkpt><trkpt lat="39.95844943279413" lon="9.548575944435306"><ele>144.0</ele><time>2026-03-28T10:43:37Z</time></trkpt><trkpt lat="39.958510462812185" lon="9.548500664311057"><ele>144.0</ele><time>2026-03-28T10:43:38Z</time></trkpt><trkpt lat="39.958571998110415" lon="9.548420985376454"><ele>144.0</ele><time>2026-03-28T10:43:39Z</time></trkpt><trkpt lat="39.95863530459753" lon="9.548336970949498"><ele>144.83333333333334</ele><time>2026-03-28T10:43:40Z</time></trkpt><trkpt lat="39.95870047998896" lon="9.548251854042908"><ele>145.66666666666666</ele><time>2026-03-28T10:43:41Z</time></trkpt><trkpt lat="39.958768377030445" lon="9.548165040492195"><ele>146.5</ele><time>2026-03-28T10:43:42Z</time></trkpt><trkpt lat="39.95884542852065" lon="9.548096517406323"><ele>147.33333333333331</ele><time>2026-03-28T10:43:43Z</time></trkpt><trkpt lat="39.95890396873231" lon="9.548023328098752"><ele>148.16666666666666</ele><time>2026-03-28T10:43:44Z</time></trkpt><trkpt lat="39.95895954316487" lon="9.547977701933"><ele>149.0</ele><time>2026-03-28T10:43:45Z</time></trkpt><trkpt lat="39.95907311446276" lon="9.547968592101531"><ele>149.0</ele><time>2026-03-28T10:43:47Z</time></trkpt><trkpt lat="39.95916427798232" lon="9.548051713938674"><ele>149.0</ele><time>2026-03-28T10:43:49Z</time></trkpt><trkpt lat="39.95927453646031" lon="9.548140169107253"><ele>149.0</ele><time>2026-03-28T10:43:51Z</time></trkpt><trkpt lat="39.95933545612411" lon="9.548192067011362"><ele>149.0</ele><time>2026-03-28T10:43:52Z</time></trkpt><trkpt lat="39.95940019573891" lon="9.548226976803265"><ele>149.0</ele><time>2026-03-28T10:43:53Z</time></trkpt><trkpt lat="39.95951745434601" lon="9.54816189716831"><ele>151.5</ele><time>2026-03-28T10:43:55Z</time></trkpt><trkpt lat="39.95957080982239" lon="9.54808231687525"><ele>154.0</ele><time>2026-03-28T10:43:56Z</time></trkpt><trkpt lat="39.95962537137441" lon="9.54800155847632"><ele>156.5</ele><time>2026-03-28T10:43:57Z</time></trkpt><trkpt lat="39.959677466501674" lon="9.547908770387455"><ele>159.0</ele><time>2026-03-28T10:43:58Z</time></trkpt><trkpt lat="39.959721176842066" lon="9.54780480409648"><ele>161.5</ele><time>2026-03-28T10:43:59Z</time></trkpt><trkpt lat="39.959756370372126" lon="9.547694308144575"><ele>164.0</ele><time>2026-03-28T10:44:00Z</time></trkpt><trkpt lat="39.95981195550764" lon="9.54759088343614"><ele>164.0</ele><time>2026-03-28T10:44:01Z</time></trkpt><trkpt lat="39.95985733402019" lon="9.547474625028169"><ele>164.0</ele><time>2026-03-28T10:44:02Z</time></trkpt><trkpt lat="39.95989512862064" lon="9.54735076411045"><ele>164.0</ele><time>2026-03-28T10:44:03Z</time></trkpt><trkpt lat="39.95991624602343" lon="9.547210518174229"><ele>164.0</ele><time>2026-03-28T10:44:04Z</time></trkpt><trkpt lat="39.95991779018503" lon="9.547062875827788"><ele>164.0</ele><time>2026-03-28T10:44:05Z</time></trkpt><trkpt lat="39.959910961806855" lon="9.546924875921068"><ele>164.6</ele><time>2026-03-28T10:44:06Z</time></trkpt><trkpt lat="39.959904137210444" lon="9.54679326544607"><ele>165.2</ele><time>2026-03-28T10:44:07Z</time></trkpt><trkpt lat="39.959901169513216" lon="9.546657392716895"><ele>165.79999999999998</ele><time>2026-03-28T10:44:08Z</time></trkpt><trkpt lat="39.95989869008508" lon="9.546515785254126"><ele>166.39999999999998</ele><time>2026-03-28T10:44:09Z</time></trkpt><trkpt lat="39.95989639405913" lon="9.54636854597222"><ele>167.0</ele><time>2026-03-28T10:44:10Z</time></trkpt><trkpt lat="39.95989454868022" lon="9.546218393649148"><ele>167.75</ele><time>2026-03-28T10:44:11Z</time></trkpt><trkpt lat="39.95989566764165" lon="9.546065628973233"><ele>168.5</ele><time>2026-03-28T10:44:12Z</time></trkpt><trkpt lat="39.9598952812218" lon="9.545906127169534"><ele>169.25</ele><time>2026-03-28T10:44:13Z</time></trkpt><trkpt lat="39.95987818082375" lon="9.545745872463042"><ele>170.0</ele><time>2026-03-28T10:44:14Z</time></trkpt><trkpt lat="39.959850892511206" lon="9.545593432957258"><ele>170.0</ele><time>2026-03-28T10:44:15Z</time></trkpt><trkpt lat="39.95982330239969" lon="9.545443338684478"><ele>170.0</ele><time>2026-03-28T10:44:16Z</time></trkpt><trkpt lat="39.95980244508662" lon="9.545292760039601"><ele>170.0</ele><time>2026-03-28T10:44:17Z</time></trkpt><trkpt lat="39.95978773262164" lon="9.545135677893352"><ele>170.0</ele><time>2026-03-28T10:44:18Z</time></trkpt><trkpt lat="39.95979326553503" lon="9.544982422960455"><ele>169.75</ele><time>2026-03-28T10:44:19Z</time></trkpt><trkpt lat="39.95982265118235" lon="9.544835451597963"><ele>169.5</ele><time>2026-03-28T10:44:20Z</time></trkpt><trkpt lat="39.959850299265895" lon="9.54467887646342"><ele>169.25</ele><time>2026-03-28T10:44:21Z</time></trkpt><trkpt lat="39.95987452395434" lon="9.544523380016875"><ele>169.0</ele><time>2026-03-28T10:44:22Z</time></trkpt><trkpt lat="39.959891391000845" lon="9.544374922073454"><ele>169.0</ele><time>2026-03-28T10:44:23Z</time></trkpt><trkpt lat="39.95989706115853" lon="9.54422963662042"><ele>169.0</ele><time>2026-03-28T10:44:24Z</time></trkpt><trkpt lat="39.95986837053845" lon="9.544088155196198"><ele>169.0</ele><time>2026-03-28T10:44:25Z</time></trkpt><trkpt lat="39.95984696680788" lon="9.543966536521665"><ele>169.0</ele><time>2026-03-28T10:44:26Z</time></trkpt><trkpt lat="39.95983511023593" lon="9.543860670718542"><ele>169.0</ele><time>2026-03-28T10:44:27Z</time></trkpt><trkpt lat="39.95984438765643" lon="9.543767249806859"><ele>168.33333333333334</ele><time>2026-03-28T10:44:28Z</time></trkpt><trkpt lat="39.95990592930178" lon="9.54371262489273"><ele>167.66666666666669</ele><time>2026-03-28T10:44:29Z</time></trkpt><trkpt lat="39.95998514070823" lon="9.543699957639035"><ele>167.0</ele><time>2026-03-28T10:44:30Z</time></trkpt><trkpt lat="39.96006911610704" lon="9.543733559551765"><ele>166.33333333333334</ele><time>2026-03-28T10:44:31Z</time></trkpt><trkpt lat="39.96014994639754" lon="9.543795860029183"><ele>165.66666666666666</ele><time>2026-03-28T10:44:32Z</time></trkpt><trkpt lat="39.96023375197964" lon="9.543846684277653"><ele>165.0</ele><time>2026-03-28T10:44:33Z</time></trkpt><trkpt lat="39.96032037694039" lon="9.543870558857463"><ele>166.66666666666666</ele><time>2026-03-28T10:44:34Z</time></trkpt><trkpt lat="39.960406658438586" lon="9.543888848823427"><ele>168.33333333333334</ele><time>2026-03-28T10:44:35Z</time></trkpt><trkpt lat="39.96048896517642" lon="9.543882886351552"><ele>170.0</ele><time>2026-03-28T10:44:36Z</time></trkpt><trkpt lat="39.96056828492314" lon="9.543864737032207"><ele>171.66666666666669</ele><time>2026-03-28T10:44:37Z</time></trkpt><trkpt lat="39.96061922360908" lon="9.543773788256564"><ele>173.33333333333334</ele><time>2026-03-28T10:44:38Z</time></trkpt><trkpt lat="39.96064356940922" lon="9.543677223705867"><ele>175.0</ele><time>2026-03-28T10:44:39Z</time></trkpt><trkpt lat="39.96067034203174" lon="9.543581177551482"><ele>175.0</ele><time>2026-03-28T10:44:40Z</time></trkpt><trkpt lat="39.96069900210263" lon="9.543475476048261"><ele>175.0</ele><time>2026-03-28T10:44:41Z</time></trkpt><trkpt lat="39.960728317111794" lon="9.543359253670047"><ele>175.0</ele><time>2026-03-28T10:44:42Z</time></trkpt><trkpt lat="39.96075895920563" lon="9.543233448142717"><ele>175.0</ele><time>2026-03-28T10:44:43Z</time></trkpt><trkpt lat="39.96078522080575" lon="9.54310183031956"><ele>175.0</ele><time>2026-03-28T10:44:44Z</time></trkpt><trkpt lat="39.96080595466568" lon="9.54297080998216"><ele>174.66666666666669</ele><time>2026-03-28T10:44:45Z</time></trkpt><trkpt lat="39.96082572524125" lon="9.54286384164397"><ele>174.33333333333334</ele><time>2026-03-28T10:44:46Z</time></trkpt><trkpt lat="39.96084942217624" lon="9.542779235026893"><ele>174.0</ele><time>2026-03-28T10:44:47Z</time></trkpt><trkpt lat="39.96090596893991" lon="9.542700323376806"><ele>173.66666666666666</ele><time>2026-03-28T10:44:49Z</time></trkpt><trkpt lat="39.96098001541958" lon="9.542695359646844"><ele>173.33333333333331</ele><time>2026-03-28T10:44:50Z</time></trkpt><trkpt lat="39.96107021811123" lon="9.542734559401616"><ele>173.0</ele><time>2026-03-28T10:44:51Z</time></trkpt><trkpt lat="39.961159923591445" lon="9.542782092959799"><ele>175.0</ele><time>2026-03-28T10:44:52Z</time></trkpt><trkpt lat="39.96125647282096" lon="9.542829334092389"><ele>177.0</ele><time>2026-03-28T10:44:53Z</time></trkpt><trkpt lat="39.96135435971102" lon="9.542874124247517"><ele>179.0</ele><time>2026-03-28T10:44:54Z</time></trkpt><trkpt lat="39.961451611795006" lon="9.542897551696917"><ele>181.0</ele><time>2026-03-28T10:44:55Z</time></trkpt><trkpt lat="39.96154848609596" lon="9.542880743621325"><ele>183.0</ele><time>2026-03-28T10:44:56Z</time></trkpt><trkpt lat="39.961642041889185" lon="9.542839144943837"><ele>185.8</ele><time>2026-03-28T10:44:57Z</time></trkpt><trkpt lat="39.96173507719917" lon="9.542797831470539"><ele>188.60000000000002</ele><time>2026-03-28T10:44:58Z</time></trkpt><trkpt lat="39.96182853087626" lon="9.542756754600928"><ele>191.39999999999998</ele><time>2026-03-28T10:44:59Z</time></trkpt><trkpt lat="39.96192109972194" lon="9.542715410309514"><ele>194.2</ele><time>2026-03-28T10:45:00Z</time></trkpt><trkpt lat="39.96201769467758" lon="9.542678103421586"><ele>197.0</ele><time>2026-03-28T10:45:01Z</time></trkpt><trkpt lat="39.96210185891225" lon="9.542607546242566"><ele>197.0</ele><time>2026-03-28T10:45:02Z</time></trkpt><trkpt lat="39.96218690176046" lon="9.54253832054027"><ele>197.0</ele><time>2026-03-28T10:45:03Z</time></trkpt><trkpt lat="39.962270428714" lon="9.542470067067002"><ele>197.0</ele><time>2026-03-28T10:45:04Z</time></trkpt><trkpt lat="39.962350901552824" lon="9.542402579139413"><ele>197.0</ele><time>2026-03-28T10:45:05Z</time></trkpt><trkpt lat="39.9624207272371" lon="9.542309108591436"><ele>197.0</ele><time>2026-03-28T10:45:06Z</time></trkpt><trkpt lat="39.9624582219011" lon="9.542178774165007"><ele>197.0</ele><time>2026-03-28T10:45:07Z</time></trkpt><trkpt lat="39.962498270442325" lon="9.542063978317294"><ele>197.0</ele><time>2026-03-28T10:45:08Z</time></trkpt><trkpt lat="39.962544743070225" lon="9.541963053830473"><ele>197.0</ele><time>2026-03-28T10:45:09Z</time></trkpt><trkpt lat="39.96261149229509" lon="9.541881844304406"><ele>197.0</ele><time>2026-03-28T10:45:10Z</time></trkpt><trkpt lat="39.96268485032799" lon="9.541792736788894"><ele>197.0</ele><time>2026-03-28T10:45:11Z</time></trkpt><trkpt lat="39.962753393504165" lon="9.541702108971627"><ele>204.0</ele><time>2026-03-28T10:45:12Z</time></trkpt><trkpt lat="39.962811647156904" lon="9.541606178155504"><ele>211.0</ele><time>2026-03-28T10:45:13Z</time></trkpt><trkpt lat="39.96285869809436" lon="9.54150393581675"><ele>218.0</ele><time>2026-03-28T10:45:14Z</time></trkpt><trkpt lat="39.96286306108178" lon="9.541357976686657"><ele>225.0</ele><time>2026-03-28T10:45:15Z</time></trkpt><trkpt lat="39.962833039295525" lon="9.54121618867214"><ele>232.0</ele><time>2026-03-28T10:45:16Z</time></trkpt><trkpt lat="39.96280337325855" lon="9.541079312211753"><ele>234.39999999999998</ele><time>2026-03-28T10:45:17Z</time></trkpt><trkpt lat="39.962767429304556" lon="9.540944453731738"><ele>236.79999999999998</ele><time>2026-03-28T10:45:18Z</time></trkpt><trkpt lat="39.96272697464802" lon="9.540811808620246"><ele>239.2</ele><time>2026-03-28T10:45:19Z</time></trkpt><trkpt lat="39.96268462629095" lon="9.540690203177416"><ele>241.6</ele><time>2026-03-28T10:45:20Z</time></trkpt><trkpt lat="39.962640061808116" lon="9.540579645910768"><ele>244.0</ele><time>2026-03-28T10:45:21Z</time></trkpt><trkpt lat="39.96258882679149" lon="9.540475938136932"><ele>243.99999999999997</ele><time>2026-03-28T10:45:22Z</time></trkpt><trkpt lat="39.962536116263145" lon="9.540388456224498"><ele>244.0</ele><time>2026-03-28T10:45:23Z</time></trkpt><trkpt lat="39.962482018725815" lon="9.54031193379047"><ele>244.0</ele><time>2026-03-28T10:45:24Z</time></trkpt><trkpt lat="39.9624248960545" lon="9.54024726055737"><ele>244.0</ele><time>2026-03-28T10:45:25Z</time></trkpt><trkpt lat="39.96237174742472" lon="9.540191919104966"><ele>243.99999999999997</ele><time>2026-03-28T10:45:26Z</time></trkpt><trkpt lat="39.96228787456039" lon="9.540087923108587"><ele>244.0</ele><time>2026-03-28T10:45:28Z</time></trkpt><trkpt lat="39.962264974739306" lon="9.540000129611183"><ele>241.16666666666666</ele><time>2026-03-28T10:45:29Z</time></trkpt><trkpt lat="39.96227285372619" lon="9.53990000025717"><ele>238.33333333333331</ele><time>2026-03-28T10:45:30Z</time></trkpt><trkpt lat="39.96232617248629" lon="9.539818179948444"><ele>235.5</ele><time>2026-03-28T10:45:31Z</time></trkpt><trkpt lat="39.962386783240305" lon="9.539733517193271"><ele>232.66666666666669</ele><time>2026-03-28T10:45:32Z</time></trkpt><trkpt lat="39.96244180224075" lon="9.539638231343899"><ele>229.83333333333334</ele><time>2026-03-28T10:45:33Z</time></trkpt><trkpt lat="39.96247719804023" lon="9.539519594801655"><ele>227.0</ele><time>2026-03-28T10:45:34Z</time></trkpt><trkpt lat="39.962491736925045" lon="9.539395093282439"><ele>227.0</ele><time>2026-03-28T10:45:35Z</time></trkpt><trkpt lat="39.96248377048059" lon="9.539279380272253"><ele>227.0</ele><time>2026-03-28T10:45:36Z</time></trkpt><trkpt lat="39.96239838459589" lon="9.539188816492922"><ele>227.0</ele><time>2026-03-28T10:45:37Z</time></trkpt><trkpt lat="39.962342928430495" lon="9.539087392517438"><ele>227.0</ele><time>2026-03-28T10:45:38Z</time></trkpt><trkpt lat="39.96227654098598" lon="9.539003957327052"><ele>227.0</ele><time>2026-03-28T10:45:39Z</time></trkpt><trkpt lat="39.962209021453916" lon="9.538919098613304"><ele>227.00000000000003</ele><time>2026-03-28T10:45:40Z</time></trkpt><trkpt lat="39.96214538764423" lon="9.538828066510703"><ele>227.0</ele><time>2026-03-28T10:45:41Z</time></trkpt><trkpt lat="39.962089556472826" lon="9.538730157561504"><ele>227.0</ele><time>2026-03-28T10:45:42Z</time></trkpt><trkpt lat="39.96204121823541" lon="9.538635763865926"><ele>227.0</ele><time>2026-03-28T10:45:43Z</time></trkpt><trkpt lat="39.96199610208581" lon="9.538548887883014"><ele>227.00000000000003</ele><time>2026-03-28T10:45:44Z</time></trkpt><trkpt lat="39.96193860949418" lon="9.538476621294018"><ele>227.0</ele><time>2026-03-28T10:45:45Z</time></trkpt><trkpt lat="39.961856405800866" lon="9.53845006860253"><ele>227.33333333333334</ele><time>2026-03-28T10:45:46Z</time></trkpt><trkpt lat="39.96177761026741" lon="9.538489270429258"><ele>227.66666666666669</ele><time>2026-03-28T10:45:47Z</time></trkpt><trkpt lat="39.961705928245344" lon="9.538514041694608"><ele>228.0</ele><time>2026-03-28T10:45:48Z</time></trkpt><trkpt lat="39.961638273106786" lon="9.538548639422308"><ele>228.33333333333331</ele><time>2026-03-28T10:45:49Z</time></trkpt><trkpt lat="39.961565682337124" lon="9.538559138046367"><ele>228.66666666666666</ele><time>2026-03-28T10:45:50Z</time></trkpt><trkpt lat="39.961494545769" lon="9.538591822589035"><ele>229.0</ele><time>2026-03-28T10:45:51Z</time></trkpt><trkpt lat="39.96142225692701" lon="9.53864429067294"><ele>228.99999999999997</ele><time>2026-03-28T10:45:52Z</time></trkpt><trkpt lat="39.96134634289628" lon="9.538677614473855"><ele>229.0</ele><time>2026-03-28T10:45:53Z</time></trkpt><trkpt lat="39.961267533068465" lon="9.538715888447538"><ele>229.0</ele><time>2026-03-28T10:45:54Z</time></trkpt><trkpt lat="39.96118580895502" lon="9.538752118971596"><ele>229.0</ele><time>2026-03-28T10:45:55Z</time></trkpt><trkpt lat="39.961111013646146" lon="9.53875733138828"><ele>228.99999999999997</ele><time>2026-03-28T10:45:56Z</time></trkpt><trkpt lat="39.96104488519173" lon="9.53873938896203"><ele>229.0</ele><time>2026-03-28T10:45:57Z</time></trkpt><trkpt lat="39.96099019138935" lon="9.538693203444797"><ele>228.99999999999997</ele><time>2026-03-28T10:45:58Z</time></trkpt><trkpt lat="39.960966817698285" lon="9.538603815390072"><ele>229.0</ele><time>2026-03-28T10:45:59Z</time></trkpt><trkpt lat="39.96094791115812" lon="9.538518281074259"><ele>229.0</ele><time>2026-03-28T10:46:00Z</time></trkpt><trkpt lat="39.960919902439706" lon="9.53842289888301"><ele>229.0</ele><time>2026-03-28T10:46:01Z</time></trkpt><trkpt lat="39.960887333244834" lon="9.538323728692212"><ele>228.99999999999997</ele><time>2026-03-28T10:46:02Z</time></trkpt><trkpt lat="39.960843144254845" lon="9.53822100036171"><ele>229.0</ele><time>2026-03-28T10:46:03Z</time></trkpt><trkpt lat="39.96077785160684" lon="9.538127121459091"><ele>227.0</ele><time>2026-03-28T10:46:04Z</time></trkpt><trkpt lat="39.96072038245779" lon="9.538036506882577"><ele>224.99999999999997</ele><time>2026-03-28T10:46:05Z</time></trkpt><trkpt lat="39.96068140674969" lon="9.53793032947605"><ele>222.99999999999997</ele><time>2026-03-28T10:46:06Z</time></trkpt><trkpt lat="39.96063831102595" lon="9.537809891489552"><ele>221.0</ele><time>2026-03-28T10:46:07Z</time></trkpt><trkpt lat="39.96056040974399" lon="9.537713878704206"><ele>219.0</ele><time>2026-03-28T10:46:08Z</time></trkpt><trkpt lat="39.960495517635614" lon="9.537619023667478"><ele>223.39999999999998</ele><time>2026-03-28T10:46:09Z</time></trkpt><trkpt lat="39.96043763816539" lon="9.537515181136044"><ele>227.79999999999998</ele><time>2026-03-28T10:46:10Z</time></trkpt><trkpt lat="39.96039822969749" lon="9.53739100037087"><ele>232.20000000000002</ele><time>2026-03-28T10:46:11Z</time></trkpt><trkpt lat="39.96036586594249" lon="9.537255965354857"><ele>236.60000000000002</ele><time>2026-03-28T10:46:12Z</time></trkpt><trkpt lat="39.96032631597369" lon="9.53712433016196"><ele>241.0</ele><time>2026-03-28T10:46:13Z</time></trkpt><trkpt lat="39.96027509531635" lon="9.537007517144495"><ele>243.20000000000002</ele><time>2026-03-28T10:46:14Z</time></trkpt><trkpt lat="39.960218442074435" lon="9.536902452137893"><ele>245.40000000000003</ele><time>2026-03-28T10:46:15Z</time></trkpt><trkpt lat="39.96017432075227" lon="9.536801107714393"><ele>247.6</ele><time>2026-03-28T10:46:16Z</time></trkpt><trkpt lat="39.96015977131097" lon="9.536687594681977"><ele>249.8</ele><time>2026-03-28T10:46:17Z</time></trkpt><trkpt lat="39.960167341503656" lon="9.536563950983364"><ele>252.0</ele><time>2026-03-28T10:46:18Z</time></trkpt><trkpt lat="39.960184083916516" lon="9.536437619770838"><ele>252.0</ele><time>2026-03-28T10:46:19Z</time></trkpt><trkpt lat="39.96022630979999" lon="9.536314621848266"><ele>252.0</ele><time>2026-03-28T10:46:20Z</time></trkpt><trkpt lat="39.96029410910589" lon="9.536211453773515"><ele>252.0</ele><time>2026-03-28T10:46:21Z</time></trkpt><trkpt lat="39.96035507942401" lon="9.536104558649463"><ele>252.0</ele><time>2026-03-28T10:46:22Z</time></trkpt><trkpt lat="39.96042451247256" lon="9.536013632146643"><ele>252.0</ele><time>2026-03-28T10:46:23Z</time></trkpt><trkpt lat="39.96046932253689" lon="9.535908710622872"><ele>251.83333333333334</ele><time>2026-03-28T10:46:24Z</time></trkpt><trkpt lat="39.96051468317018" lon="9.535820321054342"><ele>251.66666666666669</ele><time>2026-03-28T10:46:25Z</time></trkpt><trkpt lat="39.960552703227066" lon="9.53573161377525"><ele>251.5</ele><time>2026-03-28T10:46:26Z</time></trkpt><trkpt lat="39.960535535785034" lon="9.535630088711969"><ele>251.33333333333334</ele><time>2026-03-28T10:46:27Z</time></trkpt><trkpt lat="39.960454881237126" lon="9.535571588802554"><ele>251.16666666666669</ele><time>2026-03-28T10:46:28Z</time></trkpt><trkpt lat="39.96039952232392" lon="9.53549212808711"><ele>251.0</ele><time>2026-03-28T10:46:29Z</time></trkpt><trkpt lat="39.96032301407001" lon="9.535481545805908"><ele>251.0</ele><time>2026-03-28T10:46:30Z</time></trkpt><trkpt lat="39.96024294936496" lon="9.535540275090971"><ele>251.00000000000003</ele><time>2026-03-28T10:46:31Z</time></trkpt><trkpt lat="39.96017076478907" lon="9.535602626908318"><ele>251.00000000000003</ele><time>2026-03-28T10:46:32Z</time></trkpt><trkpt lat="39.96009898620342" lon="9.535666292088218"><ele>251.0</ele><time>2026-03-28T10:46:33Z</time></trkpt><trkpt lat="39.96002080455773" lon="9.535730376020997"><ele>251.0</ele><time>2026-03-28T10:46:34Z</time></trkpt><trkpt lat="39.95994237760964" lon="9.535796162900942"><ele>249.33333333333334</ele><time>2026-03-28T10:46:35Z</time></trkpt><trkpt lat="39.95985843605701" lon="9.535870662076496"><ele>247.66666666666669</ele><time>2026-03-28T10:46:36Z</time></trkpt><trkpt lat="39.95978305187872" lon="9.535938002335955"><ele>246.0</ele><time>2026-03-28T10:46:37Z</time></trkpt><trkpt lat="39.959717701977745" lon="9.536016110725937"><ele>244.33333333333331</ele><time>2026-03-28T10:46:38Z</time></trkpt><trkpt lat="39.95964959868873" lon="9.536077060138549"><ele>242.66666666666666</ele><time>2026-03-28T10:46:39Z</time></trkpt><trkpt lat="39.9595919107968" lon="9.536145160540539"><ele>241.0</ele><time>2026-03-28T10:46:40Z</time></trkpt><trkpt lat="39.9595294776091" lon="9.536204058434565"><ele>240.99999999999997</ele><time>2026-03-28T10:46:41Z</time></trkpt><trkpt lat="39.959453382738694" lon="9.536190052721429"><ele>241.0</ele><time>2026-03-28T10:46:42Z</time></trkpt><trkpt lat="39.959395025513146" lon="9.536134047522188"><ele>241.0</ele><time>2026-03-28T10:46:43Z</time></trkpt><trkpt lat="39.95936914424836" lon="9.536048931428654"><ele>241.0</ele><time>2026-03-28T10:46:44Z</time></trkpt><trkpt lat="39.959397665272355" lon="9.535942170387761"><ele>240.99999999999997</ele><time>2026-03-28T10:46:45Z</time></trkpt><trkpt lat="39.95941521953345" lon="9.535839308998087"><ele>241.0</ele><time>2026-03-28T10:46:46Z</time></trkpt><trkpt lat="39.959422160021845" lon="9.535728547127414"><ele>240.99999999999997</ele><time>2026-03-28T10:46:47Z</time></trkpt><trkpt lat="39.95944476096104" lon="9.535624004417059"><ele>241.0</ele><time>2026-03-28T10:46:48Z</time></trkpt><trkpt lat="39.95942848397701" lon="9.535513317315838"><ele>241.0</ele><time>2026-03-28T10:46:49Z</time></trkpt><trkpt lat="39.95938657087769" lon="9.535415036239398"><ele>241.0</ele><time>2026-03-28T10:46:50Z</time></trkpt><trkpt lat="39.95934875652637" lon="9.535328378677402"><ele>240.99999999999997</ele><time>2026-03-28T10:46:51Z</time></trkpt><trkpt lat="39.9593134327283" lon="9.535243482918597"><ele>241.0</ele><time>2026-03-28T10:46:52Z</time></trkpt><trkpt lat="39.959291003841244" lon="9.535158453097875"><ele>240.49999999999997</ele><time>2026-03-28T10:46:53Z</time></trkpt><trkpt lat="39.95927315756983" lon="9.535073883843474"><ele>240.0</ele><time>2026-03-28T10:46:54Z</time></trkpt><trkpt lat="39.95923282110836" lon="9.534949460147807"><ele>239.5</ele><time>2026-03-28T10:46:56Z</time></trkpt><trkpt lat="39.95922366094648" lon="9.534867619686636"><ele>239.0</ele><time>2026-03-28T10:47:22Z</time></trkpt><trkpt lat="39.95916943184554" lon="9.534955097578013"><ele>238.49999999999997</ele><time>2026-03-28T10:59:17Z</time></trkpt><trkpt lat="39.95921060985696" lon="9.535067606340993"><ele>238.0</ele><time>2026-03-28T10:59:19Z</time></trkpt><trkpt lat="39.95925697926558" lon="9.535203270493975"><ele>238.60000000000002</ele><time>2026-03-28T10:59:21Z</time></trkpt><trkpt lat="39.959306126382565" lon="9.535311707327768"><ele>239.20000000000002</ele><time>2026-03-28T10:59:22Z</time></trkpt><trkpt lat="39.95935551476395" lon="9.535439402721154"><ele>239.8</ele><time>2026-03-28T10:59:23Z</time></trkpt><trkpt lat="39.95939674306128" lon="9.535548709825978"><ele>240.4</ele><time>2026-03-28T10:59:24Z</time></trkpt><trkpt lat="39.9594222281336" lon="9.535651414213243"><ele>241.0</ele><time>2026-03-28T10:59:25Z</time></trkpt><trkpt lat="39.959418253713764" lon="9.535752699807526"><ele>241.0</ele><time>2026-03-28T10:59:26Z</time></trkpt><trkpt lat="39.959382135250756" lon="9.535845509418998"><ele>241.00000000000003</ele><time>2026-03-28T10:59:27Z</time></trkpt><trkpt lat="39.95935840703531" lon="9.535934149482735"><ele>241.0</ele><time>2026-03-28T10:59:28Z</time></trkpt><trkpt lat="39.95934581846013" lon="9.536022918606395"><ele>241.0</ele><time>2026-03-28T10:59:29Z</time></trkpt><trkpt lat="39.95934923939109" lon="9.536108340767475"><ele>241.00000000000003</ele><time>2026-03-28T10:59:30Z</time></trkpt><trkpt lat="39.95938447820694" lon="9.536182886419137"><ele>241.0</ele><time>2026-03-28T10:59:31Z</time></trkpt><trkpt lat="39.959442143675005" lon="9.536230757108706"><ele>241.0</ele><time>2026-03-28T10:59:32Z</time></trkpt><trkpt lat="39.95950574043594" lon="9.536240154873578"><ele>241.0</ele><time>2026-03-28T10:59:33Z</time></trkpt><trkpt lat="39.95961756689595" lon="9.536176343362285"><ele>241.00000000000003</ele><time>2026-03-28T10:59:35Z</time></trkpt><trkpt lat="39.95966670153895" lon="9.536103011712342"><ele>241.00000000000003</ele><time>2026-03-28T10:59:36Z</time></trkpt><trkpt lat="39.95973356005847" lon="9.536030900914263"><ele>241.0</ele><time>2026-03-28T10:59:37Z</time></trkpt><trkpt lat="39.95978841598214" lon="9.535940333745806"><ele>241.0</ele><time>2026-03-28T10:59:38Z</time></trkpt><trkpt lat="39.95986010534259" lon="9.535876555926032"><ele>240.99999999999997</ele><time>2026-03-28T10:59:39Z</time></trkpt><trkpt lat="39.95993571815732" lon="9.535815859094914"><ele>241.0</ele><time>2026-03-28T10:59:40Z</time></trkpt><trkpt lat="39.9600074343162" lon="9.535752642235751"><ele>241.0</ele><time>2026-03-28T10:59:41Z</time></trkpt><trkpt lat="39.960088222430834" lon="9.535710289941116"><ele>241.0</ele><time>2026-03-28T10:59:42Z</time></trkpt><trkpt lat="39.96014940071871" lon="9.53564168980685"><ele>240.99999999999997</ele><time>2026-03-28T10:59:43Z</time></trkpt><trkpt lat="39.96021799253975" lon="9.535590057725974"><ele>241.0</ele><time>2026-03-28T10:59:44Z</time></trkpt><trkpt lat="39.96028332457425" lon="9.535549541711811"><ele>242.66666666666666</ele><time>2026-03-28T10:59:45Z</time></trkpt><trkpt lat="39.96034943936798" lon="9.53553218257872"><ele>244.33333333333331</ele><time>2026-03-28T10:59:46Z</time></trkpt><trkpt lat="39.960412653061006" lon="9.535552056762928"><ele>246.0</ele><time>2026-03-28T10:59:47Z</time></trkpt><trkpt lat="39.960491498419664" lon="9.535658238189235"><ele>247.66666666666669</ele><time>2026-03-28T10:59:49Z</time></trkpt><trkpt lat="39.96050231615547" lon="9.535808628799831"><ele>249.33333333333334</ele><time>2026-03-28T10:59:51Z</time></trkpt><trkpt lat="39.96046701428592" lon="9.535892579337338"><ele>251.0</ele><time>2026-03-28T10:59:52Z</time></trkpt><trkpt lat="39.96041886090827" lon="9.535952550687265"><ele>250.99999999999997</ele><time>2026-03-28T10:59:53Z</time></trkpt><trkpt lat="39.96037343047555" lon="9.536014648898323"><ele>251.0</ele><time>2026-03-28T10:59:54Z</time></trkpt><trkpt lat="39.96033149470612" lon="9.536078357582328"><ele>250.99999999999997</ele><time>2026-03-28T10:59:55Z</time></trkpt><trkpt lat="39.960285312485105" lon="9.536147018323286"><ele>250.99999999999997</ele><time>2026-03-28T10:59:56Z</time></trkpt><trkpt lat="39.9602371728662" lon="9.536222381801304"><ele>251.0</ele><time>2026-03-28T10:59:57Z</time></trkpt><trkpt lat="39.960193314054564" lon="9.536310427095332"><ele>250.99999999999997</ele><time>2026-03-28T10:59:58Z</time></trkpt><trkpt lat="39.96015825869455" lon="9.536409000018258"><ele>250.99999999999997</ele><time>2026-03-28T10:59:59Z</time></trkpt><trkpt lat="39.960128764913065" lon="9.536519888454059"><ele>251.16666666666669</ele><time>2026-03-28T11:00:00Z</time></trkpt><trkpt lat="39.96011247864119" lon="9.536633482602864"><ele>251.33333333333334</ele><time>2026-03-28T11:00:01Z</time></trkpt><trkpt lat="39.96011186945045" lon="9.53674340002325"><ele>251.5</ele><time>2026-03-28T11:00:02Z</time></trkpt><trkpt lat="39.96013835586449" lon="9.53684948760681"><ele>251.66666666666669</ele><time>2026-03-28T11:00:03Z</time></trkpt><trkpt lat="39.96018639275581" lon="9.536942441244806"><ele>251.83333333333334</ele><time>2026-03-28T11:00:04Z</time></trkpt><trkpt lat="39.96024116796377" lon="9.537033060550362"><ele>252.0</ele><time>2026-03-28T11:00:05Z</time></trkpt><trkpt lat="39.96028279704193" lon="9.537138430640962"><ele>249.8</ele><time>2026-03-28T11:00:06Z</time></trkpt><trkpt lat="39.96031172173363" lon="9.537250736870376"><ele>247.6</ele><time>2026-03-28T11:00:07Z</time></trkpt><trkpt lat="39.96034270964259" lon="9.537365158105384"><ele>245.40000000000003</ele><time>2026-03-28T11:00:08Z</time></trkpt><trkpt lat="39.960375882665346" lon="9.537476681974573"><ele>243.20000000000002</ele><time>2026-03-28T11:00:09Z</time></trkpt><trkpt lat="39.96041437553331" lon="9.537586505422407"><ele>241.0</ele><time>2026-03-28T11:00:10Z</time></trkpt><trkpt lat="39.96047315625678" lon="9.53768259298053"><ele>241.0</ele><time>2026-03-28T11:00:11Z</time></trkpt><trkpt lat="39.96054784478487" lon="9.537762281585913"><ele>241.00000000000003</ele><time>2026-03-28T11:00:12Z</time></trkpt><trkpt lat="39.960614508533666" lon="9.537856519342142"><ele>241.00000000000003</ele><time>2026-03-28T11:00:13Z</time></trkpt><trkpt lat="39.96065832687447" lon="9.537973471203143"><ele>241.0</ele><time>2026-03-28T11:00:14Z</time></trkpt><trkpt lat="39.96070399198246" lon="9.538089759093163"><ele>241.0</ele><time>2026-03-28T11:00:15Z</time></trkpt><trkpt lat="39.96076975927318" lon="9.538194667758939"><ele>238.60000000000002</ele><time>2026-03-28T11:00:16Z</time></trkpt><trkpt lat="39.9608343538044" lon="9.538301594193152"><ele>236.20000000000002</ele><time>2026-03-28T11:00:17Z</time></trkpt><trkpt lat="39.96088031216726" lon="9.538420926313597"><ele>233.79999999999998</ele><time>2026-03-28T11:00:18Z</time></trkpt><trkpt lat="39.96090950964644" lon="9.53854260381075"><ele>231.39999999999998</ele><time>2026-03-28T11:00:19Z</time></trkpt><trkpt lat="39.960939758637934" lon="9.53865449324437"><ele>229.0</ele><time>2026-03-28T11:00:20Z</time></trkpt><trkpt lat="39.9609897740952" lon="9.538745027047947"><ele>228.99999999999997</ele><time>2026-03-28T11:00:21Z</time></trkpt><trkpt lat="39.96105886384804" lon="9.538795694595363"><ele>229.0</ele><time>2026-03-28T11:00:22Z</time></trkpt><trkpt lat="39.96113633819465" lon="9.538796919978552"><ele>229.0</ele><time>2026-03-28T11:00:23Z</time></trkpt><trkpt lat="39.961208007266585" lon="9.538757630427549"><ele>229.0</ele><time>2026-03-28T11:00:24Z</time></trkpt><trkpt lat="39.961271313394185" lon="9.538725269975691"><ele>228.99999999999997</ele><time>2026-03-28T11:00:25Z</time></trkpt><trkpt lat="39.96133908174587" lon="9.53869026982665"><ele>229.0</ele><time>2026-03-28T11:00:26Z</time></trkpt><trkpt lat="39.96141077748722" lon="9.538660272893667"><ele>228.99999999999997</ele><time>2026-03-28T11:00:27Z</time></trkpt><trkpt lat="39.96148574758744" lon="9.538630567077266"><ele>229.0</ele><time>2026-03-28T11:00:28Z</time></trkpt><trkpt lat="39.961554608990205" lon="9.53859106758186"><ele>229.0</ele><time>2026-03-28T11:00:29Z</time></trkpt><trkpt lat="39.96164600519152" lon="9.538571668609386"><ele>229.0</ele><time>2026-03-28T11:00:30Z</time></trkpt><trkpt lat="39.96172355752467" lon="9.538539294150663"><ele>228.99999999999997</ele><time>2026-03-28T11:00:31Z</time></trkpt><trkpt lat="39.961806401753584" lon="9.538490285202597"><ele>229.0</ele><time>2026-03-28T11:00:32Z</time></trkpt><trkpt lat="39.96189585534399" lon="9.538500416155031"><ele>228.6</ele><time>2026-03-28T11:00:33Z</time></trkpt><trkpt lat="39.96197362239151" lon="9.538553860335842"><ele>228.2</ele><time>2026-03-28T11:00:34Z</time></trkpt><trkpt lat="39.96201187838772" lon="9.538656484400079"><ele>227.79999999999998</ele><time>2026-03-28T11:00:35Z</time></trkpt><trkpt lat="39.96207036894896" lon="9.538749064070332"><ele>227.39999999999998</ele><time>2026-03-28T11:00:36Z</time></trkpt><trkpt lat="39.962118905191836" lon="9.538847717935028"><ele>227.0</ele><time>2026-03-28T11:00:37Z</time></trkpt><trkpt lat="39.96218379054211" lon="9.53893548274087"><ele>227.0</ele><time>2026-03-28T11:00:38Z</time></trkpt><trkpt lat="39.962252305257174" lon="9.539019087883943"><ele>227.0</ele><time>2026-03-28T11:00:39Z</time></trkpt><trkpt lat="39.96231513802947" lon="9.539112930400155"><ele>227.0</ele><time>2026-03-28T11:00:40Z</time></trkpt><trkpt lat="39.962382015728146" lon="9.53920163756289"><ele>227.0</ele><time>2026-03-28T11:00:41Z</time></trkpt><trkpt lat="39.962440083707584" lon="9.539294442997525"><ele>227.0</ele><time>2026-03-28T11:00:42Z</time></trkpt><trkpt lat="39.96246157431548" lon="9.539394851610995"><ele>227.00000000000003</ele><time>2026-03-28T11:00:43Z</time></trkpt><trkpt lat="39.962455006862825" lon="9.539491526693176"><ele>227.0</ele><time>2026-03-28T11:00:44Z</time></trkpt><trkpt lat="39.96242149638626" lon="9.539588648262153"><ele>227.0</ele><time>2026-03-28T11:00:45Z</time></trkpt><trkpt lat="39.96237196436601" lon="9.539686638652736"><ele>227.0</ele><time>2026-03-28T11:00:46Z</time></trkpt><trkpt lat="39.96231924858338" lon="9.539773807132416"><ele>227.00000000000003</ele><time>2026-03-28T11:00:47Z</time></trkpt><trkpt lat="39.962270456119825" lon="9.539848698140306"><ele>227.0</ele><time>2026-03-28T11:00:48Z</time></trkpt><trkpt lat="39.96223395813428" lon="9.539920727964539"><ele>225.00000000000003</ele><time>2026-03-28T11:00:49Z</time></trkpt><trkpt lat="39.96222660730971" lon="9.540006004744933"><ele>223.0</ele><time>2026-03-28T11:00:50Z</time></trkpt><trkpt lat="39.962252282215815" lon="9.540093677482796"><ele>221.0</ele><time>2026-03-28T11:00:51Z</time></trkpt><trkpt lat="39.96230201944201" lon="9.540180755636928"><ele>219.0</ele><time>2026-03-28T11:00:52Z</time></trkpt><trkpt lat="39.96237517225268" lon="9.540253192907219"><ele>217.00000000000003</ele><time>2026-03-28T11:00:53Z</time></trkpt><trkpt lat="39.96244331944899" lon="9.540327706475152"><ele>215.0</ele><time>2026-03-28T11:00:54Z</time></trkpt><trkpt lat="39.96250349175912" lon="9.540407269428696"><ele>220.8</ele><time>2026-03-28T11:00:55Z</time></trkpt><trkpt lat="39.96255734831964" lon="9.540496545108253"><ele>226.6</ele><time>2026-03-28T11:00:56Z</time></trkpt><trkpt lat="39.96260635633334" lon="9.54059497821814"><ele>232.39999999999998</ele><time>2026-03-28T11:00:57Z</time></trkpt><trkpt lat="39.9626544753011" lon="9.540696868228123"><ele>238.2</ele><time>2026-03-28T11:00:58Z</time></trkpt><trkpt lat="39.96269668664163" lon="9.540805645717526"><ele>244.0</ele><time>2026-03-28T11:00:59Z</time></trkpt><trkpt lat="39.96272923642448" lon="9.540925365432997"><ele>244.0</ele><time>2026-03-28T11:01:00Z</time></trkpt><trkpt lat="39.96276245364436" lon="9.541049174896129"><ele>243.99999999999997</ele><time>2026-03-28T11:01:01Z</time></trkpt><trkpt lat="39.96279612108625" lon="9.541178991922648"><ele>243.99999999999997</ele><time>2026-03-28T11:01:02Z</time></trkpt><trkpt lat="39.9628220887848" lon="9.54130947368422"><ele>244.0</ele><time>2026-03-28T11:01:03Z</time></trkpt><trkpt lat="39.96282210005522" lon="9.54144049660437"><ele>244.0</ele><time>2026-03-28T11:01:04Z</time></trkpt><trkpt lat="39.96279369135755" lon="9.541564372750187"><ele>241.6</ele><time>2026-03-28T11:01:05Z</time></trkpt><trkpt lat="39.96273761220962" lon="9.54166826559161"><ele>239.2</ele><time>2026-03-28T11:01:06Z</time></trkpt><trkpt lat="39.962672807738116" lon="9.541755970457544"><ele>236.79999999999998</ele><time>2026-03-28T11:01:07Z</time></trkpt><trkpt lat="39.96260611646079" lon="9.541834340749743"><ele>234.39999999999998</ele><time>2026-03-28T11:01:08Z</time></trkpt><trkpt lat="39.96253548614452" lon="9.54190551186292"><ele>232.0</ele><time>2026-03-28T11:01:09Z</time></trkpt><trkpt lat="39.962481395071244" lon="9.541995268429634"><ele>225.0</ele><time>2026-03-28T11:01:10Z</time></trkpt><trkpt lat="39.962441874399524" lon="9.54210183334631"><ele>218.0</ele><time>2026-03-28T11:01:11Z</time></trkpt><trkpt lat="39.96241057108969" lon="9.542211150093147"><ele>211.0</ele><time>2026-03-28T11:01:12Z</time></trkpt><trkpt lat="39.96236881927039" lon="9.542317650173981"><ele>204.0</ele><time>2026-03-28T11:01:13Z</time></trkpt><trkpt lat="39.962303725674765" lon="9.542406306207875"><ele>197.0</ele><time>2026-03-28T11:01:14Z</time></trkpt><trkpt lat="39.962220191281396" lon="9.54247381820519"><ele>197.0</ele><time>2026-03-28T11:01:15Z</time></trkpt><trkpt lat="39.96213413635518" lon="9.542538424650134"><ele>197.0</ele><time>2026-03-28T11:01:16Z</time></trkpt><trkpt lat="39.96205083742409" lon="9.542609218817333"><ele>197.0</ele><time>2026-03-28T11:01:17Z</time></trkpt><trkpt lat="39.96196258717736" lon="9.542675274190708"><ele>197.0</ele><time>2026-03-28T11:01:18Z</time></trkpt><trkpt lat="39.96186762392119" lon="9.542723413257736"><ele>197.0</ele><time>2026-03-28T11:01:19Z</time></trkpt><trkpt lat="39.961768276437844" lon="9.542761020641759"><ele>194.2</ele><time>2026-03-28T11:01:20Z</time></trkpt><trkpt lat="39.9616680800252" lon="9.542799886618564"><ele>191.39999999999998</ele><time>2026-03-28T11:01:21Z</time></trkpt><trkpt lat="39.961573595827836" lon="9.542844270312335"><ele>188.60000000000002</ele><time>2026-03-28T11:01:22Z</time></trkpt><trkpt lat="39.961482245774626" lon="9.542875489036673"><ele>185.8</ele><time>2026-03-28T11:01:23Z</time></trkpt><trkpt lat="39.96139082300633" lon="9.542848058850677"><ele>183.0</ele><time>2026-03-28T11:01:24Z</time></trkpt><trkpt lat="39.961312373204734" lon="9.54280116204525"><ele>183.0</ele><time>2026-03-28T11:01:25Z</time></trkpt><trkpt lat="39.96123103330768" lon="9.542761604624626"><ele>183.0</ele><time>2026-03-28T11:01:26Z</time></trkpt><trkpt lat="39.96115524084793" lon="9.542726667818027"><ele>183.0</ele><time>2026-03-28T11:01:27Z</time></trkpt><trkpt lat="39.96107720761975" lon="9.54269208003613"><ele>183.0</ele><time>2026-03-28T11:01:28Z</time></trkpt><trkpt lat="39.96099983031871" lon="9.54267659487516"><ele>183.0</ele><time>2026-03-28T11:01:29Z</time></trkpt><trkpt lat="39.96093046402048" lon="9.542655281378208"><ele>183.0</ele><time>2026-03-28T11:01:30Z</time></trkpt><trkpt lat="39.96085947668345" lon="9.542684968963675"><ele>181.66666666666666</ele><time>2026-03-28T11:01:31Z</time></trkpt><trkpt lat="39.96080567490885" lon="9.542757922752042"><ele>180.33333333333334</ele><time>2026-03-28T11:01:32Z</time></trkpt><trkpt lat="39.960773478827306" lon="9.542855850475409"><ele>179.0</ele><time>2026-03-28T11:01:33Z</time></trkpt><trkpt lat="39.96076741025859" lon="9.542970075955845"><ele>177.66666666666669</ele><time>2026-03-28T11:01:34Z</time></trkpt><trkpt lat="39.96075783322478" lon="9.543092445265852"><ele>176.33333333333334</ele><time>2026-03-28T11:01:35Z</time></trkpt><trkpt lat="39.96072658225165" lon="9.543214653599248"><ele>175.0</ele><time>2026-03-28T11:01:36Z</time></trkpt><trkpt lat="39.960696756821456" lon="9.543342088255782"><ele>175.0</ele><time>2026-03-28T11:01:37Z</time></trkpt><trkpt lat="39.96067032471913" lon="9.543469800936935"><ele>175.0</ele><time>2026-03-28T11:01:38Z</time></trkpt><trkpt lat="39.96063886927314" lon="9.543593510965767"><ele>175.0</ele><time>2026-03-28T11:01:39Z</time></trkpt><trkpt lat="39.96060349005311" lon="9.543709029676227"><ele>175.0</ele><time>2026-03-28T11:01:40Z</time></trkpt><trkpt lat="39.960561871275374" lon="9.543805049603158"><ele>175.0</ele><time>2026-03-28T11:01:41Z</time></trkpt><trkpt lat="39.96049672955126" lon="9.543858361107006"><ele>175.0</ele><time>2026-03-28T11:01:42Z</time></trkpt><trkpt lat="39.96042000765364" lon="9.543873036436029"><ele>175.0</ele><time>2026-03-28T11:01:43Z</time></trkpt><trkpt lat="39.96034602413171" lon="9.543824838577622"><ele>175.0</ele><time>2026-03-28T11:01:44Z</time></trkpt><trkpt lat="39.960266662647385" lon="9.543804188311087"><ele>175.0</ele><time>2026-03-28T11:01:45Z</time></trkpt><trkpt lat="39.96019599962753" lon="9.543770464776282"><ele>175.0</ele><time>2026-03-28T11:01:46Z</time></trkpt><trkpt lat="39.96012649885317" lon="9.54372994705929"><ele>175.0</ele><time>2026-03-28T11:01:47Z</time></trkpt><trkpt lat="39.96005319220366" lon="9.543709763781166"><ele>174.0</ele><time>2026-03-28T11:01:48Z</time></trkpt><trkpt lat="39.95998585859299" lon="9.543677050228798"><ele>173.0</ele><time>2026-03-28T11:01:49Z</time></trkpt><trkpt lat="39.95991726672993" lon="9.543668529590386"><ele>172.0</ele><time>2026-03-28T11:01:50Z</time></trkpt><trkpt lat="39.9598519717905" lon="9.543703726681757"><ele>171.0</ele><time>2026-03-28T11:01:51Z</time></trkpt><trkpt lat="39.959796776391876" lon="9.54378922131202"><ele>170.0</ele><time>2026-03-28T11:01:52Z</time></trkpt><trkpt lat="39.95977614060511" lon="9.54389182477762"><ele>169.0</ele><time>2026-03-28T11:01:53Z</time></trkpt><trkpt lat="39.95980933201079" lon="9.544087834381191"><ele>169.0</ele><time>2026-03-28T11:01:55Z</time></trkpt><trkpt lat="39.95983986304379" lon="9.544215676422857"><ele>169.0</ele><time>2026-03-28T11:01:56Z</time></trkpt><trkpt lat="39.959851854703075" lon="9.54435696867225"><ele>169.0</ele><time>2026-03-28T11:01:57Z</time></trkpt><trkpt lat="39.95983724283829" lon="9.544505094356207"><ele>169.0</ele><time>2026-03-28T11:01:58Z</time></trkpt><trkpt lat="39.95981959899387" lon="9.544654697863098"><ele>169.0</ele><time>2026-03-28T11:01:59Z</time></trkpt><trkpt lat="39.95979451326667" lon="9.54479554186134"><ele>169.2</ele><time>2026-03-28T11:02:00Z</time></trkpt><trkpt lat="39.95976531862621" lon="9.54492989516388"><ele>169.39999999999998</ele><time>2026-03-28T11:02:01Z</time></trkpt><trkpt lat="39.95974174442147" lon="9.54506320865059"><ele>169.6</ele><time>2026-03-28T11:02:02Z</time></trkpt><trkpt lat="39.95973174108653" lon="9.545198031156279"><ele>169.8</ele><time>2026-03-28T11:02:03Z</time></trkpt><trkpt lat="39.95974711084745" lon="9.545334281724198"><ele>170.0</ele><time>2026-03-28T11:02:04Z</time></trkpt><trkpt lat="39.95978026008544" lon="9.545475003923404"><ele>170.0</ele><time>2026-03-28T11:02:05Z</time></trkpt><trkpt lat="39.95981234329431" lon="9.545614622858912"><ele>170.0</ele><time>2026-03-28T11:02:06Z</time></trkpt><trkpt lat="39.95984049298569" lon="9.545757948047104"><ele>170.0</ele><time>2026-03-28T11:02:07Z</time></trkpt><trkpt lat="39.959858708437956" lon="9.54590828242516"><ele>170.0</ele><time>2026-03-28T11:02:08Z</time></trkpt><trkpt lat="39.95986441945442" lon="9.546064164077023"><ele>169.25</ele><time>2026-03-28T11:02:09Z</time></trkpt><trkpt lat="39.959862925750606" lon="9.546219463818876"><ele>168.5</ele><time>2026-03-28T11:02:10Z</time></trkpt><trkpt lat="39.95986117229432" lon="9.546376330536093"><ele>167.75</ele><time>2026-03-28T11:02:11Z</time></trkpt><trkpt lat="39.95986133958271" lon="9.546535558410273"><ele>167.0</ele><time>2026-03-28T11:02:12Z</time></trkpt><trkpt lat="39.959870450809724" lon="9.546688468180742"><ele>167.0</ele><time>2026-03-28T11:02:13Z</time></trkpt><trkpt lat="39.95987812157965" lon="9.546836716920044"><ele>167.0</ele><time>2026-03-28T11:02:14Z</time></trkpt><trkpt lat="39.95988685747382" lon="9.546983826898837"><ele>167.0</ele><time>2026-03-28T11:02:15Z</time></trkpt><trkpt lat="39.95989270260151" lon="9.547127750561934"><ele>167.0</ele><time>2026-03-28T11:02:16Z</time></trkpt><trkpt lat="39.95989029857258" lon="9.547261696751496"><ele>167.0</ele><time>2026-03-28T11:02:17Z</time></trkpt><trkpt lat="39.95985570615695" lon="9.547388539061656"><ele>167.2</ele><time>2026-03-28T11:02:18Z</time></trkpt><trkpt lat="39.95980742647401" lon="9.54751067935499"><ele>167.39999999999998</ele><time>2026-03-28T11:02:19Z</time></trkpt><trkpt lat="39.95976010119849" lon="9.547624693709107"><ele>167.60000000000002</ele><time>2026-03-28T11:02:20Z</time></trkpt><trkpt lat="39.959704377175406" lon="9.547759182206361"><ele>167.8</ele><time>2026-03-28T11:02:21Z</time></trkpt><trkpt lat="39.95964835524485" lon="9.547890130477294"><ele>168.0</ele><time>2026-03-28T11:02:22Z</time></trkpt><trkpt lat="39.959593113664994" lon="9.548010092547212"><ele>168.0</ele><time>2026-03-28T11:02:23Z</time></trkpt><trkpt lat="39.95953100341064" lon="9.548105326551047"><ele>168.0</ele><time>2026-03-28T11:02:24Z</time></trkpt><trkpt lat="39.95946452743106" lon="9.548174838685794"><ele>168.0</ele><time>2026-03-28T11:02:25Z</time></trkpt><trkpt lat="39.95939880200764" lon="9.548210191684607"><ele>168.0</ele><time>2026-03-28T11:02:26Z</time></trkpt><trkpt lat="39.95933122599559" lon="9.548196810630992"><ele>168.0</ele><time>2026-03-28T11:02:27Z</time></trkpt><trkpt lat="39.95928899402416" lon="9.548119745569796"><ele>168.0</ele><time>2026-03-28T11:02:28Z</time></trkpt><trkpt lat="39.95923893433262" lon="9.548064655063106"><ele>164.83333333333334</ele><time>2026-03-28T11:02:29Z</time></trkpt><trkpt lat="39.95917733621175" lon="9.54801241324184"><ele>161.66666666666666</ele><time>2026-03-28T11:02:30Z</time></trkpt><trkpt lat="39.95910911656535" lon="9.547955192501002"><ele>158.5</ele><time>2026-03-28T11:02:31Z</time></trkpt><trkpt lat="39.959036517767025" lon="9.547908068861828"><ele>155.33333333333331</ele><time>2026-03-28T11:02:32Z</time></trkpt><trkpt lat="39.95895989198959" lon="9.5479084614311"><ele>152.16666666666666</ele><time>2026-03-28T11:02:33Z</time></trkpt><trkpt lat="39.958890803361676" lon="9.547939121248922"><ele>149.0</ele><time>2026-03-28T11:02:34Z</time></trkpt><trkpt lat="39.95882744007325" lon="9.548021672665893"><ele>149.0</ele><time>2026-03-28T11:02:35Z</time></trkpt><trkpt lat="39.95876511278827" lon="9.548123683515641"><ele>149.0</ele><time>2026-03-28T11:02:36Z</time></trkpt><trkpt lat="39.95869607066385" lon="9.54821992696715"><ele>149.0</ele><time>2026-03-28T11:02:37Z</time></trkpt><trkpt lat="39.95862655550275" lon="9.548315951989515"><ele>149.0</ele><time>2026-03-28T11:02:38Z</time></trkpt><trkpt lat="39.95855410410958" lon="9.548418935654164"><ele>149.0</ele><time>2026-03-28T11:02:39Z</time></trkpt><trkpt lat="39.95847851975754" lon="9.548519326701971"><ele>149.0</ele><time>2026-03-28T11:02:40Z</time></trkpt><trkpt lat="39.958405475725634" lon="9.548607733332606"><ele>149.0</ele><time>2026-03-28T11:02:41Z</time></trkpt><trkpt lat="39.958343565884725" lon="9.548697772571568"><ele>149.0</ele><time>2026-03-28T11:02:42Z</time></trkpt><trkpt lat="39.958300251992625" lon="9.54879182558548"><ele>149.0</ele><time>2026-03-28T11:02:43Z</time></trkpt><trkpt lat="39.958287994069906" lon="9.548902684706473"><ele>149.0</ele><time>2026-03-28T11:02:44Z</time></trkpt><trkpt lat="39.95831398878985" lon="9.549022877223498"><ele>148.16666666666666</ele><time>2026-03-28T11:02:45Z</time></trkpt><trkpt lat="39.958323583004315" lon="9.549141978252406"><ele>147.33333333333331</ele><time>2026-03-28T11:02:46Z</time></trkpt><trkpt lat="39.95834486732398" lon="9.549247877314075"><ele>146.5</ele><time>2026-03-28T11:02:47Z</time></trkpt><trkpt lat="39.95839078088207" lon="9.54933595769302"><ele>145.66666666666666</ele><time>2026-03-28T11:02:48Z</time></trkpt><trkpt lat="39.95845664489399" lon="9.549406866096971"><ele>144.83333333333334</ele><time>2026-03-28T11:02:49Z</time></trkpt><trkpt lat="39.9585286289472" lon="9.549468255716143"><ele>144.0</ele><time>2026-03-28T11:02:50Z</time></trkpt><trkpt lat="39.95859432254246" lon="9.54953903089795"><ele>143.33333333333334</ele><time>2026-03-28T11:02:51Z</time></trkpt><trkpt lat="39.95864524417353" lon="9.549620584806243"><ele>142.66666666666666</ele><time>2026-03-28T11:02:52Z</time></trkpt><trkpt lat="39.95866618398858" lon="9.54971721875532"><ele>142.0</ele><time>2026-03-28T11:02:53Z</time></trkpt><trkpt lat="39.95864654139391" lon="9.549813996399353"><ele>141.33333333333331</ele><time>2026-03-28T11:02:54Z</time></trkpt><trkpt lat="39.95858849661243" lon="9.549887369508845"><ele>140.66666666666666</ele><time>2026-03-28T11:02:55Z</time></trkpt><trkpt lat="39.95849437784667" lon="9.549913870122202"><ele>140.0</ele><time>2026-03-28T11:02:56Z</time></trkpt><trkpt lat="39.958422667779885" lon="9.549990727506804"><ele>140.8</ele><time>2026-03-28T11:02:57Z</time></trkpt><trkpt lat="39.95834318599449" lon="9.550066523555005"><ele>141.6</ele><time>2026-03-28T11:02:58Z</time></trkpt><trkpt lat="39.95826313462903" lon="9.550151940444097"><ele>142.4</ele><time>2026-03-28T11:02:59Z</time></trkpt><trkpt lat="39.958182137282876" lon="9.550245673595306"><ele>143.2</ele><time>2026-03-28T11:03:00Z</time></trkpt><trkpt lat="39.958098066015765" lon="9.55033377462619"><ele>144.0</ele><time>2026-03-28T11:03:01Z</time></trkpt><trkpt lat="39.958011224252424" lon="9.550413002251776"><ele>144.0</ele><time>2026-03-28T11:03:02Z</time></trkpt><trkpt lat="39.95792523012613" lon="9.550470248558142"><ele>144.0</ele><time>2026-03-28T11:03:03Z</time></trkpt><trkpt lat="39.957846539030946" lon="9.550532356562693"><ele>144.0</ele><time>2026-03-28T11:03:04Z</time></trkpt><trkpt lat="39.95777741093449" lon="9.550587468787162"><ele>144.0</ele><time>2026-03-28T11:03:05Z</time></trkpt><trkpt lat="39.95772568176255" lon="9.550660636965976"><ele>144.0</ele><time>2026-03-28T11:03:06Z</time></trkpt><trkpt lat="39.957710864121665" lon="9.550757007925746"><ele>144.0</ele><time>2026-03-28T11:03:07Z</time></trkpt><trkpt lat="39.957733665079" lon="9.550863654633709"><ele>144.0</ele><time>2026-03-28T11:03:08Z</time></trkpt><trkpt lat="39.95777246796314" lon="9.550970648338845"><ele>144.0</ele><time>2026-03-28T11:03:09Z</time></trkpt><trkpt lat="39.95779550678205" lon="9.55107008429294"><ele>144.0</ele><time>2026-03-28T11:03:10Z</time></trkpt><trkpt lat="39.95778725700828" lon="9.551175055219764"><ele>144.0</ele><time>2026-03-28T11:03:11Z</time></trkpt><trkpt lat="39.95775217927781" lon="9.551264145053306"><ele>144.0</ele><time>2026-03-28T11:03:12Z</time></trkpt><trkpt lat="39.95770875970326" lon="9.551342332697716"><ele>144.0</ele><time>2026-03-28T11:03:13Z</time></trkpt><trkpt lat="39.95765625507626" lon="9.551412500979868"><ele>143.0</ele><time>2026-03-28T11:03:14Z</time></trkpt><trkpt lat="39.957612456662474" lon="9.55149901707671"><ele>142.0</ele><time>2026-03-28T11:03:15Z</time></trkpt><trkpt lat="39.95759834817604" lon="9.551588315559489"><ele>141.0</ele><time>2026-03-28T11:03:16Z</time></trkpt><trkpt lat="39.957625648949026" lon="9.551675568250728"><ele>140.0</ele><time>2026-03-28T11:03:17Z</time></trkpt><trkpt lat="39.95768687856395" lon="9.55174364118688"><ele>139.0</ele><time>2026-03-28T11:03:18Z</time></trkpt><trkpt lat="39.95776793487136" lon="9.551788541080214"><ele>138.0</ele><time>2026-03-28T11:03:19Z</time></trkpt><trkpt lat="39.95783979879929" lon="9.55183483289104"><ele>138.0</ele><time>2026-03-28T11:03:20Z</time></trkpt><trkpt lat="39.957910445476" lon="9.5519184902484"><ele>138.0</ele><time>2026-03-28T11:03:21Z</time></trkpt><trkpt lat="39.95796245326754" lon="9.552038824058254"><ele>138.0</ele><time>2026-03-28T11:03:22Z</time></trkpt><trkpt lat="39.958010466414784" lon="9.552154058288632"><ele>138.0</ele><time>2026-03-28T11:03:23Z</time></trkpt><trkpt lat="39.95805537057751" lon="9.55226132403723"><ele>138.0</ele><time>2026-03-28T11:03:24Z</time></trkpt><trkpt lat="39.95808385086245" lon="9.552369286831434"><ele>141.5</ele><time>2026-03-28T11:03:25Z</time></trkpt><trkpt lat="39.95808821768423" lon="9.552487030224766"><ele>145.0</ele><time>2026-03-28T11:03:26Z</time></trkpt><trkpt lat="39.958079912923495" lon="9.552595677532016"><ele>148.5</ele><time>2026-03-28T11:03:27Z</time></trkpt><trkpt lat="39.95810712954311" lon="9.55267856968339"><ele>152.0</ele><time>2026-03-28T11:03:28Z</time></trkpt><trkpt lat="39.95817297633135" lon="9.552742377328112"><ele>155.5</ele><time>2026-03-28T11:03:29Z</time></trkpt><trkpt lat="39.9582597714702" lon="9.55277047748147"><ele>159.0</ele><time>2026-03-28T11:03:30Z</time></trkpt><trkpt lat="39.958352280864844" lon="9.552773265465515"><ele>161.4</ele><time>2026-03-28T11:03:31Z</time></trkpt><trkpt lat="39.95844454461411" lon="9.552775441005611"><ele>163.8</ele><time>2026-03-28T11:03:32Z</time></trkpt><trkpt lat="39.95853561097601" lon="9.552796682173497"><ele>166.20000000000002</ele><time>2026-03-28T11:03:33Z</time></trkpt><trkpt lat="39.95862509546385" lon="9.552830533739087"><ele>168.60000000000002</ele><time>2026-03-28T11:03:34Z</time></trkpt><trkpt lat="39.958712577759805" lon="9.552868039222172"><ele>171.0</ele><time>2026-03-28T11:03:35Z</time></trkpt><trkpt lat="39.95879657323043" lon="9.55291704587171"><ele>171.0</ele><time>2026-03-28T11:03:36Z</time></trkpt><trkpt lat="39.95888059042351" lon="9.552980754670118"><ele>171.0</ele><time>2026-03-28T11:03:37Z</time></trkpt><trkpt lat="39.95896008837682" lon="9.55306079062378"><ele>171.0</ele><time>2026-03-28T11:03:38Z</time></trkpt><trkpt lat="39.959038906846644" lon="9.553145669916159"><ele>171.0</ele><time>2026-03-28T11:03:39Z</time></trkpt><trkpt lat="39.959121440394476" lon="9.553222568705829"><ele>171.0</ele><time>2026-03-28T11:03:40Z</time></trkpt><trkpt lat="39.95922076815589" lon="9.553267375435134"><ele>167.75</ele><time>2026-03-28T11:03:41Z</time></trkpt><trkpt lat="39.959332680410306" lon="9.553284478705098"><ele>164.5</ele><time>2026-03-28T11:03:42Z</time></trkpt><trkpt lat="39.9594473557976" lon="9.553300649723218"><ele>161.25</ele><time>2026-03-28T11:03:43Z</time></trkpt><trkpt lat="39.95956020035964" lon="9.553327927351758"><ele>158.0</ele><time>2026-03-28T11:03:44Z</time></trkpt><trkpt lat="39.95966765041506" lon="9.55336006207453"><ele>158.0</ele><time>2026-03-28T11:03:45Z</time></trkpt><trkpt lat="39.95977684439357" lon="9.55338447518469"><ele>158.0</ele><time>2026-03-28T11:03:46Z</time></trkpt><trkpt lat="39.9598846247787" lon="9.55339862288237"><ele>158.0</ele><time>2026-03-28T11:03:47Z</time></trkpt><trkpt lat="39.959992235092734" lon="9.553416678297936"><ele>158.0</ele><time>2026-03-28T11:03:48Z</time></trkpt><trkpt lat="39.96009291780066" lon="9.553456938525205"><ele>158.0</ele><time>2026-03-28T11:03:49Z</time></trkpt><trkpt lat="39.96016976102166" lon="9.553529061345186"><ele>154.20000000000002</ele><time>2026-03-28T11:03:50Z</time></trkpt><trkpt lat="39.96022072580503" lon="9.553630879623638"><ele>150.4</ele><time>2026-03-28T11:03:51Z</time></trkpt><trkpt lat="39.96023865082347" lon="9.553755556683392"><ele>146.60000000000002</ele><time>2026-03-28T11:03:52Z</time></trkpt><trkpt lat="39.96023097364726" lon="9.553887782321587"><ele>142.8</ele><time>2026-03-28T11:03:53Z</time></trkpt><trkpt lat="39.96022474918733" lon="9.554022829449016"><ele>139.0</ele><time>2026-03-28T11:03:54Z</time></trkpt><trkpt lat="39.96022389324413" lon="9.554161200146298"><ele>139.0</ele><time>2026-03-28T11:03:55Z</time></trkpt><trkpt lat="39.96022529528884" lon="9.554303550277767"><ele>139.0</ele><time>2026-03-28T11:03:56Z</time></trkpt><trkpt lat="39.96022512989419" lon="9.554444081976714"><ele>139.0</ele><time>2026-03-28T11:03:57Z</time></trkpt><trkpt lat="39.96022614192376" lon="9.554580990996602"><ele>139.0</ele><time>2026-03-28T11:03:58Z</time></trkpt><trkpt lat="39.96024334131368" lon="9.554715035435157"><ele>139.0</ele><time>2026-03-28T11:03:59Z</time></trkpt><trkpt lat="39.960282852040464" lon="9.554845780906826"><ele>138.2</ele><time>2026-03-28T11:04:00Z</time></trkpt><trkpt lat="39.960341090261814" lon="9.554966561548026"><ele>137.4</ele><time>2026-03-28T11:04:01Z</time></trkpt><trkpt lat="39.96040134654829" lon="9.555085032947174"><ele>136.6</ele><time>2026-03-28T11:04:02Z</time></trkpt><trkpt lat="39.960440977209174" lon="9.555203235728415"><ele>135.8</ele><time>2026-03-28T11:04:03Z</time></trkpt><trkpt lat="39.96045088786148" lon="9.555328250521178"><ele>135.0</ele><time>2026-03-28T11:04:04Z</time></trkpt><trkpt lat="39.96042970186954" lon="9.55545795785325"><ele>135.0</ele><time>2026-03-28T11:04:05Z</time></trkpt><trkpt lat="39.960390227486855" lon="9.555583137979696"><ele>135.0</ele><time>2026-03-28T11:04:06Z</time></trkpt><trkpt lat="39.960336786873874" lon="9.555683250656749"><ele>135.0</ele><time>2026-03-28T11:04:07Z</time></trkpt><trkpt lat="39.960252476311794" lon="9.555736116736771"><ele>135.0</ele><time>2026-03-28T11:04:08Z</time></trkpt><trkpt lat="39.96018424635161" lon="9.555814808783017"><ele>135.0</ele><time>2026-03-28T11:04:09Z</time></trkpt><trkpt lat="39.96009576211283" lon="9.555862089199666"><ele>136.0</ele><time>2026-03-28T11:04:10Z</time></trkpt><trkpt lat="39.96000995649007" lon="9.555933516805599"><ele>137.0</ele><time>2026-03-28T11:04:11Z</time></trkpt><trkpt lat="39.95993272961598" lon="9.556030067341638"><ele>138.0</ele><time>2026-03-28T11:04:12Z</time></trkpt><trkpt lat="39.959855376048026" lon="9.556134879726509"><ele>139.0</ele><time>2026-03-28T11:04:13Z</time></trkpt><trkpt lat="39.95977914197299" lon="9.556230002984528"><ele>140.0</ele><time>2026-03-28T11:04:14Z</time></trkpt><trkpt lat="39.95970139567619" lon="9.5563080734708"><ele>140.0</ele><time>2026-03-28T11:04:15Z</time></trkpt><trkpt lat="39.959609392924364" lon="9.55634947349189"><ele>140.0</ele><time>2026-03-28T11:04:16Z</time></trkpt><trkpt lat="39.95952690226261" lon="9.556381280547264"><ele>140.0</ele><time>2026-03-28T11:04:17Z</time></trkpt><trkpt lat="39.95943996563956" lon="9.556408852475483"><ele>140.0</ele><time>2026-03-28T11:04:18Z</time></trkpt><trkpt lat="39.959352828476156" lon="9.55641057644086"><ele>140.0</ele><time>2026-03-28T11:04:19Z</time></trkpt><trkpt lat="39.959256224773796" lon="9.556406132758477"><ele>145.8</ele><time>2026-03-28T11:04:20Z</time></trkpt><trkpt lat="39.95915251795134" lon="9.556398742464717"><ele>151.6</ele><time>2026-03-28T11:04:21Z</time></trkpt><trkpt lat="39.95903625824463" lon="9.556411804572035"><ele>157.39999999999998</ele><time>2026-03-28T11:04:22Z</time></trkpt><trkpt lat="39.95893271957878" lon="9.556396677475487"><ele>163.2</ele><time>2026-03-28T11:04:23Z</time></trkpt><trkpt lat="39.95884321233262" lon="9.556508060716782"><ele>169.0</ele><time>2026-03-28T11:04:25Z</time></trkpt><trkpt lat="39.958813632310566" lon="9.556645261604336"><ele>169.0</ele><time>2026-03-28T11:04:27Z</time></trkpt><trkpt lat="39.9588506347246" lon="9.556783167915002"><ele>169.0</ele><time>2026-03-28T11:04:29Z</time></trkpt><trkpt lat="39.95889423194541" lon="9.556968755991509"><ele>169.0</ele><time>2026-03-28T11:04:31Z</time></trkpt><trkpt lat="39.95893426988192" lon="9.557066981926015"><ele>169.0</ele><time>2026-03-28T11:04:32Z</time></trkpt><trkpt lat="39.95896509626998" lon="9.557170300888092"><ele>169.0</ele><time>2026-03-28T11:04:33Z</time></trkpt><trkpt lat="39.95900194082204" lon="9.557297826625092"><ele>168.75</ele><time>2026-03-28T11:04:34Z</time></trkpt><trkpt lat="39.95912861247374" lon="9.5573907293353"><ele>168.5</ele><time>2026-03-28T11:04:35Z</time></trkpt><trkpt lat="39.95918004101869" lon="9.557527759784845"><ele>168.25</ele><time>2026-03-28T11:04:36Z</time></trkpt><trkpt lat="39.95923425090192" lon="9.557666522397106"><ele>168.0</ele><time>2026-03-28T11:04:37Z</time></trkpt><trkpt lat="39.95928679087462" lon="9.55780315079818"><ele>159.4</ele><time>2026-03-28T11:04:38Z</time></trkpt><trkpt lat="39.959332693889436" lon="9.557939168837054"><ele>150.8</ele><time>2026-03-28T11:04:39Z</time></trkpt><trkpt lat="39.959376057349075" lon="9.558072072179995"><ele>142.2</ele><time>2026-03-28T11:04:40Z</time></trkpt><trkpt lat="39.95942152616208" lon="9.558203671388794"><ele>133.6</ele><time>2026-03-28T11:04:41Z</time></trkpt><trkpt lat="39.95945807579406" lon="9.558337026611476"><ele>125.0</ele><time>2026-03-28T11:04:42Z</time></trkpt><trkpt lat="39.95948272039299" lon="9.558475250316135"><ele>125.0</ele><time>2026-03-28T11:04:43Z</time></trkpt><trkpt lat="39.95950411867965" lon="9.55861009594576"><ele>125.0</ele><time>2026-03-28T11:04:44Z</time></trkpt><trkpt lat="39.959528221302996" lon="9.558742376412697"><ele>125.0</ele><time>2026-03-28T11:04:45Z</time></trkpt><trkpt lat="39.95954906836326" lon="9.558886649781101"><ele>125.0</ele><time>2026-03-28T11:04:46Z</time></trkpt><trkpt lat="39.95957676158668" lon="9.559013615862655"><ele>125.0</ele><time>2026-03-28T11:04:47Z</time></trkpt><trkpt lat="39.959595006529455" lon="9.559147403568355"><ele>125.0</ele><time>2026-03-28T11:04:48Z</time></trkpt><trkpt lat="39.959602050674725" lon="9.559286907044457"><ele>125.0</ele><time>2026-03-28T11:04:49Z</time></trkpt><trkpt lat="39.959603584402515" lon="9.55943002096443"><ele>125.0</ele><time>2026-03-28T11:04:50Z</time></trkpt><trkpt lat="39.959607580895906" lon="9.559576707347937"><ele>125.0</ele><time>2026-03-28T11:04:51Z</time></trkpt><trkpt lat="39.95960243844517" lon="9.559719695469786"><ele>125.0</ele><time>2026-03-28T11:04:52Z</time></trkpt><trkpt lat="39.95957727139841" lon="9.559845644081983"><ele>124.99999999999999</ele><time>2026-03-28T11:04:53Z</time></trkpt><trkpt lat="39.95952358079331" lon="9.55994126907714"><ele>125.0</ele><time>2026-03-28T11:04:54Z</time></trkpt><trkpt lat="39.959452961101285" lon="9.559994662219884"><ele>125.0</ele><time>2026-03-28T11:04:55Z</time></trkpt><trkpt lat="39.959369625862905" lon="9.559985221527665"><ele>125.0</ele><time>2026-03-28T11:04:56Z</time></trkpt><trkpt lat="39.959278929544276" lon="9.559999499782585"><ele>124.99999999999999</ele><time>2026-03-28T11:04:57Z</time></trkpt><trkpt lat="39.95918507394006" lon="9.56000862730411"><ele>125.0</ele><time>2026-03-28T11:04:58Z</time></trkpt><trkpt lat="39.959082927822614" lon="9.56003359772724"><ele>132.25</ele><time>2026-03-28T11:04:59Z</time></trkpt><trkpt lat="39.958975940735044" lon="9.560082166423884"><ele>139.5</ele><time>2026-03-28T11:05:00Z</time></trkpt><trkpt lat="39.95886170259618" lon="9.560107193493"><ele>146.75</ele><time>2026-03-28T11:05:01Z</time></trkpt><trkpt lat="39.95874850337518" lon="9.560139482875051"><ele>154.0</ele><time>2026-03-28T11:05:02Z</time></trkpt><trkpt lat="39.95864384778972" lon="9.560166525231327"><ele>154.0</ele><time>2026-03-28T11:05:03Z</time></trkpt><trkpt lat="39.958551346050285" lon="9.560186021545716"><ele>154.0</ele><time>2026-03-28T11:05:04Z</time></trkpt><trkpt lat="39.95847616389491" lon="9.56020971168393"><ele>154.0</ele><time>2026-03-28T11:05:05Z</time></trkpt><trkpt lat="39.95840258931074" lon="9.560324451572262"><ele>154.0</ele><time>2026-03-28T11:05:07Z</time></trkpt><trkpt lat="39.95841776259381" lon="9.560415139924835"><ele>154.0</ele><time>2026-03-28T11:05:08Z</time></trkpt><trkpt lat="39.9584439625679" lon="9.560524128216832"><ele>154.0</ele><time>2026-03-28T11:05:09Z</time></trkpt><trkpt lat="39.9584751602634" lon="9.560638271764654"><ele>149.4</ele><time>2026-03-28T11:05:10Z</time></trkpt><trkpt lat="39.95853373472981" lon="9.560746750384572"><ele>144.8</ele><time>2026-03-28T11:05:11Z</time></trkpt><trkpt lat="39.958618815986824" lon="9.560819407544633"><ele>140.2</ele><time>2026-03-28T11:05:12Z</time></trkpt><trkpt lat="39.958713174620506" lon="9.560893514755334"><ele>135.6</ele><time>2026-03-28T11:05:13Z</time></trkpt><trkpt lat="39.95879162219104" lon="9.560998176140192"><ele>131.0</ele><time>2026-03-28T11:05:14Z</time></trkpt><trkpt lat="39.95886216871687" lon="9.561119379970396"><ele>131.25</ele><time>2026-03-28T11:05:15Z</time></trkpt><trkpt lat="39.95893425852149" lon="9.561238700074474"><ele>131.5</ele><time>2026-03-28T11:05:16Z</time></trkpt><trkpt lat="39.95900403425604" lon="9.56136147841727"><ele>131.75</ele><time>2026-03-28T11:05:17Z</time></trkpt><trkpt lat="39.959072878077414" lon="9.561485343518415"><ele>132.0</ele><time>2026-03-28T11:05:18Z</time></trkpt><trkpt lat="39.959138349229484" lon="9.561611256152602"><ele>127.33333333333333</ele><time>2026-03-28T11:05:19Z</time></trkpt><trkpt lat="39.95920231636838" lon="9.561724831659848"><ele>122.66666666666666</ele><time>2026-03-28T11:05:20Z</time></trkpt><trkpt lat="39.959277474881674" lon="9.561801546333559"><ele>118.0</ele><time>2026-03-28T11:05:21Z</time></trkpt><trkpt lat="39.95934679569547" lon="9.561851519380182"><ele>113.33333333333333</ele><time>2026-03-28T11:05:22Z</time></trkpt><trkpt lat="39.95940845068454" lon="9.561910071384276"><ele>108.66666666666666</ele><time>2026-03-28T11:05:24Z</time></trkpt><trkpt lat="39.95946117043643" lon="9.561966788446046"><ele>104.0</ele><time>2026-03-28T11:05:28Z</time></trkpt><trkpt lat="39.959537350579254" lon="9.561970547150823"><ele>103.99999999999999</ele><time>2026-03-28T11:05:38Z</time></trkpt><trkpt lat="39.95960214509967" lon="9.561958407031621"><ele>104.0</ele><time>2026-03-28T11:05:39Z</time></trkpt><trkpt lat="39.95967101943492" lon="9.56198797568143"><ele>104.0</ele><time>2026-03-28T11:05:40Z</time></trkpt><trkpt lat="39.959734527724514" lon="9.5620594422367"><ele>104.0</ele><time>2026-03-28T11:05:41Z</time></trkpt><trkpt lat="39.95978424827954" lon="9.562154855783156"><ele>103.99999999999999</ele><time>2026-03-28T11:05:42Z</time></trkpt><trkpt lat="39.959839431724745" lon="9.562247060303243"><ele>104.0</ele><time>2026-03-28T11:05:43Z</time></trkpt><trkpt lat="39.95991047087608" lon="9.562328966076588"><ele>104.99999999999999</ele><time>2026-03-28T11:05:44Z</time></trkpt><trkpt lat="39.95998442994364" lon="9.56239382715702"><ele>106.0</ele><time>2026-03-28T11:05:45Z</time></trkpt><trkpt lat="39.96005236067794" lon="9.562461851888427"><ele>107.0</ele><time>2026-03-28T11:05:46Z</time></trkpt><trkpt lat="39.960099061646495" lon="9.562526387165533"><ele>108.0</ele><time>2026-03-28T11:05:47Z</time></trkpt><trkpt lat="39.9601678456053" lon="9.56265225869022"><ele>108.99999999999999</ele><time>2026-03-28T11:05:49Z</time></trkpt><trkpt lat="39.96019218945364" lon="9.562730210318401"><ele>110.0</ele><time>2026-03-28T11:05:50Z</time></trkpt><trkpt lat="39.96021326851848" lon="9.5628572089946"><ele>107.8</ele><time>2026-03-28T11:05:52Z</time></trkpt><trkpt lat="39.96023622488511" lon="9.562957799163316"><ele>105.6</ele><time>2026-03-28T11:05:54Z</time></trkpt><trkpt lat="39.960271517241516" lon="9.563059924239589"><ele>103.4</ele><time>2026-03-28T11:05:56Z</time></trkpt><trkpt lat="39.9603176354962" lon="9.563212471017735"><ele>101.2</ele><time>2026-03-28T11:05:58Z</time></trkpt><trkpt lat="39.96034077024176" lon="9.56331110833752"><ele>99.0</ele><time>2026-03-28T11:05:59Z</time></trkpt><trkpt lat="39.96036239635019" lon="9.56341838324489"><ele>99.0</ele><time>2026-03-28T11:06:00Z</time></trkpt><trkpt lat="39.96035605436639" lon="9.563524040509089"><ele>99.0</ele><time>2026-03-28T11:06:01Z</time></trkpt><trkpt lat="39.96032323086394" lon="9.56362036932175"><ele>99.0</ele><time>2026-03-28T11:06:02Z</time></trkpt><trkpt lat="39.96029394705467" lon="9.563705044652735"><ele>99.0</ele><time>2026-03-28T11:06:03Z</time></trkpt><trkpt lat="39.960294847908735" lon="9.563792780396271"><ele>99.0</ele><time>2026-03-28T11:06:04Z</time></trkpt><trkpt lat="39.96033772745578" lon="9.563871201905307"><ele>99.0</ele><time>2026-03-28T11:06:05Z</time></trkpt><trkpt lat="39.960412867817254" lon="9.563927424088764"><ele>99.6</ele><time>2026-03-28T11:06:06Z</time></trkpt><trkpt lat="39.96049766128709" lon="9.56398084687132"><ele>100.2</ele><time>2026-03-28T11:06:07Z</time></trkpt><trkpt lat="39.96058885396757" lon="9.564035906011558"><ele>100.8</ele><time>2026-03-28T11:06:08Z</time></trkpt><trkpt lat="39.96068663569881" lon="9.56408206309425"><ele>101.39999999999999</ele><time>2026-03-28T11:06:09Z</time></trkpt><trkpt lat="39.9607811901235" lon="9.564135034658896"><ele>102.0</ele><time>2026-03-28T11:06:10Z</time></trkpt><trkpt lat="39.96086721496038" lon="9.56421284167439"><ele>100.39999999999999</ele><time>2026-03-28T11:06:11Z</time></trkpt><trkpt lat="39.960947605534336" lon="9.56430307767844"><ele>98.8</ele><time>2026-03-28T11:06:12Z</time></trkpt><trkpt lat="39.961029643996866" lon="9.56439511505821"><ele>97.2</ele><time>2026-03-28T11:06:13Z</time></trkpt><trkpt lat="39.96109948684834" lon="9.564482363915957"><ele>95.6</ele><time>2026-03-28T11:06:14Z</time></trkpt><trkpt lat="39.96116270654518" lon="9.564548096601833"><ele>94.0</ele><time>2026-03-28T11:06:15Z</time></trkpt><trkpt lat="39.96122874926721" lon="9.564579601541988"><ele>94.0</ele><time>2026-03-28T11:06:16Z</time></trkpt><trkpt lat="39.96133057766065" lon="9.564553248477578"><ele>94.0</ele><time>2026-03-28T11:06:18Z</time></trkpt><trkpt lat="39.96139055623388" lon="9.564519617093978"><ele>94.0</ele><time>2026-03-28T11:06:20Z</time></trkpt><trkpt lat="39.96133980309623" lon="9.564262703684367"><ele>94.0</ele><time>2026-03-28T11:06:24Z</time></trkpt><trkpt lat="39.96128903407501" lon="9.564182361331618"><ele>93.66666666666666</ele><time>2026-03-28T11:06:25Z</time></trkpt><trkpt lat="39.96123305989243" lon="9.564099080635234"><ele>93.33333333333333</ele><time>2026-03-28T11:06:26Z</time></trkpt><trkpt lat="39.961185459609084" lon="9.564028258836672"><ele>93.0</ele><time>2026-03-28T11:06:27Z</time></trkpt><trkpt lat="39.96113352874867" lon="9.563950993978981"><ele>92.66666666666667</ele><time>2026-03-28T11:06:28Z</time></trkpt><trkpt lat="39.96108061459377" lon="9.563873260762444"><ele>92.33333333333334</ele><time>2026-03-28T11:06:29Z</time></trkpt><trkpt lat="39.96102004120298" lon="9.563790595724772"><ele>92.0</ele><time>2026-03-28T11:06:30Z</time></trkpt><trkpt lat="39.960958588911296" lon="9.563707370921998"><ele>92.39999999999999</ele><time>2026-03-28T11:06:31Z</time></trkpt><trkpt lat="39.96089620426073" lon="9.56361896185355"><ele>92.8</ele><time>2026-03-28T11:06:32Z</time></trkpt><trkpt lat="39.96083590048307" lon="9.563517819288636"><ele>93.2</ele><time>2026-03-28T11:06:33Z</time></trkpt><trkpt lat="39.960780286058835" lon="9.56340283952734"><ele>93.6</ele><time>2026-03-28T11:06:34Z</time></trkpt><trkpt lat="39.960729260637784" lon="9.56328763053453"><ele>94.0</ele><time>2026-03-28T11:06:35Z</time></trkpt><trkpt lat="39.96068180243402" lon="9.563177901675248"><ele>94.6</ele><time>2026-03-28T11:06:36Z</time></trkpt><trkpt lat="39.960637516409946" lon="9.563074837872094"><ele>95.2</ele><time>2026-03-28T11:06:37Z</time></trkpt><trkpt lat="39.96060282725263" lon="9.562990217653779"><ele>95.8</ele><time>2026-03-28T11:06:38Z</time></trkpt><trkpt lat="39.96060742789463" lon="9.562863559231067"><ele>96.39999999999999</ele><time>2026-03-28T11:06:40Z</time></trkpt><trkpt lat="39.96070962582411" lon="9.562794505938703"><ele>97.0</ele><time>2026-03-28T11:06:42Z</time></trkpt><trkpt lat="39.96079873870764" lon="9.562711871693026"><ele>97.0</ele><time>2026-03-28T11:06:44Z</time></trkpt><trkpt lat="39.9608516615748" lon="9.562660284877063"><ele>97.0</ele><time>2026-03-28T11:06:45Z</time></trkpt><trkpt lat="39.960941071165564" lon="9.562638087021751"><ele>97.0</ele><time>2026-03-28T11:06:47Z</time></trkpt><trkpt lat="39.96103679370254" lon="9.562761857389315"><ele>97.0</ele><time>2026-03-28T11:06:49Z</time></trkpt><trkpt lat="39.961089684374315" lon="9.562841790476396"><ele>97.0</ele><time>2026-03-28T11:06:50Z</time></trkpt><trkpt lat="39.96114792612584" lon="9.562924366966268"><ele>96.39999999999999</ele><time>2026-03-28T11:06:51Z</time></trkpt><trkpt lat="39.9612115000581" lon="9.563011673970504"><ele>95.8</ele><time>2026-03-28T11:06:52Z</time></trkpt><trkpt lat="39.961275763256786" lon="9.563093400320964"><ele>95.2</ele><time>2026-03-28T11:06:53Z</time></trkpt><trkpt lat="39.96134622694905" lon="9.563181646084086"><ele>94.6</ele><time>2026-03-28T11:06:54Z</time></trkpt><trkpt lat="39.96141770116401" lon="9.563276773602407"><ele>94.0</ele><time>2026-03-28T11:06:55Z</time></trkpt><trkpt lat="39.961497895181495" lon="9.563363238694311"><ele>94.0</ele><time>2026-03-28T11:06:56Z</time></trkpt><trkpt lat="39.96159602691209" lon="9.563434202669395"><ele>94.0</ele><time>2026-03-28T11:06:57Z</time></trkpt><trkpt lat="39.961689959931306" lon="9.56350592153525"><ele>94.0</ele><time>2026-03-28T11:06:58Z</time></trkpt><trkpt lat="39.96178457401124" lon="9.563579174960024"><ele>94.0</ele><time>2026-03-28T11:06:59Z</time></trkpt><trkpt lat="39.961877334824855" lon="9.563671220857053"><ele>94.0</ele><time>2026-03-28T11:07:00Z</time></trkpt><trkpt lat="39.96196164769451" lon="9.56378652043693"><ele>93.75</ele><time>2026-03-28T11:07:01Z</time></trkpt><trkpt lat="39.962048462178664" lon="9.56390861228377"><ele>93.5</ele><time>2026-03-28T11:07:02Z</time></trkpt><trkpt lat="39.96214059875791" lon="9.564032326364227"><ele>93.25</ele><time>2026-03-28T11:07:03Z</time></trkpt><trkpt lat="39.96223218084837" lon="9.564157555458614"><ele>93.0</ele><time>2026-03-28T11:07:04Z</time></trkpt><trkpt lat="39.9623225195667" lon="9.56427871771353"><ele>93.0</ele><time>2026-03-28T11:07:05Z</time></trkpt><trkpt lat="39.9624120326384" lon="9.56438300418967"><ele>93.0</ele><time>2026-03-28T11:07:06Z</time></trkpt><trkpt lat="39.9624958030059" lon="9.564479630207577"><ele>93.0</ele><time>2026-03-28T11:07:07Z</time></trkpt><trkpt lat="39.96257093447738" lon="9.56457126086922"><ele>93.0</ele><time>2026-03-28T11:07:08Z</time></trkpt><trkpt lat="39.96263245895917" lon="9.564675113615422"><ele>93.0</ele><time>2026-03-28T11:07:09Z</time></trkpt><trkpt lat="39.96269792849731" lon="9.56476445771443"><ele>92.2</ele><time>2026-03-28T11:07:10Z</time></trkpt><trkpt lat="39.962773500818926" lon="9.564833117426636"><ele>91.4</ele><time>2026-03-28T11:07:11Z</time></trkpt><trkpt lat="39.96285385047899" lon="9.564893569670964"><ele>90.60000000000001</ele><time>2026-03-28T11:07:12Z</time></trkpt><trkpt lat="39.9629489310634" lon="9.564934165366804"><ele>89.80000000000001</ele><time>2026-03-28T11:07:13Z</time></trkpt><trkpt lat="39.963054405551354" lon="9.564967077510413"><ele>89.0</ele><time>2026-03-28T11:07:14Z</time></trkpt><trkpt lat="39.963163609143244" lon="9.564997380989603"><ele>89.0</ele><time>2026-03-28T11:07:15Z</time></trkpt><trkpt lat="39.963267786081126" lon="9.565044041012982"><ele>89.0</ele><time>2026-03-28T11:07:16Z</time></trkpt><trkpt lat="39.96337246755941" lon="9.565076653252156"><ele>89.0</ele><time>2026-03-28T11:07:17Z</time></trkpt><trkpt lat="39.96348170158121" lon="9.565093535776604"><ele>89.0</ele><time>2026-03-28T11:07:18Z</time></trkpt><trkpt lat="39.96358913329437" lon="9.565105435427004"><ele>89.0</ele><time>2026-03-28T11:07:19Z</time></trkpt><trkpt lat="39.963698150965804" lon="9.565104180661102"><ele>90.5</ele><time>2026-03-28T11:07:20Z</time></trkpt><trkpt lat="39.96380875083339" lon="9.565091191907976"><ele>92.0</ele><time>2026-03-28T11:07:21Z</time></trkpt><trkpt lat="39.96391874641049" lon="9.565054771151292"><ele>93.5</ele><time>2026-03-28T11:07:22Z</time></trkpt><trkpt lat="39.964024786285954" lon="9.564998664507849"><ele>95.0</ele><time>2026-03-28T11:07:23Z</time></trkpt><trkpt lat="39.96412254955959" lon="9.564923134597949"><ele>96.0</ele><time>2026-03-28T11:07:24Z</time></trkpt><trkpt lat="39.964209585007126" lon="9.564834208437686"><ele>97.0</ele><time>2026-03-28T11:07:25Z</time></trkpt><trkpt lat="39.96429716526883" lon="9.564754421136607"><ele>98.0</ele><time>2026-03-28T11:07:26Z</time></trkpt><trkpt lat="39.96438120027667" lon="9.564675624166293"><ele>99.0</ele><time>2026-03-28T11:07:27Z</time></trkpt><trkpt lat="39.96446878741428" lon="9.564602055495783"><ele>100.0</ele><time>2026-03-28T11:07:28Z</time></trkpt><trkpt lat="39.96455250096861" lon="9.564514765815877"><ele>100.0</ele><time>2026-03-28T11:07:29Z</time></trkpt><trkpt lat="39.96463248744986" lon="9.564438423296776"><ele>100.0</ele><time>2026-03-28T11:07:30Z</time></trkpt><trkpt lat="39.96471620921772" lon="9.564387254603817"><ele>100.0</ele><time>2026-03-28T11:07:31Z</time></trkpt><trkpt lat="39.96479880048854" lon="9.564328741567413"><ele>100.0</ele><time>2026-03-28T11:07:32Z</time></trkpt><trkpt lat="39.964888897537705" lon="9.564270296022551"><ele>100.0</ele><time>2026-03-28T11:07:33Z</time></trkpt><trkpt lat="39.96499327471863" lon="9.56424037219626"><ele>101.4</ele><time>2026-03-28T11:07:34Z</time></trkpt><trkpt lat="39.96509650060983" lon="9.564233842554891"><ele>102.8</ele><time>2026-03-28T11:07:35Z</time></trkpt><trkpt lat="39.96519421162277" lon="9.564251316227727"><ele>104.19999999999999</ele><time>2026-03-28T11:07:36Z</time></trkpt><trkpt lat="39.965266701080445" lon="9.56430627391092"><ele>105.6</ele><time>2026-03-28T11:07:37Z</time></trkpt><trkpt lat="39.965312922220434" lon="9.564395994400044"><ele>107.0</ele><time>2026-03-28T11:07:38Z</time></trkpt><trkpt lat="39.96535408098229" lon="9.564500924761179"><ele>105.8</ele><time>2026-03-28T11:07:39Z</time></trkpt><trkpt lat="39.96540180972522" lon="9.564617858194874"><ele>104.6</ele><time>2026-03-28T11:07:40Z</time></trkpt><trkpt lat="39.96544938160468" lon="9.564737066460108"><ele>103.39999999999999</ele><time>2026-03-28T11:07:41Z</time></trkpt><trkpt lat="39.96549830711601" lon="9.564860420991216"><ele>102.19999999999999</ele><time>2026-03-28T11:07:42Z</time></trkpt><trkpt lat="39.96554519170425" lon="9.56498627995599"><ele>101.0</ele><time>2026-03-28T11:07:43Z</time></trkpt><trkpt lat="39.96559433710237" lon="9.565119925437566"><ele>101.0</ele><time>2026-03-28T11:07:44Z</time></trkpt><trkpt lat="39.965646370984324" lon="9.565249085268897"><ele>101.0</ele><time>2026-03-28T11:07:45Z</time></trkpt><trkpt lat="39.96569611593913" lon="9.565380257628284"><ele>101.0</ele><time>2026-03-28T11:07:46Z</time></trkpt><trkpt lat="39.96574383714854" lon="9.565510938622452"><ele>101.0</ele><time>2026-03-28T11:07:47Z</time></trkpt><trkpt lat="39.96579146946228" lon="9.565641763690696"><ele>101.0</ele><time>2026-03-28T11:07:48Z</time></trkpt><trkpt lat="39.96584056938929" lon="9.565770856965088"><ele>101.4</ele><time>2026-03-28T11:07:49Z</time></trkpt><trkpt lat="39.96588781091091" lon="9.5658982956338"><ele>101.8</ele><time>2026-03-28T11:07:50Z</time></trkpt><trkpt lat="39.965926645946446" lon="9.56601790648014"><ele>102.2</ele><time>2026-03-28T11:07:51Z</time></trkpt><trkpt lat="39.965952277759634" lon="9.566132412967132"><ele>102.60000000000001</ele><time>2026-03-28T11:07:52Z</time></trkpt><trkpt lat="39.96596980534626" lon="9.566236824414952"><ele>103.0</ele><time>2026-03-28T11:07:53Z</time></trkpt><trkpt lat="39.965978779718405" lon="9.566344690846917"><ele>103.0</ele><time>2026-03-28T11:07:54Z</time></trkpt><trkpt lat="39.96597796738961" lon="9.566473240144726"><ele>103.0</ele><time>2026-03-28T11:07:55Z</time></trkpt><trkpt lat="39.96597519378955" lon="9.566599125648917"><ele>103.0</ele><time>2026-03-28T11:07:56Z</time></trkpt><trkpt lat="39.96599219164425" lon="9.566729677738822"><ele>103.0</ele><time>2026-03-28T11:07:57Z</time></trkpt><trkpt lat="39.966028272238304" lon="9.56686290710272"><ele>103.0</ele><time>2026-03-28T11:07:58Z</time></trkpt><trkpt lat="39.96610244265872" lon="9.566971438258646"><ele>102.60000000000001</ele><time>2026-03-28T11:07:59Z</time></trkpt><trkpt lat="39.96618432624034" lon="9.56707468546268"><ele>102.2</ele><time>2026-03-28T11:08:00Z</time></trkpt><trkpt lat="39.96626442279774" lon="9.567175307402096"><ele>101.8</ele><time>2026-03-28T11:08:01Z</time></trkpt><trkpt lat="39.96634265112771" lon="9.567261457552451"><ele>101.4</ele><time>2026-03-28T11:08:02Z</time></trkpt><trkpt lat="39.966409363811984" lon="9.567358582016148"><ele>101.0</ele><time>2026-03-28T11:08:03Z</time></trkpt><trkpt lat="39.966468244464494" lon="9.567463946177298"><ele>101.0</ele><time>2026-03-28T11:08:04Z</time></trkpt><trkpt lat="39.96652150856508" lon="9.56757411651979"><ele>101.0</ele><time>2026-03-28T11:08:05Z</time></trkpt><trkpt lat="39.96656668971351" lon="9.567694724074979"><ele>101.0</ele><time>2026-03-28T11:08:06Z</time></trkpt><trkpt lat="39.96661638269566" lon="9.567819972036197"><ele>101.0</ele><time>2026-03-28T11:08:07Z</time></trkpt><trkpt lat="39.96665067316032" lon="9.567952954952384"><ele>101.0</ele><time>2026-03-28T11:08:08Z</time></trkpt><trkpt lat="39.966680842479214" lon="9.568080361029121"><ele>100.4</ele><time>2026-03-28T11:08:09Z</time></trkpt><trkpt lat="39.966725189332834" lon="9.568192316695127"><ele>99.8</ele><time>2026-03-28T11:08:10Z</time></trkpt><trkpt lat="39.966775480050764" lon="9.568315033071222"><ele>99.2</ele><time>2026-03-28T11:08:11Z</time></trkpt><trkpt lat="39.966827458592846" lon="9.568455096565312"><ele>98.60000000000001</ele><time>2026-03-28T11:08:12Z</time></trkpt><trkpt lat="39.966878976234696" lon="9.56858575539002"><ele>98.0</ele><time>2026-03-28T11:08:13Z</time></trkpt><trkpt lat="39.96691831051109" lon="9.568708213471263"><ele>98.0</ele><time>2026-03-28T11:08:14Z</time></trkpt><trkpt lat="39.96696815017611" lon="9.568821145736283"><ele>98.0</ele><time>2026-03-28T11:08:15Z</time></trkpt><trkpt lat="39.96702862441216" lon="9.568916451646132"><ele>98.0</ele><time>2026-03-28T11:08:16Z</time></trkpt><trkpt lat="39.96710177046143" lon="9.568979748133092"><ele>98.0</ele><time>2026-03-28T11:08:17Z</time></trkpt><trkpt lat="39.96717076194235" lon="9.56902464102827"><ele>98.0</ele><time>2026-03-28T11:08:18Z</time></trkpt><trkpt lat="39.9672706443453" lon="9.569131733959278"><ele>98.0</ele><time>2026-03-28T11:08:20Z</time></trkpt><trkpt lat="39.967307915238685" lon="9.569221677836165"><ele>98.0</ele><time>2026-03-28T11:08:21Z</time></trkpt><trkpt lat="39.967326557474635" lon="9.569325978340288"><ele>98.0</ele><time>2026-03-28T11:08:22Z</time></trkpt><trkpt lat="39.96732429114818" lon="9.56942392318666"><ele>98.0</ele><time>2026-03-28T11:08:23Z</time></trkpt><trkpt lat="39.9672354134375" lon="9.569599311402497"><ele>98.0</ele><time>2026-03-28T11:08:25Z</time></trkpt><trkpt lat="39.96718139747695" lon="9.569725917062353"><ele>96.5</ele><time>2026-03-28T11:08:26Z</time></trkpt><trkpt lat="39.96710027987254" lon="9.569845483070406"><ele>95.0</ele><time>2026-03-28T11:08:27Z</time></trkpt><trkpt lat="39.967020776130745" lon="9.5699698116773"><ele>93.5</ele><time>2026-03-28T11:08:28Z</time></trkpt><trkpt lat="39.96694640508205" lon="9.57008543021556"><ele>92.0</ele><time>2026-03-28T11:08:29Z</time></trkpt><trkpt lat="39.966881205057305" lon="9.570174959903005"><ele>92.0</ele><time>2026-03-28T11:08:30Z</time></trkpt><trkpt lat="39.96683072880877" lon="9.570235838181496"><ele>92.0</ele><time>2026-03-28T11:08:31Z</time></trkpt><trkpt lat="39.96677053314613" lon="9.570306752988218"><ele>92.0</ele><time>2026-03-28T11:08:34Z</time></trkpt><trkpt lat="39.96669542340104" lon="9.570372135563426"><ele>92.0</ele><time>2026-03-28T11:09:02Z</time></trkpt><trkpt lat="39.9666314355253" lon="9.570436068652008"><ele>92.0</ele><time>2026-03-28T11:09:04Z</time></trkpt><trkpt lat="39.966570765813124" lon="9.570495940266813"><ele>92.0</ele><time>2026-03-28T11:09:07Z</time></trkpt><trkpt lat="39.966517876036065" lon="9.570570891246739"><ele>92.0</ele><time>2026-03-28T11:12:21Z</time></trkpt><trkpt lat="39.96657784929693" lon="9.57050489047008"><ele>92.0</ele><time>2026-03-28T11:12:27Z</time></trkpt><trkpt lat="39.966667143876684" lon="9.570413063492255"><ele>92.0</ele><time>2026-03-28T11:12:29Z</time></trkpt><trkpt lat="39.96672266193132" lon="9.570348747081887"><ele>92.0</ele><time>2026-03-28T11:12:30Z</time></trkpt><trkpt lat="39.96677631988599" lon="9.570290983594909"><ele>92.0</ele><time>2026-03-28T11:12:31Z</time></trkpt><trkpt lat="39.96687543474709" lon="9.570207277688535"><ele>92.0</ele><time>2026-03-28T11:12:33Z</time></trkpt><trkpt lat="39.96694066017332" lon="9.57012426694014"><ele>92.0</ele><time>2026-03-28T11:12:35Z</time></trkpt><trkpt lat="39.96697629989818" lon="9.570042268484974"><ele>92.0</ele><time>2026-03-28T11:12:37Z</time></trkpt><trkpt lat="39.9670217887921" lon="9.569964962701546"><ele>92.0</ele><time>2026-03-28T11:12:40Z</time></trkpt><trkpt lat="39.96695386267195" lon="9.57004432672068"><ele>92.0</ele><time>2026-03-28T11:12:50Z</time></trkpt><trkpt lat="39.96689789470004" lon="9.570154423329283"><ele>92.0</ele><time>2026-03-28T11:12:51Z</time></trkpt><trkpt lat="39.96681065206979" lon="9.57026644335073"><ele>91.75</ele><time>2026-03-28T11:12:52Z</time></trkpt><trkpt lat="39.966701128258045" lon="9.570390119724697"><ele>91.5</ele><time>2026-03-28T11:12:53Z</time></trkpt><trkpt lat="39.966592582894215" lon="9.570504151134253"><ele>91.25</ele><time>2026-03-28T11:12:54Z</time></trkpt><trkpt lat="39.966470401742676" lon="9.570626577716343"><ele>91.0</ele><time>2026-03-28T11:12:55Z</time></trkpt><trkpt lat="39.966342793602195" lon="9.57076378837018"><ele>92.0</ele><time>2026-03-28T11:12:56Z</time></trkpt><trkpt lat="39.96621753059048" lon="9.570905390506427"><ele>93.0</ele><time>2026-03-28T11:12:57Z</time></trkpt><trkpt lat="39.96610186431754" lon="9.571033650794998"><ele>94.0</ele><time>2026-03-28T11:12:58Z</time></trkpt><trkpt lat="39.96598984292563" lon="9.571151083241013"><ele>94.0</ele><time>2026-03-28T11:12:59Z</time></trkpt><trkpt lat="39.965883086832875" lon="9.57126413346412"><ele>94.0</ele><time>2026-03-28T11:13:00Z</time></trkpt><trkpt lat="39.96578086017944" lon="9.57137130650986"><ele>94.0</ele><time>2026-03-28T11:13:01Z</time></trkpt><trkpt lat="39.96568647654428" lon="9.571469598405049"><ele>94.0</ele><time>2026-03-28T11:13:02Z</time></trkpt><trkpt lat="39.965602360195845" lon="9.571562488408098"><ele>94.0</ele><time>2026-03-28T11:13:03Z</time></trkpt><trkpt lat="39.965523271497744" lon="9.571648967278717"><ele>94.0</ele><time>2026-03-28T11:13:04Z</time></trkpt><trkpt lat="39.96545490341543" lon="9.571727662222333"><ele>94.0</ele><time>2026-03-28T11:13:05Z</time></trkpt><trkpt lat="39.96538853805338" lon="9.57177642400496"><ele>94.0</ele><time>2026-03-28T11:13:06Z</time></trkpt><trkpt lat="39.965337560387354" lon="9.571831391047398"><ele>94.0</ele><time>2026-03-28T11:13:07Z</time></trkpt><trkpt lat="39.9652879844991" lon="9.571884846577788"><ele>94.0</ele><time>2026-03-28T11:13:08Z</time></trkpt><trkpt lat="39.96523940590282" lon="9.571963292410432"><ele>93.2</ele><time>2026-03-28T11:13:09Z</time></trkpt><trkpt lat="39.965163608477255" lon="9.57202520807221"><ele>92.4</ele><time>2026-03-28T11:13:10Z</time></trkpt><trkpt lat="39.96508987200734" lon="9.572104570076213"><ele>91.6</ele><time>2026-03-28T11:13:11Z</time></trkpt><trkpt lat="39.96501559951477" lon="9.572183158568768"><ele>90.8</ele><time>2026-03-28T11:13:12Z</time></trkpt><trkpt lat="39.96493891240187" lon="9.572267312996257"><ele>90.0</ele><time>2026-03-28T11:13:13Z</time></trkpt><trkpt lat="39.96486569986069" lon="9.572356198840472"><ele>90.0</ele><time>2026-03-28T11:13:14Z</time></trkpt><trkpt lat="39.96480815237486" lon="9.572457206699589"><ele>90.0</ele><time>2026-03-28T11:13:15Z</time></trkpt><trkpt lat="39.96475810080972" lon="9.572599728080142"><ele>90.0</ele><time>2026-03-28T11:13:16Z</time></trkpt><trkpt lat="39.96470116259171" lon="9.572761393566303"><ele>90.0</ele><time>2026-03-28T11:13:17Z</time></trkpt><trkpt lat="39.964634888992116" lon="9.572932692712508"><ele>91.0</ele><time>2026-03-28T11:13:18Z</time></trkpt><trkpt lat="39.96458091267155" lon="9.573093668148376"><ele>92.0</ele><time>2026-03-28T11:13:19Z</time></trkpt><trkpt lat="39.964531414814225" lon="9.573243770365137"><ele>93.0</ele><time>2026-03-28T11:13:20Z</time></trkpt><trkpt lat="39.96448001833958" lon="9.573383239853193"><ele>94.0</ele><time>2026-03-28T11:13:21Z</time></trkpt><trkpt lat="39.96443286217155" lon="9.5735168338115"><ele>94.0</ele><time>2026-03-28T11:13:22Z</time></trkpt><trkpt lat="39.96438805863618" lon="9.573647621042282"><ele>94.0</ele><time>2026-03-28T11:13:23Z</time></trkpt><trkpt lat="39.96434185263417" lon="9.573777605593602"><ele>94.0</ele><time>2026-03-28T11:13:24Z</time></trkpt><trkpt lat="39.96429343668127" lon="9.5739159646394"><ele>94.0</ele><time>2026-03-28T11:13:25Z</time></trkpt><trkpt lat="39.96424982964981" lon="9.57406323330006"><ele>94.25</ele><time>2026-03-28T11:13:26Z</time></trkpt><trkpt lat="39.964212683952304" lon="9.574215115236242"><ele>94.5</ele><time>2026-03-28T11:13:27Z</time></trkpt><trkpt lat="39.96417965976547" lon="9.57436047859268"><ele>94.75</ele><time>2026-03-28T11:13:28Z</time></trkpt><trkpt lat="39.96414828011049" lon="9.574502541085423"><ele>95.0</ele><time>2026-03-28T11:13:29Z</time></trkpt><trkpt lat="39.96411733696993" lon="9.574643264657265"><ele>91.0</ele><time>2026-03-28T11:13:30Z</time></trkpt><trkpt lat="39.964089522561714" lon="9.574783896729366"><ele>87.0</ele><time>2026-03-28T11:13:31Z</time></trkpt><trkpt lat="39.9640633884257" lon="9.574925520137628"><ele>83.0</ele><time>2026-03-28T11:13:32Z</time></trkpt><trkpt lat="39.96404153489317" lon="9.575071015049943"><ele>79.0</ele><time>2026-03-28T11:13:33Z</time></trkpt><trkpt lat="39.9640255751687" lon="9.575222124256198"><ele>78.4</ele><time>2026-03-28T11:13:34Z</time></trkpt><trkpt lat="39.96401573841766" lon="9.575371353562488"><ele>77.80000000000001</ele><time>2026-03-28T11:13:35Z</time></trkpt><trkpt lat="39.964013220354246" lon="9.575513496283762"><ele>77.19999999999999</ele><time>2026-03-28T11:13:36Z</time></trkpt><trkpt lat="39.96401801621052" lon="9.575651511651657"><ele>76.6</ele><time>2026-03-28T11:13:37Z</time></trkpt><trkpt lat="39.96403679496707" lon="9.575787017572535"><ele>76.0</ele><time>2026-03-28T11:13:38Z</time></trkpt><trkpt lat="39.964078332061845" lon="9.575913778054277"><ele>76.0</ele><time>2026-03-28T11:13:39Z</time></trkpt><trkpt lat="39.96413846976656" lon="9.57602278332515"><ele>76.0</ele><time>2026-03-28T11:13:40Z</time></trkpt><trkpt lat="39.964213170785" lon="9.576119097205998"><ele>76.0</ele><time>2026-03-28T11:13:41Z</time></trkpt><trkpt lat="39.9642932836639" lon="9.576220044706927"><ele>76.0</ele><time>2026-03-28T11:13:42Z</time></trkpt><trkpt lat="39.96437050836843" lon="9.57632651692591"><ele>76.0</ele><time>2026-03-28T11:13:43Z</time></trkpt><trkpt lat="39.964439883885554" lon="9.576426761923848"><ele>75.8</ele><time>2026-03-28T11:13:44Z</time></trkpt><trkpt lat="39.96450893892291" lon="9.576525730142674"><ele>75.6</ele><time>2026-03-28T11:13:45Z</time></trkpt><trkpt lat="39.964578367565885" lon="9.576632843521136"><ele>75.4</ele><time>2026-03-28T11:13:46Z</time></trkpt><trkpt lat="39.96464239509856" lon="9.57675586562038"><ele>75.2</ele><time>2026-03-28T11:13:47Z</time></trkpt><trkpt lat="39.96470294527696" lon="9.576887385682923"><ele>75.0</ele><time>2026-03-28T11:13:48Z</time></trkpt><trkpt lat="39.96476088959255" lon="9.577026290992265"><ele>75.0</ele><time>2026-03-28T11:13:49Z</time></trkpt><trkpt lat="39.96481661015463" lon="9.577173896901265"><ele>75.0</ele><time>2026-03-28T11:13:50Z</time></trkpt><trkpt lat="39.96487623565794" lon="9.577322816572181"><ele>75.0</ele><time>2026-03-28T11:13:51Z</time></trkpt><trkpt lat="39.96493782616838" lon="9.577473682386286"><ele>75.0</ele><time>2026-03-28T11:13:52Z</time></trkpt><trkpt lat="39.96499845140416" lon="9.577630759665759"><ele>78.0</ele><time>2026-03-28T11:13:53Z</time></trkpt><trkpt lat="39.96505666500983" lon="9.577785542856278"><ele>81.0</ele><time>2026-03-28T11:13:54Z</time></trkpt><trkpt lat="39.96511311932007" lon="9.577939119729374"><ele>84.0</ele><time>2026-03-28T11:13:55Z</time></trkpt><trkpt lat="39.965172267065974" lon="9.57809214487287"><ele>87.0</ele><time>2026-03-28T11:13:56Z</time></trkpt><trkpt lat="39.96523876506999" lon="9.578249783928367"><ele>87.0</ele><time>2026-03-28T11:13:57Z</time></trkpt><trkpt lat="39.9653138879448" lon="9.578405381613518"><ele>87.0</ele><time>2026-03-28T11:13:58Z</time></trkpt><trkpt lat="39.96539962354134" lon="9.578553448309385"><ele>87.0</ele><time>2026-03-28T11:13:59Z</time></trkpt><trkpt lat="39.965488798213954" lon="9.578692518979617"><ele>87.0</ele><time>2026-03-28T11:14:00Z</time></trkpt><trkpt lat="39.965574250967336" lon="9.578834969677791"><ele>84.75</ele><time>2026-03-28T11:14:01Z</time></trkpt><trkpt lat="39.965651424895505" lon="9.578991532856138"><ele>82.5</ele><time>2026-03-28T11:14:02Z</time></trkpt><trkpt lat="39.96572493905491" lon="9.579158123351977"><ele>80.25</ele><time>2026-03-28T11:14:03Z</time></trkpt><trkpt lat="39.96580299649413" lon="9.579330808503315"><ele>78.0</ele><time>2026-03-28T11:14:04Z</time></trkpt><trkpt lat="39.96587762337485" lon="9.579505181627868"><ele>84.75</ele><time>2026-03-28T11:14:05Z</time></trkpt><trkpt lat="39.96594736709419" lon="9.579676465718816"><ele>91.5</ele><time>2026-03-28T11:14:06Z</time></trkpt><trkpt lat="39.96601505095502" lon="9.579838792832101"><ele>98.25</ele><time>2026-03-28T11:14:07Z</time></trkpt><trkpt lat="39.96608069967339" lon="9.5799931994618"><ele>105.0</ele><time>2026-03-28T11:14:08Z</time></trkpt><trkpt lat="39.96613653178024" lon="9.580146006513004"><ele>105.0</ele><time>2026-03-28T11:14:09Z</time></trkpt><trkpt lat="39.966179913313226" lon="9.580305197670414"><ele>105.0</ele><time>2026-03-28T11:14:10Z</time></trkpt><trkpt lat="39.966207290083155" lon="9.580478448052352"><ele>105.0</ele><time>2026-03-28T11:14:11Z</time></trkpt><trkpt lat="39.96622579938317" lon="9.580658337036677"><ele>105.0</ele><time>2026-03-28T11:14:12Z</time></trkpt><trkpt lat="39.966242539178545" lon="9.580840832965677"><ele>102.0</ele><time>2026-03-28T11:14:13Z</time></trkpt><trkpt lat="39.966246561467834" lon="9.581015835693545"><ele>99.0</ele><time>2026-03-28T11:14:14Z</time></trkpt><trkpt lat="39.96622958112894" lon="9.581186145894863"><ele>96.0</ele><time>2026-03-28T11:14:15Z</time></trkpt><trkpt lat="39.966198995523015" lon="9.581350794730735"><ele>93.0</ele><time>2026-03-28T11:14:16Z</time></trkpt><trkpt lat="39.96616294023675" lon="9.581512086443835"><ele>92.0</ele><time>2026-03-28T11:14:17Z</time></trkpt><trkpt lat="39.96612497245874" lon="9.581673554320528"><ele>91.0</ele><time>2026-03-28T11:14:18Z</time></trkpt><trkpt lat="39.96608511006638" lon="9.581832147672964"><ele>90.0</ele><time>2026-03-28T11:14:19Z</time></trkpt><trkpt lat="39.96604284201226" lon="9.581994642898724"><ele>89.0</ele><time>2026-03-28T11:14:20Z</time></trkpt><trkpt lat="39.96601175763074" lon="9.582159406212355"><ele>89.0</ele><time>2026-03-28T11:14:21Z</time></trkpt><trkpt lat="39.96598232436082" lon="9.582330585590865"><ele>89.0</ele><time>2026-03-28T11:14:22Z</time></trkpt><trkpt lat="39.9659589986197" lon="9.582508864305831"><ele>89.0</ele><time>2026-03-28T11:14:23Z</time></trkpt><trkpt lat="39.96593608306076" lon="9.582695996413896"><ele>89.0</ele><time>2026-03-28T11:14:24Z</time></trkpt><trkpt lat="39.96591341685814" lon="9.582884042529958"><ele>89.0</ele><time>2026-03-28T11:14:25Z</time></trkpt><trkpt lat="39.965891529234995" lon="9.583069942311496"><ele>89.0</ele><time>2026-03-28T11:14:26Z</time></trkpt><trkpt lat="39.96587045887872" lon="9.583253512824868"><ele>89.0</ele><time>2026-03-28T11:14:27Z</time></trkpt><trkpt lat="39.9658507678812" lon="9.583427582708016"><ele>89.0</ele><time>2026-03-28T11:14:28Z</time></trkpt><trkpt lat="39.96583181029405" lon="9.58359924802929"><ele>84.0</ele><time>2026-03-28T11:14:29Z</time></trkpt><trkpt lat="39.96581060445953" lon="9.583766120124006"><ele>79.0</ele><time>2026-03-28T11:14:30Z</time></trkpt><trkpt lat="39.965789480686155" lon="9.583928987275504"><ele>74.0</ele><time>2026-03-28T11:14:31Z</time></trkpt><trkpt lat="39.96577176988607" lon="9.584086636537805"><ele>69.0</ele><time>2026-03-28T11:14:32Z</time></trkpt><trkpt lat="39.965758344818944" lon="9.584233516236123"><ele>69.0</ele><time>2026-03-28T11:14:33Z</time></trkpt><trkpt lat="39.96576102045311" lon="9.584374518388769"><ele>69.0</ele><time>2026-03-28T11:14:34Z</time></trkpt><trkpt lat="39.96577612449875" lon="9.584507671350426"><ele>69.0</ele><time>2026-03-28T11:14:35Z</time></trkpt><trkpt lat="39.96581037295943" lon="9.584626373294936"><ele>69.0</ele><time>2026-03-28T11:14:36Z</time></trkpt><trkpt lat="39.96585068781568" lon="9.58473830757562"><ele>69.0</ele><time>2026-03-28T11:14:37Z</time></trkpt><trkpt lat="39.96589464597349" lon="9.584852757949982"><ele>69.60000000000001</ele><time>2026-03-28T11:14:38Z</time></trkpt><trkpt lat="39.965941864470985" lon="9.584971147097004"><ele>70.2</ele><time>2026-03-28T11:14:39Z</time></trkpt><trkpt lat="39.96599303260972" lon="9.585091793897346"><ele>70.80000000000001</ele><time>2026-03-28T11:14:40Z</time></trkpt><trkpt lat="39.9660490822901" lon="9.585215666395731"><ele>71.4</ele><time>2026-03-28T11:14:41Z</time></trkpt><trkpt lat="39.96611004898524" lon="9.585344943148211"><ele>72.0</ele><time>2026-03-28T11:14:42Z</time></trkpt><trkpt lat="39.96618382069453" lon="9.585470191882251"><ele>70.5</ele><time>2026-03-28T11:14:43Z</time></trkpt><trkpt lat="39.96626038934649" lon="9.58560030268562"><ele>69.0</ele><time>2026-03-28T11:14:44Z</time></trkpt><trkpt lat="39.966342513155176" lon="9.585730377337933"><ele>67.5</ele><time>2026-03-28T11:14:45Z</time></trkpt><trkpt lat="39.96643263135004" lon="9.585854824586391"><ele>66.0</ele><time>2026-03-28T11:14:46Z</time></trkpt><trkpt lat="39.966524302734925" lon="9.585974748393806"><ele>66.0</ele><time>2026-03-28T11:14:47Z</time></trkpt><trkpt lat="39.96662568316289" lon="9.58608119540078"><ele>66.0</ele><time>2026-03-28T11:14:48Z</time></trkpt><trkpt lat="39.96673536854752" lon="9.586173694717417"><ele>66.0</ele><time>2026-03-28T11:14:49Z</time></trkpt><trkpt lat="39.96684870278881" lon="9.586256971181374"><ele>66.0</ele><time>2026-03-28T11:14:50Z</time></trkpt><trkpt lat="39.96696375496588" lon="9.586340457061825"><ele>66.0</ele><time>2026-03-28T11:14:51Z</time></trkpt><trkpt lat="39.967081357690326" lon="9.586423731365054"><ele>66.0</ele><time>2026-03-28T11:14:52Z</time></trkpt><trkpt lat="39.96719802444173" lon="9.586505270093125"><ele>66.0</ele><time>2026-03-28T11:14:53Z</time></trkpt><trkpt lat="39.967317730196314" lon="9.586570164673462"><ele>66.0</ele><time>2026-03-28T11:14:54Z</time></trkpt><trkpt lat="39.96743875523252" lon="9.586619820222387"><ele>67.0</ele><time>2026-03-28T11:14:55Z</time></trkpt><trkpt lat="39.96755467997986" lon="9.586663849061463"><ele>68.0</ele><time>2026-03-28T11:14:56Z</time></trkpt><trkpt lat="39.9676617673318" lon="9.586704651136566"><ele>69.0</ele><time>2026-03-28T11:14:57Z</time></trkpt><trkpt lat="39.96776207883275" lon="9.58674929066704"><ele>70.0</ele><time>2026-03-28T11:14:58Z</time></trkpt><trkpt lat="39.967851120089506" lon="9.586803025666999"><ele>71.0</ele><time>2026-03-28T11:14:59Z</time></trkpt><trkpt lat="39.967930774166334" lon="9.586866320805267"><ele>71.0</ele><time>2026-03-28T11:15:00Z</time></trkpt><trkpt lat="39.967997686145374" lon="9.586951664439042"><ele>71.0</ele><time>2026-03-28T11:15:01Z</time></trkpt><trkpt lat="39.96805691432683" lon="9.587054324093922"><ele>71.0</ele><time>2026-03-28T11:15:02Z</time></trkpt><trkpt lat="39.968114678266026" lon="9.587165025815228"><ele>71.0</ele><time>2026-03-28T11:15:03Z</time></trkpt><trkpt lat="39.96816172936786" lon="9.587287439440654"><ele>71.0</ele><time>2026-03-28T11:15:04Z</time></trkpt><trkpt lat="39.96819404016628" lon="9.587425911002631"><ele>70.2</ele><time>2026-03-28T11:15:05Z</time></trkpt><trkpt lat="39.96821157416308" lon="9.58757127464146"><ele>69.39999999999999</ele><time>2026-03-28T11:15:06Z</time></trkpt><trkpt lat="39.968224862475665" lon="9.58772083012464"><ele>68.6</ele><time>2026-03-28T11:15:07Z</time></trkpt><trkpt lat="39.96823444900047" lon="9.587867388973741"><ele>67.8</ele><time>2026-03-28T11:15:08Z</time></trkpt><trkpt lat="39.96824936263184" lon="9.588006898930269"><ele>67.0</ele><time>2026-03-28T11:15:09Z</time></trkpt><trkpt lat="39.968288262910335" lon="9.588126603602625"><ele>67.0</ele><time>2026-03-28T11:15:10Z</time></trkpt><trkpt lat="39.96834639955143" lon="9.588224877949692"><ele>67.0</ele><time>2026-03-28T11:15:11Z</time></trkpt><trkpt lat="39.9684257778928" lon="9.588296502741317"><ele>67.0</ele><time>2026-03-28T11:15:12Z</time></trkpt><trkpt lat="39.96851786753467" lon="9.588343342315731"><ele>67.0</ele><time>2026-03-28T11:15:13Z</time></trkpt><trkpt lat="39.96861309138927" lon="9.588388732644193"><ele>67.0</ele><time>2026-03-28T11:15:14Z</time></trkpt><trkpt lat="39.968710627812804" lon="9.588440421621414"><ele>67.0</ele><time>2026-03-28T11:15:15Z</time></trkpt><trkpt lat="39.96880949563462" lon="9.58849476804682"><ele>67.0</ele><time>2026-03-28T11:15:16Z</time></trkpt><trkpt lat="39.96891256121716" lon="9.588546476600829"><ele>67.0</ele><time>2026-03-28T11:15:17Z</time></trkpt><trkpt lat="39.96901939799254" lon="9.588595182187348"><ele>67.0</ele><time>2026-03-28T11:15:18Z</time></trkpt><trkpt lat="39.9691308048482" lon="9.588638399956404"><ele>67.0</ele><time>2026-03-28T11:15:19Z</time></trkpt><trkpt lat="39.96925030681285" lon="9.588647502081415"><ele>67.75</ele><time>2026-03-28T11:15:20Z</time></trkpt><trkpt lat="39.96937265527188" lon="9.58862875931294"><ele>68.5</ele><time>2026-03-28T11:15:21Z</time></trkpt><trkpt lat="39.969495964825214" lon="9.588589396456271"><ele>69.25</ele><time>2026-03-28T11:15:22Z</time></trkpt><trkpt lat="39.9696201652885" lon="9.58853991366058"><ele>70.0</ele><time>2026-03-28T11:15:23Z</time></trkpt><trkpt lat="39.96974357290632" lon="9.588478861737682"><ele>70.0</ele><time>2026-03-28T11:15:24Z</time></trkpt><trkpt lat="39.96986669991293" lon="9.588408162835618"><ele>70.0</ele><time>2026-03-28T11:15:25Z</time></trkpt><trkpt lat="39.969992368321" lon="9.588340464984322"><ele>70.0</ele><time>2026-03-28T11:15:26Z</time></trkpt><trkpt lat="39.97011582128715" lon="9.588279608379679"><ele>70.0</ele><time>2026-03-28T11:15:27Z</time></trkpt><trkpt lat="39.97022983853395" lon="9.588225325627592"><ele>70.0</ele><time>2026-03-28T11:15:28Z</time></trkpt><trkpt lat="39.97033325402297" lon="9.588211119278661"><ele>70.0</ele><time>2026-03-28T11:15:29Z</time></trkpt><trkpt lat="39.97041347187123" lon="9.588256395592222"><ele>70.0</ele><time>2026-03-28T11:15:30Z</time></trkpt><trkpt lat="39.97048015068941" lon="9.588337280380873"><ele>70.0</ele><time>2026-03-28T11:15:31Z</time></trkpt><trkpt lat="39.97053086614332" lon="9.588429767045973"><ele>70.0</ele><time>2026-03-28T11:15:32Z</time></trkpt><trkpt lat="39.97058124803074" lon="9.588511139288599"><ele>70.0</ele><time>2026-03-28T11:15:33Z</time></trkpt><trkpt lat="39.970621980905335" lon="9.588605236626515"><ele>70.0</ele><time>2026-03-28T11:15:34Z</time></trkpt><trkpt lat="39.97064840726448" lon="9.588725226261483"><ele>70.0</ele><time>2026-03-28T11:15:35Z</time></trkpt><trkpt lat="39.970659063040685" lon="9.588867317834628"><ele>70.0</ele><time>2026-03-28T11:15:36Z</time></trkpt><trkpt lat="39.97065788393818" lon="9.589016605634534"><ele>70.0</ele><time>2026-03-28T11:15:37Z</time></trkpt><trkpt lat="39.97063938366228" lon="9.5891671584403"><ele>71.75</ele><time>2026-03-28T11:15:38Z</time></trkpt><trkpt lat="39.97060360666774" lon="9.589314155427651"><ele>73.5</ele><time>2026-03-28T11:15:39Z</time></trkpt><trkpt lat="39.9705483650161" lon="9.589456085595652"><ele>75.25</ele><time>2026-03-28T11:15:40Z</time></trkpt><trkpt lat="39.97046946370362" lon="9.58958529671907"><ele>77.0</ele><time>2026-03-28T11:15:41Z</time></trkpt><trkpt lat="39.97035510856976" lon="9.589670668331635"><ele>77.5</ele><time>2026-03-28T11:15:42Z</time></trkpt><trkpt lat="39.97024073199514" lon="9.589756544519817"><ele>78.0</ele><time>2026-03-28T11:15:43Z</time></trkpt><trkpt lat="39.970124289613004" lon="9.589847400088138"><ele>78.5</ele><time>2026-03-28T11:15:44Z</time></trkpt><trkpt lat="39.97001884648836" lon="9.589959528892912"><ele>79.0</ele><time>2026-03-28T11:15:45Z</time></trkpt><trkpt lat="39.96991139587236" lon="9.590047562227332"><ele>79.0</ele><time>2026-03-28T11:15:46Z</time></trkpt><trkpt lat="39.969808985897174" lon="9.59013323273901"><ele>79.0</ele><time>2026-03-28T11:15:47Z</time></trkpt><trkpt lat="39.96971154095185" lon="9.59021337134458"><ele>79.0</ele><time>2026-03-28T11:15:48Z</time></trkpt><trkpt lat="39.9696175238825" lon="9.590294395197006"><ele>79.0</ele><time>2026-03-28T11:15:49Z</time></trkpt><trkpt lat="39.96952551006774" lon="9.590385299633196"><ele>78.0</ele><time>2026-03-28T11:15:50Z</time></trkpt><trkpt lat="39.96943310210301" lon="9.59048520172114"><ele>77.0</ele><time>2026-03-28T11:15:51Z</time></trkpt><trkpt lat="39.96934306448707" lon="9.59059837649205"><ele>76.0</ele><time>2026-03-28T11:15:52Z</time></trkpt><trkpt lat="39.96925635355304" lon="9.590724338690915"><ele>75.0</ele><time>2026-03-28T11:15:53Z</time></trkpt><trkpt lat="39.96917281598738" lon="9.590863425990786"><ele>75.0</ele><time>2026-03-28T11:15:54Z</time></trkpt><trkpt lat="39.96909142591315" lon="9.591007431703508"><ele>75.0</ele><time>2026-03-28T11:15:55Z</time></trkpt><trkpt lat="39.969008273368495" lon="9.591150260219194"><ele>75.0</ele><time>2026-03-28T11:15:56Z</time></trkpt><trkpt lat="39.968922823836486" lon="9.591292741063112"><ele>75.0</ele><time>2026-03-28T11:15:57Z</time></trkpt><trkpt lat="39.96884387357349" lon="9.59144243325581"><ele>77.5</ele><time>2026-03-28T11:15:58Z</time></trkpt><trkpt lat="39.96877241072723" lon="9.591600929345633"><ele>80.0</ele><time>2026-03-28T11:15:59Z</time></trkpt><trkpt lat="39.968705823324925" lon="9.591759686424124"><ele>82.5</ele><time>2026-03-28T11:16:00Z</time></trkpt><trkpt lat="39.96864070204928" lon="9.591917905194824"><ele>85.0</ele><time>2026-03-28T11:16:01Z</time></trkpt><trkpt lat="39.9685598460259" lon="9.592061149763595"><ele>82.0</ele><time>2026-03-28T11:16:02Z</time></trkpt><trkpt lat="39.96849518271405" lon="9.592210943786185"><ele>79.0</ele><time>2026-03-28T11:16:03Z</time></trkpt><trkpt lat="39.96843232387111" lon="9.592357665104169"><ele>76.0</ele><time>2026-03-28T11:16:04Z</time></trkpt><trkpt lat="39.96838259829359" lon="9.5925107762662"><ele>73.0</ele><time>2026-03-28T11:16:05Z</time></trkpt><trkpt lat="39.96831796009568" lon="9.592650819144747"><ele>73.0</ele><time>2026-03-28T11:16:06Z</time></trkpt><trkpt lat="39.968257560111375" lon="9.592778603503936"><ele>73.0</ele><time>2026-03-28T11:16:07Z</time></trkpt><trkpt lat="39.96820035280165" lon="9.592903908918414"><ele>73.0</ele><time>2026-03-28T11:16:08Z</time></trkpt><trkpt lat="39.96814711260502" lon="9.593026531966395"><ele>73.0</ele><time>2026-03-28T11:16:09Z</time></trkpt><trkpt lat="39.968096519954194" lon="9.593154864134915"><ele>73.0</ele><time>2026-03-28T11:16:10Z</time></trkpt><trkpt lat="39.96804602384017" lon="9.593288908729445"><ele>73.75</ele><time>2026-03-28T11:16:11Z</time></trkpt><trkpt lat="39.96798606099413" lon="9.593424211351387"><ele>74.5</ele><time>2026-03-28T11:16:12Z</time></trkpt><trkpt lat="39.96792552319924" lon="9.593561975373937"><ele>75.25</ele><time>2026-03-28T11:16:13Z</time></trkpt><trkpt lat="39.967862204604785" lon="9.593701053625008"><ele>76.0</ele><time>2026-03-28T11:16:14Z</time></trkpt><trkpt lat="39.96779803871117" lon="9.593844223636037"><ele>77.25</ele><time>2026-03-28T11:16:15Z</time></trkpt><trkpt lat="39.96773634382296" lon="9.593986153684654"><ele>78.5</ele><time>2026-03-28T11:16:16Z</time></trkpt><trkpt lat="39.967678925119735" lon="9.594119988410576"><ele>79.75</ele><time>2026-03-28T11:16:17Z</time></trkpt><trkpt lat="39.96762183954138" lon="9.594251411169287"><ele>81.0</ele><time>2026-03-28T11:16:18Z</time></trkpt><trkpt lat="39.96756555275974" lon="9.594379203188845"><ele>78.25</ele><time>2026-03-28T11:16:19Z</time></trkpt><trkpt lat="39.967509379062314" lon="9.59450771721035"><ele>75.5</ele><time>2026-03-28T11:16:20Z</time></trkpt><trkpt lat="39.96745213117376" lon="9.594637435346534"><ele>72.75</ele><time>2026-03-28T11:16:21Z</time></trkpt><trkpt lat="39.96739459425825" lon="9.594769051910063"><ele>70.0</ele><time>2026-03-28T11:16:22Z</time></trkpt><trkpt lat="39.96733354125842" lon="9.594902570851024"><ele>70.0</ele><time>2026-03-28T11:16:23Z</time></trkpt><trkpt lat="39.967269251270196" lon="9.59503793703917"><ele>70.0</ele><time>2026-03-28T11:16:24Z</time></trkpt><trkpt lat="39.96721149441143" lon="9.595177672722569"><ele>70.0</ele><time>2026-03-28T11:16:25Z</time></trkpt><trkpt lat="39.967165335063946" lon="9.5953227517367"><ele>70.0</ele><time>2026-03-28T11:16:26Z</time></trkpt><trkpt lat="39.967126913667464" lon="9.595475325067087"><ele>71.25</ele><time>2026-03-28T11:16:27Z</time></trkpt><trkpt lat="39.96709569934121" lon="9.595635595556411"><ele>72.5</ele><time>2026-03-28T11:16:28Z</time></trkpt><trkpt lat="39.967068002497285" lon="9.595803043274563"><ele>73.75</ele><time>2026-03-28T11:16:29Z</time></trkpt><trkpt lat="39.96704799153714" lon="9.595974260380535"><ele>75.0</ele><time>2026-03-28T11:16:30Z</time></trkpt><trkpt lat="39.967032324450614" lon="9.596138411448369"><ele>76.25</ele><time>2026-03-28T11:16:31Z</time></trkpt><trkpt lat="39.96701768509396" lon="9.596297760953577"><ele>77.5</ele><time>2026-03-28T11:16:32Z</time></trkpt><trkpt lat="39.9670032893769" lon="9.59645097885116"><ele>78.75</ele><time>2026-03-28T11:16:33Z</time></trkpt><trkpt lat="39.96698556080003" lon="9.596602330774182"><ele>80.0</ele><time>2026-03-28T11:16:34Z</time></trkpt><trkpt lat="39.96696707700328" lon="9.596750761437319"><ele>80.0</ele><time>2026-03-28T11:16:35Z</time></trkpt><trkpt lat="39.966948235934304" lon="9.596897370828264"><ele>80.0</ele><time>2026-03-28T11:16:36Z</time></trkpt><trkpt lat="39.96692940789533" lon="9.597044912263415"><ele>80.0</ele><time>2026-03-28T11:16:37Z</time></trkpt><trkpt lat="39.96690794102663" lon="9.59719431083418"><ele>80.0</ele><time>2026-03-28T11:16:38Z</time></trkpt><trkpt lat="39.96688660823993" lon="9.597348244423662"><ele>80.0</ele><time>2026-03-28T11:16:39Z</time></trkpt><trkpt lat="39.96686622957348" lon="9.59750697564523"><ele>80.0</ele><time>2026-03-28T11:16:40Z</time></trkpt><trkpt lat="39.96684319562767" lon="9.597659809293852"><ele>80.0</ele><time>2026-03-28T11:16:41Z</time></trkpt><trkpt lat="39.966829560253686" lon="9.597806269360666"><ele>80.0</ele><time>2026-03-28T11:16:42Z</time></trkpt><trkpt lat="39.96684271642307" lon="9.5979443276535"><ele>78.4</ele><time>2026-03-28T11:16:43Z</time></trkpt><trkpt lat="39.96688597562958" lon="9.59806176195616"><ele>76.8</ele><time>2026-03-28T11:16:44Z</time></trkpt><trkpt lat="39.96695391524776" lon="9.59815292636764"><ele>75.2</ele><time>2026-03-28T11:16:45Z</time></trkpt><trkpt lat="39.96703622177241" lon="9.59822850685353"><ele>73.6</ele><time>2026-03-28T11:16:46Z</time></trkpt><trkpt lat="39.967121592505755" lon="9.598305485477601"><ele>72.0</ele><time>2026-03-28T11:16:47Z</time></trkpt><trkpt lat="39.96720642488752" lon="9.598388055761989"><ele>72.0</ele><time>2026-03-28T11:16:48Z</time></trkpt><trkpt lat="39.96729488489195" lon="9.598474192341738"><ele>72.0</ele><time>2026-03-28T11:16:49Z</time></trkpt><trkpt lat="39.96738824576713" lon="9.598558519649592"><ele>72.0</ele><time>2026-03-28T11:16:50Z</time></trkpt><trkpt lat="39.967474788876416" lon="9.598639065050687"><ele>72.0</ele><time>2026-03-28T11:16:51Z</time></trkpt><trkpt lat="39.96754555868871" lon="9.598721265550209"><ele>72.0</ele><time>2026-03-28T11:16:52Z</time></trkpt><trkpt lat="39.96759226801325" lon="9.598808191452093"><ele>71.33333333333333</ele><time>2026-03-28T11:16:53Z</time></trkpt><trkpt lat="39.9676135016756" lon="9.598900849726283"><ele>70.66666666666667</ele><time>2026-03-28T11:16:54Z</time></trkpt><trkpt lat="39.967608014144666" lon="9.598992459205913"><ele>70.0</ele><time>2026-03-28T11:16:55Z</time></trkpt><trkpt lat="39.967580801282004" lon="9.599091945676545"><ele>69.33333333333334</ele><time>2026-03-28T11:16:56Z</time></trkpt><trkpt lat="39.967540407929704" lon="9.599198583148004"><ele>68.66666666666667</ele><time>2026-03-28T11:16:57Z</time></trkpt><trkpt lat="39.967489203420435" lon="9.599305220820733"><ele>68.0</ele><time>2026-03-28T11:16:58Z</time></trkpt><trkpt lat="39.96743061615805" lon="9.599416820602743"><ele>69.4</ele><time>2026-03-28T11:16:59Z</time></trkpt><trkpt lat="39.96736927113788" lon="9.599526460180956"><ele>70.8</ele><time>2026-03-28T11:17:00Z</time></trkpt><trkpt lat="39.96730212213316" lon="9.599631204572368"><ele>72.2</ele><time>2026-03-28T11:17:01Z</time></trkpt><trkpt lat="39.96722815169862" lon="9.5997300999581"><ele>73.6</ele><time>2026-03-28T11:17:02Z</time></trkpt><trkpt lat="39.96715874843532" lon="9.59983232409195"><ele>75.0</ele><time>2026-03-28T11:17:03Z</time></trkpt><trkpt lat="39.96709116466541" lon="9.59993601445089"><ele>75.0</ele><time>2026-03-28T11:17:04Z</time></trkpt><trkpt lat="39.96702973397394" lon="9.6000469958626"><ele>75.0</ele><time>2026-03-28T11:17:05Z</time></trkpt><trkpt lat="39.96697889583587" lon="9.600163339797426"><ele>75.0</ele><time>2026-03-28T11:17:06Z</time></trkpt><trkpt lat="39.9669366348195" lon="9.600279972488078"><ele>75.0</ele><time>2026-03-28T11:17:07Z</time></trkpt><trkpt lat="39.96690006013831" lon="9.600398719611977"><ele>75.0</ele><time>2026-03-28T11:17:08Z</time></trkpt><trkpt lat="39.96686556494831" lon="9.60051783257485"><ele>73.6</ele><time>2026-03-28T11:17:09Z</time></trkpt><trkpt lat="39.966826951011896" lon="9.600639798111883"><ele>72.2</ele><time>2026-03-28T11:17:10Z</time></trkpt><trkpt lat="39.966783133844636" lon="9.600763261922536"><ele>70.8</ele><time>2026-03-28T11:17:11Z</time></trkpt><trkpt lat="39.966740037532865" lon="9.600893142727402"><ele>69.4</ele><time>2026-03-28T11:17:12Z</time></trkpt><trkpt lat="39.966702453121336" lon="9.601025578528937"><ele>68.0</ele><time>2026-03-28T11:17:13Z</time></trkpt><trkpt lat="39.96666232940556" lon="9.601155319229703"><ele>69.6</ele><time>2026-03-28T11:17:14Z</time></trkpt><trkpt lat="39.96661978421099" lon="9.601281449967509"><ele>71.19999999999999</ele><time>2026-03-28T11:17:15Z</time></trkpt><trkpt lat="39.96657894460431" lon="9.601407959099324"><ele>72.8</ele><time>2026-03-28T11:17:16Z</time></trkpt><trkpt lat="39.966538998635464" lon="9.601535300467438"><ele>74.39999999999999</ele><time>2026-03-28T11:17:17Z</time></trkpt><trkpt lat="39.966497281375794" lon="9.601660465480222"><ele>76.0</ele><time>2026-03-28T11:17:18Z</time></trkpt><trkpt lat="39.966456624026996" lon="9.60178405304586"><ele>76.0</ele><time>2026-03-28T11:17:19Z</time></trkpt><trkpt lat="39.96641409245627" lon="9.601905424068923"><ele>76.0</ele><time>2026-03-28T11:17:20Z</time></trkpt><trkpt lat="39.96637361081875" lon="9.602027442698208"><ele>76.0</ele><time>2026-03-28T11:17:21Z</time></trkpt><trkpt lat="39.96633353268026" lon="9.602149644087868"><ele>76.0</ele><time>2026-03-28T11:17:22Z</time></trkpt><trkpt lat="39.96629225966062" lon="9.602269258540801"><ele>76.0</ele><time>2026-03-28T11:17:23Z</time></trkpt><trkpt lat="39.966253893008506" lon="9.602387877318115"><ele>77.6</ele><time>2026-03-28T11:17:24Z</time></trkpt><trkpt lat="39.9662195952079" lon="9.602509566574902"><ele>79.19999999999999</ele><time>2026-03-28T11:17:25Z</time></trkpt><trkpt lat="39.96619211102712" lon="9.60264026667765"><ele>80.80000000000001</ele><time>2026-03-28T11:17:26Z</time></trkpt><trkpt lat="39.9661701821695" lon="9.602775438516497"><ele>82.4</ele><time>2026-03-28T11:17:27Z</time></trkpt><trkpt lat="39.96614717051704" lon="9.602913551229562"><ele>84.0</ele><time>2026-03-28T11:17:28Z</time></trkpt><trkpt lat="39.96612786989208" lon="9.603053654327603"><ele>85.80000000000001</ele><time>2026-03-28T11:17:29Z</time></trkpt><trkpt lat="39.966110927741546" lon="9.603192004386557"><ele>87.60000000000001</ele><time>2026-03-28T11:17:30Z</time></trkpt><trkpt lat="39.966091595080535" lon="9.603324611231361"><ele>89.4</ele><time>2026-03-28T11:17:31Z</time></trkpt><trkpt lat="39.96607345421611" lon="9.60346030890099"><ele>91.2</ele><time>2026-03-28T11:17:32Z</time></trkpt><trkpt lat="39.966055571615975" lon="9.603598346758522"><ele>93.0</ele><time>2026-03-28T11:17:33Z</time></trkpt><trkpt lat="39.96603435261429" lon="9.603735312961746"><ele>95.60000000000001</ele><time>2026-03-28T11:17:34Z</time></trkpt><trkpt lat="39.96601515493547" lon="9.603871841610243"><ele>98.2</ele><time>2026-03-28T11:17:35Z</time></trkpt><trkpt lat="39.96599728719384" lon="9.604007543034855"><ele>100.8</ele><time>2026-03-28T11:17:36Z</time></trkpt><trkpt lat="39.96598053879815" lon="9.604144153678673"><ele>103.4</ele><time>2026-03-28T11:17:37Z</time></trkpt><trkpt lat="39.965965409157825" lon="9.60428034211655"><ele>106.0</ele><time>2026-03-28T11:17:38Z</time></trkpt><trkpt lat="39.965942233839144" lon="9.604415193808613"><ele>107.6</ele><time>2026-03-28T11:17:39Z</time></trkpt><trkpt lat="39.96590864469161" lon="9.604537939141304"><ele>109.19999999999999</ele><time>2026-03-28T11:17:40Z</time></trkpt><trkpt lat="39.96585991374486" lon="9.604644165775728"><ele>110.80000000000001</ele><time>2026-03-28T11:17:41Z</time></trkpt><trkpt lat="39.96579256592837" lon="9.60471322162741"><ele>112.4</ele><time>2026-03-28T11:17:42Z</time></trkpt><trkpt lat="39.965692952032384" lon="9.604719931390283"><ele>114.0</ele><time>2026-03-28T11:17:43Z</time></trkpt><trkpt lat="39.96559728115333" lon="9.604706105696287"><ele>107.6</ele><time>2026-03-28T11:17:44Z</time></trkpt><trkpt lat="39.96549947432563" lon="9.604701569297037"><ele>101.2</ele><time>2026-03-28T11:17:45Z</time></trkpt><trkpt lat="39.96539898817705" lon="9.604695172193418"><ele>94.8</ele><time>2026-03-28T11:17:46Z</time></trkpt><trkpt lat="39.96527378375185" lon="9.604687843036809"><ele>88.39999999999999</ele><time>2026-03-28T11:17:47Z</time></trkpt><trkpt lat="39.9651570511548" lon="9.60468328383464"><ele>82.0</ele><time>2026-03-28T11:17:48Z</time></trkpt><trkpt lat="39.965048082740736" lon="9.604675811281599"><ele>80.8</ele><time>2026-03-28T11:17:49Z</time></trkpt><trkpt lat="39.96495016447109" lon="9.60465953063334"><ele>79.6</ele><time>2026-03-28T11:17:50Z</time></trkpt><trkpt lat="39.96485918226398" lon="9.604634713471377"><ele>78.39999999999999</ele><time>2026-03-28T11:17:51Z</time></trkpt><trkpt lat="39.96476604398644" lon="9.60460651628758"><ele>77.19999999999999</ele><time>2026-03-28T11:17:52Z</time></trkpt><trkpt lat="39.96467119979077" lon="9.604576952059812"><ele>76.0</ele><time>2026-03-28T11:17:53Z</time></trkpt><trkpt lat="39.96456963016119" lon="9.604545714056828"><ele>76.0</ele><time>2026-03-28T11:17:54Z</time></trkpt><trkpt lat="39.9644662419295" lon="9.604517641366913"><ele>76.0</ele><time>2026-03-28T11:17:55Z</time></trkpt><trkpt lat="39.96435738966976" lon="9.604496996773145"><ele>76.0</ele><time>2026-03-28T11:17:56Z</time></trkpt><trkpt lat="39.96424726165311" lon="9.604497549201609"><ele>76.0</ele><time>2026-03-28T11:17:57Z</time></trkpt><trkpt lat="39.96413627565537" lon="9.60452585623245"><ele>76.0</ele><time>2026-03-28T11:17:58Z</time></trkpt><trkpt lat="39.96403487500327" lon="9.604589774373098"><ele>76.39999999999999</ele><time>2026-03-28T11:17:59Z</time></trkpt><trkpt lat="39.963932995103676" lon="9.60463701536893"><ele>76.8</ele><time>2026-03-28T11:18:00Z</time></trkpt><trkpt lat="39.96383929299166" lon="9.604691085842397"><ele>77.19999999999999</ele><time>2026-03-28T11:18:01Z</time></trkpt><trkpt lat="39.96374676732967" lon="9.604731212699212"><ele>77.6</ele><time>2026-03-28T11:18:02Z</time></trkpt><trkpt lat="39.96366840095514" lon="9.604788111285535"><ele>78.0</ele><time>2026-03-28T11:18:03Z</time></trkpt><trkpt lat="39.96361206904316" lon="9.604866330099153"><ele>78.0</ele><time>2026-03-28T11:18:04Z</time></trkpt><trkpt lat="39.963551172889005" lon="9.60489079398998"><ele>78.0</ele><time>2026-03-28T11:18:05Z</time></trkpt><trkpt lat="39.96347413383592" lon="9.604944477914673"><ele>78.0</ele><time>2026-03-28T11:18:07Z</time></trkpt><trkpt lat="39.963411645623864" lon="9.60498475891246"><ele>78.0</ele><time>2026-03-28T11:18:10Z</time></trkpt><trkpt lat="39.96332808564026" lon="9.604994577238925"><ele>78.0</ele><time>2026-03-28T11:25:15Z</time></trkpt><trkpt lat="39.96320237456743" lon="9.605002129239027"><ele>78.0</ele><time>2026-03-28T11:25:17Z</time></trkpt><trkpt lat="39.96312867450845" lon="9.605014290499735"><ele>75.6</ele><time>2026-03-28T11:25:18Z</time></trkpt><trkpt lat="39.96303638974577" lon="9.605004033416327"><ele>73.19999999999999</ele><time>2026-03-28T11:25:19Z</time></trkpt><trkpt lat="39.962945726155844" lon="9.605015151610425"><ele>70.8</ele><time>2026-03-28T11:25:20Z</time></trkpt><trkpt lat="39.96283725997242" lon="9.605030624766837"><ele>68.39999999999999</ele><time>2026-03-28T11:25:21Z</time></trkpt><trkpt lat="39.962692030732605" lon="9.605056165930607"><ele>66.0</ele><time>2026-03-28T11:25:22Z</time></trkpt><trkpt lat="39.96254809599687" lon="9.605086595009869"><ele>63.0</ele><time>2026-03-28T11:25:23Z</time></trkpt><trkpt lat="39.96239825678506" lon="9.60511967258122"><ele>60.0</ele><time>2026-03-28T11:25:24Z</time></trkpt><trkpt lat="39.96224736343704" lon="9.60515104370141"><ele>57.0</ele><time>2026-03-28T11:25:25Z</time></trkpt><trkpt lat="39.96209102905115" lon="9.605183546042376"><ele>57.0</ele><time>2026-03-28T11:25:26Z</time></trkpt><trkpt lat="39.96192412881911" lon="9.605220618862433"><ele>57.0</ele><time>2026-03-28T11:25:27Z</time></trkpt><trkpt lat="39.961749437292426" lon="9.605259674132517"><ele>57.0</ele><time>2026-03-28T11:25:28Z</time></trkpt><trkpt lat="39.961585738586365" lon="9.605295539702642"><ele>53.333333333333336</ele><time>2026-03-28T11:25:29Z</time></trkpt><trkpt lat="39.961428034677" lon="9.605328577933813"><ele>49.66666666666667</ele><time>2026-03-28T11:25:30Z</time></trkpt><trkpt lat="39.9612788348571" lon="9.605357312791776"><ele>46.0</ele><time>2026-03-28T11:25:31Z</time></trkpt><trkpt lat="39.96113486450683" lon="9.605371383270434"><ele>49.5</ele><time>2026-03-28T11:25:32Z</time></trkpt><trkpt lat="39.960993944553344" lon="9.605354658122186"><ele>53.0</ele><time>2026-03-28T11:25:33Z</time></trkpt><trkpt lat="39.96086074225958" lon="9.60533400959537"><ele>56.5</ele><time>2026-03-28T11:25:34Z</time></trkpt><trkpt lat="39.96072817319305" lon="9.605340331147678"><ele>60.0</ele><time>2026-03-28T11:25:35Z</time></trkpt><trkpt lat="39.96059040173919" lon="9.605341336262326"><ele>60.0</ele><time>2026-03-28T11:25:36Z</time></trkpt><trkpt lat="39.960448328831035" lon="9.605349514126692"><ele>60.0</ele><time>2026-03-28T11:25:37Z</time></trkpt><trkpt lat="39.960305160028796" lon="9.605415222972335"><ele>60.0</ele><time>2026-03-28T11:25:38Z</time></trkpt><trkpt lat="39.96015985598209" lon="9.605462500705267"><ele>60.0</ele><time>2026-03-28T11:25:39Z</time></trkpt><trkpt lat="39.96000490833977" lon="9.605511368331818"><ele>58.0</ele><time>2026-03-28T11:25:40Z</time></trkpt><trkpt lat="39.95985095826088" lon="9.605558834647558"><ele>56.0</ele><time>2026-03-28T11:25:41Z</time></trkpt><trkpt lat="39.95969143826488" lon="9.605608201139129"><ele>54.0</ele><time>2026-03-28T11:25:42Z</time></trkpt><trkpt lat="39.959521396318856" lon="9.605656940862321"><ele>54.0</ele><time>2026-03-28T11:25:43Z</time></trkpt><trkpt lat="39.95935405108861" lon="9.605713395175371"><ele>54.0</ele><time>2026-03-28T11:25:44Z</time></trkpt><trkpt lat="39.95918638269544" lon="9.605802380543635"><ele>54.0</ele><time>2026-03-28T11:25:45Z</time></trkpt><trkpt lat="39.95903439278412" lon="9.605911779694571"><ele>52.0</ele><time>2026-03-28T11:25:46Z</time></trkpt><trkpt lat="39.95889665787619" lon="9.606009103421862"><ele>50.0</ele><time>2026-03-28T11:25:47Z</time></trkpt><trkpt lat="39.958765933051275" lon="9.606095576034063"><ele>48.0</ele><time>2026-03-28T11:25:48Z</time></trkpt><trkpt lat="39.95864045704312" lon="9.606182217518205"><ele>46.0</ele><time>2026-03-28T11:25:49Z</time></trkpt><trkpt lat="39.958530869450286" lon="9.606290213432482"><ele>47.0</ele><time>2026-03-28T11:25:50Z</time></trkpt><trkpt lat="39.95842095728273" lon="9.60642347803677"><ele>48.0</ele><time>2026-03-28T11:25:51Z</time></trkpt><trkpt lat="39.95832247664016" lon="9.606581561929897"><ele>49.0</ele><time>2026-03-28T11:25:52Z</time></trkpt><trkpt lat="39.95823013019791" lon="9.60674155507774"><ele>49.0</ele><time>2026-03-28T11:25:53Z</time></trkpt><trkpt lat="39.958139314772865" lon="9.606886718048168"><ele>49.0</ele><time>2026-03-28T11:25:54Z</time></trkpt><trkpt lat="39.95805020124825" lon="9.607024454000955"><ele>49.0</ele><time>2026-03-28T11:25:55Z</time></trkpt><trkpt lat="39.95795696241323" lon="9.607155667168124"><ele>49.0</ele><time>2026-03-28T11:25:56Z</time></trkpt><trkpt lat="39.95784814210686" lon="9.607269137397"><ele>47.25</ele><time>2026-03-28T11:25:57Z</time></trkpt><trkpt lat="39.95773078045867" lon="9.607373569784455"><ele>45.5</ele><time>2026-03-28T11:25:58Z</time></trkpt><trkpt lat="39.95762510905911" lon="9.607478366412227"><ele>43.75</ele><time>2026-03-28T11:25:59Z</time></trkpt><trkpt lat="39.95754668438222" lon="9.607611677259198"><ele>42.0</ele><time>2026-03-28T11:26:00Z</time></trkpt><trkpt lat="39.95749327114035" lon="9.607767329537712"><ele>43.0</ele><time>2026-03-28T11:26:01Z</time></trkpt><trkpt lat="39.95745637461016" lon="9.607941438167327"><ele>44.0</ele><time>2026-03-28T11:26:02Z</time></trkpt><trkpt lat="39.957432941415306" lon="9.608122191214271"><ele>45.0</ele><time>2026-03-28T11:26:03Z</time></trkpt><trkpt lat="39.957431831974226" lon="9.608293070049948"><ele>46.0</ele><time>2026-03-28T11:26:04Z</time></trkpt><trkpt lat="39.95745539274183" lon="9.608462783711726"><ele>46.0</ele><time>2026-03-28T11:26:05Z</time></trkpt><trkpt lat="39.95750360372668" lon="9.60862478589526"><ele>46.0</ele><time>2026-03-28T11:26:06Z</time></trkpt><trkpt lat="39.95756938446625" lon="9.608779073205852"><ele>46.0</ele><time>2026-03-28T11:26:07Z</time></trkpt><trkpt lat="39.95762902518609" lon="9.608941964053924"><ele>46.0</ele><time>2026-03-28T11:26:08Z</time></trkpt><trkpt lat="39.957684764374044" lon="9.609106005701586"><ele>47.5</ele><time>2026-03-28T11:26:09Z</time></trkpt><trkpt lat="39.95773085877595" lon="9.609267016427232"><ele>49.0</ele><time>2026-03-28T11:26:10Z</time></trkpt><trkpt lat="39.957758896805025" lon="9.609429115006007"><ele>50.5</ele><time>2026-03-28T11:26:11Z</time></trkpt><trkpt lat="39.957771128519326" lon="9.609589680263566"><ele>52.0</ele><time>2026-03-28T11:26:12Z</time></trkpt><trkpt lat="39.95776713622302" lon="9.609751549847624"><ele>52.0</ele><time>2026-03-28T11:26:13Z</time></trkpt><trkpt lat="39.95775522888511" lon="9.609920959403581"><ele>52.0</ele><time>2026-03-28T11:26:14Z</time></trkpt><trkpt lat="39.95774445178779" lon="9.610096797642282"><ele>52.0</ele><time>2026-03-28T11:26:15Z</time></trkpt><trkpt lat="39.957731909161204" lon="9.610277849159257"><ele>52.0</ele><time>2026-03-28T11:26:16Z</time></trkpt><trkpt lat="39.95771687435023" lon="9.610459241269583"><ele>49.25</ele><time>2026-03-28T11:26:17Z</time></trkpt><trkpt lat="39.95770700752278" lon="9.610633278594925"><ele>46.5</ele><time>2026-03-28T11:26:18Z</time></trkpt><trkpt lat="39.95771180780542" lon="9.610801303590842"><ele>43.75</ele><time>2026-03-28T11:26:19Z</time></trkpt><trkpt lat="39.95772732268376" lon="9.610958313368707"><ele>41.0</ele><time>2026-03-28T11:26:20Z</time></trkpt><trkpt lat="39.95774658210757" lon="9.611105532140115"><ele>39.4</ele><time>2026-03-28T11:26:21Z</time></trkpt><trkpt lat="39.95776898156198" lon="9.61124673876768"><ele>37.8</ele><time>2026-03-28T11:26:22Z</time></trkpt><trkpt lat="39.95779861094288" lon="9.61138211598194"><ele>36.199999999999996</ele><time>2026-03-28T11:26:23Z</time></trkpt><trkpt lat="39.95783259828082" lon="9.611520530708532"><ele>34.599999999999994</ele><time>2026-03-28T11:26:24Z</time></trkpt><trkpt lat="39.95786281302744" lon="9.611667828355545"><ele>33.0</ele><time>2026-03-28T11:26:25Z</time></trkpt><trkpt lat="39.95789800727208" lon="9.6118238666649"><ele>33.0</ele><time>2026-03-28T11:26:26Z</time></trkpt><trkpt lat="39.95793759855797" lon="9.611987103932943"><ele>33.0</ele><time>2026-03-28T11:26:27Z</time></trkpt><trkpt lat="39.95797917357279" lon="9.612159930991908"><ele>33.0</ele><time>2026-03-28T11:26:28Z</time></trkpt><trkpt lat="39.95802069886817" lon="9.612336854068307"><ele>33.0</ele><time>2026-03-28T11:26:29Z</time></trkpt><trkpt lat="39.95805157868882" lon="9.612514768395934"><ele>33.25</ele><time>2026-03-28T11:26:30Z</time></trkpt><trkpt lat="39.9580596249" lon="9.612692255587048"><ele>33.5</ele><time>2026-03-28T11:26:31Z</time></trkpt><trkpt lat="39.958046196553646" lon="9.61287267620915"><ele>33.75</ele><time>2026-03-28T11:26:32Z</time></trkpt><trkpt lat="39.958014260326856" lon="9.613051615607269"><ele>34.0</ele><time>2026-03-28T11:26:33Z</time></trkpt><trkpt lat="39.95796874757691" lon="9.613225816245368"><ele>34.0</ele><time>2026-03-28T11:26:34Z</time></trkpt><trkpt lat="39.95792246068102" lon="9.613402898792872"><ele>34.0</ele><time>2026-03-28T11:26:35Z</time></trkpt><trkpt lat="39.95787888385284" lon="9.613581649293357"><ele>34.0</ele><time>2026-03-28T11:26:36Z</time></trkpt><trkpt lat="39.957831573368594" lon="9.61375716604204"><ele>34.0</ele><time>2026-03-28T11:26:37Z</time></trkpt><trkpt lat="39.95778057234593" lon="9.613923816247487"><ele>37.0</ele><time>2026-03-28T11:26:38Z</time></trkpt><trkpt lat="39.957736969420054" lon="9.614091539116716"><ele>40.0</ele><time>2026-03-28T11:26:39Z</time></trkpt><trkpt lat="39.957692898693246" lon="9.614251029143732"><ele>43.0</ele><time>2026-03-28T11:26:40Z</time></trkpt><trkpt lat="39.95764786021399" lon="9.614402588475867"><ele>46.0</ele><time>2026-03-28T11:26:41Z</time></trkpt><trkpt lat="39.95760652746066" lon="9.614546549220846"><ele>48.0</ele><time>2026-03-28T11:26:42Z</time></trkpt><trkpt lat="39.95756811075177" lon="9.614687509515864"><ele>50.0</ele><time>2026-03-28T11:26:43Z</time></trkpt><trkpt lat="39.95752424876708" lon="9.614822139385115"><ele>52.0</ele><time>2026-03-28T11:26:44Z</time></trkpt><trkpt lat="39.95747892647149" lon="9.614962421525519"><ele>54.0</ele><time>2026-03-28T11:26:45Z</time></trkpt><trkpt lat="39.95744392866604" lon="9.615111809752007"><ele>50.2</ele><time>2026-03-28T11:26:46Z</time></trkpt><trkpt lat="39.95742042092782" lon="9.615271007358817"><ele>46.400000000000006</ele><time>2026-03-28T11:26:47Z</time></trkpt><trkpt lat="39.957413186083826" lon="9.615424389177067"><ele>42.6</ele><time>2026-03-28T11:26:48Z</time></trkpt><trkpt lat="39.95741834605944" lon="9.615561655624806"><ele>38.8</ele><time>2026-03-28T11:26:49Z</time></trkpt><trkpt lat="39.95742535476655" lon="9.61568869956287"><ele>35.0</ele><time>2026-03-28T11:26:50Z</time></trkpt><trkpt lat="39.957428612127515" lon="9.615805926889179"><ele>34.8</ele><time>2026-03-28T11:26:51Z</time></trkpt><trkpt lat="39.95743384762094" lon="9.615912487577623"><ele>34.6</ele><time>2026-03-28T11:26:52Z</time></trkpt><trkpt lat="39.95739441475391" lon="9.615982441787766"><ele>34.4</ele><time>2026-03-28T11:26:53Z</time></trkpt><trkpt lat="39.95749965532282" lon="9.616105576687689"><ele>34.2</ele><time>2026-03-28T11:26:54Z</time></trkpt><trkpt lat="39.95756551357724" lon="9.616207685236747"><ele>34.0</ele><time>2026-03-28T11:26:55Z</time></trkpt><trkpt lat="39.95764785712726" lon="9.616312866256782"><ele>33.0</ele><time>2026-03-28T11:26:56Z</time></trkpt><trkpt lat="39.95773863466796" lon="9.61643024176701"><ele>32.0</ele><time>2026-03-28T11:26:57Z</time></trkpt><trkpt lat="39.957828764227024" lon="9.616570330391472"><ele>31.0</ele><time>2026-03-28T11:26:58Z</time></trkpt><trkpt lat="39.95791678973089" lon="9.616728732671486"><ele>30.0</ele><time>2026-03-28T11:26:59Z</time></trkpt><trkpt lat="39.95800520414156" lon="9.616890760915282"><ele>28.75</ele><time>2026-03-28T11:27:00Z</time></trkpt><trkpt lat="39.9580946706703" lon="9.617053843741083"><ele>27.5</ele><time>2026-03-28T11:27:01Z</time></trkpt><trkpt lat="39.95818360719674" lon="9.617215095509163"><ele>26.25</ele><time>2026-03-28T11:27:02Z</time></trkpt><trkpt lat="39.95825875869761" lon="9.617370574959116"><ele>25.0</ele><time>2026-03-28T11:27:03Z</time></trkpt><trkpt lat="39.958309897167204" lon="9.617532186704814"><ele>25.0</ele><time>2026-03-28T11:27:04Z</time></trkpt><trkpt lat="39.95835042977569" lon="9.617688453116724"><ele>25.0</ele><time>2026-03-28T11:27:05Z</time></trkpt><trkpt lat="39.95839198121201" lon="9.617848193443299"><ele>25.0</ele><time>2026-03-28T11:27:06Z</time></trkpt><trkpt lat="39.958442485103674" lon="9.617990905760733"><ele>25.0</ele><time>2026-03-28T11:27:07Z</time></trkpt><trkpt lat="39.95849154938384" lon="9.61815602655148"><ele>26.25</ele><time>2026-03-28T11:27:08Z</time></trkpt><trkpt lat="39.9585361953693" lon="9.618319009380295"><ele>27.5</ele><time>2026-03-28T11:27:09Z</time></trkpt><trkpt lat="39.95857423243074" lon="9.618495394098169"><ele>28.75</ele><time>2026-03-28T11:27:10Z</time></trkpt><trkpt lat="39.95862205433182" lon="9.618662955638298"><ele>30.0</ele><time>2026-03-28T11:27:11Z</time></trkpt><trkpt lat="39.95867465619511" lon="9.618828723496227"><ele>30.0</ele><time>2026-03-28T11:27:12Z</time></trkpt><trkpt lat="39.958725143525655" lon="9.618998087858836"><ele>30.0</ele><time>2026-03-28T11:27:13Z</time></trkpt><trkpt lat="39.95877270067097" lon="9.619163751551632"><ele>30.0</ele><time>2026-03-28T11:27:14Z</time></trkpt><trkpt lat="39.9588151865568" lon="9.619334747322153"><ele>30.0</ele><time>2026-03-28T11:27:15Z</time></trkpt><trkpt lat="39.95886268946062" lon="9.619501283554124"><ele>30.0</ele><time>2026-03-28T11:27:16Z</time></trkpt><trkpt lat="39.95890547272238" lon="9.619666288668059"><ele>30.0</ele><time>2026-03-28T11:27:17Z</time></trkpt><trkpt lat="39.958946023001005" lon="9.619831964076655"><ele>30.0</ele><time>2026-03-28T11:27:18Z</time></trkpt><trkpt lat="39.95898832991672" lon="9.619998878224708"><ele>30.0</ele><time>2026-03-28T11:27:19Z</time></trkpt><trkpt lat="39.95903403888164" lon="9.62015955035418"><ele>30.0</ele><time>2026-03-28T11:27:20Z</time></trkpt><trkpt lat="39.95908641458485" lon="9.62031648953858"><ele>30.0</ele><time>2026-03-28T11:27:21Z</time></trkpt><trkpt lat="39.95912082073086" lon="9.620493872293917"><ele>30.0</ele><time>2026-03-28T11:27:22Z</time></trkpt><trkpt lat="39.959168405370534" lon="9.620638196255571"><ele>30.0</ele><time>2026-03-28T11:27:23Z</time></trkpt><trkpt lat="39.9592088879712" lon="9.620795459226366"><ele>29.4</ele><time>2026-03-28T11:27:24Z</time></trkpt><trkpt lat="39.959243358016046" lon="9.620942303715971"><ele>28.8</ele><time>2026-03-28T11:27:25Z</time></trkpt><trkpt lat="39.959276126738665" lon="9.62108349487658"><ele>28.200000000000003</ele><time>2026-03-28T11:27:26Z</time></trkpt><trkpt lat="39.95931371677384" lon="9.621224257069997"><ele>27.6</ele><time>2026-03-28T11:27:27Z</time></trkpt><trkpt lat="39.95936240423415" lon="9.621341731256607"><ele>27.0</ele><time>2026-03-28T11:27:28Z</time></trkpt><trkpt lat="39.95943176689443" lon="9.62143575956289"><ele>27.0</ele><time>2026-03-28T11:27:29Z</time></trkpt><trkpt lat="39.95951834308833" lon="9.621531917904838"><ele>27.0</ele><time>2026-03-28T11:27:30Z</time></trkpt><trkpt lat="39.95960844095455" lon="9.621622597423585"><ele>27.0</ele><time>2026-03-28T11:27:31Z</time></trkpt><trkpt lat="39.95970331486744" lon="9.621722952673874"><ele>27.0</ele><time>2026-03-28T11:27:32Z</time></trkpt><trkpt lat="39.959784041512705" lon="9.621808802080606"><ele>27.0</ele><time>2026-03-28T11:27:33Z</time></trkpt><trkpt lat="39.95987167146999" lon="9.621904387826289"><ele>27.000000000000004</ele><time>2026-03-28T11:27:34Z</time></trkpt><trkpt lat="39.95994481251636" lon="9.621989708945014"><ele>27.000000000000004</ele><time>2026-03-28T11:27:35Z</time></trkpt><trkpt lat="39.96001959489192" lon="9.622067899619626"><ele>27.0</ele><time>2026-03-28T11:27:36Z</time></trkpt><trkpt lat="39.960086208949946" lon="9.622152335184138"><ele>27.0</ele><time>2026-03-28T11:27:37Z</time></trkpt><trkpt lat="39.96015413614512" lon="9.622228773600852"><ele>26.6</ele><time>2026-03-28T11:27:38Z</time></trkpt><trkpt lat="39.96023290710414" lon="9.622301752816366"><ele>26.200000000000003</ele><time>2026-03-28T11:27:39Z</time></trkpt><trkpt lat="39.9603285294046" lon="9.622378962992363"><ele>25.8</ele><time>2026-03-28T11:27:40Z</time></trkpt><trkpt lat="39.96043496732381" lon="9.622476569841073"><ele>25.4</ele><time>2026-03-28T11:27:41Z</time></trkpt><trkpt lat="39.96051054875622" lon="9.622547549873374"><ele>25.0</ele><time>2026-03-28T11:27:42Z</time></trkpt><trkpt lat="39.96058199601451" lon="9.622628978277591"><ele>25.0</ele><time>2026-03-28T11:27:43Z</time></trkpt><trkpt lat="39.96064837932509" lon="9.622711161121597"><ele>25.0</ele><time>2026-03-28T11:27:44Z</time></trkpt><trkpt lat="39.9607002960506" lon="9.62278598552931"><ele>25.0</ele><time>2026-03-28T11:27:45Z</time></trkpt><trkpt lat="39.9607665868916" lon="9.622889930381817"><ele>25.0</ele><time>2026-03-28T11:27:46Z</time></trkpt><trkpt lat="39.96082314111986" lon="9.623000030541931"><ele>25.0</ele><time>2026-03-28T11:27:47Z</time></trkpt><trkpt lat="39.96087213369927" lon="9.623124006552757"><ele>24.8</ele><time>2026-03-28T11:27:48Z</time></trkpt><trkpt lat="39.960908690682736" lon="9.623249777163064"><ele>24.6</ele><time>2026-03-28T11:27:49Z</time></trkpt><trkpt lat="39.96093966328667" lon="9.623381549988153"><ele>24.4</ele><time>2026-03-28T11:27:50Z</time></trkpt><trkpt lat="39.96099564796734" lon="9.623489962689774"><ele>24.2</ele><time>2026-03-28T11:27:51Z</time></trkpt><trkpt lat="39.96105314773034" lon="9.62360217140118"><ele>24.0</ele><time>2026-03-28T11:27:52Z</time></trkpt><trkpt lat="39.96109949046192" lon="9.623724891958421"><ele>24.0</ele><time>2026-03-28T11:27:53Z</time></trkpt><trkpt lat="39.96112189880957" lon="9.623818168104725"><ele>24.0</ele><time>2026-03-28T11:27:54Z</time></trkpt><trkpt lat="39.961153912851906" lon="9.623904243842986"><ele>24.0</ele><time>2026-03-28T11:27:55Z</time></trkpt><trkpt lat="39.961195547042095" lon="9.62401264738259"><ele>24.0</ele><time>2026-03-28T11:27:56Z</time></trkpt><trkpt lat="39.961235185056324" lon="9.624107842688582"><ele>24.0</ele><time>2026-03-28T11:27:57Z</time></trkpt><trkpt lat="39.96128237277755" lon="9.624203579480605"><ele>24.0</ele><time>2026-03-28T11:27:58Z</time></trkpt><trkpt lat="39.96133105882317" lon="9.624310651432667"><ele>24.0</ele><time>2026-03-28T11:27:59Z</time></trkpt><trkpt lat="39.96136347225867" lon="9.624424977954837"><ele>24.0</ele><time>2026-03-28T11:28:00Z</time></trkpt><trkpt lat="39.9613912309336" lon="9.624540128495756"><ele>24.0</ele><time>2026-03-28T11:28:01Z</time></trkpt><trkpt lat="39.96142794787453" lon="9.624661980318695"><ele>24.0</ele><time>2026-03-28T11:28:02Z</time></trkpt><trkpt lat="39.96145456633255" lon="9.62479439540638"><ele>24.0</ele><time>2026-03-28T11:28:03Z</time></trkpt><trkpt lat="39.9614787762651" lon="9.624931272537115"><ele>23.799999999999997</ele><time>2026-03-28T11:28:04Z</time></trkpt><trkpt lat="39.96150832969382" lon="9.625067645447107"><ele>23.599999999999998</ele><time>2026-03-28T11:28:05Z</time></trkpt><trkpt lat="39.96153445007286" lon="9.625195965138062"><ele>23.4</ele><time>2026-03-28T11:28:06Z</time></trkpt><trkpt lat="39.96155298737875" lon="9.625325160997686"><ele>23.2</ele><time>2026-03-28T11:28:07Z</time></trkpt><trkpt lat="39.96156355510817" lon="9.625449832869537"><ele>23.0</ele><time>2026-03-28T11:28:08Z</time></trkpt><trkpt lat="39.961574969858226" lon="9.625569789059906"><ele>22.799999999999997</ele><time>2026-03-28T11:28:09Z</time></trkpt><trkpt lat="39.961600013198016" lon="9.625688879072941"><ele>22.6</ele><time>2026-03-28T11:28:10Z</time></trkpt><trkpt lat="39.96163418566128" lon="9.625797782213427"><ele>22.4</ele><time>2026-03-28T11:28:11Z</time></trkpt><trkpt lat="39.96167678140461" lon="9.625910083827268"><ele>22.200000000000003</ele><time>2026-03-28T11:28:12Z</time></trkpt><trkpt lat="39.96172494562771" lon="9.62602560507186"><ele>22.0</ele><time>2026-03-28T11:28:13Z</time></trkpt><trkpt lat="39.961740484796536" lon="9.626162390884499"><ele>21.75</ele><time>2026-03-28T11:28:14Z</time></trkpt><trkpt lat="39.96178324374833" lon="9.62629951219179"><ele>21.5</ele><time>2026-03-28T11:28:15Z</time></trkpt><trkpt lat="39.9618060489915" lon="9.626447276867642"><ele>21.25</ele><time>2026-03-28T11:28:16Z</time></trkpt><trkpt lat="39.9618264472283" lon="9.626592039343913"><ele>21.0</ele><time>2026-03-28T11:28:17Z</time></trkpt><trkpt lat="39.9618477463157" lon="9.626737177699162"><ele>21.0</ele><time>2026-03-28T11:28:18Z</time></trkpt><trkpt lat="39.96188173356884" lon="9.626880079470379"><ele>21.0</ele><time>2026-03-28T11:28:19Z</time></trkpt><trkpt lat="39.96191157582995" lon="9.627011912837792"><ele>21.0</ele><time>2026-03-28T11:28:20Z</time></trkpt><trkpt lat="39.96193941056959" lon="9.627163862821773"><ele>21.0</ele><time>2026-03-28T11:28:21Z</time></trkpt><trkpt lat="39.9619677800131" lon="9.627306429265547"><ele>21.0</ele><time>2026-03-28T11:28:22Z</time></trkpt><trkpt lat="39.96200353931661" lon="9.62744904888414"><ele>21.0</ele><time>2026-03-28T11:28:23Z</time></trkpt><trkpt lat="39.96203654443973" lon="9.627588805533925"><ele>21.0</ele><time>2026-03-28T11:28:24Z</time></trkpt><trkpt lat="39.96207183582943" lon="9.627722839371556"><ele>21.0</ele><time>2026-03-28T11:28:25Z</time></trkpt><trkpt lat="39.96211009596845" lon="9.627861726057384"><ele>21.0</ele><time>2026-03-28T11:28:26Z</time></trkpt><trkpt lat="39.96214806218535" lon="9.627995658166876"><ele>21.0</ele><time>2026-03-28T11:28:27Z</time></trkpt><trkpt lat="39.96218469699078" lon="9.628109761778186"><ele>21.0</ele><time>2026-03-28T11:28:28Z</time></trkpt><trkpt lat="39.962204166018005" lon="9.628247750813301"><ele>21.0</ele><time>2026-03-28T11:28:29Z</time></trkpt><trkpt lat="39.96224664634367" lon="9.628368001357524"><ele>21.0</ele><time>2026-03-28T11:28:30Z</time></trkpt><trkpt lat="39.96228566105978" lon="9.628492813788982"><ele>21.0</ele><time>2026-03-28T11:28:31Z</time></trkpt><trkpt lat="39.96233418431861" lon="9.628616877484571"><ele>21.0</ele><time>2026-03-28T11:28:32Z</time></trkpt><trkpt lat="39.96239599120134" lon="9.628731593561788"><ele>21.0</ele><time>2026-03-28T11:28:33Z</time></trkpt><trkpt lat="39.96245667217872" lon="9.628846446595064"><ele>21.0</ele><time>2026-03-28T11:28:34Z</time></trkpt><trkpt lat="39.96251778701426" lon="9.628959711490346"><ele>21.0</ele><time>2026-03-28T11:28:35Z</time></trkpt><trkpt lat="39.96257163585805" lon="9.629066621079717"><ele>21.0</ele><time>2026-03-28T11:28:36Z</time></trkpt><trkpt lat="39.96262127526241" lon="9.62916451542245"><ele>21.0</ele><time>2026-03-28T11:28:37Z</time></trkpt><trkpt lat="39.96267119694599" lon="9.629260746291207"><ele>21.0</ele><time>2026-03-28T11:28:38Z</time></trkpt><trkpt lat="39.962723097277674" lon="9.629370941553972"><ele>21.0</ele><time>2026-03-28T11:28:39Z</time></trkpt><trkpt lat="39.96277873776006" lon="9.629475481919206"><ele>21.0</ele><time>2026-03-28T11:28:40Z</time></trkpt><trkpt lat="39.96282947451197" lon="9.62958903357042"><ele>21.0</ele><time>2026-03-28T11:28:41Z</time></trkpt><trkpt lat="39.96289010047748" lon="9.629704468396227"><ele>20.5</ele><time>2026-03-28T11:28:42Z</time></trkpt><trkpt lat="39.96296624800788" lon="9.62982160888316"><ele>20.0</ele><time>2026-03-28T11:28:43Z</time></trkpt><trkpt lat="39.963019123088806" lon="9.629957157232283"><ele>19.5</ele><time>2026-03-28T11:28:44Z</time></trkpt><trkpt lat="39.96307626010929" lon="9.630086246012997"><ele>19.0</ele><time>2026-03-28T11:28:45Z</time></trkpt><trkpt lat="39.963141940361176" lon="9.630206308748203"><ele>18.8</ele><time>2026-03-28T11:28:46Z</time></trkpt><trkpt lat="39.96321397151346" lon="9.630324354683605"><ele>18.599999999999998</ele><time>2026-03-28T11:28:47Z</time></trkpt><trkpt lat="39.96326896109459" lon="9.630443083248888"><ele>18.4</ele><time>2026-03-28T11:28:48Z</time></trkpt><trkpt lat="39.963324675470545" lon="9.630550451910308"><ele>18.2</ele><time>2026-03-28T11:28:49Z</time></trkpt><trkpt lat="39.963393595175134" lon="9.630653215773014"><ele>18.0</ele><time>2026-03-28T11:28:50Z</time></trkpt><trkpt lat="39.96344158588264" lon="9.630786269932573"><ele>19.6</ele><time>2026-03-28T11:28:51Z</time></trkpt><trkpt lat="39.96348811584374" lon="9.630919507972875"><ele>21.200000000000003</ele><time>2026-03-28T11:28:52Z</time></trkpt><trkpt lat="39.96351527162838" lon="9.631055583093932"><ele>22.8</ele><time>2026-03-28T11:28:53Z</time></trkpt><trkpt lat="39.96352396542218" lon="9.631191089783442"><ele>24.400000000000002</ele><time>2026-03-28T11:28:54Z</time></trkpt><trkpt lat="39.96350482196265" lon="9.631327516436736"><ele>26.0</ele><time>2026-03-28T11:28:55Z</time></trkpt><trkpt lat="39.96349660187822" lon="9.631475477526235"><ele>28.25</ele><time>2026-03-28T11:28:56Z</time></trkpt><trkpt lat="39.96349853475954" lon="9.63162717840042"><ele>30.5</ele><time>2026-03-28T11:28:57Z</time></trkpt><trkpt lat="39.96348642385624" lon="9.631778326029462"><ele>32.75</ele><time>2026-03-28T11:28:58Z</time></trkpt><trkpt lat="39.96346497930569" lon="9.631925956735092"><ele>35.0</ele><time>2026-03-28T11:28:59Z</time></trkpt><trkpt lat="39.96345393973841" lon="9.632068618107297"><ele>37.25</ele><time>2026-03-28T11:29:00Z</time></trkpt><trkpt lat="39.963441218050306" lon="9.632211873713008"><ele>39.5</ele><time>2026-03-28T11:29:01Z</time></trkpt><trkpt lat="39.96343715019599" lon="9.632360826531155"><ele>41.75</ele><time>2026-03-28T11:29:02Z</time></trkpt><trkpt lat="39.963415674903274" lon="9.632508244871428"><ele>44.0</ele><time>2026-03-28T11:29:03Z</time></trkpt><trkpt lat="39.96340323082509" lon="9.632657100115862"><ele>43.0</ele><time>2026-03-28T11:29:04Z</time></trkpt><trkpt lat="39.96339537769449" lon="9.632806309428563"><ele>42.0</ele><time>2026-03-28T11:29:05Z</time></trkpt><trkpt lat="39.963395067583505" lon="9.63295532667735"><ele>41.0</ele><time>2026-03-28T11:29:06Z</time></trkpt><trkpt lat="39.963398426038765" lon="9.63310605398212"><ele>40.0</ele><time>2026-03-28T11:29:07Z</time></trkpt><trkpt lat="39.96341518005154" lon="9.63325537357991"><ele>40.0</ele><time>2026-03-28T11:29:08Z</time></trkpt><trkpt lat="39.96344936492917" lon="9.63339972011855"><ele>40.0</ele><time>2026-03-28T11:29:09Z</time></trkpt><trkpt lat="39.96349954258812" lon="9.633536923285385"><ele>40.0</ele><time>2026-03-28T11:29:10Z</time></trkpt><trkpt lat="39.9635492855993" lon="9.633672389553347"><ele>40.0</ele><time>2026-03-28T11:29:11Z</time></trkpt><trkpt lat="39.963600263545516" lon="9.63380765371358"><ele>37.4</ele><time>2026-03-28T11:29:12Z</time></trkpt><trkpt lat="39.96365472994285" lon="9.633937122914485"><ele>34.8</ele><time>2026-03-28T11:29:13Z</time></trkpt><trkpt lat="39.963712016067866" lon="9.634066012484766"><ele>32.2</ele><time>2026-03-28T11:29:14Z</time></trkpt><trkpt lat="39.96377759216812" lon="9.63418525413625"><ele>29.6</ele><time>2026-03-28T11:29:15Z</time></trkpt><trkpt lat="39.963856564461885" lon="9.634276322515138"><ele>27.0</ele><time>2026-03-28T11:29:16Z</time></trkpt><trkpt lat="39.96395220387361" lon="9.63434041156177"><ele>27.0</ele><time>2026-03-28T11:29:17Z</time></trkpt><trkpt lat="39.964059425535496" lon="9.634379906638221"><ele>27.000000000000004</ele><time>2026-03-28T11:29:18Z</time></trkpt><trkpt lat="39.964163392729354" lon="9.634418344616828"><ele>27.000000000000004</ele><time>2026-03-28T11:29:19Z</time></trkpt><trkpt lat="39.964252293909915" lon="9.634462295881407"><ele>27.0</ele><time>2026-03-28T11:29:20Z</time></trkpt><trkpt lat="39.96433754570299" lon="9.634502473265316"><ele>27.0</ele><time>2026-03-28T11:29:21Z</time></trkpt><trkpt lat="39.964420251103355" lon="9.634540031860482"><ele>26.166666666666668</ele><time>2026-03-28T11:29:22Z</time></trkpt><trkpt lat="39.964493009127956" lon="9.6345836462705"><ele>25.333333333333332</ele><time>2026-03-28T11:29:23Z</time></trkpt><trkpt lat="39.96456006876465" lon="9.634624127803443"><ele>24.5</ele><time>2026-03-28T11:29:24Z</time></trkpt><trkpt lat="39.96463731227647" lon="9.63467741875423"><ele>23.666666666666664</ele><time>2026-03-28T11:29:25Z</time></trkpt><trkpt lat="39.96468930788534" lon="9.634743859337325"><ele>22.833333333333332</ele><time>2026-03-28T11:29:26Z</time></trkpt><trkpt lat="39.96474307742108" lon="9.634810446610924"><ele>22.0</ele><time>2026-03-28T11:29:27Z</time></trkpt><trkpt lat="39.96479855493812" lon="9.634905426686224"><ele>22.0</ele><time>2026-03-28T11:29:28Z</time></trkpt><trkpt lat="39.96484850030987" lon="9.634998775336951"><ele>22.0</ele><time>2026-03-28T11:29:29Z</time></trkpt><trkpt lat="39.9648968020625" lon="9.635097955125028"><ele>22.0</ele><time>2026-03-28T11:29:30Z</time></trkpt><trkpt lat="39.96494173103709" lon="9.63519489151196"><ele>22.0</ele><time>2026-03-28T11:29:31Z</time></trkpt><trkpt lat="39.96498813322495" lon="9.635280676228886"><ele>22.0</ele><time>2026-03-28T11:29:32Z</time></trkpt><trkpt lat="39.96503558378336" lon="9.635361484540741"><ele>22.0</ele><time>2026-03-28T11:29:33Z</time></trkpt><trkpt lat="39.96507321897034" lon="9.635451163863241"><ele>22.200000000000003</ele><time>2026-03-28T11:29:34Z</time></trkpt><trkpt lat="39.96509502701424" lon="9.63555822332603"><ele>22.4</ele><time>2026-03-28T11:29:35Z</time></trkpt><trkpt lat="39.9650898973655" lon="9.635679086175838"><ele>22.6</ele><time>2026-03-28T11:29:36Z</time></trkpt><trkpt lat="39.965035311058" lon="9.635783886326085"><ele>22.799999999999997</ele><time>2026-03-28T11:29:37Z</time></trkpt><trkpt lat="39.96499286397008" lon="9.635894671017912"><ele>23.0</ele><time>2026-03-28T11:29:38Z</time></trkpt><trkpt lat="39.96495918129568" lon="9.636013062660464"><ele>23.0</ele><time>2026-03-28T11:29:39Z</time></trkpt><trkpt lat="39.96490623894632" lon="9.636100973288126"><ele>23.0</ele><time>2026-03-28T11:29:40Z</time></trkpt><trkpt lat="39.96488999583293" lon="9.636208930416817"><ele>23.0</ele><time>2026-03-28T11:29:41Z</time></trkpt><trkpt lat="39.96488063458615" lon="9.63630380543522"><ele>23.0</ele><time>2026-03-28T11:29:42Z</time></trkpt><trkpt lat="39.96490149747957" lon="9.636398464222795"><ele>23.0</ele><time>2026-03-28T11:29:43Z</time></trkpt><trkpt lat="39.96493634593994" lon="9.636499585003996"><ele>23.0</ele><time>2026-03-28T11:29:44Z</time></trkpt><trkpt lat="39.96498824900329" lon="9.636599486264403"><ele>22.799999999999997</ele><time>2026-03-28T11:29:45Z</time></trkpt><trkpt lat="39.96504498206379" lon="9.636704315321522"><ele>22.6</ele><time>2026-03-28T11:29:46Z</time></trkpt><trkpt lat="39.9650976416199" lon="9.636816253830089"><ele>22.4</ele><time>2026-03-28T11:29:47Z</time></trkpt><trkpt lat="39.965155501943464" lon="9.636923751157596"><ele>22.200000000000003</ele><time>2026-03-28T11:29:48Z</time></trkpt><trkpt lat="39.965204056729945" lon="9.637030579784032"><ele>22.0</ele><time>2026-03-28T11:29:49Z</time></trkpt><trkpt lat="39.96524136926302" lon="9.637133453113155"><ele>21.8</ele><time>2026-03-28T11:29:50Z</time></trkpt><trkpt lat="39.96527152324544" lon="9.637255162521411"><ele>21.6</ele><time>2026-03-28T11:29:51Z</time></trkpt><trkpt lat="39.965292159463814" lon="9.637385128272003"><ele>21.400000000000002</ele><time>2026-03-28T11:29:52Z</time></trkpt><trkpt lat="39.965308760988954" lon="9.637520202948028"><ele>21.200000000000003</ele><time>2026-03-28T11:29:53Z</time></trkpt><trkpt lat="39.96531615327106" lon="9.637655175891915"><ele>21.0</ele><time>2026-03-28T11:29:54Z</time></trkpt><trkpt lat="39.965319826163196" lon="9.637798010887845"><ele>20.25</ele><time>2026-03-28T11:29:55Z</time></trkpt><trkpt lat="39.965324884555216" lon="9.637942788440562"><ele>19.5</ele><time>2026-03-28T11:29:56Z</time></trkpt><trkpt lat="39.96533143201034" lon="9.638091137826141"><ele>18.75</ele><time>2026-03-28T11:29:57Z</time></trkpt><trkpt lat="39.9653410485945" lon="9.63824120526223"><ele>18.0</ele><time>2026-03-28T11:29:58Z</time></trkpt><trkpt lat="39.96535265512745" lon="9.638393680653731"><ele>18.0</ele><time>2026-03-28T11:29:59Z</time></trkpt><trkpt lat="39.96536119338299" lon="9.638544190405572"><ele>18.0</ele><time>2026-03-28T11:30:00Z</time></trkpt><trkpt lat="39.96536940954669" lon="9.638695869962072"><ele>18.0</ele><time>2026-03-28T11:30:01Z</time></trkpt><trkpt lat="39.965381213671414" lon="9.638849481877948"><ele>18.0</ele><time>2026-03-28T11:30:02Z</time></trkpt><trkpt lat="39.965392948660295" lon="9.638999397003344"><ele>17.5</ele><time>2026-03-28T11:30:03Z</time></trkpt><trkpt lat="39.9654034088016" lon="9.639153145925995"><ele>17.0</ele><time>2026-03-28T11:30:04Z</time></trkpt><trkpt lat="39.96541221535832" lon="9.639293350908332"><ele>16.5</ele><time>2026-03-28T11:30:05Z</time></trkpt><trkpt lat="39.96542898630802" lon="9.63944379082445"><ele>16.0</ele><time>2026-03-28T11:30:06Z</time></trkpt><trkpt lat="39.965450503072944" lon="9.63959272825224"><ele>15.75</ele><time>2026-03-28T11:30:07Z</time></trkpt><trkpt lat="39.965476269551765" lon="9.639740490284112"><ele>15.5</ele><time>2026-03-28T11:30:08Z</time></trkpt><trkpt lat="39.96550054595412" lon="9.639886980531582"><ele>15.25</ele><time>2026-03-28T11:30:09Z</time></trkpt><trkpt lat="39.965532426026456" lon="9.64002936817561"><ele>15.0</ele><time>2026-03-28T11:30:10Z</time></trkpt><trkpt lat="39.965567235407036" lon="9.640175752728368"><ele>14.75</ele><time>2026-03-28T11:30:11Z</time></trkpt><trkpt lat="39.965609031492086" lon="9.640316588840777"><ele>14.5</ele><time>2026-03-28T11:30:12Z</time></trkpt><trkpt lat="39.96565488392922" lon="9.640457101035523"><ele>14.25</ele><time>2026-03-28T11:30:13Z</time></trkpt><trkpt lat="39.96569970691319" lon="9.640592937221292"><ele>14.0</ele><time>2026-03-28T11:30:14Z</time></trkpt><trkpt lat="39.965752067769195" lon="9.640726435736138"><ele>14.0</ele><time>2026-03-28T11:30:15Z</time></trkpt><trkpt lat="39.965800400388254" lon="9.640861222740831"><ele>14.0</ele><time>2026-03-28T11:30:16Z</time></trkpt><trkpt lat="39.9658418823831" lon="9.640998507835263"><ele>14.0</ele><time>2026-03-28T11:30:17Z</time></trkpt><trkpt lat="39.965889984047905" lon="9.641137418659532"><ele>14.0</ele><time>2026-03-28T11:30:18Z</time></trkpt><trkpt lat="39.96594498685817" lon="9.641271313904992"><ele>14.5</ele><time>2026-03-28T11:30:19Z</time></trkpt><trkpt lat="39.96599899513889" lon="9.641407000869853"><ele>15.0</ele><time>2026-03-28T11:30:20Z</time></trkpt><trkpt lat="39.966054313330744" lon="9.64154385880235"><ele>15.5</ele><time>2026-03-28T11:30:21Z</time></trkpt><trkpt lat="39.96610645667487" lon="9.641682519848057"><ele>16.0</ele><time>2026-03-28T11:30:22Z</time></trkpt><trkpt lat="39.96615549227121" lon="9.641818293118193"><ele>16.0</ele><time>2026-03-28T11:30:23Z</time></trkpt><trkpt lat="39.966194036273194" lon="9.6419463249624"><ele>16.0</ele><time>2026-03-28T11:30:24Z</time></trkpt><trkpt lat="39.96622959451488" lon="9.642061147858135"><ele>16.0</ele><time>2026-03-28T11:30:25Z</time></trkpt><trkpt lat="39.966260500441635" lon="9.642163621898462"><ele>16.0</ele><time>2026-03-28T11:30:26Z</time></trkpt><trkpt lat="39.96625969398263" lon="9.642285092180506"><ele>16.0</ele><time>2026-03-28T11:30:27Z</time></trkpt><trkpt lat="39.96625334426661" lon="9.642415651653343"><ele>15.666666666666666</ele><time>2026-03-28T11:30:28Z</time></trkpt><trkpt lat="39.96624211851536" lon="9.642542243419912"><ele>15.333333333333332</ele><time>2026-03-28T11:30:29Z</time></trkpt><trkpt lat="39.966246881367866" lon="9.642660462302231"><ele>15.0</ele><time>2026-03-28T11:30:30Z</time></trkpt><trkpt lat="39.96628074386768" lon="9.642762522410914"><ele>14.666666666666668</ele><time>2026-03-28T11:30:31Z</time></trkpt><trkpt lat="39.9663414399974" lon="9.642833144739587"><ele>14.333333333333334</ele><time>2026-03-28T11:30:32Z</time></trkpt><trkpt lat="39.96641576561233" lon="9.642871428921202"><ele>14.0</ele><time>2026-03-28T11:30:33Z</time></trkpt><trkpt lat="39.966497308075276" lon="9.642894056765698"><ele>14.0</ele><time>2026-03-28T11:30:34Z</time></trkpt><trkpt lat="39.96658168144515" lon="9.642929663958663"><ele>13.999999999999998</ele><time>2026-03-28T11:30:35Z</time></trkpt><trkpt lat="39.96666825066585" lon="9.64296108358331"><ele>13.999999999999998</ele><time>2026-03-28T11:30:36Z</time></trkpt><trkpt lat="39.96675727536845" lon="9.64299524823895"><ele>14.0</ele><time>2026-03-28T11:30:37Z</time></trkpt><trkpt lat="39.966843614168795" lon="9.64303369217439"><ele>14.0</ele><time>2026-03-28T11:30:38Z</time></trkpt><trkpt lat="39.96693189730219" lon="9.643075026197655"><ele>14.0</ele><time>2026-03-28T11:30:39Z</time></trkpt><trkpt lat="39.967026507596294" lon="9.643110761443955"><ele>13.999999999999998</ele><time>2026-03-28T11:30:40Z</time></trkpt><trkpt lat="39.96712192009769" lon="9.643148390911302"><ele>13.999999999999998</ele><time>2026-03-28T11:30:41Z</time></trkpt><trkpt lat="39.967212270026785" lon="9.643191299169358"><ele>14.0</ele><time>2026-03-28T11:30:42Z</time></trkpt><trkpt lat="39.96729929551388" lon="9.64323288850737"><ele>14.0</ele><time>2026-03-28T11:30:43Z</time></trkpt><trkpt lat="39.96738443254937" lon="9.64327727037256"><ele>14.000000000000002</ele><time>2026-03-28T11:30:44Z</time></trkpt><trkpt lat="39.96746690326777" lon="9.643314275639545"><ele>14.0</ele><time>2026-03-28T11:30:45Z</time></trkpt><trkpt lat="39.967550908852076" lon="9.643342807733502"><ele>14.0</ele><time>2026-03-28T11:30:46Z</time></trkpt><trkpt lat="39.96763014437292" lon="9.643367989572463"><ele>14.0</ele><time>2026-03-28T11:30:47Z</time></trkpt><trkpt lat="39.9677172171209" lon="9.643395859352559"><ele>14.000000000000002</ele><time>2026-03-28T11:30:48Z</time></trkpt><trkpt lat="39.96780581302824" lon="9.643431388916113"><ele>14.0</ele><time>2026-03-28T11:30:49Z</time></trkpt><trkpt lat="39.96789375244472" lon="9.64347604970148"><ele>14.2</ele><time>2026-03-28T11:30:50Z</time></trkpt><trkpt lat="39.9679811245789" lon="9.643531181544027"><ele>14.399999999999999</ele><time>2026-03-28T11:30:51Z</time></trkpt><trkpt lat="39.96805831852055" lon="9.64359517077249"><ele>14.6</ele><time>2026-03-28T11:30:52Z</time></trkpt><trkpt lat="39.96811052453738" lon="9.643684810327917"><ele>14.8</ele><time>2026-03-28T11:30:53Z</time></trkpt><trkpt lat="39.968178161882015" lon="9.64376331099171"><ele>15.0</ele><time>2026-03-28T11:30:54Z</time></trkpt><trkpt lat="39.96823874597245" lon="9.643867372207238"><ele>15.0</ele><time>2026-03-28T11:30:55Z</time></trkpt><trkpt lat="39.96831271949063" lon="9.64394866988065"><ele>15.0</ele><time>2026-03-28T11:30:56Z</time></trkpt><trkpt lat="39.96839749164523" lon="9.644004048398532"><ele>15.0</ele><time>2026-03-28T11:30:57Z</time></trkpt><trkpt lat="39.96847685963623" lon="9.644029401817924"><ele>15.0</ele><time>2026-03-28T11:30:58Z</time></trkpt><trkpt lat="39.968543369938516" lon="9.644061680452912"><ele>15.0</ele><time>2026-03-28T11:30:59Z</time></trkpt><trkpt lat="39.96860452077562" lon="9.644099202201033"><ele>15.0</ele><time>2026-03-28T11:31:00Z</time></trkpt><trkpt lat="39.968682442202656" lon="9.644165002638767"><ele>15.0</ele><time>2026-03-28T11:31:02Z</time></trkpt><trkpt lat="39.96879703251573" lon="9.644105249584538"><ele>15.0</ele><time>2026-03-28T11:31:09Z</time></trkpt><trkpt lat="39.96884923656469" lon="9.644014788704844"><ele>15.0</ele><time>2026-03-28T11:31:10Z</time></trkpt><trkpt lat="39.968898636252646" lon="9.643924487368512"><ele>15.0</ele><time>2026-03-28T11:31:11Z</time></trkpt><trkpt lat="39.96896483618414" lon="9.643828793908389"><ele>15.0</ele><time>2026-03-28T11:31:12Z</time></trkpt><trkpt lat="39.96903692390107" lon="9.643735837330013"><ele>15.0</ele><time>2026-03-28T11:31:13Z</time></trkpt><trkpt lat="39.96913365960811" lon="9.64366265258219"><ele>15.0</ele><time>2026-03-28T11:31:14Z</time></trkpt><trkpt lat="39.96921600920956" lon="9.643569550980054"><ele>15.0</ele><time>2026-03-28T11:31:15Z</time></trkpt><trkpt lat="39.96931588644991" lon="9.643488536232681"><ele>15.0</ele><time>2026-03-28T11:31:16Z</time></trkpt><trkpt lat="39.9694150261613" lon="9.643392900039617"><ele>15.25</ele><time>2026-03-28T11:31:17Z</time></trkpt><trkpt lat="39.96951531085882" lon="9.643294935954845"><ele>15.5</ele><time>2026-03-28T11:31:18Z</time></trkpt><trkpt lat="39.96961894747551" lon="9.643198750947512"><ele>15.75</ele><time>2026-03-28T11:31:19Z</time></trkpt><trkpt lat="39.969730775275615" lon="9.643097299413705"><ele>16.0</ele><time>2026-03-28T11:31:20Z</time></trkpt><trkpt lat="39.96984809124025" lon="9.642989081201302"><ele>16.0</ele><time>2026-03-28T11:31:21Z</time></trkpt><trkpt lat="39.96996540538094" lon="9.642880308167028"><ele>16.0</ele><time>2026-03-28T11:31:22Z</time></trkpt><trkpt lat="39.97008661837777" lon="9.642764508457706"><ele>16.0</ele><time>2026-03-28T11:31:23Z</time></trkpt><trkpt lat="39.970211516465355" lon="9.642644939812776"><ele>16.0</ele><time>2026-03-28T11:31:24Z</time></trkpt><trkpt lat="39.97033921726924" lon="9.642526689712794"><ele>16.666666666666664</ele><time>2026-03-28T11:31:25Z</time></trkpt><trkpt lat="39.9704743664095" lon="9.642402279567099"><ele>17.333333333333332</ele><time>2026-03-28T11:31:26Z</time></trkpt><trkpt lat="39.9706174776692" lon="9.642265785421271"><ele>18.0</ele><time>2026-03-28T11:31:27Z</time></trkpt><trkpt lat="39.970762298803315" lon="9.642122690127856"><ele>19.0</ele><time>2026-03-28T11:31:28Z</time></trkpt><trkpt lat="39.97091456917823" lon="9.64198063308538"><ele>20.0</ele><time>2026-03-28T11:31:29Z</time></trkpt><trkpt lat="39.971077062560525" lon="9.6418312650685"><ele>21.0</ele><time>2026-03-28T11:31:30Z</time></trkpt><trkpt lat="39.97125579972434" lon="9.64166698679203"><ele>21.0</ele><time>2026-03-28T11:31:31Z</time></trkpt><trkpt lat="39.97144984851216" lon="9.641484853647734"><ele>21.0</ele><time>2026-03-28T11:31:32Z</time></trkpt><trkpt lat="39.97165546878996" lon="9.641291480303654"><ele>22.333333333333336</ele><time>2026-03-28T11:31:33Z</time></trkpt><trkpt lat="39.9718439010105" lon="9.641116007732474"><ele>23.666666666666668</ele><time>2026-03-28T11:31:34Z</time></trkpt><trkpt lat="39.97201192505689" lon="9.640955417780303"><ele>25.0</ele><time>2026-03-28T11:31:35Z</time></trkpt><trkpt lat="39.972168350175465" lon="9.64080771445373"><ele>25.0</ele><time>2026-03-28T11:31:36Z</time></trkpt><trkpt lat="39.97231900406778" lon="9.640671410581364"><ele>25.0</ele><time>2026-03-28T11:31:37Z</time></trkpt><trkpt lat="39.97246811257739" lon="9.640537769030248"><ele>25.0</ele><time>2026-03-28T11:31:38Z</time></trkpt><trkpt lat="39.972614988877595" lon="9.640398062726529"><ele>26.0</ele><time>2026-03-28T11:31:39Z</time></trkpt><trkpt lat="39.972762534406876" lon="9.640254572489738"><ele>27.0</ele><time>2026-03-28T11:31:40Z</time></trkpt><trkpt lat="39.97292003826501" lon="9.640109983307745"><ele>28.0</ele><time>2026-03-28T11:31:41Z</time></trkpt><trkpt lat="39.973083949900115" lon="9.639963632010542"><ele>28.0</ele><time>2026-03-28T11:31:42Z</time></trkpt><trkpt lat="39.97325034981209" lon="9.639807640291497"><ele>28.0</ele><time>2026-03-28T11:31:43Z</time></trkpt><trkpt lat="39.97341798935477" lon="9.639645282973754"><ele>28.0</ele><time>2026-03-28T11:31:44Z</time></trkpt><trkpt lat="39.97359156655937" lon="9.639485632278662"><ele>29.0</ele><time>2026-03-28T11:31:45Z</time></trkpt><trkpt lat="39.97376694405249" lon="9.639323551354137"><ele>30.0</ele><time>2026-03-28T11:31:46Z</time></trkpt><trkpt lat="39.97393932436662" lon="9.639164081924424"><ele>31.0</ele><time>2026-03-28T11:31:47Z</time></trkpt><trkpt lat="39.974115451290764" lon="9.638993986644874"><ele>31.0</ele><time>2026-03-28T11:31:48Z</time></trkpt><trkpt lat="39.97429141638099" lon="9.63882392352077"><ele>31.0</ele><time>2026-03-28T11:31:49Z</time></trkpt><trkpt lat="39.97446596625078" lon="9.638661500803433"><ele>31.0</ele><time>2026-03-28T11:31:50Z</time></trkpt><trkpt lat="39.97464228189959" lon="9.638508258572012"><ele>31.0</ele><time>2026-03-28T11:31:51Z</time></trkpt><trkpt lat="39.97481459037928" lon="9.638347115004064"><ele>31.0</ele><time>2026-03-28T11:31:52Z</time></trkpt><trkpt lat="39.97499293022558" lon="9.63818768689821"><ele>31.0</ele><time>2026-03-28T11:31:53Z</time></trkpt><trkpt lat="39.97516636065994" lon="9.638014975937056"><ele>31.0</ele><time>2026-03-28T11:31:54Z</time></trkpt><trkpt lat="39.97534609875156" lon="9.637846253809222"><ele>31.0</ele><time>2026-03-28T11:31:55Z</time></trkpt><trkpt lat="39.975530846069624" lon="9.637671592157494"><ele>31.5</ele><time>2026-03-28T11:31:56Z</time></trkpt><trkpt lat="39.97571857178125" lon="9.637492988629901"><ele>32.0</ele><time>2026-03-28T11:31:57Z</time></trkpt><trkpt lat="39.97590290767186" lon="9.63731876340902"><ele>33.0</ele><time>2026-03-28T11:31:58Z</time></trkpt><trkpt lat="39.9760929907338" lon="9.637166525905657"><ele>34.0</ele><time>2026-03-28T11:31:59Z</time></trkpt><trkpt lat="39.976259755700795" lon="9.636984451481423"><ele>35.0</ele><time>2026-03-28T11:32:00Z</time></trkpt><trkpt lat="39.97643446920729" lon="9.636823516628475"><ele>35.33333333333333</ele><time>2026-03-28T11:32:01Z</time></trkpt><trkpt lat="39.9766088024964" lon="9.636665085985722"><ele>35.666666666666664</ele><time>2026-03-28T11:32:02Z</time></trkpt><trkpt lat="39.97678391768878" lon="9.63650395379285"><ele>36.0</ele><time>2026-03-28T11:32:03Z</time></trkpt><trkpt lat="39.9769580752555" lon="9.636340306034697"><ele>36.0</ele><time>2026-03-28T11:32:04Z</time></trkpt><trkpt lat="39.97712746404357" lon="9.636180620393366"><ele>36.0</ele><time>2026-03-28T11:32:05Z</time></trkpt><trkpt lat="39.97729068324014" lon="9.636026056007069"><ele>36.0</ele><time>2026-03-28T11:32:06Z</time></trkpt><trkpt lat="39.97745206051024" lon="9.635875861221985"><ele>38.333333333333336</ele><time>2026-03-28T11:32:07Z</time></trkpt><trkpt lat="39.97761595241418" lon="9.635727281176488"><ele>40.66666666666667</ele><time>2026-03-28T11:32:08Z</time></trkpt><trkpt lat="39.97778556245357" lon="9.635577437365166"><ele>43.0</ele><time>2026-03-28T11:32:09Z</time></trkpt><trkpt lat="39.9779517003787" lon="9.635425644522378"><ele>43.66666666666667</ele><time>2026-03-28T11:32:10Z</time></trkpt><trkpt lat="39.978116785317496" lon="9.63526480330615"><ele>44.333333333333336</ele><time>2026-03-28T11:32:11Z</time></trkpt><trkpt lat="39.978276142802116" lon="9.63508745212239"><ele>45.0</ele><time>2026-03-28T11:32:12Z</time></trkpt><trkpt lat="39.97842164860999" lon="9.634881125542607"><ele>45.666666666666664</ele><time>2026-03-28T11:32:13Z</time></trkpt><trkpt lat="39.978547480249425" lon="9.63465120646702"><ele>46.33333333333333</ele><time>2026-03-28T11:32:14Z</time></trkpt><trkpt lat="39.97867713675158" lon="9.634425159043875"><ele>47.0</ele><time>2026-03-28T11:32:15Z</time></trkpt><trkpt lat="39.978806048271316" lon="9.634206888338193"><ele>47.0</ele><time>2026-03-28T11:32:16Z</time></trkpt><trkpt lat="39.97894446841256" lon="9.633988088065385"><ele>47.0</ele><time>2026-03-28T11:32:17Z</time></trkpt><trkpt lat="39.979082528082714" lon="9.633759794783641"><ele>47.0</ele><time>2026-03-28T11:32:18Z</time></trkpt><trkpt lat="39.97920927431696" lon="9.63353790549502"><ele>45.666666666666664</ele><time>2026-03-28T11:32:19Z</time></trkpt><trkpt lat="39.97934290483056" lon="9.633320634674005"><ele>44.333333333333336</ele><time>2026-03-28T11:32:20Z</time></trkpt><trkpt lat="39.97947668028446" lon="9.633099706106862"><ele>43.0</ele><time>2026-03-28T11:32:21Z</time></trkpt><trkpt lat="39.97961250701602" lon="9.632876269989822"><ele>43.0</ele><time>2026-03-28T11:32:22Z</time></trkpt><trkpt lat="39.979747753394605" lon="9.632653385626655"><ele>43.0</ele><time>2026-03-28T11:32:23Z</time></trkpt><trkpt lat="39.979883499320394" lon="9.632427610462537"><ele>43.0</ele><time>2026-03-28T11:32:24Z</time></trkpt><trkpt lat="39.98001916862012" lon="9.632197559344698"><ele>41.333333333333336</ele><time>2026-03-28T11:32:25Z</time></trkpt><trkpt lat="39.98015815035274" lon="9.631967545585399"><ele>39.666666666666664</ele><time>2026-03-28T11:32:26Z</time></trkpt><trkpt lat="39.98029713598326" lon="9.631736894502577"><ele>38.0</ele><time>2026-03-28T11:32:27Z</time></trkpt><trkpt lat="39.98043200523793" lon="9.631506131929324"><ele>38.0</ele><time>2026-03-28T11:32:28Z</time></trkpt><trkpt lat="39.98056730237084" lon="9.631272589920785"><ele>38.0</ele><time>2026-03-28T11:32:29Z</time></trkpt><trkpt lat="39.98071910270834" lon="9.631054539149655"><ele>39.0</ele><time>2026-03-28T11:32:30Z</time></trkpt><trkpt lat="39.98084660695736" lon="9.630807587918834"><ele>40.0</ele><time>2026-03-28T11:32:31Z</time></trkpt><trkpt lat="39.980988036664925" lon="9.630572860101532"><ele>40.333333333333336</ele><time>2026-03-28T11:32:32Z</time></trkpt><trkpt lat="39.981125943599004" lon="9.63034074564133"><ele>40.666666666666664</ele><time>2026-03-28T11:32:33Z</time></trkpt><trkpt lat="39.98126202252936" lon="9.63011360282512"><ele>41.0</ele><time>2026-03-28T11:32:34Z</time></trkpt><trkpt lat="39.98139695296527" lon="9.629889729827003"><ele>41.0</ele><time>2026-03-28T11:32:35Z</time></trkpt><trkpt lat="39.98153175686549" lon="9.629668926775786"><ele>41.0</ele><time>2026-03-28T11:32:36Z</time></trkpt><trkpt lat="39.981665593191074" lon="9.62945010779916"><ele>41.0</ele><time>2026-03-28T11:32:37Z</time></trkpt><trkpt lat="39.98179953077049" lon="9.629226696201048"><ele>40.0</ele><time>2026-03-28T11:32:38Z</time></trkpt><trkpt lat="39.981933576578726" lon="9.628999665402386"><ele>39.0</ele><time>2026-03-28T11:32:39Z</time></trkpt><trkpt lat="39.982065989014224" lon="9.628771241716807"><ele>38.0</ele><time>2026-03-28T11:32:40Z</time></trkpt><trkpt lat="39.982202753027444" lon="9.628540916220446"><ele>38.0</ele><time>2026-03-28T11:32:41Z</time></trkpt><trkpt lat="39.98234258923476" lon="9.628309570092478"><ele>38.0</ele><time>2026-03-28T11:32:42Z</time></trkpt><trkpt lat="39.98248066186732" lon="9.628081870086739"><ele>38.0</ele><time>2026-03-28T11:32:43Z</time></trkpt><trkpt lat="39.98261851283875" lon="9.627856177424217"><ele>38.666666666666664</ele><time>2026-03-28T11:32:44Z</time></trkpt><trkpt lat="39.98275407873611" lon="9.627628320610649"><ele>39.333333333333336</ele><time>2026-03-28T11:32:45Z</time></trkpt><trkpt lat="39.98288686252921" lon="9.627404181059655"><ele>40.0</ele><time>2026-03-28T11:32:46Z</time></trkpt><trkpt lat="39.98302102075763" lon="9.627179831884213"><ele>40.333333333333336</ele><time>2026-03-28T11:32:47Z</time></trkpt><trkpt lat="39.983156036427935" lon="9.626965510768459"><ele>40.666666666666664</ele><time>2026-03-28T11:32:48Z</time></trkpt><trkpt lat="39.983288063284725" lon="9.626750256984375"><ele>41.0</ele><time>2026-03-28T11:32:49Z</time></trkpt><trkpt lat="39.983406540194224" lon="9.626533979155518"><ele>41.0</ele><time>2026-03-28T11:32:50Z</time></trkpt><trkpt lat="39.98350880745755" lon="9.626296918417863"><ele>41.0</ele><time>2026-03-28T11:32:51Z</time></trkpt><trkpt lat="39.98360465975477" lon="9.626055253764196"><ele>41.0</ele><time>2026-03-28T11:32:52Z</time></trkpt><trkpt lat="39.98370726845981" lon="9.625825338489458"><ele>41.33333333333333</ele><time>2026-03-28T11:32:53Z</time></trkpt><trkpt lat="39.98382048735765" lon="9.625592189055743"><ele>41.666666666666664</ele><time>2026-03-28T11:32:54Z</time></trkpt><trkpt lat="39.98394466776895" lon="9.625363963998637"><ele>42.0</ele><time>2026-03-28T11:32:55Z</time></trkpt><trkpt lat="39.98407268810816" lon="9.625134412403295"><ele>41.0</ele><time>2026-03-28T11:32:56Z</time></trkpt><trkpt lat="39.98420141635816" lon="9.62489878339459"><ele>40.0</ele><time>2026-03-28T11:32:57Z</time></trkpt><trkpt lat="39.98432797606259" lon="9.62466086385469"><ele>39.0</ele><time>2026-03-28T11:32:58Z</time></trkpt><trkpt lat="39.984458866896446" lon="9.62442253768744"><ele>39.0</ele><time>2026-03-28T11:32:59Z</time></trkpt><trkpt lat="39.98458794676887" lon="9.624185820619369"><ele>39.0</ele><time>2026-03-28T11:33:00Z</time></trkpt><trkpt lat="39.98471855780207" lon="9.623947148120664"><ele>39.0</ele><time>2026-03-28T11:33:01Z</time></trkpt><trkpt lat="39.984848600194226" lon="9.623708974882131"><ele>39.666666666666664</ele><time>2026-03-28T11:33:02Z</time></trkpt><trkpt lat="39.98497976893555" lon="9.623470119687905"><ele>40.33333333333333</ele><time>2026-03-28T11:33:03Z</time></trkpt><trkpt lat="39.985110073468334" lon="9.623232153228622"><ele>41.0</ele><time>2026-03-28T11:33:04Z</time></trkpt><trkpt lat="39.985237982851466" lon="9.622992827838765"><ele>41.666666666666664</ele><time>2026-03-28T11:33:05Z</time></trkpt><trkpt lat="39.98536262362096" lon="9.622755202916961"><ele>42.333333333333336</ele><time>2026-03-28T11:33:06Z</time></trkpt><trkpt lat="39.98548950205364" lon="9.622521227530438"><ele>43.0</ele><time>2026-03-28T11:33:07Z</time></trkpt><trkpt lat="39.985619841131445" lon="9.622288372026873"><ele>43.0</ele><time>2026-03-28T11:33:08Z</time></trkpt><trkpt lat="39.98574763870364" lon="9.622055914054828"><ele>43.0</ele><time>2026-03-28T11:33:09Z</time></trkpt><trkpt lat="39.98587481483361" lon="9.621823251181572"><ele>43.0</ele><time>2026-03-28T11:33:10Z</time></trkpt><trkpt lat="39.986003282032456" lon="9.62158532873014"><ele>43.5</ele><time>2026-03-28T11:33:11Z</time></trkpt><trkpt lat="39.986133474254395" lon="9.621342315502455"><ele>44.0</ele><time>2026-03-28T11:33:12Z</time></trkpt><trkpt lat="39.98626362743375" lon="9.62110197622491"><ele>44.666666666666664</ele><time>2026-03-28T11:33:13Z</time></trkpt><trkpt lat="39.98639396529753" lon="9.620863913634716"><ele>45.333333333333336</ele><time>2026-03-28T11:33:14Z</time></trkpt><trkpt lat="39.98652499336369" lon="9.620627262634944"><ele>46.0</ele><time>2026-03-28T11:33:15Z</time></trkpt><trkpt lat="39.986651435128906" lon="9.62039383843432"><ele>45.333333333333336</ele><time>2026-03-28T11:33:16Z</time></trkpt><trkpt lat="39.98677688812668" lon="9.620166133522432"><ele>44.666666666666664</ele><time>2026-03-28T11:33:17Z</time></trkpt><trkpt lat="39.986900552375744" lon="9.619941618635586"><ele>44.0</ele><time>2026-03-28T11:33:18Z</time></trkpt><trkpt lat="39.9870266292277" lon="9.619715347778547"><ele>44.0</ele><time>2026-03-28T11:33:19Z</time></trkpt><trkpt lat="39.98715098509527" lon="9.61948618480005"><ele>44.0</ele><time>2026-03-28T11:33:20Z</time></trkpt><trkpt lat="39.987277525113406" lon="9.619251573821872"><ele>44.0</ele><time>2026-03-28T11:33:21Z</time></trkpt><trkpt lat="39.98740802763527" lon="9.619011348611858"><ele>44.0</ele><time>2026-03-28T11:33:22Z</time></trkpt><trkpt lat="39.98752394963383" lon="9.618785541730057"><ele>44.0</ele><time>2026-03-28T11:33:23Z</time></trkpt><trkpt lat="39.9876480042213" lon="9.618555156162653"><ele>44.0</ele><time>2026-03-28T11:33:24Z</time></trkpt><trkpt lat="39.98777045296484" lon="9.618327461528835"><ele>45.33333333333333</ele><time>2026-03-28T11:33:25Z</time></trkpt><trkpt lat="39.98789190500117" lon="9.61810752501872"><ele>46.666666666666664</ele><time>2026-03-28T11:33:26Z</time></trkpt><trkpt lat="39.988010070307546" lon="9.617890269483832"><ele>48.0</ele><time>2026-03-28T11:33:27Z</time></trkpt><trkpt lat="39.988120097241975" lon="9.617675458712318"><ele>48.33333333333333</ele><time>2026-03-28T11:33:28Z</time></trkpt><trkpt lat="39.9882200874886" lon="9.617455061198026"><ele>48.666666666666664</ele><time>2026-03-28T11:33:29Z</time></trkpt><trkpt lat="39.988318410769786" lon="9.61718145419341"><ele>49.0</ele><time>2026-03-28T11:33:30Z</time></trkpt><trkpt lat="39.98840179191796" lon="9.616921232858513"><ele>49.0</ele><time>2026-03-28T11:33:31Z</time></trkpt><trkpt lat="39.98848281956767" lon="9.616655473892665"><ele>49.0</ele><time>2026-03-28T11:33:32Z</time></trkpt><trkpt lat="39.98856639069563" lon="9.616389878360865"><ele>49.0</ele><time>2026-03-28T11:33:33Z</time></trkpt><trkpt lat="39.988647924795636" lon="9.616124224281048"><ele>49.666666666666664</ele><time>2026-03-28T11:33:34Z</time></trkpt><trkpt lat="39.98873410116106" lon="9.61585929117474"><ele>50.33333333333333</ele><time>2026-03-28T11:33:35Z</time></trkpt><trkpt lat="39.98882182941722" lon="9.615598276618858"><ele>51.0</ele><time>2026-03-28T11:33:36Z</time></trkpt><trkpt lat="39.988908979468405" lon="9.615338901906808"><ele>52.0</ele><time>2026-03-28T11:33:37Z</time></trkpt><trkpt lat="39.98899006136416" lon="9.615082127392876"><ele>53.0</ele><time>2026-03-28T11:33:38Z</time></trkpt><trkpt lat="39.98907158308536" lon="9.61482898866761"><ele>54.0</ele><time>2026-03-28T11:33:39Z</time></trkpt><trkpt lat="39.989153217982114" lon="9.61457897335647"><ele>53.33333333333333</ele><time>2026-03-28T11:33:40Z</time></trkpt><trkpt lat="39.98923486006589" lon="9.614334928825691"><ele>52.666666666666664</ele><time>2026-03-28T11:33:41Z</time></trkpt><trkpt lat="39.98931760064881" lon="9.614079651282614"><ele>52.0</ele><time>2026-03-28T11:33:42Z</time></trkpt><trkpt lat="39.989399304369535" lon="9.613829025998598"><ele>52.33333333333333</ele><time>2026-03-28T11:33:43Z</time></trkpt><trkpt lat="39.98947890800261" lon="9.613578210099634"><ele>52.66666666666667</ele><time>2026-03-28T11:33:44Z</time></trkpt><trkpt lat="39.98955918053575" lon="9.613326531192515"><ele>53.0</ele><time>2026-03-28T11:33:45Z</time></trkpt><trkpt lat="39.989640879114006" lon="9.613076750138527"><ele>53.0</ele><time>2026-03-28T11:33:46Z</time></trkpt><trkpt lat="39.98973077194477" lon="9.61283118453534"><ele>53.0</ele><time>2026-03-28T11:33:47Z</time></trkpt><trkpt lat="39.98984095195321" lon="9.6126004799546"><ele>53.0</ele><time>2026-03-28T11:33:48Z</time></trkpt><trkpt lat="39.989980251374355" lon="9.612381447580981"><ele>53.0</ele><time>2026-03-28T11:33:49Z</time></trkpt><trkpt lat="39.99013522815774" lon="9.612173597173024"><ele>53.0</ele><time>2026-03-28T11:33:50Z</time></trkpt><trkpt lat="39.9902941853768" lon="9.611976005385733"><ele>53.0</ele><time>2026-03-28T11:33:51Z</time></trkpt><trkpt lat="39.99045135984848" lon="9.611765617857241"><ele>56.5</ele><time>2026-03-28T11:33:52Z</time></trkpt><trkpt lat="39.990608654418" lon="9.611550964736978"><ele>60.0</ele><time>2026-03-28T11:33:53Z</time></trkpt><trkpt lat="39.990762335052274" lon="9.611337248919934"><ele>62.66666666666667</ele><time>2026-03-28T11:33:54Z</time></trkpt><trkpt lat="39.990916118425005" lon="9.611131049671426"><ele>65.33333333333334</ele><time>2026-03-28T11:33:55Z</time></trkpt><trkpt lat="39.99106960122951" lon="9.610930151227782"><ele>68.0</ele><time>2026-03-28T11:33:56Z</time></trkpt><trkpt lat="39.99121691201688" lon="9.610729419015877"><ele>68.0</ele><time>2026-03-28T11:33:57Z</time></trkpt><trkpt lat="39.99135827006556" lon="9.61053025631166"><ele>68.0</ele><time>2026-03-28T11:33:58Z</time></trkpt><trkpt lat="39.99149336217122" lon="9.610313476866482"><ele>68.0</ele><time>2026-03-28T11:33:59Z</time></trkpt><trkpt lat="39.991626597171084" lon="9.610084783330578"><ele>67.0</ele><time>2026-03-28T11:34:00Z</time></trkpt><trkpt lat="39.991763249412244" lon="9.609857748009489"><ele>66.0</ele><time>2026-03-28T11:34:01Z</time></trkpt><trkpt lat="39.99190576366686" lon="9.609630038263381"><ele>65.0</ele><time>2026-03-28T11:34:02Z</time></trkpt><trkpt lat="39.99205083014893" lon="9.609394323118002"><ele>61.5</ele><time>2026-03-28T11:34:03Z</time></trkpt><trkpt lat="39.99220262368898" lon="9.609152691301322"><ele>58.0</ele><time>2026-03-28T11:34:04Z</time></trkpt><trkpt lat="39.99234709113361" lon="9.608909972614981"><ele>58.0</ele><time>2026-03-28T11:34:05Z</time></trkpt><trkpt lat="39.99249508234443" lon="9.608677481802651"><ele>58.0</ele><time>2026-03-28T11:34:06Z</time></trkpt><trkpt lat="39.99263817030433" lon="9.608450437680835"><ele>58.0</ele><time>2026-03-28T11:34:07Z</time></trkpt><trkpt lat="39.99277495579644" lon="9.608224277941165"><ele>58.0</ele><time>2026-03-28T11:34:08Z</time></trkpt><trkpt lat="39.9929159033265" lon="9.607995409369302"><ele>58.0</ele><time>2026-03-28T11:34:09Z</time></trkpt><trkpt lat="39.99305464362607" lon="9.607771414851795"><ele>58.0</ele><time>2026-03-28T11:34:10Z</time></trkpt><trkpt lat="39.99318816681638" lon="9.607559459349126"><ele>58.0</ele><time>2026-03-28T11:34:11Z</time></trkpt><trkpt lat="39.993302003956444" lon="9.607376296860947"><ele>58.0</ele><time>2026-03-28T11:34:12Z</time></trkpt><trkpt lat="39.99338344789163" lon="9.607226674769526"><ele>57.75</ele><time>2026-03-28T11:34:13Z</time></trkpt><trkpt lat="39.993468854839975" lon="9.607097636541676"><ele>57.5</ele><time>2026-03-28T11:34:14Z</time></trkpt><trkpt lat="39.99346116787167" lon="9.606897024940876"><ele>57.25</ele><time>2026-03-28T11:34:15Z</time></trkpt><trkpt lat="39.993433553791704" lon="9.606690816442608"><ele>57.0</ele><time>2026-03-28T11:34:16Z</time></trkpt><trkpt lat="39.99339984054918" lon="9.60646425266758"><ele>57.0</ele><time>2026-03-28T11:34:17Z</time></trkpt><trkpt lat="39.99336727318402" lon="9.606224046410302"><ele>57.0</ele><time>2026-03-28T11:34:18Z</time></trkpt><trkpt lat="39.993333612458095" lon="9.605959136632771"><ele>57.0</ele><time>2026-03-28T11:34:19Z</time></trkpt><trkpt lat="39.993314277120994" lon="9.60569772660595"><ele>57.66666666666667</ele><time>2026-03-28T11:34:20Z</time></trkpt><trkpt lat="39.99329070733521" lon="9.605429968152642"><ele>58.333333333333336</ele><time>2026-03-28T11:34:21Z</time></trkpt><trkpt lat="39.99326533042316" lon="9.605154508230978"><ele>59.0</ele><time>2026-03-28T11:34:22Z</time></trkpt><trkpt lat="39.9932418973374" lon="9.60487493650082"><ele>59.66666666666667</ele><time>2026-03-28T11:34:23Z</time></trkpt><trkpt lat="39.99321441973551" lon="9.604595137712165"><ele>60.33333333333333</ele><time>2026-03-28T11:34:24Z</time></trkpt><trkpt lat="39.99320501122525" lon="9.604306028465027"><ele>61.0</ele><time>2026-03-28T11:34:25Z</time></trkpt><trkpt lat="39.99318095653937" lon="9.604017033862965"><ele>61.666666666666664</ele><time>2026-03-28T11:34:26Z</time></trkpt><trkpt lat="39.993156933025354" lon="9.6037284137612"><ele>62.33333333333333</ele><time>2026-03-28T11:34:27Z</time></trkpt><trkpt lat="39.9931320293337" lon="9.603436345182025"><ele>63.0</ele><time>2026-03-28T11:34:28Z</time></trkpt><trkpt lat="39.99310682419156" lon="9.603144663308807"><ele>63.5</ele><time>2026-03-28T11:34:29Z</time></trkpt><trkpt lat="39.99306599245961" lon="9.602855506648666"><ele>64.0</ele><time>2026-03-28T11:34:30Z</time></trkpt><trkpt lat="39.99304126922655" lon="9.60256250029053"><ele>64.33333333333333</ele><time>2026-03-28T11:34:31Z</time></trkpt><trkpt lat="39.993019732262816" lon="9.602271177118253"><ele>64.66666666666667</ele><time>2026-03-28T11:34:32Z</time></trkpt><trkpt lat="39.992988960552395" lon="9.601980339396963"><ele>65.0</ele><time>2026-03-28T11:34:33Z</time></trkpt><trkpt lat="39.992961642142326" lon="9.6016853956514"><ele>66.0</ele><time>2026-03-28T11:34:34Z</time></trkpt><trkpt lat="39.992936189206986" lon="9.601384601877987"><ele>67.0</ele><time>2026-03-28T11:34:35Z</time></trkpt><trkpt lat="39.99291197234716" lon="9.601074845122904"><ele>69.0</ele><time>2026-03-28T11:34:36Z</time></trkpt><trkpt lat="39.992888987273005" lon="9.600769315133237"><ele>71.0</ele><time>2026-03-28T11:34:37Z</time></trkpt><trkpt lat="39.99286968731951" lon="9.600492517809363"><ele>73.0</ele><time>2026-03-28T11:34:38Z</time></trkpt><trkpt lat="39.9928551589541" lon="9.60024068255423"><ele>75.33333333333333</ele><time>2026-03-28T11:34:39Z</time></trkpt><trkpt lat="39.99285125203687" lon="9.600009146421675"><ele>77.66666666666667</ele><time>2026-03-28T11:34:40Z</time></trkpt><trkpt lat="39.992867004786476" lon="9.59979479275923"><ele>80.0</ele><time>2026-03-28T11:34:41Z</time></trkpt><trkpt lat="39.99290839766053" lon="9.599595764775463"><ele>79.66666666666667</ele><time>2026-03-28T11:34:42Z</time></trkpt><trkpt lat="39.99298047064999" lon="9.599405637465555"><ele>79.33333333333333</ele><time>2026-03-28T11:34:43Z</time></trkpt><trkpt lat="39.99306642043224" lon="9.599208053394696"><ele>79.0</ele><time>2026-03-28T11:34:44Z</time></trkpt><trkpt lat="39.993150609283724" lon="9.598998940985048"><ele>79.0</ele><time>2026-03-28T11:34:45Z</time></trkpt><trkpt lat="39.99323164579903" lon="9.598782049352879"><ele>79.0</ele><time>2026-03-28T11:34:46Z</time></trkpt><trkpt lat="39.99331508632587" lon="9.598559275701911"><ele>79.0</ele><time>2026-03-28T11:34:47Z</time></trkpt><trkpt lat="39.99340441316635" lon="9.598336323879144"><ele>81.33333333333333</ele><time>2026-03-28T11:34:48Z</time></trkpt><trkpt lat="39.99349589834119" lon="9.598114700516344"><ele>83.66666666666667</ele><time>2026-03-28T11:34:49Z</time></trkpt><trkpt lat="39.993582728863544" lon="9.597900727432622"><ele>86.0</ele><time>2026-03-28T11:34:50Z</time></trkpt><trkpt lat="39.99366020148347" lon="9.597697382331038"><ele>87.33333333333334</ele><time>2026-03-28T11:34:51Z</time></trkpt><trkpt lat="39.99373576798709" lon="9.59750373925767"><ele>88.66666666666667</ele><time>2026-03-28T11:34:52Z</time></trkpt><trkpt lat="39.9938112515147" lon="9.597321952110846"><ele>90.0</ele><time>2026-03-28T11:34:53Z</time></trkpt><trkpt lat="39.99387475094965" lon="9.597147362859062"><ele>89.25</ele><time>2026-03-28T11:34:54Z</time></trkpt><trkpt lat="39.993912702978676" lon="9.59696704567467"><ele>88.5</ele><time>2026-03-28T11:34:55Z</time></trkpt><trkpt lat="39.993924081700634" lon="9.596785154641873"><ele>87.75</ele><time>2026-03-28T11:34:56Z</time></trkpt><trkpt lat="39.993926470779506" lon="9.596598981762787"><ele>87.0</ele><time>2026-03-28T11:34:57Z</time></trkpt><trkpt lat="39.99392343802273" lon="9.596394946509596"><ele>87.0</ele><time>2026-03-28T11:34:58Z</time></trkpt><trkpt lat="39.99391460840184" lon="9.59617684754295"><ele>87.0</ele><time>2026-03-28T11:34:59Z</time></trkpt><trkpt lat="39.99390769167508" lon="9.59594677342786"><ele>87.0</ele><time>2026-03-28T11:35:00Z</time></trkpt><trkpt lat="39.9939103649451" lon="9.595707492968709"><ele>86.66666666666667</ele><time>2026-03-28T11:35:01Z</time></trkpt><trkpt lat="39.993917953283876" lon="9.595458988769169"><ele>86.33333333333334</ele><time>2026-03-28T11:35:02Z</time></trkpt><trkpt lat="39.99392443468321" lon="9.595201931644796"><ele>86.0</ele><time>2026-03-28T11:35:03Z</time></trkpt><trkpt lat="39.99392814268356" lon="9.594936590716465"><ele>86.66666666666667</ele><time>2026-03-28T11:35:04Z</time></trkpt><trkpt lat="39.99392713038423" lon="9.594664582959817"><ele>87.33333333333333</ele><time>2026-03-28T11:35:05Z</time></trkpt><trkpt lat="39.99392267289825" lon="9.594388283385168"><ele>88.0</ele><time>2026-03-28T11:35:06Z</time></trkpt><trkpt lat="39.99392216335877" lon="9.594113384810585"><ele>88.33333333333333</ele><time>2026-03-28T11:35:07Z</time></trkpt><trkpt lat="39.993930417755124" lon="9.593846744497654"><ele>88.66666666666667</ele><time>2026-03-28T11:35:08Z</time></trkpt><trkpt lat="39.993954040103816" lon="9.593591575848176"><ele>89.0</ele><time>2026-03-28T11:35:09Z</time></trkpt><trkpt lat="39.993990247559765" lon="9.593342214614362"><ele>89.0</ele><time>2026-03-28T11:35:10Z</time></trkpt><trkpt lat="39.994042915770834" lon="9.593088404215441"><ele>89.0</ele><time>2026-03-28T11:35:11Z</time></trkpt><trkpt lat="39.994115152642685" lon="9.592835641347042"><ele>89.0</ele><time>2026-03-28T11:35:12Z</time></trkpt><trkpt lat="39.994189580477496" lon="9.592584008222271"><ele>88.66666666666667</ele><time>2026-03-28T11:35:13Z</time></trkpt><trkpt lat="39.99426165203889" lon="9.592332718173134"><ele>88.33333333333333</ele><time>2026-03-28T11:35:14Z</time></trkpt><trkpt lat="39.99433379620202" lon="9.592080327182915"><ele>88.0</ele><time>2026-03-28T11:35:15Z</time></trkpt><trkpt lat="39.99440401253047" lon="9.591827345512778"><ele>88.0</ele><time>2026-03-28T11:35:16Z</time></trkpt><trkpt lat="39.99447875690833" lon="9.591577839589705"><ele>88.0</ele><time>2026-03-28T11:35:17Z</time></trkpt><trkpt lat="39.99456772066938" lon="9.591336114886012"><ele>88.0</ele><time>2026-03-28T11:35:18Z</time></trkpt><trkpt lat="39.994677938732146" lon="9.59110115926373"><ele>88.0</ele><time>2026-03-28T11:35:19Z</time></trkpt><trkpt lat="39.99479554716468" lon="9.590867894612751"><ele>88.0</ele><time>2026-03-28T11:35:20Z</time></trkpt><trkpt lat="39.99491088222685" lon="9.5906324635792"><ele>88.0</ele><time>2026-03-28T11:35:21Z</time></trkpt><trkpt lat="39.99502827287724" lon="9.590403242186495"><ele>89.0</ele><time>2026-03-28T11:35:22Z</time></trkpt><trkpt lat="39.9951565583857" lon="9.590194578496686"><ele>90.0</ele><time>2026-03-28T11:35:23Z</time></trkpt><trkpt lat="39.99529713857097" lon="9.589996238785684"><ele>91.0</ele><time>2026-03-28T11:35:24Z</time></trkpt><trkpt lat="39.9954473407937" lon="9.589803218612698"><ele>91.0</ele><time>2026-03-28T11:35:25Z</time></trkpt><trkpt lat="39.99560252065993" lon="9.589616029395618"><ele>91.0</ele><time>2026-03-28T11:35:26Z</time></trkpt><trkpt lat="39.99576336016282" lon="9.589436779555358"><ele>91.0</ele><time>2026-03-28T11:35:27Z</time></trkpt><trkpt lat="39.995924476257386" lon="9.589257597293196"><ele>90.0</ele><time>2026-03-28T11:35:28Z</time></trkpt><trkpt lat="39.99608404636545" lon="9.589074642558831"><ele>89.0</ele><time>2026-03-28T11:35:29Z</time></trkpt><trkpt lat="39.99624190476804" lon="9.58889015017768"><ele>88.0</ele><time>2026-03-28T11:35:30Z</time></trkpt><trkpt lat="39.99640111664035" lon="9.588705972788453"><ele>87.0</ele><time>2026-03-28T11:35:31Z</time></trkpt><trkpt lat="39.996563028839965" lon="9.588520206262354"><ele>86.0</ele><time>2026-03-28T11:35:32Z</time></trkpt><trkpt lat="39.99671878826476" lon="9.588330714597065"><ele>85.0</ele><time>2026-03-28T11:35:33Z</time></trkpt><trkpt lat="39.9968611582154" lon="9.588124914316449"><ele>85.0</ele><time>2026-03-28T11:35:34Z</time></trkpt><trkpt lat="39.99698951306067" lon="9.587898110323167"><ele>85.0</ele><time>2026-03-28T11:35:35Z</time></trkpt><trkpt lat="39.99710419574522" lon="9.587654586766048"><ele>85.0</ele><time>2026-03-28T11:35:36Z</time></trkpt><trkpt lat="39.99721402179027" lon="9.587405333419136"><ele>85.66666666666666</ele><time>2026-03-28T11:35:37Z</time></trkpt><trkpt lat="39.99732508455866" lon="9.587155626666268"><ele>86.33333333333333</ele><time>2026-03-28T11:35:38Z</time></trkpt><trkpt lat="39.99743763288985" lon="9.586904044370096"><ele>87.0</ele><time>2026-03-28T11:35:39Z</time></trkpt><trkpt lat="39.997569425000115" lon="9.586672872967068"><ele>87.0</ele><time>2026-03-28T11:35:40Z</time></trkpt><trkpt lat="39.99766918475934" lon="9.58641774418207"><ele>87.0</ele><time>2026-03-28T11:35:41Z</time></trkpt><trkpt lat="39.99780235848832" lon="9.586185923710543"><ele>87.0</ele><time>2026-03-28T11:35:42Z</time></trkpt><trkpt lat="39.99794648977762" lon="9.585964259465818"><ele>87.33333333333333</ele><time>2026-03-28T11:35:43Z</time></trkpt><trkpt lat="39.99808842204953" lon="9.585749512110581"><ele>87.66666666666666</ele><time>2026-03-28T11:35:44Z</time></trkpt><trkpt lat="39.998221845400515" lon="9.585540430569363"><ele>88.0</ele><time>2026-03-28T11:35:45Z</time></trkpt><trkpt lat="39.998344975037355" lon="9.58533664105815"><ele>86.33333333333333</ele><time>2026-03-28T11:35:46Z</time></trkpt><trkpt lat="39.99845432612462" lon="9.585122768214267"><ele>84.66666666666667</ele><time>2026-03-28T11:35:47Z</time></trkpt><trkpt lat="39.99854686943514" lon="9.584874206261995"><ele>83.0</ele><time>2026-03-28T11:35:48Z</time></trkpt><trkpt lat="39.998622006263574" lon="9.584587895706957"><ele>83.0</ele><time>2026-03-28T11:35:49Z</time></trkpt><trkpt lat="39.998709901021165" lon="9.584298706380615"><ele>83.0</ele><time>2026-03-28T11:35:50Z</time></trkpt><trkpt lat="39.9987860497594" lon="9.584011621963045"><ele>83.0</ele><time>2026-03-28T11:35:51Z</time></trkpt><trkpt lat="39.99886386909187" lon="9.58372554330252"><ele>83.0</ele><time>2026-03-28T11:35:52Z</time></trkpt><trkpt lat="39.99893908421908" lon="9.583438722969666"><ele>83.0</ele><time>2026-03-28T11:35:53Z</time></trkpt><trkpt lat="39.99901501050038" lon="9.583152151992183"><ele>83.0</ele><time>2026-03-28T11:35:54Z</time></trkpt><trkpt lat="39.999090686535034" lon="9.582865140460157"><ele>83.5</ele><time>2026-03-28T11:35:55Z</time></trkpt><trkpt lat="39.99916657121825" lon="9.58257715569837"><ele>84.0</ele><time>2026-03-28T11:35:56Z</time></trkpt><trkpt lat="39.999243582452294" lon="9.58228856034427"><ele>83.0</ele><time>2026-03-28T11:35:57Z</time></trkpt><trkpt lat="39.999320053599234" lon="9.582002088180554"><ele>82.0</ele><time>2026-03-28T11:35:58Z</time></trkpt><trkpt lat="39.99939529714127" lon="9.58171396874923"><ele>82.0</ele><time>2026-03-28T11:35:59Z</time></trkpt><trkpt lat="39.999470195393755" lon="9.581430404619312"><ele>82.0</ele><time>2026-03-28T11:36:00Z</time></trkpt><trkpt lat="39.9995445735315" lon="9.581151609046852"><ele>82.33333333333333</ele><time>2026-03-28T11:36:01Z</time></trkpt><trkpt lat="39.99961619759723" lon="9.58088146027242"><ele>82.66666666666667</ele><time>2026-03-28T11:36:02Z</time></trkpt><trkpt lat="39.99968528247675" lon="9.580618225994572"><ele>83.0</ele><time>2026-03-28T11:36:03Z</time></trkpt><trkpt lat="39.99975496262997" lon="9.580351617710642"><ele>83.33333333333334</ele><time>2026-03-28T11:36:04Z</time></trkpt><trkpt lat="39.999823589636925" lon="9.580083507512658"><ele>83.66666666666667</ele><time>2026-03-28T11:36:05Z</time></trkpt><trkpt lat="39.999895320481016" lon="9.579812854221586"><ele>84.0</ele><time>2026-03-28T11:36:06Z</time></trkpt><trkpt lat="39.999968289974234" lon="9.579537527297122"><ele>84.66666666666667</ele><time>2026-03-28T11:36:07Z</time></trkpt><trkpt lat="40.00004194646102" lon="9.579259608393114"><ele>85.33333333333334</ele><time>2026-03-28T11:36:08Z</time></trkpt><trkpt lat="40.000114302881606" lon="9.578986592952035"><ele>86.0</ele><time>2026-03-28T11:36:09Z</time></trkpt><trkpt lat="40.00018135926197" lon="9.578732283932732"><ele>86.66666666666667</ele><time>2026-03-28T11:36:10Z</time></trkpt><trkpt lat="40.00024215600407" lon="9.57850184548289"><ele>87.33333333333333</ele><time>2026-03-28T11:36:11Z</time></trkpt><trkpt lat="40.00030104302013" lon="9.57827864554314"><ele>88.0</ele><time>2026-03-28T11:36:12Z</time></trkpt><trkpt lat="40.00036105270487" lon="9.578051192035208"><ele>89.0</ele><time>2026-03-28T11:36:13Z</time></trkpt><trkpt lat="40.00042199799119" lon="9.577816986870616"><ele>90.0</ele><time>2026-03-28T11:36:14Z</time></trkpt><trkpt lat="40.000484766350404" lon="9.57758181392268"><ele>91.0</ele><time>2026-03-28T11:36:15Z</time></trkpt><trkpt lat="40.0005587270882" lon="9.577347734144498"><ele>91.0</ele><time>2026-03-28T11:36:16Z</time></trkpt><trkpt lat="40.00065626947879" lon="9.577118944589404"><ele>91.0</ele><time>2026-03-28T11:36:17Z</time></trkpt><trkpt lat="40.00076208584674" lon="9.57687853671352"><ele>91.0</ele><time>2026-03-28T11:36:18Z</time></trkpt><trkpt lat="40.00085658869457" lon="9.57661842138033"><ele>93.0</ele><time>2026-03-28T11:36:19Z</time></trkpt><trkpt lat="40.0009636989727" lon="9.576368790718663"><ele>95.0</ele><time>2026-03-28T11:36:20Z</time></trkpt><trkpt lat="40.00108616903083" lon="9.576128791074447"><ele>97.0</ele><time>2026-03-28T11:36:21Z</time></trkpt><trkpt lat="40.00119369757698" lon="9.575880229416748"><ele>97.0</ele><time>2026-03-28T11:36:22Z</time></trkpt><trkpt lat="40.00130038736995" lon="9.57563332355024"><ele>97.0</ele><time>2026-03-28T11:36:23Z</time></trkpt><trkpt lat="40.00140519232234" lon="9.575390522831528"><ele>97.0</ele><time>2026-03-28T11:36:24Z</time></trkpt><trkpt lat="40.00150882966538" lon="9.57515042698147"><ele>98.0</ele><time>2026-03-28T11:36:25Z</time></trkpt><trkpt lat="40.00161065007368" lon="9.57491454041529"><ele>99.0</ele><time>2026-03-28T11:36:26Z</time></trkpt><trkpt lat="40.001709311669345" lon="9.57468431390268"><ele>100.0</ele><time>2026-03-28T11:36:27Z</time></trkpt><trkpt lat="40.00180457389137" lon="9.574461289978485"><ele>101.66666666666667</ele><time>2026-03-28T11:36:28Z</time></trkpt><trkpt lat="40.00189856960021" lon="9.57424123114112"><ele>103.33333333333334</ele><time>2026-03-28T11:36:29Z</time></trkpt><trkpt lat="40.00199105476048" lon="9.574027124981836"><ele>105.0</ele><time>2026-03-28T11:36:30Z</time></trkpt><trkpt lat="40.00207250568204" lon="9.573798828477608"><ele>105.66666666666666</ele><time>2026-03-28T11:36:31Z</time></trkpt><trkpt lat="40.00217984106031" lon="9.573589039297033"><ele>106.33333333333333</ele><time>2026-03-28T11:36:32Z</time></trkpt><trkpt lat="40.00229647156824" lon="9.573374951452177"><ele>107.0</ele><time>2026-03-28T11:36:33Z</time></trkpt><trkpt lat="40.00241815443251" lon="9.57315884056794"><ele>106.33333333333333</ele><time>2026-03-28T11:36:34Z</time></trkpt><trkpt lat="40.002543114402" lon="9.57294064376298"><ele>105.66666666666666</ele><time>2026-03-28T11:36:35Z</time></trkpt><trkpt lat="40.00267019988078" lon="9.57271870956271"><ele>105.0</ele><time>2026-03-28T11:36:36Z</time></trkpt><trkpt lat="40.00281435175337" lon="9.57250381187366"><ele>104.5</ele><time>2026-03-28T11:36:37Z</time></trkpt><trkpt lat="40.00294923437181" lon="9.572270162351863"><ele>104.0</ele><time>2026-03-28T11:36:38Z</time></trkpt><trkpt lat="40.00308575404427" lon="9.572034449792486"><ele>103.66666666666666</ele><time>2026-03-28T11:36:39Z</time></trkpt><trkpt lat="40.00320843272342" lon="9.571822634863143"><ele>103.33333333333334</ele><time>2026-03-28T11:36:40Z</time></trkpt><trkpt lat="40.003338013973284" lon="9.571598497241295"><ele>103.0</ele><time>2026-03-28T11:36:41Z</time></trkpt><trkpt lat="40.00346821772714" lon="9.571373081013762"><ele>103.66666666666667</ele><time>2026-03-28T11:36:42Z</time></trkpt><trkpt lat="40.0035979517294" lon="9.571148478600715"><ele>104.33333333333334</ele><time>2026-03-28T11:36:43Z</time></trkpt><trkpt lat="40.00372653620061" lon="9.570925870202156"><ele>105.0</ele><time>2026-03-28T11:36:44Z</time></trkpt><trkpt lat="40.00385574662086" lon="9.570702178146133"><ele>105.0</ele><time>2026-03-28T11:36:45Z</time></trkpt><trkpt lat="40.00397350635274" lon="9.570465227179708"><ele>105.0</ele><time>2026-03-28T11:36:46Z</time></trkpt><trkpt lat="40.00410420645218" lon="9.57023819652316"><ele>105.0</ele><time>2026-03-28T11:36:47Z</time></trkpt><trkpt lat="40.00423226559133" lon="9.570011953666182"><ele>105.0</ele><time>2026-03-28T11:36:48Z</time></trkpt><trkpt lat="40.00436231897892" lon="9.569785324463284"><ele>105.0</ele><time>2026-03-28T11:36:49Z</time></trkpt><trkpt lat="40.004489990095664" lon="9.569558579094311"><ele>105.0</ele><time>2026-03-28T11:36:50Z</time></trkpt><trkpt lat="40.00461729926368" lon="9.569332885421444"><ele>105.0</ele><time>2026-03-28T11:36:51Z</time></trkpt><trkpt lat="40.00474670569857" lon="9.569118454915197"><ele>105.0</ele><time>2026-03-28T11:36:52Z</time></trkpt><trkpt lat="40.00488779467956" lon="9.568924308111752"><ele>105.0</ele><time>2026-03-28T11:36:53Z</time></trkpt><trkpt lat="40.00504344802225" lon="9.568746917676393"><ele>105.66666666666666</ele><time>2026-03-28T11:36:54Z</time></trkpt><trkpt lat="40.005204032877735" lon="9.568576977618436"><ele>106.33333333333333</ele><time>2026-03-28T11:36:55Z</time></trkpt><trkpt lat="40.005363740811326" lon="9.56840516999585"><ele>107.0</ele><time>2026-03-28T11:36:56Z</time></trkpt><trkpt lat="40.00551950197102" lon="9.568236560680209"><ele>107.0</ele><time>2026-03-28T11:36:57Z</time></trkpt><trkpt lat="40.00566406889112" lon="9.568064512998168"><ele>107.0</ele><time>2026-03-28T11:36:58Z</time></trkpt><trkpt lat="40.00579291666037" lon="9.567869771404778"><ele>107.0</ele><time>2026-03-28T11:36:59Z</time></trkpt><trkpt lat="40.00590560007677" lon="9.567645963288452"><ele>107.0</ele><time>2026-03-28T11:37:00Z</time></trkpt><trkpt lat="40.006000983570736" lon="9.567403738244714"><ele>107.0</ele><time>2026-03-28T11:37:01Z</time></trkpt><trkpt lat="40.006087697632225" lon="9.56715295472689"><ele>107.0</ele><time>2026-03-28T11:37:02Z</time></trkpt><trkpt lat="40.00617411383812" lon="9.566905638087725"><ele>107.66666666666666</ele><time>2026-03-28T11:37:03Z</time></trkpt><trkpt lat="40.006264281153605" lon="9.566658630465659"><ele>108.33333333333334</ele><time>2026-03-28T11:37:04Z</time></trkpt><trkpt lat="40.00635424557943" lon="9.56641685243085"><ele>109.0</ele><time>2026-03-28T11:37:05Z</time></trkpt><trkpt lat="40.00644143917701" lon="9.566178646040587"><ele>111.0</ele><time>2026-03-28T11:37:06Z</time></trkpt><trkpt lat="40.00652900427189" lon="9.565944089313255"><ele>113.0</ele><time>2026-03-28T11:37:07Z</time></trkpt><trkpt lat="40.006623875552066" lon="9.565719230625403"><ele>115.0</ele><time>2026-03-28T11:37:08Z</time></trkpt><trkpt lat="40.00673321329383" lon="9.56550855639723"><ele>114.66666666666667</ele><time>2026-03-28T11:37:09Z</time></trkpt><trkpt lat="40.0068525185565" lon="9.565303586227357"><ele>114.33333333333334</ele><time>2026-03-28T11:37:10Z</time></trkpt><trkpt lat="40.00697178554499" lon="9.565095873480038"><ele>114.0</ele><time>2026-03-28T11:37:11Z</time></trkpt><trkpt lat="40.00708306317039" lon="9.564881830079393"><ele>114.0</ele><time>2026-03-28T11:37:12Z</time></trkpt><trkpt lat="40.00717229575833" lon="9.56464760204478"><ele>114.0</ele><time>2026-03-28T11:37:13Z</time></trkpt><trkpt lat="40.00722421258029" lon="9.564381313753666"><ele>114.0</ele><time>2026-03-28T11:37:14Z</time></trkpt><trkpt lat="40.00726284784783" lon="9.564105048682965"><ele>118.0</ele><time>2026-03-28T11:37:15Z</time></trkpt><trkpt lat="40.00730817229217" lon="9.563827601135353"><ele>122.0</ele><time>2026-03-28T11:37:16Z</time></trkpt><trkpt lat="40.007359053727676" lon="9.563549599876785"><ele>126.0</ele><time>2026-03-28T11:37:17Z</time></trkpt><trkpt lat="40.00741163708534" lon="9.563274851074835"><ele>127.66666666666666</ele><time>2026-03-28T11:37:18Z</time></trkpt><trkpt lat="40.00746091671978" lon="9.562998203368274"><ele>129.33333333333331</ele><time>2026-03-28T11:37:19Z</time></trkpt><trkpt lat="40.00750880679486" lon="9.562722592686237"><ele>131.0</ele><time>2026-03-28T11:37:20Z</time></trkpt><trkpt lat="40.00755730165017" lon="9.562449641449064"><ele>122.0</ele><time>2026-03-28T11:37:21Z</time></trkpt><trkpt lat="40.00760879615505" lon="9.562180502489495"><ele>113.0</ele><time>2026-03-28T11:37:22Z</time></trkpt><trkpt lat="40.007661068609096" lon="9.561912011938336"><ele>104.0</ele><time>2026-03-28T11:37:23Z</time></trkpt><trkpt lat="40.00770846072045" lon="9.5616606664795"><ele>104.0</ele><time>2026-03-28T11:37:24Z</time></trkpt><trkpt lat="40.00775182434859" lon="9.561422930402033"><ele>104.0</ele><time>2026-03-28T11:37:25Z</time></trkpt><trkpt lat="40.007795057384456" lon="9.561190770009045"><ele>104.0</ele><time>2026-03-28T11:37:26Z</time></trkpt><trkpt lat="40.00783535342531" lon="9.56096073544212"><ele>104.0</ele><time>2026-03-28T11:37:27Z</time></trkpt><trkpt lat="40.007863999189276" lon="9.560726242246862"><ele>104.0</ele><time>2026-03-28T11:37:28Z</time></trkpt><trkpt lat="40.007860960563185" lon="9.560489048627778"><ele>104.0</ele><time>2026-03-28T11:37:29Z</time></trkpt><trkpt lat="40.00783477074618" lon="9.560250501382194"><ele>104.33333333333333</ele><time>2026-03-28T11:37:30Z</time></trkpt><trkpt lat="40.007813331180465" lon="9.560014612675774"><ele>104.66666666666666</ele><time>2026-03-28T11:37:31Z</time></trkpt><trkpt lat="40.00780295204281" lon="9.559776449810679"><ele>105.0</ele><time>2026-03-28T11:37:32Z</time></trkpt><trkpt lat="40.00780478160889" lon="9.559536288095932"><ele>108.0</ele><time>2026-03-28T11:37:33Z</time></trkpt><trkpt lat="40.00782141099913" lon="9.5592918551295"><ele>111.0</ele><time>2026-03-28T11:37:34Z</time></trkpt><trkpt lat="40.0078460959866" lon="9.559046595767937"><ele>114.0</ele><time>2026-03-28T11:37:35Z</time></trkpt><trkpt lat="40.00786888150112" lon="9.558798161145846"><ele>118.0</ele><time>2026-03-28T11:37:36Z</time></trkpt><trkpt lat="40.00789016375275" lon="9.558543752611302"><ele>122.0</ele><time>2026-03-28T11:37:37Z</time></trkpt><trkpt lat="40.00791081595389" lon="9.558287324248768"><ele>126.0</ele><time>2026-03-28T11:37:38Z</time></trkpt><trkpt lat="40.00793488900847" lon="9.558028134541619"><ele>130.66666666666666</ele><time>2026-03-28T11:37:39Z</time></trkpt><trkpt lat="40.0079625120547" lon="9.557774170306297"><ele>135.33333333333331</ele><time>2026-03-28T11:37:40Z</time></trkpt><trkpt lat="40.00799631440984" lon="9.557529168347381"><ele>140.0</ele><time>2026-03-28T11:37:41Z</time></trkpt><trkpt lat="40.00806084421489" lon="9.557304314752418"><ele>140.0</ele><time>2026-03-28T11:37:42Z</time></trkpt><trkpt lat="40.00816334099925" lon="9.557100638710084"><ele>140.0</ele><time>2026-03-28T11:37:43Z</time></trkpt><trkpt lat="40.00826548553435" lon="9.556904611955042"><ele>140.0</ele><time>2026-03-28T11:37:44Z</time></trkpt><trkpt lat="40.00835149926839" lon="9.556693218650159"><ele>131.33333333333331</ele><time>2026-03-28T11:37:45Z</time></trkpt><trkpt lat="40.00840653059348" lon="9.55646302645144"><ele>122.66666666666666</ele><time>2026-03-28T11:37:46Z</time></trkpt><trkpt lat="40.008430067182864" lon="9.556215315255567"><ele>114.0</ele><time>2026-03-28T11:37:47Z</time></trkpt><trkpt lat="40.00844810418237" lon="9.555965438995901"><ele>114.0</ele><time>2026-03-28T11:37:48Z</time></trkpt><trkpt lat="40.008474933619596" lon="9.5557148810439"><ele>114.0</ele><time>2026-03-28T11:37:49Z</time></trkpt><trkpt lat="40.00850847335034" lon="9.55546872192253"><ele>114.0</ele><time>2026-03-28T11:37:50Z</time></trkpt><trkpt lat="40.00855034107505" lon="9.55522442872265"><ele>115.0</ele><time>2026-03-28T11:37:51Z</time></trkpt><trkpt lat="40.00864003925971" lon="9.554999623225084"><ele>116.0</ele><time>2026-03-28T11:37:52Z</time></trkpt><trkpt lat="40.00872167111698" lon="9.554773886651544"><ele>117.0</ele><time>2026-03-28T11:37:53Z</time></trkpt><trkpt lat="40.00880159140732" lon="9.554541088676551"><ele>118.33333333333334</ele><time>2026-03-28T11:37:54Z</time></trkpt><trkpt lat="40.00888105462667" lon="9.55431016333377"><ele>119.66666666666667</ele><time>2026-03-28T11:37:55Z</time></trkpt><trkpt lat="40.008960060725975" lon="9.554081638722796"><ele>121.0</ele><time>2026-03-28T11:37:56Z</time></trkpt><trkpt lat="40.00903939941605" lon="9.553852746812959"><ele>118.0</ele><time>2026-03-28T11:37:57Z</time></trkpt><trkpt lat="40.00911694064395" lon="9.553630121846853"><ele>115.0</ele><time>2026-03-28T11:37:58Z</time></trkpt><trkpt lat="40.00919310122525" lon="9.553411161757221"><ele>112.0</ele><time>2026-03-28T11:37:59Z</time></trkpt><trkpt lat="40.00926779175333" lon="9.553198768880309"><ele>112.0</ele><time>2026-03-28T11:38:00Z</time></trkpt><trkpt lat="40.00932387543391" lon="9.55298573950943"><ele>112.0</ele><time>2026-03-28T11:38:01Z</time></trkpt><trkpt lat="40.009394725665935" lon="9.552785593957868"><ele>112.0</ele><time>2026-03-28T11:38:02Z</time></trkpt><trkpt lat="40.00938849591297" lon="9.552556915353113"><ele>114.0</ele><time>2026-03-28T11:38:03Z</time></trkpt><trkpt lat="40.00937332348518" lon="9.552341076900237"><ele>116.0</ele><time>2026-03-28T11:38:04Z</time></trkpt><trkpt lat="40.00935658487302" lon="9.552129944540082"><ele>118.0</ele><time>2026-03-28T11:38:05Z</time></trkpt><trkpt lat="40.0093409355405" lon="9.551932551544919"><ele>118.25</ele><time>2026-03-28T11:38:06Z</time></trkpt><trkpt lat="40.00932700518711" lon="9.551750486989787"><ele>118.5</ele><time>2026-03-28T11:38:07Z</time></trkpt><trkpt lat="40.00929092298652" lon="9.55158401081286"><ele>118.75</ele><time>2026-03-28T11:38:08Z</time></trkpt><trkpt lat="40.00919984936549" lon="9.551452750880836"><ele>119.0</ele><time>2026-03-28T11:38:09Z</time></trkpt><trkpt lat="40.00907685690777" lon="9.551386711088176"><ele>120.80000000000001</ele><time>2026-03-28T11:38:10Z</time></trkpt><trkpt lat="40.008973849141924" lon="9.551303711724737"><ele>122.60000000000001</ele><time>2026-03-28T11:38:11Z</time></trkpt><trkpt lat="40.00887424010233" lon="9.551251166366496"><ele>124.4</ele><time>2026-03-28T11:38:12Z</time></trkpt><trkpt lat="40.00878026748577" lon="9.551202501361212"><ele>126.2</ele><time>2026-03-28T11:38:13Z</time></trkpt><trkpt lat="40.0086952077095" lon="9.551157690379485"><ele>128.0</ele><time>2026-03-28T11:38:14Z</time></trkpt><trkpt lat="40.008608867608444" lon="9.551109992894636"><ele>128.0</ele><time>2026-03-28T11:38:15Z</time></trkpt><trkpt lat="40.0085406328401" lon="9.551043809526895"><ele>128.0</ele><time>2026-03-28T11:38:16Z</time></trkpt><trkpt lat="40.00847549386907" lon="9.550958205285696"><ele>128.0</ele><time>2026-03-28T11:38:17Z</time></trkpt><trkpt lat="40.00848808693979" lon="9.550825019084302"><ele>128.0</ele><time>2026-03-28T11:38:18Z</time></trkpt><trkpt lat="40.008515704632536" lon="9.550707631994687"><ele>128.0</ele><time>2026-03-28T11:38:19Z</time></trkpt><trkpt lat="40.008574057915745" lon="9.5505955769519"><ele>128.0</ele><time>2026-03-28T11:38:20Z</time></trkpt><trkpt lat="40.00868046855745" lon="9.550533967422156"><ele>128.0</ele><time>2026-03-28T11:38:21Z</time></trkpt><trkpt lat="40.0087975648141" lon="9.55050037722944"><ele>128.0</ele><time>2026-03-28T11:38:22Z</time></trkpt><trkpt lat="40.0089057129742" lon="9.550441252852625"><ele>128.0</ele><time>2026-03-28T11:38:23Z</time></trkpt><trkpt lat="40.009001336351744" lon="9.550340867876109"><ele>128.25</ele><time>2026-03-28T11:38:24Z</time></trkpt><trkpt lat="40.00907660792353" lon="9.550208033877382"><ele>128.5</ele><time>2026-03-28T11:38:25Z</time></trkpt><trkpt lat="40.00912532880138" lon="9.550050901458004"><ele>128.75</ele><time>2026-03-28T11:38:26Z</time></trkpt><trkpt lat="40.00919179153357" lon="9.549903159147087"><ele>129.0</ele><time>2026-03-28T11:38:27Z</time></trkpt><trkpt lat="40.00924730083699" lon="9.549744747298082"><ele>129.0</ele><time>2026-03-28T11:38:28Z</time></trkpt><trkpt lat="40.00929023077102" lon="9.549575386962088"><ele>129.0</ele><time>2026-03-28T11:38:29Z</time></trkpt><trkpt lat="40.00935065963068" lon="9.549413609838108"><ele>129.0</ele><time>2026-03-28T11:38:30Z</time></trkpt><trkpt lat="40.00940926571879" lon="9.549247766794899"><ele>129.0</ele><time>2026-03-28T11:38:31Z</time></trkpt><trkpt lat="40.0094679336338" lon="9.54907974216303"><ele>132.25</ele><time>2026-03-28T11:38:32Z</time></trkpt><trkpt lat="40.00952945306578" lon="9.548913972381472"><ele>135.5</ele><time>2026-03-28T11:38:33Z</time></trkpt><trkpt lat="40.00959464685579" lon="9.548747338078204"><ele>138.75</ele><time>2026-03-28T11:38:34Z</time></trkpt><trkpt lat="40.00966529649592" lon="9.548581054251063"><ele>142.0</ele><time>2026-03-28T11:38:35Z</time></trkpt><trkpt lat="40.009741968008655" lon="9.548416049603444"><ele>139.0</ele><time>2026-03-28T11:38:36Z</time></trkpt><trkpt lat="40.00982380535934" lon="9.548248463918881"><ele>136.0</ele><time>2026-03-28T11:38:37Z</time></trkpt><trkpt lat="40.009918415721415" lon="9.548091615437531"><ele>133.0</ele><time>2026-03-28T11:38:38Z</time></trkpt><trkpt lat="40.01000169746848" lon="9.547922748817777"><ele>135.66666666666669</ele><time>2026-03-28T11:38:39Z</time></trkpt><trkpt lat="40.01007057901252" lon="9.547742997247001"><ele>138.33333333333334</ele><time>2026-03-28T11:38:40Z</time></trkpt><trkpt lat="40.010153574305775" lon="9.547577557739393"><ele>141.0</ele><time>2026-03-28T11:38:41Z</time></trkpt><trkpt lat="40.01024039155065" lon="9.547420170997677"><ele>141.0</ele><time>2026-03-28T11:38:42Z</time></trkpt><trkpt lat="40.01033903231903" lon="9.547275453767584"><ele>141.0</ele><time>2026-03-28T11:38:43Z</time></trkpt><trkpt lat="40.010448594505164" lon="9.54714062372023"><ele>141.0</ele><time>2026-03-28T11:38:44Z</time></trkpt><trkpt lat="40.010566288058996" lon="9.547014800380763"><ele>141.0</ele><time>2026-03-28T11:38:45Z</time></trkpt><trkpt lat="40.01068643829366" lon="9.5468883149534"><ele>141.0</ele><time>2026-03-28T11:38:46Z</time></trkpt><trkpt lat="40.01080503925258" lon="9.54676075753924"><ele>141.0</ele><time>2026-03-28T11:38:47Z</time></trkpt><trkpt lat="40.01092645153709" lon="9.5466319786494"><ele>141.0</ele><time>2026-03-28T11:38:48Z</time></trkpt><trkpt lat="40.011044964621334" lon="9.546506508000236"><ele>141.0</ele><time>2026-03-28T11:38:49Z</time></trkpt><trkpt lat="40.01116492410549" lon="9.546391792736225"><ele>141.0</ele><time>2026-03-28T11:38:50Z</time></trkpt><trkpt lat="40.01129509734884" lon="9.54631643720682"><ele>141.0</ele><time>2026-03-28T11:38:51Z</time></trkpt><trkpt lat="40.01143472049707" lon="9.546277498785988"><ele>141.0</ele><time>2026-03-28T11:38:52Z</time></trkpt><trkpt lat="40.011575705044386" lon="9.54626460917006"><ele>141.0</ele><time>2026-03-28T11:38:53Z</time></trkpt><trkpt lat="40.01171268720063" lon="9.546252753825444"><ele>141.0</ele><time>2026-03-28T11:38:54Z</time></trkpt><trkpt lat="40.011845581453116" lon="9.546204170408469"><ele>141.0</ele><time>2026-03-28T11:38:55Z</time></trkpt><trkpt lat="40.01197523009271" lon="9.546116142242292"><ele>144.33333333333334</ele><time>2026-03-28T11:38:56Z</time></trkpt><trkpt lat="40.012110460224655" lon="9.545998752836532"><ele>147.66666666666669</ele><time>2026-03-28T11:38:57Z</time></trkpt><trkpt lat="40.0122706137051" lon="9.545889784472209"><ele>151.0</ele><time>2026-03-28T11:38:58Z</time></trkpt><trkpt lat="40.0124404240339" lon="9.545781840438583"><ele>149.33333333333334</ele><time>2026-03-28T11:38:59Z</time></trkpt><trkpt lat="40.01261797592394" lon="9.545678989291087"><ele>147.66666666666666</ele><time>2026-03-28T11:39:00Z</time></trkpt><trkpt lat="40.01280096156814" lon="9.545556065241136"><ele>146.0</ele><time>2026-03-28T11:39:01Z</time></trkpt><trkpt lat="40.0129926017987" lon="9.545449687225448"><ele>149.0</ele><time>2026-03-28T11:39:02Z</time></trkpt><trkpt lat="40.013176824140416" lon="9.545341591251896"><ele>152.0</ele><time>2026-03-28T11:39:03Z</time></trkpt><trkpt lat="40.0133495710693" lon="9.545237110561667"><ele>155.0</ele><time>2026-03-28T11:39:04Z</time></trkpt><trkpt lat="40.01352055423964" lon="9.54515507870965"><ele>155.0</ele><time>2026-03-28T11:39:05Z</time></trkpt><trkpt lat="40.013668502051445" lon="9.545029231899322"><ele>155.0</ele><time>2026-03-28T11:39:06Z</time></trkpt><trkpt lat="40.013816855423336" lon="9.544921066717148"><ele>155.0</ele><time>2026-03-28T11:39:07Z</time></trkpt><trkpt lat="40.013967024693876" lon="9.544828027636868"><ele>155.0</ele><time>2026-03-28T11:39:08Z</time></trkpt><trkpt lat="40.014124188702176" lon="9.544765940562879"><ele>155.0</ele><time>2026-03-28T11:39:09Z</time></trkpt><trkpt lat="40.01427067243686" lon="9.544750919326495"><ele>155.0</ele><time>2026-03-28T11:39:10Z</time></trkpt><trkpt lat="40.01439753619954" lon="9.544745725214293"><ele>155.0</ele><time>2026-03-28T11:39:11Z</time></trkpt><trkpt lat="40.01449329031018" lon="9.544677107262327"><ele>154.0</ele><time>2026-03-28T11:39:12Z</time></trkpt><trkpt lat="40.014572002953635" lon="9.544574241993793"><ele>153.0</ele><time>2026-03-28T11:39:13Z</time></trkpt><trkpt lat="40.014568491782235" lon="9.544400339045374"><ele>152.0</ele><time>2026-03-28T11:39:14Z</time></trkpt><trkpt lat="40.014556840176255" lon="9.544238369989316"><ele>151.0</ele><time>2026-03-28T11:39:15Z</time></trkpt><trkpt lat="40.014566748472" lon="9.544073653242958"><ele>154.75</ele><time>2026-03-28T11:39:16Z</time></trkpt><trkpt lat="40.014573667815846" lon="9.543918683372544"><ele>158.5</ele><time>2026-03-28T11:39:17Z</time></trkpt><trkpt lat="40.01461796969816" lon="9.54376333371216"><ele>162.25</ele><time>2026-03-28T11:39:18Z</time></trkpt><trkpt lat="40.01471738937017" lon="9.543630166162163"><ele>166.0</ele><time>2026-03-28T11:39:19Z</time></trkpt><trkpt lat="40.01480392698017" lon="9.543472667932068"><ele>164.5</ele><time>2026-03-28T11:39:20Z</time></trkpt><trkpt lat="40.01490353665419" lon="9.543328923649716"><ele>163.0</ele><time>2026-03-28T11:39:21Z</time></trkpt><trkpt lat="40.014996603607756" lon="9.543180721115013"><ele>161.5</ele><time>2026-03-28T11:39:22Z</time></trkpt><trkpt lat="40.01507363461946" lon="9.543031565522774"><ele>160.0</ele><time>2026-03-28T11:39:23Z</time></trkpt><trkpt lat="40.01513022379282" lon="9.542878985717579"><ele>160.0</ele><time>2026-03-28T11:39:24Z</time></trkpt><trkpt lat="40.015161895705795" lon="9.542724944411212"><ele>160.0</ele><time>2026-03-28T11:39:25Z</time></trkpt><trkpt lat="40.0151858239323" lon="9.54256471449491"><ele>160.0</ele><time>2026-03-28T11:39:26Z</time></trkpt><trkpt lat="40.01517849010023" lon="9.542389809261536"><ele>160.0</ele><time>2026-03-28T11:39:27Z</time></trkpt><trkpt lat="40.01515637452613" lon="9.542212271287678"><ele>159.0</ele><time>2026-03-28T11:39:28Z</time></trkpt><trkpt lat="40.015130468036524" lon="9.5420334285327"><ele>158.0</ele><time>2026-03-28T11:39:29Z</time></trkpt><trkpt lat="40.015096796641394" lon="9.541861507938473"><ele>157.0</ele><time>2026-03-28T11:39:30Z</time></trkpt><trkpt lat="40.01505339511088" lon="9.541701297526783"><ele>156.0</ele><time>2026-03-28T11:39:31Z</time></trkpt><trkpt lat="40.015003616984174" lon="9.54155191863523"><ele>166.25</ele><time>2026-03-28T11:39:32Z</time></trkpt><trkpt lat="40.01495109629288" lon="9.541407202607088"><ele>176.5</ele><time>2026-03-28T11:39:33Z</time></trkpt><trkpt lat="40.014882886135986" lon="9.541279784810095"><ele>186.75</ele><time>2026-03-28T11:39:34Z</time></trkpt><trkpt lat="40.01482267905363" lon="9.541161329147931"><ele>197.0</ele><time>2026-03-28T11:39:35Z</time></trkpt><trkpt lat="40.0147721900698" lon="9.541022709930774"><ele>197.0</ele><time>2026-03-28T11:39:36Z</time></trkpt><trkpt lat="40.01477585731306" lon="9.540857109494015"><ele>197.0</ele><time>2026-03-28T11:39:37Z</time></trkpt><trkpt lat="40.01483450917724" lon="9.540702081851183"><ele>197.0</ele><time>2026-03-28T11:39:38Z</time></trkpt><trkpt lat="40.0148674341721" lon="9.540539525057264"><ele>197.0</ele><time>2026-03-28T11:39:39Z</time></trkpt><trkpt lat="40.01491426562308" lon="9.540392605784268"><ele>197.5</ele><time>2026-03-28T11:39:40Z</time></trkpt><trkpt lat="40.01496978117396" lon="9.540260373117288"><ele>198.0</ele><time>2026-03-28T11:39:41Z</time></trkpt><trkpt lat="40.015036302773" lon="9.54014324032211"><ele>198.5</ele><time>2026-03-28T11:39:42Z</time></trkpt><trkpt lat="40.01509550882394" lon="9.540022905449858"><ele>199.0</ele><time>2026-03-28T11:39:43Z</time></trkpt><trkpt lat="40.01515190611337" lon="9.5398911797828"><ele>189.5</ele><time>2026-03-28T11:39:44Z</time></trkpt><trkpt lat="40.015171998702805" lon="9.539732013850642"><ele>180.0</ele><time>2026-03-28T11:39:45Z</time></trkpt><trkpt lat="40.01518453354213" lon="9.539573073974058"><ele>170.5</ele><time>2026-03-28T11:39:46Z</time></trkpt><trkpt lat="40.01517316722137" lon="9.539423741982352"><ele>161.0</ele><time>2026-03-28T11:39:47Z</time></trkpt><trkpt lat="40.015158547842354" lon="9.539293519536056"><ele>162.60000000000002</ele><time>2026-03-28T11:39:48Z</time></trkpt><trkpt lat="40.0151024876285" lon="9.539193613238558"><ele>164.2</ele><time>2026-03-28T11:39:49Z</time></trkpt><trkpt lat="40.015015898209654" lon="9.539113109217055"><ele>165.8</ele><time>2026-03-28T11:39:50Z</time></trkpt><trkpt lat="40.014929722216635" lon="9.539015797564572"><ele>167.39999999999998</ele><time>2026-03-28T11:39:51Z</time></trkpt><trkpt lat="40.014826465923605" lon="9.538939081281004"><ele>169.0</ele><time>2026-03-28T11:39:52Z</time></trkpt><trkpt lat="40.014708263396095" lon="9.538867838913736"><ele>169.0</ele><time>2026-03-28T11:39:53Z</time></trkpt><trkpt lat="40.014563222768935" lon="9.53881360084799"><ele>169.0</ele><time>2026-03-28T11:39:54Z</time></trkpt><trkpt lat="40.014403966969404" lon="9.538773971317141"><ele>169.0</ele><time>2026-03-28T11:39:55Z</time></trkpt><trkpt lat="40.014237300603945" lon="9.538736761230908"><ele>163.66666666666669</ele><time>2026-03-28T11:39:56Z</time></trkpt><trkpt lat="40.01406694266233" lon="9.538701566751238"><ele>158.33333333333334</ele><time>2026-03-28T11:39:57Z</time></trkpt><trkpt lat="40.01390130132277" lon="9.538667749101206"><ele>153.0</ele><time>2026-03-28T11:39:58Z</time></trkpt><trkpt lat="40.013738327466754" lon="9.538654913021297"><ele>153.0</ele><time>2026-03-28T11:39:59Z</time></trkpt><trkpt lat="40.013580588907786" lon="9.538621979193897"><ele>153.0</ele><time>2026-03-28T11:40:00Z</time></trkpt><trkpt lat="40.01343122986652" lon="9.538571971074107"><ele>153.0</ele><time>2026-03-28T11:40:01Z</time></trkpt><trkpt lat="40.01328960029027" lon="9.538535780512813"><ele>155.25</ele><time>2026-03-28T11:40:02Z</time></trkpt><trkpt lat="40.01317146466801" lon="9.538466687653317"><ele>157.5</ele><time>2026-03-28T11:40:03Z</time></trkpt><trkpt lat="40.013062852470206" lon="9.538356246772043"><ele>159.75</ele><time>2026-03-28T11:40:04Z</time></trkpt><trkpt lat="40.01298657049625" lon="9.538207113047772"><ele>162.0</ele><time>2026-03-28T11:40:05Z</time></trkpt><trkpt lat="40.01292355242411" lon="9.538047759135457"><ele>160.5</ele><time>2026-03-28T11:40:06Z</time></trkpt><trkpt lat="40.01285626005816" lon="9.537883574879904"><ele>159.0</ele><time>2026-03-28T11:40:07Z</time></trkpt><trkpt lat="40.012789052966944" lon="9.537726754245325"><ele>157.5</ele><time>2026-03-28T11:40:08Z</time></trkpt><trkpt lat="40.012693373570094" lon="9.537616535999005"><ele>156.0</ele><time>2026-03-28T11:40:09Z</time></trkpt><trkpt lat="40.012589790906624" lon="9.537520106237729"><ele>160.25</ele><time>2026-03-28T11:40:10Z</time></trkpt><trkpt lat="40.01246498959914" lon="9.537421533336738"><ele>164.5</ele><time>2026-03-28T11:40:11Z</time></trkpt><trkpt lat="40.01231950873496" lon="9.537390411017268"><ele>168.75</ele><time>2026-03-28T11:40:12Z</time></trkpt><trkpt lat="40.01218506869309" lon="9.537344767448408"><ele>173.0</ele><time>2026-03-28T11:40:13Z</time></trkpt><trkpt lat="40.012059082150856" lon="9.53728095631451"><ele>173.0</ele><time>2026-03-28T11:40:14Z</time></trkpt><trkpt lat="40.01193481814652" lon="9.537236597586663"><ele>173.0</ele><time>2026-03-28T11:40:15Z</time></trkpt><trkpt lat="40.01181952598914" lon="9.537189670118101"><ele>173.0</ele><time>2026-03-28T11:40:16Z</time></trkpt><trkpt lat="40.01172516767364" lon="9.537121335524645"><ele>173.0</ele><time>2026-03-28T11:40:17Z</time></trkpt><trkpt lat="40.01164676898609" lon="9.53703293859879"><ele>171.2</ele><time>2026-03-28T11:40:18Z</time></trkpt><trkpt lat="40.01163887344855" lon="9.536888955992715"><ele>169.4</ele><time>2026-03-28T11:40:19Z</time></trkpt><trkpt lat="40.011622328434676" lon="9.536753982756364"><ele>167.6</ele><time>2026-03-28T11:40:20Z</time></trkpt><trkpt lat="40.01163433012703" lon="9.53661037962896"><ele>165.79999999999998</ele><time>2026-03-28T11:40:21Z</time></trkpt><trkpt lat="40.01166093224883" lon="9.53647157494023"><ele>164.0</ele><time>2026-03-28T11:40:22Z</time></trkpt><trkpt lat="40.01172015246206" lon="9.536356884953637"><ele>162.75</ele><time>2026-03-28T11:40:23Z</time></trkpt><trkpt lat="40.01183182026401" lon="9.53631115888562"><ele>161.5</ele><time>2026-03-28T11:40:24Z</time></trkpt><trkpt lat="40.01195091000009" lon="9.536246205280204"><ele>160.25</ele><time>2026-03-28T11:40:25Z</time></trkpt><trkpt lat="40.01207605179919" lon="9.536216522494604"><ele>159.0</ele><time>2026-03-28T11:40:26Z</time></trkpt><trkpt lat="40.01219168336264" lon="9.53617759774817"><ele>159.2</ele><time>2026-03-28T11:40:27Z</time></trkpt><trkpt lat="40.012307012002964" lon="9.536141246646626"><ele>159.4</ele><time>2026-03-28T11:40:28Z</time></trkpt><trkpt lat="40.012414002715616" lon="9.536141519163644"><ele>159.6</ele><time>2026-03-28T11:40:29Z</time></trkpt><trkpt lat="40.01251049750323" lon="9.53619073347932"><ele>159.8</ele><time>2026-03-28T11:40:30Z</time></trkpt><trkpt lat="40.01259949731827" lon="9.536283801538035"><ele>160.0</ele><time>2026-03-28T11:40:31Z</time></trkpt><trkpt lat="40.01268846518302" lon="9.536374335073376"><ele>160.0</ele><time>2026-03-28T11:40:32Z</time></trkpt><trkpt lat="40.01278915797026" lon="9.53643033936751"><ele>160.0</ele><time>2026-03-28T11:40:33Z</time></trkpt><trkpt lat="40.012906870822896" lon="9.536460274522916"><ele>160.0</ele><time>2026-03-28T11:40:34Z</time></trkpt><trkpt lat="40.01302464244424" lon="9.536454633892841"><ele>160.0</ele><time>2026-03-28T11:40:35Z</time></trkpt><trkpt lat="40.01312668172421" lon="9.53639856154612"><ele>160.0</ele><time>2026-03-28T11:40:36Z</time></trkpt><trkpt lat="40.01320613857081" lon="9.536290609986176"><ele>160.0</ele><time>2026-03-28T11:40:37Z</time></trkpt><trkpt lat="40.01328635616942" lon="9.53616115107245"><ele>160.0</ele><time>2026-03-28T11:40:38Z</time></trkpt><trkpt lat="40.013365463207045" lon="9.536023454240993"><ele>160.0</ele><time>2026-03-28T11:40:39Z</time></trkpt><trkpt lat="40.01346833338888" lon="9.535908886996825"><ele>164.0</ele><time>2026-03-28T11:40:40Z</time></trkpt><trkpt lat="40.01357938827858" lon="9.535796729465702"><ele>168.0</ele><time>2026-03-28T11:40:41Z</time></trkpt><trkpt lat="40.01368940237694" lon="9.535674840222287"><ele>172.0</ele><time>2026-03-28T11:40:42Z</time></trkpt><trkpt lat="40.01380808146661" lon="9.535580616127602"><ele>176.0</ele><time>2026-03-28T11:40:43Z</time></trkpt><trkpt lat="40.01392610747919" lon="9.53550715383487"><ele>176.0</ele><time>2026-03-28T11:40:44Z</time></trkpt><trkpt lat="40.01402270920483" lon="9.535445380968545"><ele>176.0</ele><time>2026-03-28T11:40:45Z</time></trkpt><trkpt lat="40.01410656494615" lon="9.535411163330435"><ele>176.0</ele><time>2026-03-28T11:40:46Z</time></trkpt><trkpt lat="40.01417127071551" lon="9.535424693255772"><ele>176.0</ele><time>2026-03-28T11:40:47Z</time></trkpt><trkpt lat="40.01422427788976" lon="9.535469280167119"><ele>176.0</ele><time>2026-03-28T11:40:48Z</time></trkpt><trkpt lat="40.014261959351984" lon="9.535545256020477"><ele>176.0</ele><time>2026-03-28T11:40:49Z</time></trkpt><trkpt lat="40.01426678630935" lon="9.53564078043455"><ele>176.0</ele><time>2026-03-28T11:40:50Z</time></trkpt><trkpt lat="40.014233101443295" lon="9.535728564500184"><ele>176.0</ele><time>2026-03-28T11:40:51Z</time></trkpt><trkpt lat="40.01418027513004" lon="9.535819944455392"><ele>176.0</ele><time>2026-03-28T11:40:52Z</time></trkpt><trkpt lat="40.01412960030965" lon="9.535926548532201"><ele>176.0</ele><time>2026-03-28T11:40:53Z</time></trkpt><trkpt lat="40.014096072859914" lon="9.536041056203528"><ele>176.0</ele><time>2026-03-28T11:40:54Z</time></trkpt><trkpt lat="40.01408378627627" lon="9.53617084932422"><ele>174.60000000000002</ele><time>2026-03-28T11:40:55Z</time></trkpt><trkpt lat="40.01411944903568" lon="9.536298167808704"><ele>173.2</ele><time>2026-03-28T11:40:56Z</time></trkpt><trkpt lat="40.01419108836992" lon="9.536392780242208"><ele>171.8</ele><time>2026-03-28T11:40:57Z</time></trkpt><trkpt lat="40.01428941587674" lon="9.536461124303116"><ele>170.39999999999998</ele><time>2026-03-28T11:40:58Z</time></trkpt><trkpt lat="40.01439727745175" lon="9.536501386984208"><ele>169.0</ele><time>2026-03-28T11:40:59Z</time></trkpt><trkpt lat="40.01452091828721" lon="9.536486265012295"><ele>169.0</ele><time>2026-03-28T11:41:00Z</time></trkpt><trkpt lat="40.014651891434696" lon="9.536450327107998"><ele>169.0</ele><time>2026-03-28T11:41:01Z</time></trkpt><trkpt lat="40.014783200808886" lon="9.536405033735598"><ele>169.0</ele><time>2026-03-28T11:41:02Z</time></trkpt><trkpt lat="40.014899740968396" lon="9.536345879678807"><ele>169.0</ele><time>2026-03-28T11:41:03Z</time></trkpt><trkpt lat="40.01501045182681" lon="9.53633252674676"><ele>170.75</ele><time>2026-03-28T11:41:04Z</time></trkpt><trkpt lat="40.01509930867942" lon="9.536393465840574"><ele>172.5</ele><time>2026-03-28T11:41:05Z</time></trkpt><trkpt lat="40.015228440119095" lon="9.53644451097244"><ele>174.25</ele><time>2026-03-28T11:41:06Z</time></trkpt><trkpt lat="40.01538268891074" lon="9.536552986801533"><ele>176.0</ele><time>2026-03-28T11:41:07Z</time></trkpt><trkpt lat="40.01556692683568" lon="9.5366633997267"><ele>176.0</ele><time>2026-03-28T11:41:08Z</time></trkpt><trkpt lat="40.015712083982145" lon="9.536823670225933"><ele>176.0</ele><time>2026-03-28T11:41:09Z</time></trkpt><trkpt lat="40.01583634070921" lon="9.536968482732727"><ele>176.0</ele><time>2026-03-28T11:41:10Z</time></trkpt><trkpt lat="40.015976082440176" lon="9.53706535087099"><ele>174.66666666666666</ele><time>2026-03-28T11:41:11Z</time></trkpt><trkpt lat="40.01612157817091" lon="9.537137822062695"><ele>173.33333333333334</ele><time>2026-03-28T11:41:12Z</time></trkpt><trkpt lat="40.016272370257916" lon="9.537180138799481"><ele>172.0</ele><time>2026-03-28T11:41:13Z</time></trkpt><trkpt lat="40.01642620728598" lon="9.537172312126494"><ele>172.0</ele><time>2026-03-28T11:41:14Z</time></trkpt><trkpt lat="40.01655994036746" lon="9.53710136896647"><ele>172.0</ele><time>2026-03-28T11:41:15Z</time></trkpt><trkpt lat="40.01667802962381" lon="9.536976444148353"><ele>172.0</ele><time>2026-03-28T11:41:16Z</time></trkpt><trkpt lat="40.01679091001271" lon="9.536831611588457"><ele>178.0</ele><time>2026-03-28T11:41:17Z</time></trkpt><trkpt lat="40.016897083925016" lon="9.536663018514519"><ele>184.0</ele><time>2026-03-28T11:41:18Z</time></trkpt><trkpt lat="40.017006039463006" lon="9.536485742964759"><ele>190.0</ele><time>2026-03-28T11:41:19Z</time></trkpt><trkpt lat="40.017155955784254" lon="9.536355275135152"><ele>190.0</ele><time>2026-03-28T11:41:20Z</time></trkpt><trkpt lat="40.01730810092385" lon="9.536253938913262"><ele>190.0</ele><time>2026-03-28T11:41:21Z</time></trkpt><trkpt lat="40.01745407749611" lon="9.536155791203653"><ele>190.0</ele><time>2026-03-28T11:41:22Z</time></trkpt><trkpt lat="40.0175917285827" lon="9.536062789067497"><ele>189.25</ele><time>2026-03-28T11:41:23Z</time></trkpt><trkpt lat="40.01772725457666" lon="9.535999914512185"><ele>188.5</ele><time>2026-03-28T11:41:24Z</time></trkpt><trkpt lat="40.0178557665599" lon="9.535981073888196"><ele>187.75</ele><time>2026-03-28T11:41:25Z</time></trkpt><trkpt lat="40.017968185307666" lon="9.53597516778856"><ele>187.0</ele><time>2026-03-28T11:41:26Z</time></trkpt><trkpt lat="40.018072352325085" lon="9.535953251402294"><ele>187.0</ele><time>2026-03-28T11:41:27Z</time></trkpt><trkpt lat="40.01817132469958" lon="9.535920834734112"><ele>187.0</ele><time>2026-03-28T11:41:28Z</time></trkpt><trkpt lat="40.01825705079903" lon="9.535868374866306"><ele>187.0</ele><time>2026-03-28T11:41:29Z</time></trkpt><trkpt lat="40.01831608247354" lon="9.535768336046726"><ele>187.0</ele><time>2026-03-28T11:41:30Z</time></trkpt><trkpt lat="40.018353257777726" lon="9.535648290471624"><ele>187.0</ele><time>2026-03-28T11:41:31Z</time></trkpt><trkpt lat="40.01840049097128" lon="9.535549268883539"><ele>187.0</ele><time>2026-03-28T11:41:32Z</time></trkpt><trkpt lat="40.01843441908187" lon="9.535459118570785"><ele>187.0</ele><time>2026-03-28T11:41:33Z</time></trkpt><trkpt lat="40.018469260116575" lon="9.53537123898052"><ele>187.0</ele><time>2026-03-28T11:41:34Z</time></trkpt><trkpt lat="40.01854278226436" lon="9.53533121967792"><ele>187.0</ele><time>2026-03-28T11:41:35Z</time></trkpt><trkpt lat="40.01863029537727" lon="9.535330251704742"><ele>187.0</ele><time>2026-03-28T11:41:36Z</time></trkpt><trkpt lat="40.01872177107966" lon="9.5353652526519"><ele>187.0</ele><time>2026-03-28T11:41:37Z</time></trkpt><trkpt lat="40.01881710363023" lon="9.535410092073095"><ele>187.0</ele><time>2026-03-28T11:41:38Z</time></trkpt><trkpt lat="40.01892972090011" lon="9.535421767890831"><ele>187.0</ele><time>2026-03-28T11:41:39Z</time></trkpt><trkpt lat="40.019041811129895" lon="9.535385054382575"><ele>187.0</ele><time>2026-03-28T11:41:40Z</time></trkpt><trkpt lat="40.019140578115255" lon="9.53529499217179"><ele>187.0</ele><time>2026-03-28T11:41:41Z</time></trkpt><trkpt lat="40.01922615823396" lon="9.535163744270072"><ele>183.25</ele><time>2026-03-28T11:41:42Z</time></trkpt><trkpt lat="40.019308807488976" lon="9.535021373453276"><ele>179.5</ele><time>2026-03-28T11:41:43Z</time></trkpt><trkpt lat="40.01939625085543" lon="9.534874217027749"><ele>175.75</ele><time>2026-03-28T11:41:44Z</time></trkpt><trkpt lat="40.01948905258398" lon="9.53472470551471"><ele>172.0</ele><time>2026-03-28T11:41:45Z</time></trkpt><trkpt lat="40.01958391887057" lon="9.534582432793504"><ele>176.0</ele><time>2026-03-28T11:41:46Z</time></trkpt><trkpt lat="40.019675468847616" lon="9.534444286569862"><ele>180.0</ele><time>2026-03-28T11:41:47Z</time></trkpt><trkpt lat="40.01975909688751" lon="9.534300796780018"><ele>184.0</ele><time>2026-03-28T11:41:48Z</time></trkpt><trkpt lat="40.01983122167506" lon="9.53414141712653"><ele>188.0</ele><time>2026-03-28T11:41:49Z</time></trkpt><trkpt lat="40.019889344427064" lon="9.533968978294688"><ele>188.0</ele><time>2026-03-28T11:41:50Z</time></trkpt><trkpt lat="40.01993820106896" lon="9.533801504369722"><ele>188.0</ele><time>2026-03-28T11:41:51Z</time></trkpt><trkpt lat="40.0199886649155" lon="9.533637427412074"><ele>188.0</ele><time>2026-03-28T11:41:52Z</time></trkpt><trkpt lat="40.02002714052491" lon="9.533462696730503"><ele>188.0</ele><time>2026-03-28T11:41:53Z</time></trkpt><trkpt lat="40.02006352311683" lon="9.533248474188955"><ele>178.33333333333331</ele><time>2026-03-28T11:41:54Z</time></trkpt><trkpt lat="40.02007730970848" lon="9.532983812427917"><ele>168.66666666666666</ele><time>2026-03-28T11:41:55Z</time></trkpt><trkpt lat="40.020092795394525" lon="9.53267730680997"><ele>159.0</ele><time>2026-03-28T11:41:56Z</time></trkpt><trkpt lat="40.020107373584246" lon="9.532382498703294"><ele>159.0</ele><time>2026-03-28T11:41:57Z</time></trkpt><trkpt lat="40.02012007197295" lon="9.532104151902333"><ele>159.0</ele><time>2026-03-28T11:41:58Z</time></trkpt><trkpt lat="40.02012175989194" lon="9.53183141167733"><ele>159.0</ele><time>2026-03-28T11:41:59Z</time></trkpt><trkpt lat="40.020144197520914" lon="9.531575321367038"><ele>160.33333333333334</ele><time>2026-03-28T11:42:00Z</time></trkpt><trkpt lat="40.020152306569095" lon="9.53133337495167"><ele>161.66666666666669</ele><time>2026-03-28T11:42:01Z</time></trkpt><trkpt lat="40.020155967112025" lon="9.531111242531773"><ele>163.0</ele><time>2026-03-28T11:42:02Z</time></trkpt><trkpt lat="40.02015933540526" lon="9.530923197095172"><ele>163.4</ele><time>2026-03-28T11:42:03Z</time></trkpt><trkpt lat="40.02015598908289" lon="9.530768553914097"><ele>163.8</ele><time>2026-03-28T11:42:04Z</time></trkpt><trkpt lat="40.020204566712756" lon="9.530654416644937"><ele>164.2</ele><time>2026-03-28T11:42:05Z</time></trkpt><trkpt lat="40.020285586145874" lon="9.530588948600235"><ele>164.6</ele><time>2026-03-28T11:42:06Z</time></trkpt><trkpt lat="40.02039138380409" lon="9.530582349346389"><ele>165.0</ele><time>2026-03-28T11:42:07Z</time></trkpt><trkpt lat="40.02051028100585" lon="9.53059365572555"><ele>165.0</ele><time>2026-03-28T11:42:08Z</time></trkpt><trkpt lat="40.020622556458214" lon="9.530593724462863"><ele>165.0</ele><time>2026-03-28T11:42:09Z</time></trkpt><trkpt lat="40.02071238305234" lon="9.530652701674184"><ele>165.0</ele><time>2026-03-28T11:42:10Z</time></trkpt><trkpt lat="40.02076328245074" lon="9.530776786663584"><ele>165.0</ele><time>2026-03-28T11:42:11Z</time></trkpt><trkpt lat="40.020785397017185" lon="9.530958697455576"><ele>162.0</ele><time>2026-03-28T11:42:12Z</time></trkpt><trkpt lat="40.02081840514738" lon="9.531154586109938"><ele>159.0</ele><time>2026-03-28T11:42:13Z</time></trkpt><trkpt lat="40.02086565961551" lon="9.531371531932187"><ele>156.0</ele><time>2026-03-28T11:42:14Z</time></trkpt><trkpt lat="40.02092671894098" lon="9.53159891158372"><ele>155.0</ele><time>2026-03-28T11:42:15Z</time></trkpt><trkpt lat="40.021003415049236" lon="9.531825359230368"><ele>154.0</ele><time>2026-03-28T11:42:16Z</time></trkpt><trkpt lat="40.02109494731903" lon="9.53205627166029"><ele>153.0</ele><time>2026-03-28T11:42:17Z</time></trkpt><trkpt lat="40.02118933729145" lon="9.532302608252506"><ele>151.66666666666666</ele><time>2026-03-28T11:42:18Z</time></trkpt><trkpt lat="40.021276898894776" lon="9.532551524904395"><ele>150.33333333333331</ele><time>2026-03-28T11:42:19Z</time></trkpt><trkpt lat="40.021349174894006" lon="9.532774248631636"><ele>149.0</ele><time>2026-03-28T11:42:20Z</time></trkpt><trkpt lat="40.02141373634197" lon="9.532970253597968"><ele>148.5</ele><time>2026-03-28T11:42:21Z</time></trkpt><trkpt lat="40.02147639819692" lon="9.533122461986542"><ele>148.0</ele><time>2026-03-28T11:42:22Z</time></trkpt><trkpt lat="40.021551731871114" lon="9.533225688125418"><ele>147.5</ele><time>2026-03-28T11:42:23Z</time></trkpt><trkpt lat="40.021638814528956" lon="9.533333937129026"><ele>147.0</ele><time>2026-03-28T11:42:24Z</time></trkpt><trkpt lat="40.02171283303813" lon="9.533481225882545"><ele>148.5</ele><time>2026-03-28T11:42:25Z</time></trkpt><trkpt lat="40.02180773778827" lon="9.533615819739772"><ele>150.0</ele><time>2026-03-28T11:42:26Z</time></trkpt><trkpt lat="40.02193451821273" lon="9.533687491086097"><ele>151.5</ele><time>2026-03-28T11:42:27Z</time></trkpt><trkpt lat="40.02206880759427" lon="9.533687524398976"><ele>153.0</ele><time>2026-03-28T11:42:28Z</time></trkpt><trkpt lat="40.02221214670704" lon="9.53362420426789"><ele>153.0</ele><time>2026-03-28T11:42:29Z</time></trkpt><trkpt lat="40.02237049644121" lon="9.533527502897973"><ele>153.0</ele><time>2026-03-28T11:42:30Z</time></trkpt><trkpt lat="40.02253284811611" lon="9.533436714680548"><ele>153.0</ele><time>2026-03-28T11:42:31Z</time></trkpt><trkpt lat="40.02271142166071" lon="9.533354260197015"><ele>153.0</ele><time>2026-03-28T11:42:32Z</time></trkpt><trkpt lat="40.022902266650114" lon="9.533270346555117"><ele>153.0</ele><time>2026-03-28T11:42:33Z</time></trkpt><trkpt lat="40.023103325785534" lon="9.533187112167841"><ele>153.0</ele><time>2026-03-28T11:42:34Z</time></trkpt><trkpt lat="40.02331451439082" lon="9.533125191505677"><ele>153.0</ele><time>2026-03-28T11:42:35Z</time></trkpt><trkpt lat="40.02352597164426" lon="9.533078602662595"><ele>153.0</ele><time>2026-03-28T11:42:36Z</time></trkpt><trkpt lat="40.02373150331781" lon="9.533025268907565"><ele>153.0</ele><time>2026-03-28T11:42:37Z</time></trkpt><trkpt lat="40.023931560946416" lon="9.532965912889601"><ele>153.0</ele><time>2026-03-28T11:42:38Z</time></trkpt><trkpt lat="40.024126422237174" lon="9.532889308860216"><ele>153.0</ele><time>2026-03-28T11:42:39Z</time></trkpt><trkpt lat="40.024315011074236" lon="9.53276523456859"><ele>153.0</ele><time>2026-03-28T11:42:40Z</time></trkpt><trkpt lat="40.024496919019136" lon="9.532601110650182"><ele>153.33333333333334</ele><time>2026-03-28T11:42:41Z</time></trkpt><trkpt lat="40.02467372851536" lon="9.532443581952588"><ele>153.66666666666669</ele><time>2026-03-28T11:42:42Z</time></trkpt><trkpt lat="40.024837443609954" lon="9.53230528871168"><ele>154.0</ele><time>2026-03-28T11:42:43Z</time></trkpt><trkpt lat="40.024995528203895" lon="9.532186567701856"><ele>154.0</ele><time>2026-03-28T11:42:44Z</time></trkpt><trkpt lat="40.025166016372076" lon="9.532104423321876"><ele>154.0</ele><time>2026-03-28T11:42:45Z</time></trkpt><trkpt lat="40.02536822400572" lon="9.532062014961015"><ele>154.0</ele><time>2026-03-28T11:42:46Z</time></trkpt><trkpt lat="40.025590248580485" lon="9.53204466501076"><ele>157.0</ele><time>2026-03-28T11:42:47Z</time></trkpt><trkpt lat="40.02580170690821" lon="9.532019988841908"><ele>160.0</ele><time>2026-03-28T11:42:48Z</time></trkpt><trkpt lat="40.026006402386336" lon="9.531998475694015"><ele>163.0</ele><time>2026-03-28T11:42:49Z</time></trkpt><trkpt lat="40.026193295799935" lon="9.531977377937173"><ele>163.0</ele><time>2026-03-28T11:42:50Z</time></trkpt><trkpt lat="40.026362368452276" lon="9.531946545312298"><ele>163.0</ele><time>2026-03-28T11:42:51Z</time></trkpt><trkpt lat="40.0265264295104" lon="9.531870741759237"><ele>163.0</ele><time>2026-03-28T11:42:52Z</time></trkpt><trkpt lat="40.026689245945505" lon="9.53173575649049"><ele>162.66666666666669</ele><time>2026-03-28T11:42:53Z</time></trkpt><trkpt lat="40.02683915867" lon="9.53158412072378"><ele>162.33333333333334</ele><time>2026-03-28T11:42:54Z</time></trkpt><trkpt lat="40.02698014289654" lon="9.53144466485077"><ele>162.0</ele><time>2026-03-28T11:42:55Z</time></trkpt><trkpt lat="40.02709907912054" lon="9.531311457005234"><ele>164.5</ele><time>2026-03-28T11:42:56Z</time></trkpt><trkpt lat="40.027176981223555" lon="9.531147693488656"><ele>167.0</ele><time>2026-03-28T11:42:57Z</time></trkpt><trkpt lat="40.02721254196917" lon="9.530958775787598"><ele>169.5</ele><time>2026-03-28T11:42:58Z</time></trkpt><trkpt lat="40.02722898512189" lon="9.530782943904805"><ele>172.0</ele><time>2026-03-28T11:42:59Z</time></trkpt><trkpt lat="40.02728296519087" lon="9.53063514968862"><ele>172.0</ele><time>2026-03-28T11:43:00Z</time></trkpt><trkpt lat="40.02739389196639" lon="9.530546985528416"><ele>172.0</ele><time>2026-03-28T11:43:01Z</time></trkpt><trkpt lat="40.02751697903102" lon="9.530463716039568"><ele>172.0</ele><time>2026-03-28T11:43:02Z</time></trkpt><trkpt lat="40.02767936763103" lon="9.530439391675248"><ele>172.0</ele><time>2026-03-28T11:43:03Z</time></trkpt><trkpt lat="40.02785738105519" lon="9.530404504308407"><ele>171.0</ele><time>2026-03-28T11:43:04Z</time></trkpt><trkpt lat="40.02803453747605" lon="9.530360561317314"><ele>170.0</ele><time>2026-03-28T11:43:05Z</time></trkpt><trkpt lat="40.028228465374035" lon="9.53031450025946"><ele>169.0</ele><time>2026-03-28T11:43:06Z</time></trkpt><trkpt lat="40.02843458878186" lon="9.530267213673294"><ele>167.66666666666669</ele><time>2026-03-28T11:43:07Z</time></trkpt><trkpt lat="40.02865253260494" lon="9.530218907400068"><ele>166.33333333333334</ele><time>2026-03-28T11:43:08Z</time></trkpt><trkpt lat="40.02887632957609" lon="9.530168615905009"><ele>165.0</ele><time>2026-03-28T11:43:09Z</time></trkpt><trkpt lat="40.02909969578081" lon="9.53011549175681"><ele>164.0</ele><time>2026-03-28T11:43:10Z</time></trkpt><trkpt lat="40.029326884722224" lon="9.53005934604602"><ele>163.0</ele><time>2026-03-28T11:43:11Z</time></trkpt><trkpt lat="40.029555381671734" lon="9.530004999194961"><ele>163.0</ele><time>2026-03-28T11:43:12Z</time></trkpt><trkpt lat="40.0297861912765" lon="9.529950457243254"><ele>163.0</ele><time>2026-03-28T11:43:13Z</time></trkpt><trkpt lat="40.030018969181484" lon="9.529896876463715"><ele>163.5</ele><time>2026-03-28T11:43:14Z</time></trkpt><trkpt lat="40.03024871021514" lon="9.529844765008649"><ele>164.0</ele><time>2026-03-28T11:43:15Z</time></trkpt><trkpt lat="40.03047655364266" lon="9.529793720064026"><ele>164.0</ele><time>2026-03-28T11:43:16Z</time></trkpt><trkpt lat="40.030702661419866" lon="9.529741678606262"><ele>164.0</ele><time>2026-03-28T11:43:17Z</time></trkpt><trkpt lat="40.0309293414601" lon="9.52968784390937"><ele>164.0</ele><time>2026-03-28T11:43:18Z</time></trkpt><trkpt lat="40.03115726359128" lon="9.529633334248862"><ele>164.0</ele><time>2026-03-28T11:43:19Z</time></trkpt><trkpt lat="40.03138676454584" lon="9.529580675807404"><ele>170.0</ele><time>2026-03-28T11:43:20Z</time></trkpt><trkpt lat="40.031615821823" lon="9.529527952809975"><ele>176.0</ele><time>2026-03-28T11:43:21Z</time></trkpt><trkpt lat="40.03184577414263" lon="9.529475987948368"><ele>182.0</ele><time>2026-03-28T11:43:22Z</time></trkpt><trkpt lat="40.0320774978565" lon="9.529423982863282"><ele>188.0</ele><time>2026-03-28T11:43:23Z</time></trkpt><trkpt lat="40.032307893984026" lon="9.52937041330428"><ele>185.5</ele><time>2026-03-28T11:43:24Z</time></trkpt><trkpt lat="40.03254035090399" lon="9.529315311372232"><ele>183.0</ele><time>2026-03-28T11:43:25Z</time></trkpt><trkpt lat="40.03277210771146" lon="9.529264473012084"><ele>183.0</ele><time>2026-03-28T11:43:26Z</time></trkpt><trkpt lat="40.03300438614864" lon="9.529216206921017"><ele>183.0</ele><time>2026-03-28T11:43:27Z</time></trkpt><trkpt lat="40.03323209597414" lon="9.52917160985907"><ele>180.5</ele><time>2026-03-28T11:43:28Z</time></trkpt><trkpt lat="40.03345510738534" lon="9.52913643242877"><ele>178.0</ele><time>2026-03-28T11:43:29Z</time></trkpt><trkpt lat="40.03368733231572" lon="9.529116309573425"><ele>178.0</ele><time>2026-03-28T11:43:30Z</time></trkpt><trkpt lat="40.03391597521904" lon="9.52911493176142"><ele>178.0</ele><time>2026-03-28T11:43:31Z</time></trkpt><trkpt lat="40.034143511170235" lon="9.529116670777567"><ele>181.0</ele><time>2026-03-28T11:43:32Z</time></trkpt><trkpt lat="40.03436785891156" lon="9.529116153562269"><ele>184.0</ele><time>2026-03-28T11:43:33Z</time></trkpt><trkpt lat="40.03458573945791" lon="9.529121680375143"><ele>187.0</ele><time>2026-03-28T11:43:34Z</time></trkpt><trkpt lat="40.03479267580158" lon="9.529127501529645"><ele>190.33333333333334</ele><time>2026-03-28T11:43:35Z</time></trkpt><trkpt lat="40.03498969155019" lon="9.529119881750123"><ele>193.66666666666669</ele><time>2026-03-28T11:43:36Z</time></trkpt><trkpt lat="40.035186520091806" lon="9.52907608304014"><ele>197.0</ele><time>2026-03-28T11:43:37Z</time></trkpt><trkpt lat="40.035385328432376" lon="9.528981125516177"><ele>197.0</ele><time>2026-03-28T11:43:38Z</time></trkpt><trkpt lat="40.035582690169015" lon="9.528868758799085"><ele>197.0</ele><time>2026-03-28T11:43:39Z</time></trkpt><trkpt lat="40.03577708563484" lon="9.528768821815637"><ele>197.0</ele><time>2026-03-28T11:43:40Z</time></trkpt><trkpt lat="40.03597124719298" lon="9.528688049572171"><ele>205.0</ele><time>2026-03-28T11:43:41Z</time></trkpt><trkpt lat="40.03616356291025" lon="9.528640966260438"><ele>213.0</ele><time>2026-03-28T11:43:42Z</time></trkpt><trkpt lat="40.03636071461862" lon="9.528640474012946"><ele>221.0</ele><time>2026-03-28T11:43:43Z</time></trkpt><trkpt lat="40.03654481558457" lon="9.528583664601594"><ele>221.33333333333334</ele><time>2026-03-28T11:43:44Z</time></trkpt><trkpt lat="40.036713776149064" lon="9.528543357131435"><ele>221.66666666666669</ele><time>2026-03-28T11:43:45Z</time></trkpt><trkpt lat="40.036896644107905" lon="9.528640211333439"><ele>222.0</ele><time>2026-03-28T11:43:46Z</time></trkpt><trkpt lat="40.0370320193584" lon="9.52856427551808"><ele>222.0</ele><time>2026-03-28T11:43:47Z</time></trkpt><trkpt lat="40.03712228242601" lon="9.528437485094008"><ele>222.0</ele><time>2026-03-28T11:43:48Z</time></trkpt><trkpt lat="40.0372034304289" lon="9.52826317995794"><ele>222.0</ele><time>2026-03-28T11:43:49Z</time></trkpt><trkpt lat="40.03730863585298" lon="9.528084059939165"><ele>222.0</ele><time>2026-03-28T11:43:50Z</time></trkpt><trkpt lat="40.03742675235151" lon="9.527897256798479"><ele>222.0</ele><time>2026-03-28T11:43:51Z</time></trkpt><trkpt lat="40.03754621256132" lon="9.527701298109323"><ele>222.0</ele><time>2026-03-28T11:43:52Z</time></trkpt><trkpt lat="40.03767338740606" lon="9.527506052248594"><ele>224.33333333333331</ele><time>2026-03-28T11:43:53Z</time></trkpt><trkpt lat="40.03781857644111" lon="9.527325353191715"><ele>226.66666666666666</ele><time>2026-03-28T11:43:54Z</time></trkpt><trkpt lat="40.03798652275627" lon="9.527166001040099"><ele>229.0</ele><time>2026-03-28T11:43:55Z</time></trkpt><trkpt lat="40.0381703115497" lon="9.527016014577013"><ele>227.66666666666666</ele><time>2026-03-28T11:43:56Z</time></trkpt><trkpt lat="40.03835928597193" lon="9.526866820591582"><ele>226.33333333333331</ele><time>2026-03-28T11:43:57Z</time></trkpt><trkpt lat="40.03854744811442" lon="9.526712536416694"><ele>225.0</ele><time>2026-03-28T11:43:58Z</time></trkpt><trkpt lat="40.03872974134931" lon="9.526565160904957"><ele>225.0</ele><time>2026-03-28T11:43:59Z</time></trkpt><trkpt lat="40.03890762407386" lon="9.52643266974278"><ele>225.0</ele><time>2026-03-28T11:44:00Z</time></trkpt><trkpt lat="40.03909215126692" lon="9.526323485963681"><ele>225.0</ele><time>2026-03-28T11:44:01Z</time></trkpt><trkpt lat="40.03928502927334" lon="9.52625842829102"><ele>229.0</ele><time>2026-03-28T11:44:02Z</time></trkpt><trkpt lat="40.039484166697775" lon="9.526220446037383"><ele>233.0</ele><time>2026-03-28T11:44:03Z</time></trkpt><trkpt lat="40.03969005441234" lon="9.526173485397633"><ele>237.0</ele><time>2026-03-28T11:44:04Z</time></trkpt><trkpt lat="40.03990141537469" lon="9.52612337264444"><ele>233.33333333333331</ele><time>2026-03-28T11:44:05Z</time></trkpt><trkpt lat="40.040117090387405" lon="9.526076826985795"><ele>229.66666666666666</ele><time>2026-03-28T11:44:06Z</time></trkpt><trkpt lat="40.04033910722884" lon="9.526028507885574"><ele>226.0</ele><time>2026-03-28T11:44:07Z</time></trkpt><trkpt lat="40.04055789499262" lon="9.525980309066293"><ele>226.0</ele><time>2026-03-28T11:44:08Z</time></trkpt><trkpt lat="40.04077547560631" lon="9.525934468984172"><ele>226.0</ele><time>2026-03-28T11:44:09Z</time></trkpt><trkpt lat="40.040975097395034" lon="9.525860375879397"><ele>226.0</ele><time>2026-03-28T11:44:10Z</time></trkpt><trkpt lat="40.04116678554432" lon="9.52576241075222"><ele>224.66666666666666</ele><time>2026-03-28T11:44:11Z</time></trkpt><trkpt lat="40.041347765006975" lon="9.525602717518197"><ele>223.33333333333331</ele><time>2026-03-28T11:44:12Z</time></trkpt><trkpt lat="40.041498539221344" lon="9.525420989446122"><ele>222.0</ele><time>2026-03-28T11:44:13Z</time></trkpt><trkpt lat="40.04163407780712" lon="9.52527600460361"><ele>225.66666666666669</ele><time>2026-03-28T11:44:14Z</time></trkpt><trkpt lat="40.0417653141374" lon="9.525107207214106"><ele>229.33333333333334</ele><time>2026-03-28T11:44:15Z</time></trkpt><trkpt lat="40.04185102944623" lon="9.52492406276655"><ele>233.0</ele><time>2026-03-28T11:44:16Z</time></trkpt><trkpt lat="40.041897842656084" lon="9.524733461167559"><ele>233.0</ele><time>2026-03-28T11:44:17Z</time></trkpt><trkpt lat="40.04196747716608" lon="9.524572643145238"><ele>233.0</ele><time>2026-03-28T11:44:18Z</time></trkpt><trkpt lat="40.04208368132689" lon="9.524442911933233"><ele>233.0</ele><time>2026-03-28T11:44:19Z</time></trkpt><trkpt lat="40.04223384976899" lon="9.524362144054368"><ele>233.0</ele><time>2026-03-28T11:44:20Z</time></trkpt><trkpt lat="40.042393228835344" lon="9.524289808638086"><ele>233.0</ele><time>2026-03-28T11:44:21Z</time></trkpt><trkpt lat="40.04254902695906" lon="9.52417160815219"><ele>233.0</ele><time>2026-03-28T11:44:22Z</time></trkpt><trkpt lat="40.04269927262083" lon="9.52402064422232"><ele>233.0</ele><time>2026-03-28T11:44:23Z</time></trkpt><trkpt lat="40.042851426438" lon="9.523870094028887"><ele>233.0</ele><time>2026-03-28T11:44:24Z</time></trkpt><trkpt lat="40.04299797653628" lon="9.523735979822105"><ele>233.0</ele><time>2026-03-28T11:44:25Z</time></trkpt><trkpt lat="40.04315505653062" lon="9.523600286908984"><ele>236.66666666666669</ele><time>2026-03-28T11:44:26Z</time></trkpt><trkpt lat="40.043314250944064" lon="9.523456727385653"><ele>240.33333333333331</ele><time>2026-03-28T11:44:27Z</time></trkpt><trkpt lat="40.04347150766704" lon="9.523308684725272"><ele>244.0</ele><time>2026-03-28T11:44:28Z</time></trkpt><trkpt lat="40.043629167966444" lon="9.523160006944925"><ele>244.0</ele><time>2026-03-28T11:44:29Z</time></trkpt><trkpt lat="40.04377842800348" lon="9.523023231556971"><ele>244.0</ele><time>2026-03-28T11:44:30Z</time></trkpt><trkpt lat="40.04392439017305" lon="9.522899119824789"><ele>244.0</ele><time>2026-03-28T11:44:31Z</time></trkpt><trkpt lat="40.04406929920556" lon="9.522803759333877"><ele>244.25</ele><time>2026-03-28T11:44:32Z</time></trkpt><trkpt lat="40.04421158408284" lon="9.522764544684371"><ele>244.5</ele><time>2026-03-28T11:44:33Z</time></trkpt><trkpt lat="40.044354990579215" lon="9.522789082218612"><ele>244.75</ele><time>2026-03-28T11:44:34Z</time></trkpt><trkpt lat="40.04449680232782" lon="9.522852138890658"><ele>245.0</ele><time>2026-03-28T11:44:35Z</time></trkpt><trkpt lat="40.04463075433373" lon="9.522962960656873"><ele>242.33333333333334</ele><time>2026-03-28T11:44:36Z</time></trkpt><trkpt lat="40.04474790182543" lon="9.523119286749663"><ele>239.66666666666669</ele><time>2026-03-28T11:44:37Z</time></trkpt><trkpt lat="40.04483795581085" lon="9.523295944841736"><ele>237.0</ele><time>2026-03-28T11:44:38Z</time></trkpt><trkpt lat="40.04492456377091" lon="9.523465843343386"><ele>240.0</ele><time>2026-03-28T11:44:39Z</time></trkpt><trkpt lat="40.045045111331284" lon="9.523592248294165"><ele>243.0</ele><time>2026-03-28T11:44:40Z</time></trkpt><trkpt lat="40.04519855970108" lon="9.523669901275456"><ele>246.0</ele><time>2026-03-28T11:44:41Z</time></trkpt><trkpt lat="40.04537743756746" lon="9.523697696528695"><ele>246.0</ele><time>2026-03-28T11:44:42Z</time></trkpt><trkpt lat="40.04557606193558" lon="9.523684591520185"><ele>246.0</ele><time>2026-03-28T11:44:43Z</time></trkpt><trkpt lat="40.04578801730022" lon="9.523649338087656"><ele>246.0</ele><time>2026-03-28T11:44:44Z</time></trkpt><trkpt lat="40.04600684797327" lon="9.523617244434126"><ele>247.66666666666669</ele><time>2026-03-28T11:44:45Z</time></trkpt><trkpt lat="40.04622327664441" lon="9.523590765415051"><ele>249.33333333333334</ele><time>2026-03-28T11:44:46Z</time></trkpt><trkpt lat="40.04644906866947" lon="9.523564773944075"><ele>251.0</ele><time>2026-03-28T11:44:47Z</time></trkpt><trkpt lat="40.0466754678552" lon="9.52353638930899"><ele>251.33333333333334</ele><time>2026-03-28T11:44:48Z</time></trkpt><trkpt lat="40.04689355869853" lon="9.5235047909975"><ele>251.66666666666669</ele><time>2026-03-28T11:44:49Z</time></trkpt><trkpt lat="40.0470971002982" lon="9.523475910543139"><ele>252.0</ele><time>2026-03-28T11:44:50Z</time></trkpt><trkpt lat="40.04728814979924" lon="9.523450260417786"><ele>251.66666666666669</ele><time>2026-03-28T11:44:51Z</time></trkpt><trkpt lat="40.04746790110067" lon="9.523427514591543"><ele>251.33333333333334</ele><time>2026-03-28T11:44:52Z</time></trkpt><trkpt lat="40.0476341828857" lon="9.523419549419165"><ele>251.0</ele><time>2026-03-28T11:44:53Z</time></trkpt><trkpt lat="40.047790489326374" lon="9.52345378454624"><ele>251.0</ele><time>2026-03-28T11:44:54Z</time></trkpt><trkpt lat="40.047934982135764" lon="9.523532564066851"><ele>251.0</ele><time>2026-03-28T11:44:55Z</time></trkpt><trkpt lat="40.04804448065247" lon="9.523645108672945"><ele>251.0</ele><time>2026-03-28T11:44:56Z</time></trkpt><trkpt lat="40.048133854943316" lon="9.523803453298061"><ele>251.0</ele><time>2026-03-28T11:44:57Z</time></trkpt><trkpt lat="40.048190634344046" lon="9.524004579085824"><ele>252.66666666666669</ele><time>2026-03-28T11:44:58Z</time></trkpt><trkpt lat="40.048220747373854" lon="9.5242239501216"><ele>254.33333333333331</ele><time>2026-03-28T11:44:59Z</time></trkpt><trkpt lat="40.048252442606184" lon="9.524420118243514"><ele>256.0</ele><time>2026-03-28T11:45:00Z</time></trkpt><trkpt lat="40.048322571657486" lon="9.52458888701788"><ele>256.0</ele><time>2026-03-28T11:45:01Z</time></trkpt><trkpt lat="40.04842474915272" lon="9.524737633822438"><ele>256.0</ele><time>2026-03-28T11:45:02Z</time></trkpt><trkpt lat="40.04855033992668" lon="9.524853286977162"><ele>256.0</ele><time>2026-03-28T11:45:03Z</time></trkpt><trkpt lat="40.04869970838435" lon="9.524920632629213"><ele>256.0</ele><time>2026-03-28T11:45:04Z</time></trkpt><trkpt lat="40.04885937001186" lon="9.524927883507935"><ele>256.0</ele><time>2026-03-28T11:45:05Z</time></trkpt><trkpt lat="40.049039052902685" lon="9.524882841501123"><ele>256.0</ele><time>2026-03-28T11:45:06Z</time></trkpt><trkpt lat="40.04922639715269" lon="9.524820954207277"><ele>256.3333333333333</ele><time>2026-03-28T11:45:07Z</time></trkpt><trkpt lat="40.04943546258666" lon="9.524760871843137"><ele>256.6666666666667</ele><time>2026-03-28T11:45:08Z</time></trkpt><trkpt lat="40.049654924479995" lon="9.524695684977054"><ele>257.0</ele><time>2026-03-28T11:45:09Z</time></trkpt><trkpt lat="40.04987681370613" lon="9.524630856814797"><ele>259.0</ele><time>2026-03-28T11:45:10Z</time></trkpt><trkpt lat="40.05010461536387" lon="9.524562570266726"><ele>261.0</ele><time>2026-03-28T11:45:11Z</time></trkpt><trkpt lat="40.05033209079258" lon="9.52449338832669"><ele>261.0</ele><time>2026-03-28T11:45:12Z</time></trkpt><trkpt lat="40.05055608294395" lon="9.524422575878571"><ele>261.0</ele><time>2026-03-28T11:45:13Z</time></trkpt><trkpt lat="40.050779769720855" lon="9.524352951733036"><ele>260.0</ele><time>2026-03-28T11:45:14Z</time></trkpt><trkpt lat="40.05100665205616" lon="9.524285213279644"><ele>259.0</ele><time>2026-03-28T11:45:15Z</time></trkpt><trkpt lat="40.051240034822634" lon="9.524215189060815"><ele>259.0</ele><time>2026-03-28T11:45:16Z</time></trkpt><trkpt lat="40.05147626698242" lon="9.524142562270407"><ele>259.0</ele><time>2026-03-28T11:45:17Z</time></trkpt><trkpt lat="40.05171605494596" lon="9.52406734681413"><ele>261.0</ele><time>2026-03-28T11:45:18Z</time></trkpt><trkpt lat="40.05196378734899" lon="9.524013463370899"><ele>263.0</ele><time>2026-03-28T11:45:19Z</time></trkpt><trkpt lat="40.05220590169969" lon="9.523939745819925"><ele>263.0</ele><time>2026-03-28T11:45:20Z</time></trkpt><trkpt lat="40.05242377315891" lon="9.5238527919528"><ele>263.0</ele><time>2026-03-28T11:45:21Z</time></trkpt><trkpt lat="40.05263091974146" lon="9.523795550830853"><ele>263.0</ele><time>2026-03-28T11:45:22Z</time></trkpt><trkpt lat="40.05282387426172" lon="9.523745660720461"><ele>267.0</ele><time>2026-03-28T11:45:23Z</time></trkpt><trkpt lat="40.053006591026644" lon="9.523693336512201"><ele>271.0</ele><time>2026-03-28T11:45:24Z</time></trkpt><trkpt lat="40.053184483055595" lon="9.523633760267618"><ele>275.0</ele><time>2026-03-28T11:45:25Z</time></trkpt><trkpt lat="40.05334928160862" lon="9.523560570745465"><ele>275.0</ele><time>2026-03-28T11:45:26Z</time></trkpt><trkpt lat="40.0534964102452" lon="9.523456401537407"><ele>275.0</ele><time>2026-03-28T11:45:27Z</time></trkpt><trkpt lat="40.053633919132565" lon="9.52331576691188"><ele>275.0</ele><time>2026-03-28T11:45:28Z</time></trkpt><trkpt lat="40.05375727832579" lon="9.52312895307623"><ele>275.0</ele><time>2026-03-28T11:45:29Z</time></trkpt><trkpt lat="40.0538679715235" lon="9.522911303394826"><ele>275.0</ele><time>2026-03-28T11:45:30Z</time></trkpt><trkpt lat="40.05397987185366" lon="9.52270050124072"><ele>275.0</ele><time>2026-03-28T11:45:31Z</time></trkpt><trkpt lat="40.05411573132189" lon="9.522516335699558"><ele>274.6666666666667</ele><time>2026-03-28T11:45:32Z</time></trkpt><trkpt lat="40.054268453948744" lon="9.522371976583333"><ele>274.3333333333333</ele><time>2026-03-28T11:45:33Z</time></trkpt><trkpt lat="40.054433230429886" lon="9.522254940771553"><ele>274.0</ele><time>2026-03-28T11:45:34Z</time></trkpt><trkpt lat="40.05461407988106" lon="9.522157577413848"><ele>274.0</ele><time>2026-03-28T11:45:35Z</time></trkpt><trkpt lat="40.054808064253315" lon="9.522067024443569"><ele>274.0</ele><time>2026-03-28T11:45:36Z</time></trkpt><trkpt lat="40.055009294505346" lon="9.521968680746156"><ele>274.0</ele><time>2026-03-28T11:45:37Z</time></trkpt><trkpt lat="40.05522077244335" lon="9.521864185504752"><ele>278.0</ele><time>2026-03-28T11:45:38Z</time></trkpt><trkpt lat="40.05543753005695" lon="9.521758057935285"><ele>282.0</ele><time>2026-03-28T11:45:39Z</time></trkpt><trkpt lat="40.05566085111667" lon="9.521648375889743"><ele>278.5</ele><time>2026-03-28T11:45:40Z</time></trkpt><trkpt lat="40.05589237459813" lon="9.52153859190696"><ele>275.0</ele><time>2026-03-28T11:45:41Z</time></trkpt><trkpt lat="40.05613160316594" lon="9.52142534245962"><ele>275.0</ele><time>2026-03-28T11:45:42Z</time></trkpt><trkpt lat="40.05637890018137" lon="9.521302849560664"><ele>275.0</ele><time>2026-03-28T11:45:43Z</time></trkpt><trkpt lat="40.05663456317043" lon="9.5211760578237"><ele>279.0</ele><time>2026-03-28T11:45:44Z</time></trkpt><trkpt lat="40.056897854176434" lon="9.521049289672941"><ele>283.0</ele><time>2026-03-28T11:45:45Z</time></trkpt><trkpt lat="40.05716624543854" lon="9.520922932799971"><ele>283.0</ele><time>2026-03-28T11:45:46Z</time></trkpt><trkpt lat="40.057421488641424" lon="9.520801023982889"><ele>283.0</ele><time>2026-03-28T11:45:47Z</time></trkpt><trkpt lat="40.05766047831426" lon="9.520685120725709"><ele>283.5</ele><time>2026-03-28T11:45:48Z</time></trkpt><trkpt lat="40.05788063556693" lon="9.520578111156045"><ele>284.0</ele><time>2026-03-28T11:45:49Z</time></trkpt><trkpt lat="40.0580859122093" lon="9.520476343543647"><ele>289.0</ele><time>2026-03-28T11:45:50Z</time></trkpt><trkpt lat="40.05827650610891" lon="9.520383973625755"><ele>294.0</ele><time>2026-03-28T11:45:51Z</time></trkpt><trkpt lat="40.058455459127046" lon="9.520296368392687"><ele>299.0</ele><time>2026-03-28T11:45:52Z</time></trkpt><trkpt lat="40.058625388631164" lon="9.520214381232503"><ele>299.0</ele><time>2026-03-28T11:45:53Z</time></trkpt><trkpt lat="40.05878894635134" lon="9.520149032128574"><ele>299.0</ele><time>2026-03-28T11:45:54Z</time></trkpt><trkpt lat="40.05896789486212" lon="9.520118961061872"><ele>299.0</ele><time>2026-03-28T11:45:55Z</time></trkpt><trkpt lat="40.05915894329791" lon="9.520133727560314"><ele>297.0</ele><time>2026-03-28T11:45:56Z</time></trkpt><trkpt lat="40.05935975813224" lon="9.520185363246654"><ele>295.0</ele><time>2026-03-28T11:45:57Z</time></trkpt><trkpt lat="40.05957035162326" lon="9.520246269514658"><ele>293.0</ele><time>2026-03-28T11:45:58Z</time></trkpt><trkpt lat="40.059793985288266" lon="9.520299217443409"><ele>291.0</ele><time>2026-03-28T11:45:59Z</time></trkpt><trkpt lat="40.06002702998769" lon="9.520355573319794"><ele>289.0</ele><time>2026-03-28T11:46:00Z</time></trkpt><trkpt lat="40.06025854819077" lon="9.520420972249733"><ele>289.0</ele><time>2026-03-28T11:46:01Z</time></trkpt><trkpt lat="40.060472353248784" lon="9.520484538504103"><ele>289.0</ele><time>2026-03-28T11:46:02Z</time></trkpt><trkpt lat="40.06068337036581" lon="9.52053957981057"><ele>289.0</ele><time>2026-03-28T11:46:03Z</time></trkpt><trkpt lat="40.0608956380584" lon="9.520571747399456"><ele>291.0</ele><time>2026-03-28T11:46:04Z</time></trkpt><trkpt lat="40.061107879068345" lon="9.520569952811352"><ele>293.0</ele><time>2026-03-28T11:46:05Z</time></trkpt><trkpt lat="40.061312991496564" lon="9.520536939191816"><ele>295.0</ele><time>2026-03-28T11:46:06Z</time></trkpt><trkpt lat="40.061526978481915" lon="9.520472465996525"><ele>305.0</ele><time>2026-03-28T11:46:07Z</time></trkpt><trkpt lat="40.06174040864159" lon="9.520379514831612"><ele>315.0</ele><time>2026-03-28T11:46:08Z</time></trkpt><trkpt lat="40.06195489101293" lon="9.520271527765924"><ele>315.0</ele><time>2026-03-28T11:46:09Z</time></trkpt><trkpt lat="40.0621427350351" lon="9.520172847299174"><ele>315.0</ele><time>2026-03-28T11:46:10Z</time></trkpt><trkpt lat="40.062314392724986" lon="9.520072089004207"><ele>315.0</ele><time>2026-03-28T11:46:11Z</time></trkpt><trkpt lat="40.06246769635591" lon="9.519946471968186"><ele>317.0</ele><time>2026-03-28T11:46:12Z</time></trkpt><trkpt lat="40.06260781398938" lon="9.519771286386694"><ele>319.0</ele><time>2026-03-28T11:46:13Z</time></trkpt><trkpt lat="40.06273360460099" lon="9.519559530831577"><ele>321.0</ele><time>2026-03-28T11:46:14Z</time></trkpt><trkpt lat="40.06285734804698" lon="9.519335419183353"><ele>321.0</ele><time>2026-03-28T11:46:15Z</time></trkpt><trkpt lat="40.06298329807871" lon="9.519109445303696"><ele>321.0</ele><time>2026-03-28T11:46:16Z</time></trkpt><trkpt lat="40.06310772694698" lon="9.51888875293981"><ele>321.0</ele><time>2026-03-28T11:46:17Z</time></trkpt><trkpt lat="40.06322606721542" lon="9.518684505542641"><ele>323.0</ele><time>2026-03-28T11:46:18Z</time></trkpt><trkpt lat="40.06335175276957" lon="9.518476126023447"><ele>325.0</ele><time>2026-03-28T11:46:19Z</time></trkpt><trkpt lat="40.06347917913638" lon="9.518292090075477"><ele>327.0</ele><time>2026-03-28T11:46:20Z</time></trkpt><trkpt lat="40.063623797653456" lon="9.518120178271007"><ele>327.0</ele><time>2026-03-28T11:46:21Z</time></trkpt><trkpt lat="40.06378903192893" lon="9.517966317425321"><ele>327.0</ele><time>2026-03-28T11:46:22Z</time></trkpt><trkpt lat="40.06396820397441" lon="9.517827215511087"><ele>327.0</ele><time>2026-03-28T11:46:23Z</time></trkpt><trkpt lat="40.06416257327978" lon="9.5177184669044"><ele>332.3333333333333</ele><time>2026-03-28T11:46:24Z</time></trkpt><trkpt lat="40.06437234378168" lon="9.517639390931159"><ele>337.66666666666663</ele><time>2026-03-28T11:46:25Z</time></trkpt><trkpt lat="40.06458973272552" lon="9.517567476186175"><ele>343.0</ele><time>2026-03-28T11:46:26Z</time></trkpt><trkpt lat="40.06481324385986" lon="9.51749001502051"><ele>343.5</ele><time>2026-03-28T11:46:27Z</time></trkpt><trkpt lat="40.065041052062654" lon="9.517409005456702"><ele>344.0</ele><time>2026-03-28T11:46:28Z</time></trkpt><trkpt lat="40.06526667518606" lon="9.51732699996458"><ele>344.0</ele><time>2026-03-28T11:46:29Z</time></trkpt><trkpt lat="40.0654891007898" lon="9.517242772998902"><ele>344.0</ele><time>2026-03-28T11:46:30Z</time></trkpt><trkpt lat="40.06570596290228" lon="9.517156827899216"><ele>344.6666666666667</ele><time>2026-03-28T11:46:31Z</time></trkpt><trkpt lat="40.06590891808187" lon="9.517080319538236"><ele>345.3333333333333</ele><time>2026-03-28T11:46:32Z</time></trkpt><trkpt lat="40.066102368575216" lon="9.517017980101157"><ele>346.0</ele><time>2026-03-28T11:46:33Z</time></trkpt><trkpt lat="40.06629597299879" lon="9.516981063016246"><ele>349.3333333333333</ele><time>2026-03-28T11:46:34Z</time></trkpt><trkpt lat="40.06649534261213" lon="9.516967623772649"><ele>352.6666666666667</ele><time>2026-03-28T11:46:35Z</time></trkpt><trkpt lat="40.06669877047953" lon="9.516969805763306"><ele>356.0</ele><time>2026-03-28T11:46:36Z</time></trkpt><trkpt lat="40.06690428100643" lon="9.516992116487753"><ele>356.0</ele><time>2026-03-28T11:46:37Z</time></trkpt><trkpt lat="40.06710952668573" lon="9.517040750235479"><ele>356.0</ele><time>2026-03-28T11:46:38Z</time></trkpt><trkpt lat="40.06731475278943" lon="9.517106910268609"><ele>356.0</ele><time>2026-03-28T11:46:39Z</time></trkpt><trkpt lat="40.06751972559669" lon="9.517169672715097"><ele>354.6666666666667</ele><time>2026-03-28T11:46:40Z</time></trkpt><trkpt lat="40.067719099307546" lon="9.517224120197046"><ele>353.3333333333333</ele><time>2026-03-28T11:46:41Z</time></trkpt><trkpt lat="40.06791475891669" lon="9.517278991541444"><ele>352.0</ele><time>2026-03-28T11:46:42Z</time></trkpt><trkpt lat="40.0681109492074" lon="9.517321683962587"><ele>354.66666666666663</ele><time>2026-03-28T11:46:43Z</time></trkpt><trkpt lat="40.068316640866314" lon="9.51732902145829"><ele>357.3333333333333</ele><time>2026-03-28T11:46:44Z</time></trkpt><trkpt lat="40.06853259662575" lon="9.517309791462276"><ele>360.0</ele><time>2026-03-28T11:46:45Z</time></trkpt><trkpt lat="40.06874964526774" lon="9.517282916176246"><ele>360.0</ele><time>2026-03-28T11:46:46Z</time></trkpt><trkpt lat="40.068965772020576" lon="9.51725402632576"><ele>360.0</ele><time>2026-03-28T11:46:47Z</time></trkpt><trkpt lat="40.069176033447796" lon="9.517228437029825"><ele>360.0</ele><time>2026-03-28T11:46:48Z</time></trkpt><trkpt lat="40.069375833779425" lon="9.517211942838868"><ele>361.6666666666667</ele><time>2026-03-28T11:46:49Z</time></trkpt><trkpt lat="40.06955815030757" lon="9.51719353132318"><ele>363.33333333333337</ele><time>2026-03-28T11:46:50Z</time></trkpt><trkpt lat="40.06972469858108" lon="9.517158103222311"><ele>365.0</ele><time>2026-03-28T11:46:51Z</time></trkpt><trkpt lat="40.06988595814857" lon="9.517090082126323"><ele>371.0</ele><time>2026-03-28T11:46:52Z</time></trkpt><trkpt lat="40.07005017700176" lon="9.51698266022309"><ele>377.0</ele><time>2026-03-28T11:46:53Z</time></trkpt><trkpt lat="40.07021823295032" lon="9.516863841951631"><ele>383.0</ele><time>2026-03-28T11:46:54Z</time></trkpt><trkpt lat="40.070398101500416" lon="9.51676886713099"><ele>383.0</ele><time>2026-03-28T11:46:55Z</time></trkpt><trkpt lat="40.07059103799419" lon="9.516703628922011"><ele>383.0</ele><time>2026-03-28T11:46:56Z</time></trkpt><trkpt lat="40.07079669796015" lon="9.516654562807641"><ele>383.0</ele><time>2026-03-28T11:46:57Z</time></trkpt><trkpt lat="40.071007560103695" lon="9.51659566147215"><ele>381.6666666666667</ele><time>2026-03-28T11:46:58Z</time></trkpt><trkpt lat="40.071224751670265" lon="9.516536250682051"><ele>380.3333333333333</ele><time>2026-03-28T11:46:59Z</time></trkpt><trkpt lat="40.0714453681184" lon="9.516480902891676"><ele>379.0</ele><time>2026-03-28T11:47:00Z</time></trkpt><trkpt lat="40.0716699684182" lon="9.516420616677335"><ele>379.0</ele><time>2026-03-28T11:47:01Z</time></trkpt><trkpt lat="40.07189582836215" lon="9.516359645224497"><ele>379.0</ele><time>2026-03-28T11:47:02Z</time></trkpt><trkpt lat="40.07212671537649" lon="9.516295588151287"><ele>385.5</ele><time>2026-03-28T11:47:03Z</time></trkpt><trkpt lat="40.07235469167866" lon="9.516230930244156"><ele>392.0</ele><time>2026-03-28T11:47:04Z</time></trkpt><trkpt lat="40.07256883907804" lon="9.516170673693335"><ele>392.0</ele><time>2026-03-28T11:47:05Z</time></trkpt><trkpt lat="40.07277173015604" lon="9.516115023939609"><ele>392.0</ele><time>2026-03-28T11:47:06Z</time></trkpt><trkpt lat="40.07296285858885" lon="9.516065577200097"><ele>392.0</ele><time>2026-03-28T11:47:07Z</time></trkpt><trkpt lat="40.07314017209366" lon="9.516019257470504"><ele>393.0</ele><time>2026-03-28T11:47:08Z</time></trkpt><trkpt lat="40.073298341509684" lon="9.515960505734318"><ele>394.0</ele><time>2026-03-28T11:47:09Z</time></trkpt><trkpt lat="40.073438606450715" lon="9.51585943741903"><ele>395.0</ele><time>2026-03-28T11:47:10Z</time></trkpt><trkpt lat="40.07355666996232" lon="9.515711278376603"><ele>395.0</ele><time>2026-03-28T11:47:11Z</time></trkpt><trkpt lat="40.073670478120505" lon="9.515547612622877"><ele>395.0</ele><time>2026-03-28T11:47:12Z</time></trkpt><trkpt lat="40.07376371316298" lon="9.515373272864196"><ele>395.0</ele><time>2026-03-28T11:47:13Z</time></trkpt><trkpt lat="40.073896470106156" lon="9.515247933984314"><ele>398.66666666666663</ele><time>2026-03-28T11:47:14Z</time></trkpt><trkpt lat="40.07405076489538" lon="9.51514939362393"><ele>402.33333333333337</ele><time>2026-03-28T11:47:15Z</time></trkpt><trkpt lat="40.07422195748673" lon="9.51508594918318"><ele>406.0</ele><time>2026-03-28T11:47:16Z</time></trkpt><trkpt lat="40.0744084787244" lon="9.51506609531244"><ele>406.0</ele><time>2026-03-28T11:47:17Z</time></trkpt><trkpt lat="40.07460447350461" lon="9.515092399657231"><ele>406.0</ele><time>2026-03-28T11:47:18Z</time></trkpt><trkpt lat="40.074793448451054" lon="9.515123607363678"><ele>406.0</ele><time>2026-03-28T11:47:19Z</time></trkpt><trkpt lat="40.074966314501495" lon="9.51512429071195"><ele>406.0</ele><time>2026-03-28T11:47:20Z</time></trkpt><trkpt lat="40.075136394273436" lon="9.515090738295205"><ele>406.0</ele><time>2026-03-28T11:47:21Z</time></trkpt><trkpt lat="40.07530962703072" lon="9.515008906625148"><ele>406.0</ele><time>2026-03-28T11:47:22Z</time></trkpt><trkpt lat="40.0754842628634" lon="9.51487632541786"><ele>406.0</ele><time>2026-03-28T11:47:23Z</time></trkpt><trkpt lat="40.075652720926826" lon="9.51473416091392"><ele>406.0</ele><time>2026-03-28T11:47:24Z</time></trkpt><trkpt lat="40.07581152667571" lon="9.514611840785726"><ele>406.0</ele><time>2026-03-28T11:47:25Z</time></trkpt><trkpt lat="40.075965602514025" lon="9.514517289454833"><ele>411.33333333333337</ele><time>2026-03-28T11:47:26Z</time></trkpt><trkpt lat="40.07612963047841" lon="9.514460202001697"><ele>416.66666666666663</ele><time>2026-03-28T11:47:27Z</time></trkpt><trkpt lat="40.076321686425814" lon="9.514451685359994"><ele>422.0</ele><time>2026-03-28T11:47:28Z</time></trkpt><trkpt lat="40.07653013038805" lon="9.514466394642746"><ele>420.66666666666663</ele><time>2026-03-28T11:47:29Z</time></trkpt><trkpt lat="40.07674193149813" lon="9.514481315631919"><ele>419.33333333333337</ele><time>2026-03-28T11:47:30Z</time></trkpt><trkpt lat="40.07694668822458" lon="9.51449941793343"><ele>418.0</ele><time>2026-03-28T11:47:31Z</time></trkpt><trkpt lat="40.077132302246696" lon="9.51451522899188"><ele>418.0</ele><time>2026-03-28T11:47:32Z</time></trkpt><trkpt lat="40.07729959550949" lon="9.514511711713462"><ele>418.0</ele><time>2026-03-28T11:47:33Z</time></trkpt><trkpt lat="40.077442826216334" lon="9.514465605789031"><ele>418.0</ele><time>2026-03-28T11:47:34Z</time></trkpt><trkpt lat="40.07755643502555" lon="9.514360240466832"><ele>416.6666666666667</ele><time>2026-03-28T11:47:35Z</time></trkpt><trkpt lat="40.07765562959933" lon="9.51419406776206"><ele>415.33333333333337</ele><time>2026-03-28T11:47:36Z</time></trkpt><trkpt lat="40.07775867604167" lon="9.514003229060801"><ele>414.0</ele><time>2026-03-28T11:47:37Z</time></trkpt><trkpt lat="40.077869760127875" lon="9.513800278456083"><ele>422.33333333333337</ele><time>2026-03-28T11:47:38Z</time></trkpt><trkpt lat="40.07800355152672" lon="9.513591775395167"><ele>430.6666666666667</ele><time>2026-03-28T11:47:39Z</time></trkpt><trkpt lat="40.078121146312945" lon="9.513379497367735"><ele>439.0</ele><time>2026-03-28T11:47:40Z</time></trkpt><trkpt lat="40.07822548725538" lon="9.513188319233288"><ele>436.33333333333337</ele><time>2026-03-28T11:47:41Z</time></trkpt><trkpt lat="40.07831601578971" lon="9.513005113317668"><ele>433.66666666666663</ele><time>2026-03-28T11:47:42Z</time></trkpt><trkpt lat="40.078426335165844" lon="9.51288005185311"><ele>431.0</ele><time>2026-03-28T11:47:43Z</time></trkpt><trkpt lat="40.07856304902321" lon="9.512837171583596"><ele>431.0</ele><time>2026-03-28T11:47:44Z</time></trkpt><trkpt lat="40.07872427256337" lon="9.512789191755788"><ele>431.0</ele><time>2026-03-28T11:47:45Z</time></trkpt><trkpt lat="40.07890626172765" lon="9.512773281586735"><ele>431.0</ele><time>2026-03-28T11:47:46Z</time></trkpt><trkpt lat="40.079102126349866" lon="9.512746402752601"><ele>432.0</ele><time>2026-03-28T11:47:47Z</time></trkpt><trkpt lat="40.07931097752957" lon="9.512714313317401"><ele>433.0</ele><time>2026-03-28T11:47:48Z</time></trkpt><trkpt lat="40.07952780391115" lon="9.512677125158195"><ele>434.0</ele><time>2026-03-28T11:47:49Z</time></trkpt><trkpt lat="40.07974207211101" lon="9.512624624925762"><ele>434.0</ele><time>2026-03-28T11:47:50Z</time></trkpt><trkpt lat="40.079946506418906" lon="9.512532174579274"><ele>434.0</ele><time>2026-03-28T11:47:51Z</time></trkpt><trkpt lat="40.08014341451798" lon="9.512417895209481"><ele>434.0</ele><time>2026-03-28T11:47:52Z</time></trkpt><trkpt lat="40.08035207269241" lon="9.512296929221208"><ele>434.0</ele><time>2026-03-28T11:47:53Z</time></trkpt><trkpt lat="40.08057008985659" lon="9.512175906245902"><ele>434.0</ele><time>2026-03-28T11:47:54Z</time></trkpt><trkpt lat="40.08079151978503" lon="9.512045049343692"><ele>439.5</ele><time>2026-03-28T11:47:55Z</time></trkpt><trkpt lat="40.08101608741439" lon="9.511906975908785"><ele>445.0</ele><time>2026-03-28T11:47:56Z</time></trkpt><trkpt lat="40.08123949648724" lon="9.511776814742685"><ele>445.0</ele><time>2026-03-28T11:47:57Z</time></trkpt><trkpt lat="40.08145690835309" lon="9.511657483753627"><ele>445.0</ele><time>2026-03-28T11:47:58Z</time></trkpt><trkpt lat="40.081662521583944" lon="9.511542513991666"><ele>442.6666666666667</ele><time>2026-03-28T11:47:59Z</time></trkpt><trkpt lat="40.081849431251726" lon="9.511437838257073"><ele>440.33333333333337</ele><time>2026-03-28T11:48:00Z</time></trkpt><trkpt lat="40.08202471122964" lon="9.511344997901308"><ele>438.0</ele><time>2026-03-28T11:48:01Z</time></trkpt><trkpt lat="40.08218539091972" lon="9.51125220085347"><ele>442.0</ele><time>2026-03-28T11:48:02Z</time></trkpt><trkpt lat="40.08232459262838" lon="9.511130987998882"><ele>446.0</ele><time>2026-03-28T11:48:03Z</time></trkpt><trkpt lat="40.0824342610466" lon="9.510964289503294"><ele>450.0</ele><time>2026-03-28T11:48:04Z</time></trkpt><trkpt lat="40.08251638459953" lon="9.51075268822723"><ele>450.0</ele><time>2026-03-28T11:48:05Z</time></trkpt><trkpt lat="40.08261390097996" lon="9.510553206814725"><ele>450.0</ele><time>2026-03-28T11:48:06Z</time></trkpt><trkpt lat="40.08269487968581" lon="9.51037742715196"><ele>450.0</ele><time>2026-03-28T11:48:07Z</time></trkpt><trkpt lat="40.082774944367884" lon="9.510230761886433"><ele>454.0</ele><time>2026-03-28T11:48:08Z</time></trkpt><trkpt lat="40.08289805614093" lon="9.510177907379767"><ele>458.0</ele><time>2026-03-28T11:48:09Z</time></trkpt><trkpt lat="40.083046720968134" lon="9.510181471625886"><ele>462.0</ele><time>2026-03-28T11:48:10Z</time></trkpt><trkpt lat="40.08320992151241" lon="9.510205130292709"><ele>466.0</ele><time>2026-03-28T11:48:11Z</time></trkpt><trkpt lat="40.08338909726168" lon="9.510205420698911"><ele>466.0</ele><time>2026-03-28T11:48:12Z</time></trkpt><trkpt lat="40.083585341781124" lon="9.510202635397007"><ele>466.0</ele><time>2026-03-28T11:48:13Z</time></trkpt><trkpt lat="40.08379566623376" lon="9.510203969890558"><ele>466.0</ele><time>2026-03-28T11:48:14Z</time></trkpt><trkpt lat="40.08401969380348" lon="9.510205775227334"><ele>467.33333333333337</ele><time>2026-03-28T11:48:15Z</time></trkpt><trkpt lat="40.08425064195197" lon="9.51020778954523"><ele>468.66666666666663</ele><time>2026-03-28T11:48:16Z</time></trkpt><trkpt lat="40.084460903701924" lon="9.510217322769487"><ele>470.0</ele><time>2026-03-28T11:48:17Z</time></trkpt><trkpt lat="40.08464931979577" lon="9.510225944702757"><ele>470.0</ele><time>2026-03-28T11:48:18Z</time></trkpt><trkpt lat="40.08482189187472" lon="9.510225005943019"><ele>470.0</ele><time>2026-03-28T11:48:19Z</time></trkpt><trkpt lat="40.08497374918326" lon="9.510206500197173"><ele>470.0</ele><time>2026-03-28T11:48:20Z</time></trkpt><trkpt lat="40.085102253176565" lon="9.510146969389174"><ele>471.75</ele><time>2026-03-28T11:48:21Z</time></trkpt><trkpt lat="40.0852027534531" lon="9.510035777966634"><ele>473.5</ele><time>2026-03-28T11:48:22Z</time></trkpt><trkpt lat="40.08526906938378" lon="9.509874795405533"><ele>475.25</ele><time>2026-03-28T11:48:23Z</time></trkpt><trkpt lat="40.085325173189176" lon="9.50968012349066"><ele>477.0</ele><time>2026-03-28T11:48:24Z</time></trkpt><trkpt lat="40.08536658542832" lon="9.509474253276366"><ele>483.0</ele><time>2026-03-28T11:48:25Z</time></trkpt><trkpt lat="40.08541420141987" lon="9.509274310403649"><ele>489.0</ele><time>2026-03-28T11:48:26Z</time></trkpt><trkpt lat="40.08548298776374" lon="9.509076626075444"><ele>495.0</ele><time>2026-03-28T11:48:27Z</time></trkpt><trkpt lat="40.08559949464552" lon="9.508922642894614"><ele>495.0</ele><time>2026-03-28T11:48:28Z</time></trkpt><trkpt lat="40.08575490387816" lon="9.508838675460948"><ele>495.0</ele><time>2026-03-28T11:48:29Z</time></trkpt><trkpt lat="40.0859184917345" lon="9.508746683557387"><ele>495.0</ele><time>2026-03-28T11:48:30Z</time></trkpt><trkpt lat="40.0860931861635" lon="9.508689043976776"><ele>491.0</ele><time>2026-03-28T11:48:31Z</time></trkpt><trkpt lat="40.08625199832793" lon="9.50865920898101"><ele>487.0</ele><time>2026-03-28T11:48:32Z</time></trkpt><trkpt lat="40.08640637625758" lon="9.50869521652362"><ele>483.0</ele><time>2026-03-28T11:48:33Z</time></trkpt><trkpt lat="40.086566126207025" lon="9.50878983965614"><ele>483.66666666666663</ele><time>2026-03-28T11:48:34Z</time></trkpt><trkpt lat="40.08673139026584" lon="9.508917239234792"><ele>484.3333333333333</ele><time>2026-03-28T11:48:35Z</time></trkpt><trkpt lat="40.08689872264004" lon="9.50903218690163"><ele>485.0</ele><time>2026-03-28T11:48:36Z</time></trkpt><trkpt lat="40.08703987083052" lon="9.509124665105382"><ele>485.0</ele><time>2026-03-28T11:48:37Z</time></trkpt><trkpt lat="40.08717341805692" lon="9.509177223988914"><ele>485.0</ele><time>2026-03-28T11:48:38Z</time></trkpt><trkpt lat="40.08731350304275" lon="9.509168760518403"><ele>485.0</ele><time>2026-03-28T11:48:39Z</time></trkpt><trkpt lat="40.08745054634262" lon="9.509111663702855"><ele>485.0</ele><time>2026-03-28T11:48:40Z</time></trkpt><trkpt lat="40.08756849129699" lon="9.508957884237406"><ele>486.66666666666663</ele><time>2026-03-28T11:48:41Z</time></trkpt><trkpt lat="40.08769482618218" lon="9.508801703617529"><ele>488.33333333333337</ele><time>2026-03-28T11:48:42Z</time></trkpt><trkpt lat="40.08783169112288" lon="9.508633685511628"><ele>490.0</ele><time>2026-03-28T11:48:43Z</time></trkpt><trkpt lat="40.08796865629165" lon="9.508461094293365"><ele>496.6666666666667</ele><time>2026-03-28T11:48:44Z</time></trkpt><trkpt lat="40.08808477471546" lon="9.50826991338876"><ele>503.33333333333337</ele><time>2026-03-28T11:48:45Z</time></trkpt><trkpt lat="40.088203709814124" lon="9.508054166947844"><ele>510.0</ele><time>2026-03-28T11:48:46Z</time></trkpt><trkpt lat="40.088313313265175" lon="9.50782293136229"><ele>513.0</ele><time>2026-03-28T11:48:47Z</time></trkpt><trkpt lat="40.08842556441456" lon="9.507586110494401"><ele>516.0</ele><time>2026-03-28T11:48:48Z</time></trkpt><trkpt lat="40.08852865943094" lon="9.507335148004302"><ele>519.0</ele><time>2026-03-28T11:48:49Z</time></trkpt><trkpt lat="40.08864264901202" lon="9.507102819399723"><ele>524.6666666666666</ele><time>2026-03-28T11:48:50Z</time></trkpt><trkpt lat="40.08874854715231" lon="9.506887127345605"><ele>530.3333333333333</ele><time>2026-03-28T11:48:51Z</time></trkpt><trkpt lat="40.088861244426944" lon="9.50668762264566"><ele>536.0</ele><time>2026-03-28T11:48:52Z</time></trkpt><trkpt lat="40.088943810434436" lon="9.50647279481233"><ele>536.0</ele><time>2026-03-28T11:48:53Z</time></trkpt><trkpt lat="40.089012243624424" lon="9.506267236829252"><ele>536.0</ele><time>2026-03-28T11:48:54Z</time></trkpt><trkpt lat="40.0890711525803" lon="9.506074881495525"><ele>536.0</ele><time>2026-03-28T11:48:55Z</time></trkpt><trkpt lat="40.08913670151082" lon="9.50589523373059"><ele>533.0</ele><time>2026-03-28T11:48:56Z</time></trkpt><trkpt lat="40.089246240553855" lon="9.505775380050014"><ele>530.0</ele><time>2026-03-28T11:48:57Z</time></trkpt><trkpt lat="40.089369838284696" lon="9.505685812422207"><ele>527.0</ele><time>2026-03-28T11:48:58Z</time></trkpt><trkpt lat="40.08950714940896" lon="9.505585936102275"><ele>524.0</ele><time>2026-03-28T11:48:59Z</time></trkpt><trkpt lat="40.08966098386889" lon="9.505502680216843"><ele>524.0</ele><time>2026-03-28T11:49:00Z</time></trkpt><trkpt lat="40.089820772927915" lon="9.50541600253276"><ele>524.0</ele><time>2026-03-28T11:49:01Z</time></trkpt><trkpt lat="40.08997587431836" lon="9.505335275797998"><ele>524.0</ele><time>2026-03-28T11:49:02Z</time></trkpt><trkpt lat="40.09011296788153" lon="9.505241938753574"><ele>526.0</ele><time>2026-03-28T11:49:03Z</time></trkpt><trkpt lat="40.09022676233103" lon="9.505139509773322"><ele>528.0</ele><time>2026-03-28T11:49:04Z</time></trkpt><trkpt lat="40.09028979149606" lon="9.504956887419736"><ele>530.0</ele><time>2026-03-28T11:49:05Z</time></trkpt><trkpt lat="40.090359660900994" lon="9.504761749874465"><ele>535.0</ele><time>2026-03-28T11:49:06Z</time></trkpt><trkpt lat="40.09041240304104" lon="9.504565858838674"><ele>540.0</ele><time>2026-03-28T11:49:07Z</time></trkpt><trkpt lat="40.09045256194278" lon="9.50436605040471"><ele>545.0</ele><time>2026-03-28T11:49:08Z</time></trkpt><trkpt lat="40.09053444334651" lon="9.504200093864823"><ele>545.0</ele><time>2026-03-28T11:49:09Z</time></trkpt><trkpt lat="40.09062684266218" lon="9.504049985108864"><ele>545.0</ele><time>2026-03-28T11:49:10Z</time></trkpt><trkpt lat="40.09074767687298" lon="9.503914088407498"><ele>545.0</ele><time>2026-03-28T11:49:11Z</time></trkpt><trkpt lat="40.090870844213214" lon="9.503796560090596"><ele>545.8</ele><time>2026-03-28T11:49:12Z</time></trkpt><trkpt lat="40.09097717507248" lon="9.503716776887652"><ele>546.6</ele><time>2026-03-28T11:49:13Z</time></trkpt><trkpt lat="40.091081243148906" lon="9.503664170358757"><ele>547.4</ele><time>2026-03-28T11:49:14Z</time></trkpt><trkpt lat="40.09117772193673" lon="9.503667808156393"><ele>548.2</ele><time>2026-03-28T11:49:15Z</time></trkpt><trkpt lat="40.09126091993435" lon="9.503688749760991"><ele>549.0</ele><time>2026-03-28T11:49:16Z</time></trkpt><trkpt lat="40.091339837664734" lon="9.503711093875298"><ele>549.0</ele><time>2026-03-28T11:49:17Z</time></trkpt><trkpt lat="40.09142278495397" lon="9.50372896777613"><ele>549.0</ele><time>2026-03-28T11:49:18Z</time></trkpt><trkpt lat="40.0915088415307" lon="9.503746378845397"><ele>549.0</ele><time>2026-03-28T11:49:19Z</time></trkpt><trkpt lat="40.09159323469387" lon="9.503759288274368"><ele>549.0</ele><time>2026-03-28T11:49:20Z</time></trkpt><trkpt lat="40.09167453988998" lon="9.503767270866325"><ele>549.0</ele><time>2026-03-28T11:49:21Z</time></trkpt><trkpt lat="40.091757485207246" lon="9.503765036811659"><ele>549.0</ele><time>2026-03-28T11:49:22Z</time></trkpt><trkpt lat="40.09184263495359" lon="9.503738562930991"><ele>549.0</ele><time>2026-03-28T11:49:23Z</time></trkpt><trkpt lat="40.09192641506523" lon="9.503681202334315"><ele>549.0</ele><time>2026-03-28T11:49:24Z</time></trkpt><trkpt lat="40.092007788895906" lon="9.503605261568621"><ele>549.0</ele><time>2026-03-28T11:49:25Z</time></trkpt><trkpt lat="40.092089063880145" lon="9.503516689310622"><ele>549.0</ele><time>2026-03-28T11:49:26Z</time></trkpt><trkpt lat="40.092190880256716" lon="9.503455260763984"><ele>549.0</ele><time>2026-03-28T11:49:27Z</time></trkpt><trkpt lat="40.09226451709513" lon="9.503370901613948"><ele>549.0</ele><time>2026-03-28T11:49:28Z</time></trkpt><trkpt lat="40.092326074979454" lon="9.50328856312725"><ele>549.0</ele><time>2026-03-28T11:49:29Z</time></trkpt><trkpt lat="40.092392509489386" lon="9.503233154700727"><ele>549.0</ele><time>2026-03-28T11:49:30Z</time></trkpt><trkpt lat="40.09247441912411" lon="9.503244735906984"><ele>549.0</ele><time>2026-03-28T11:49:31Z</time></trkpt><trkpt lat="40.09254710350468" lon="9.503306104582304"><ele>549.0</ele><time>2026-03-28T11:49:32Z</time></trkpt><trkpt lat="40.092588826310944" lon="9.503413310669899"><ele>549.0</ele><time>2026-03-28T11:49:33Z</time></trkpt><trkpt lat="40.092579940552476" lon="9.503534971973163"><ele>549.0</ele><time>2026-03-28T11:49:34Z</time></trkpt><trkpt lat="40.09256144871094" lon="9.503666696713687"><ele>549.0</ele><time>2026-03-28T11:49:35Z</time></trkpt><trkpt lat="40.09255173079034" lon="9.503797550599531"><ele>549.0</ele><time>2026-03-28T11:49:36Z</time></trkpt><trkpt lat="40.09253669075747" lon="9.50392419290004"><ele>549.0</ele><time>2026-03-28T11:49:37Z</time></trkpt><trkpt lat="40.09248997500213" lon="9.504038463688874"><ele>549.0</ele><time>2026-03-28T11:49:38Z</time></trkpt><trkpt lat="40.09241279522104" lon="9.50412686064229"><ele>546.8</ele><time>2026-03-28T11:49:39Z</time></trkpt><trkpt lat="40.09232260039866" lon="9.504188916056815"><ele>544.5999999999999</ele><time>2026-03-28T11:49:40Z</time></trkpt><trkpt lat="40.09223325491208" lon="9.504263668781556"><ele>542.4</ele><time>2026-03-28T11:49:41Z</time></trkpt><trkpt lat="40.09215831487249" lon="9.504363607735495"><ele>540.1999999999999</ele><time>2026-03-28T11:49:42Z</time></trkpt><trkpt lat="40.09210267377662" lon="9.504490205424226"><ele>538.0</ele><time>2026-03-28T11:49:43Z</time></trkpt><trkpt lat="40.09206952311834" lon="9.504634922587806"><ele>537.1999999999999</ele><time>2026-03-28T11:49:44Z</time></trkpt><trkpt lat="40.09203905378619" lon="9.504782785094294"><ele>536.4</ele><time>2026-03-28T11:49:45Z</time></trkpt><trkpt lat="40.092005919296874" lon="9.504929755205982"><ele>535.5999999999999</ele><time>2026-03-28T11:49:46Z</time></trkpt><trkpt lat="40.09198037284812" lon="9.505069230840428"><ele>534.8</ele><time>2026-03-28T11:49:47Z</time></trkpt><trkpt lat="40.091965596416784" lon="9.505194448461747"><ele>534.0</ele><time>2026-03-28T11:49:48Z</time></trkpt><trkpt lat="40.09198627759929" lon="9.505303084806197"><ele>534.0</ele><time>2026-03-28T11:49:49Z</time></trkpt><trkpt lat="40.092050890057436" lon="9.505375078723587"><ele>534.0</ele><time>2026-03-28T11:49:50Z</time></trkpt><trkpt lat="40.09213165063066" lon="9.505395057516493"><ele>534.0</ele><time>2026-03-28T11:49:51Z</time></trkpt><trkpt lat="40.09221592290187" lon="9.505379699819521"><ele>534.0</ele><time>2026-03-28T11:49:52Z</time></trkpt><trkpt lat="40.092307440758255" lon="9.505350209918792"><ele>534.0</ele><time>2026-03-28T11:49:53Z</time></trkpt><trkpt lat="40.09240497524947" lon="9.505321549891978"><ele>534.0</ele><time>2026-03-28T11:49:54Z</time></trkpt><trkpt lat="40.09250367684047" lon="9.505294819394791"><ele>536.4</ele><time>2026-03-28T11:49:55Z</time></trkpt><trkpt lat="40.09259708378802" lon="9.505264749605207"><ele>538.8</ele><time>2026-03-28T11:49:56Z</time></trkpt><trkpt lat="40.09269136699867" lon="9.505244202612023"><ele>541.2</ele><time>2026-03-28T11:49:57Z</time></trkpt><trkpt lat="40.09278455090644" lon="9.505244488014448"><ele>543.6</ele><time>2026-03-28T11:49:58Z</time></trkpt><trkpt lat="40.09287462505513" lon="9.50527728031061"><ele>546.0</ele><time>2026-03-28T11:49:59Z</time></trkpt><trkpt lat="40.09296107600736" lon="9.505330185399941"><ele>546.0</ele><time>2026-03-28T11:50:00Z</time></trkpt><trkpt lat="40.09304607544039" lon="9.505389560423383"><ele>546.0</ele><time>2026-03-28T11:50:01Z</time></trkpt><trkpt lat="40.09313637014565" lon="9.505444284399134"><ele>546.0</ele><time>2026-03-28T11:50:02Z</time></trkpt><trkpt lat="40.09322943623054" lon="9.505494024286094"><ele>546.0</ele><time>2026-03-28T11:50:03Z</time></trkpt><trkpt lat="40.0933233307493" lon="9.505543145689431"><ele>546.0</ele><time>2026-03-28T11:50:04Z</time></trkpt><trkpt lat="40.09341962293564" lon="9.505577916630058"><ele>544.0</ele><time>2026-03-28T11:50:05Z</time></trkpt><trkpt lat="40.09351912654088" lon="9.505589314887642"><ele>542.0</ele><time>2026-03-28T11:50:06Z</time></trkpt><trkpt lat="40.09361747312539" lon="9.505577789617174"><ele>540.0</ele><time>2026-03-28T11:50:07Z</time></trkpt><trkpt lat="40.09371281850267" lon="9.505551276396238"><ele>538.0</ele><time>2026-03-28T11:50:08Z</time></trkpt><trkpt lat="40.09380701925919" lon="9.505526174138202"><ele>536.0</ele><time>2026-03-28T11:50:09Z</time></trkpt><trkpt lat="40.093903223718826" lon="9.505508842839694"><ele>536.0</ele><time>2026-03-28T11:50:10Z</time></trkpt><trkpt lat="40.093999069280066" lon="9.505507540723134"><ele>536.0</ele><time>2026-03-28T11:50:11Z</time></trkpt><trkpt lat="40.09408522762866" lon="9.505545051337954"><ele>536.0</ele><time>2026-03-28T11:50:12Z</time></trkpt><trkpt lat="40.094149146245215" lon="9.505624668185023"><ele>536.0</ele><time>2026-03-28T11:50:13Z</time></trkpt><trkpt lat="40.094174293186" lon="9.505733112977211"><ele>536.0</ele><time>2026-03-28T11:50:14Z</time></trkpt><trkpt lat="40.0941490274258" lon="9.505855910289938"><ele>536.0</ele><time>2026-03-28T11:50:15Z</time></trkpt><trkpt lat="40.09410847947596" lon="9.50596059210146"><ele>536.0</ele><time>2026-03-28T11:50:16Z</time></trkpt><trkpt lat="40.094076475357085" lon="9.506076538304626"><ele>536.0</ele><time>2026-03-28T11:50:17Z</time></trkpt><trkpt lat="40.09404251378342" lon="9.50618568789752"><ele>536.0</ele><time>2026-03-28T11:50:18Z</time></trkpt><trkpt lat="40.09401117251538" lon="9.506293298214235"><ele>536.0</ele><time>2026-03-28T11:50:19Z</time></trkpt><trkpt lat="40.09398208622108" lon="9.506399745070658"><ele>536.0</ele><time>2026-03-28T11:50:20Z</time></trkpt><trkpt lat="40.09395138075528" lon="9.506499445789911"><ele>534.1666666666666</ele><time>2026-03-28T11:50:21Z</time></trkpt><trkpt lat="40.093920234693336" lon="9.506593975022701"><ele>532.3333333333333</ele><time>2026-03-28T11:50:22Z</time></trkpt><trkpt lat="40.093898634254145" lon="9.506691942476822"><ele>530.5</ele><time>2026-03-28T11:50:23Z</time></trkpt><trkpt lat="40.09388141237628" lon="9.50680080491971"><ele>528.6666666666666</ele><time>2026-03-28T11:50:24Z</time></trkpt><trkpt lat="40.093870591387585" lon="9.506916235606727"><ele>526.8333333333334</ele><time>2026-03-28T11:50:25Z</time></trkpt><trkpt lat="40.093866786028705" lon="9.507040325711193"><ele>525.0</ele><time>2026-03-28T11:50:26Z</time></trkpt><trkpt lat="40.09386947646739" lon="9.50716906430234"><ele>524.6</ele><time>2026-03-28T11:50:27Z</time></trkpt><trkpt lat="40.09387758588932" lon="9.507297939944044"><ele>524.2</ele><time>2026-03-28T11:50:28Z</time></trkpt><trkpt lat="40.09388081354164" lon="9.507427475476684"><ele>523.8</ele><time>2026-03-28T11:50:29Z</time></trkpt><trkpt lat="40.09387630303212" lon="9.507556835134244"><ele>523.4</ele><time>2026-03-28T11:50:30Z</time></trkpt><trkpt lat="40.09386623451323" lon="9.507684678950037"><ele>523.0</ele><time>2026-03-28T11:50:31Z</time></trkpt><trkpt lat="40.09386248495109" lon="9.507813232013202"><ele>522.1999999999999</ele><time>2026-03-28T11:50:32Z</time></trkpt><trkpt lat="40.093868243847524" lon="9.507943873517695"><ele>521.4</ele><time>2026-03-28T11:50:33Z</time></trkpt><trkpt lat="40.09388299070275" lon="9.508074228263768"><ele>520.5999999999999</ele><time>2026-03-28T11:50:34Z</time></trkpt><trkpt lat="40.093919863797574" lon="9.508196887708152"><ele>519.8</ele><time>2026-03-28T11:50:35Z</time></trkpt><trkpt lat="40.09398593833595" lon="9.508298804179441"><ele>519.0</ele><time>2026-03-28T11:50:36Z</time></trkpt><trkpt lat="40.09407485311928" lon="9.508363058934394"><ele>522.0</ele><time>2026-03-28T11:50:37Z</time></trkpt><trkpt lat="40.09417712772903" lon="9.508370339231421"><ele>525.0</ele><time>2026-03-28T11:50:38Z</time></trkpt><trkpt lat="40.094271371010066" lon="9.508320547476446"><ele>528.0</ele><time>2026-03-28T11:50:39Z</time></trkpt><trkpt lat="40.094360344287225" lon="9.508255971169744"><ele>531.0</ele><time>2026-03-28T11:50:40Z</time></trkpt><trkpt lat="40.094450653153494" lon="9.508221854175083"><ele>534.0</ele><time>2026-03-28T11:50:41Z</time></trkpt><trkpt lat="40.094541415561075" lon="9.508222058443923"><ele>534.0</ele><time>2026-03-28T11:50:42Z</time></trkpt><trkpt lat="40.09463155250698" lon="9.508239528693094"><ele>534.0</ele><time>2026-03-28T11:50:43Z</time></trkpt><trkpt lat="40.09471892399376" lon="9.508282118455876"><ele>534.0</ele><time>2026-03-28T11:50:44Z</time></trkpt><trkpt lat="40.09479138910559" lon="9.50836045699999"><ele>534.0</ele><time>2026-03-28T11:50:45Z</time></trkpt><trkpt lat="40.09483682048841" lon="9.50846884829196"><ele>534.0</ele><time>2026-03-28T11:50:46Z</time></trkpt><trkpt lat="40.094849976598" lon="9.508584225344292"><ele>534.0</ele><time>2026-03-28T11:50:47Z</time></trkpt><trkpt lat="40.09484620819655" lon="9.508695336215046"><ele>534.0</ele><time>2026-03-28T11:50:48Z</time></trkpt><trkpt lat="40.094824093908954" lon="9.508801200095228"><ele>534.0</ele><time>2026-03-28T11:50:49Z</time></trkpt><trkpt lat="40.094787835921615" lon="9.508903077545263"><ele>534.0</ele><time>2026-03-28T11:50:50Z</time></trkpt><trkpt lat="40.09476095632845" lon="9.509009117096381"><ele>534.0</ele><time>2026-03-28T11:50:51Z</time></trkpt><trkpt lat="40.09474631074779" lon="9.509112784164538"><ele>534.0</ele><time>2026-03-28T11:50:52Z</time></trkpt><trkpt lat="40.09473939498539" lon="9.50921777532839"><ele>532.6666666666666</ele><time>2026-03-28T11:50:53Z</time></trkpt><trkpt lat="40.09473976338532" lon="9.509319590813805"><ele>531.3333333333334</ele><time>2026-03-28T11:50:54Z</time></trkpt><trkpt lat="40.09474142914805" lon="9.509425956758903"><ele>530.0</ele><time>2026-03-28T11:50:55Z</time></trkpt><trkpt lat="40.09473678441219" lon="9.50953506750059"><ele>528.6666666666667</ele><time>2026-03-28T11:50:56Z</time></trkpt><trkpt lat="40.094729663498434" lon="9.509647943030393"><ele>527.3333333333334</ele><time>2026-03-28T11:50:57Z</time></trkpt><trkpt lat="40.094716335007504" lon="9.509761316220763"><ele>526.0</ele><time>2026-03-28T11:50:58Z</time></trkpt><trkpt lat="40.094702981856614" lon="9.509866670454644"><ele>526.0</ele><time>2026-03-28T11:50:59Z</time></trkpt><trkpt lat="40.094695512193724" lon="9.50996645233176"><ele>526.0</ele><time>2026-03-28T11:51:00Z</time></trkpt><trkpt lat="40.09469506448319" lon="9.510053006878273"><ele>526.0</ele><time>2026-03-28T11:51:01Z</time></trkpt><trkpt lat="40.094710265292186" lon="9.510180447148652"><ele>526.0</ele><time>2026-03-28T11:51:03Z</time></trkpt><trkpt lat="40.09474504642488" lon="9.510249101381296"><ele>526.0</ele><time>2026-03-28T11:51:06Z</time></trkpt><trkpt lat="40.094790008973135" lon="9.5103181305598"><ele>526.0</ele><time>2026-03-28T11:51:17Z</time></trkpt><trkpt lat="40.094843931702435" lon="9.51037302136821"><ele>526.0</ele><time>2026-03-28T11:51:19Z</time></trkpt><trkpt lat="40.09491374148641" lon="9.51042691216957"><ele>528.1666666666667</ele><time>2026-03-28T11:51:21Z</time></trkpt><trkpt lat="40.09499759417837" lon="9.510487255810457"><ele>530.3333333333334</ele><time>2026-03-28T11:51:23Z</time></trkpt><trkpt lat="40.095056087179266" lon="9.510579876765085"><ele>532.5</ele><time>2026-03-28T11:51:26Z</time></trkpt><trkpt lat="40.095096806291956" lon="9.510681164195363"><ele>534.6666666666666</ele><time>2026-03-28T11:51:28Z</time></trkpt><trkpt lat="40.09512032182752" lon="9.510771696106682"><ele>536.8333333333333</ele><time>2026-03-28T11:51:31Z</time></trkpt><trkpt lat="40.095114210858334" lon="9.510687752361994"><ele>539.0</ele><time>2026-03-28T11:51:41Z</time></trkpt><trkpt lat="40.095096291270266" lon="9.510583765409908"><ele>539.0</ele><time>2026-03-28T11:51:43Z</time></trkpt><trkpt lat="40.09502575766924" lon="9.510494920810386"><ele>539.0</ele><time>2026-03-28T11:51:45Z</time></trkpt><trkpt lat="40.094961903245" lon="9.510445534602015"><ele>539.0</ele><time>2026-03-28T11:51:47Z</time></trkpt><trkpt lat="40.09489145494042" lon="9.510410696227712"><ele>539.0</ele><time>2026-03-28T11:51:51Z</time></trkpt><trkpt lat="40.094793090607745" lon="9.510329720593193"><ele>539.0</ele><time>2026-03-28T11:56:01Z</time></trkpt><trkpt lat="40.09485227694349" lon="9.51036276163541"><ele>539.0</ele><time>2026-03-28T11:56:22Z</time></trkpt><trkpt lat="40.094911699638125" lon="9.51039993034716"><ele>539.0</ele><time>2026-03-28T11:56:31Z</time></trkpt><trkpt lat="40.094964306896316" lon="9.510446296213013"><ele>539.0</ele><time>2026-03-28T11:56:41Z</time></trkpt><trkpt lat="40.095015849924806" lon="9.51049682971681"><ele>539.0</ele><time>2026-03-28T11:56:48Z</time></trkpt><trkpt lat="40.094935107831986" lon="9.510577321824313"><ele>539.0</ele><time>2026-03-28T11:58:20.726Z</time></trkpt><trkpt lat="40.09498105422912" lon="9.510639258879046"><ele>539.0</ele><time>2026-03-28T11:58:26.4Z</time></trkpt><trkpt lat="40.095021385550616" lon="9.51057347803267"><ele>539.0</ele><time>2026-03-28T11:58:28.3Z</time></trkpt><trkpt lat="40.0950660357458" lon="9.510506370524489"><ele>539.0</ele><time>2026-03-28T11:58:33.05Z</time></trkpt><trkpt lat="40.09515129326376" lon="9.5103924341974"><ele>539.0</ele><time>2026-03-28T12:11:59Z</time></trkpt><trkpt lat="40.0951030521836" lon="9.510450700597454"><ele>539.0</ele><time>2026-03-28T12:12:35Z</time></trkpt><trkpt lat="40.09521916153004" lon="9.51031989278202"><ele>539.0</ele><time>2026-03-28T13:21:58Z</time></trkpt><trkpt lat="40.09515103152108" lon="9.510378526567356"><ele>539.0</ele><time>2026-03-28T13:22:04Z</time></trkpt><trkpt lat="40.095098758428094" lon="9.510430221496298"><ele>539.0</ele><time>2026-03-28T13:22:08Z</time></trkpt><trkpt lat="40.095035573587005" lon="9.510435126141294"><ele>539.0</ele><time>2026-03-28T13:22:11Z</time></trkpt><trkpt lat="40.09502198930583" lon="9.510344624908523"><ele>539.0</ele><time>2026-03-28T13:22:16Z</time></trkpt><trkpt lat="40.095043667115384" lon="9.510260046005188"><ele>539.0</ele><time>2026-03-28T13:22:19Z</time></trkpt><trkpt lat="40.0951131654112" lon="9.510266137372055"><ele>539.0</ele><time>2026-03-28T13:22:22.3Z</time></trkpt><trkpt lat="40.095206640678846" lon="9.510325735747257"><ele>539.0</ele><time>2026-03-28T13:22:24.1Z</time></trkpt><trkpt lat="40.09525095366209" lon="9.510440138828882"><ele>539.0</ele><time>2026-03-28T13:22:27Z</time></trkpt><trkpt lat="40.095161835204976" lon="9.510502500905842"><ele>539.0</ele><time>2026-03-28T13:22:31Z</time></trkpt><trkpt lat="40.09508026433304" lon="9.510489462929415"><ele>539.0</ele><time>2026-03-28T13:22:32Z</time></trkpt><trkpt lat="40.095016488103184" lon="9.510498062910948"><ele>539.0</ele><time>2026-03-28T13:22:43Z</time></trkpt><trkpt lat="40.09495701534019" lon="9.510459181813893"><ele>539.0</ele><time>2026-03-28T13:22:52Z</time></trkpt><trkpt lat="40.09490877118807" lon="9.510405437062321"><ele>539.0</ele><time>2026-03-28T13:22:59Z</time></trkpt><trkpt lat="40.094844545583875" lon="9.510369915232943"><ele>539.0</ele><time>2026-03-28T13:23:06Z</time></trkpt><trkpt lat="40.09478636838803" lon="9.510330893355988"><ele>539.0</ele><time>2026-03-28T13:24:09Z</time></trkpt><trkpt lat="40.094737740094985" lon="9.510265536775758"><ele>539.0</ele><time>2026-03-28T13:28:45Z</time></trkpt><trkpt lat="40.0947269123999" lon="9.51017992972808"><ele>536.8333333333333</ele><time>2026-03-28T13:28:50Z</time></trkpt><trkpt lat="40.094718477377626" lon="9.51003860896489"><ele>534.6666666666666</ele><time>2026-03-28T13:28:52Z</time></trkpt><trkpt lat="40.09474417792618" lon="9.509892927864945"><ele>532.5</ele><time>2026-03-28T13:28:54Z</time></trkpt><trkpt lat="40.094738890681185" lon="9.509804683372959"><ele>530.3333333333334</ele><time>2026-03-28T13:28:55Z</time></trkpt><trkpt lat="40.09476099602603" lon="9.509715246916096"><ele>528.1666666666667</ele><time>2026-03-28T13:28:56Z</time></trkpt><trkpt lat="40.09476659874796" lon="9.509626058890593"><ele>526.0</ele><time>2026-03-28T13:28:57Z</time></trkpt><trkpt lat="40.094771966591985" lon="9.509537090481183"><ele>526.0</ele><time>2026-03-28T13:28:58Z</time></trkpt><trkpt lat="40.094775846154036" lon="9.509444573705297"><ele>526.0</ele><time>2026-03-28T13:28:59Z</time></trkpt><trkpt lat="40.09477983092975" lon="9.509349547419061"><ele>526.0</ele><time>2026-03-28T13:29:00Z</time></trkpt><trkpt lat="40.09477023740962" lon="9.50925170984011"><ele>526.0</ele><time>2026-03-28T13:29:01Z</time></trkpt><trkpt lat="40.09477897584583" lon="9.509155778214211"><ele>526.0</ele><time>2026-03-28T13:29:02Z</time></trkpt><trkpt lat="40.094787983023444" lon="9.509060744279461"><ele>526.0</ele><time>2026-03-28T13:29:03Z</time></trkpt><trkpt lat="40.09480652373075" lon="9.5089672618605"><ele>526.0</ele><time>2026-03-28T13:29:04Z</time></trkpt><trkpt lat="40.09483096701432" lon="9.50887649887197"><ele>526.0</ele><time>2026-03-28T13:29:05Z</time></trkpt><trkpt lat="40.094854179655485" lon="9.508788243136005"><ele>526.0</ele><time>2026-03-28T13:29:06Z</time></trkpt><trkpt lat="40.09487369801949" lon="9.508696102252806"><ele>526.0</ele><time>2026-03-28T13:29:07Z</time></trkpt><trkpt lat="40.094881154753395" lon="9.50860308373004"><ele>526.0</ele><time>2026-03-28T13:29:08Z</time></trkpt><trkpt lat="40.09490234333723" lon="9.508511658786388"><ele>526.0</ele><time>2026-03-28T13:29:09Z</time></trkpt><trkpt lat="40.09488141127317" lon="9.50840751496564"><ele>526.0</ele><time>2026-03-28T13:29:10Z</time></trkpt><trkpt lat="40.094837271914336" lon="9.508317185311146"><ele>527.3333333333334</ele><time>2026-03-28T13:29:11Z</time></trkpt><trkpt lat="40.09476975665115" lon="9.508249649209887"><ele>528.6666666666667</ele><time>2026-03-28T13:29:12Z</time></trkpt><trkpt lat="40.094694534761615" lon="9.508229057535145"><ele>530.0</ele><time>2026-03-28T13:29:13Z</time></trkpt><trkpt lat="40.09462155093077" lon="9.50820730073698"><ele>531.3333333333334</ele><time>2026-03-28T13:29:14Z</time></trkpt><trkpt lat="40.09454482090537" lon="9.508195591303554"><ele>532.6666666666666</ele><time>2026-03-28T13:29:15Z</time></trkpt><trkpt lat="40.094465583275415" lon="9.508198503579601"><ele>534.0</ele><time>2026-03-28T13:29:16Z</time></trkpt><trkpt lat="40.09438824796767" lon="9.508220529728181"><ele>534.0000000000001</ele><time>2026-03-28T13:29:17Z</time></trkpt><trkpt lat="40.09431696304969" lon="9.508260937616893"><ele>534.0</ele><time>2026-03-28T13:29:18Z</time></trkpt><trkpt lat="40.09424911755175" lon="9.50829961002653"><ele>534.0</ele><time>2026-03-28T13:29:19Z</time></trkpt><trkpt lat="40.094174972278736" lon="9.508322600473129"><ele>534.0</ele><time>2026-03-28T13:29:20Z</time></trkpt><trkpt lat="40.094100654633536" lon="9.508325279539202"><ele>534.0</ele><time>2026-03-28T13:29:21Z</time></trkpt><trkpt lat="40.094034672194795" lon="9.508291603962082"><ele>534.0000000000001</ele><time>2026-03-28T13:29:22Z</time></trkpt><trkpt lat="40.093986793460985" lon="9.508219192837647"><ele>534.0</ele><time>2026-03-28T13:29:23Z</time></trkpt><trkpt lat="40.0939465335207" lon="9.508132379756686"><ele>532.1666666666666</ele><time>2026-03-28T13:29:24Z</time></trkpt><trkpt lat="40.09391646288571" lon="9.50804228838889"><ele>530.3333333333334</ele><time>2026-03-28T13:29:25Z</time></trkpt><trkpt lat="40.09391731402014" lon="9.507937788191535"><ele>528.5</ele><time>2026-03-28T13:29:26Z</time></trkpt><trkpt lat="40.093894421488024" lon="9.507838565575138"><ele>526.6666666666667</ele><time>2026-03-28T13:29:27Z</time></trkpt><trkpt lat="40.09390176107042" lon="9.507736293377786"><ele>524.8333333333334</ele><time>2026-03-28T13:29:28Z</time></trkpt><trkpt lat="40.09390782767542" lon="9.507629130680726"><ele>523.0</ele><time>2026-03-28T13:29:29Z</time></trkpt><trkpt lat="40.093928532811304" lon="9.50751784982466"><ele>523.0</ele><time>2026-03-28T13:29:30Z</time></trkpt><trkpt lat="40.09391083975637" lon="9.507401772463762"><ele>523.0</ele><time>2026-03-28T13:29:31Z</time></trkpt><trkpt lat="40.09390282971372" lon="9.507280745123987"><ele>523.0</ele><time>2026-03-28T13:29:32Z</time></trkpt><trkpt lat="40.093892777528495" lon="9.507156360969853"><ele>523.0</ele><time>2026-03-28T13:29:33Z</time></trkpt><trkpt lat="40.09388732318261" lon="9.50702955356557"><ele>523.0</ele><time>2026-03-28T13:29:34Z</time></trkpt><trkpt lat="40.09389384744886" lon="9.50690363190891"><ele>523.4</ele><time>2026-03-28T13:29:35Z</time></trkpt><trkpt lat="40.09390748256105" lon="9.506783591203401"><ele>523.8</ele><time>2026-03-28T13:29:36Z</time></trkpt><trkpt lat="40.093924363641285" lon="9.506668266217511"><ele>524.2</ele><time>2026-03-28T13:29:37Z</time></trkpt><trkpt lat="40.093953474658" lon="9.506557368218385"><ele>524.6</ele><time>2026-03-28T13:29:38Z</time></trkpt><trkpt lat="40.09399106649111" lon="9.506450386484712"><ele>525.0</ele><time>2026-03-28T13:29:39Z</time></trkpt><trkpt lat="40.09402846516133" lon="9.506336491047154"><ele>527.2</ele><time>2026-03-28T13:29:40Z</time></trkpt><trkpt lat="40.094062005484034" lon="9.506219687257891"><ele>529.4</ele><time>2026-03-28T13:29:41Z</time></trkpt><trkpt lat="40.09409775670535" lon="9.50610264811077"><ele>531.6</ele><time>2026-03-28T13:29:42Z</time></trkpt><trkpt lat="40.094134685659775" lon="9.505985729898791"><ele>533.8</ele><time>2026-03-28T13:29:43Z</time></trkpt><trkpt lat="40.09416719739678" lon="9.50586816564037"><ele>536.0</ele><time>2026-03-28T13:29:44Z</time></trkpt><trkpt lat="40.09419082251843" lon="9.505761440546992"><ele>536.0</ele><time>2026-03-28T13:29:45Z</time></trkpt><trkpt lat="40.094198467465375" lon="9.50566276894034"><ele>536.0</ele><time>2026-03-28T13:29:46Z</time></trkpt><trkpt lat="40.094200849398675" lon="9.505570849021348"><ele>536.0</ele><time>2026-03-28T13:29:47Z</time></trkpt><trkpt lat="40.09413408265193" lon="9.505502168615045"><ele>536.0</ele><time>2026-03-28T13:29:48Z</time></trkpt><trkpt lat="40.09406550614533" lon="9.505461265201347"><ele>536.0</ele><time>2026-03-28T13:29:49Z</time></trkpt><trkpt lat="40.09398769764252" lon="9.505451170393698"><ele>536.0</ele><time>2026-03-28T13:29:50Z</time></trkpt><trkpt lat="40.09390856700475" lon="9.505471809652882"><ele>536.0</ele><time>2026-03-28T13:29:51Z</time></trkpt><trkpt lat="40.09382885654705" lon="9.50550132987258"><ele>536.0</ele><time>2026-03-28T13:29:52Z</time></trkpt><trkpt lat="40.093752250196516" lon="9.505522915637503"><ele>536.0</ele><time>2026-03-28T13:29:53Z</time></trkpt><trkpt lat="40.093677766136395" lon="9.505536054510966"><ele>536.0</ele><time>2026-03-28T13:29:54Z</time></trkpt><trkpt lat="40.09359850148274" lon="9.505544605642273"><ele>536.0</ele><time>2026-03-28T13:29:55Z</time></trkpt><trkpt lat="40.093517363138844" lon="9.505547859076225"><ele>536.0</ele><time>2026-03-28T13:29:56Z</time></trkpt><trkpt lat="40.093432694566665" lon="9.505539036511884"><ele>536.0</ele><time>2026-03-28T13:29:57Z</time></trkpt><trkpt lat="40.09335121822453" lon="9.50551089020804"><ele>536.0</ele><time>2026-03-28T13:29:58Z</time></trkpt><trkpt lat="40.09327275018886" lon="9.505466799152652"><ele>536.0</ele><time>2026-03-28T13:29:59Z</time></trkpt><trkpt lat="40.09319400398648" lon="9.505421820864765"><ele>536.0</ele><time>2026-03-28T13:30:00Z</time></trkpt><trkpt lat="40.09311572187103" lon="9.50537699215472"><ele>536.0</ele><time>2026-03-28T13:30:01Z</time></trkpt><trkpt lat="40.09303870192439" lon="9.5053306601173"><ele>536.0</ele><time>2026-03-28T13:30:02Z</time></trkpt><trkpt lat="40.09296396965157" lon="9.505283419429652"><ele>537.6666666666666</ele><time>2026-03-28T13:30:03Z</time></trkpt><trkpt lat="40.09289090351203" lon="9.505240548361076"><ele>539.3333333333333</ele><time>2026-03-28T13:30:04Z</time></trkpt><trkpt lat="40.09280874062627" lon="9.505219114805726"><ele>541.0</ele><time>2026-03-28T13:30:05Z</time></trkpt><trkpt lat="40.09272731075969" lon="9.505223833072348"><ele>542.6666666666666</ele><time>2026-03-28T13:30:06Z</time></trkpt><trkpt lat="40.092644451163736" lon="9.505242033821862"><ele>544.3333333333334</ele><time>2026-03-28T13:30:07Z</time></trkpt><trkpt lat="40.09255960963242" lon="9.505260717821841"><ele>546.0</ele><time>2026-03-28T13:30:08Z</time></trkpt><trkpt lat="40.0924730970744" lon="9.505281505318196"><ele>544.0</ele><time>2026-03-28T13:30:09Z</time></trkpt><trkpt lat="40.09238669165749" lon="9.50530684817781"><ele>542.0</ele><time>2026-03-28T13:30:10Z</time></trkpt><trkpt lat="40.092300728501456" lon="9.505330382914186"><ele>540.0</ele><time>2026-03-28T13:30:11Z</time></trkpt><trkpt lat="40.092213481472754" lon="9.505346458795156"><ele>538.0</ele><time>2026-03-28T13:30:12Z</time></trkpt><trkpt lat="40.09212782019696" lon="9.505343097413693"><ele>536.0</ele><time>2026-03-28T13:30:13Z</time></trkpt><trkpt lat="40.09205292947672" lon="9.505297650435256"><ele>534.0</ele><time>2026-03-28T13:30:14Z</time></trkpt><trkpt lat="40.09200750189731" lon="9.505212666387314"><ele>534.0</ele><time>2026-03-28T13:30:15Z</time></trkpt><trkpt lat="40.09200224044524" lon="9.505111131268773"><ele>534.0</ele><time>2026-03-28T13:30:16Z</time></trkpt><trkpt lat="40.09202868519379" lon="9.505012553211792"><ele>534.0</ele><time>2026-03-28T13:30:17Z</time></trkpt><trkpt lat="40.09205392013978" lon="9.504909372988005"><ele>534.0</ele><time>2026-03-28T13:30:18Z</time></trkpt><trkpt lat="40.09207673700389" lon="9.504798512970458"><ele>534.0</ele><time>2026-03-28T13:30:19Z</time></trkpt><trkpt lat="40.09210254207653" lon="9.504683962476589"><ele>534.0</ele><time>2026-03-28T13:30:20Z</time></trkpt><trkpt lat="40.09213086232014" lon="9.50456560609381"><ele>534.8</ele><time>2026-03-28T13:30:21Z</time></trkpt><trkpt lat="40.09216784248013" lon="9.504445667203901"><ele>535.5999999999999</ele><time>2026-03-28T13:30:22Z</time></trkpt><trkpt lat="40.092221621080974" lon="9.504333239912253"><ele>536.4</ele><time>2026-03-28T13:30:23Z</time></trkpt><trkpt lat="40.092296601319" lon="9.504242865474884"><ele>537.1999999999999</ele><time>2026-03-28T13:30:24Z</time></trkpt><trkpt lat="40.09238277343683" lon="9.504171598899386"><ele>538.0</ele><time>2026-03-28T13:30:25Z</time></trkpt><trkpt lat="40.092465044169366" lon="9.504105475512958"><ele>540.1999999999999</ele><time>2026-03-28T13:30:26Z</time></trkpt><trkpt lat="40.09253005400722" lon="9.504019198774381"><ele>542.4</ele><time>2026-03-28T13:30:27Z</time></trkpt><trkpt lat="40.09258916201108" lon="9.503925295686981"><ele>544.5999999999999</ele><time>2026-03-28T13:30:28Z</time></trkpt><trkpt lat="40.092594828318695" lon="9.503797765153493"><ele>546.8</ele><time>2026-03-28T13:30:29Z</time></trkpt><trkpt lat="40.092606524272185" lon="9.503676055782543"><ele>549.0</ele><time>2026-03-28T13:30:30Z</time></trkpt><trkpt lat="40.09260802379809" lon="9.503552973654724"><ele>549.0</ele><time>2026-03-28T13:30:31Z</time></trkpt><trkpt lat="40.09260727315245" lon="9.50343394881339"><ele>549.0</ele><time>2026-03-28T13:30:32Z</time></trkpt><trkpt lat="40.092606145411835" lon="9.503327305705168"><ele>549.0</ele><time>2026-03-28T13:30:33Z</time></trkpt><trkpt lat="40.09254102766495" lon="9.503251671606302"><ele>549.0</ele><time>2026-03-28T13:30:34Z</time></trkpt><trkpt lat="40.0924655962202" lon="9.503202951188454"><ele>549.0</ele><time>2026-03-28T13:30:35Z</time></trkpt><trkpt lat="40.092376642933246" lon="9.503202244350689"><ele>549.0</ele><time>2026-03-28T13:30:36Z</time></trkpt><trkpt lat="40.09229474690527" lon="9.503249969236494"><ele>549.0</ele><time>2026-03-28T13:30:37Z</time></trkpt><trkpt lat="40.09222639092091" lon="9.503332881869293"><ele>549.0</ele><time>2026-03-28T13:30:38Z</time></trkpt><trkpt lat="40.092161581786385" lon="9.503425327726676"><ele>549.0</ele><time>2026-03-28T13:30:39Z</time></trkpt><trkpt lat="40.092087693019394" lon="9.503497596283685"><ele>549.0</ele><time>2026-03-28T13:30:40Z</time></trkpt><trkpt lat="40.092004354910245" lon="9.503540436256875"><ele>549.0</ele><time>2026-03-28T13:30:41Z</time></trkpt><trkpt lat="40.09191137174808" lon="9.503550541372379"><ele>549.0</ele><time>2026-03-28T13:30:42Z</time></trkpt><trkpt lat="40.091815522309446" lon="9.503533842252047"><ele>549.0</ele><time>2026-03-28T13:30:43Z</time></trkpt><trkpt lat="40.09172309836367" lon="9.503485418731024"><ele>549.0</ele><time>2026-03-28T13:30:44Z</time></trkpt><trkpt lat="40.091634169857585" lon="9.503414954144725"><ele>549.0</ele><time>2026-03-28T13:30:45Z</time></trkpt><trkpt lat="40.09155198756049" lon="9.503329909340973"><ele>549.0</ele><time>2026-03-28T13:30:46Z</time></trkpt><trkpt lat="40.09146845559478" lon="9.503256252214978"><ele>549.0</ele><time>2026-03-28T13:30:47Z</time></trkpt><trkpt lat="40.09137586588541" lon="9.50322894211153"><ele>549.0</ele><time>2026-03-28T13:30:48Z</time></trkpt><trkpt lat="40.091285537816425" lon="9.503269604427643"><ele>549.0</ele><time>2026-03-28T13:30:49Z</time></trkpt><trkpt lat="40.091201912376775" lon="9.503341539354627"><ele>549.0</ele><time>2026-03-28T13:30:50Z</time></trkpt><trkpt lat="40.09110152130076" lon="9.503391236939441"><ele>549.0</ele><time>2026-03-28T13:30:51Z</time></trkpt><trkpt lat="40.090989717344634" lon="9.503397285307495"><ele>549.0</ele><time>2026-03-28T13:30:52Z</time></trkpt><trkpt lat="40.09089044753425" lon="9.503376686828839"><ele>549.0</ele><time>2026-03-28T13:30:53Z</time></trkpt><trkpt lat="40.090798384227824" lon="9.503349987850616"><ele>549.0</ele><time>2026-03-28T13:30:54Z</time></trkpt><trkpt lat="40.09069906758853" lon="9.503352577722737"><ele>549.0</ele><time>2026-03-28T13:30:55Z</time></trkpt><trkpt lat="40.09059484224356" lon="9.50339634483048"><ele>549.0</ele><time>2026-03-28T13:30:56Z</time></trkpt><trkpt lat="40.090497013120434" lon="9.503477181062541"><ele>548.0</ele><time>2026-03-28T13:30:57Z</time></trkpt><trkpt lat="40.09039607562832" lon="9.503563456085212"><ele>547.0</ele><time>2026-03-28T13:30:58Z</time></trkpt><trkpt lat="40.09028989858739" lon="9.503651705927027"><ele>546.0</ele><time>2026-03-28T13:30:59Z</time></trkpt><trkpt lat="40.090178685149276" lon="9.503734886418039"><ele>545.0</ele><time>2026-03-28T13:31:00Z</time></trkpt><trkpt lat="40.090065221978485" lon="9.50381893306195"><ele>545.0</ele><time>2026-03-28T13:31:01Z</time></trkpt><trkpt lat="40.08995228660771" lon="9.50391112271111"><ele>545.0</ele><time>2026-03-28T13:31:02Z</time></trkpt><trkpt lat="40.08983950208596" lon="9.504001619987388"><ele>545.0</ele><time>2026-03-28T13:31:03Z</time></trkpt><trkpt lat="40.08972455529513" lon="9.504095962508952"><ele>545.0</ele><time>2026-03-28T13:31:04Z</time></trkpt><trkpt lat="40.08960940728806" lon="9.504188627242124"><ele>549.0</ele><time>2026-03-28T13:31:05Z</time></trkpt><trkpt lat="40.08949418329745" lon="9.504282561624487"><ele>553.0</ele><time>2026-03-28T13:31:06Z</time></trkpt><trkpt lat="40.08938136666538" lon="9.504379620088086"><ele>557.0</ele><time>2026-03-28T13:31:07Z</time></trkpt><trkpt lat="40.08927181112303" lon="9.504479494511246"><ele>561.0</ele><time>2026-03-28T13:31:08Z</time></trkpt><trkpt lat="40.08916243285197" lon="9.504577430512624"><ele>560.75</ele><time>2026-03-28T13:31:09Z</time></trkpt><trkpt lat="40.089048885544464" lon="9.504669667588612"><ele>560.5</ele><time>2026-03-28T13:31:10Z</time></trkpt><trkpt lat="40.08893574145383" lon="9.50475934096778"><ele>560.25</ele><time>2026-03-28T13:31:11Z</time></trkpt><trkpt lat="40.08882516815052" lon="9.504853061141882"><ele>560.0</ele><time>2026-03-28T13:31:12Z</time></trkpt><trkpt lat="40.088718495254874" lon="9.504949867229673"><ele>560.0</ele><time>2026-03-28T13:31:13Z</time></trkpt><trkpt lat="40.08861085949893" lon="9.505046234277478"><ele>560.0</ele><time>2026-03-28T13:31:14Z</time></trkpt><trkpt lat="40.08850119572023" lon="9.505138190306779"><ele>560.0</ele><time>2026-03-28T13:31:15Z</time></trkpt><trkpt lat="40.088391357132025" lon="9.505220927162043"><ele>560.0</ele><time>2026-03-28T13:31:16Z</time></trkpt><trkpt lat="40.08829038043719" lon="9.505282866903112"><ele>556.2</ele><time>2026-03-28T13:31:17Z</time></trkpt><trkpt lat="40.08819497581271" lon="9.50532634762107"><ele>552.4</ele><time>2026-03-28T13:31:18Z</time></trkpt><trkpt lat="40.088103781773356" lon="9.505331731172586"><ele>548.6</ele><time>2026-03-28T13:31:19Z</time></trkpt><trkpt lat="40.0880263081933" lon="9.505280341117993"><ele>544.8</ele><time>2026-03-28T13:31:20Z</time></trkpt><trkpt lat="40.08796162066372" lon="9.505188457901065"><ele>541.0</ele><time>2026-03-28T13:31:21Z</time></trkpt><trkpt lat="40.08792426566776" lon="9.505071511999889"><ele>541.0</ele><time>2026-03-28T13:31:22Z</time></trkpt><trkpt lat="40.08790419301044" lon="9.504943701284292"><ele>541.0</ele><time>2026-03-28T13:31:23Z</time></trkpt><trkpt lat="40.08788768256991" lon="9.504810676003567"><ele>541.0</ele><time>2026-03-28T13:31:24Z</time></trkpt><trkpt lat="40.08786899529406" lon="9.504673109084388"><ele>541.0</ele><time>2026-03-28T13:31:25Z</time></trkpt><trkpt lat="40.087846141293575" lon="9.504531551963598"><ele>541.0</ele><time>2026-03-28T13:31:26Z</time></trkpt><trkpt lat="40.08781055320648" lon="9.504389925162549"><ele>543.25</ele><time>2026-03-28T13:31:27Z</time></trkpt><trkpt lat="40.08776068909467" lon="9.50424943931149"><ele>545.5</ele><time>2026-03-28T13:31:28Z</time></trkpt><trkpt lat="40.08769782159734" lon="9.50411159538441"><ele>547.75</ele><time>2026-03-28T13:31:29Z</time></trkpt><trkpt lat="40.08762871722529" lon="9.503974384824504"><ele>550.0</ele><time>2026-03-28T13:31:30Z</time></trkpt><trkpt lat="40.08755872920556" lon="9.503832159922043"><ele>546.5</ele><time>2026-03-28T13:31:31Z</time></trkpt><trkpt lat="40.08749083038489" lon="9.503682982012526"><ele>543.0</ele><time>2026-03-28T13:31:32Z</time></trkpt><trkpt lat="40.087423815816926" lon="9.503526440384475"><ele>539.5</ele><time>2026-03-28T13:31:33Z</time></trkpt><trkpt lat="40.08735743141105" lon="9.503364902013182"><ele>536.0</ele><time>2026-03-28T13:31:34Z</time></trkpt><trkpt lat="40.087291227208844" lon="9.503199507705302"><ele>536.0</ele><time>2026-03-28T13:31:35Z</time></trkpt><trkpt lat="40.087225982938214" lon="9.503033492893035"><ele>536.0</ele><time>2026-03-28T13:31:36Z</time></trkpt><trkpt lat="40.08716048183036" lon="9.502864291113994"><ele>536.0</ele><time>2026-03-28T13:31:37Z</time></trkpt><trkpt lat="40.08709748275652" lon="9.502689584066554"><ele>536.0</ele><time>2026-03-28T13:31:38Z</time></trkpt><trkpt lat="40.0870460752507" lon="9.502508568157994"><ele>538.75</ele><time>2026-03-28T13:31:39Z</time></trkpt><trkpt lat="40.08700422095226" lon="9.502324423708629"><ele>541.5</ele><time>2026-03-28T13:31:40Z</time></trkpt><trkpt lat="40.086970841884245" lon="9.502136861983782"><ele>544.25</ele><time>2026-03-28T13:31:41Z</time></trkpt><trkpt lat="40.08695930307976" lon="9.501953172844603"><ele>547.0</ele><time>2026-03-28T13:31:42Z</time></trkpt><trkpt lat="40.08696839441284" lon="9.501787636839445"><ele>548.4</ele><time>2026-03-28T13:31:43Z</time></trkpt><trkpt lat="40.086966865948796" lon="9.50164234307256"><ele>549.8000000000001</ele><time>2026-03-28T13:31:44Z</time></trkpt><trkpt lat="40.08693311161119" lon="9.501516019165619"><ele>551.2</ele><time>2026-03-28T13:31:45Z</time></trkpt><trkpt lat="40.08686489747756" lon="9.501419767222309"><ele>552.6</ele><time>2026-03-28T13:31:46Z</time></trkpt><trkpt lat="40.086774112796306" lon="9.501366744049355"><ele>554.0</ele><time>2026-03-28T13:31:47Z</time></trkpt><trkpt lat="40.08668304648663" lon="9.501351500696579"><ele>554.6</ele><time>2026-03-28T13:31:48Z</time></trkpt><trkpt lat="40.08658853949111" lon="9.501376913976614"><ele>555.2</ele><time>2026-03-28T13:31:49Z</time></trkpt><trkpt lat="40.08649912093182" lon="9.501431453626832"><ele>555.8000000000001</ele><time>2026-03-28T13:31:50Z</time></trkpt><trkpt lat="40.08641940832068" lon="9.501510774204732"><ele>556.4</ele><time>2026-03-28T13:31:51Z</time></trkpt><trkpt lat="40.08633831527041" lon="9.501595737641296"><ele>557.0</ele><time>2026-03-28T13:31:52Z</time></trkpt><trkpt lat="40.08625863989115" lon="9.501680785761353"><ele>557.0</ele><time>2026-03-28T13:31:53Z</time></trkpt><trkpt lat="40.086172437885416" lon="9.501760983690176"><ele>557.0</ele><time>2026-03-28T13:31:54Z</time></trkpt><trkpt lat="40.086084123092306" lon="9.501842114191328"><ele>557.0</ele><time>2026-03-28T13:31:55Z</time></trkpt><trkpt lat="40.08601077122785" lon="9.50194228486164"><ele>557.0</ele><time>2026-03-28T13:31:56Z</time></trkpt><trkpt lat="40.085957924807175" lon="9.50206343421008"><ele>557.0</ele><time>2026-03-28T13:31:57Z</time></trkpt><trkpt lat="40.08591370266308" lon="9.502190406005884"><ele>556.0</ele><time>2026-03-28T13:31:58Z</time></trkpt><trkpt lat="40.085868355704065" lon="9.502319017202012"><ele>555.0</ele><time>2026-03-28T13:31:59Z</time></trkpt><trkpt lat="40.085819836489996" lon="9.502447296228405"><ele>554.0</ele><time>2026-03-28T13:32:00Z</time></trkpt><trkpt lat="40.08577066024842" lon="9.502563354675564"><ele>553.0</ele><time>2026-03-28T13:32:01Z</time></trkpt><trkpt lat="40.085701724199886" lon="9.502658831282503"><ele>552.0</ele><time>2026-03-28T13:32:02Z</time></trkpt><trkpt lat="40.08561282109877" lon="9.502714241259502"><ele>551.4</ele><time>2026-03-28T13:32:03Z</time></trkpt><trkpt lat="40.0855198999867" lon="9.502709442215455"><ele>550.8000000000001</ele><time>2026-03-28T13:32:04Z</time></trkpt><trkpt lat="40.085446904109226" lon="9.502627123458087"><ele>550.2</ele><time>2026-03-28T13:32:05Z</time></trkpt><trkpt lat="40.085367189334775" lon="9.502540024525617"><ele>549.6</ele><time>2026-03-28T13:32:06Z</time></trkpt><trkpt lat="40.08529294002725" lon="9.502434047270473"><ele>549.0</ele><time>2026-03-28T13:32:07Z</time></trkpt><trkpt lat="40.085208980820504" lon="9.502319853422135"><ele>549.0</ele><time>2026-03-28T13:32:08Z</time></trkpt><trkpt lat="40.08512214979112" lon="9.502195684051307"><ele>549.0</ele><time>2026-03-28T13:32:09Z</time></trkpt><trkpt lat="40.08504069366618" lon="9.502080786037318"><ele>549.0</ele><time>2026-03-28T13:32:10Z</time></trkpt><trkpt lat="40.084953370742376" lon="9.50199739679763"><ele>549.0</ele><time>2026-03-28T13:32:11Z</time></trkpt><trkpt lat="40.0848489409239" lon="9.50196294293623"><ele>550.0</ele><time>2026-03-28T13:32:12Z</time></trkpt><trkpt lat="40.08474865915978" lon="9.501984098477008"><ele>551.0</ele><time>2026-03-28T13:32:13Z</time></trkpt><trkpt lat="40.08464962486204" lon="9.502061185075345"><ele>552.0</ele><time>2026-03-28T13:32:14Z</time></trkpt><trkpt lat="40.084554472147474" lon="9.50216080748088"><ele>553.0</ele><time>2026-03-28T13:32:15Z</time></trkpt><trkpt lat="40.08444950726439" lon="9.50226653830163"><ele>553.0</ele><time>2026-03-28T13:32:16Z</time></trkpt><trkpt lat="40.08433686080902" lon="9.502375742457458"><ele>553.0</ele><time>2026-03-28T13:32:17Z</time></trkpt><trkpt lat="40.08422069475069" lon="9.502492450285796"><ele>553.0</ele><time>2026-03-28T13:32:18Z</time></trkpt><trkpt lat="40.08411340956075" lon="9.502615114639756"><ele>553.0</ele><time>2026-03-28T13:32:19Z</time></trkpt><trkpt lat="40.08401989346159" lon="9.502749446158624"><ele>555.25</ele><time>2026-03-28T13:32:20Z</time></trkpt><trkpt lat="40.08393885456651" lon="9.50289539023949"><ele>557.5</ele><time>2026-03-28T13:32:21Z</time></trkpt><trkpt lat="40.08386747974836" lon="9.503050342320591"><ele>559.75</ele><time>2026-03-28T13:32:22Z</time></trkpt><trkpt lat="40.08379960523545" lon="9.50320204067774"><ele>562.0</ele><time>2026-03-28T13:32:23Z</time></trkpt><trkpt lat="40.08372711743829" lon="9.503345871754664"><ele>562.0</ele><time>2026-03-28T13:32:24Z</time></trkpt><trkpt lat="40.08364234734756" lon="9.503477884668373"><ele>562.0</ele><time>2026-03-28T13:32:25Z</time></trkpt><trkpt lat="40.08354349469021" lon="9.503597060815018"><ele>562.0</ele><time>2026-03-28T13:32:26Z</time></trkpt><trkpt lat="40.083438796148386" lon="9.503711275056759"><ele>562.0</ele><time>2026-03-28T13:32:27Z</time></trkpt><trkpt lat="40.0833349502982" lon="9.50382817373447"><ele>558.0</ele><time>2026-03-28T13:32:28Z</time></trkpt><trkpt lat="40.08323079534602" lon="9.503946770376917"><ele>554.0</ele><time>2026-03-28T13:32:29Z</time></trkpt><trkpt lat="40.08312806685525" lon="9.504060480972642"><ele>550.0</ele><time>2026-03-28T13:32:30Z</time></trkpt><trkpt lat="40.083021898810415" lon="9.50416205238286"><ele>546.0</ele><time>2026-03-28T13:32:31Z</time></trkpt><trkpt lat="40.08290518091478" lon="9.504244069546225"><ele>546.0</ele><time>2026-03-28T13:32:32Z</time></trkpt><trkpt lat="40.08277674067437" lon="9.504295099313278"><ele>546.0</ele><time>2026-03-28T13:32:33Z</time></trkpt><trkpt lat="40.08264188754126" lon="9.504320701240923"><ele>546.0</ele><time>2026-03-28T13:32:34Z</time></trkpt><trkpt lat="40.08250086008879" lon="9.504332943651866"><ele>546.0</ele><time>2026-03-28T13:32:35Z</time></trkpt><trkpt lat="40.082360086526904" lon="9.504347289928594"><ele>547.0</ele><time>2026-03-28T13:32:36Z</time></trkpt><trkpt lat="40.08221999707496" lon="9.504360429732383"><ele>548.0</ele><time>2026-03-28T13:32:37Z</time></trkpt><trkpt lat="40.08208193623418" lon="9.504366337070861"><ele>549.0</ele><time>2026-03-28T13:32:38Z</time></trkpt><trkpt lat="40.08194895808983" lon="9.504367174567042"><ele>550.0</ele><time>2026-03-28T13:32:39Z</time></trkpt><trkpt lat="40.08182809738778" lon="9.504374524496527"><ele>550.0</ele><time>2026-03-28T13:32:40Z</time></trkpt><trkpt lat="40.08172821317086" lon="9.504398807728835"><ele>550.0</ele><time>2026-03-28T13:32:41Z</time></trkpt><trkpt lat="40.08164837336227" lon="9.504450052113238"><ele>550.0</ele><time>2026-03-28T13:32:42Z</time></trkpt><trkpt lat="40.08158974978375" lon="9.504530260012102"><ele>550.0</ele><time>2026-03-28T13:32:43Z</time></trkpt><trkpt lat="40.081554117187885" lon="9.504640896015632"><ele>550.0</ele><time>2026-03-28T13:32:44Z</time></trkpt><trkpt lat="40.081548374465946" lon="9.504761769675056"><ele>548.6</ele><time>2026-03-28T13:32:45Z</time></trkpt><trkpt lat="40.081578847616186" lon="9.504865014804052"><ele>547.2</ele><time>2026-03-28T13:32:46Z</time></trkpt><trkpt lat="40.08164030709454" lon="9.504953126105299"><ele>545.8</ele><time>2026-03-28T13:32:47Z</time></trkpt><trkpt lat="40.081711885366104" lon="9.505048756865689"><ele>544.4</ele><time>2026-03-28T13:32:48Z</time></trkpt><trkpt lat="40.08178611956012" lon="9.505149169187685"><ele>543.0</ele><time>2026-03-28T13:32:49Z</time></trkpt><trkpt lat="40.08185931437966" lon="9.505250976904303"><ele>543.0</ele><time>2026-03-28T13:32:50Z</time></trkpt><trkpt lat="40.081929842729565" lon="9.505357606763475"><ele>543.0</ele><time>2026-03-28T13:32:51Z</time></trkpt><trkpt lat="40.08199982828909" lon="9.505460581454221"><ele>543.0</ele><time>2026-03-28T13:32:52Z</time></trkpt><trkpt lat="40.08206536463945" lon="9.5055635663153"><ele>543.0</ele><time>2026-03-28T13:32:53Z</time></trkpt><trkpt lat="40.0821318387562" lon="9.50565165233444"><ele>543.0</ele><time>2026-03-28T13:32:54Z</time></trkpt><trkpt lat="40.08221020162583" lon="9.505710655201279"><ele>543.6</ele><time>2026-03-28T13:32:55Z</time></trkpt><trkpt lat="40.0823001867035" lon="9.505725862361693"><ele>544.1999999999999</ele><time>2026-03-28T13:32:56Z</time></trkpt><trkpt lat="40.08239455039005" lon="9.505693779657435"><ele>544.8</ele><time>2026-03-28T13:32:57Z</time></trkpt><trkpt lat="40.08247858984786" lon="9.505637170893696"><ele>545.4</ele><time>2026-03-28T13:32:58Z</time></trkpt><trkpt lat="40.08256577001058" lon="9.505585392447358"><ele>546.0</ele><time>2026-03-28T13:32:59Z</time></trkpt><trkpt lat="40.082652251995945" lon="9.505583961004007"><ele>546.0</ele><time>2026-03-28T13:33:00Z</time></trkpt><trkpt lat="40.08274366829623" lon="9.505629827436701"><ele>546.0</ele><time>2026-03-28T13:33:01Z</time></trkpt><trkpt lat="40.08282971574786" lon="9.505707210378407"><ele>546.0</ele><time>2026-03-28T13:33:02Z</time></trkpt><trkpt lat="40.082917652639075" lon="9.505793442169928"><ele>546.0</ele><time>2026-03-28T13:33:03Z</time></trkpt><trkpt lat="40.08301266828731" lon="9.505876463941568"><ele>546.0</ele><time>2026-03-28T13:33:04Z</time></trkpt><trkpt lat="40.08311372820628" lon="9.505960738408"><ele>546.0</ele><time>2026-03-28T13:33:05Z</time></trkpt><trkpt lat="40.083216886656665" lon="9.506049654183728"><ele>546.0</ele><time>2026-03-28T13:33:06Z</time></trkpt><trkpt lat="40.08332569442306" lon="9.50613133571986"><ele>546.0</ele><time>2026-03-28T13:33:07Z</time></trkpt><trkpt lat="40.08343984989078" lon="9.506190067882516"><ele>546.0</ele><time>2026-03-28T13:33:08Z</time></trkpt><trkpt lat="40.08355623850411" lon="9.506231037250027"><ele>547.2</ele><time>2026-03-28T13:33:09Z</time></trkpt><trkpt lat="40.08366965383842" lon="9.50626765311765"><ele>548.4000000000001</ele><time>2026-03-28T13:33:10Z</time></trkpt><trkpt lat="40.08377321706435" lon="9.506311606741228"><ele>549.6</ele><time>2026-03-28T13:33:11Z</time></trkpt><trkpt lat="40.08386445684152" lon="9.506372020441589"><ele>550.8000000000001</ele><time>2026-03-28T13:33:12Z</time></trkpt><trkpt lat="40.083931516499305" lon="9.506462074054003"><ele>552.0</ele><time>2026-03-28T13:33:13Z</time></trkpt><trkpt lat="40.08396581552206" lon="9.506579640726839"><ele>552.0</ele><time>2026-03-28T13:33:14Z</time></trkpt><trkpt lat="40.083976206465266" lon="9.506720381567224"><ele>552.0</ele><time>2026-03-28T13:33:15Z</time></trkpt><trkpt lat="40.08397441064584" lon="9.506866899831214"><ele>552.0</ele><time>2026-03-28T13:33:16Z</time></trkpt><trkpt lat="40.08397663537678" lon="9.50700153177567"><ele>552.0</ele><time>2026-03-28T13:33:17Z</time></trkpt><trkpt lat="40.08396317193161" lon="9.507121830803355"><ele>552.0</ele><time>2026-03-28T13:33:18Z</time></trkpt><trkpt lat="40.08392285752039" lon="9.507217681205175"><ele>550.6</ele><time>2026-03-28T13:33:19Z</time></trkpt><trkpt lat="40.083863826354566" lon="9.507282919386236"><ele>549.2</ele><time>2026-03-28T13:33:20Z</time></trkpt><trkpt lat="40.08378790607164" lon="9.507344648885027"><ele>547.8</ele><time>2026-03-28T13:33:21Z</time></trkpt><trkpt lat="40.08370478133589" lon="9.507412132769426"><ele>546.4</ele><time>2026-03-28T13:33:22Z</time></trkpt><trkpt lat="40.08361668245267" lon="9.507493101287201"><ele>545.0</ele><time>2026-03-28T13:33:23Z</time></trkpt><trkpt lat="40.08352124489718" lon="9.507576839268246"><ele>545.0</ele><time>2026-03-28T13:33:24Z</time></trkpt><trkpt lat="40.083422151647525" lon="9.507665054241496"><ele>545.0</ele><time>2026-03-28T13:33:25Z</time></trkpt><trkpt lat="40.083325585687" lon="9.507753142751191"><ele>545.0</ele><time>2026-03-28T13:33:26Z</time></trkpt><trkpt lat="40.08321986245366" lon="9.507815904742104"><ele>545.0</ele><time>2026-03-28T13:33:27Z</time></trkpt><trkpt lat="40.08310216273838" lon="9.507839321782782"><ele>546.0</ele><time>2026-03-28T13:33:28Z</time></trkpt><trkpt lat="40.08298305858763" lon="9.50784472399609"><ele>547.0</ele><time>2026-03-28T13:33:29Z</time></trkpt><trkpt lat="40.082865708296" lon="9.507845796696454"><ele>548.0</ele><time>2026-03-28T13:33:30Z</time></trkpt><trkpt lat="40.082750024436905" lon="9.507820898464976"><ele>549.0</ele><time>2026-03-28T13:33:31Z</time></trkpt><trkpt lat="40.082653307739974" lon="9.507738522128276"><ele>549.0</ele><time>2026-03-28T13:33:32Z</time></trkpt><trkpt lat="40.08255531540064" lon="9.50770234226047"><ele>549.0</ele><time>2026-03-28T13:33:33Z</time></trkpt><trkpt lat="40.08247027693625" lon="9.507682201324261"><ele>549.0</ele><time>2026-03-28T13:33:34Z</time></trkpt><trkpt lat="40.08238428453137" lon="9.50770956280994"><ele>549.0</ele><time>2026-03-28T13:33:35Z</time></trkpt><trkpt lat="40.08230634641499" lon="9.50777963405336"><ele>549.0</ele><time>2026-03-28T13:33:36Z</time></trkpt><trkpt lat="40.0822414824416" lon="9.507886282174448"><ele>547.75</ele><time>2026-03-28T13:33:37Z</time></trkpt><trkpt lat="40.082184039097335" lon="9.508010769660295"><ele>546.5</ele><time>2026-03-28T13:33:38Z</time></trkpt><trkpt lat="40.08212595839401" lon="9.50814315344947"><ele>545.25</ele><time>2026-03-28T13:33:39Z</time></trkpt><trkpt lat="40.08206471353746" lon="9.508279695530167"><ele>544.0</ele><time>2026-03-28T13:33:40Z</time></trkpt><trkpt lat="40.08199802417545" lon="9.50841666841083"><ele>544.0</ele><time>2026-03-28T13:33:41Z</time></trkpt><trkpt lat="40.0819251754394" lon="9.50854958892824"><ele>544.0</ele><time>2026-03-28T13:33:42Z</time></trkpt><trkpt lat="40.081852484423656" lon="9.508670518827474"><ele>544.0</ele><time>2026-03-28T13:33:43Z</time></trkpt><trkpt lat="40.08178083840065" lon="9.508784880636004"><ele>544.0</ele><time>2026-03-28T13:33:44Z</time></trkpt><trkpt lat="40.081702404920556" lon="9.508879963019195"><ele>539.6</ele><time>2026-03-28T13:33:45Z</time></trkpt><trkpt lat="40.08160951097543" lon="9.50893856063774"><ele>535.2</ele><time>2026-03-28T13:33:46Z</time></trkpt><trkpt lat="40.08150863775756" lon="9.508946206417363"><ele>530.8000000000001</ele><time>2026-03-28T13:33:47Z</time></trkpt><trkpt lat="40.08139899699054" lon="9.508914996598833"><ele>526.4</ele><time>2026-03-28T13:33:48Z</time></trkpt><trkpt lat="40.08128848799794" lon="9.508867519272323"><ele>522.0</ele><time>2026-03-28T13:33:49Z</time></trkpt><trkpt lat="40.08117727316645" lon="9.508837705641511"><ele>522.0</ele><time>2026-03-28T13:33:50Z</time></trkpt><trkpt lat="40.08106816018492" lon="9.50884480451537"><ele>522.0</ele><time>2026-03-28T13:33:51Z</time></trkpt><trkpt lat="40.08097082957469" lon="9.508905739695916"><ele>522.0</ele><time>2026-03-28T13:33:52Z</time></trkpt><trkpt lat="40.080891836613404" lon="9.508999481135483"><ele>522.0</ele><time>2026-03-28T13:33:53Z</time></trkpt><trkpt lat="40.08082445774142" lon="9.509115207994828"><ele>522.0</ele><time>2026-03-28T13:33:54Z</time></trkpt><trkpt lat="40.080748168460474" lon="9.509217255647664"><ele>517.8000000000001</ele><time>2026-03-28T13:33:55Z</time></trkpt><trkpt lat="40.08065083107933" lon="9.509265234642113"><ele>513.6</ele><time>2026-03-28T13:33:56Z</time></trkpt><trkpt lat="40.08055258117938" lon="9.509230164678781"><ele>509.40000000000003</ele><time>2026-03-28T13:33:57Z</time></trkpt><trkpt lat="40.08048457271646" lon="9.509155597200202"><ele>505.20000000000005</ele><time>2026-03-28T13:33:58Z</time></trkpt><trkpt lat="40.080399528085856" lon="9.509076972052645"><ele>501.0</ele><time>2026-03-28T13:33:59Z</time></trkpt><trkpt lat="40.08032698540614" lon="9.508958281560396"><ele>501.0</ele><time>2026-03-28T13:34:00Z</time></trkpt><trkpt lat="40.08027126017677" lon="9.508834004760063"><ele>501.0</ele><time>2026-03-28T13:34:01Z</time></trkpt><trkpt lat="40.08027578112797" lon="9.508695939453537"><ele>501.0</ele><time>2026-03-28T13:34:02Z</time></trkpt><trkpt lat="40.08030087390863" lon="9.508567227274622"><ele>501.0</ele><time>2026-03-28T13:34:03Z</time></trkpt><trkpt lat="40.080343737127315" lon="9.508434668242701"><ele>501.0</ele><time>2026-03-28T13:34:04Z</time></trkpt><trkpt lat="40.080367992120486" lon="9.508288463848503"><ele>503.4</ele><time>2026-03-28T13:34:05Z</time></trkpt><trkpt lat="40.08039502233617" lon="9.508140540340612"><ele>505.8</ele><time>2026-03-28T13:34:06Z</time></trkpt><trkpt lat="40.0804126867374" lon="9.507996885374546"><ele>508.19999999999993</ele><time>2026-03-28T13:34:07Z</time></trkpt><trkpt lat="40.08042534725528" lon="9.507860435062117"><ele>510.59999999999997</ele><time>2026-03-28T13:34:08Z</time></trkpt><trkpt lat="40.0803844974464" lon="9.507735569324135"><ele>513.0</ele><time>2026-03-28T13:34:09Z</time></trkpt><trkpt lat="40.08028568710955" lon="9.507667898049425"><ele>516.1999999999999</ele><time>2026-03-28T13:34:10Z</time></trkpt><trkpt lat="40.08019028185973" lon="9.507636545546003"><ele>519.4</ele><time>2026-03-28T13:34:11Z</time></trkpt><trkpt lat="40.08009228417656" lon="9.507656541831238"><ele>522.5999999999999</ele><time>2026-03-28T13:34:12Z</time></trkpt><trkpt lat="40.07999142523735" lon="9.507711834256177"><ele>525.8</ele><time>2026-03-28T13:34:13Z</time></trkpt><trkpt lat="40.07987976777241" lon="9.507760670707226"><ele>529.0</ele><time>2026-03-28T13:34:14Z</time></trkpt><trkpt lat="40.079768498184336" lon="9.507814460175817"><ele>526.5</ele><time>2026-03-28T13:34:15Z</time></trkpt><trkpt lat="40.07965207068581" lon="9.507868424602462"><ele>524.0</ele><time>2026-03-28T13:34:16Z</time></trkpt><trkpt lat="40.07954704321326" lon="9.50793591738994"><ele>521.5</ele><time>2026-03-28T13:34:17Z</time></trkpt><trkpt lat="40.079455785334055" lon="9.508029270216772"><ele>519.0</ele><time>2026-03-28T13:34:18Z</time></trkpt><trkpt lat="40.07938660818152" lon="9.508148078499138"><ele>519.0</ele><time>2026-03-28T13:34:19Z</time></trkpt><trkpt lat="40.079325690270664" lon="9.508273818713475"><ele>519.0</ele><time>2026-03-28T13:34:20Z</time></trkpt><trkpt lat="40.07925753596565" lon="9.508382729182213"><ele>519.0</ele><time>2026-03-28T13:34:21Z</time></trkpt><trkpt lat="40.0791637211445" lon="9.508475113871864"><ele>519.0</ele><time>2026-03-28T13:34:22Z</time></trkpt><trkpt lat="40.07906887195579" lon="9.508552900303249"><ele>517.4</ele><time>2026-03-28T13:34:23Z</time></trkpt><trkpt lat="40.07897089665166" lon="9.508623182551322"><ele>515.8</ele><time>2026-03-28T13:34:24Z</time></trkpt><trkpt lat="40.078866383368215" lon="9.508675839816958"><ele>514.2</ele><time>2026-03-28T13:34:25Z</time></trkpt><trkpt lat="40.07875909100683" lon="9.508695224428376"><ele>512.6</ele><time>2026-03-28T13:34:26Z</time></trkpt><trkpt lat="40.07865704819529" lon="9.50866627601823"><ele>511.0</ele><time>2026-03-28T13:34:27Z</time></trkpt><trkpt lat="40.07857667854488" lon="9.50857139690335"><ele>511.0</ele><time>2026-03-28T13:34:28Z</time></trkpt><trkpt lat="40.07848678049195" lon="9.508490250752462"><ele>511.0</ele><time>2026-03-28T13:34:29Z</time></trkpt><trkpt lat="40.07840399244314" lon="9.508390079269894"><ele>511.0</ele><time>2026-03-28T13:34:30Z</time></trkpt><trkpt lat="40.07831089308096" lon="9.508288976031226"><ele>511.0</ele><time>2026-03-28T13:34:31Z</time></trkpt><trkpt lat="40.078232019520385" lon="9.508169825758927"><ele>512.2</ele><time>2026-03-28T13:34:32Z</time></trkpt><trkpt lat="40.07814673733491" lon="9.508077445804055"><ele>513.4000000000001</ele><time>2026-03-28T13:34:33Z</time></trkpt><trkpt lat="40.07807916108447" lon="9.50800679814583"><ele>514.6</ele><time>2026-03-28T13:34:34Z</time></trkpt><trkpt lat="40.077989403725745" lon="9.507970760480106"><ele>515.8000000000001</ele><time>2026-03-28T13:34:35Z</time></trkpt><trkpt lat="40.07788996961651" lon="9.508003132689039"><ele>517.0</ele><time>2026-03-28T13:34:36Z</time></trkpt><trkpt lat="40.0778085055582" lon="9.508086046697796"><ele>517.0</ele><time>2026-03-28T13:34:37Z</time></trkpt><trkpt lat="40.07775818193153" lon="9.508186299763874"><ele>517.0</ele><time>2026-03-28T13:34:38Z</time></trkpt><trkpt lat="40.07772518103985" lon="9.508305593358257"><ele>517.0</ele><time>2026-03-28T13:34:39Z</time></trkpt><trkpt lat="40.07771576314285" lon="9.50843402481402"><ele>517.0</ele><time>2026-03-28T13:34:40Z</time></trkpt><trkpt lat="40.07769997621212" lon="9.508567102654485"><ele>517.0</ele><time>2026-03-28T13:34:41Z</time></trkpt><trkpt lat="40.07766225737244" lon="9.508703861119162"><ele>514.0</ele><time>2026-03-28T13:34:42Z</time></trkpt><trkpt lat="40.07760971462844" lon="9.508842033063555"><ele>511.0</ele><time>2026-03-28T13:34:43Z</time></trkpt><trkpt lat="40.07755539447211" lon="9.50898688009489"><ele>508.0</ele><time>2026-03-28T13:34:44Z</time></trkpt><trkpt lat="40.077500579294046" lon="9.509138161253816"><ele>505.0</ele><time>2026-03-28T13:34:45Z</time></trkpt><trkpt lat="40.07744382265511" lon="9.509291614957384"><ele>507.25</ele><time>2026-03-28T13:34:46Z</time></trkpt><trkpt lat="40.07738601502413" lon="9.509444218585292"><ele>509.5</ele><time>2026-03-28T13:34:47Z</time></trkpt><trkpt lat="40.07732698773354" lon="9.509591254090907"><ele>511.75</ele><time>2026-03-28T13:34:48Z</time></trkpt><trkpt lat="40.077267862491595" lon="9.509730588056575"><ele>514.0</ele><time>2026-03-28T13:34:49Z</time></trkpt><trkpt lat="40.077197755642885" lon="9.509854332801584"><ele>514.0</ele><time>2026-03-28T13:34:50Z</time></trkpt><trkpt lat="40.077095840517295" lon="9.509916785986347"><ele>514.0</ele><time>2026-03-28T13:34:51Z</time></trkpt><trkpt lat="40.0769958789025" lon="9.509957233080957"><ele>514.0</ele><time>2026-03-28T13:34:52Z</time></trkpt><trkpt lat="40.07689944170871" lon="9.510014033291784"><ele>514.0</ele><time>2026-03-28T13:34:53Z</time></trkpt><trkpt lat="40.076808093083905" lon="9.510066766730807"><ele>514.0</ele><time>2026-03-28T13:34:54Z</time></trkpt><trkpt lat="40.076741791520135" lon="9.51015383450871"><ele>514.0</ele><time>2026-03-28T13:34:55Z</time></trkpt><trkpt lat="40.076710428298725" lon="9.51026323536261"><ele>514.0</ele><time>2026-03-28T13:34:56Z</time></trkpt><trkpt lat="40.076720897759685" lon="9.510386521635663"><ele>514.0</ele><time>2026-03-28T13:34:57Z</time></trkpt><trkpt lat="40.076763358513425" lon="9.510497612270854"><ele>514.0</ele><time>2026-03-28T13:34:58Z</time></trkpt><trkpt lat="40.07682843027276" lon="9.51060263009968"><ele>514.0</ele><time>2026-03-28T13:34:59Z</time></trkpt><trkpt lat="40.07688007598788" lon="9.510718759796074"><ele>511.2</ele><time>2026-03-28T13:35:00Z</time></trkpt><trkpt lat="40.076893287772876" lon="9.510850111211099"><ele>508.4</ele><time>2026-03-28T13:35:01Z</time></trkpt><trkpt lat="40.076886067687646" lon="9.510990781144214"><ele>505.6</ele><time>2026-03-28T13:35:02Z</time></trkpt><trkpt lat="40.07687205644976" lon="9.51113879982956"><ele>502.8</ele><time>2026-03-28T13:35:03Z</time></trkpt><trkpt lat="40.07685674280208" lon="9.511293785057308"><ele>500.0</ele><time>2026-03-28T13:35:04Z</time></trkpt><trkpt lat="40.07683422319983" lon="9.511443282779458"><ele>497.2</ele><time>2026-03-28T13:35:05Z</time></trkpt><trkpt lat="40.076786143151615" lon="9.511580132887081"><ele>494.4</ele><time>2026-03-28T13:35:06Z</time></trkpt><trkpt lat="40.07670765792772" lon="9.511682320029127"><ele>491.6</ele><time>2026-03-28T13:35:07Z</time></trkpt><trkpt lat="40.07660364368103" lon="9.511732172253184"><ele>488.8</ele><time>2026-03-28T13:35:08Z</time></trkpt><trkpt lat="40.07649304501025" lon="9.51174007222953"><ele>486.0</ele><time>2026-03-28T13:35:09Z</time></trkpt><trkpt lat="40.076389474336295" lon="9.511681856604305"><ele>486.0</ele><time>2026-03-28T13:35:10Z</time></trkpt><trkpt lat="40.07629385222967" lon="9.511615648838067"><ele>486.0</ele><time>2026-03-28T13:35:11Z</time></trkpt><trkpt lat="40.07618798828101" lon="9.511552784771629"><ele>486.0</ele><time>2026-03-28T13:35:12Z</time></trkpt><trkpt lat="40.076094779128084" lon="9.51146696932637"><ele>486.0</ele><time>2026-03-28T13:35:13Z</time></trkpt><trkpt lat="40.07604549195054" lon="9.511345242987996"><ele>486.0</ele><time>2026-03-28T13:35:14Z</time></trkpt><trkpt lat="40.075984327745374" lon="9.511269612480694"><ele>486.0</ele><time>2026-03-28T13:35:15Z</time></trkpt><trkpt lat="40.075890469325834" lon="9.511254296436416"><ele>486.0</ele><time>2026-03-28T13:35:16Z</time></trkpt><trkpt lat="40.075799201652366" lon="9.511259471648424"><ele>486.0</ele><time>2026-03-28T13:35:17Z</time></trkpt><trkpt lat="40.075706648063" lon="9.51130474968957"><ele>486.0</ele><time>2026-03-28T13:35:18Z</time></trkpt><trkpt lat="40.07562234111022" lon="9.511388436262779"><ele>486.0</ele><time>2026-03-28T13:35:19Z</time></trkpt><trkpt lat="40.075556732437335" lon="9.511498370388042"><ele>487.0</ele><time>2026-03-28T13:35:20Z</time></trkpt><trkpt lat="40.07551845008128" lon="9.511630468361275"><ele>488.0</ele><time>2026-03-28T13:35:21Z</time></trkpt><trkpt lat="40.075503079260905" lon="9.511768176565788"><ele>489.0</ele><time>2026-03-28T13:35:22Z</time></trkpt><trkpt lat="40.07549525714507" lon="9.511909460073742"><ele>490.0</ele><time>2026-03-28T13:35:23Z</time></trkpt><trkpt lat="40.0754825382359" lon="9.512051362593041"><ele>491.0</ele><time>2026-03-28T13:35:24Z</time></trkpt><trkpt lat="40.075453868230916" lon="9.512195017800742"><ele>491.0</ele><time>2026-03-28T13:35:25Z</time></trkpt><trkpt lat="40.075406752314976" lon="9.512338397622182"><ele>491.0</ele><time>2026-03-28T13:35:26Z</time></trkpt><trkpt lat="40.0753464939135" lon="9.51247917058431"><ele>491.0</ele><time>2026-03-28T13:35:27Z</time></trkpt><trkpt lat="40.07528148974164" lon="9.512625128628018"><ele>491.0</ele><time>2026-03-28T13:35:28Z</time></trkpt><trkpt lat="40.07521921608968" lon="9.512779198151103"><ele>485.25</ele><time>2026-03-28T13:35:29Z</time></trkpt><trkpt lat="40.07515606581516" lon="9.512937562197918"><ele>479.5</ele><time>2026-03-28T13:35:30Z</time></trkpt><trkpt lat="40.07508730716199" lon="9.513092044624901"><ele>473.75</ele><time>2026-03-28T13:35:31Z</time></trkpt><trkpt lat="40.07501438868609" lon="9.513233448621763"><ele>468.0</ele><time>2026-03-28T13:35:32Z</time></trkpt><trkpt lat="40.07493545778866" lon="9.513358713338015"><ele>466.59999999999997</ele><time>2026-03-28T13:35:33Z</time></trkpt><trkpt lat="40.07485447562562" lon="9.513466111445007"><ele>465.19999999999993</ele><time>2026-03-28T13:35:34Z</time></trkpt><trkpt lat="40.07476750271931" lon="9.51354145694898"><ele>463.8</ele><time>2026-03-28T13:35:35Z</time></trkpt><trkpt lat="40.07466720622606" lon="9.513571642570747"><ele>462.4</ele><time>2026-03-28T13:35:36Z</time></trkpt><trkpt lat="40.07457151387914" lon="9.51352732919746"><ele>461.0</ele><time>2026-03-28T13:35:37Z</time></trkpt><trkpt lat="40.07448087659619" lon="9.51345529524125"><ele>461.0</ele><time>2026-03-28T13:35:38Z</time></trkpt><trkpt lat="40.074377065929305" lon="9.513391901947468"><ele>461.0</ele><time>2026-03-28T13:35:39Z</time></trkpt><trkpt lat="40.074269649220845" lon="9.513320997540927"><ele>461.0</ele><time>2026-03-28T13:35:40Z</time></trkpt><trkpt lat="40.07415967537986" lon="9.513244201324719"><ele>461.0</ele><time>2026-03-28T13:35:41Z</time></trkpt><trkpt lat="40.074076441030485" lon="9.513135652419189"><ele>458.0</ele><time>2026-03-28T13:35:42Z</time></trkpt><trkpt lat="40.07401513306441" lon="9.51299909455575"><ele>455.0</ele><time>2026-03-28T13:35:43Z</time></trkpt><trkpt lat="40.073972756218744" lon="9.512845163548882"><ele>452.0</ele><time>2026-03-28T13:35:44Z</time></trkpt><trkpt lat="40.07393311406455" lon="9.512686279123074"><ele>449.0</ele><time>2026-03-28T13:35:45Z</time></trkpt><trkpt lat="40.073899126298805" lon="9.512529748354051"><ele>449.0</ele><time>2026-03-28T13:35:46Z</time></trkpt><trkpt lat="40.073876437222765" lon="9.51237396378804"><ele>449.0</ele><time>2026-03-28T13:35:47Z</time></trkpt><trkpt lat="40.073884803644994" lon="9.512215531994727"><ele>449.0</ele><time>2026-03-28T13:35:48Z</time></trkpt><trkpt lat="40.07385713489121" lon="9.51205355355928"><ele>449.0</ele><time>2026-03-28T13:35:49Z</time></trkpt><trkpt lat="40.07384547067363" lon="9.511893539393538"><ele>452.0</ele><time>2026-03-28T13:35:50Z</time></trkpt><trkpt lat="40.07387193326557" lon="9.51174132579495"><ele>455.0</ele><time>2026-03-28T13:35:51Z</time></trkpt><trkpt lat="40.073872285383224" lon="9.511602736655677"><ele>458.0</ele><time>2026-03-28T13:35:52Z</time></trkpt><trkpt lat="40.07389036005069" lon="9.511486776537664"><ele>461.0</ele><time>2026-03-28T13:35:53Z</time></trkpt><trkpt lat="40.073868784746246" lon="9.511372419375231"><ele>464.0</ele><time>2026-03-28T13:35:54Z</time></trkpt><trkpt lat="40.073794027801625" lon="9.511289094581324"><ele>463.99999999999994</ele><time>2026-03-28T13:35:55Z</time></trkpt><trkpt lat="40.07370593454457" lon="9.511256699597094"><ele>464.0</ele><time>2026-03-28T13:35:56Z</time></trkpt><trkpt lat="40.07362063217298" lon="9.511242051144716"><ele>464.0</ele><time>2026-03-28T13:35:57Z</time></trkpt><trkpt lat="40.07354267432916" lon="9.511274544858834"><ele>464.0</ele><time>2026-03-28T13:35:58Z</time></trkpt><trkpt lat="40.07347647929165" lon="9.511347556269909"><ele>463.99999999999994</ele><time>2026-03-28T13:35:59Z</time></trkpt><trkpt lat="40.07341836759006" lon="9.511450882543661"><ele>464.0</ele><time>2026-03-28T13:36:00Z</time></trkpt><trkpt lat="40.073358722088756" lon="9.51156298340223"><ele>464.0</ele><time>2026-03-28T13:36:01Z</time></trkpt><trkpt lat="40.07329466339962" lon="9.51168220408545"><ele>464.0</ele><time>2026-03-28T13:36:02Z</time></trkpt><trkpt lat="40.07322440428344" lon="9.511805722189559"><ele>464.0</ele><time>2026-03-28T13:36:03Z</time></trkpt><trkpt lat="40.07315599760005" lon="9.511935333537666"><ele>464.0</ele><time>2026-03-28T13:36:04Z</time></trkpt><trkpt lat="40.07308864752335" lon="9.512060607054476"><ele>465.6</ele><time>2026-03-28T13:36:05Z</time></trkpt><trkpt lat="40.07302514469615" lon="9.512175156622236"><ele>467.2</ele><time>2026-03-28T13:36:06Z</time></trkpt><trkpt lat="40.07296567552072" lon="9.512282880387792"><ele>468.80000000000007</ele><time>2026-03-28T13:36:07Z</time></trkpt><trkpt lat="40.07290959143706" lon="9.512390073352263"><ele>470.40000000000003</ele><time>2026-03-28T13:36:08Z</time></trkpt><trkpt lat="40.072854460267834" lon="9.512500195496376"><ele>472.0</ele><time>2026-03-28T13:36:09Z</time></trkpt><trkpt lat="40.07279438492829" lon="9.51260771939333"><ele>472.0</ele><time>2026-03-28T13:36:10Z</time></trkpt><trkpt lat="40.07272564819154" lon="9.512708052420763"><ele>472.00000000000006</ele><time>2026-03-28T13:36:11Z</time></trkpt><trkpt lat="40.07264066895297" lon="9.512792223349068"><ele>472.00000000000006</ele><time>2026-03-28T13:36:12Z</time></trkpt><trkpt lat="40.07253924148891" lon="9.51284099407583"><ele>472.0</ele><time>2026-03-28T13:36:13Z</time></trkpt><trkpt lat="40.07242901662512" lon="9.512852339146521"><ele>472.0</ele><time>2026-03-28T13:36:14Z</time></trkpt><trkpt lat="40.07232483925571" lon="9.512855157588202"><ele>472.20000000000005</ele><time>2026-03-28T13:36:15Z</time></trkpt><trkpt lat="40.07224195668625" lon="9.51289378917466"><ele>472.40000000000003</ele><time>2026-03-28T13:36:16Z</time></trkpt><trkpt lat="40.07217087995806" lon="9.512982986565682"><ele>472.59999999999997</ele><time>2026-03-28T13:36:17Z</time></trkpt><trkpt lat="40.07211934718751" lon="9.513103391875372"><ele>472.79999999999995</ele><time>2026-03-28T13:36:18Z</time></trkpt><trkpt lat="40.07206321770387" lon="9.513226510748481"><ele>473.0</ele><time>2026-03-28T13:36:19Z</time></trkpt><trkpt lat="40.071991410427756" lon="9.513334820465147"><ele>473.0</ele><time>2026-03-28T13:36:20Z</time></trkpt><trkpt lat="40.07190263896782" lon="9.513423086069956"><ele>472.99999999999994</ele><time>2026-03-28T13:36:21Z</time></trkpt><trkpt lat="40.07180444102407" lon="9.513488804527238"><ele>472.99999999999994</ele><time>2026-03-28T13:36:22Z</time></trkpt><trkpt lat="40.07170146526432" lon="9.51352413983997"><ele>473.0</ele><time>2026-03-28T13:36:23Z</time></trkpt><trkpt lat="40.07160588143237" lon="9.513554076039132"><ele>473.0</ele><time>2026-03-28T13:36:24Z</time></trkpt><trkpt lat="40.07152619353014" lon="9.513609083280747"><ele>473.0</ele><time>2026-03-28T13:36:25Z</time></trkpt><trkpt lat="40.071467115900106" lon="9.513701333832701"><ele>472.99999999999994</ele><time>2026-03-28T13:36:26Z</time></trkpt><trkpt lat="40.071416214218765" lon="9.513808599117322"><ele>472.99999999999994</ele><time>2026-03-28T13:36:27Z</time></trkpt><trkpt lat="40.071353273338296" lon="9.513898001985675"><ele>473.0</ele><time>2026-03-28T13:36:28Z</time></trkpt><trkpt lat="40.07126597200453" lon="9.513949310095507"><ele>473.0</ele><time>2026-03-28T13:36:29Z</time></trkpt><trkpt lat="40.07116092698298" lon="9.51395759523097"><ele>471.59999999999997</ele><time>2026-03-28T13:36:30Z</time></trkpt><trkpt lat="40.071056290375836" lon="9.513959236557493"><ele>470.19999999999993</ele><time>2026-03-28T13:36:31Z</time></trkpt><trkpt lat="40.0709518247432" lon="9.51396124862372"><ele>468.8</ele><time>2026-03-28T13:36:32Z</time></trkpt><trkpt lat="40.07085967486513" lon="9.513965366313558"><ele>467.4</ele><time>2026-03-28T13:36:33Z</time></trkpt><trkpt lat="40.070780136028375" lon="9.513959917456516"><ele>466.0</ele><time>2026-03-28T13:36:34Z</time></trkpt><trkpt lat="40.07070791412635" lon="9.51392486810853"><ele>465.6</ele><time>2026-03-28T13:36:35Z</time></trkpt><trkpt lat="40.0706567435805" lon="9.513846917485276"><ele>465.20000000000005</ele><time>2026-03-28T13:36:36Z</time></trkpt><trkpt lat="40.07063186127183" lon="9.51373609439184"><ele>464.79999999999995</ele><time>2026-03-28T13:36:37Z</time></trkpt><trkpt lat="40.07063442946273" lon="9.513613274707128"><ele>464.4</ele><time>2026-03-28T13:36:38Z</time></trkpt><trkpt lat="40.07066343897821" lon="9.51348901963993"><ele>464.0</ele><time>2026-03-28T13:36:39Z</time></trkpt><trkpt lat="40.07070643634707" lon="9.513365376319758"><ele>465.6</ele><time>2026-03-28T13:36:40Z</time></trkpt><trkpt lat="40.070761473359035" lon="9.513244175745868"><ele>467.2</ele><time>2026-03-28T13:36:41Z</time></trkpt><trkpt lat="40.07081086662527" lon="9.513133556924803"><ele>468.80000000000007</ele><time>2026-03-28T13:36:42Z</time></trkpt><trkpt lat="40.07087939004655" lon="9.513055128950302"><ele>470.40000000000003</ele><time>2026-03-28T13:36:43Z</time></trkpt><trkpt lat="40.0709239624161" lon="9.51296031769511"><ele>472.0</ele><time>2026-03-28T13:36:44Z</time></trkpt><trkpt lat="40.07095518686556" lon="9.51285971741231"><ele>472.0</ele><time>2026-03-28T13:36:45Z</time></trkpt><trkpt lat="40.07096471368541" lon="9.512745980451976"><ele>472.00000000000006</ele><time>2026-03-28T13:36:46Z</time></trkpt><trkpt lat="40.0709389377287" lon="9.512628555769522"><ele>472.00000000000006</ele><time>2026-03-28T13:36:47Z</time></trkpt><trkpt lat="40.07090944834887" lon="9.512507661398953"><ele>472.0</ele><time>2026-03-28T13:36:48Z</time></trkpt><trkpt lat="40.070885090579154" lon="9.512377564692377"><ele>472.0</ele><time>2026-03-28T13:36:49Z</time></trkpt><trkpt lat="40.07081044608712" lon="9.512267860048677"><ele>469.0</ele><time>2026-03-28T13:36:50Z</time></trkpt><trkpt lat="40.07073610115484" lon="9.512159457688723"><ele>466.0</ele><time>2026-03-28T13:36:51Z</time></trkpt><trkpt lat="40.07065126585861" lon="9.512056407110576"><ele>463.0</ele><time>2026-03-28T13:36:52Z</time></trkpt><trkpt lat="40.07056605829668" lon="9.51194946457416"><ele>460.0</ele><time>2026-03-28T13:36:53Z</time></trkpt><trkpt lat="40.07047812023034" lon="9.511836606222362"><ele>460.0</ele><time>2026-03-28T13:36:54Z</time></trkpt><trkpt lat="40.070386928915674" lon="9.51172463273278"><ele>460.0</ele><time>2026-03-28T13:36:55Z</time></trkpt><trkpt lat="40.070297344908276" lon="9.511612160899427"><ele>460.0</ele><time>2026-03-28T13:36:56Z</time></trkpt><trkpt lat="40.07021315747256" lon="9.511505089615627"><ele>460.0</ele><time>2026-03-28T13:36:57Z</time></trkpt><trkpt lat="40.070131216169784" lon="9.511405156134812"><ele>460.0</ele><time>2026-03-28T13:36:58Z</time></trkpt><trkpt lat="40.07005244737327" lon="9.511311573243962"><ele>460.0</ele><time>2026-03-28T13:36:59Z</time></trkpt><trkpt lat="40.06997043288475" lon="9.511234813897904"><ele>460.0</ele><time>2026-03-28T13:37:00Z</time></trkpt><trkpt lat="40.06987894943908" lon="9.511193410835682"><ele>460.0</ele><time>2026-03-28T13:37:01Z</time></trkpt><trkpt lat="40.06978465125195" lon="9.511203952195595"><ele>460.0</ele><time>2026-03-28T13:37:02Z</time></trkpt><trkpt lat="40.06969894326396" lon="9.511265808298223"><ele>459.25</ele><time>2026-03-28T13:37:03Z</time></trkpt><trkpt lat="40.06961754530016" lon="9.511352987161038"><ele>458.5</ele><time>2026-03-28T13:37:04Z</time></trkpt><trkpt lat="40.06952469649039" lon="9.511436252804073"><ele>457.75</ele><time>2026-03-28T13:37:05Z</time></trkpt><trkpt lat="40.069414822624715" lon="9.511494543892555"><ele>457.0</ele><time>2026-03-28T13:37:06Z</time></trkpt><trkpt lat="40.06929735268758" lon="9.51153344588333"><ele>457.0</ele><time>2026-03-28T13:37:07Z</time></trkpt><trkpt lat="40.069177183912956" lon="9.511551735072347"><ele>457.0</ele><time>2026-03-28T13:37:08Z</time></trkpt><trkpt lat="40.06904738305292" lon="9.511570940282178"><ele>457.0</ele><time>2026-03-28T13:37:09Z</time></trkpt><trkpt lat="40.068912158135284" lon="9.51159014263318"><ele>457.0</ele><time>2026-03-28T13:37:10Z</time></trkpt><trkpt lat="40.06877719415599" lon="9.511614465966646"><ele>457.75</ele><time>2026-03-28T13:37:11Z</time></trkpt><trkpt lat="40.06864177990949" lon="9.511639476459498"><ele>458.5</ele><time>2026-03-28T13:37:12Z</time></trkpt><trkpt lat="40.068506022850904" lon="9.511656577176995"><ele>459.25</ele><time>2026-03-28T13:37:13Z</time></trkpt><trkpt lat="40.06836843778026" lon="9.511661618435403"><ele>460.0</ele><time>2026-03-28T13:37:14Z</time></trkpt><trkpt lat="40.068230956650595" lon="9.51165078149616"><ele>460.5</ele><time>2026-03-28T13:37:15Z</time></trkpt><trkpt lat="40.06809300880125" lon="9.511632566239795"><ele>461.0</ele><time>2026-03-28T13:37:16Z</time></trkpt><trkpt lat="40.06795506194083" lon="9.511617099634382"><ele>461.5</ele><time>2026-03-28T13:37:17Z</time></trkpt><trkpt lat="40.067816784926784" lon="9.511620138480838"><ele>462.0</ele><time>2026-03-28T13:37:18Z</time></trkpt><trkpt lat="40.06768372918307" lon="9.511663567848636"><ele>462.0</ele><time>2026-03-28T13:37:19Z</time></trkpt><trkpt lat="40.06755701095038" lon="9.511730827354421"><ele>462.0</ele><time>2026-03-28T13:37:20Z</time></trkpt><trkpt lat="40.06742685386137" lon="9.511785321151523"><ele>462.0</ele><time>2026-03-28T13:37:21Z</time></trkpt><trkpt lat="40.0672907363067" lon="9.511812431401244"><ele>462.0</ele><time>2026-03-28T13:37:22Z</time></trkpt><trkpt lat="40.067149952877486" lon="9.51181494811234"><ele>463.5</ele><time>2026-03-28T13:37:23Z</time></trkpt><trkpt lat="40.067008515372514" lon="9.511814840703181"><ele>465.0</ele><time>2026-03-28T13:37:24Z</time></trkpt><trkpt lat="40.06686879126306" lon="9.511818844560143"><ele>466.5</ele><time>2026-03-28T13:37:25Z</time></trkpt><trkpt lat="40.06673487975206" lon="9.511829563132368"><ele>468.0</ele><time>2026-03-28T13:37:26Z</time></trkpt><trkpt lat="40.0666082023566" lon="9.511874684443526"><ele>464.75</ele><time>2026-03-28T13:37:27Z</time></trkpt><trkpt lat="40.06649470396983" lon="9.511960609839745"><ele>461.5</ele><time>2026-03-28T13:37:28Z</time></trkpt><trkpt lat="40.06639313372579" lon="9.512072428899547"><ele>458.25</ele><time>2026-03-28T13:37:29Z</time></trkpt><trkpt lat="40.06629449543981" lon="9.51218930580756"><ele>455.0</ele><time>2026-03-28T13:37:30Z</time></trkpt><trkpt lat="40.066191486345495" lon="9.512302531718616"><ele>455.0</ele><time>2026-03-28T13:37:31Z</time></trkpt><trkpt lat="40.06608538775247" lon="9.512414785451051"><ele>455.0</ele><time>2026-03-28T13:37:32Z</time></trkpt><trkpt lat="40.065983215527275" lon="9.512525224160544"><ele>455.0</ele><time>2026-03-28T13:37:33Z</time></trkpt><trkpt lat="40.06588517360003" lon="9.512636102067496"><ele>455.0</ele><time>2026-03-28T13:37:34Z</time></trkpt><trkpt lat="40.06579032513509" lon="9.51274337411825"><ele>455.4</ele><time>2026-03-28T13:37:35Z</time></trkpt><trkpt lat="40.06569203425637" lon="9.512827591557121"><ele>455.8</ele><time>2026-03-28T13:37:36Z</time></trkpt><trkpt lat="40.06558136212701" lon="9.51287184387831"><ele>456.20000000000005</ele><time>2026-03-28T13:37:37Z</time></trkpt><trkpt lat="40.06546949682706" lon="9.512880605651636"><ele>456.6</ele><time>2026-03-28T13:37:38Z</time></trkpt><trkpt lat="40.06537286010626" lon="9.512924268494634"><ele>457.0</ele><time>2026-03-28T13:37:39Z</time></trkpt><trkpt lat="40.06529759520562" lon="9.513022169219598"><ele>453.40000000000003</ele><time>2026-03-28T13:37:40Z</time></trkpt><trkpt lat="40.06523941029695" lon="9.513134351529178"><ele>449.80000000000007</ele><time>2026-03-28T13:37:41Z</time></trkpt><trkpt lat="40.06515835158814" lon="9.513220748191713"><ele>446.2</ele><time>2026-03-28T13:37:42Z</time></trkpt><trkpt lat="40.06505810133276" lon="9.513255258627744"><ele>442.6</ele><time>2026-03-28T13:37:43Z</time></trkpt><trkpt lat="40.06496431127321" lon="9.5132076241624"><ele>439.0</ele><time>2026-03-28T13:37:44Z</time></trkpt><trkpt lat="40.06488389328087" lon="9.513132192754998"><ele>439.25</ele><time>2026-03-28T13:37:45Z</time></trkpt><trkpt lat="40.06478607579039" lon="9.51305335816466"><ele>439.5</ele><time>2026-03-28T13:37:46Z</time></trkpt><trkpt lat="40.064694529730126" lon="9.51296149162123"><ele>439.75</ele><time>2026-03-28T13:37:47Z</time></trkpt><trkpt lat="40.06460290546615" lon="9.512860582816884"><ele>440.0</ele><time>2026-03-28T13:37:48Z</time></trkpt><trkpt lat="40.064521753767096" lon="9.512746585425948"><ele>440.0</ele><time>2026-03-28T13:37:49Z</time></trkpt><trkpt lat="40.06445466572082" lon="9.512620185639447"><ele>440.0</ele><time>2026-03-28T13:37:50Z</time></trkpt><trkpt lat="40.064356673783315" lon="9.512537987220428"><ele>440.0</ele><time>2026-03-28T13:37:51Z</time></trkpt><trkpt lat="40.06423676854363" lon="9.512526654761196"><ele>440.0</ele><time>2026-03-28T13:37:52Z</time></trkpt><trkpt lat="40.064129212961454" lon="9.512480735360814"><ele>435.2</ele><time>2026-03-28T13:37:53Z</time></trkpt><trkpt lat="40.06401774799626" lon="9.512452831937072"><ele>430.4</ele><time>2026-03-28T13:37:54Z</time></trkpt><trkpt lat="40.06391326966688" lon="9.512406793913712"><ele>425.6</ele><time>2026-03-28T13:37:55Z</time></trkpt><trkpt lat="40.06381033262023" lon="9.512347693050254"><ele>420.8</ele><time>2026-03-28T13:37:56Z</time></trkpt><trkpt lat="40.06372974147767" lon="9.512244609437735"><ele>416.0</ele><time>2026-03-28T13:37:57Z</time></trkpt><trkpt lat="40.06368285155809" lon="9.512111917508761"><ele>419.0</ele><time>2026-03-28T13:37:58Z</time></trkpt><trkpt lat="40.06364991255775" lon="9.511968822476259"><ele>422.0</ele><time>2026-03-28T13:37:59Z</time></trkpt><trkpt lat="40.06361871709733" lon="9.51181601996183"><ele>425.0</ele><time>2026-03-28T13:38:00Z</time></trkpt><trkpt lat="40.06359201573568" lon="9.511662238514687"><ele>428.0</ele><time>2026-03-28T13:38:01Z</time></trkpt><trkpt lat="40.063570585608744" lon="9.511507574556001"><ele>428.0</ele><time>2026-03-28T13:38:02Z</time></trkpt><trkpt lat="40.063555106665795" lon="9.511357647874505"><ele>427.99999999999994</ele><time>2026-03-28T13:38:03Z</time></trkpt><trkpt lat="40.063601203910935" lon="9.511227020823094"><ele>427.99999999999994</ele><time>2026-03-28T13:38:04Z</time></trkpt><trkpt lat="40.06360545235366" lon="9.51109925897845"><ele>428.0</ele><time>2026-03-28T13:38:05Z</time></trkpt><trkpt lat="40.0635555560951" lon="9.510985468578165"><ele>428.0</ele><time>2026-03-28T13:38:06Z</time></trkpt><trkpt lat="40.063515173087644" lon="9.510882045600013"><ele>430.2</ele><time>2026-03-28T13:38:07Z</time></trkpt><trkpt lat="40.06344625095664" lon="9.510810105249416"><ele>432.4</ele><time>2026-03-28T13:38:08Z</time></trkpt><trkpt lat="40.06335526567168" lon="9.510782896795169"><ele>434.59999999999997</ele><time>2026-03-28T13:38:09Z</time></trkpt><trkpt lat="40.06326132914773" lon="9.510825544329286"><ele>436.79999999999995</ele><time>2026-03-28T13:38:10Z</time></trkpt><trkpt lat="40.06317316584434" lon="9.510881666982183"><ele>439.0</ele><time>2026-03-28T13:38:11Z</time></trkpt><trkpt lat="40.06307895364319" lon="9.510935281648017"><ele>441.4</ele><time>2026-03-28T13:38:12Z</time></trkpt><trkpt lat="40.06297686805953" lon="9.510965172053476"><ele>443.79999999999995</ele><time>2026-03-28T13:38:13Z</time></trkpt><trkpt lat="40.06286683153796" lon="9.510980105150198"><ele>446.20000000000005</ele><time>2026-03-28T13:38:14Z</time></trkpt><trkpt lat="40.06275264157853" lon="9.510992529138614"><ele>448.6</ele><time>2026-03-28T13:38:15Z</time></trkpt><trkpt lat="40.06263451140776" lon="9.511009975408149"><ele>451.0</ele><time>2026-03-28T13:38:16Z</time></trkpt><trkpt lat="40.06251498567871" lon="9.511025055547366"><ele>450.5</ele><time>2026-03-28T13:38:17Z</time></trkpt><trkpt lat="40.062396216994486" lon="9.511037574651295"><ele>450.0</ele><time>2026-03-28T13:38:18Z</time></trkpt><trkpt lat="40.06228684851317" lon="9.511083974352555"><ele>449.5</ele><time>2026-03-28T13:38:19Z</time></trkpt><trkpt lat="40.06219070798705" lon="9.511168917643847"><ele>449.0</ele><time>2026-03-28T13:38:20Z</time></trkpt><trkpt lat="40.06210085028599" lon="9.511267284782054"><ele>449.0</ele><time>2026-03-28T13:38:21Z</time></trkpt><trkpt lat="40.062005410891814" lon="9.511357251486233"><ele>449.0</ele><time>2026-03-28T13:38:22Z</time></trkpt><trkpt lat="40.06191458505529" lon="9.511456162382473"><ele>449.0</ele><time>2026-03-28T13:38:23Z</time></trkpt><trkpt lat="40.06183421134221" lon="9.511575792940675"><ele>449.0</ele><time>2026-03-28T13:38:24Z</time></trkpt><trkpt lat="40.06177204043967" lon="9.511716888983297"><ele>449.0</ele><time>2026-03-28T13:38:25Z</time></trkpt><trkpt lat="40.061716648636384" lon="9.511864385571883"><ele>449.0</ele><time>2026-03-28T13:38:26Z</time></trkpt><trkpt lat="40.06165509631922" lon="9.512000074234818"><ele>449.0</ele><time>2026-03-28T13:38:27Z</time></trkpt><trkpt lat="40.06158614090025" lon="9.512114454183124"><ele>449.0</ele><time>2026-03-28T13:38:28Z</time></trkpt><trkpt lat="40.06149690237961" lon="9.51219388446866"><ele>446.0</ele><time>2026-03-28T13:38:29Z</time></trkpt><trkpt lat="40.061399672620375" lon="9.512228161083245"><ele>443.0</ele><time>2026-03-28T13:38:30Z</time></trkpt><trkpt lat="40.0612871492525" lon="9.512210583556858"><ele>440.0</ele><time>2026-03-28T13:38:31Z</time></trkpt><trkpt lat="40.061164789903515" lon="9.512218282598937"><ele>437.0</ele><time>2026-03-28T13:38:32Z</time></trkpt><trkpt lat="40.06103555683091" lon="9.512191205875103"><ele>437.0</ele><time>2026-03-28T13:38:33Z</time></trkpt><trkpt lat="40.060902548117944" lon="9.512154039331381"><ele>437.0</ele><time>2026-03-28T13:38:34Z</time></trkpt><trkpt lat="40.06077360884166" lon="9.512109660641494"><ele>437.0</ele><time>2026-03-28T13:38:35Z</time></trkpt><trkpt lat="40.0606536184693" lon="9.51206777796648"><ele>437.0</ele><time>2026-03-28T13:38:36Z</time></trkpt><trkpt lat="40.060538061686565" lon="9.512033593413635"><ele>440.75</ele><time>2026-03-28T13:38:37Z</time></trkpt><trkpt lat="40.06042451466713" lon="9.512018239522538"><ele>444.5</ele><time>2026-03-28T13:38:38Z</time></trkpt><trkpt lat="40.06031556309593" lon="9.512043393177555"><ele>448.25</ele><time>2026-03-28T13:38:39Z</time></trkpt><trkpt lat="40.060217447623884" lon="9.512119234464347"><ele>452.0</ele><time>2026-03-28T13:38:40Z</time></trkpt><trkpt lat="40.06012785519009" lon="9.512224419049497"><ele>452.0</ele><time>2026-03-28T13:38:41Z</time></trkpt><trkpt lat="40.06003784853176" lon="9.512331176016477"><ele>452.0</ele><time>2026-03-28T13:38:42Z</time></trkpt><trkpt lat="40.059940810664706" lon="9.512432704172253"><ele>452.0</ele><time>2026-03-28T13:38:43Z</time></trkpt><trkpt lat="40.05983650343843" lon="9.512526570610838"><ele>452.0</ele><time>2026-03-28T13:38:44Z</time></trkpt><trkpt lat="40.059724835446254" lon="9.512605488157398"><ele>456.5</ele><time>2026-03-28T13:38:45Z</time></trkpt><trkpt lat="40.05960490909903" lon="9.512666222967807"><ele>461.0</ele><time>2026-03-28T13:38:46Z</time></trkpt><trkpt lat="40.05947760332477" lon="9.51270348246389"><ele>465.5</ele><time>2026-03-28T13:38:47Z</time></trkpt><trkpt lat="40.059346278344584" lon="9.512731467384919"><ele>470.0</ele><time>2026-03-28T13:38:48Z</time></trkpt><trkpt lat="40.05921327671218" lon="9.512771038464447"><ele>472.75</ele><time>2026-03-28T13:38:49Z</time></trkpt><trkpt lat="40.059077755735245" lon="9.51280709979096"><ele>475.5</ele><time>2026-03-28T13:38:50Z</time></trkpt><trkpt lat="40.05894028630816" lon="9.512841457752872"><ele>478.25</ele><time>2026-03-28T13:38:51Z</time></trkpt><trkpt lat="40.058800909434204" lon="9.51287762745511"><ele>481.0</ele><time>2026-03-28T13:38:52Z</time></trkpt><trkpt lat="40.05865938281284" lon="9.512914118787878"><ele>477.5</ele><time>2026-03-28T13:38:53Z</time></trkpt><trkpt lat="40.058518105048414" lon="9.51295068800825"><ele>474.0</ele><time>2026-03-28T13:38:54Z</time></trkpt><trkpt lat="40.058374618835344" lon="9.512986110800469"><ele>470.5</ele><time>2026-03-28T13:38:55Z</time></trkpt><trkpt lat="40.058231906480025" lon="9.513021629214336"><ele>467.0</ele><time>2026-03-28T13:38:56Z</time></trkpt><trkpt lat="40.05808665985116" lon="9.513058826462888"><ele>467.0</ele><time>2026-03-28T13:38:57Z</time></trkpt><trkpt lat="40.05794701385032" lon="9.513099545206703"><ele>467.0</ele><time>2026-03-28T13:38:58Z</time></trkpt><trkpt lat="40.05781289886825" lon="9.513151452067351"><ele>467.0</ele><time>2026-03-28T13:38:59Z</time></trkpt><trkpt lat="40.05769158686837" lon="9.5132184466412"><ele>467.0</ele><time>2026-03-28T13:39:00Z</time></trkpt><trkpt lat="40.05757958829809" lon="9.513282009980847"><ele>467.0</ele><time>2026-03-28T13:39:01Z</time></trkpt><trkpt lat="40.05747152819748" lon="9.513311129569209"><ele>467.00000000000006</ele><time>2026-03-28T13:39:02Z</time></trkpt><trkpt lat="40.05736749909536" lon="9.513299821841061"><ele>467.00000000000006</ele><time>2026-03-28T13:39:03Z</time></trkpt><trkpt lat="40.05726988756837" lon="9.513243621440411"><ele>467.0</ele><time>2026-03-28T13:39:04Z</time></trkpt><trkpt lat="40.05720619807538" lon="9.513126839171147"><ele>467.0</ele><time>2026-03-28T13:39:05Z</time></trkpt><trkpt lat="40.057151960967786" lon="9.513004046500196"><ele>463.6</ele><time>2026-03-28T13:39:06Z</time></trkpt><trkpt lat="40.05711459862863" lon="9.51287471573525"><ele>460.20000000000005</ele><time>2026-03-28T13:39:07Z</time></trkpt><trkpt lat="40.05712021789817" lon="9.51274554557654"><ele>456.8</ele><time>2026-03-28T13:39:08Z</time></trkpt><trkpt lat="40.05716143657447" lon="9.512626873394149"><ele>453.4</ele><time>2026-03-28T13:39:09Z</time></trkpt><trkpt lat="40.057217951647544" lon="9.512486373290917"><ele>450.0</ele><time>2026-03-28T13:39:10Z</time></trkpt><trkpt lat="40.05725925037579" lon="9.51234048163719"><ele>450.0</ele><time>2026-03-28T13:39:11Z</time></trkpt><trkpt lat="40.057330819973906" lon="9.512197507887452"><ele>450.0</ele><time>2026-03-28T13:39:12Z</time></trkpt><trkpt lat="40.05739054930197" lon="9.512043305574686"><ele>450.0</ele><time>2026-03-28T13:39:13Z</time></trkpt><trkpt lat="40.05744910350677" lon="9.51189213723335"><ele>450.0</ele><time>2026-03-28T13:39:14Z</time></trkpt><trkpt lat="40.05750543697516" lon="9.511748917092739"><ele>453.75</ele><time>2026-03-28T13:39:15Z</time></trkpt><trkpt lat="40.05756063453855" lon="9.511608834613849"><ele>457.5</ele><time>2026-03-28T13:39:16Z</time></trkpt><trkpt lat="40.05766493301714" lon="9.511532026173585"><ele>461.25</ele><time>2026-03-28T13:39:17Z</time></trkpt><trkpt lat="40.05775143161539" lon="9.511432261311782"><ele>465.0</ele><time>2026-03-28T13:39:18Z</time></trkpt><trkpt lat="40.057823990194414" lon="9.51131504754383"><ele>462.5</ele><time>2026-03-28T13:39:19Z</time></trkpt><trkpt lat="40.05786825182777" lon="9.511168546243228"><ele>460.0</ele><time>2026-03-28T13:39:20Z</time></trkpt><trkpt lat="40.05789736126433" lon="9.511007173951294"><ele>457.5</ele><time>2026-03-28T13:39:21Z</time></trkpt><trkpt lat="40.05792882595656" lon="9.510841952072395"><ele>455.0</ele><time>2026-03-28T13:39:22Z</time></trkpt><trkpt lat="40.05796437893466" lon="9.51067580918089"><ele>455.0</ele><time>2026-03-28T13:39:23Z</time></trkpt><trkpt lat="40.05800641539412" lon="9.510514924257736"><ele>455.0</ele><time>2026-03-28T13:39:24Z</time></trkpt><trkpt lat="40.05805316317549" lon="9.51036644205046"><ele>455.0</ele><time>2026-03-28T13:39:25Z</time></trkpt><trkpt lat="40.05809620319512" lon="9.510225339996484"><ele>455.0</ele><time>2026-03-28T13:39:26Z</time></trkpt><trkpt lat="40.05814410839255" lon="9.510098301904065"><ele>456.8</ele><time>2026-03-28T13:39:27Z</time></trkpt><trkpt lat="40.058146260057946" lon="9.509960253396871"><ele>458.6</ele><time>2026-03-28T13:39:28Z</time></trkpt><trkpt lat="40.05810826881111" lon="9.509832225468989"><ele>460.4</ele><time>2026-03-28T13:39:29Z</time></trkpt><trkpt lat="40.058014054567366" lon="9.509750324977542"><ele>462.2</ele><time>2026-03-28T13:39:30Z</time></trkpt><trkpt lat="40.05790498016831" lon="9.509694582523993"><ele>464.0</ele><time>2026-03-28T13:39:31Z</time></trkpt><trkpt lat="40.057780625631466" lon="9.509657251218526"><ele>464.0</ele><time>2026-03-28T13:39:32Z</time></trkpt><trkpt lat="40.0576505621316" lon="9.509625415816844"><ele>464.0</ele><time>2026-03-28T13:39:33Z</time></trkpt><trkpt lat="40.05751479269272" lon="9.509585915741985"><ele>464.0</ele><time>2026-03-28T13:39:34Z</time></trkpt><trkpt lat="40.0573762147156" lon="9.509521608158257"><ele>464.0</ele><time>2026-03-28T13:39:35Z</time></trkpt><trkpt lat="40.057237115147345" lon="9.509478279032512"><ele>464.0</ele><time>2026-03-28T13:39:36Z</time></trkpt><trkpt lat="40.05710748419252" lon="9.509439135096498"><ele>464.0</ele><time>2026-03-28T13:39:37Z</time></trkpt><trkpt lat="40.056987901297056" lon="9.50941553886329"><ele>464.0</ele><time>2026-03-28T13:39:38Z</time></trkpt><trkpt lat="40.05689019528723" lon="9.509342990269566"><ele>464.0</ele><time>2026-03-28T13:39:39Z</time></trkpt><trkpt lat="40.056830253382046" lon="9.509232902966914"><ele>464.0</ele><time>2026-03-28T13:39:40Z</time></trkpt><trkpt lat="40.05684380786335" lon="9.509107232136023"><ele>464.0</ele><time>2026-03-28T13:39:41Z</time></trkpt><trkpt lat="40.05686689858021" lon="9.509009417344846"><ele>464.0</ele><time>2026-03-28T13:39:42Z</time></trkpt><trkpt lat="40.05695157392267" lon="9.50895036258662"><ele>464.0</ele><time>2026-03-28T13:39:43Z</time></trkpt><trkpt lat="40.05705897739296" lon="9.508924502474203"><ele>464.0</ele><time>2026-03-28T13:39:44Z</time></trkpt><trkpt lat="40.057181379089606" lon="9.508907251129743"><ele>464.0</ele><time>2026-03-28T13:39:45Z</time></trkpt><trkpt lat="40.05731115476505" lon="9.508878757672248"><ele>464.0</ele><time>2026-03-28T13:39:46Z</time></trkpt><trkpt lat="40.057445837791256" lon="9.508838690883989"><ele>464.0</ele><time>2026-03-28T13:39:47Z</time></trkpt><trkpt lat="40.057583719610804" lon="9.508788025764602"><ele>464.0</ele><time>2026-03-28T13:39:48Z</time></trkpt><trkpt lat="40.05772134466382" lon="9.508733920142493"><ele>464.0</ele><time>2026-03-28T13:39:49Z</time></trkpt><trkpt lat="40.0578476468636" lon="9.50867966830677"><ele>464.0</ele><time>2026-03-28T13:39:50Z</time></trkpt><trkpt lat="40.05796587066056" lon="9.50862887833389"><ele>464.0</ele><time>2026-03-28T13:39:51Z</time></trkpt><trkpt lat="40.058081476363" lon="9.508596914793772"><ele>464.0</ele><time>2026-03-28T13:39:52Z</time></trkpt><trkpt lat="40.0582028400044" lon="9.508603077963222"><ele>467.4</ele><time>2026-03-28T13:39:53Z</time></trkpt><trkpt lat="40.05831668900535" lon="9.508626449997926"><ele>470.79999999999995</ele><time>2026-03-28T13:39:54Z</time></trkpt><trkpt lat="40.05841552743822" lon="9.508601241603172"><ele>474.20000000000005</ele><time>2026-03-28T13:39:55Z</time></trkpt><trkpt lat="40.05849683813153" lon="9.508523980337706"><ele>477.6</ele><time>2026-03-28T13:39:56Z</time></trkpt><trkpt lat="40.05855709426689" lon="9.508407696797223"><ele>481.0</ele><time>2026-03-28T13:39:57Z</time></trkpt><trkpt lat="40.058607591766894" lon="9.50827766962647"><ele>481.0</ele><time>2026-03-28T13:39:58Z</time></trkpt><trkpt lat="40.0586795653262" lon="9.508157040107436"><ele>481.0</ele><time>2026-03-28T13:39:59Z</time></trkpt><trkpt lat="40.058768315341716" lon="9.508047108730953"><ele>481.0</ele><time>2026-03-28T13:40:00Z</time></trkpt><trkpt lat="40.05886121881144" lon="9.507934951732977"><ele>481.0</ele><time>2026-03-28T13:40:01Z</time></trkpt><trkpt lat="40.05895730548171" lon="9.50782660418523"><ele>483.4</ele><time>2026-03-28T13:40:02Z</time></trkpt><trkpt lat="40.059059692198915" lon="9.507754981541469"><ele>485.8</ele><time>2026-03-28T13:40:03Z</time></trkpt><trkpt lat="40.059166788380445" lon="9.507723097389722"><ele>488.19999999999993</ele><time>2026-03-28T13:40:04Z</time></trkpt><trkpt lat="40.059260280058055" lon="9.507683055036475"><ele>490.59999999999997</ele><time>2026-03-28T13:40:05Z</time></trkpt><trkpt lat="40.05934432607527" lon="9.507618057725587"><ele>493.0</ele><time>2026-03-28T13:40:06Z</time></trkpt><trkpt lat="40.05938544392006" lon="9.507494751137735"><ele>493.0</ele><time>2026-03-28T13:40:07Z</time></trkpt><trkpt lat="40.0593582316358" lon="9.507341970705744"><ele>493.0</ele><time>2026-03-28T13:40:08Z</time></trkpt><trkpt lat="40.059341869182816" lon="9.507192282517867"><ele>493.0</ele><time>2026-03-28T13:40:09Z</time></trkpt><trkpt lat="40.05931847091291" lon="9.50705067351292"><ele>493.0</ele><time>2026-03-28T13:40:10Z</time></trkpt><trkpt lat="40.0592937070053" lon="9.506895027599297"><ele>494.25</ele><time>2026-03-28T13:40:11Z</time></trkpt><trkpt lat="40.05926811756108" lon="9.50673212906204"><ele>495.5</ele><time>2026-03-28T13:40:12Z</time></trkpt><trkpt lat="40.059233200751365" lon="9.506567479965144"><ele>496.75</ele><time>2026-03-28T13:40:13Z</time></trkpt><trkpt lat="40.05922513460205" lon="9.506409083768048"><ele>498.0</ele><time>2026-03-28T13:40:14Z</time></trkpt><trkpt lat="40.05922180069842" lon="9.506266431371646"><ele>498.2</ele><time>2026-03-28T13:40:15Z</time></trkpt><trkpt lat="40.05920307303379" lon="9.506137181419165"><ele>498.4</ele><time>2026-03-28T13:40:16Z</time></trkpt><trkpt lat="40.05914674317271" lon="9.506030718277774"><ele>498.59999999999997</ele><time>2026-03-28T13:40:17Z</time></trkpt><trkpt lat="40.0590655091863" lon="9.505977714619242"><ele>498.79999999999995</ele><time>2026-03-28T13:40:18Z</time></trkpt><trkpt lat="40.05896988470455" lon="9.505980480506086"><ele>499.0</ele><time>2026-03-28T13:40:19Z</time></trkpt><trkpt lat="40.058861139556655" lon="9.506023263270702"><ele>499.0</ele><time>2026-03-28T13:40:20Z</time></trkpt><trkpt lat="40.058768947954384" lon="9.506047576038208"><ele>499.0</ele><time>2026-03-28T13:40:21Z</time></trkpt><trkpt lat="40.05868307225157" lon="9.506014043467706"><ele>499.0</ele><time>2026-03-28T13:40:22Z</time></trkpt><trkpt lat="40.05863577999115" lon="9.505909988118"><ele>499.0</ele><time>2026-03-28T13:40:23Z</time></trkpt><trkpt lat="40.05858121744521" lon="9.505808328618711"><ele>499.0</ele><time>2026-03-28T13:40:24Z</time></trkpt><trkpt lat="40.05854915780155" lon="9.50568334915906"><ele>499.0</ele><time>2026-03-28T13:40:25Z</time></trkpt><trkpt lat="40.058512509270535" lon="9.505571645928788"><ele>499.0</ele><time>2026-03-28T13:40:26Z</time></trkpt><trkpt lat="40.05841644913138" lon="9.505510653878655"><ele>499.0</ele><time>2026-03-28T13:40:27Z</time></trkpt><trkpt lat="40.05829801686217" lon="9.505537111886024"><ele>499.0</ele><time>2026-03-28T13:40:28Z</time></trkpt><trkpt lat="40.05818167041257" lon="9.505576690723174"><ele>499.0</ele><time>2026-03-28T13:40:29Z</time></trkpt><trkpt lat="40.05805383059041" lon="9.505625027703633"><ele>498.0</ele><time>2026-03-28T13:40:30Z</time></trkpt><trkpt lat="40.05791102032654" lon="9.505654885694595"><ele>497.0</ele><time>2026-03-28T13:40:31Z</time></trkpt><trkpt lat="40.05776821000264" lon="9.50569798981702"><ele>496.0</ele><time>2026-03-28T13:40:32Z</time></trkpt><trkpt lat="40.05762243929225" lon="9.505740932579288"><ele>495.0</ele><time>2026-03-28T13:40:33Z</time></trkpt><trkpt lat="40.057474782737074" lon="9.505783206180084"><ele>490.5</ele><time>2026-03-28T13:40:34Z</time></trkpt><trkpt lat="40.05733168575584" lon="9.505826146495648"><ele>486.0</ele><time>2026-03-28T13:40:35Z</time></trkpt><trkpt lat="40.0571946217526" lon="9.505865418912146"><ele>481.5</ele><time>2026-03-28T13:40:36Z</time></trkpt><trkpt lat="40.0570667938021" lon="9.505888417156674"><ele>477.0</ele><time>2026-03-28T13:40:37Z</time></trkpt><trkpt lat="40.05695014022564" lon="9.505899108538474"><ele>477.0</ele><time>2026-03-28T13:40:38Z</time></trkpt><trkpt lat="40.05687131364564" lon="9.505817210525619"><ele>477.00000000000006</ele><time>2026-03-28T13:40:39Z</time></trkpt><trkpt lat="40.05683325148082" lon="9.505709478296048"><ele>477.00000000000006</ele><time>2026-03-28T13:40:40Z</time></trkpt><trkpt lat="40.05681842261526" lon="9.505582779598933"><ele>477.0</ele><time>2026-03-28T13:40:41Z</time></trkpt><trkpt lat="40.05680566715162" lon="9.505428317803073"><ele>477.0</ele><time>2026-03-28T13:40:42Z</time></trkpt><trkpt lat="40.056818236548956" lon="9.505252806719293"><ele>477.5</ele><time>2026-03-28T13:40:43Z</time></trkpt><trkpt lat="40.05682597285143" lon="9.50506537429892"><ele>478.0</ele><time>2026-03-28T13:40:44Z</time></trkpt><trkpt lat="40.056830033938056" lon="9.50487238056845"><ele>478.5</ele><time>2026-03-28T13:40:45Z</time></trkpt><trkpt lat="40.05683801982546" lon="9.504671160135285"><ele>479.0</ele><time>2026-03-28T13:40:46Z</time></trkpt><trkpt lat="40.056776650707874" lon="9.504480754550848"><ele>480.0</ele><time>2026-03-28T13:40:47Z</time></trkpt><trkpt lat="40.05672492102856" lon="9.504284068631044"><ele>481.0</ele><time>2026-03-28T13:40:48Z</time></trkpt><trkpt lat="40.05671663296073" lon="9.504075928381642"><ele>482.0</ele><time>2026-03-28T13:40:49Z</time></trkpt><trkpt lat="40.05670442334407" lon="9.5038685340617"><ele>482.75</ele><time>2026-03-28T13:40:50Z</time></trkpt><trkpt lat="40.05667420317448" lon="9.50367125847781"><ele>483.5</ele><time>2026-03-28T13:40:51Z</time></trkpt><trkpt lat="40.05665957215758" lon="9.503483280482364"><ele>484.25</ele><time>2026-03-28T13:40:52Z</time></trkpt><trkpt lat="40.05663425928113" lon="9.503312130142874"><ele>485.0</ele><time>2026-03-28T13:40:53Z</time></trkpt><trkpt lat="40.05658223852929" lon="9.503154493492726"><ele>482.0</ele><time>2026-03-28T13:40:54Z</time></trkpt><trkpt lat="40.056503529869964" lon="9.503020888570024"><ele>479.0</ele><time>2026-03-28T13:40:55Z</time></trkpt><trkpt lat="40.056410748511006" lon="9.502933305195809"><ele>476.0</ele><time>2026-03-28T13:40:56Z</time></trkpt><trkpt lat="40.05631289066338" lon="9.502906555358102"><ele>473.0</ele><time>2026-03-28T13:40:57Z</time></trkpt><trkpt lat="40.056217809786475" lon="9.502941432018504"><ele>470.0</ele><time>2026-03-28T13:40:58Z</time></trkpt><trkpt lat="40.056132931166694" lon="9.50301479067058"><ele>468.4</ele><time>2026-03-28T13:40:59Z</time></trkpt><trkpt lat="40.05604552200816" lon="9.503082461619861"><ele>466.8</ele><time>2026-03-28T13:41:00Z</time></trkpt><trkpt lat="40.05595391751678" lon="9.50310043626806"><ele>465.20000000000005</ele><time>2026-03-28T13:41:01Z</time></trkpt><trkpt lat="40.055873567207676" lon="9.503060692026455"><ele>463.6</ele><time>2026-03-28T13:41:02Z</time></trkpt><trkpt lat="40.05581678943043" lon="9.50296674206415"><ele>462.0</ele><time>2026-03-28T13:41:03Z</time></trkpt><trkpt lat="40.05577161757506" lon="9.50284237402103"><ele>463.3333333333333</ele><time>2026-03-28T13:41:04Z</time></trkpt><trkpt lat="40.055741663164575" lon="9.50271076039408"><ele>464.66666666666663</ele><time>2026-03-28T13:41:05Z</time></trkpt><trkpt lat="40.0557428539961" lon="9.502593504143169"><ele>466.0</ele><time>2026-03-28T13:41:06Z</time></trkpt><trkpt lat="40.0557814155034" lon="9.502508775556237"><ele>467.3333333333333</ele><time>2026-03-28T13:41:07Z</time></trkpt><trkpt lat="40.05584750238065" lon="9.502456033613386"><ele>468.66666666666663</ele><time>2026-03-28T13:41:08Z</time></trkpt><trkpt lat="40.0559261900177" lon="9.502407543942889"><ele>470.0</ele><time>2026-03-28T13:41:09Z</time></trkpt><trkpt lat="40.05599120168627" lon="9.502317056222967"><ele>470.0</ele><time>2026-03-28T13:41:10Z</time></trkpt><trkpt lat="40.056042091443636" lon="9.502206892776433"><ele>470.0</ele><time>2026-03-28T13:41:11Z</time></trkpt><trkpt lat="40.05604905838493" lon="9.502086413419722"><ele>470.0</ele><time>2026-03-28T13:41:12Z</time></trkpt><trkpt lat="40.05605158546684" lon="9.50196401523519"><ele>470.0</ele><time>2026-03-28T13:41:13Z</time></trkpt><trkpt lat="40.05603795865875" lon="9.50185642885494"><ele>470.0</ele><time>2026-03-28T13:41:14Z</time></trkpt><trkpt lat="40.05597997928189" lon="9.50175910231137"><ele>470.0</ele><time>2026-03-28T13:41:15Z</time></trkpt><trkpt lat="40.05588800308678" lon="9.501693029106104"><ele>470.0</ele><time>2026-03-28T13:41:16Z</time></trkpt><trkpt lat="40.05578329820221" lon="9.501655893195089"><ele>470.0</ele><time>2026-03-28T13:41:17Z</time></trkpt><trkpt lat="40.055669378242484" lon="9.501635244234109"><ele>470.0</ele><time>2026-03-28T13:41:18Z</time></trkpt><trkpt lat="40.05555310440741" lon="9.501588456495035"><ele>470.0</ele><time>2026-03-28T13:41:19Z</time></trkpt><trkpt lat="40.05543320694045" lon="9.501544561795226"><ele>470.0</ele><time>2026-03-28T13:41:20Z</time></trkpt><trkpt lat="40.05531273231802" lon="9.501509013796774"><ele>470.0</ele><time>2026-03-28T13:41:21Z</time></trkpt><trkpt lat="40.055194248196585" lon="9.50145597073008"><ele>470.0</ele><time>2026-03-28T13:41:22Z</time></trkpt><trkpt lat="40.05507359225356" lon="9.50142246210635"><ele>470.0</ele><time>2026-03-28T13:41:23Z</time></trkpt><trkpt lat="40.05495706296597" lon="9.501386286762653"><ele>470.0</ele><time>2026-03-28T13:41:24Z</time></trkpt><trkpt lat="40.05484463461953" lon="9.501343713089579"><ele>470.0</ele><time>2026-03-28T13:41:25Z</time></trkpt><trkpt lat="40.05473566622857" lon="9.501314453241712"><ele>470.0</ele><time>2026-03-28T13:41:26Z</time></trkpt><trkpt lat="40.054648417171066" lon="9.501239789245638"><ele>469.8</ele><time>2026-03-28T13:41:27Z</time></trkpt><trkpt lat="40.054614135478126" lon="9.501114113935493"><ele>469.6</ele><time>2026-03-28T13:41:28Z</time></trkpt><trkpt lat="40.054585563202075" lon="9.500986894469403"><ele>469.4</ele><time>2026-03-28T13:41:29Z</time></trkpt><trkpt lat="40.05453838030625" lon="9.500855519514285"><ele>469.2</ele><time>2026-03-28T13:41:30Z</time></trkpt><trkpt lat="40.054496628812736" lon="9.500718038969937"><ele>469.0</ele><time>2026-03-28T13:41:31Z</time></trkpt><trkpt lat="40.0544684154621" lon="9.50056958936742"><ele>469.0</ele><time>2026-03-28T13:41:32Z</time></trkpt><trkpt lat="40.05441159831014" lon="9.500444866968541"><ele>469.0</ele><time>2026-03-28T13:41:33Z</time></trkpt><trkpt lat="40.054321967683485" lon="9.50035825498954"><ele>469.0</ele><time>2026-03-28T13:41:34Z</time></trkpt><trkpt lat="40.05430424061438" lon="9.500230135658704"><ele>469.0</ele><time>2026-03-28T13:41:35Z</time></trkpt><trkpt lat="40.05430156005006" lon="9.500103979900643"><ele>469.0</ele><time>2026-03-28T13:41:36Z</time></trkpt><trkpt lat="40.05430520709958" lon="9.499959163921865"><ele>471.75</ele><time>2026-03-28T13:41:37Z</time></trkpt><trkpt lat="40.05433297167126" lon="9.499808247209765"><ele>474.5</ele><time>2026-03-28T13:41:38Z</time></trkpt><trkpt lat="40.054400734885476" lon="9.49967637998096"><ele>477.25</ele><time>2026-03-28T13:41:39Z</time></trkpt><trkpt lat="40.05446374794132" lon="9.499532540927074"><ele>480.0</ele><time>2026-03-28T13:41:40Z</time></trkpt><trkpt lat="40.05452803003129" lon="9.499390278379174"><ele>481.2</ele><time>2026-03-28T13:41:41Z</time></trkpt><trkpt lat="40.05456947988701" lon="9.499234537982522"><ele>482.4</ele><time>2026-03-28T13:41:42Z</time></trkpt><trkpt lat="40.05461591741432" lon="9.499098589678272"><ele>483.6</ele><time>2026-03-28T13:41:43Z</time></trkpt><trkpt lat="40.05465642413445" lon="9.498984432480533"><ele>484.8</ele><time>2026-03-28T13:41:44Z</time></trkpt><trkpt lat="40.054653629205376" lon="9.498872747610909"><ele>486.0</ele><time>2026-03-28T13:41:45Z</time></trkpt><trkpt lat="40.054594927561354" lon="9.498778890014144"><ele>492.0</ele><time>2026-03-28T13:41:46Z</time></trkpt><trkpt lat="40.05449189822399" lon="9.498736829256462"><ele>498.0</ele><time>2026-03-28T13:41:47Z</time></trkpt><trkpt lat="40.05440113055759" lon="9.49867288322181"><ele>504.0</ele><time>2026-03-28T13:41:48Z</time></trkpt><trkpt lat="40.0542919688822" lon="9.498664659024724"><ele>510.0</ele><time>2026-03-28T13:41:49Z</time></trkpt><trkpt lat="40.05417662118829" lon="9.498672047019149"><ele>516.0</ele><time>2026-03-28T13:41:50Z</time></trkpt><trkpt lat="40.05404710424423" lon="9.498703345507932"><ele>513.5</ele><time>2026-03-28T13:41:51Z</time></trkpt><trkpt lat="40.0539220180504" lon="9.49875104199279"><ele>511.0</ele><time>2026-03-28T13:41:52Z</time></trkpt><trkpt lat="40.05380270468907" lon="9.498822238252844"><ele>508.5</ele><time>2026-03-28T13:41:53Z</time></trkpt><trkpt lat="40.05368879105722" lon="9.498901204841486"><ele>506.0</ele><time>2026-03-28T13:41:54Z</time></trkpt><trkpt lat="40.05356882184693" lon="9.498984537919837"><ele>506.0</ele><time>2026-03-28T13:41:55Z</time></trkpt><trkpt lat="40.0534457921172" lon="9.499056584902862"><ele>506.0</ele><time>2026-03-28T13:41:56Z</time></trkpt><trkpt lat="40.053327056639304" lon="9.49910929330271"><ele>506.0</ele><time>2026-03-28T13:41:57Z</time></trkpt><trkpt lat="40.05321557541796" lon="9.499177543846464"><ele>506.0</ele><time>2026-03-28T13:41:58Z</time></trkpt><trkpt lat="40.053123559051386" lon="9.49928237250024"><ele>509.4</ele><time>2026-03-28T13:41:59Z</time></trkpt><trkpt lat="40.053035074359194" lon="9.499391317828062"><ele>512.8</ele><time>2026-03-28T13:42:00Z</time></trkpt><trkpt lat="40.05293720870606" lon="9.499447357130382"><ele>516.1999999999999</ele><time>2026-03-28T13:42:01Z</time></trkpt><trkpt lat="40.052846280313275" lon="9.49947441585392"><ele>519.6</ele><time>2026-03-28T13:42:02Z</time></trkpt><trkpt lat="40.05276978977073" lon="9.499535607284916"><ele>523.0</ele><time>2026-03-28T13:42:03Z</time></trkpt><trkpt lat="40.052713749417244" lon="9.499652013370476"><ele>523.0</ele><time>2026-03-28T13:42:04Z</time></trkpt><trkpt lat="40.0526942110145" lon="9.499782125950295"><ele>523.0</ele><time>2026-03-28T13:42:05Z</time></trkpt><trkpt lat="40.05271442160235" lon="9.499903201744514"><ele>523.0</ele><time>2026-03-28T13:42:06Z</time></trkpt><trkpt lat="40.05276267229742" lon="9.50002291521262"><ele>523.0</ele><time>2026-03-28T13:42:07Z</time></trkpt><trkpt lat="40.05276925242021" lon="9.500132629625675"><ele>523.0</ele><time>2026-03-28T13:42:08Z</time></trkpt><trkpt lat="40.05271514713784" lon="9.50021496620825"><ele>523.0</ele><time>2026-03-28T13:42:09Z</time></trkpt><trkpt lat="40.05263820165918" lon="9.500244591785783"><ele>523.0</ele><time>2026-03-28T13:42:10Z</time></trkpt><trkpt lat="40.05255478096878" lon="9.500283008887868"><ele>523.0</ele><time>2026-03-28T13:42:11Z</time></trkpt><trkpt lat="40.05249543428549" lon="9.500381880119093"><ele>523.0</ele><time>2026-03-28T13:42:12Z</time></trkpt><trkpt lat="40.05245007323356" lon="9.500502315619046"><ele>523.0</ele><time>2026-03-28T13:42:13Z</time></trkpt><trkpt lat="40.05243594721169" lon="9.500641134780238"><ele>522.75</ele><time>2026-03-28T13:42:14Z</time></trkpt><trkpt lat="40.052453834844414" lon="9.50078934601582"><ele>522.5</ele><time>2026-03-28T13:42:15Z</time></trkpt><trkpt lat="40.052458071904454" lon="9.500949215975213"><ele>522.25</ele><time>2026-03-28T13:42:16Z</time></trkpt><trkpt lat="40.05246381056383" lon="9.501108419614686"><ele>522.0</ele><time>2026-03-28T13:42:17Z</time></trkpt><trkpt lat="40.05246726798113" lon="9.501270606842695"><ele>522.0</ele><time>2026-03-28T13:42:18Z</time></trkpt><trkpt lat="40.05247212742392" lon="9.501427356521546"><ele>522.0</ele><time>2026-03-28T13:42:19Z</time></trkpt><trkpt lat="40.05247170623445" lon="9.50158124237604"><ele>522.0</ele><time>2026-03-28T13:42:20Z</time></trkpt><trkpt lat="40.05247566232381" lon="9.50173374594639"><ele>522.0</ele><time>2026-03-28T13:42:21Z</time></trkpt><trkpt lat="40.05250789412738" lon="9.501876697761631"><ele>522.0</ele><time>2026-03-28T13:42:22Z</time></trkpt><trkpt lat="40.05256863020339" lon="9.502010853852886"><ele>522.0</ele><time>2026-03-28T13:42:23Z</time></trkpt><trkpt lat="40.05262607740853" lon="9.50215023813246"><ele>522.0</ele><time>2026-03-28T13:42:24Z</time></trkpt><trkpt lat="40.05266061814628" lon="9.502298611866756"><ele>522.0</ele><time>2026-03-28T13:42:25Z</time></trkpt><trkpt lat="40.05268445863267" lon="9.502445364699303"><ele>520.75</ele><time>2026-03-28T13:42:26Z</time></trkpt><trkpt lat="40.052679274950734" lon="9.502589514668445"><ele>519.5</ele><time>2026-03-28T13:42:27Z</time></trkpt><trkpt lat="40.05263524107438" lon="9.502730307176169"><ele>518.25</ele><time>2026-03-28T13:42:28Z</time></trkpt><trkpt lat="40.052571912391336" lon="9.502858793062792"><ele>517.0</ele><time>2026-03-28T13:42:29Z</time></trkpt><trkpt lat="40.05249644706932" lon="9.502979042696179"><ele>523.0</ele><time>2026-03-28T13:42:30Z</time></trkpt><trkpt lat="40.052406956798336" lon="9.503082405729922"><ele>529.0</ele><time>2026-03-28T13:42:31Z</time></trkpt><trkpt lat="40.05230772303122" lon="9.50316875083794"><ele>535.0</ele><time>2026-03-28T13:42:32Z</time></trkpt><trkpt lat="40.05219836655367" lon="9.503230424491692"><ele>541.0</ele><time>2026-03-28T13:42:33Z</time></trkpt><trkpt lat="40.052081941199276" lon="9.503266467211857"><ele>541.0</ele><time>2026-03-28T13:42:34Z</time></trkpt><trkpt lat="40.05197639398804" lon="9.503317979507978"><ele>541.0</ele><time>2026-03-28T13:42:35Z</time></trkpt><trkpt lat="40.051892420848226" lon="9.50341129886955"><ele>541.0</ele><time>2026-03-28T13:42:36Z</time></trkpt><trkpt lat="40.0518459952098" lon="9.503523268734673"><ele>541.0</ele><time>2026-03-28T13:42:37Z</time></trkpt><trkpt lat="40.05180329408889" lon="9.503650594674887"><ele>541.0</ele><time>2026-03-28T13:42:38Z</time></trkpt><trkpt lat="40.05172612763723" lon="9.50374966935563"><ele>537.0</ele><time>2026-03-28T13:42:39Z</time></trkpt><trkpt lat="40.0516356331709" lon="9.503836705581685"><ele>533.0</ele><time>2026-03-28T13:42:40Z</time></trkpt><trkpt lat="40.051544798146786" lon="9.503934634927184"><ele>529.0</ele><time>2026-03-28T13:42:41Z</time></trkpt><trkpt lat="40.05143647302247" lon="9.50398837213758"><ele>525.0</ele><time>2026-03-28T13:42:42Z</time></trkpt><trkpt lat="40.051348723772094" lon="9.504073381719847"><ele>524.2</ele><time>2026-03-28T13:42:43Z</time></trkpt><trkpt lat="40.05124873817671" lon="9.504097631311533"><ele>523.4</ele><time>2026-03-28T13:42:44Z</time></trkpt><trkpt lat="40.05114877075285" lon="9.504077671107929"><ele>522.6</ele><time>2026-03-28T13:42:45Z</time></trkpt><trkpt lat="40.051061411168114" lon="9.504011080365022"><ele>521.8</ele><time>2026-03-28T13:42:46Z</time></trkpt><trkpt lat="40.051022336669305" lon="9.503897621570937"><ele>521.0</ele><time>2026-03-28T13:42:47Z</time></trkpt><trkpt lat="40.0510099596128" lon="9.50378014490275"><ele>525.25</ele><time>2026-03-28T13:42:48Z</time></trkpt><trkpt lat="40.05098885411203" lon="9.503644049147173"><ele>529.5</ele><time>2026-03-28T13:42:49Z</time></trkpt><trkpt lat="40.050957484179605" lon="9.503503373208897"><ele>533.75</ele><time>2026-03-28T13:42:50Z</time></trkpt><trkpt lat="40.05094325236442" lon="9.503347503926632"><ele>538.0</ele><time>2026-03-28T13:42:51Z</time></trkpt><trkpt lat="40.05088673535002" lon="9.503205620666918"><ele>538.0</ele><time>2026-03-28T13:42:52Z</time></trkpt><trkpt lat="40.05082046491988" lon="9.503075611655758"><ele>538.0</ele><time>2026-03-28T13:42:53Z</time></trkpt><trkpt lat="40.05080242789354" lon="9.502922204577251"><ele>538.0</ele><time>2026-03-28T13:42:54Z</time></trkpt><trkpt lat="40.05076632075055" lon="9.502776342008282"><ele>538.0</ele><time>2026-03-28T13:42:55Z</time></trkpt><trkpt lat="40.050748349232485" lon="9.502624563144757"><ele>542.5</ele><time>2026-03-28T13:42:56Z</time></trkpt><trkpt lat="40.05074225015338" lon="9.502470890066087"><ele>547.0</ele><time>2026-03-28T13:42:57Z</time></trkpt><trkpt lat="40.05070757646397" lon="9.502324332865623"><ele>551.5</ele><time>2026-03-28T13:42:58Z</time></trkpt><trkpt lat="40.05066250651886" lon="9.50218251558004"><ele>556.0</ele><time>2026-03-28T13:42:59Z</time></trkpt><trkpt lat="40.050613854908725" lon="9.502045101035472"><ele>558.4</ele><time>2026-03-28T13:43:00Z</time></trkpt><trkpt lat="40.05054373152984" lon="9.50192220803124"><ele>560.8</ele><time>2026-03-28T13:43:01Z</time></trkpt><trkpt lat="40.05049266665265" lon="9.501787337214672"><ele>563.1999999999999</ele><time>2026-03-28T13:43:02Z</time></trkpt><trkpt lat="40.05045151443972" lon="9.501660584287258"><ele>565.6</ele><time>2026-03-28T13:43:03Z</time></trkpt><trkpt lat="40.050412025399986" lon="9.501547014600833"><ele>568.0</ele><time>2026-03-28T13:43:04Z</time></trkpt><trkpt lat="40.05037505478319" lon="9.501441087042009"><ele>568.0</ele><time>2026-03-28T13:43:05Z</time></trkpt><trkpt lat="40.05031177424548" lon="9.501352357731575"><ele>568.0</ele><time>2026-03-28T13:43:06Z</time></trkpt><trkpt lat="40.050221217860006" lon="9.501341453142372"><ele>568.0</ele><time>2026-03-28T13:43:07Z</time></trkpt><trkpt lat="40.05013779287318" lon="9.501331465693491"><ele>568.0</ele><time>2026-03-28T13:43:08Z</time></trkpt><trkpt lat="40.050061630858025" lon="9.501387703096055"><ele>568.0</ele><time>2026-03-28T13:43:09Z</time></trkpt><trkpt lat="40.050046315555974" lon="9.501498064404503"><ele>568.0</ele><time>2026-03-28T13:43:10Z</time></trkpt><trkpt lat="40.0500521416539" lon="9.501617054367964"><ele>568.0</ele><time>2026-03-28T13:43:11Z</time></trkpt><trkpt lat="40.05005926336331" lon="9.501736904356752"><ele>568.0</ele><time>2026-03-28T13:43:12Z</time></trkpt><trkpt lat="40.050037337034375" lon="9.501869072122036"><ele>568.0</ele><time>2026-03-28T13:43:13Z</time></trkpt><trkpt lat="40.049986637653284" lon="9.502003049840486"><ele>568.0</ele><time>2026-03-28T13:43:14Z</time></trkpt><trkpt lat="40.04994043704143" lon="9.50214455700543"><ele>568.0</ele><time>2026-03-28T13:43:15Z</time></trkpt><trkpt lat="40.049897921818086" lon="9.502297708088255"><ele>566.0</ele><time>2026-03-28T13:43:16Z</time></trkpt><trkpt lat="40.0498512175961" lon="9.502457783208866"><ele>564.0</ele><time>2026-03-28T13:43:17Z</time></trkpt><trkpt lat="40.049808040007186" lon="9.502622097981764"><ele>562.0</ele><time>2026-03-28T13:43:18Z</time></trkpt><trkpt lat="40.049776825725424" lon="9.502786694347735"><ele>560.0</ele><time>2026-03-28T13:43:19Z</time></trkpt><trkpt lat="40.049758578832616" lon="9.502945336419044"><ele>560.0</ele><time>2026-03-28T13:43:20Z</time></trkpt><trkpt lat="40.04974065763764" lon="9.503086140667394"><ele>560.0</ele><time>2026-03-28T13:43:21Z</time></trkpt><trkpt lat="40.04969257058135" lon="9.503198701948246"><ele>560.0</ele><time>2026-03-28T13:43:22Z</time></trkpt><trkpt lat="40.04960342909445" lon="9.503269383472691"><ele>560.0</ele><time>2026-03-28T13:43:23Z</time></trkpt><trkpt lat="40.04951585916654" lon="9.503345351275701"><ele>560.0</ele><time>2026-03-28T13:43:24Z</time></trkpt><trkpt lat="40.04941984250517" lon="9.50336135082512"><ele>560.0</ele><time>2026-03-28T13:43:25Z</time></trkpt><trkpt lat="40.049326199954784" lon="9.503287094088208"><ele>560.0</ele><time>2026-03-28T13:43:26Z</time></trkpt><trkpt lat="40.049208603279176" lon="9.50325457843649"><ele>560.0</ele><time>2026-03-28T13:43:27Z</time></trkpt><trkpt lat="40.04908401820731" lon="9.503263941324002"><ele>560.0</ele><time>2026-03-28T13:43:28Z</time></trkpt><trkpt lat="40.04896648247703" lon="9.503264768758855"><ele>557.4</ele><time>2026-03-28T13:43:29Z</time></trkpt><trkpt lat="40.04885379801668" lon="9.50325025032172"><ele>554.8</ele><time>2026-03-28T13:43:30Z</time></trkpt><trkpt lat="40.0487616813065" lon="9.503199593997653"><ele>552.2</ele><time>2026-03-28T13:43:31Z</time></trkpt><trkpt lat="40.04871537006328" lon="9.503091187622005"><ele>549.6</ele><time>2026-03-28T13:43:32Z</time></trkpt><trkpt lat="40.048648934321086" lon="9.502989074613186"><ele>547.0</ele><time>2026-03-28T13:43:33Z</time></trkpt><trkpt lat="40.048591506118065" lon="9.502866378460082"><ele>554.0</ele><time>2026-03-28T13:43:34Z</time></trkpt><trkpt lat="40.04852589453904" lon="9.502735628599845"><ele>561.0</ele><time>2026-03-28T13:43:35Z</time></trkpt><trkpt lat="40.04842353115852" lon="9.502644958666114"><ele>568.0</ele><time>2026-03-28T13:43:36Z</time></trkpt><trkpt lat="40.04829389591824" lon="9.502630666774822"><ele>575.0</ele><time>2026-03-28T13:43:37Z</time></trkpt><trkpt lat="40.048189487333595" lon="9.502581652478776"><ele>575.6</ele><time>2026-03-28T13:43:38Z</time></trkpt><trkpt lat="40.04811566096929" lon="9.502493604670759"><ele>576.2</ele><time>2026-03-28T13:43:39Z</time></trkpt><trkpt lat="40.04805752143789" lon="9.502399355570693"><ele>576.8</ele><time>2026-03-28T13:43:40Z</time></trkpt><trkpt lat="40.047977403366254" lon="9.502338569374542"><ele>577.4</ele><time>2026-03-28T13:43:41Z</time></trkpt><trkpt lat="40.04788153502896" lon="9.502335763564066"><ele>578.0</ele><time>2026-03-28T13:43:42Z</time></trkpt><trkpt lat="40.047774748194506" lon="9.502378433997604"><ele>578.0</ele><time>2026-03-28T13:43:43Z</time></trkpt><trkpt lat="40.047666164975176" lon="9.5024432852072"><ele>578.0</ele><time>2026-03-28T13:43:44Z</time></trkpt><trkpt lat="40.04756224170616" lon="9.50252063685404"><ele>578.0</ele><time>2026-03-28T13:43:45Z</time></trkpt><trkpt lat="40.04746776410006" lon="9.502582037634491"><ele>578.0</ele><time>2026-03-28T13:43:46Z</time></trkpt><trkpt lat="40.0473756453562" lon="9.502602544952971"><ele>578.0</ele><time>2026-03-28T13:43:47Z</time></trkpt><trkpt lat="40.04729741489626" lon="9.50254776594688"><ele>583.4</ele><time>2026-03-28T13:43:48Z</time></trkpt><trkpt lat="40.04721089346019" lon="9.502503885424478"><ele>588.8</ele><time>2026-03-28T13:43:49Z</time></trkpt><trkpt lat="40.04711717729006" lon="9.50245160443363"><ele>594.2</ele><time>2026-03-28T13:43:50Z</time></trkpt><trkpt lat="40.04702879392263" lon="9.502398660533787"><ele>599.6</ele><time>2026-03-28T13:43:51Z</time></trkpt><trkpt lat="40.04692721579834" lon="9.502388922395143"><ele>605.0</ele><time>2026-03-28T13:43:52Z</time></trkpt><trkpt lat="40.0468358229281" lon="9.502393442387039"><ele>605.0</ele><time>2026-03-28T13:43:53Z</time></trkpt><trkpt lat="40.04675427771554" lon="9.502411742579271"><ele>605.0</ele><time>2026-03-28T13:43:54Z</time></trkpt><trkpt lat="40.046701647008504" lon="9.502527210160164"><ele>605.0</ele><time>2026-03-28T13:43:55Z</time></trkpt><trkpt lat="40.04666669262891" lon="9.502650780173353"><ele>605.0</ele><time>2026-03-28T13:43:56Z</time></trkpt><trkpt lat="40.04665097501187" lon="9.502789046731506"><ele>605.0</ele><time>2026-03-28T13:43:57Z</time></trkpt><trkpt lat="40.046640256744396" lon="9.502935540806678"><ele>600.0</ele><time>2026-03-28T13:43:58Z</time></trkpt><trkpt lat="40.046637826342284" lon="9.503089967873644"><ele>595.0</ele><time>2026-03-28T13:43:59Z</time></trkpt><trkpt lat="40.046641929670045" lon="9.503248024603966"><ele>590.0</ele><time>2026-03-28T13:44:00Z</time></trkpt><trkpt lat="40.04663353223947" lon="9.503394042453841"><ele>585.0</ele><time>2026-03-28T13:44:01Z</time></trkpt><trkpt lat="40.04658738720399" lon="9.50352470959031"><ele>588.0</ele><time>2026-03-28T13:44:02Z</time></trkpt><trkpt lat="40.046511816646714" lon="9.503637918506637"><ele>591.0</ele><time>2026-03-28T13:44:03Z</time></trkpt><trkpt lat="40.046425229371835" lon="9.503737235963586"><ele>594.0</ele><time>2026-03-28T13:44:04Z</time></trkpt><trkpt lat="40.04633371801654" lon="9.503831420720417"><ele>597.0</ele><time>2026-03-28T13:44:05Z</time></trkpt><trkpt lat="40.0462319904352" lon="9.50391831663527"><ele>597.0</ele><time>2026-03-28T13:44:06Z</time></trkpt><trkpt lat="40.04612126813891" lon="9.503989195201198"><ele>597.0</ele><time>2026-03-28T13:44:07Z</time></trkpt><trkpt lat="40.046010092338435" lon="9.50405863195767"><ele>597.0</ele><time>2026-03-28T13:44:08Z</time></trkpt><trkpt lat="40.04589980626838" lon="9.504114241766539"><ele>597.0</ele><time>2026-03-28T13:44:09Z</time></trkpt><trkpt lat="40.045812183773016" lon="9.504208835647376"><ele>600.0</ele><time>2026-03-28T13:44:10Z</time></trkpt><trkpt lat="40.04571129787972" lon="9.50426987056696"><ele>603.0</ele><time>2026-03-28T13:44:11Z</time></trkpt><trkpt lat="40.04559757650195" lon="9.504273539042803"><ele>606.0</ele><time>2026-03-28T13:44:12Z</time></trkpt><trkpt lat="40.04547872441763" lon="9.504272123084949"><ele>609.0</ele><time>2026-03-28T13:44:13Z</time></trkpt><trkpt lat="40.04535664188548" lon="9.504293383594476"><ele>609.0</ele><time>2026-03-28T13:44:14Z</time></trkpt><trkpt lat="40.04523205191432" lon="9.504291439537356"><ele>609.0</ele><time>2026-03-28T13:44:15Z</time></trkpt><trkpt lat="40.04510780821485" lon="9.504296883739947"><ele>609.0</ele><time>2026-03-28T13:44:16Z</time></trkpt><trkpt lat="40.04498253655952" lon="9.504301833264938"><ele>609.0</ele><time>2026-03-28T13:44:17Z</time></trkpt><trkpt lat="40.04485716109253" lon="9.504311664646915"><ele>615.25</ele><time>2026-03-28T13:44:18Z</time></trkpt><trkpt lat="40.044735617593375" lon="9.504330000413157"><ele>621.5</ele><time>2026-03-28T13:44:19Z</time></trkpt><trkpt lat="40.044617940143965" lon="9.504368914686236"><ele>627.75</ele><time>2026-03-28T13:44:20Z</time></trkpt><trkpt lat="40.044516369680466" lon="9.504446378794746"><ele>634.0</ele><time>2026-03-28T13:44:21Z</time></trkpt><trkpt lat="40.04443964249231" lon="9.5045680595349"><ele>629.5</ele><time>2026-03-28T13:44:22Z</time></trkpt><trkpt lat="40.044382628748906" lon="9.504720920093114"><ele>625.0</ele><time>2026-03-28T13:44:23Z</time></trkpt><trkpt lat="40.04432903199315" lon="9.504880955616846"><ele>620.5</ele><time>2026-03-28T13:44:24Z</time></trkpt><trkpt lat="40.04427051407907" lon="9.505041980554157"><ele>616.0</ele><time>2026-03-28T13:44:25Z</time></trkpt><trkpt lat="40.04421192166713" lon="9.505207478149964"><ele>616.0</ele><time>2026-03-28T13:44:26Z</time></trkpt><trkpt lat="40.04415174628334" lon="9.5053722559675"><ele>616.0</ele><time>2026-03-28T13:44:27Z</time></trkpt><trkpt lat="40.04408596091837" lon="9.505529779975435"><ele>616.0</ele><time>2026-03-28T13:44:28Z</time></trkpt><trkpt lat="40.044009641540505" lon="9.505681095429136"><ele>616.0</ele><time>2026-03-28T13:44:29Z</time></trkpt><trkpt lat="40.04392498199353" lon="9.50582725288015"><ele>615.5</ele><time>2026-03-28T13:44:30Z</time></trkpt><trkpt lat="40.04383527101615" lon="9.505971785775632"><ele>615.0</ele><time>2026-03-28T13:44:31Z</time></trkpt><trkpt lat="40.043748841226254" lon="9.50612174041607"><ele>614.5</ele><time>2026-03-28T13:44:32Z</time></trkpt><trkpt lat="40.043662567377936" lon="9.506273910709245"><ele>614.0</ele><time>2026-03-28T13:44:33Z</time></trkpt><trkpt lat="40.04357224272089" lon="9.506421967357518"><ele>614.0</ele><time>2026-03-28T13:44:34Z</time></trkpt><trkpt lat="40.043473818264765" lon="9.506565270792443"><ele>614.0</ele><time>2026-03-28T13:44:35Z</time></trkpt><trkpt lat="40.04336874802443" lon="9.506699700301896"><ele>614.0</ele><time>2026-03-28T13:44:36Z</time></trkpt><trkpt lat="40.04325428809047" lon="9.506817659981555"><ele>614.0</ele><time>2026-03-28T13:44:37Z</time></trkpt><trkpt lat="40.04311859210569" lon="9.506895114865376"><ele>612.0</ele><time>2026-03-28T13:44:38Z</time></trkpt><trkpt lat="40.042991346284786" lon="9.506986126789162"><ele>610.0</ele><time>2026-03-28T13:44:39Z</time></trkpt><trkpt lat="40.042859621812745" lon="9.507061964980597"><ele>608.0</ele><time>2026-03-28T13:44:40Z</time></trkpt><trkpt lat="40.042735252344706" lon="9.507135729160794"><ele>606.0</ele><time>2026-03-28T13:44:41Z</time></trkpt><trkpt lat="40.04260770318009" lon="9.507163569484327"><ele>606.0</ele><time>2026-03-28T13:44:42Z</time></trkpt><trkpt lat="40.04251127751475" lon="9.507266187884085"><ele>606.0</ele><time>2026-03-28T13:44:43Z</time></trkpt><trkpt lat="40.04243739379718" lon="9.507375630410916"><ele>606.0</ele><time>2026-03-28T13:44:44Z</time></trkpt><trkpt lat="40.04236846452275" lon="9.507481817458427"><ele>606.0</ele><time>2026-03-28T13:44:45Z</time></trkpt><trkpt lat="40.042278617806375" lon="9.507537660509"><ele>606.0</ele><time>2026-03-28T13:44:46Z</time></trkpt><trkpt lat="40.04219663701107" lon="9.507556518753791"><ele>605.6</ele><time>2026-03-28T13:44:47Z</time></trkpt><trkpt lat="40.04210619264258" lon="9.507557687500334"><ele>605.2</ele><time>2026-03-28T13:44:48Z</time></trkpt><trkpt lat="40.04203658597547" lon="9.507485846675488"><ele>604.8</ele><time>2026-03-28T13:44:49Z</time></trkpt><trkpt lat="40.041979700599" lon="9.50739038733055"><ele>604.4</ele><time>2026-03-28T13:44:50Z</time></trkpt><trkpt lat="40.04191824539905" lon="9.507277304718931"><ele>604.0</ele><time>2026-03-28T13:44:51Z</time></trkpt><trkpt lat="40.04185504837153" lon="9.507151284290027"><ele>608.0</ele><time>2026-03-28T13:44:52Z</time></trkpt><trkpt lat="40.04179021876936" lon="9.507014089280217"><ele>612.0</ele><time>2026-03-28T13:44:53Z</time></trkpt><trkpt lat="40.041733769940585" lon="9.506871175613291"><ele>616.0</ele><time>2026-03-28T13:44:54Z</time></trkpt><trkpt lat="40.041683675488535" lon="9.506723045635884"><ele>620.0</ele><time>2026-03-28T13:44:55Z</time></trkpt><trkpt lat="40.0416380735751" lon="9.50656921801236"><ele>616.25</ele><time>2026-03-28T13:44:56Z</time></trkpt><trkpt lat="40.0415944254185" lon="9.506418730983533"><ele>612.5</ele><time>2026-03-28T13:44:57Z</time></trkpt><trkpt lat="40.04154540193079" lon="9.506274916826095"><ele>608.75</ele><time>2026-03-28T13:44:58Z</time></trkpt><trkpt lat="40.04149909379686" lon="9.506147183793747"><ele>605.0</ele><time>2026-03-28T13:44:59Z</time></trkpt><trkpt lat="40.041468305212554" lon="9.506022213786823"><ele>603.2</ele><time>2026-03-28T13:45:00Z</time></trkpt><trkpt lat="40.04145321300956" lon="9.505903492804658"><ele>601.4</ele><time>2026-03-28T13:45:01Z</time></trkpt><trkpt lat="40.041458055490786" lon="9.505788747559208"><ele>599.6</ele><time>2026-03-28T13:45:02Z</time></trkpt><trkpt lat="40.04146944162045" lon="9.50566540693635"><ele>597.8</ele><time>2026-03-28T13:45:03Z</time></trkpt><trkpt lat="40.04148044126985" lon="9.50554094376385"><ele>596.0</ele><time>2026-03-28T13:45:04Z</time></trkpt><trkpt lat="40.04149173674244" lon="9.505413133324815"><ele>593.8</ele><time>2026-03-28T13:45:05Z</time></trkpt><trkpt lat="40.041502630846416" lon="9.505283987897615"><ele>591.6</ele><time>2026-03-28T13:45:06Z</time></trkpt><trkpt lat="40.041510968192114" lon="9.50515306428488"><ele>589.4</ele><time>2026-03-28T13:45:07Z</time></trkpt><trkpt lat="40.04151762942029" lon="9.505020960578962"><ele>587.2</ele><time>2026-03-28T13:45:08Z</time></trkpt><trkpt lat="40.04152328593142" lon="9.504889210999412"><ele>585.0</ele><time>2026-03-28T13:45:09Z</time></trkpt><trkpt lat="40.04152783602976" lon="9.504755853713434"><ele>585.0</ele><time>2026-03-28T13:45:10Z</time></trkpt><trkpt lat="40.041532373680326" lon="9.50462056125037"><ele>585.0</ele><time>2026-03-28T13:45:11Z</time></trkpt><trkpt lat="40.041539656446204" lon="9.504486134133733"><ele>585.0</ele><time>2026-03-28T13:45:12Z</time></trkpt><trkpt lat="40.04154937194946" lon="9.504352725176997"><ele>585.0</ele><time>2026-03-28T13:45:13Z</time></trkpt><trkpt lat="40.041569382321995" lon="9.504234082364096"><ele>585.0</ele><time>2026-03-28T13:45:14Z</time></trkpt><trkpt lat="40.04159595829057" lon="9.5041143378413"><ele>585.6</ele><time>2026-03-28T13:45:15Z</time></trkpt><trkpt lat="40.04166285726962" lon="9.50402088018081"><ele>586.2</ele><time>2026-03-28T13:45:16Z</time></trkpt><trkpt lat="40.04174223674987" lon="9.503930344346784"><ele>586.8</ele><time>2026-03-28T13:45:17Z</time></trkpt><trkpt lat="40.04183061976754" lon="9.503851626316356"><ele>587.4</ele><time>2026-03-28T13:45:18Z</time></trkpt><trkpt lat="40.04192953973037" lon="9.503782039710867"><ele>588.0</ele><time>2026-03-28T13:45:19Z</time></trkpt><trkpt lat="40.04203242626686" lon="9.503709692373068"><ele>588.0</ele><time>2026-03-28T13:45:20Z</time></trkpt><trkpt lat="40.042130667942764" lon="9.50362414589522"><ele>588.0</ele><time>2026-03-28T13:45:21Z</time></trkpt><trkpt lat="40.0422234392192" lon="9.503534305664584"><ele>588.0</ele><time>2026-03-28T13:45:22Z</time></trkpt><trkpt lat="40.04231653612655" lon="9.503446737042122"><ele>588.0</ele><time>2026-03-28T13:45:23Z</time></trkpt><trkpt lat="40.042412617849315" lon="9.503356739860509"><ele>594.6</ele><time>2026-03-28T13:45:24Z</time></trkpt><trkpt lat="40.04250683146369" lon="9.503285297899572"><ele>601.1999999999999</ele><time>2026-03-28T13:45:25Z</time></trkpt><trkpt lat="40.04260719726362" lon="9.503240714953929"><ele>607.8</ele><time>2026-03-28T13:45:26Z</time></trkpt><trkpt lat="40.04271080812869" lon="9.503213010978223"><ele>614.4</ele><time>2026-03-28T13:45:27Z</time></trkpt><trkpt lat="40.042815520786704" lon="9.503192778757931"><ele>621.0</ele><time>2026-03-28T13:45:28Z</time></trkpt><trkpt lat="40.04291648036053" lon="9.503172911178646"><ele>621.0</ele><time>2026-03-28T13:45:29Z</time></trkpt><trkpt lat="40.0430132772129" lon="9.503145028278334"><ele>621.0</ele><time>2026-03-28T13:45:30Z</time></trkpt><trkpt lat="40.043103751260205" lon="9.503096240409842"><ele>621.0</ele><time>2026-03-28T13:45:31Z</time></trkpt><trkpt lat="40.04317547684104" lon="9.503011697861002"><ele>621.0</ele><time>2026-03-28T13:45:32Z</time></trkpt><trkpt lat="40.043240842011556" lon="9.502914284378233"><ele>621.0</ele><time>2026-03-28T13:45:33Z</time></trkpt><trkpt lat="40.04326954898864" lon="9.502777760479123"><ele>620.25</ele><time>2026-03-28T13:45:34Z</time></trkpt><trkpt lat="40.04331699710191" lon="9.50265453655196"><ele>619.5</ele><time>2026-03-28T13:45:35Z</time></trkpt><trkpt lat="40.043378329176676" lon="9.50253069302005"><ele>618.75</ele><time>2026-03-28T13:45:36Z</time></trkpt><trkpt lat="40.043455072729394" lon="9.502417798900275"><ele>618.0</ele><time>2026-03-28T13:45:37Z</time></trkpt><trkpt lat="40.04353758926378" lon="9.502303561704464"><ele>618.0</ele><time>2026-03-28T13:45:38Z</time></trkpt><trkpt lat="40.04361755686207" lon="9.502180657273707"><ele>618.0</ele><time>2026-03-28T13:45:39Z</time></trkpt><trkpt lat="40.04370595725114" lon="9.502059714377854"><ele>618.0</ele><time>2026-03-28T13:45:40Z</time></trkpt><trkpt lat="40.043778584678066" lon="9.50192141785723"><ele>618.0</ele><time>2026-03-28T13:45:41Z</time></trkpt><trkpt lat="40.04383980071467" lon="9.501770729072149"><ele>611.75</ele><time>2026-03-28T13:45:42Z</time></trkpt><trkpt lat="40.043872681960664" lon="9.501602581855268"><ele>605.5</ele><time>2026-03-28T13:45:43Z</time></trkpt><trkpt lat="40.04393314912795" lon="9.501448860401979"><ele>599.25</ele><time>2026-03-28T13:45:44Z</time></trkpt><trkpt lat="40.043988534252954" lon="9.501294708571365"><ele>593.0</ele><time>2026-03-28T13:45:45Z</time></trkpt><trkpt lat="40.044059113718724" lon="9.501151704295987"><ele>590.25</ele><time>2026-03-28T13:45:46Z</time></trkpt><trkpt lat="40.0441068151146" lon="9.500992246524307"><ele>587.5</ele><time>2026-03-28T13:45:47Z</time></trkpt><trkpt lat="40.04416060728077" lon="9.50085059659515"><ele>584.75</ele><time>2026-03-28T13:45:48Z</time></trkpt><trkpt lat="40.04420961257657" lon="9.500714609179298"><ele>582.0</ele><time>2026-03-28T13:45:49Z</time></trkpt><trkpt lat="40.044255759727264" lon="9.500589324179403"><ele>584.6666666666666</ele><time>2026-03-28T13:45:50Z</time></trkpt><trkpt lat="40.04429514640336" lon="9.50046986273097"><ele>587.3333333333334</ele><time>2026-03-28T13:45:51Z</time></trkpt><trkpt lat="40.044277061522365" lon="9.500341553602476"><ele>590.0</ele><time>2026-03-28T13:45:52Z</time></trkpt><trkpt lat="40.04422319506967" lon="9.500259192535605"><ele>592.6666666666667</ele><time>2026-03-28T13:45:53Z</time></trkpt><trkpt lat="40.04420343050153" lon="9.50017110398416"><ele>595.3333333333334</ele><time>2026-03-28T13:45:54Z</time></trkpt><trkpt lat="40.04414837758501" lon="9.500071182921687"><ele>598.0</ele><time>2026-03-28T13:45:56Z</time></trkpt><trkpt lat="40.04411396476696" lon="9.49998502342783"><ele>598.0</ele><time>2026-03-28T13:46:19Z</time></trkpt><trkpt lat="40.044087852049984" lon="9.499903417546038"><ele>598.0</ele><time>2026-03-28T13:46:23Z</time></trkpt><trkpt lat="40.04403130892186" lon="9.500111488842062"><ele>598.0</ele><time>2026-03-28T13:46:25Z</time></trkpt><trkpt lat="40.044108817064775" lon="9.50020471937321"><ele>598.0</ele><time>2026-03-28T13:46:26Z</time></trkpt><trkpt lat="40.04414885446714" lon="9.50030230576364"><ele>598.0</ele><time>2026-03-28T13:46:27Z</time></trkpt><trkpt lat="40.044173131491604" lon="9.50042365728508"><ele>594.0</ele><time>2026-03-28T13:46:28Z</time></trkpt><trkpt lat="40.044163961391156" lon="9.500553733965946"><ele>590.0</ele><time>2026-03-28T13:46:29Z</time></trkpt><trkpt lat="40.04409148932443" lon="9.500662168388676"><ele>586.0</ele><time>2026-03-28T13:46:30Z</time></trkpt><trkpt lat="40.04402987991915" lon="9.500793767713125"><ele>582.0</ele><time>2026-03-28T13:46:31Z</time></trkpt><trkpt lat="40.04394997099521" lon="9.500920275854043"><ele>582.0</ele><time>2026-03-28T13:46:32Z</time></trkpt><trkpt lat="40.04386812694324" lon="9.501058733966795"><ele>582.0</ele><time>2026-03-28T13:46:33Z</time></trkpt><trkpt lat="40.04377979286758" lon="9.501205401450072"><ele>582.0</ele><time>2026-03-28T13:46:34Z</time></trkpt><trkpt lat="40.04370115009723" lon="9.501369450729403"><ele>582.0</ele><time>2026-03-28T13:46:35Z</time></trkpt><trkpt lat="40.04363278851956" lon="9.501552085189083"><ele>585.6666666666666</ele><time>2026-03-28T13:46:36Z</time></trkpt><trkpt lat="40.0435513148942" lon="9.501728829186918"><ele>589.3333333333333</ele><time>2026-03-28T13:46:37Z</time></trkpt><trkpt lat="40.04343920352338" lon="9.501880088145427"><ele>593.0</ele><time>2026-03-28T13:46:38Z</time></trkpt><trkpt lat="40.04331679335012" lon="9.502021006169288"><ele>590.3333333333333</ele><time>2026-03-28T13:46:39Z</time></trkpt><trkpt lat="40.043193339311664" lon="9.502164096620263"><ele>587.6666666666666</ele><time>2026-03-28T13:46:40Z</time></trkpt><trkpt lat="40.043075480980264" lon="9.502307210962844"><ele>585.0</ele><time>2026-03-28T13:46:41Z</time></trkpt><trkpt lat="40.0429547420199" lon="9.502446041693796"><ele>585.0</ele><time>2026-03-28T13:46:42Z</time></trkpt><trkpt lat="40.04282208460874" lon="9.502556023374217"><ele>585.0</ele><time>2026-03-28T13:46:43Z</time></trkpt><trkpt lat="40.04267014174115" lon="9.502572926809954"><ele>585.0</ele><time>2026-03-28T13:46:44Z</time></trkpt><trkpt lat="40.04252033533007" lon="9.502614003882467"><ele>585.75</ele><time>2026-03-28T13:46:45Z</time></trkpt><trkpt lat="40.04237446069805" lon="9.50264425768553"><ele>586.5</ele><time>2026-03-28T13:46:46Z</time></trkpt><trkpt lat="40.04224191137395" lon="9.50272142182021"><ele>587.25</ele><time>2026-03-28T13:46:47Z</time></trkpt><trkpt lat="40.042127905515095" lon="9.502839832867839"><ele>588.0</ele><time>2026-03-28T13:46:48Z</time></trkpt><trkpt lat="40.042020503178634" lon="9.502978029023211"><ele>588.0</ele><time>2026-03-28T13:46:49Z</time></trkpt><trkpt lat="40.04189336019199" lon="9.503095453122153"><ele>588.0</ele><time>2026-03-28T13:46:50Z</time></trkpt><trkpt lat="40.04175305243473" lon="9.503184911749555"><ele>588.0</ele><time>2026-03-28T13:46:51Z</time></trkpt><trkpt lat="40.04160059107465" lon="9.503247931292226"><ele>575.3333333333334</ele><time>2026-03-28T13:46:52Z</time></trkpt><trkpt lat="40.04144708671093" lon="9.50328397348263"><ele>562.6666666666667</ele><time>2026-03-28T13:46:53Z</time></trkpt><trkpt lat="40.04129780236553" lon="9.503301873206665"><ele>550.0</ele><time>2026-03-28T13:46:54Z</time></trkpt><trkpt lat="40.041155556614676" lon="9.503352752581641"><ele>550.0</ele><time>2026-03-28T13:46:55Z</time></trkpt><trkpt lat="40.04103527020836" lon="9.503462238725833"><ele>550.0</ele><time>2026-03-28T13:46:56Z</time></trkpt><trkpt lat="40.04095762863122" lon="9.503615696490716"><ele>550.0</ele><time>2026-03-28T13:46:57Z</time></trkpt><trkpt lat="40.0408919997077" lon="9.503800727502773"><ele>550.0</ele><time>2026-03-28T13:46:58Z</time></trkpt><trkpt lat="40.040833880354704" lon="9.503995552086842"><ele>540.6666666666667</ele><time>2026-03-28T13:46:59Z</time></trkpt><trkpt lat="40.040778967941485" lon="9.504190495506752"><ele>531.3333333333334</ele><time>2026-03-28T13:47:00Z</time></trkpt><trkpt lat="40.04070294050901" lon="9.504375410641728"><ele>522.0</ele><time>2026-03-28T13:47:01Z</time></trkpt><trkpt lat="40.04062324516077" lon="9.50455722748112"><ele>527.25</ele><time>2026-03-28T13:47:02Z</time></trkpt><trkpt lat="40.04056643450605" lon="9.504742759927293"><ele>532.5</ele><time>2026-03-28T13:47:03Z</time></trkpt><trkpt lat="40.0405103173306" lon="9.504921099193389"><ele>537.75</ele><time>2026-03-28T13:47:04Z</time></trkpt><trkpt lat="40.04041789055443" lon="9.505061491964925"><ele>543.0</ele><time>2026-03-28T13:47:05Z</time></trkpt><trkpt lat="40.0403126701444" lon="9.505182942758903"><ele>543.0</ele><time>2026-03-28T13:47:06Z</time></trkpt><trkpt lat="40.040235152655086" lon="9.505317708103865"><ele>543.0</ele><time>2026-03-28T13:47:07Z</time></trkpt><trkpt lat="40.040156671533154" lon="9.505471998621504"><ele>543.0</ele><time>2026-03-28T13:47:08Z</time></trkpt><trkpt lat="40.04004603052017" lon="9.505560297756668"><ele>543.0</ele><time>2026-03-28T13:47:09Z</time></trkpt><trkpt lat="40.03991942689967" lon="9.505591450212707"><ele>542.5</ele><time>2026-03-28T13:47:10Z</time></trkpt><trkpt lat="40.039804662275984" lon="9.505615679874907"><ele>542.0</ele><time>2026-03-28T13:47:11Z</time></trkpt><trkpt lat="40.039685733829984" lon="9.505676505601796"><ele>541.5</ele><time>2026-03-28T13:47:12Z</time></trkpt><trkpt lat="40.03958460678524" lon="9.505789443285378"><ele>541.0</ele><time>2026-03-28T13:47:13Z</time></trkpt><trkpt lat="40.03948087129066" lon="9.505912843385339"><ele>541.0</ele><time>2026-03-28T13:47:14Z</time></trkpt><trkpt lat="40.039364613553936" lon="9.506017184076951"><ele>541.0</ele><time>2026-03-28T13:47:15Z</time></trkpt><trkpt lat="40.039229805028185" lon="9.506078050592508"><ele>541.0</ele><time>2026-03-28T13:47:16Z</time></trkpt><trkpt lat="40.03908577678372" lon="9.506090309684039"><ele>541.0</ele><time>2026-03-28T13:47:17Z</time></trkpt><trkpt lat="40.03894343953638" lon="9.506099151726376"><ele>535.3333333333334</ele><time>2026-03-28T13:47:18Z</time></trkpt><trkpt lat="40.03879961137958" lon="9.506134876373329"><ele>529.6666666666666</ele><time>2026-03-28T13:47:19Z</time></trkpt><trkpt lat="40.03865112043733" lon="9.506170441716272"><ele>524.0</ele><time>2026-03-28T13:47:20Z</time></trkpt><trkpt lat="40.038504058119216" lon="9.506227969788995"><ele>524.0</ele><time>2026-03-28T13:47:21Z</time></trkpt><trkpt lat="40.03835214338822" lon="9.506198387280502"><ele>524.0</ele><time>2026-03-28T13:47:22Z</time></trkpt><trkpt lat="40.038201036337135" lon="9.506178835847168"><ele>524.0</ele><time>2026-03-28T13:47:23Z</time></trkpt><trkpt lat="40.03805541455297" lon="9.506172670782187"><ele>527.6666666666666</ele><time>2026-03-28T13:47:24Z</time></trkpt><trkpt lat="40.03791123938991" lon="9.50623640754646"><ele>531.3333333333334</ele><time>2026-03-28T13:47:25Z</time></trkpt><trkpt lat="40.037761009716405" lon="9.506321995121393"><ele>535.0</ele><time>2026-03-28T13:47:26Z</time></trkpt><trkpt lat="40.03759862406385" lon="9.506361438336286"><ele>531.0</ele><time>2026-03-28T13:47:27Z</time></trkpt><trkpt lat="40.03743609273612" lon="9.506425750554131"><ele>527.0</ele><time>2026-03-28T13:47:28Z</time></trkpt><trkpt lat="40.037268173165906" lon="9.506465652338864"><ele>523.0</ele><time>2026-03-28T13:47:29Z</time></trkpt><trkpt lat="40.03709360162088" lon="9.50650887029783"><ele>523.0</ele><time>2026-03-28T13:47:30Z</time></trkpt><trkpt lat="40.036914462616814" lon="9.506558771550534"><ele>523.0</ele><time>2026-03-28T13:47:31Z</time></trkpt><trkpt lat="40.036732753831565" lon="9.50661362329771"><ele>523.0</ele><time>2026-03-28T13:47:32Z</time></trkpt><trkpt lat="40.036548651069396" lon="9.50666687878243"><ele>518.0</ele><time>2026-03-28T13:47:33Z</time></trkpt><trkpt lat="40.03636205491305" lon="9.506696045539218"><ele>513.0</ele><time>2026-03-28T13:47:34Z</time></trkpt><trkpt lat="40.036179266886855" lon="9.506745151872783"><ele>508.0</ele><time>2026-03-28T13:47:35Z</time></trkpt><trkpt lat="40.036001279362225" lon="9.506789610379032"><ele>508.0</ele><time>2026-03-28T13:47:36Z</time></trkpt><trkpt lat="40.035826089567095" lon="9.506828493321736"><ele>508.0</ele><time>2026-03-28T13:47:37Z</time></trkpt><trkpt lat="40.03565681653614" lon="9.506866063027278"><ele>508.0</ele><time>2026-03-28T13:47:38Z</time></trkpt><trkpt lat="40.03548984271445" lon="9.506902928569692"><ele>503.33333333333337</ele><time>2026-03-28T13:47:39Z</time></trkpt><trkpt lat="40.03532425799782" lon="9.506951776349347"><ele>498.66666666666663</ele><time>2026-03-28T13:47:40Z</time></trkpt><trkpt lat="40.03516233309743" lon="9.506953173529899"><ele>494.0</ele><time>2026-03-28T13:47:41Z</time></trkpt><trkpt lat="40.035018435273805" lon="9.506900245094329"><ele>488.5</ele><time>2026-03-28T13:47:42Z</time></trkpt><trkpt lat="40.03488359711822" lon="9.50688224557912"><ele>483.0</ele><time>2026-03-28T13:47:43Z</time></trkpt><trkpt lat="40.034740728396926" lon="9.506884035048394"><ele>477.5</ele><time>2026-03-28T13:47:44Z</time></trkpt><trkpt lat="40.03460872510708" lon="9.506946432469912"><ele>472.0</ele><time>2026-03-28T13:47:45Z</time></trkpt><trkpt lat="40.03448066487696" lon="9.507037828278845"><ele>476.5</ele><time>2026-03-28T13:47:46Z</time></trkpt><trkpt lat="40.034379295520914" lon="9.507157883551693"><ele>481.0</ele><time>2026-03-28T13:47:47Z</time></trkpt><trkpt lat="40.03432353653225" lon="9.507300363657325"><ele>485.5</ele><time>2026-03-28T13:47:48Z</time></trkpt><trkpt lat="40.03429742327551" lon="9.507461962365175"><ele>490.0</ele><time>2026-03-28T13:47:49Z</time></trkpt><trkpt lat="40.0342611729679" lon="9.507614906482688"><ele>490.0</ele><time>2026-03-28T13:47:50Z</time></trkpt><trkpt lat="40.03417313335124" lon="9.507746617653261"><ele>490.0</ele><time>2026-03-28T13:47:51Z</time></trkpt><trkpt lat="40.034050837782395" lon="9.507855727782001"><ele>490.0</ele><time>2026-03-28T13:47:52Z</time></trkpt><trkpt lat="40.03391957647439" lon="9.507949244982994"><ele>490.0</ele><time>2026-03-28T13:47:53Z</time></trkpt><trkpt lat="40.03377800972746" lon="9.508045033257261"><ele>491.33333333333337</ele><time>2026-03-28T13:47:54Z</time></trkpt><trkpt lat="40.03362835432274" lon="9.508108817052634"><ele>492.66666666666663</ele><time>2026-03-28T13:47:55Z</time></trkpt><trkpt lat="40.03347168751709" lon="9.508094355006246"><ele>494.0</ele><time>2026-03-28T13:47:56Z</time></trkpt><trkpt lat="40.03331903710328" lon="9.508072001221086"><ele>486.0</ele><time>2026-03-28T13:47:57Z</time></trkpt><trkpt lat="40.0331681761031" lon="9.508068309113515"><ele>478.0</ele><time>2026-03-28T13:47:58Z</time></trkpt><trkpt lat="40.0330345810436" lon="9.508042092281443"><ele>470.0</ele><time>2026-03-28T13:47:59Z</time></trkpt><trkpt lat="40.03291990275788" lon="9.508036055374497"><ele>462.0</ele><time>2026-03-28T13:48:00Z</time></trkpt><trkpt lat="40.03281930957832" lon="9.508065205633676"><ele>462.0</ele><time>2026-03-28T13:48:01Z</time></trkpt><trkpt lat="40.03273127910154" lon="9.50812766919958"><ele>462.0</ele><time>2026-03-28T13:48:02Z</time></trkpt><trkpt lat="40.03270766765322" lon="9.508288466234136"><ele>462.0</ele><time>2026-03-28T13:48:03Z</time></trkpt><trkpt lat="40.03271479790767" lon="9.508452411123635"><ele>462.0</ele><time>2026-03-28T13:48:04Z</time></trkpt><trkpt lat="40.03271520421994" lon="9.508628759683054"><ele>462.5</ele><time>2026-03-28T13:48:05Z</time></trkpt><trkpt lat="40.03271295147382" lon="9.508813271595876"><ele>463.0</ele><time>2026-03-28T13:48:06Z</time></trkpt><trkpt lat="40.03269101148569" lon="9.509004526485779"><ele>463.5</ele><time>2026-03-28T13:48:07Z</time></trkpt><trkpt lat="40.032660310569064" lon="9.509193249986255"><ele>464.0</ele><time>2026-03-28T13:48:08Z</time></trkpt><trkpt lat="40.032637246744834" lon="9.509387368676487"><ele>467.66666666666663</ele><time>2026-03-28T13:48:09Z</time></trkpt><trkpt lat="40.03261562101037" lon="9.509585351938828"><ele>471.33333333333337</ele><time>2026-03-28T13:48:10Z</time></trkpt><trkpt lat="40.03258335820535" lon="9.509784505712897"><ele>475.0</ele><time>2026-03-28T13:48:11Z</time></trkpt><trkpt lat="40.03253412635009" lon="9.509983278984679"><ele>475.0</ele><time>2026-03-28T13:48:12Z</time></trkpt><trkpt lat="40.0324741827519" lon="9.510161247022982"><ele>475.0</ele><time>2026-03-28T13:48:13Z</time></trkpt><trkpt lat="40.03239353568952" lon="9.51032551510609"><ele>475.0</ele><time>2026-03-28T13:48:14Z</time></trkpt><trkpt lat="40.03228787116091" lon="9.510464745776027"><ele>475.0</ele><time>2026-03-28T13:48:15Z</time></trkpt><trkpt lat="40.03214694687206" lon="9.510551816724076"><ele>471.6666666666667</ele><time>2026-03-28T13:48:16Z</time></trkpt><trkpt lat="40.03201100376854" lon="9.510662983294033"><ele>468.33333333333337</ele><time>2026-03-28T13:48:17Z</time></trkpt><trkpt lat="40.03186769451898" lon="9.51077936615248"><ele>465.0</ele><time>2026-03-28T13:48:18Z</time></trkpt><trkpt lat="40.03173805634845" lon="9.510922047731107"><ele>464.33333333333337</ele><time>2026-03-28T13:48:19Z</time></trkpt><trkpt lat="40.03161414147191" lon="9.511083577546712"><ele>463.6666666666667</ele><time>2026-03-28T13:48:20Z</time></trkpt><trkpt lat="40.03147574349287" lon="9.511228181059964"><ele>463.0</ele><time>2026-03-28T13:48:21Z</time></trkpt><trkpt lat="40.03135806938209" lon="9.511392795700013"><ele>463.0</ele><time>2026-03-28T13:48:22Z</time></trkpt><trkpt lat="40.03122729128984" lon="9.511538846172993"><ele>463.0</ele><time>2026-03-28T13:48:23Z</time></trkpt><trkpt lat="40.03109077159494" lon="9.511668095505117"><ele>463.0</ele><time>2026-03-28T13:48:24Z</time></trkpt><trkpt lat="40.03093602794346" lon="9.511752185367598"><ele>455.6666666666667</ele><time>2026-03-28T13:48:25Z</time></trkpt><trkpt lat="40.03077265464897" lon="9.511791913791194"><ele>448.33333333333337</ele><time>2026-03-28T13:48:26Z</time></trkpt><trkpt lat="40.03061614284603" lon="9.511847259576022"><ele>441.0</ele><time>2026-03-28T13:48:27Z</time></trkpt><trkpt lat="40.03044838547037" lon="9.511912852850825"><ele>441.0</ele><time>2026-03-28T13:48:28Z</time></trkpt><trkpt lat="40.030279061753895" lon="9.511981075896935"><ele>441.0</ele><time>2026-03-28T13:48:29Z</time></trkpt><trkpt lat="40.03010606108597" lon="9.512047319624218"><ele>441.0</ele><time>2026-03-28T13:48:30Z</time></trkpt><trkpt lat="40.02992813248765" lon="9.512106829164455"><ele>451.66666666666663</ele><time>2026-03-28T13:48:31Z</time></trkpt><trkpt lat="40.02974639740216" lon="9.512146450758394"><ele>462.3333333333333</ele><time>2026-03-28T13:48:32Z</time></trkpt><trkpt lat="40.02956505188481" lon="9.512165809304854"><ele>473.0</ele><time>2026-03-28T13:48:33Z</time></trkpt><trkpt lat="40.02938855869104" lon="9.512170933407964"><ele>473.0</ele><time>2026-03-28T13:48:34Z</time></trkpt><trkpt lat="40.02922644312594" lon="9.512166313494562"><ele>473.0</ele><time>2026-03-28T13:48:35Z</time></trkpt><trkpt lat="40.02908835923045" lon="9.512152638646628"><ele>473.0</ele><time>2026-03-28T13:48:36Z</time></trkpt><trkpt lat="40.02896303676601" lon="9.512090839930698"><ele>473.0</ele><time>2026-03-28T13:48:37Z</time></trkpt><trkpt lat="40.02888756942779" lon="9.511934303937199"><ele>464.5</ele><time>2026-03-28T13:48:38Z</time></trkpt><trkpt lat="40.028781697550954" lon="9.511803252533563"><ele>456.0</ele><time>2026-03-28T13:48:39Z</time></trkpt><trkpt lat="40.02866898624676" lon="9.511678186987067"><ele>447.5</ele><time>2026-03-28T13:48:40Z</time></trkpt><trkpt lat="40.02853925358682" lon="9.511584867411495"><ele>439.0</ele><time>2026-03-28T13:48:41Z</time></trkpt><trkpt lat="40.02839716121235" lon="9.511528470634195"><ele>432.6666666666667</ele><time>2026-03-28T13:48:42Z</time></trkpt><trkpt lat="40.02825114588905" lon="9.51151637037655"><ele>426.33333333333337</ele><time>2026-03-28T13:48:43Z</time></trkpt><trkpt lat="40.02810571700411" lon="9.511553178273887"><ele>420.0</ele><time>2026-03-28T13:48:44Z</time></trkpt><trkpt lat="40.02795942192999" lon="9.511628418004419"><ele>420.0</ele><time>2026-03-28T13:48:45Z</time></trkpt><trkpt lat="40.02780987650559" lon="9.511719061863282"><ele>420.0</ele><time>2026-03-28T13:48:46Z</time></trkpt><trkpt lat="40.02765806912291" lon="9.511783865918"><ele>420.0</ele><time>2026-03-28T13:48:47Z</time></trkpt><trkpt lat="40.027499854078606" lon="9.511825715749097"><ele>412.66666666666663</ele><time>2026-03-28T13:48:48Z</time></trkpt><trkpt lat="40.02733995147584" lon="9.511848844802712"><ele>405.3333333333333</ele><time>2026-03-28T13:48:49Z</time></trkpt><trkpt lat="40.027174693843406" lon="9.51186446105524"><ele>398.0</ele><time>2026-03-28T13:48:50Z</time></trkpt><trkpt lat="40.02701317369504" lon="9.511889639317577"><ele>398.0</ele><time>2026-03-28T13:48:51Z</time></trkpt><trkpt lat="40.02685169178309" lon="9.511926974024734"><ele>398.0</ele><time>2026-03-28T13:48:52Z</time></trkpt><trkpt lat="40.02670073263139" lon="9.51196200584197"><ele>398.0</ele><time>2026-03-28T13:48:53Z</time></trkpt><trkpt lat="40.026562275386546" lon="9.512001601224254"><ele>394.5</ele><time>2026-03-28T13:48:54Z</time></trkpt><trkpt lat="40.02644369659246" lon="9.512091312438077"><ele>391.0</ele><time>2026-03-28T13:48:55Z</time></trkpt><trkpt lat="40.02635569211228" lon="9.512243491059666"><ele>387.5</ele><time>2026-03-28T13:48:56Z</time></trkpt><trkpt lat="40.026291355042005" lon="9.512423629960175"><ele>384.0</ele><time>2026-03-28T13:48:57Z</time></trkpt><trkpt lat="40.02622055379557" lon="9.512608621532687"><ele>384.0</ele><time>2026-03-28T13:48:58Z</time></trkpt><trkpt lat="40.026146844304215" lon="9.512792467863429"><ele>384.0</ele><time>2026-03-28T13:48:59Z</time></trkpt><trkpt lat="40.02608378019915" lon="9.512980703822985"><ele>384.0</ele><time>2026-03-28T13:49:00Z</time></trkpt><trkpt lat="40.02605363070482" lon="9.513184740142437"><ele>385.25</ele><time>2026-03-28T13:49:01Z</time></trkpt><trkpt lat="40.02606149236776" lon="9.513383407046256"><ele>386.5</ele><time>2026-03-28T13:49:02Z</time></trkpt><trkpt lat="40.02610210035368" lon="9.513556866814358"><ele>387.75</ele><time>2026-03-28T13:49:03Z</time></trkpt><trkpt lat="40.02618639056228" lon="9.513684816205657"><ele>389.0</ele><time>2026-03-28T13:49:04Z</time></trkpt><trkpt lat="40.02631233034427" lon="9.513756516510846"><ele>389.66666666666663</ele><time>2026-03-28T13:49:05Z</time></trkpt><trkpt lat="40.02645876911124" lon="9.51379066900067"><ele>390.33333333333337</ele><time>2026-03-28T13:49:06Z</time></trkpt><trkpt lat="40.02661065428924" lon="9.51384626325303"><ele>391.0</ele><time>2026-03-28T13:49:07Z</time></trkpt><trkpt lat="40.026766936822746" lon="9.51391263600306"><ele>391.0</ele><time>2026-03-28T13:49:08Z</time></trkpt><trkpt lat="40.02692162545968" lon="9.513986171824643"><ele>391.0</ele><time>2026-03-28T13:49:09Z</time></trkpt><trkpt lat="40.0270724044472" lon="9.514052482882253"><ele>391.0</ele><time>2026-03-28T13:49:10Z</time></trkpt><trkpt lat="40.02721728773846" lon="9.514116537869974"><ele>391.0</ele><time>2026-03-28T13:49:11Z</time></trkpt><trkpt lat="40.02734963681273" lon="9.51420106408729"><ele>391.0</ele><time>2026-03-28T13:49:12Z</time></trkpt><trkpt lat="40.027460621670635" lon="9.5143258669531"><ele>391.0</ele><time>2026-03-28T13:49:13Z</time></trkpt><trkpt lat="40.02756277043637" lon="9.514458620608927"><ele>391.0</ele><time>2026-03-28T13:49:14Z</time></trkpt><trkpt lat="40.02766373197025" lon="9.514552124420568"><ele>389.8</ele><time>2026-03-28T13:49:15Z</time></trkpt><trkpt lat="40.02774365365845" lon="9.514640096741887"><ele>388.6</ele><time>2026-03-28T13:49:16Z</time></trkpt><trkpt lat="40.02777856121988" lon="9.514748957502501"><ele>387.4</ele><time>2026-03-28T13:49:17Z</time></trkpt><trkpt lat="40.0277530452738" lon="9.514870609375883"><ele>386.2</ele><time>2026-03-28T13:49:18Z</time></trkpt><trkpt lat="40.02766304355956" lon="9.514962435477553"><ele>385.0</ele><time>2026-03-28T13:49:19Z</time></trkpt><trkpt lat="40.02758225498617" lon="9.515094167155452"><ele>385.0</ele><time>2026-03-28T13:49:20Z</time></trkpt><trkpt lat="40.02749224907947" lon="9.515215971952554"><ele>385.0</ele><time>2026-03-28T13:49:21Z</time></trkpt><trkpt lat="40.02740314315695" lon="9.515367433686379"><ele>385.0</ele><time>2026-03-28T13:49:22Z</time></trkpt><trkpt lat="40.027317121153004" lon="9.515536278522628"><ele>385.0</ele><time>2026-03-28T13:49:23Z</time></trkpt><trkpt lat="40.02722873053262" lon="9.515713625945173"><ele>376.6666666666667</ele><time>2026-03-28T13:49:24Z</time></trkpt><trkpt lat="40.02713515161641" lon="9.515890511399096"><ele>368.33333333333337</ele><time>2026-03-28T13:49:25Z</time></trkpt><trkpt lat="40.02704659137668" lon="9.51607213644984"><ele>360.0</ele><time>2026-03-28T13:49:26Z</time></trkpt><trkpt lat="40.026983875789554" lon="9.516277402597723"><ele>360.0</ele><time>2026-03-28T13:49:27Z</time></trkpt><trkpt lat="40.02694818459263" lon="9.516501002988377"><ele>360.0</ele><time>2026-03-28T13:49:28Z</time></trkpt><trkpt lat="40.026904989383" lon="9.516730976946368"><ele>360.0</ele><time>2026-03-28T13:49:29Z</time></trkpt><trkpt lat="40.026844890777674" lon="9.516959668980089"><ele>362.3333333333333</ele><time>2026-03-28T13:49:30Z</time></trkpt><trkpt lat="40.02677995884877" lon="9.51719086149703"><ele>364.66666666666663</ele><time>2026-03-28T13:49:31Z</time></trkpt><trkpt lat="40.02671765586087" lon="9.517419450997888"><ele>367.0</ele><time>2026-03-28T13:49:32Z</time></trkpt><trkpt lat="40.02665066111843" lon="9.517645349906743"><ele>356.66666666666663</ele><time>2026-03-28T13:49:33Z</time></trkpt><trkpt lat="40.026576834954" lon="9.517865464721966"><ele>346.3333333333333</ele><time>2026-03-28T13:49:34Z</time></trkpt><trkpt lat="40.02649885737253" lon="9.518080669303496"><ele>336.0</ele><time>2026-03-28T13:49:35Z</time></trkpt><trkpt lat="40.026413388804066" lon="9.518288765880333"><ele>336.0</ele><time>2026-03-28T13:49:36Z</time></trkpt><trkpt lat="40.02630886536838" lon="9.518472345636601"><ele>336.0</ele><time>2026-03-28T13:49:37Z</time></trkpt><trkpt lat="40.026165484214545" lon="9.518608349243253"><ele>336.0</ele><time>2026-03-28T13:49:38Z</time></trkpt><trkpt lat="40.02602528832437" lon="9.518754487010503"><ele>341.6666666666667</ele><time>2026-03-28T13:49:39Z</time></trkpt><trkpt lat="40.025875057443336" lon="9.518885380891815"><ele>347.33333333333337</ele><time>2026-03-28T13:49:40Z</time></trkpt><trkpt lat="40.02573719197504" lon="9.51903707749207"><ele>353.0</ele><time>2026-03-28T13:49:41Z</time></trkpt><trkpt lat="40.02561094673751" lon="9.519202374126273"><ele>339.33333333333337</ele><time>2026-03-28T13:49:42Z</time></trkpt><trkpt lat="40.025492340784865" lon="9.519361593935178"><ele>325.6666666666667</ele><time>2026-03-28T13:49:43Z</time></trkpt><trkpt lat="40.02539907018532" lon="9.519520388193708"><ele>312.0</ele><time>2026-03-28T13:49:44Z</time></trkpt><trkpt lat="40.025350820565244" lon="9.519693234995312"><ele>311.25</ele><time>2026-03-28T13:49:45Z</time></trkpt><trkpt lat="40.02535559873827" lon="9.519879107663883"><ele>310.5</ele><time>2026-03-28T13:49:46Z</time></trkpt><trkpt lat="40.02540773388602" lon="9.52006244739898"><ele>309.75</ele><time>2026-03-28T13:49:47Z</time></trkpt><trkpt lat="40.02549779356867" lon="9.520201419344819"><ele>309.0</ele><time>2026-03-28T13:49:48Z</time></trkpt><trkpt lat="40.025602947543646" lon="9.520271861325885"><ele>309.0</ele><time>2026-03-28T13:49:49Z</time></trkpt><trkpt lat="40.02572818009678" lon="9.520268586635105"><ele>309.0</ele><time>2026-03-28T13:49:50Z</time></trkpt><trkpt lat="40.025862130279364" lon="9.520211997584225"><ele>309.0</ele><time>2026-03-28T13:49:51Z</time></trkpt><trkpt lat="40.02600602691631" lon="9.520127472717151"><ele>309.0</ele><time>2026-03-28T13:49:52Z</time></trkpt><trkpt lat="40.026160812247504" lon="9.520042613993555"><ele>317.5</ele><time>2026-03-28T13:49:53Z</time></trkpt><trkpt lat="40.02630658837931" lon="9.51995104177456"><ele>326.0</ele><time>2026-03-28T13:49:54Z</time></trkpt><trkpt lat="40.026429177990366" lon="9.519843751751921"><ele>334.5</ele><time>2026-03-28T13:49:55Z</time></trkpt><trkpt lat="40.0265252271952" lon="9.51973956292887"><ele>343.0</ele><time>2026-03-28T13:49:56Z</time></trkpt><trkpt lat="40.026611092123424" lon="9.51967196534688"><ele>343.0</ele><time>2026-03-28T13:49:57Z</time></trkpt><trkpt lat="40.026697271008004" lon="9.519668382205245"><ele>343.0</ele><time>2026-03-28T13:49:58Z</time></trkpt><trkpt lat="40.02676802336308" lon="9.519732706957894"><ele>343.0</ele><time>2026-03-28T13:49:59Z</time></trkpt><trkpt lat="40.02680530939994" lon="9.51983771490638"><ele>343.0</ele><time>2026-03-28T13:50:00Z</time></trkpt><trkpt lat="40.026795109462064" lon="9.519946236637614"><ele>343.0</ele><time>2026-03-28T13:50:01Z</time></trkpt><trkpt lat="40.026719093069836" lon="9.520027178580763"><ele>343.0</ele><time>2026-03-28T13:50:02Z</time></trkpt><trkpt lat="40.02664251402837" lon="9.520148402341203"><ele>343.0</ele><time>2026-03-28T13:50:03Z</time></trkpt><trkpt lat="40.02654781456793" lon="9.520262547305126"><ele>343.0</ele><time>2026-03-28T13:50:04Z</time></trkpt><trkpt lat="40.0264443838888" lon="9.520396669274621"><ele>343.0</ele><time>2026-03-28T13:50:05Z</time></trkpt><trkpt lat="40.02633793338315" lon="9.520549505681103"><ele>343.0</ele><time>2026-03-28T13:50:06Z</time></trkpt><trkpt lat="40.02621830743697" lon="9.520697250170313"><ele>338.0</ele><time>2026-03-28T13:50:07Z</time></trkpt><trkpt lat="40.02609334427637" lon="9.520840621175854"><ele>333.0</ele><time>2026-03-28T13:50:08Z</time></trkpt><trkpt lat="40.02593317385959" lon="9.520918703012525"><ele>328.0</ele><time>2026-03-28T13:50:09Z</time></trkpt><trkpt lat="40.025786225152075" lon="9.521023635807706"><ele>322.75</ele><time>2026-03-28T13:50:10Z</time></trkpt><trkpt lat="40.02564212386089" lon="9.521100042196377"><ele>317.5</ele><time>2026-03-28T13:50:11Z</time></trkpt><trkpt lat="40.02550244445244" lon="9.521163384742698"><ele>312.25</ele><time>2026-03-28T13:50:12Z</time></trkpt><trkpt lat="40.02536490795371" lon="9.521170874221022"><ele>307.0</ele><time>2026-03-28T13:50:13Z</time></trkpt><trkpt lat="40.0252465427469" lon="9.521085569154895"><ele>307.0</ele><time>2026-03-28T13:50:14Z</time></trkpt><trkpt lat="40.02512656655449" lon="9.521023537642785"><ele>307.0</ele><time>2026-03-28T13:50:15Z</time></trkpt><trkpt lat="40.0250117044115" lon="9.52096153582572"><ele>307.0</ele><time>2026-03-28T13:50:16Z</time></trkpt><trkpt lat="40.02489007394049" lon="9.520935897759939"><ele>307.0</ele><time>2026-03-28T13:50:17Z</time></trkpt><trkpt lat="40.02477217694795" lon="9.520961716182539"><ele>303.6</ele><time>2026-03-28T13:50:18Z</time></trkpt><trkpt lat="40.02468589237166" lon="9.521035075963688"><ele>300.2</ele><time>2026-03-28T13:50:19Z</time></trkpt><trkpt lat="40.02463951943738" lon="9.521149900908728"><ele>296.8</ele><time>2026-03-28T13:50:20Z</time></trkpt><trkpt lat="40.02463480476464" lon="9.521290318044256"><ele>293.4</ele><time>2026-03-28T13:50:21Z</time></trkpt><trkpt lat="40.02462017840355" lon="9.521434536289494"><ele>290.0</ele><time>2026-03-28T13:50:22Z</time></trkpt><trkpt lat="40.02455747727549" lon="9.521571851713574"><ele>290.0</ele><time>2026-03-28T13:50:23Z</time></trkpt><trkpt lat="40.02445701851972" lon="9.521686773952316"><ele>290.0</ele><time>2026-03-28T13:50:24Z</time></trkpt><trkpt lat="40.024337314387985" lon="9.521785082146188"><ele>290.0</ele><time>2026-03-28T13:50:25Z</time></trkpt><trkpt lat="40.02423082307865" lon="9.521897488847584"><ele>290.0</ele><time>2026-03-28T13:50:26Z</time></trkpt><trkpt lat="40.02413424806293" lon="9.5220347236638"><ele>282.5</ele><time>2026-03-28T13:50:27Z</time></trkpt><trkpt lat="40.02404099641245" lon="9.522181878754944"><ele>275.0</ele><time>2026-03-28T13:50:28Z</time></trkpt><trkpt lat="40.02394964535815" lon="9.522313471448687"><ele>267.5</ele><time>2026-03-28T13:50:29Z</time></trkpt><trkpt lat="40.02387071535131" lon="9.522430065082359"><ele>260.0</ele><time>2026-03-28T13:50:30Z</time></trkpt><trkpt lat="40.023823486064025" lon="9.522552963014112"><ele>260.0</ele><time>2026-03-28T13:50:31Z</time></trkpt><trkpt lat="40.02383133215888" lon="9.522676925822884"><ele>260.0</ele><time>2026-03-28T13:50:32Z</time></trkpt><trkpt lat="40.023895976024505" lon="9.522783179830594"><ele>260.0</ele><time>2026-03-28T13:50:33Z</time></trkpt><trkpt lat="40.023999600445926" lon="9.522836555421762"><ele>260.0</ele><time>2026-03-28T13:50:34Z</time></trkpt><trkpt lat="40.02411169284815" lon="9.522856812999597"><ele>260.0</ele><time>2026-03-28T13:50:35Z</time></trkpt><trkpt lat="40.02420287958895" lon="9.522905495188716"><ele>258.8</ele><time>2026-03-28T13:50:36Z</time></trkpt><trkpt lat="40.02426772970044" lon="9.522999463894415"><ele>257.6</ele><time>2026-03-28T13:50:37Z</time></trkpt><trkpt lat="40.02428238404501" lon="9.52313243406991"><ele>256.4</ele><time>2026-03-28T13:50:38Z</time></trkpt><trkpt lat="40.0242577307218" lon="9.52327964967639"><ele>255.2</ele><time>2026-03-28T13:50:39Z</time></trkpt><trkpt lat="40.02420699573463" lon="9.523434909353654"><ele>254.0</ele><time>2026-03-28T13:50:40Z</time></trkpt><trkpt lat="40.02414560557804" lon="9.523602560611991"><ele>258.6666666666667</ele><time>2026-03-28T13:50:41Z</time></trkpt><trkpt lat="40.024065886384825" lon="9.523765664003472"><ele>263.3333333333333</ele><time>2026-03-28T13:50:42Z</time></trkpt><trkpt lat="40.023963648448515" lon="9.523913373799667"><ele>268.0</ele><time>2026-03-28T13:50:43Z</time></trkpt><trkpt lat="40.02384778679255" lon="9.52403633160574"><ele>268.0</ele><time>2026-03-28T13:50:44Z</time></trkpt><trkpt lat="40.023708097241496" lon="9.524101821250461"><ele>268.0</ele><time>2026-03-28T13:50:45Z</time></trkpt><trkpt lat="40.02356668170512" lon="9.524180392834294"><ele>268.0</ele><time>2026-03-28T13:50:46Z</time></trkpt><trkpt lat="40.02341830561971" lon="9.524232350363794"><ele>263.75</ele><time>2026-03-28T13:50:47Z</time></trkpt><trkpt lat="40.02328001915265" lon="9.52432500795932"><ele>259.5</ele><time>2026-03-28T13:50:48Z</time></trkpt><trkpt lat="40.023164632316536" lon="9.524442833552154"><ele>255.25</ele><time>2026-03-28T13:50:49Z</time></trkpt><trkpt lat="40.02308520606933" lon="9.524560815242362"><ele>251.0</ele><time>2026-03-28T13:50:50Z</time></trkpt><trkpt lat="40.023054813350974" lon="9.524691897475849"><ele>251.0</ele><time>2026-03-28T13:50:51Z</time></trkpt><trkpt lat="40.02308380875992" lon="9.524816402931966"><ele>251.0</ele><time>2026-03-28T13:50:52Z</time></trkpt><trkpt lat="40.02316641830671" lon="9.52492767199783"><ele>251.0</ele><time>2026-03-28T13:50:53Z</time></trkpt><trkpt lat="40.02322481268799" lon="9.525058509596251"><ele>251.0</ele><time>2026-03-28T13:50:54Z</time></trkpt><trkpt lat="40.023223448933095" lon="9.525217597153672"><ele>251.0</ele><time>2026-03-28T13:50:55Z</time></trkpt><trkpt lat="40.023193792783836" lon="9.525394102159165"><ele>251.0</ele><time>2026-03-28T13:50:56Z</time></trkpt><trkpt lat="40.02319584625575" lon="9.525584400810672"><ele>251.0</ele><time>2026-03-28T13:50:57Z</time></trkpt><trkpt lat="40.023226580877136" lon="9.525779845837647"><ele>251.0</ele><time>2026-03-28T13:50:58Z</time></trkpt><trkpt lat="40.023244206385776" lon="9.525976180882832"><ele>247.75</ele><time>2026-03-28T13:50:59Z</time></trkpt><trkpt lat="40.02324482120195" lon="9.526172728638262"><ele>244.5</ele><time>2026-03-28T13:51:00Z</time></trkpt><trkpt lat="40.02324306586485" lon="9.526366008630356"><ele>241.25</ele><time>2026-03-28T13:51:01Z</time></trkpt><trkpt lat="40.02322760838358" lon="9.52653855692864"><ele>238.0</ele><time>2026-03-28T13:51:02Z</time></trkpt><trkpt lat="40.02317465460719" lon="9.526685582195284"><ele>238.25</ele><time>2026-03-28T13:51:03Z</time></trkpt><trkpt lat="40.023063898478696" lon="9.526759765518259"><ele>238.5</ele><time>2026-03-28T13:51:04Z</time></trkpt><trkpt lat="40.02295006253544" lon="9.526855198884153"><ele>238.75</ele><time>2026-03-28T13:51:05Z</time></trkpt><trkpt lat="40.02283841884654" lon="9.526988878935812"><ele>239.0</ele><time>2026-03-28T13:51:06Z</time></trkpt><trkpt lat="40.02272696380971" lon="9.52712659357929"><ele>239.0</ele><time>2026-03-28T13:51:07Z</time></trkpt><trkpt lat="40.02262284993267" lon="9.52726670568352"><ele>239.0</ele><time>2026-03-28T13:51:08Z</time></trkpt><trkpt lat="40.02252212771406" lon="9.527412101497205"><ele>239.0</ele><time>2026-03-28T13:51:09Z</time></trkpt><trkpt lat="40.02242538851761" lon="9.52755362448638"><ele>239.0</ele><time>2026-03-28T13:51:10Z</time></trkpt><trkpt lat="40.02234276760672" lon="9.527690792699028"><ele>236.79999999999998</ele><time>2026-03-28T13:51:11Z</time></trkpt><trkpt lat="40.02227456396411" lon="9.527816824261652"><ele>234.59999999999997</ele><time>2026-03-28T13:51:12Z</time></trkpt><trkpt lat="40.02225878291507" lon="9.52793281005279"><ele>232.4</ele><time>2026-03-28T13:51:13Z</time></trkpt><trkpt lat="40.02229891340577" lon="9.528037190304909"><ele>230.2</ele><time>2026-03-28T13:51:14Z</time></trkpt><trkpt lat="40.02238458254187" lon="9.528103737712428"><ele>228.0</ele><time>2026-03-28T13:51:15Z</time></trkpt><trkpt lat="40.02251031117276" lon="9.52812112850677"><ele>228.0</ele><time>2026-03-28T13:51:16Z</time></trkpt><trkpt lat="40.02264586674735" lon="9.528093473228893"><ele>228.0</ele><time>2026-03-28T13:51:17Z</time></trkpt><trkpt lat="40.02279925569895" lon="9.528042380120793"><ele>228.0</ele><time>2026-03-28T13:51:18Z</time></trkpt><trkpt lat="40.02295604103638" lon="9.528030133409462"><ele>228.0</ele><time>2026-03-28T13:51:19Z</time></trkpt><trkpt lat="40.02310679955034" lon="9.52806512988342"><ele>228.0</ele><time>2026-03-28T13:51:20Z</time></trkpt><trkpt lat="40.023246344276" lon="9.52810155207025"><ele>228.0</ele><time>2026-03-28T13:51:21Z</time></trkpt><trkpt lat="40.023364128011295" lon="9.528131963500876"><ele>228.0</ele><time>2026-03-28T13:51:22Z</time></trkpt><trkpt lat="40.02345832560351" lon="9.528193029621058"><ele>229.0</ele><time>2026-03-28T13:51:23Z</time></trkpt><trkpt lat="40.02351973019695" lon="9.528295911893943"><ele>230.0</ele><time>2026-03-28T13:51:24Z</time></trkpt><trkpt lat="40.02352492037394" lon="9.528425077366938"><ele>231.0</ele><time>2026-03-28T13:51:25Z</time></trkpt><trkpt lat="40.023461642113226" lon="9.528542800392636"><ele>232.0</ele><time>2026-03-28T13:51:26Z</time></trkpt><trkpt lat="40.02340181378721" lon="9.528686500291057"><ele>233.0</ele><time>2026-03-28T13:51:27Z</time></trkpt><trkpt lat="40.02333551270372" lon="9.52882648989753"><ele>229.0</ele><time>2026-03-28T13:51:28Z</time></trkpt><trkpt lat="40.02329950739315" lon="9.5289759005597"><ele>225.0</ele><time>2026-03-28T13:51:29Z</time></trkpt><trkpt lat="40.02332170573626" lon="9.529110062353434"><ele>221.0</ele><time>2026-03-28T13:51:30Z</time></trkpt><trkpt lat="40.02340054355499" lon="9.529204830987338"><ele>217.0</ele><time>2026-03-28T13:51:31Z</time></trkpt><trkpt lat="40.023524389517156" lon="9.529258000433728"><ele>217.0</ele><time>2026-03-28T13:51:32Z</time></trkpt><trkpt lat="40.023672811967764" lon="9.529266930241855"><ele>217.0</ele><time>2026-03-28T13:51:33Z</time></trkpt><trkpt lat="40.02382314501087" lon="9.529303934746931"><ele>217.0</ele><time>2026-03-28T13:51:34Z</time></trkpt><trkpt lat="40.02395368114821" lon="9.52939348095385"><ele>217.0</ele><time>2026-03-28T13:51:35Z</time></trkpt><trkpt lat="40.02407183000789" lon="9.529512255386996"><ele>219.5</ele><time>2026-03-28T13:51:36Z</time></trkpt><trkpt lat="40.02420161718373" lon="9.529578131080342"><ele>222.0</ele><time>2026-03-28T13:51:37Z</time></trkpt><trkpt lat="40.02433678371778" lon="9.52956689389551"><ele>224.5</ele><time>2026-03-28T13:51:38Z</time></trkpt><trkpt lat="40.02446638009645" lon="9.529501723568078"><ele>227.0</ele><time>2026-03-28T13:51:39Z</time></trkpt><trkpt lat="40.02457553011845" lon="9.529415040307518"><ele>227.0</ele><time>2026-03-28T13:51:40Z</time></trkpt><trkpt lat="40.024679470910144" lon="9.529357273841752"><ele>227.0</ele><time>2026-03-28T13:51:41Z</time></trkpt><trkpt lat="40.024779985237636" lon="9.5293541253555"><ele>227.0</ele><time>2026-03-28T13:51:42Z</time></trkpt><trkpt lat="40.02485567830064" lon="9.529408732595979"><ele>227.0</ele><time>2026-03-28T13:51:43Z</time></trkpt><trkpt lat="40.02488659710948" lon="9.529513558880069"><ele>227.0</ele><time>2026-03-28T13:51:44Z</time></trkpt><trkpt lat="40.02486098204139" lon="9.5296174178041"><ele>220.0</ele><time>2026-03-28T13:51:45Z</time></trkpt><trkpt lat="40.02478206654103" lon="9.529703345465958"><ele>213.0</ele><time>2026-03-28T13:51:46Z</time></trkpt><trkpt lat="40.02465531917325" lon="9.529738608606044"><ele>206.0</ele><time>2026-03-28T13:51:47Z</time></trkpt><trkpt lat="40.02452509509937" lon="9.529770940742564"><ele>199.0</ele><time>2026-03-28T13:51:48Z</time></trkpt><trkpt lat="40.02438554088122" lon="9.52982476128776"><ele>199.0</ele><time>2026-03-28T13:51:49Z</time></trkpt><trkpt lat="40.024237898479505" lon="9.52988147260945"><ele>199.0</ele><time>2026-03-28T13:51:50Z</time></trkpt><trkpt lat="40.02408500863866" lon="9.529913629262975"><ele>199.0</ele><time>2026-03-28T13:51:51Z</time></trkpt><trkpt lat="40.02393511172485" lon="9.529897134906447"><ele>198.5</ele><time>2026-03-28T13:51:52Z</time></trkpt><trkpt lat="40.023799859139494" lon="9.529872908933132"><ele>198.0</ele><time>2026-03-28T13:51:53Z</time></trkpt><trkpt lat="40.023680007138005" lon="9.529858398135179"><ele>197.5</ele><time>2026-03-28T13:51:54Z</time></trkpt><trkpt lat="40.02357745584249" lon="9.529962432427393"><ele>197.0</ele><time>2026-03-28T13:51:55Z</time></trkpt><trkpt lat="40.02349303390733" lon="9.530103883031503"><ele>197.0</ele><time>2026-03-28T13:51:56Z</time></trkpt><trkpt lat="40.02342272584716" lon="9.530272934016933"><ele>197.0</ele><time>2026-03-28T13:51:57Z</time></trkpt><trkpt lat="40.02334448945353" lon="9.530439480690367"><ele>197.0</ele><time>2026-03-28T13:51:58Z</time></trkpt><trkpt lat="40.02326363482618" lon="9.53059536423728"><ele>197.0</ele><time>2026-03-28T13:51:59Z</time></trkpt><trkpt lat="40.02319318326962" lon="9.530721863544047"><ele>192.6</ele><time>2026-03-28T13:52:00Z</time></trkpt><trkpt lat="40.023111610196686" lon="9.53080513256012"><ele>188.2</ele><time>2026-03-28T13:52:01Z</time></trkpt><trkpt lat="40.023018208364185" lon="9.53081286431341"><ele>183.8</ele><time>2026-03-28T13:52:02Z</time></trkpt><trkpt lat="40.02293618125959" lon="9.530719221218222"><ele>179.4</ele><time>2026-03-28T13:52:03Z</time></trkpt><trkpt lat="40.022835622510854" lon="9.530605273249385"><ele>175.0</ele><time>2026-03-28T13:52:04Z</time></trkpt><trkpt lat="40.02272860287135" lon="9.530486169841812"><ele>176.8</ele><time>2026-03-28T13:52:05Z</time></trkpt><trkpt lat="40.022646688701805" lon="9.53035662418721"><ele>178.6</ele><time>2026-03-28T13:52:06Z</time></trkpt><trkpt lat="40.022621446964365" lon="9.530202309638753"><ele>180.39999999999998</ele><time>2026-03-28T13:52:07Z</time></trkpt><trkpt lat="40.02262167536709" lon="9.530078033118286"><ele>182.2</ele><time>2026-03-28T13:52:08Z</time></trkpt><trkpt lat="40.022610944470436" lon="9.5299473240558"><ele>184.0</ele><time>2026-03-28T13:52:09Z</time></trkpt><trkpt lat="40.02255119216036" lon="9.529862203897567"><ele>182.39999999999998</ele><time>2026-03-28T13:52:10Z</time></trkpt><trkpt lat="40.022458452985035" lon="9.5298476155029"><ele>180.8</ele><time>2026-03-28T13:52:11Z</time></trkpt><trkpt lat="40.022363359006" lon="9.52990812548826"><ele>179.2</ele><time>2026-03-28T13:52:12Z</time></trkpt><trkpt lat="40.0222944307335" lon="9.530032538844253"><ele>177.60000000000002</ele><time>2026-03-28T13:52:13Z</time></trkpt><trkpt lat="40.022234121355844" lon="9.530183327538865"><ele>176.0</ele><time>2026-03-28T13:52:14Z</time></trkpt><trkpt lat="40.022174286309856" lon="9.530350253700577"><ele>174.75</ele><time>2026-03-28T13:52:15Z</time></trkpt><trkpt lat="40.02215486272804" lon="9.530543060843966"><ele>173.5</ele><time>2026-03-28T13:52:16Z</time></trkpt><trkpt lat="40.02217427539728" lon="9.530736839991148"><ele>172.25</ele><time>2026-03-28T13:52:17Z</time></trkpt><trkpt lat="40.022174882722396" lon="9.53092118205874"><ele>171.0</ele><time>2026-03-28T13:52:18Z</time></trkpt><trkpt lat="40.02212747080931" lon="9.53109209018424"><ele>169.75</ele><time>2026-03-28T13:52:19Z</time></trkpt><trkpt lat="40.022035266708485" lon="9.531229997166308"><ele>168.5</ele><time>2026-03-28T13:52:20Z</time></trkpt><trkpt lat="40.02192093176184" lon="9.531343599371617"><ele>167.25</ele><time>2026-03-28T13:52:21Z</time></trkpt><trkpt lat="40.02180040334154" lon="9.531454440682017"><ele>166.0</ele><time>2026-03-28T13:52:22Z</time></trkpt><trkpt lat="40.02168122208572" lon="9.531557618649071"><ele>162.75</ele><time>2026-03-28T13:52:23Z</time></trkpt><trkpt lat="40.021548128567304" lon="9.531630511878406"><ele>159.5</ele><time>2026-03-28T13:52:24Z</time></trkpt><trkpt lat="40.021437545923085" lon="9.531700552511538"><ele>156.25</ele><time>2026-03-28T13:52:25Z</time></trkpt><trkpt lat="40.02136140314552" lon="9.531820839172367"><ele>153.0</ele><time>2026-03-28T13:52:26Z</time></trkpt><trkpt lat="40.021333902399874" lon="9.531982033517254"><ele>152.0</ele><time>2026-03-28T13:52:27Z</time></trkpt><trkpt lat="40.021348073471295" lon="9.532165010348054"><ele>151.0</ele><time>2026-03-28T13:52:28Z</time></trkpt><trkpt lat="40.021384308773165" lon="9.532354116324358"><ele>150.0</ele><time>2026-03-28T13:52:29Z</time></trkpt><trkpt lat="40.02142856643584" lon="9.532533747324276"><ele>149.0</ele><time>2026-03-28T13:52:30Z</time></trkpt><trkpt lat="40.02149531665584" lon="9.532679229285241"><ele>149.0</ele><time>2026-03-28T13:52:31Z</time></trkpt><trkpt lat="40.02158698562856" lon="9.53278109065293"><ele>149.0</ele><time>2026-03-28T13:52:32Z</time></trkpt><trkpt lat="40.02167174432454" lon="9.532845122436367"><ele>149.0</ele><time>2026-03-28T13:52:33Z</time></trkpt><trkpt lat="40.0217155582478" lon="9.532933481884028"><ele>149.0</ele><time>2026-03-28T13:52:34Z</time></trkpt><trkpt lat="40.021711205874816" lon="9.533038651706793"><ele>149.0</ele><time>2026-03-28T13:52:35Z</time></trkpt><trkpt lat="40.021659666203156" lon="9.533126355315794"><ele>149.0</ele><time>2026-03-28T13:52:36Z</time></trkpt><trkpt lat="40.02157734543654" lon="9.533158622410213"><ele>149.0</ele><time>2026-03-28T13:52:37Z</time></trkpt><trkpt lat="40.02150501188723" lon="9.533121366400687"><ele>149.0</ele><time>2026-03-28T13:52:38Z</time></trkpt><trkpt lat="40.021448923762335" lon="9.53302687179964"><ele>149.0</ele><time>2026-03-28T13:52:39Z</time></trkpt><trkpt lat="40.02141262287849" lon="9.532875675559914"><ele>149.0</ele><time>2026-03-28T13:52:40Z</time></trkpt><trkpt lat="40.02136453830207" lon="9.532729812252915"><ele>149.0</ele><time>2026-03-28T13:52:41Z</time></trkpt><trkpt lat="40.02130391032861" lon="9.532569188326608"><ele>149.0</ele><time>2026-03-28T13:52:42Z</time></trkpt><trkpt lat="40.02123981575355" lon="9.532397629276748"><ele>149.0</ele><time>2026-03-28T13:52:43Z</time></trkpt><trkpt lat="40.02117411460179" lon="9.532220543654793"><ele>149.0</ele><time>2026-03-28T13:52:44Z</time></trkpt><trkpt lat="40.02110618592466" lon="9.532044588931479"><ele>150.0</ele><time>2026-03-28T13:52:45Z</time></trkpt><trkpt lat="40.021039995312094" lon="9.531874702916996"><ele>151.0</ele><time>2026-03-28T13:52:46Z</time></trkpt><trkpt lat="40.02097919206424" lon="9.531708985917438"><ele>152.0</ele><time>2026-03-28T13:52:47Z</time></trkpt><trkpt lat="40.02093071235707" lon="9.531540714823644"><ele>153.0</ele><time>2026-03-28T13:52:48Z</time></trkpt><trkpt lat="40.02089077988451" lon="9.531363028781632"><ele>153.75</ele><time>2026-03-28T13:52:49Z</time></trkpt><trkpt lat="40.02085279924206" lon="9.531183480887705"><ele>154.5</ele><time>2026-03-28T13:52:50Z</time></trkpt><trkpt lat="40.020820966452874" lon="9.531018616790519"><ele>155.25</ele><time>2026-03-28T13:52:51Z</time></trkpt><trkpt lat="40.020791633283594" lon="9.530864545480549"><ele>156.0</ele><time>2026-03-28T13:52:52Z</time></trkpt><trkpt lat="40.020756360157776" lon="9.53072208394471"><ele>158.25</ele><time>2026-03-28T13:52:53Z</time></trkpt><trkpt lat="40.02071574677514" lon="9.53059155450769"><ele>160.5</ele><time>2026-03-28T13:52:54Z</time></trkpt><trkpt lat="40.0206081804614" lon="9.530546607065451"><ele>162.75</ele><time>2026-03-28T13:52:55Z</time></trkpt><trkpt lat="40.020495906324314" lon="9.530538000043801"><ele>165.0</ele><time>2026-03-28T13:52:56Z</time></trkpt><trkpt lat="40.02037409935099" lon="9.530556884096153"><ele>165.0</ele><time>2026-03-28T13:52:57Z</time></trkpt><trkpt lat="40.02026923755525" lon="9.530572146260702"><ele>165.0</ele><time>2026-03-28T13:52:58Z</time></trkpt><trkpt lat="40.02017159159089" lon="9.530608931628768"><ele>165.0</ele><time>2026-03-28T13:52:59Z</time></trkpt><trkpt lat="40.020124156292766" lon="9.530766602362903"><ele>165.0</ele><time>2026-03-28T13:53:00Z</time></trkpt><trkpt lat="40.02010831810701" lon="9.530930035641331"><ele>165.0</ele><time>2026-03-28T13:53:01Z</time></trkpt><trkpt lat="40.02012048896044" lon="9.531109348074875"><ele>165.0</ele><time>2026-03-28T13:53:02Z</time></trkpt><trkpt lat="40.020124822485684" lon="9.531304227884867"><ele>165.0</ele><time>2026-03-28T13:53:03Z</time></trkpt><trkpt lat="40.02011956833235" lon="9.53151067873273"><ele>165.0</ele><time>2026-03-28T13:53:04Z</time></trkpt><trkpt lat="40.02011080584454" lon="9.531727259274973"><ele>164.33333333333334</ele><time>2026-03-28T13:53:05Z</time></trkpt><trkpt lat="40.02009658850061" lon="9.531956157416083"><ele>163.66666666666669</ele><time>2026-03-28T13:53:06Z</time></trkpt><trkpt lat="40.0200836051153" lon="9.532186062441546"><ele>163.0</ele><time>2026-03-28T13:53:07Z</time></trkpt><trkpt lat="40.02007517376508" lon="9.532410441423497"><ele>161.66666666666669</ele><time>2026-03-28T13:53:08Z</time></trkpt><trkpt lat="40.02006826115176" lon="9.53263938777633"><ele>160.33333333333334</ele><time>2026-03-28T13:53:09Z</time></trkpt><trkpt lat="40.0200584491941" lon="9.532865480170905"><ele>159.0</ele><time>2026-03-28T13:53:10Z</time></trkpt><trkpt lat="40.02004570330168" lon="9.53308576246246"><ele>159.0</ele><time>2026-03-28T13:53:11Z</time></trkpt><trkpt lat="40.02003064734013" lon="9.533306925332516"><ele>159.0</ele><time>2026-03-28T13:53:12Z</time></trkpt><trkpt lat="40.02000039858198" lon="9.533515316917649"><ele>159.0</ele><time>2026-03-28T13:53:13Z</time></trkpt><trkpt lat="40.01994260487536" lon="9.533724093000213"><ele>168.66666666666666</ele><time>2026-03-28T13:53:14Z</time></trkpt><trkpt lat="40.01987151692858" lon="9.533930310333652"><ele>178.33333333333331</ele><time>2026-03-28T13:53:15Z</time></trkpt><trkpt lat="40.01979810593116" lon="9.534135606451262"><ele>188.0</ele><time>2026-03-28T13:53:16Z</time></trkpt><trkpt lat="40.019714328172796" lon="9.534331285696961"><ele>188.0</ele><time>2026-03-28T13:53:17Z</time></trkpt><trkpt lat="40.01961175266379" lon="9.534513900779793"><ele>188.0</ele><time>2026-03-28T13:53:18Z</time></trkpt><trkpt lat="40.019500069373784" lon="9.534689591667577"><ele>188.0</ele><time>2026-03-28T13:53:19Z</time></trkpt><trkpt lat="40.01939056774118" lon="9.534861776589366"><ele>187.75</ele><time>2026-03-28T13:53:20Z</time></trkpt><trkpt lat="40.01928922933209" lon="9.53502598839392"><ele>187.5</ele><time>2026-03-28T13:53:21Z</time></trkpt><trkpt lat="40.01919739330668" lon="9.53517572783939"><ele>187.25</ele><time>2026-03-28T13:53:22Z</time></trkpt><trkpt lat="40.019101720480016" lon="9.535299248134486"><ele>187.0</ele><time>2026-03-28T13:53:23Z</time></trkpt><trkpt lat="40.01898196189949" lon="9.535378947491354"><ele>187.0</ele><time>2026-03-28T13:53:24Z</time></trkpt><trkpt lat="40.01884962930726" lon="9.53540046493459"><ele>187.0</ele><time>2026-03-28T13:53:25Z</time></trkpt><trkpt lat="40.01872996747361" lon="9.535332782035397"><ele>187.0</ele><time>2026-03-28T13:53:26Z</time></trkpt><trkpt lat="40.01861772432292" lon="9.535293361487096"><ele>187.0</ele><time>2026-03-28T13:53:27Z</time></trkpt><trkpt lat="40.01850826046705" lon="9.535308821819177"><ele>187.0</ele><time>2026-03-28T13:53:28Z</time></trkpt><trkpt lat="40.01841660194266" lon="9.535393850141064"><ele>187.0</ele><time>2026-03-28T13:53:29Z</time></trkpt><trkpt lat="40.01836186202439" lon="9.53553287144305"><ele>187.0</ele><time>2026-03-28T13:53:30Z</time></trkpt><trkpt lat="40.018319780966" lon="9.535694636063806"><ele>187.0</ele><time>2026-03-28T13:53:31Z</time></trkpt><trkpt lat="40.01825096612606" lon="9.535831795840446"><ele>187.0</ele><time>2026-03-28T13:53:32Z</time></trkpt><trkpt lat="40.018138497818924" lon="9.535906269202254"><ele>187.0</ele><time>2026-03-28T13:53:33Z</time></trkpt><trkpt lat="40.01799805288178" lon="9.535936636071746"><ele>187.0</ele><time>2026-03-28T13:53:34Z</time></trkpt><trkpt lat="40.0178410929866" lon="9.535956365416745"><ele>187.0</ele><time>2026-03-28T13:53:35Z</time></trkpt><trkpt lat="40.017679329003094" lon="9.535999955629183"><ele>187.0</ele><time>2026-03-28T13:53:36Z</time></trkpt><trkpt lat="40.017513843330455" lon="9.536081225828507"><ele>187.0</ele><time>2026-03-28T13:53:37Z</time></trkpt><trkpt lat="40.01734541538453" lon="9.536194495594215"><ele>187.0</ele><time>2026-03-28T13:53:38Z</time></trkpt><trkpt lat="40.01718079493581" lon="9.536315063420966"><ele>188.0</ele><time>2026-03-28T13:53:39Z</time></trkpt><trkpt lat="40.01702506773311" lon="9.536444440428568"><ele>189.0</ele><time>2026-03-28T13:53:40Z</time></trkpt><trkpt lat="40.01689716663091" lon="9.536609142450295"><ele>190.0</ele><time>2026-03-28T13:53:41Z</time></trkpt><trkpt lat="40.01679370103444" lon="9.536786244466857"><ele>190.0</ele><time>2026-03-28T13:53:42Z</time></trkpt><trkpt lat="40.01667710189636" lon="9.536941582582074"><ele>190.0</ele><time>2026-03-28T13:53:43Z</time></trkpt><trkpt lat="40.01654535899325" lon="9.537060902110689"><ele>190.0</ele><time>2026-03-28T13:53:44Z</time></trkpt><trkpt lat="40.01640287903437" lon="9.537138983622942"><ele>189.0</ele><time>2026-03-28T13:53:45Z</time></trkpt><trkpt lat="40.016251696167295" lon="9.537153870717534"><ele>188.0</ele><time>2026-03-28T13:53:46Z</time></trkpt><trkpt lat="40.01610022310349" lon="9.537105699416985"><ele>187.0</ele><time>2026-03-28T13:53:47Z</time></trkpt><trkpt lat="40.01594796778762" lon="9.537010902173035"><ele>183.33333333333334</ele><time>2026-03-28T13:53:48Z</time></trkpt><trkpt lat="40.01579807607551" lon="9.536878540634563"><ele>179.66666666666666</ele><time>2026-03-28T13:53:49Z</time></trkpt><trkpt lat="40.01565078629124" lon="9.536731963742088"><ele>176.0</ele><time>2026-03-28T13:53:50Z</time></trkpt><trkpt lat="40.01550160252416" lon="9.53659616661209"><ele>176.0</ele><time>2026-03-28T13:53:51Z</time></trkpt><trkpt lat="40.01534546217818" lon="9.53649421161835"><ele>176.0</ele><time>2026-03-28T13:53:52Z</time></trkpt><trkpt lat="40.015191139397835" lon="9.536409536527259"><ele>176.0</ele><time>2026-03-28T13:53:53Z</time></trkpt><trkpt lat="40.01504460524436" lon="9.536321348802876"><ele>173.66666666666666</ele><time>2026-03-28T13:53:54Z</time></trkpt><trkpt lat="40.01487867861142" lon="9.536340367612556"><ele>171.33333333333334</ele><time>2026-03-28T13:53:55Z</time></trkpt><trkpt lat="40.0147244296423" lon="9.536391878366532"><ele>169.0</ele><time>2026-03-28T13:53:56Z</time></trkpt><trkpt lat="40.014580331297374" lon="9.536441080397456"><ele>169.0</ele><time>2026-03-28T13:53:57Z</time></trkpt><trkpt lat="40.01444029091444" lon="9.536462655443819"><ele>169.0</ele><time>2026-03-28T13:53:58Z</time></trkpt><trkpt lat="40.01430241954339" lon="9.536429329156025"><ele>169.0</ele><time>2026-03-28T13:53:59Z</time></trkpt><trkpt lat="40.014186246184074" lon="9.53633685044464"><ele>169.0</ele><time>2026-03-28T13:54:00Z</time></trkpt><trkpt lat="40.01411374425724" lon="9.536194216233012"><ele>170.75</ele><time>2026-03-28T13:54:01Z</time></trkpt><trkpt lat="40.01412115170535" lon="9.536039032281373"><ele>172.5</ele><time>2026-03-28T13:54:02Z</time></trkpt><trkpt lat="40.014175865786314" lon="9.535932517403278"><ele>174.25</ele><time>2026-03-28T13:54:03Z</time></trkpt><trkpt lat="40.014234635183044" lon="9.535789228884367"><ele>176.0</ele><time>2026-03-28T13:54:04Z</time></trkpt><trkpt lat="40.01428144814596" lon="9.535657712055723"><ele>176.0</ele><time>2026-03-28T13:54:05Z</time></trkpt><trkpt lat="40.01430292627721" lon="9.535528501189935"><ele>176.0</ele><time>2026-03-28T13:54:06Z</time></trkpt><trkpt lat="40.014251817142416" lon="9.535409537479152"><ele>176.0</ele><time>2026-03-28T13:54:07Z</time></trkpt><trkpt lat="40.01413214250737" lon="9.535379629957966"><ele>176.0</ele><time>2026-03-28T13:54:08Z</time></trkpt><trkpt lat="40.01401678182924" lon="9.535407596137016"><ele>176.0</ele><time>2026-03-28T13:54:09Z</time></trkpt><trkpt lat="40.01389687050456" lon="9.535493154877477"><ele>176.0</ele><time>2026-03-28T13:54:10Z</time></trkpt><trkpt lat="40.01376184870712" lon="9.535593989842434"><ele>176.0</ele><time>2026-03-28T13:54:11Z</time></trkpt><trkpt lat="40.013618734985236" lon="9.535715611972291"><ele>176.0</ele><time>2026-03-28T13:54:12Z</time></trkpt><trkpt lat="40.01348107020805" lon="9.535849165514202"><ele>176.0</ele><time>2026-03-28T13:54:13Z</time></trkpt><trkpt lat="40.01335115650005" lon="9.53599078178526"><ele>176.0</ele><time>2026-03-28T13:54:14Z</time></trkpt><trkpt lat="40.013251814240846" lon="9.536144190514351"><ele>176.0</ele><time>2026-03-28T13:54:15Z</time></trkpt><trkpt lat="40.01317542545823" lon="9.536298867807435"><ele>172.0</ele><time>2026-03-28T13:54:16Z</time></trkpt><trkpt lat="40.01307870821066" lon="9.536408463906346"><ele>168.0</ele><time>2026-03-28T13:54:17Z</time></trkpt><trkpt lat="40.01296022926925" lon="9.536451567554872"><ele>164.0</ele><time>2026-03-28T13:54:18Z</time></trkpt><trkpt lat="40.012834632323916" lon="9.536420550675269"><ele>160.0</ele><time>2026-03-28T13:54:19Z</time></trkpt><trkpt lat="40.0127082945662" lon="9.536353924941638"><ele>160.0</ele><time>2026-03-28T13:54:20Z</time></trkpt><trkpt lat="40.012590085282106" lon="9.536251633519655"><ele>160.0</ele><time>2026-03-28T13:54:21Z</time></trkpt><trkpt lat="40.01248105041121" lon="9.53615039894243"><ele>160.0</ele><time>2026-03-28T13:54:22Z</time></trkpt><trkpt lat="40.012362072971825" lon="9.536103091941444"><ele>160.0</ele><time>2026-03-28T13:54:23Z</time></trkpt><trkpt lat="40.01223426808954" lon="9.536124632225029"><ele>159.75</ele><time>2026-03-28T13:54:24Z</time></trkpt><trkpt lat="40.01209687503689" lon="9.536190024193463"><ele>159.5</ele><time>2026-03-28T13:54:25Z</time></trkpt><trkpt lat="40.011949383407035" lon="9.536238046209256"><ele>159.25</ele><time>2026-03-28T13:54:26Z</time></trkpt><trkpt lat="40.01180539573713" lon="9.536289929924077"><ele>159.0</ele><time>2026-03-28T13:54:27Z</time></trkpt><trkpt lat="40.011683521578796" lon="9.536369339390625"><ele>160.25</ele><time>2026-03-28T13:54:28Z</time></trkpt><trkpt lat="40.01161336273407" lon="9.536492450774864"><ele>161.5</ele><time>2026-03-28T13:54:29Z</time></trkpt><trkpt lat="40.01159840329214" lon="9.536647230084544"><ele>162.75</ele><time>2026-03-28T13:54:30Z</time></trkpt><trkpt lat="40.01160624028942" lon="9.536821587073947"><ele>164.0</ele><time>2026-03-28T13:54:31Z</time></trkpt><trkpt lat="40.01161895194306" lon="9.536988250125153"><ele>166.25</ele><time>2026-03-28T13:54:32Z</time></trkpt><trkpt lat="40.01167380309831" lon="9.537133896293282"><ele>168.5</ele><time>2026-03-28T13:54:33Z</time></trkpt><trkpt lat="40.011779020558365" lon="9.537225443925475"><ele>170.75</ele><time>2026-03-28T13:54:34Z</time></trkpt><trkpt lat="40.01191243162675" lon="9.537269062946963"><ele>173.0</ele><time>2026-03-28T13:54:35Z</time></trkpt><trkpt lat="40.01203819834269" lon="9.537310585372634"><ele>173.0</ele><time>2026-03-28T13:54:36Z</time></trkpt><trkpt lat="40.01216404137124" lon="9.537350756592222"><ele>173.0</ele><time>2026-03-28T13:54:37Z</time></trkpt><trkpt lat="40.01228108055912" lon="9.537398535929276"><ele>173.0</ele><time>2026-03-28T13:54:38Z</time></trkpt><trkpt lat="40.01239350967765" lon="9.537443873367444"><ele>173.0</ele><time>2026-03-28T13:54:39Z</time></trkpt><trkpt lat="40.01250978681597" lon="9.53750021768033"><ele>170.25</ele><time>2026-03-28T13:54:40Z</time></trkpt><trkpt lat="40.01262344783439" lon="9.537586942230497"><ele>167.5</ele><time>2026-03-28T13:54:41Z</time></trkpt><trkpt lat="40.01272964104835" lon="9.537708352528012"><ele>164.75</ele><time>2026-03-28T13:54:42Z</time></trkpt><trkpt lat="40.01281549870954" lon="9.537866320621244"><ele>162.0</ele><time>2026-03-28T13:54:43Z</time></trkpt><trkpt lat="40.01288592041767" lon="9.538050660783545"><ele>162.0</ele><time>2026-03-28T13:54:44Z</time></trkpt><trkpt lat="40.012955963207645" lon="9.538230396446203"><ele>162.0</ele><time>2026-03-28T13:54:45Z</time></trkpt><trkpt lat="40.01303884012562" lon="9.53839039269264"><ele>162.0</ele><time>2026-03-28T13:54:46Z</time></trkpt><trkpt lat="40.01314979185327" lon="9.538514971147055"><ele>162.0</ele><time>2026-03-28T13:54:47Z</time></trkpt><trkpt lat="40.01329233311112" lon="9.538591357417513"><ele>159.0</ele><time>2026-03-28T13:54:48Z</time></trkpt><trkpt lat="40.013448262858795" lon="9.538628615533218"><ele>156.0</ele><time>2026-03-28T13:54:49Z</time></trkpt><trkpt lat="40.01360300957349" lon="9.538656138589895"><ele>153.0</ele><time>2026-03-28T13:54:50Z</time></trkpt><trkpt lat="40.01375273848203" lon="9.538685401809794"><ele>153.0</ele><time>2026-03-28T13:54:51Z</time></trkpt><trkpt lat="40.01389771089925" lon="9.538715904528772"><ele>153.0</ele><time>2026-03-28T13:54:52Z</time></trkpt><trkpt lat="40.01403797398447" lon="9.538746287621196"><ele>153.0</ele><time>2026-03-28T13:54:53Z</time></trkpt><trkpt lat="40.0141700108053" lon="9.538774095225488"><ele>153.0</ele><time>2026-03-28T13:54:54Z</time></trkpt><trkpt lat="40.014295826997234" lon="9.53879578114378"><ele>157.0</ele><time>2026-03-28T13:54:55Z</time></trkpt><trkpt lat="40.01441764840103" lon="9.53881780226273"><ele>161.0</ele><time>2026-03-28T13:54:56Z</time></trkpt><trkpt lat="40.01454008641107" lon="9.538851873808436"><ele>165.0</ele><time>2026-03-28T13:54:57Z</time></trkpt><trkpt lat="40.01466084197768" lon="9.53889962936297"><ele>169.0</ele><time>2026-03-28T13:54:58Z</time></trkpt><trkpt lat="40.01477074602698" lon="9.538963205186443"><ele>169.0</ele><time>2026-03-28T13:54:59Z</time></trkpt><trkpt lat="40.01486993995589" lon="9.539030537593893"><ele>169.0</ele><time>2026-03-28T13:55:00Z</time></trkpt><trkpt lat="40.014959780793085" lon="9.539098169768454"><ele>169.0</ele><time>2026-03-28T13:55:01Z</time></trkpt><trkpt lat="40.01504203082238" lon="9.539165122786489"><ele>169.0</ele><time>2026-03-28T13:55:02Z</time></trkpt><trkpt lat="40.01510996833015" lon="9.53924764475573"><ele>169.0</ele><time>2026-03-28T13:55:03Z</time></trkpt><trkpt lat="40.01515357443451" lon="9.539362529117476"><ele>167.39999999999998</ele><time>2026-03-28T13:55:04Z</time></trkpt><trkpt lat="40.01516096787269" lon="9.539496128063961"><ele>165.8</ele><time>2026-03-28T13:55:05Z</time></trkpt><trkpt lat="40.01514662990493" lon="9.539634862189278"><ele>164.2</ele><time>2026-03-28T13:55:06Z</time></trkpt><trkpt lat="40.01513094826673" lon="9.539768804870933"><ele>162.60000000000002</ele><time>2026-03-28T13:55:07Z</time></trkpt><trkpt lat="40.01511140169311" lon="9.5399019205287"><ele>161.0</ele><time>2026-03-28T13:55:08Z</time></trkpt><trkpt lat="40.0150743558891" lon="9.540024839780479"><ele>161.0</ele><time>2026-03-28T13:55:09Z</time></trkpt><trkpt lat="40.01501923774403" lon="9.540139155941748"><ele>161.0</ele><time>2026-03-28T13:55:10Z</time></trkpt><trkpt lat="40.01495686286641" lon="9.540249641772165"><ele>161.0</ele><time>2026-03-28T13:55:11Z</time></trkpt><trkpt lat="40.01490128971239" lon="9.540370167444635"><ele>161.0</ele><time>2026-03-28T13:55:12Z</time></trkpt><trkpt lat="40.01485724935419" lon="9.540503355157146"><ele>161.0</ele><time>2026-03-28T13:55:13Z</time></trkpt><trkpt lat="40.01482103628949" lon="9.540637994175919"><ele>168.20000000000002</ele><time>2026-03-28T13:55:14Z</time></trkpt><trkpt lat="40.01478655116775" lon="9.540765488314488"><ele>175.4</ele><time>2026-03-28T13:55:15Z</time></trkpt><trkpt lat="40.0147592363828" lon="9.540889574328428"><ele>182.6</ele><time>2026-03-28T13:55:16Z</time></trkpt><trkpt lat="40.01475115349085" lon="9.541016492646351"><ele>189.8</ele><time>2026-03-28T13:55:17Z</time></trkpt><trkpt lat="40.01478120443191" lon="9.541144556243419"><ele>197.0</ele><time>2026-03-28T13:55:18Z</time></trkpt><trkpt lat="40.01483736250017" lon="9.541271439362946"><ele>197.75</ele><time>2026-03-28T13:55:19Z</time></trkpt><trkpt lat="40.01490515356053" lon="9.541394553148313"><ele>198.5</ele><time>2026-03-28T13:55:20Z</time></trkpt><trkpt lat="40.01496999223888" lon="9.541532339826384"><ele>199.25</ele><time>2026-03-28T13:55:21Z</time></trkpt><trkpt lat="40.01501719493149" lon="9.5416868710482"><ele>200.0</ele><time>2026-03-28T13:55:22Z</time></trkpt><trkpt lat="40.01505679360914" lon="9.541845079810251"><ele>190.0</ele><time>2026-03-28T13:55:23Z</time></trkpt><trkpt lat="40.01509235171908" lon="9.542003156966429"><ele>180.0</ele><time>2026-03-28T13:55:24Z</time></trkpt><trkpt lat="40.01511936365622" lon="9.542163768352362"><ele>170.0</ele><time>2026-03-28T13:55:25Z</time></trkpt><trkpt lat="40.01513762462019" lon="9.542321784556727"><ele>160.0</ele><time>2026-03-28T13:55:26Z</time></trkpt><trkpt lat="40.01515059870417" lon="9.542475092647527"><ele>160.0</ele><time>2026-03-28T13:55:27Z</time></trkpt><trkpt lat="40.015151610665534" lon="9.542627639177875"><ele>160.0</ele><time>2026-03-28T13:55:28Z</time></trkpt><trkpt lat="40.01513658437486" lon="9.542779377913224"><ele>160.0</ele><time>2026-03-28T13:55:29Z</time></trkpt><trkpt lat="40.015097856241326" lon="9.542926919265376"><ele>160.0</ele><time>2026-03-28T13:55:30Z</time></trkpt><trkpt lat="40.01503629055588" lon="9.543067677669972"><ele>166.75</ele><time>2026-03-28T13:55:31Z</time></trkpt><trkpt lat="40.014961498154285" lon="9.54319971162018"><ele>173.5</ele><time>2026-03-28T13:55:32Z</time></trkpt><trkpt lat="40.01488132584206" lon="9.543327329592175"><ele>180.25</ele><time>2026-03-28T13:55:33Z</time></trkpt><trkpt lat="40.014805707964506" lon="9.54344476909674"><ele>187.0</ele><time>2026-03-28T13:55:34Z</time></trkpt><trkpt lat="40.01473415372774" lon="9.54355571694689"><ele>187.0</ele><time>2026-03-28T13:55:35Z</time></trkpt><trkpt lat="40.01466576805225" lon="9.543659691030708"><ele>187.0</ele><time>2026-03-28T13:55:36Z</time></trkpt><trkpt lat="40.014602743441785" lon="9.54376130800964"><ele>187.0</ele><time>2026-03-28T13:55:37Z</time></trkpt><trkpt lat="40.01455541459222" lon="9.543870781992226"><ele>187.0</ele><time>2026-03-28T13:55:38Z</time></trkpt><trkpt lat="40.01453079687432" lon="9.543995834795679"><ele>187.0</ele><time>2026-03-28T13:55:39Z</time></trkpt><trkpt lat="40.01453444196205" lon="9.544122089874856"><ele>183.5</ele><time>2026-03-28T13:55:40Z</time></trkpt><trkpt lat="40.01454020321262" lon="9.544234359798546"><ele>180.0</ele><time>2026-03-28T13:55:41Z</time></trkpt><trkpt lat="40.014542646836524" lon="9.54433787346391"><ele>176.5</ele><time>2026-03-28T13:55:42Z</time></trkpt><trkpt lat="40.01453706478814" lon="9.544434568637657"><ele>173.0</ele><time>2026-03-28T13:55:43Z</time></trkpt><trkpt lat="40.01453176702013" lon="9.544525834781133"><ele>169.5</ele><time>2026-03-28T13:55:44Z</time></trkpt><trkpt lat="40.01447086331133" lon="9.54467590763284"><ele>166.0</ele><time>2026-03-28T13:55:46Z</time></trkpt><trkpt lat="40.01439889437266" lon="9.544730087214058"><ele>163.8</ele><time>2026-03-28T13:55:47Z</time></trkpt><trkpt lat="40.014307607381234" lon="9.544716518811104"><ele>161.60000000000002</ele><time>2026-03-28T13:55:48Z</time></trkpt><trkpt lat="40.014208477086356" lon="9.544713936714151"><ele>159.4</ele><time>2026-03-28T13:55:49Z</time></trkpt><trkpt lat="40.014104112843924" lon="9.544748515163084"><ele>157.2</ele><time>2026-03-28T13:55:50Z</time></trkpt><trkpt lat="40.0139888408844" lon="9.544785661577512"><ele>155.0</ele><time>2026-03-28T13:55:51Z</time></trkpt><trkpt lat="40.01386786942194" lon="9.544861733489892"><ele>155.0</ele><time>2026-03-28T13:55:52Z</time></trkpt><trkpt lat="40.01374675303209" lon="9.544960061246359"><ele>155.0</ele><time>2026-03-28T13:55:53Z</time></trkpt><trkpt lat="40.013601463908046" lon="9.545050775915227"><ele>155.0</ele><time>2026-03-28T13:55:54Z</time></trkpt><trkpt lat="40.01344406646386" lon="9.545153017410362"><ele>156.66666666666666</ele><time>2026-03-28T13:55:55Z</time></trkpt><trkpt lat="40.01327826269901" lon="9.545249063384066"><ele>158.33333333333334</ele><time>2026-03-28T13:55:56Z</time></trkpt><trkpt lat="40.01310319454253" lon="9.545350475648318"><ele>160.0</ele><time>2026-03-28T13:55:57Z</time></trkpt><trkpt lat="40.01292117350866" lon="9.54545591580556"><ele>157.0</ele><time>2026-03-28T13:55:58Z</time></trkpt><trkpt lat="40.012736287972" lon="9.545563015156265"><ele>154.0</ele><time>2026-03-28T13:55:59Z</time></trkpt><trkpt lat="40.01255720519845" lon="9.545683584781123"><ele>151.0</ele><time>2026-03-28T13:56:00Z</time></trkpt><trkpt lat="40.01238302584881" lon="9.545783324368436"><ele>151.0</ele><time>2026-03-28T13:56:01Z</time></trkpt><trkpt lat="40.01221970089129" lon="9.545897218719398"><ele>151.0</ele><time>2026-03-28T13:56:02Z</time></trkpt><trkpt lat="40.012067411162654" lon="9.546027766476337"><ele>151.0</ele><time>2026-03-28T13:56:03Z</time></trkpt><trkpt lat="40.0119283107024" lon="9.546143993803874"><ele>147.66666666666669</ele><time>2026-03-28T13:56:04Z</time></trkpt><trkpt lat="40.011771975989255" lon="9.546219404419858"><ele>144.33333333333334</ele><time>2026-03-28T13:56:05Z</time></trkpt><trkpt lat="40.011602563066965" lon="9.54624468238623"><ele>141.0</ele><time>2026-03-28T13:56:06Z</time></trkpt><trkpt lat="40.01143791533881" lon="9.546243821248193"><ele>141.0</ele><time>2026-03-28T13:56:07Z</time></trkpt><trkpt lat="40.01128142010319" lon="9.546288992505906"><ele>141.0</ele><time>2026-03-28T13:56:08Z</time></trkpt><trkpt lat="40.01113173885033" lon="9.546397771435643"><ele>141.0</ele><time>2026-03-28T13:56:09Z</time></trkpt><trkpt lat="40.01099386514764" lon="9.546542425312447"><ele>141.0</ele><time>2026-03-28T13:56:10Z</time></trkpt><trkpt lat="40.010853059799835" lon="9.546692483732532"><ele>141.0</ele><time>2026-03-28T13:56:11Z</time></trkpt><trkpt lat="40.01070659743801" lon="9.546843031700261"><ele>141.0</ele><time>2026-03-28T13:56:12Z</time></trkpt><trkpt lat="40.0105587705954" lon="9.54699385800787"><ele>141.0</ele><time>2026-03-28T13:56:13Z</time></trkpt><trkpt lat="40.010413187289494" lon="9.547149181695445"><ele>141.0</ele><time>2026-03-28T13:56:14Z</time></trkpt><trkpt lat="40.01027956938616" lon="9.547324854893233"><ele>141.0</ele><time>2026-03-28T13:56:15Z</time></trkpt><trkpt lat="40.01016431622148" lon="9.547522988006165"><ele>141.0</ele><time>2026-03-28T13:56:16Z</time></trkpt><trkpt lat="40.01006087032989" lon="9.547734941559192"><ele>141.0</ele><time>2026-03-28T13:56:17Z</time></trkpt><trkpt lat="40.00995655249961" lon="9.547953922168013"><ele>141.0</ele><time>2026-03-28T13:56:18Z</time></trkpt><trkpt lat="40.009846814577955" lon="9.548172733222968"><ele>141.33333333333334</ele><time>2026-03-28T13:56:19Z</time></trkpt><trkpt lat="40.009734289564044" lon="9.548393229653048"><ele>141.66666666666669</ele><time>2026-03-28T13:56:20Z</time></trkpt><trkpt lat="40.00962619308892" lon="9.548620463105108"><ele>142.0</ele><time>2026-03-28T13:56:21Z</time></trkpt><trkpt lat="40.00952754400933" lon="9.548859544482324"><ele>142.0</ele><time>2026-03-28T13:56:22Z</time></trkpt><trkpt lat="40.009443160471406" lon="9.54910821004113"><ele>142.0</ele><time>2026-03-28T13:56:23Z</time></trkpt><trkpt lat="40.009362430955306" lon="9.549354779133708"><ele>142.0</ele><time>2026-03-28T13:56:24Z</time></trkpt><trkpt lat="40.00927976002996" lon="9.549588480811293"><ele>141.33333333333334</ele><time>2026-03-28T13:56:25Z</time></trkpt><trkpt lat="40.009196960244495" lon="9.549811504334855"><ele>140.66666666666666</ele><time>2026-03-28T13:56:26Z</time></trkpt><trkpt lat="40.009123846228064" lon="9.550023750806352"><ele>140.0</ele><time>2026-03-28T13:56:27Z</time></trkpt><trkpt lat="40.009056248210925" lon="9.550205275773315"><ele>140.0</ele><time>2026-03-28T13:56:28Z</time></trkpt><trkpt lat="40.00897787396505" lon="9.550348386807826"><ele>140.0</ele><time>2026-03-28T13:56:29Z</time></trkpt><trkpt lat="40.00886664214818" lon="9.550449141975243"><ele>140.0</ele><time>2026-03-28T13:56:30Z</time></trkpt><trkpt lat="40.00872121589793" lon="9.55048618169437"><ele>140.0</ele><time>2026-03-28T13:56:31Z</time></trkpt><trkpt lat="40.008600495839836" lon="9.55056913865702"><ele>137.0</ele><time>2026-03-28T13:56:32Z</time></trkpt><trkpt lat="40.008502745163796" lon="9.550657388453184"><ele>134.0</ele><time>2026-03-28T13:56:33Z</time></trkpt><trkpt lat="40.008456952112496" lon="9.550794390463425"><ele>131.0</ele><time>2026-03-28T13:56:34Z</time></trkpt><trkpt lat="40.00845949440095" lon="9.550955202783076"><ele>128.0</ele><time>2026-03-28T13:56:35Z</time></trkpt><trkpt lat="40.00851647138808" lon="9.551093000507464"><ele>128.0</ele><time>2026-03-28T13:56:36Z</time></trkpt><trkpt lat="40.00862446951174" lon="9.551194666053258"><ele>128.0</ele><time>2026-03-28T13:56:37Z</time></trkpt><trkpt lat="40.008761182504216" lon="9.551258655761202"><ele>128.0</ele><time>2026-03-28T13:56:38Z</time></trkpt><trkpt lat="40.00890954788281" lon="9.55131753949966"><ele>128.0</ele><time>2026-03-28T13:56:39Z</time></trkpt><trkpt lat="40.009053466341825" lon="9.551394830489441"><ele>125.75</ele><time>2026-03-28T13:56:40Z</time></trkpt><trkpt lat="40.00917976407914" lon="9.551492231150819"><ele>123.5</ele><time>2026-03-28T13:56:41Z</time></trkpt><trkpt lat="40.0092729816411" lon="9.55162245964186"><ele>121.25</ele><time>2026-03-28T13:56:42Z</time></trkpt><trkpt lat="40.0093135453884" lon="9.551786990144867"><ele>119.0</ele><time>2026-03-28T13:56:43Z</time></trkpt><trkpt lat="40.00931659069933" lon="9.551981980474578"><ele>118.66666666666666</ele><time>2026-03-28T13:56:44Z</time></trkpt><trkpt lat="40.009321923345894" lon="9.552193214216114"><ele>118.33333333333334</ele><time>2026-03-28T13:56:45Z</time></trkpt><trkpt lat="40.0093402571097" lon="9.5524135702205"><ele>118.0</ele><time>2026-03-28T13:56:46Z</time></trkpt><trkpt lat="40.00936051917706" lon="9.552635697023518"><ele>118.0</ele><time>2026-03-28T13:56:47Z</time></trkpt><trkpt lat="40.009355879453466" lon="9.552846069772924"><ele>118.0</ele><time>2026-03-28T13:56:48Z</time></trkpt><trkpt lat="40.00930308211857" lon="9.55304683179178"><ele>118.0</ele><time>2026-03-28T13:56:49Z</time></trkpt><trkpt lat="40.00922382143914" lon="9.553247230945814"><ele>119.0</ele><time>2026-03-28T13:56:50Z</time></trkpt><trkpt lat="40.0091458022394" lon="9.553453784636991"><ele>120.0</ele><time>2026-03-28T13:56:51Z</time></trkpt><trkpt lat="40.00907213497055" lon="9.553674065148124"><ele>121.0</ele><time>2026-03-28T13:56:52Z</time></trkpt><trkpt lat="40.00899439173183" lon="9.553901162612336"><ele>121.0</ele><time>2026-03-28T13:56:53Z</time></trkpt><trkpt lat="40.00891017915426" lon="9.554133419500937"><ele>121.0</ele><time>2026-03-28T13:56:54Z</time></trkpt><trkpt lat="40.00882501389668" lon="9.554369248363264"><ele>121.0</ele><time>2026-03-28T13:56:55Z</time></trkpt><trkpt lat="40.008741397922805" lon="9.554610535251047"><ele>119.66666666666667</ele><time>2026-03-28T13:56:56Z</time></trkpt><trkpt lat="40.00865950359075" lon="9.554852502491007"><ele>118.33333333333334</ele><time>2026-03-28T13:56:57Z</time></trkpt><trkpt lat="40.008580235503466" lon="9.555093917738827"><ele>117.0</ele><time>2026-03-28T13:56:58Z</time></trkpt><trkpt lat="40.00851797892069" lon="9.555346443013734"><ele>116.0</ele><time>2026-03-28T13:56:59Z</time></trkpt><trkpt lat="40.00848448542854" lon="9.555620692211251"><ele>115.0</ele><time>2026-03-28T13:57:00Z</time></trkpt><trkpt lat="40.008459548612336" lon="9.555898134442488"><ele>114.0</ele><time>2026-03-28T13:57:01Z</time></trkpt><trkpt lat="40.00843210725641" lon="9.556155501523584"><ele>113.0</ele><time>2026-03-28T13:57:02Z</time></trkpt><trkpt lat="40.00840277032089" lon="9.556400277224967"><ele>112.0</ele><time>2026-03-28T13:57:03Z</time></trkpt><trkpt lat="40.008357607388625" lon="9.556628126742147"><ele>111.0</ele><time>2026-03-28T13:57:04Z</time></trkpt><trkpt lat="40.00827532648992" lon="9.556851784283005"><ele>120.66666666666666</ele><time>2026-03-28T13:57:05Z</time></trkpt><trkpt lat="40.00816587352878" lon="9.5570661183201"><ele>130.33333333333331</ele><time>2026-03-28T13:57:06Z</time></trkpt><trkpt lat="40.00806393510656" lon="9.557281546741086"><ele>140.0</ele><time>2026-03-28T13:57:07Z</time></trkpt><trkpt lat="40.007985690043206" lon="9.557504448784254"><ele>140.0</ele><time>2026-03-28T13:57:08Z</time></trkpt><trkpt lat="40.00794581463421" lon="9.557754347389658"><ele>140.0</ele><time>2026-03-28T13:57:09Z</time></trkpt><trkpt lat="40.007933941009455" lon="9.558021344387276"><ele>140.0</ele><time>2026-03-28T13:57:10Z</time></trkpt><trkpt lat="40.00791722209384" lon="9.55828910255076"><ele>135.33333333333331</ele><time>2026-03-28T13:57:11Z</time></trkpt><trkpt lat="40.00789063054193" lon="9.558548848761118"><ele>130.66666666666666</ele><time>2026-03-28T13:57:12Z</time></trkpt><trkpt lat="40.00786222563606" lon="9.558810334927587"><ele>126.0</ele><time>2026-03-28T13:57:13Z</time></trkpt><trkpt lat="40.00783686342839" lon="9.55906879103194"><ele>122.0</ele><time>2026-03-28T13:57:14Z</time></trkpt><trkpt lat="40.00781276298914" lon="9.559330461922181"><ele>118.0</ele><time>2026-03-28T13:57:15Z</time></trkpt><trkpt lat="40.00779593943904" lon="9.559591527502755"><ele>114.0</ele><time>2026-03-28T13:57:16Z</time></trkpt><trkpt lat="40.00780271954509" lon="9.559851335528224"><ele>111.0</ele><time>2026-03-28T13:57:17Z</time></trkpt><trkpt lat="40.00782697501677" lon="9.560106880455384"><ele>108.0</ele><time>2026-03-28T13:57:18Z</time></trkpt><trkpt lat="40.007845532618305" lon="9.56035764912403"><ele>105.0</ele><time>2026-03-28T13:57:19Z</time></trkpt><trkpt lat="40.00785085936579" lon="9.560612614908687"><ele>104.66666666666666</ele><time>2026-03-28T13:57:20Z</time></trkpt><trkpt lat="40.00783798312362" lon="9.56087155341557"><ele>104.33333333333333</ele><time>2026-03-28T13:57:21Z</time></trkpt><trkpt lat="40.0078026602574" lon="9.56112700233402"><ele>104.0</ele><time>2026-03-28T13:57:22Z</time></trkpt><trkpt lat="40.00775428763355" lon="9.56138423627391"><ele>104.0</ele><time>2026-03-28T13:57:23Z</time></trkpt><trkpt lat="40.007703537986586" lon="9.56164232126749"><ele>104.0</ele><time>2026-03-28T13:57:24Z</time></trkpt><trkpt lat="40.00765416367363" lon="9.561904736670243"><ele>104.0</ele><time>2026-03-28T13:57:25Z</time></trkpt><trkpt lat="40.00760665801394" lon="9.56217077677082"><ele>104.0</ele><time>2026-03-28T13:57:26Z</time></trkpt><trkpt lat="40.00755956950366" lon="9.562437868178817"><ele>104.0</ele><time>2026-03-28T13:57:27Z</time></trkpt><trkpt lat="40.00751210687836" lon="9.56270501395072"><ele>104.0</ele><time>2026-03-28T13:57:28Z</time></trkpt><trkpt lat="40.00746482875571" lon="9.56297037589571"><ele>111.33333333333333</ele><time>2026-03-28T13:57:29Z</time></trkpt><trkpt lat="40.007413793512086" lon="9.563247616182352"><ele>118.66666666666666</ele><time>2026-03-28T13:57:30Z</time></trkpt><trkpt lat="40.00736391756965" lon="9.563521734179057"><ele>126.0</ele><time>2026-03-28T13:57:31Z</time></trkpt><trkpt lat="40.00731510299918" lon="9.563798231016127"><ele>126.0</ele><time>2026-03-28T13:57:32Z</time></trkpt><trkpt lat="40.00726875029104" lon="9.564077225252085"><ele>126.0</ele><time>2026-03-28T13:57:33Z</time></trkpt><trkpt lat="40.007219357668106" lon="9.564353482849235"><ele>126.0</ele><time>2026-03-28T13:57:34Z</time></trkpt><trkpt lat="40.00716756164234" lon="9.56460955165483"><ele>122.0</ele><time>2026-03-28T13:57:35Z</time></trkpt><trkpt lat="40.007090895708764" lon="9.564840125619263"><ele>118.0</ele><time>2026-03-28T13:57:36Z</time></trkpt><trkpt lat="40.006974379519" lon="9.565050262848318"><ele>114.0</ele><time>2026-03-28T13:57:37Z</time></trkpt><trkpt lat="40.00685352296613" lon="9.565256891805243"><ele>114.33333333333334</ele><time>2026-03-28T13:57:38Z</time></trkpt><trkpt lat="40.00673670586765" lon="9.565474048929456"><ele>114.66666666666667</ele><time>2026-03-28T13:57:39Z</time></trkpt><trkpt lat="40.006624528226965" lon="9.565700327786525"><ele>115.0</ele><time>2026-03-28T13:57:40Z</time></trkpt><trkpt lat="40.00652140247487" lon="9.565937399225607"><ele>115.0</ele><time>2026-03-28T13:57:41Z</time></trkpt><trkpt lat="40.006426323745224" lon="9.566184746485753"><ele>115.0</ele><time>2026-03-28T13:57:42Z</time></trkpt><trkpt lat="40.00633649646009" lon="9.566437770964797"><ele>115.0</ele><time>2026-03-28T13:57:43Z</time></trkpt><trkpt lat="40.006249222055274" lon="9.566688227985876"><ele>113.0</ele><time>2026-03-28T13:57:44Z</time></trkpt><trkpt lat="40.0061616708634" lon="9.56692963371593"><ele>111.0</ele><time>2026-03-28T13:57:45Z</time></trkpt><trkpt lat="40.00607327216574" lon="9.567166294492642"><ele>109.0</ele><time>2026-03-28T13:57:46Z</time></trkpt><trkpt lat="40.00598104813256" lon="9.567393858072695"><ele>108.33333333333334</ele><time>2026-03-28T13:57:47Z</time></trkpt><trkpt lat="40.005889999811785" lon="9.567607377835055"><ele>107.66666666666666</ele><time>2026-03-28T13:57:48Z</time></trkpt><trkpt lat="40.005767967016006" lon="9.567902384344658"><ele>107.0</ele><time>2026-03-28T13:57:49Z</time></trkpt><trkpt lat="40.00562250770288" lon="9.568079542300358"><ele>107.0</ele><time>2026-03-28T13:57:50Z</time></trkpt><trkpt lat="40.00546886944688" lon="9.568250152032672"><ele>107.0</ele><time>2026-03-28T13:57:51Z</time></trkpt><trkpt lat="40.005317574963726" lon="9.56844006370897"><ele>107.0</ele><time>2026-03-28T13:57:52Z</time></trkpt><trkpt lat="40.00514504602781" lon="9.568603570461379"><ele>106.33333333333333</ele><time>2026-03-28T13:57:53Z</time></trkpt><trkpt lat="40.00497807632447" lon="9.56878444536718"><ele>105.66666666666666</ele><time>2026-03-28T13:57:54Z</time></trkpt><trkpt lat="40.00481987496998" lon="9.568985372599466"><ele>105.0</ele><time>2026-03-28T13:57:55Z</time></trkpt><trkpt lat="40.00466841304077" lon="9.56919980822999"><ele>105.0</ele><time>2026-03-28T13:57:56Z</time></trkpt><trkpt lat="40.004508832361545" lon="9.56941410111882"><ele>105.0</ele><time>2026-03-28T13:57:57Z</time></trkpt><trkpt lat="40.0043485737573" lon="9.569630965384857"><ele>106.5</ele><time>2026-03-28T13:57:58Z</time></trkpt><trkpt lat="40.00419049746966" lon="9.569851344552537"><ele>108.0</ele><time>2026-03-28T13:57:59Z</time></trkpt><trkpt lat="40.00410036578109" lon="9.570153865932236"><ele>106.5</ele><time>2026-03-28T13:58:00Z</time></trkpt><trkpt lat="40.00396680513253" lon="9.570400846378448"><ele>105.0</ele><time>2026-03-28T13:58:01Z</time></trkpt><trkpt lat="40.003831321670745" lon="9.570646429527153"><ele>105.0</ele><time>2026-03-28T13:58:02Z</time></trkpt><trkpt lat="40.00370020495024" lon="9.570889154243716"><ele>105.0</ele><time>2026-03-28T13:58:03Z</time></trkpt><trkpt lat="40.00356612715245" lon="9.571128686219033"><ele>105.33333333333334</ele><time>2026-03-28T13:58:04Z</time></trkpt><trkpt lat="40.00343189459596" lon="9.571364566349484"><ele>105.66666666666667</ele><time>2026-03-28T13:58:05Z</time></trkpt><trkpt lat="40.00329780075303" lon="9.571594901263563"><ele>106.0</ele><time>2026-03-28T13:58:06Z</time></trkpt><trkpt lat="40.003164950549554" lon="9.571826010931776"><ele>105.33333333333334</ele><time>2026-03-28T13:58:07Z</time></trkpt><trkpt lat="40.00303107152731" lon="9.572055815982473"><ele>104.66666666666666</ele><time>2026-03-28T13:58:08Z</time></trkpt><trkpt lat="40.00289683606503" lon="9.572289175364334"><ele>104.0</ele><time>2026-03-28T13:58:09Z</time></trkpt><trkpt lat="40.002763127331384" lon="9.572523220699038"><ele>104.0</ele><time>2026-03-28T13:58:10Z</time></trkpt><trkpt lat="40.002627284650934" lon="9.572755733493791"><ele>104.0</ele><time>2026-03-28T13:58:11Z</time></trkpt><trkpt lat="40.002495269485955" lon="9.572985250953026"><ele>104.0</ele><time>2026-03-28T13:58:12Z</time></trkpt><trkpt lat="40.002362509591016" lon="9.573208165022212"><ele>104.33333333333333</ele><time>2026-03-28T13:58:13Z</time></trkpt><trkpt lat="40.00223155454346" lon="9.573432511806526"><ele>104.66666666666666</ele><time>2026-03-28T13:58:14Z</time></trkpt><trkpt lat="40.00210583526078" lon="9.573664495297457"><ele>105.0</ele><time>2026-03-28T13:58:15Z</time></trkpt><trkpt lat="40.00199252493562" lon="9.573907553107109"><ele>105.0</ele><time>2026-03-28T13:58:16Z</time></trkpt><trkpt lat="40.00188747521019" lon="9.57416292132172"><ele>105.0</ele><time>2026-03-28T13:58:17Z</time></trkpt><trkpt lat="40.0017785639785" lon="9.574424852857293"><ele>104.0</ele><time>2026-03-28T13:58:18Z</time></trkpt><trkpt lat="40.00166539338703" lon="9.574687100309445"><ele>103.0</ele><time>2026-03-28T13:58:19Z</time></trkpt><trkpt lat="40.001551557377056" lon="9.574945672648692"><ele>101.5</ele><time>2026-03-28T13:58:20Z</time></trkpt><trkpt lat="40.00143903756414" lon="9.575204331259695"><ele>100.0</ele><time>2026-03-28T13:58:21Z</time></trkpt><trkpt lat="40.001326323818134" lon="9.575466130688815"><ele>98.5</ele><time>2026-03-28T13:58:22Z</time></trkpt><trkpt lat="40.00121274000784" lon="9.575730738474245"><ele>97.0</ele><time>2026-03-28T13:58:23Z</time></trkpt><trkpt lat="40.00109881086605" lon="9.575991793571282"><ele>97.33333333333334</ele><time>2026-03-28T13:58:24Z</time></trkpt><trkpt lat="40.00098999270973" lon="9.576248195190603"><ele>97.66666666666666</ele><time>2026-03-28T13:58:25Z</time></trkpt><trkpt lat="40.00088369511643" lon="9.576490810452505"><ele>98.0</ele><time>2026-03-28T13:58:26Z</time></trkpt><trkpt lat="40.00078372194797" lon="9.576727950307866"><ele>96.0</ele><time>2026-03-28T13:58:27Z</time></trkpt><trkpt lat="40.000685611142266" lon="9.57695645176745"><ele>94.0</ele><time>2026-03-28T13:58:28Z</time></trkpt><trkpt lat="40.000588240479885" lon="9.577178544508826"><ele>92.0</ele><time>2026-03-28T13:58:29Z</time></trkpt><trkpt lat="40.00049756094376" lon="9.577398384697121"><ele>91.66666666666667</ele><time>2026-03-28T13:58:30Z</time></trkpt><trkpt lat="40.000420786631494" lon="9.577631647962853"><ele>91.33333333333333</ele><time>2026-03-28T13:58:31Z</time></trkpt><trkpt lat="40.00035869459686" lon="9.577895845132694"><ele>91.0</ele><time>2026-03-28T13:58:32Z</time></trkpt><trkpt lat="40.0002943238838" lon="9.578169323921372"><ele>90.0</ele><time>2026-03-28T13:58:33Z</time></trkpt><trkpt lat="40.000221891806625" lon="9.578445119598058"><ele>89.0</ele><time>2026-03-28T13:58:34Z</time></trkpt><trkpt lat="40.00014560377423" lon="9.578723050651272"><ele>88.0</ele><time>2026-03-28T13:58:35Z</time></trkpt><trkpt lat="40.000070160098296" lon="9.57900414478656"><ele>87.0</ele><time>2026-03-28T13:58:36Z</time></trkpt><trkpt lat="39.9999948981261" lon="9.579289109354585"><ele>86.0</ele><time>2026-03-28T13:58:37Z</time></trkpt><trkpt lat="39.99991935353794" lon="9.579573107624572"><ele>85.0</ele><time>2026-03-28T13:58:38Z</time></trkpt><trkpt lat="39.99984540082418" lon="9.579857391281719"><ele>84.0</ele><time>2026-03-28T13:58:39Z</time></trkpt><trkpt lat="39.99977344473008" lon="9.580142262956995"><ele>83.66666666666667</ele><time>2026-03-28T13:58:40Z</time></trkpt><trkpt lat="39.99970253403415" lon="9.580419637168319"><ele>83.33333333333334</ele><time>2026-03-28T13:58:41Z</time></trkpt><trkpt lat="39.99962938187651" lon="9.580694968370212"><ele>83.0</ele><time>2026-03-28T13:58:42Z</time></trkpt><trkpt lat="39.99955696239593" lon="9.580968358786906"><ele>82.66666666666667</ele><time>2026-03-28T13:58:43Z</time></trkpt><trkpt lat="39.99948638662632" lon="9.5812408373731"><ele>82.33333333333333</ele><time>2026-03-28T13:58:44Z</time></trkpt><trkpt lat="39.99941448527456" lon="9.581513480302933"><ele>82.0</ele><time>2026-03-28T13:58:45Z</time></trkpt><trkpt lat="39.99934101021689" lon="9.581784291337774"><ele>81.33333333333333</ele><time>2026-03-28T13:58:46Z</time></trkpt><trkpt lat="39.999267712924066" lon="9.582054649109278"><ele>80.66666666666667</ele><time>2026-03-28T13:58:47Z</time></trkpt><trkpt lat="39.99919606494715" lon="9.582325336383008"><ele>80.0</ele><time>2026-03-28T13:58:48Z</time></trkpt><trkpt lat="39.99912451166179" lon="9.58259883382699"><ele>81.0</ele><time>2026-03-28T13:58:49Z</time></trkpt><trkpt lat="39.99905197106226" lon="9.582874965006003"><ele>82.0</ele><time>2026-03-28T13:58:50Z</time></trkpt><trkpt lat="39.99897888457684" lon="9.583150585812184"><ele>83.0</ele><time>2026-03-28T13:58:51Z</time></trkpt><trkpt lat="39.99890469916305" lon="9.583426605389338"><ele>83.0</ele><time>2026-03-28T13:58:52Z</time></trkpt><trkpt lat="39.99883089544601" lon="9.5836999104331"><ele>83.0</ele><time>2026-03-28T13:58:53Z</time></trkpt><trkpt lat="39.99875953421824" lon="9.583970994811677"><ele>83.0</ele><time>2026-03-28T13:58:54Z</time></trkpt><trkpt lat="39.99868946433128" lon="9.584241738564872"><ele>83.0</ele><time>2026-03-28T13:58:55Z</time></trkpt><trkpt lat="39.99862127908213" lon="9.584509024266472"><ele>83.0</ele><time>2026-03-28T13:58:56Z</time></trkpt><trkpt lat="39.99855100447173" lon="9.584769722760852"><ele>83.0</ele><time>2026-03-28T13:58:57Z</time></trkpt><trkpt lat="39.998470746567946" lon="9.585021503982519"><ele>83.0</ele><time>2026-03-28T13:58:58Z</time></trkpt><trkpt lat="39.998370337567714" lon="9.585257201721356"><ele>83.0</ele><time>2026-03-28T13:58:59Z</time></trkpt><trkpt lat="39.99824334043039" lon="9.585481915144145"><ele>83.0</ele><time>2026-03-28T13:59:00Z</time></trkpt><trkpt lat="39.99809870229212" lon="9.585695180773142"><ele>84.33333333333334</ele><time>2026-03-28T13:59:01Z</time></trkpt><trkpt lat="39.99795144479952" lon="9.585912032662957"><ele>85.66666666666667</ele><time>2026-03-28T13:59:02Z</time></trkpt><trkpt lat="39.99780989274966" lon="9.586135539375844"><ele>87.0</ele><time>2026-03-28T13:59:03Z</time></trkpt><trkpt lat="39.99767420870571" lon="9.586368950606312"><ele>87.0</ele><time>2026-03-28T13:59:04Z</time></trkpt><trkpt lat="39.997550338975145" lon="9.586616088625881"><ele>87.0</ele><time>2026-03-28T13:59:05Z</time></trkpt><trkpt lat="39.997437018725414" lon="9.586871267261316"><ele>87.0</ele><time>2026-03-28T13:59:06Z</time></trkpt><trkpt lat="39.9973250950014" lon="9.587130215254174"><ele>87.0</ele><time>2026-03-28T13:59:07Z</time></trkpt><trkpt lat="39.99721073885308" lon="9.58738437662347"><ele>87.0</ele><time>2026-03-28T13:59:08Z</time></trkpt><trkpt lat="39.99709395703848" lon="9.5876319274114"><ele>87.0</ele><time>2026-03-28T13:59:09Z</time></trkpt><trkpt lat="39.99697823404632" lon="9.587873999294644"><ele>87.0</ele><time>2026-03-28T13:59:10Z</time></trkpt><trkpt lat="39.996856675211966" lon="9.58810618912326"><ele>87.33333333333333</ele><time>2026-03-28T13:59:11Z</time></trkpt><trkpt lat="39.99671734780947" lon="9.588316671500559"><ele>87.66666666666666</ele><time>2026-03-28T13:59:12Z</time></trkpt><trkpt lat="39.9965603473676" lon="9.588505373725427"><ele>88.0</ele><time>2026-03-28T13:59:13Z</time></trkpt><trkpt lat="39.99639490059883" lon="9.588690326755032"><ele>88.0</ele><time>2026-03-28T13:59:14Z</time></trkpt><trkpt lat="39.99623091819493" lon="9.588876482410743"><ele>88.0</ele><time>2026-03-28T13:59:15Z</time></trkpt><trkpt lat="39.996066913295145" lon="9.589063649873541"><ele>88.0</ele><time>2026-03-28T13:59:16Z</time></trkpt><trkpt lat="39.99590242784376" lon="9.589253030396904"><ele>89.0</ele><time>2026-03-28T13:59:17Z</time></trkpt><trkpt lat="39.995736917749184" lon="9.589444793214113"><ele>90.0</ele><time>2026-03-28T13:59:18Z</time></trkpt><trkpt lat="39.995571308661454" lon="9.58963213113901"><ele>91.0</ele><time>2026-03-28T13:59:19Z</time></trkpt><trkpt lat="39.995408389191574" lon="9.589820543855588"><ele>91.0</ele><time>2026-03-28T13:59:20Z</time></trkpt><trkpt lat="39.995254232901885" lon="9.590016362644878"><ele>91.0</ele><time>2026-03-28T13:59:21Z</time></trkpt><trkpt lat="39.995115473683" lon="9.590223830655088"><ele>91.0</ele><time>2026-03-28T13:59:22Z</time></trkpt><trkpt lat="39.99499424384665" lon="9.59043406799864"><ele>91.0</ele><time>2026-03-28T13:59:23Z</time></trkpt><trkpt lat="39.994882255159446" lon="9.590639607952818"><ele>91.0</ele><time>2026-03-28T13:59:24Z</time></trkpt><trkpt lat="39.994784369821325" lon="9.590849964391767"><ele>91.0</ele><time>2026-03-28T13:59:25Z</time></trkpt><trkpt lat="39.99468819209255" lon="9.591060982103393"><ele>90.0</ele><time>2026-03-28T13:59:26Z</time></trkpt><trkpt lat="39.99458901366377" lon="9.5912662558654"><ele>89.0</ele><time>2026-03-28T13:59:27Z</time></trkpt><trkpt lat="39.994496281956415" lon="9.591475127587419"><ele>88.0</ele><time>2026-03-28T13:59:28Z</time></trkpt><trkpt lat="39.994416309550246" lon="9.591700893495993"><ele>88.0</ele><time>2026-03-28T13:59:29Z</time></trkpt><trkpt lat="39.99434885779064" lon="9.591944303884198"><ele>88.0</ele><time>2026-03-28T13:59:30Z</time></trkpt><trkpt lat="39.99428381379855" lon="9.592195206667727"><ele>88.0</ele><time>2026-03-28T13:59:31Z</time></trkpt><trkpt lat="39.9942151880326" lon="9.592447405397326"><ele>88.33333333333333</ele><time>2026-03-28T13:59:32Z</time></trkpt><trkpt lat="39.9941421754974" lon="9.592702352906393"><ele>88.66666666666667</ele><time>2026-03-28T13:59:33Z</time></trkpt><trkpt lat="39.99406879924565" lon="9.592959538382571"><ele>89.0</ele><time>2026-03-28T13:59:34Z</time></trkpt><trkpt lat="39.99399797545349" lon="9.593218546354937"><ele>89.0</ele><time>2026-03-28T13:59:35Z</time></trkpt><trkpt lat="39.99394294622299" lon="9.5934750802327"><ele>89.0</ele><time>2026-03-28T13:59:36Z</time></trkpt><trkpt lat="39.993917546177904" lon="9.593744410977038"><ele>89.0</ele><time>2026-03-28T13:59:37Z</time></trkpt><trkpt lat="39.99391680108173" lon="9.594026776156685"><ele>89.0</ele><time>2026-03-28T13:59:38Z</time></trkpt><trkpt lat="39.99392129124631" lon="9.594315578969562"><ele>89.0</ele><time>2026-03-28T13:59:39Z</time></trkpt><trkpt lat="39.99392246455501" lon="9.594609054285728"><ele>89.0</ele><time>2026-03-28T13:59:40Z</time></trkpt><trkpt lat="39.99391980311433" lon="9.5949060494891"><ele>88.5</ele><time>2026-03-28T13:59:41Z</time></trkpt><trkpt lat="39.99391740372064" lon="9.595206430170567"><ele>88.0</ele><time>2026-03-28T13:59:42Z</time></trkpt><trkpt lat="39.99391580291772" lon="9.59550881102071"><ele>87.0</ele><time>2026-03-28T13:59:43Z</time></trkpt><trkpt lat="39.99391318165824" lon="9.595814050729587"><ele>86.0</ele><time>2026-03-28T13:59:44Z</time></trkpt><trkpt lat="39.993913242507816" lon="9.59611156468649"><ele>86.33333333333334</ele><time>2026-03-28T13:59:45Z</time></trkpt><trkpt lat="39.993915527837935" lon="9.59639360525606"><ele>86.66666666666667</ele><time>2026-03-28T13:59:46Z</time></trkpt><trkpt lat="39.9939158553153" lon="9.596661695162936"><ele>87.0</ele><time>2026-03-28T13:59:47Z</time></trkpt><trkpt lat="39.99389916143477" lon="9.596919459237384"><ele>88.0</ele><time>2026-03-28T13:59:48Z</time></trkpt><trkpt lat="39.99384941382789" lon="9.597164964293045"><ele>89.0</ele><time>2026-03-28T13:59:49Z</time></trkpt><trkpt lat="39.99375366599689" lon="9.59739477936654"><ele>90.0</ele><time>2026-03-28T13:59:50Z</time></trkpt><trkpt lat="39.99365612520744" lon="9.59763723201779"><ele>88.66666666666667</ele><time>2026-03-28T13:59:51Z</time></trkpt><trkpt lat="39.99356743021884" lon="9.597896553387814"><ele>87.33333333333334</ele><time>2026-03-28T13:59:52Z</time></trkpt><trkpt lat="39.99346226446657" lon="9.598150838601763"><ele>86.0</ele><time>2026-03-28T13:59:53Z</time></trkpt><trkpt lat="39.993358894925585" lon="9.598411607079012"><ele>82.5</ele><time>2026-03-28T13:59:54Z</time></trkpt><trkpt lat="39.993254384671175" lon="9.598675102887295"><ele>79.0</ele><time>2026-03-28T13:59:55Z</time></trkpt><trkpt lat="39.99315061310807" lon="9.598935511803061"><ele>79.0</ele><time>2026-03-28T13:59:56Z</time></trkpt><trkpt lat="39.99305164554556" lon="9.59917913830658"><ele>79.0</ele><time>2026-03-28T13:59:57Z</time></trkpt><trkpt lat="39.9929604844405" lon="9.599407034092701"><ele>79.0</ele><time>2026-03-28T13:59:58Z</time></trkpt><trkpt lat="39.99288127718763" lon="9.599626722149475"><ele>79.33333333333333</ele><time>2026-03-28T13:59:59Z</time></trkpt><trkpt lat="39.99283008413628" lon="9.599850694688731"><ele>79.66666666666667</ele><time>2026-03-28T14:00:00Z</time></trkpt><trkpt lat="39.992822543571094" lon="9.600098778406556"><ele>80.0</ele><time>2026-03-28T14:00:01Z</time></trkpt><trkpt lat="39.9928420019051" lon="9.600373392012301"><ele>77.66666666666667</ele><time>2026-03-28T14:00:02Z</time></trkpt><trkpt lat="39.992864904104216" lon="9.600658202520702"><ele>75.33333333333333</ele><time>2026-03-28T14:00:03Z</time></trkpt><trkpt lat="39.992884627244685" lon="9.600946733400978"><ele>73.0</ele><time>2026-03-28T14:00:04Z</time></trkpt><trkpt lat="39.99290806417939" lon="9.601236826404813"><ele>71.0</ele><time>2026-03-28T14:00:05Z</time></trkpt><trkpt lat="39.992934994935055" lon="9.601526050341075"><ele>69.0</ele><time>2026-03-28T14:00:06Z</time></trkpt><trkpt lat="39.99296099386067" lon="9.601811482759576"><ele>67.0</ele><time>2026-03-28T14:00:07Z</time></trkpt><trkpt lat="39.992984756236176" lon="9.602088683694197"><ele>66.33333333333333</ele><time>2026-03-28T14:00:08Z</time></trkpt><trkpt lat="39.99300804172267" lon="9.602364432291171"><ele>65.66666666666667</ele><time>2026-03-28T14:00:09Z</time></trkpt><trkpt lat="39.9930312293287" lon="9.60263778172651"><ele>65.0</ele><time>2026-03-28T14:00:10Z</time></trkpt><trkpt lat="39.9930530887465" lon="9.602912991522205"><ele>64.66666666666667</ele><time>2026-03-28T14:00:11Z</time></trkpt><trkpt lat="39.99307489898722" lon="9.603190491728649"><ele>64.33333333333333</ele><time>2026-03-28T14:00:12Z</time></trkpt><trkpt lat="39.993096862513745" lon="9.60346758434989"><ele>64.0</ele><time>2026-03-28T14:00:13Z</time></trkpt><trkpt lat="39.99311956421381" lon="9.603732125302848"><ele>63.666666666666664</ele><time>2026-03-28T14:00:14Z</time></trkpt><trkpt lat="39.99314305043635" lon="9.603981867827054"><ele>63.33333333333333</ele><time>2026-03-28T14:00:15Z</time></trkpt><trkpt lat="39.993166188535675" lon="9.604223191826824"><ele>63.0</ele><time>2026-03-28T14:00:16Z</time></trkpt><trkpt lat="39.993186459174986" lon="9.604455360676237"><ele>62.33333333333333</ele><time>2026-03-28T14:00:17Z</time></trkpt><trkpt lat="39.993203314288785" lon="9.6046816107647"><ele>61.666666666666664</ele><time>2026-03-28T14:00:18Z</time></trkpt><trkpt lat="39.993218307957434" lon="9.604905957307597"><ele>61.0</ele><time>2026-03-28T14:00:19Z</time></trkpt><trkpt lat="39.99323618041065" lon="9.605130012143738"><ele>60.33333333333333</ele><time>2026-03-28T14:00:20Z</time></trkpt><trkpt lat="39.99325590297467" lon="9.605354521949126"><ele>59.66666666666667</ele><time>2026-03-28T14:00:21Z</time></trkpt><trkpt lat="39.99327669826124" lon="9.605575731718629"><ele>59.0</ele><time>2026-03-28T14:00:22Z</time></trkpt><trkpt lat="39.993296579865785" lon="9.605794775922048"><ele>59.0</ele><time>2026-03-28T14:00:23Z</time></trkpt><trkpt lat="39.993317030146514" lon="9.60602017347849"><ele>59.0</ele><time>2026-03-28T14:00:24Z</time></trkpt><trkpt lat="39.99333715503745" lon="9.60623526741558"><ele>59.0</ele><time>2026-03-28T14:00:25Z</time></trkpt><trkpt lat="39.99335764567476" lon="9.606439973949625"><ele>58.5</ele><time>2026-03-28T14:00:26Z</time></trkpt><trkpt lat="39.993374899441925" lon="9.606636883423116"><ele>58.0</ele><time>2026-03-28T14:00:27Z</time></trkpt><trkpt lat="39.99339095514391" lon="9.60682515421688"><ele>57.5</ele><time>2026-03-28T14:00:28Z</time></trkpt><trkpt lat="39.9934011758683" lon="9.607004135364074"><ele>57.0</ele><time>2026-03-28T14:00:29Z</time></trkpt><trkpt lat="39.99337479452411" lon="9.60717670716263"><ele>57.33333333333333</ele><time>2026-03-28T14:00:30Z</time></trkpt><trkpt lat="39.99330625441802" lon="9.607332196804585"><ele>57.666666666666664</ele><time>2026-03-28T14:00:31Z</time></trkpt><trkpt lat="39.993193594186614" lon="9.607483210213532"><ele>58.0</ele><time>2026-03-28T14:00:32Z</time></trkpt><trkpt lat="39.99308342111104" lon="9.607648270761299"><ele>57.666666666666664</ele><time>2026-03-28T14:00:33Z</time></trkpt><trkpt lat="39.99297162489326" lon="9.607832237000205"><ele>57.33333333333333</ele><time>2026-03-28T14:00:34Z</time></trkpt><trkpt lat="39.99285908241678" lon="9.608020677270478"><ele>57.0</ele><time>2026-03-28T14:00:35Z</time></trkpt><trkpt lat="39.99274957354688" lon="9.608249141156586"><ele>57.0</ele><time>2026-03-28T14:00:36Z</time></trkpt><trkpt lat="39.99260517959205" lon="9.608462743673954"><ele>57.0</ele><time>2026-03-28T14:00:37Z</time></trkpt><trkpt lat="39.992465028498756" lon="9.608687334164362"><ele>57.0</ele><time>2026-03-28T14:00:38Z</time></trkpt><trkpt lat="39.99232612470865" lon="9.6089164041345"><ele>57.33333333333333</ele><time>2026-03-28T14:00:39Z</time></trkpt><trkpt lat="39.992185175141486" lon="9.609144985312222"><ele>57.666666666666664</ele><time>2026-03-28T14:00:40Z</time></trkpt><trkpt lat="39.99204531452995" lon="9.60937337142921"><ele>58.0</ele><time>2026-03-28T14:00:41Z</time></trkpt><trkpt lat="39.99190864385905" lon="9.609602206535007"><ele>60.33333333333333</ele><time>2026-03-28T14:00:42Z</time></trkpt><trkpt lat="39.991770316973934" lon="9.60983130412052"><ele>62.66666666666667</ele><time>2026-03-28T14:00:43Z</time></trkpt><trkpt lat="39.991636103737434" lon="9.610051231685366"><ele>65.0</ele><time>2026-03-28T14:00:44Z</time></trkpt><trkpt lat="39.99150313687537" lon="9.610261366937182"><ele>66.0</ele><time>2026-03-28T14:00:45Z</time></trkpt><trkpt lat="39.99137196866457" lon="9.610462418422182"><ele>67.0</ele><time>2026-03-28T14:00:46Z</time></trkpt><trkpt lat="39.99123932304686" lon="9.610662735666237"><ele>68.0</ele><time>2026-03-28T14:00:47Z</time></trkpt><trkpt lat="39.99110996326454" lon="9.610849044183185"><ele>68.0</ele><time>2026-03-28T14:00:48Z</time></trkpt><trkpt lat="39.990977019089854" lon="9.611027983964984"><ele>68.0</ele><time>2026-03-28T14:00:49Z</time></trkpt><trkpt lat="39.990840214784484" lon="9.611207142462993"><ele>68.0</ele><time>2026-03-28T14:00:50Z</time></trkpt><trkpt lat="39.99070143131732" lon="9.61138926105601"><ele>65.33333333333334</ele><time>2026-03-28T14:00:51Z</time></trkpt><trkpt lat="39.990560334940994" lon="9.611585325206319"><ele>62.66666666666667</ele><time>2026-03-28T14:00:52Z</time></trkpt><trkpt lat="39.990419723551476" lon="9.611776300331126"><ele>60.0</ele><time>2026-03-28T14:00:53Z</time></trkpt><trkpt lat="39.99028467187792" lon="9.611960605974945"><ele>58.0</ele><time>2026-03-28T14:00:54Z</time></trkpt><trkpt lat="39.990148065251766" lon="9.612137432031453"><ele>56.0</ele><time>2026-03-28T14:00:55Z</time></trkpt><trkpt lat="39.99001945625812" lon="9.612311567417196"><ele>54.0</ele><time>2026-03-28T14:00:56Z</time></trkpt><trkpt lat="39.98989633814229" lon="9.612483104231465"><ele>54.0</ele><time>2026-03-28T14:00:57Z</time></trkpt><trkpt lat="39.98978878300279" lon="9.612653465161221"><ele>54.0</ele><time>2026-03-28T14:00:58Z</time></trkpt><trkpt lat="39.98969522351807" lon="9.612855319581987"><ele>54.0</ele><time>2026-03-28T14:00:59Z</time></trkpt><trkpt lat="39.98961636303379" lon="9.613081962206856"><ele>53.66666666666667</ele><time>2026-03-28T14:01:00Z</time></trkpt><trkpt lat="39.98954807060214" lon="9.613319446084866"><ele>53.333333333333336</ele><time>2026-03-28T14:01:01Z</time></trkpt><trkpt lat="39.98947788513228" lon="9.613560542236327"><ele>53.0</ele><time>2026-03-28T14:01:02Z</time></trkpt><trkpt lat="39.98940354206678" lon="9.613803307823192"><ele>52.66666666666667</ele><time>2026-03-28T14:01:03Z</time></trkpt><trkpt lat="39.98932336674655" lon="9.614049124785101"><ele>52.33333333333333</ele><time>2026-03-28T14:01:04Z</time></trkpt><trkpt lat="39.98923798304089" lon="9.614298454207319"><ele>52.0</ele><time>2026-03-28T14:01:05Z</time></trkpt><trkpt lat="39.98915068992938" lon="9.614553277164429"><ele>52.666666666666664</ele><time>2026-03-28T14:01:06Z</time></trkpt><trkpt lat="39.98906636305808" lon="9.614806167901467"><ele>53.33333333333333</ele><time>2026-03-28T14:01:07Z</time></trkpt><trkpt lat="39.988988355251855" lon="9.615050112173677"><ele>54.0</ele><time>2026-03-28T14:01:08Z</time></trkpt><trkpt lat="39.988913655633574" lon="9.615287202950407"><ele>53.0</ele><time>2026-03-28T14:01:09Z</time></trkpt><trkpt lat="39.98884179799515" lon="9.615520489175374"><ele>52.0</ele><time>2026-03-28T14:01:10Z</time></trkpt><trkpt lat="39.98876941704658" lon="9.615747514191298"><ele>51.0</ele><time>2026-03-28T14:01:11Z</time></trkpt><trkpt lat="39.988694355440714" lon="9.615967054689818"><ele>50.33333333333333</ele><time>2026-03-28T14:01:12Z</time></trkpt><trkpt lat="39.98862002183016" lon="9.616185308724004"><ele>49.666666666666664</ele><time>2026-03-28T14:01:13Z</time></trkpt><trkpt lat="39.98854937409675" lon="9.616402670366476"><ele>49.0</ele><time>2026-03-28T14:01:14Z</time></trkpt><trkpt lat="39.988479678434814" lon="9.616619847350222"><ele>49.0</ele><time>2026-03-28T14:01:15Z</time></trkpt><trkpt lat="39.98841389702192" lon="9.61682565010475"><ele>49.0</ele><time>2026-03-28T14:01:16Z</time></trkpt><trkpt lat="39.98835067033959" lon="9.617020418628845"><ele>49.0</ele><time>2026-03-28T14:01:17Z</time></trkpt><trkpt lat="39.98828882314588" lon="9.617205979908409"><ele>48.75</ele><time>2026-03-28T14:01:18Z</time></trkpt><trkpt lat="39.988226724667676" lon="9.61738496892398"><ele>48.5</ele><time>2026-03-28T14:01:19Z</time></trkpt><trkpt lat="39.988158992504864" lon="9.617556689750296"><ele>48.25</ele><time>2026-03-28T14:01:20Z</time></trkpt><trkpt lat="39.98808164196801" lon="9.61771642097014"><ele>48.0</ele><time>2026-03-28T14:01:21Z</time></trkpt><trkpt lat="39.9879946502727" lon="9.617874675904211"><ele>48.0</ele><time>2026-03-28T14:01:22Z</time></trkpt><trkpt lat="39.9879024802845" lon="9.618042070302982"><ele>48.0</ele><time>2026-03-28T14:01:23Z</time></trkpt><trkpt lat="39.987808288040505" lon="9.618220982584187"><ele>48.0</ele><time>2026-03-28T14:01:24Z</time></trkpt><trkpt lat="39.98770838942571" lon="9.618410343617727"><ele>48.0</ele><time>2026-03-28T14:01:25Z</time></trkpt><trkpt lat="39.98760409952726" lon="9.61860215994528"><ele>48.0</ele><time>2026-03-28T14:01:26Z</time></trkpt><trkpt lat="39.98749553411139" lon="9.618803954421669"><ele>48.0</ele><time>2026-03-28T14:01:27Z</time></trkpt><trkpt lat="39.98738603731603" lon="9.619007451541657"><ele>47.666666666666664</ele><time>2026-03-28T14:01:28Z</time></trkpt><trkpt lat="39.98727453272722" lon="9.619215583623914"><ele>47.33333333333333</ele><time>2026-03-28T14:01:29Z</time></trkpt><trkpt lat="39.987160986809585" lon="9.619428747389644"><ele>47.0</ele><time>2026-03-28T14:01:30Z</time></trkpt><trkpt lat="39.987046727505266" lon="9.619640791601153"><ele>46.0</ele><time>2026-03-28T14:01:31Z</time></trkpt><trkpt lat="39.986934334650186" lon="9.619847144868748"><ele>45.0</ele><time>2026-03-28T14:01:32Z</time></trkpt><trkpt lat="39.98682470663399" lon="9.620046164636936"><ele>44.0</ele><time>2026-03-28T14:01:33Z</time></trkpt><trkpt lat="39.986720848123404" lon="9.620237999855547"><ele>44.666666666666664</ele><time>2026-03-28T14:01:34Z</time></trkpt><trkpt lat="39.986613125811076" lon="9.620431916562714"><ele>45.333333333333336</ele><time>2026-03-28T14:01:35Z</time></trkpt><trkpt lat="39.986505714855376" lon="9.620627134761754"><ele>46.0</ele><time>2026-03-28T14:01:36Z</time></trkpt><trkpt lat="39.98639931950636" lon="9.620825960324954"><ele>46.0</ele><time>2026-03-28T14:01:37Z</time></trkpt><trkpt lat="39.98629313608524" lon="9.621025581973619"><ele>46.0</ele><time>2026-03-28T14:01:38Z</time></trkpt><trkpt lat="39.98618476563051" lon="9.62122841055891"><ele>46.0</ele><time>2026-03-28T14:01:39Z</time></trkpt><trkpt lat="39.98607181249856" lon="9.62143322056232"><ele>46.0</ele><time>2026-03-28T14:01:40Z</time></trkpt><trkpt lat="39.98595844077224" lon="9.621636246669393"><ele>46.0</ele><time>2026-03-28T14:01:41Z</time></trkpt><trkpt lat="39.98584510061365" lon="9.621840008330658"><ele>46.0</ele><time>2026-03-28T14:01:42Z</time></trkpt><trkpt lat="39.98573006132489" lon="9.622047459155276"><ele>45.0</ele><time>2026-03-28T14:01:43Z</time></trkpt><trkpt lat="39.98561753822661" lon="9.62225583020354"><ele>44.0</ele><time>2026-03-28T14:01:44Z</time></trkpt><trkpt lat="39.985503563797266" lon="9.622468627990367"><ele>43.0</ele><time>2026-03-28T14:01:45Z</time></trkpt><trkpt lat="39.985389144121946" lon="9.622680240146398"><ele>42.333333333333336</ele><time>2026-03-28T14:01:46Z</time></trkpt><trkpt lat="39.98527200089915" lon="9.622893395111625"><ele>41.666666666666664</ele><time>2026-03-28T14:01:47Z</time></trkpt><trkpt lat="39.98515601511587" lon="9.623106492339733"><ele>41.0</ele><time>2026-03-28T14:01:48Z</time></trkpt><trkpt lat="39.98503735379582" lon="9.623324723697735"><ele>41.33333333333333</ele><time>2026-03-28T14:01:49Z</time></trkpt><trkpt lat="39.98491867336654" lon="9.623544180574982"><ele>41.666666666666664</ele><time>2026-03-28T14:01:50Z</time></trkpt><trkpt lat="39.9847981584541" lon="9.623762472486435"><ele>42.0</ele><time>2026-03-28T14:01:51Z</time></trkpt><trkpt lat="39.98467766208901" lon="9.62398584670804"><ele>41.0</ele><time>2026-03-28T14:01:52Z</time></trkpt><trkpt lat="39.98455375786369" lon="9.624205306981551"><ele>40.0</ele><time>2026-03-28T14:01:53Z</time></trkpt><trkpt lat="39.98443176316227" lon="9.624428282401784"><ele>39.0</ele><time>2026-03-28T14:01:54Z</time></trkpt><trkpt lat="39.98430997611127" lon="9.624652801748024"><ele>38.666666666666664</ele><time>2026-03-28T14:01:55Z</time></trkpt><trkpt lat="39.984189438655825" lon="9.624876079681501"><ele>38.33333333333333</ele><time>2026-03-28T14:01:56Z</time></trkpt><trkpt lat="39.984069678254805" lon="9.625097476097958"><ele>38.0</ele><time>2026-03-28T14:01:57Z</time></trkpt><trkpt lat="39.983949988492014" lon="9.625311946602523"><ele>39.33333333333333</ele><time>2026-03-28T14:01:58Z</time></trkpt><trkpt lat="39.98383940159425" lon="9.625520000724116"><ele>40.666666666666664</ele><time>2026-03-28T14:01:59Z</time></trkpt><trkpt lat="39.98373443072486" lon="9.625733775763546"><ele>42.0</ele><time>2026-03-28T14:02:00Z</time></trkpt><trkpt lat="39.98363829818892" lon="9.625952244169811"><ele>42.0</ele><time>2026-03-28T14:02:01Z</time></trkpt><trkpt lat="39.98354540623088" lon="9.6261775291235"><ele>42.0</ele><time>2026-03-28T14:02:02Z</time></trkpt><trkpt lat="39.98344479398762" lon="9.626399025138655"><ele>42.0</ele><time>2026-03-28T14:02:03Z</time></trkpt><trkpt lat="39.9833320947477" lon="9.626616924836874"><ele>42.0</ele><time>2026-03-28T14:02:04Z</time></trkpt><trkpt lat="39.98320607879032" lon="9.626837762404946"><ele>42.0</ele><time>2026-03-28T14:02:05Z</time></trkpt><trkpt lat="39.983075194394985" lon="9.627057281779733"><ele>42.0</ele><time>2026-03-28T14:02:06Z</time></trkpt><trkpt lat="39.98294080449901" lon="9.627282266808505"><ele>41.333333333333336</ele><time>2026-03-28T14:02:07Z</time></trkpt><trkpt lat="39.9828028296958" lon="9.627507641883703"><ele>40.66666666666667</ele><time>2026-03-28T14:02:08Z</time></trkpt><trkpt lat="39.98266736001152" lon="9.627737191251072"><ele>40.0</ele><time>2026-03-28T14:02:09Z</time></trkpt><trkpt lat="39.98253088618925" lon="9.627963852102534"><ele>39.333333333333336</ele><time>2026-03-28T14:02:10Z</time></trkpt><trkpt lat="39.9823949911147" lon="9.628195389084185"><ele>38.666666666666664</ele><time>2026-03-28T14:02:11Z</time></trkpt><trkpt lat="39.98225846650404" lon="9.628422416676985"><ele>38.0</ele><time>2026-03-28T14:02:12Z</time></trkpt><trkpt lat="39.982122898209866" lon="9.62864631989668"><ele>38.0</ele><time>2026-03-28T14:02:13Z</time></trkpt><trkpt lat="39.98198935903024" lon="9.628868142539915"><ele>38.0</ele><time>2026-03-28T14:02:14Z</time></trkpt><trkpt lat="39.98185785131456" lon="9.629081171584678"><ele>38.0</ele><time>2026-03-28T14:02:15Z</time></trkpt><trkpt lat="39.98173218006566" lon="9.629289518799803"><ele>39.0</ele><time>2026-03-28T14:02:16Z</time></trkpt><trkpt lat="39.981609372711205" lon="9.62949674908837"><ele>40.0</ele><time>2026-03-28T14:02:17Z</time></trkpt><trkpt lat="39.981490276726284" lon="9.629698644212407"><ele>41.0</ele><time>2026-03-28T14:02:18Z</time></trkpt><trkpt lat="39.981367864885854" lon="9.62990290844387"><ele>41.0</ele><time>2026-03-28T14:02:19Z</time></trkpt><trkpt lat="39.98124791812266" lon="9.630109094444503"><ele>41.0</ele><time>2026-03-28T14:02:20Z</time></trkpt><trkpt lat="39.98112635169447" lon="9.630316150751575"><ele>41.0</ele><time>2026-03-28T14:02:21Z</time></trkpt><trkpt lat="39.981003609728006" lon="9.6305266179211"><ele>40.666666666666664</ele><time>2026-03-28T14:02:22Z</time></trkpt><trkpt lat="39.98087769018711" lon="9.630736750622324"><ele>40.333333333333336</ele><time>2026-03-28T14:02:23Z</time></trkpt><trkpt lat="39.980749899729126" lon="9.630946354368124"><ele>40.0</ele><time>2026-03-28T14:02:24Z</time></trkpt><trkpt lat="39.98062085407549" lon="9.631160121655965"><ele>39.333333333333336</ele><time>2026-03-28T14:02:25Z</time></trkpt><trkpt lat="39.98049241438485" lon="9.631375316927922"><ele>38.666666666666664</ele><time>2026-03-28T14:02:26Z</time></trkpt><trkpt lat="39.98036296310462" lon="9.631591764855552"><ele>38.0</ele><time>2026-03-28T14:02:27Z</time></trkpt><trkpt lat="39.980234508019024" lon="9.631807548677044"><ele>39.666666666666664</ele><time>2026-03-28T14:02:28Z</time></trkpt><trkpt lat="39.98010390003329" lon="9.632022965991741"><ele>41.333333333333336</ele><time>2026-03-28T14:02:29Z</time></trkpt><trkpt lat="39.9799754836811" lon="9.632239196626319"><ele>43.0</ele><time>2026-03-28T14:02:30Z</time></trkpt><trkpt lat="39.97984585711689" lon="9.63245344133542"><ele>43.0</ele><time>2026-03-28T14:02:31Z</time></trkpt><trkpt lat="39.9797183918388" lon="9.632666470810644"><ele>43.0</ele><time>2026-03-28T14:02:32Z</time></trkpt><trkpt lat="39.979589117142005" lon="9.632884986145339"><ele>43.0</ele><time>2026-03-28T14:02:33Z</time></trkpt><trkpt lat="39.979461173963344" lon="9.633098930423374"><ele>43.0</ele><time>2026-03-28T14:02:34Z</time></trkpt><trkpt lat="39.97933028707306" lon="9.633314870765714"><ele>43.0</ele><time>2026-03-28T14:02:35Z</time></trkpt><trkpt lat="39.979197556882085" lon="9.633531133395667"><ele>43.0</ele><time>2026-03-28T14:02:36Z</time></trkpt><trkpt lat="39.9790650047117" lon="9.633746914170729"><ele>44.333333333333336</ele><time>2026-03-28T14:02:37Z</time></trkpt><trkpt lat="39.978930421298756" lon="9.63396757072751"><ele>45.666666666666664</ele><time>2026-03-28T14:02:38Z</time></trkpt><trkpt lat="39.97879523238023" lon="9.634180032745556"><ele>47.0</ele><time>2026-03-28T14:02:39Z</time></trkpt><trkpt lat="39.978673025322244" lon="9.63439552473845"><ele>47.0</ele><time>2026-03-28T14:02:40Z</time></trkpt><trkpt lat="39.97854299575228" lon="9.634613221462352"><ele>47.0</ele><time>2026-03-28T14:02:41Z</time></trkpt><trkpt lat="39.978414287009855" lon="9.63482721807621"><ele>47.0</ele><time>2026-03-28T14:02:42Z</time></trkpt><trkpt lat="39.97827007273572" lon="9.635027569466711"><ele>46.33333333333333</ele><time>2026-03-28T14:02:43Z</time></trkpt><trkpt lat="39.97811279855082" lon="9.635216417110541"><ele>45.666666666666664</ele><time>2026-03-28T14:02:44Z</time></trkpt><trkpt lat="39.97793815066028" lon="9.635393012803846"><ele>45.0</ele><time>2026-03-28T14:02:45Z</time></trkpt><trkpt lat="39.97776189586221" lon="9.63556667047667"><ele>44.0</ele><time>2026-03-28T14:02:46Z</time></trkpt><trkpt lat="39.977572525526" lon="9.635737872360927"><ele>43.0</ele><time>2026-03-28T14:02:47Z</time></trkpt><trkpt lat="39.97738065124645" lon="9.635914902220803"><ele>41.5</ele><time>2026-03-28T14:02:48Z</time></trkpt><trkpt lat="39.97718741711345" lon="9.636093647852908"><ele>40.0</ele><time>2026-03-28T14:02:49Z</time></trkpt><trkpt lat="39.976998160700916" lon="9.636272898812988"><ele>38.0</ele><time>2026-03-28T14:02:50Z</time></trkpt><trkpt lat="39.97680809351234" lon="9.636451244728443"><ele>36.0</ele><time>2026-03-28T14:02:51Z</time></trkpt><trkpt lat="39.97661915297202" lon="9.636628485219415"><ele>36.0</ele><time>2026-03-28T14:02:52Z</time></trkpt><trkpt lat="39.976431126918825" lon="9.63680414371076"><ele>36.0</ele><time>2026-03-28T14:02:53Z</time></trkpt><trkpt lat="39.9762436346253" lon="9.636980360308833"><ele>35.5</ele><time>2026-03-28T14:02:54Z</time></trkpt><trkpt lat="39.9760585715014" lon="9.637156346435317"><ele>35.0</ele><time>2026-03-28T14:02:55Z</time></trkpt><trkpt lat="39.97587490895326" lon="9.637328488606938"><ele>33.5</ele><time>2026-03-28T14:02:56Z</time></trkpt><trkpt lat="39.97569142632897" lon="9.63749997040699"><ele>32.0</ele><time>2026-03-28T14:02:57Z</time></trkpt><trkpt lat="39.975506146659036" lon="9.637665246031238"><ele>31.666666666666664</ele><time>2026-03-28T14:02:58Z</time></trkpt><trkpt lat="39.975324254766804" lon="9.637835233525891"><ele>31.333333333333336</ele><time>2026-03-28T14:02:59Z</time></trkpt><trkpt lat="39.975144625073284" lon="9.638006194593459"><ele>31.0</ele><time>2026-03-28T14:03:00Z</time></trkpt><trkpt lat="39.974966608190165" lon="9.638174839474981"><ele>31.0</ele><time>2026-03-28T14:03:01Z</time></trkpt><trkpt lat="39.974787773482355" lon="9.638341696088794"><ele>31.0</ele><time>2026-03-28T14:03:02Z</time></trkpt><trkpt lat="39.97460881518839" lon="9.638507239611876"><ele>31.0</ele><time>2026-03-28T14:03:03Z</time></trkpt><trkpt lat="39.97442789111625" lon="9.638672912924338"><ele>31.0</ele><time>2026-03-28T14:03:04Z</time></trkpt><trkpt lat="39.97424882249251" lon="9.638837934365538"><ele>31.0</ele><time>2026-03-28T14:03:05Z</time></trkpt><trkpt lat="39.97407008916164" lon="9.639001320958263"><ele>31.0</ele><time>2026-03-28T14:03:06Z</time></trkpt><trkpt lat="39.97389204473183" lon="9.639163810999609"><ele>31.0</ele><time>2026-03-28T14:03:07Z</time></trkpt><trkpt lat="39.97371724049424" lon="9.639328911669233"><ele>31.0</ele><time>2026-03-28T14:03:08Z</time></trkpt><trkpt lat="39.97354699809538" lon="9.63949840776054"><ele>31.0</ele><time>2026-03-28T14:03:09Z</time></trkpt><trkpt lat="39.97337532203945" lon="9.639663439106572"><ele>30.0</ele><time>2026-03-28T14:03:10Z</time></trkpt><trkpt lat="39.97320212049383" lon="9.639826997827589"><ele>29.0</ele><time>2026-03-28T14:03:11Z</time></trkpt><trkpt lat="39.97302801868345" lon="9.63998578274258"><ele>28.0</ele><time>2026-03-28T14:03:12Z</time></trkpt><trkpt lat="39.97285364048847" lon="9.640142620558454"><ele>28.0</ele><time>2026-03-28T14:03:13Z</time></trkpt><trkpt lat="39.972682316104546" lon="9.640301560707835"><ele>28.0</ele><time>2026-03-28T14:03:14Z</time></trkpt><trkpt lat="39.97250853076132" lon="9.640465081432042"><ele>28.0</ele><time>2026-03-28T14:03:15Z</time></trkpt><trkpt lat="39.972333335254405" lon="9.64062942166252"><ele>27.0</ele><time>2026-03-28T14:03:16Z</time></trkpt><trkpt lat="39.97216172447124" lon="9.640793264244328"><ele>26.0</ele><time>2026-03-28T14:03:17Z</time></trkpt><trkpt lat="39.97198624637561" lon="9.640954617278513"><ele>25.0</ele><time>2026-03-28T14:03:18Z</time></trkpt><trkpt lat="39.97181109200339" lon="9.641117994892667"><ele>23.666666666666668</ele><time>2026-03-28T14:03:19Z</time></trkpt><trkpt lat="39.97163948113935" lon="9.641279528906965"><ele>22.333333333333336</ele><time>2026-03-28T14:03:20Z</time></trkpt><trkpt lat="39.9714723434151" lon="9.641435517959142"><ele>21.0</ele><time>2026-03-28T14:03:21Z</time></trkpt><trkpt lat="39.971309367647585" lon="9.641589694311499"><ele>21.0</ele><time>2026-03-28T14:03:22Z</time></trkpt><trkpt lat="39.971149091957585" lon="9.641739988403629"><ele>21.0</ele><time>2026-03-28T14:03:23Z</time></trkpt><trkpt lat="39.97099151198689" lon="9.64188957979917"><ele>21.0</ele><time>2026-03-28T14:03:24Z</time></trkpt><trkpt lat="39.97083685719888" lon="9.642036857402763"><ele>20.0</ele><time>2026-03-28T14:03:25Z</time></trkpt><trkpt lat="39.97067995332826" lon="9.642181084820246"><ele>19.0</ele><time>2026-03-28T14:03:26Z</time></trkpt><trkpt lat="39.97052659880837" lon="9.642319693470435"><ele>18.0</ele><time>2026-03-28T14:03:27Z</time></trkpt><trkpt lat="39.970364381740445" lon="9.64247837993776"><ele>18.0</ele><time>2026-03-28T14:03:28Z</time></trkpt><trkpt lat="39.970204852566404" lon="9.642618815456547"><ele>18.0</ele><time>2026-03-28T14:03:29Z</time></trkpt><trkpt lat="39.97004619788764" lon="9.642770342555293"><ele>18.0</ele><time>2026-03-28T14:03:30Z</time></trkpt><trkpt lat="39.96988966360706" lon="9.64292640766005"><ele>17.333333333333332</ele><time>2026-03-28T14:03:31Z</time></trkpt><trkpt lat="39.96973253541512" lon="9.643075165803568"><ele>16.666666666666664</ele><time>2026-03-28T14:03:32Z</time></trkpt><trkpt lat="39.96956262028731" lon="9.643219830033775"><ele>16.0</ele><time>2026-03-28T14:03:33Z</time></trkpt><trkpt lat="39.96939777109162" lon="9.643358240874006"><ele>16.0</ele><time>2026-03-28T14:03:34Z</time></trkpt><trkpt lat="39.96923823206212" lon="9.643502129188052"><ele>16.0</ele><time>2026-03-28T14:03:35Z</time></trkpt><trkpt lat="39.96908539087454" lon="9.64365236538057"><ele>16.0</ele><time>2026-03-28T14:03:36Z</time></trkpt><trkpt lat="39.968948378952405" lon="9.643803520983749"><ele>15.666666666666666</ele><time>2026-03-28T14:03:37Z</time></trkpt><trkpt lat="39.96883414174396" lon="9.643984076051488"><ele>15.333333333333332</ele><time>2026-03-28T14:03:38Z</time></trkpt><trkpt lat="39.96872899475966" lon="9.64418234508237"><ele>15.0</ele><time>2026-03-28T14:03:39Z</time></trkpt><trkpt lat="39.96863857402115" lon="9.644402529274883"><ele>15.333333333333332</ele><time>2026-03-28T14:03:40Z</time></trkpt><trkpt lat="39.9685773634307" lon="9.644665097520761"><ele>15.666666666666666</ele><time>2026-03-28T14:03:41Z</time></trkpt><trkpt lat="39.96852019723777" lon="9.64493633656157"><ele>16.0</ele><time>2026-03-28T14:03:42Z</time></trkpt><trkpt lat="39.96846630468913" lon="9.645208465575921"><ele>15.666666666666666</ele><time>2026-03-28T14:03:43Z</time></trkpt><trkpt lat="39.96840788167987" lon="9.64548220064662"><ele>15.333333333333332</ele><time>2026-03-28T14:03:44Z</time></trkpt><trkpt lat="39.968346015899684" lon="9.645754106277872"><ele>15.0</ele><time>2026-03-28T14:03:45Z</time></trkpt><trkpt lat="39.968283608531195" lon="9.646024043763838"><ele>14.333333333333332</ele><time>2026-03-28T14:03:46Z</time></trkpt><trkpt lat="39.96822079588545" lon="9.646294838633562"><ele>13.666666666666666</ele><time>2026-03-28T14:03:47Z</time></trkpt><trkpt lat="39.968159488438815" lon="9.646567236770906"><ele>13.0</ele><time>2026-03-28T14:03:48Z</time></trkpt><trkpt lat="39.96809958720206" lon="9.646841781494462"><ele>13.0</ele><time>2026-03-28T14:03:49Z</time></trkpt><trkpt lat="39.96803572690163" lon="9.647116629400509"><ele>13.0</ele><time>2026-03-28T14:03:50Z</time></trkpt><trkpt lat="39.967970477077756" lon="9.647389808815229"><ele>13.0</ele><time>2026-03-28T14:03:51Z</time></trkpt><trkpt lat="39.96790269135548" lon="9.647664695604819"><ele>13.333333333333332</ele><time>2026-03-28T14:03:52Z</time></trkpt><trkpt lat="39.96783770696536" lon="9.647939980203661"><ele>13.666666666666668</ele><time>2026-03-28T14:03:53Z</time></trkpt><trkpt lat="39.96777161499991" lon="9.648213712462228"><ele>14.0</ele><time>2026-03-28T14:03:54Z</time></trkpt><trkpt lat="39.96770870073064" lon="9.648487750880012"><ele>14.333333333333334</ele><time>2026-03-28T14:03:55Z</time></trkpt><trkpt lat="39.967650444159155" lon="9.64875760008135"><ele>14.666666666666668</ele><time>2026-03-28T14:03:56Z</time></trkpt><trkpt lat="39.967604380779" lon="9.649027060159195"><ele>15.0</ele><time>2026-03-28T14:03:57Z</time></trkpt><trkpt lat="39.96757522401186" lon="9.649301209962095"><ele>15.333333333333332</ele><time>2026-03-28T14:03:58Z</time></trkpt><trkpt lat="39.96756716489285" lon="9.649569745476027"><ele>15.666666666666666</ele><time>2026-03-28T14:03:59Z</time></trkpt><trkpt lat="39.96756477052404" lon="9.64982585581682"><ele>16.0</ele><time>2026-03-28T14:04:00Z</time></trkpt><trkpt lat="39.96755721627423" lon="9.650059076051143"><ele>16.0</ele><time>2026-03-28T14:04:01Z</time></trkpt><trkpt lat="39.967551281622974" lon="9.650268387014506"><ele>16.0</ele><time>2026-03-28T14:04:02Z</time></trkpt><trkpt lat="39.96753932838619" lon="9.650476231994512"><ele>16.0</ele><time>2026-03-28T14:04:03Z</time></trkpt><trkpt lat="39.96752831919203" lon="9.650674791463368"><ele>16.0</ele><time>2026-03-28T14:04:04Z</time></trkpt><trkpt lat="39.96751681707963" lon="9.650870873077546"><ele>16.0</ele><time>2026-03-28T14:04:05Z</time></trkpt><trkpt lat="39.96750789313084" lon="9.65106608653843"><ele>16.0</ele><time>2026-03-28T14:04:06Z</time></trkpt><trkpt lat="39.96750078542105" lon="9.651259656353874"><ele>16.0</ele><time>2026-03-28T14:04:07Z</time></trkpt><trkpt lat="39.96749424500522" lon="9.65145277854263"><ele>16.0</ele><time>2026-03-28T14:04:08Z</time></trkpt><trkpt lat="39.96748485680448" lon="9.651649725424948"><ele>16.0</ele><time>2026-03-28T14:04:09Z</time></trkpt><trkpt lat="39.967475491134365" lon="9.651846376543332"><ele>16.0</ele><time>2026-03-28T14:04:10Z</time></trkpt><trkpt lat="39.96747254422541" lon="9.652047477627107"><ele>15.666666666666666</ele><time>2026-03-28T14:04:11Z</time></trkpt><trkpt lat="39.96748484654589" lon="9.652252822620493"><ele>15.333333333333332</ele><time>2026-03-28T14:04:12Z</time></trkpt><trkpt lat="39.967519087289524" lon="9.652456172134977"><ele>15.0</ele><time>2026-03-28T14:04:13Z</time></trkpt><trkpt lat="39.967563863868314" lon="9.652657489296653"><ele>15.333333333333332</ele><time>2026-03-28T14:04:14Z</time></trkpt><trkpt lat="39.96761260819289" lon="9.652851513077566"><ele>15.666666666666666</ele><time>2026-03-28T14:04:15Z</time></trkpt><trkpt lat="39.96765996441916" lon="9.653039493676907"><ele>16.0</ele><time>2026-03-28T14:04:16Z</time></trkpt><trkpt lat="39.96770504216303" lon="9.653224172557776"><ele>16.0</ele><time>2026-03-28T14:04:17Z</time></trkpt><trkpt lat="39.96774647644728" lon="9.65340602102364"><ele>16.0</ele><time>2026-03-28T14:04:18Z</time></trkpt><trkpt lat="39.96778573803929" lon="9.653582604325814"><ele>16.0</ele><time>2026-03-28T14:04:19Z</time></trkpt><trkpt lat="39.96782298663825" lon="9.653749763797395"><ele>16.0</ele><time>2026-03-28T14:04:20Z</time></trkpt><trkpt lat="39.96786111316173" lon="9.653909727871211"><ele>16.0</ele><time>2026-03-28T14:04:21Z</time></trkpt><trkpt lat="39.96789849545942" lon="9.654062858719508"><ele>16.0</ele><time>2026-03-28T14:04:22Z</time></trkpt><trkpt lat="39.9679349621347" lon="9.654211012067277"><ele>16.0</ele><time>2026-03-28T14:04:23Z</time></trkpt><trkpt lat="39.96796939879459" lon="9.654356570106673"><ele>16.0</ele><time>2026-03-28T14:04:24Z</time></trkpt><trkpt lat="39.9680051192916" lon="9.654499649605127"><ele>15.5</ele><time>2026-03-28T14:04:25Z</time></trkpt><trkpt lat="39.968040225263344" lon="9.654641724797012"><ele>15.0</ele><time>2026-03-28T14:04:26Z</time></trkpt><trkpt lat="39.96807543589578" lon="9.654786938604083"><ele>14.5</ele><time>2026-03-28T14:04:27Z</time></trkpt><trkpt lat="39.968109113131646" lon="9.654930800168641"><ele>14.0</ele><time>2026-03-28T14:04:28Z</time></trkpt><trkpt lat="39.96813937347318" lon="9.655069324064605"><ele>14.0</ele><time>2026-03-28T14:04:29Z</time></trkpt><trkpt lat="39.968166360780906" lon="9.655200300435466"><ele>13.999999999999998</ele><time>2026-03-28T14:04:30Z</time></trkpt><trkpt lat="39.96819742055521" lon="9.655326652252747"><ele>13.999999999999998</ele><time>2026-03-28T14:04:31Z</time></trkpt><trkpt lat="39.96823089571021" lon="9.655457559260244"><ele>14.0</ele><time>2026-03-28T14:04:32Z</time></trkpt><trkpt lat="39.968259422224705" lon="9.655595397370112"><ele>14.0</ele><time>2026-03-28T14:04:33Z</time></trkpt><trkpt lat="39.96828887814921" lon="9.655726590631144"><ele>14.000000000000002</ele><time>2026-03-28T14:04:34Z</time></trkpt><trkpt lat="39.96831555217668" lon="9.655848355451196"><ele>14.0</ele><time>2026-03-28T14:04:35Z</time></trkpt><trkpt lat="39.96834496911919" lon="9.655954908751038"><ele>14.0</ele><time>2026-03-28T14:04:36Z</time></trkpt><trkpt lat="39.96836569475726" lon="9.65604954717141"><ele>14.0</ele><time>2026-03-28T14:04:37Z</time></trkpt><trkpt lat="39.96838499649863" lon="9.656131314105908"><ele>14.000000000000002</ele><time>2026-03-28T14:04:38Z</time></trkpt><trkpt lat="39.968410072807416" lon="9.65623845166463"><ele>14.0</ele><time>2026-03-28T14:04:40Z</time></trkpt><trkpt lat="39.96843513536019" lon="9.656351851710419"><ele>14.2</ele><time>2026-03-28T14:04:43Z</time></trkpt><trkpt lat="39.96846586030214" lon="9.656501672298486"><ele>14.399999999999999</ele><time>2026-03-28T14:04:45Z</time></trkpt><trkpt lat="39.968490055520675" lon="9.65660288244026"><ele>14.6</ele><time>2026-03-28T14:04:46Z</time></trkpt><trkpt lat="39.96851634927438" lon="9.65671347588461"><ele>14.8</ele><time>2026-03-28T14:04:47Z</time></trkpt><trkpt lat="39.968542513946566" lon="9.656834424526014"><ele>15.0</ele><time>2026-03-28T14:04:48Z</time></trkpt><trkpt lat="39.96857153042861" lon="9.656952514024658"><ele>14.8</ele><time>2026-03-28T14:04:49Z</time></trkpt><trkpt lat="39.968599551852634" lon="9.657069350182732"><ele>14.6</ele><time>2026-03-28T14:04:50Z</time></trkpt><trkpt lat="39.96862486701983" lon="9.657188138558514"><ele>14.399999999999999</ele><time>2026-03-28T14:04:51Z</time></trkpt><trkpt lat="39.9686499441028" lon="9.657308211274337"><ele>14.2</ele><time>2026-03-28T14:04:52Z</time></trkpt><trkpt lat="39.96867846213184" lon="9.657431488599485"><ele>14.0</ele><time>2026-03-28T14:04:53Z</time></trkpt><trkpt lat="39.96871183616393" lon="9.657555863811028"><ele>14.0</ele><time>2026-03-28T14:04:54Z</time></trkpt><trkpt lat="39.96874260532458" lon="9.65768243060711"><ele>13.999999999999998</ele><time>2026-03-28T14:04:55Z</time></trkpt><trkpt lat="39.968772566985834" lon="9.65781191187567"><ele>13.999999999999998</ele><time>2026-03-28T14:04:56Z</time></trkpt><trkpt lat="39.96880193314147" lon="9.657943014730483"><ele>14.0</ele><time>2026-03-28T14:04:57Z</time></trkpt><trkpt lat="39.968833323259204" lon="9.658071639952292"><ele>14.0</ele><time>2026-03-28T14:04:58Z</time></trkpt><trkpt lat="39.9688640821978" lon="9.658201117183362"><ele>13.6</ele><time>2026-03-28T14:04:59Z</time></trkpt><trkpt lat="39.968896585085986" lon="9.6583279685534"><ele>13.2</ele><time>2026-03-28T14:05:00Z</time></trkpt><trkpt lat="39.968923974902694" lon="9.658453628875614"><ele>12.799999999999999</ele><time>2026-03-28T14:05:01Z</time></trkpt><trkpt lat="39.96895496966965" lon="9.658576515233298"><ele>12.399999999999999</ele><time>2026-03-28T14:05:02Z</time></trkpt><trkpt lat="39.96898028207085" lon="9.658700119870979"><ele>12.0</ele><time>2026-03-28T14:05:03Z</time></trkpt><trkpt lat="39.969004811694916" lon="9.658815803790349"><ele>11.833333333333334</ele><time>2026-03-28T14:05:04Z</time></trkpt><trkpt lat="39.96902750868745" lon="9.658922778625204"><ele>11.666666666666666</ele><time>2026-03-28T14:05:05Z</time></trkpt><trkpt lat="39.96905326957537" lon="9.65902115679641"><ele>11.5</ele><time>2026-03-28T14:05:06Z</time></trkpt><trkpt lat="39.969074392866396" lon="9.659112119960437"><ele>11.333333333333332</ele><time>2026-03-28T14:05:07Z</time></trkpt><trkpt lat="39.969097189599395" lon="9.659198319536907"><ele>11.166666666666666</ele><time>2026-03-28T14:05:08Z</time></trkpt><trkpt lat="39.969118885820585" lon="9.65928931157791"><ele>11.0</ele><time>2026-03-28T14:05:09Z</time></trkpt><trkpt lat="39.96914059349268" lon="9.65938203658791"><ele>10.600000000000001</ele><time>2026-03-28T14:05:10Z</time></trkpt><trkpt lat="39.96916322093357" lon="9.659485980578333"><ele>10.200000000000001</ele><time>2026-03-28T14:05:11Z</time></trkpt><trkpt lat="39.969189798107124" lon="9.659594256030044"><ele>9.8</ele><time>2026-03-28T14:05:12Z</time></trkpt><trkpt lat="39.969214692087824" lon="9.659706245524992"><ele>9.4</ele><time>2026-03-28T14:05:13Z</time></trkpt><trkpt lat="39.9692362883951" lon="9.659822750641052"><ele>9.0</ele><time>2026-03-28T14:05:14Z</time></trkpt><trkpt lat="39.96926861363696" lon="9.659944819060248"><ele>9.666666666666666</ele><time>2026-03-28T14:05:15Z</time></trkpt><trkpt lat="39.96929388357328" lon="9.660061457015553"><ele>10.333333333333332</ele><time>2026-03-28T14:05:16Z</time></trkpt><trkpt lat="39.969322860547564" lon="9.660170797668597"><ele>11.0</ele><time>2026-03-28T14:05:17Z</time></trkpt><trkpt lat="39.96934668285564" lon="9.660270301108293"><ele>11.666666666666666</ele><time>2026-03-28T14:05:18Z</time></trkpt><trkpt lat="39.96936957566756" lon="9.660365528970607"><ele>12.333333333333332</ele><time>2026-03-28T14:05:19Z</time></trkpt><trkpt lat="39.96939209869818" lon="9.660453802195978"><ele>13.0</ele><time>2026-03-28T14:05:20Z</time></trkpt><trkpt lat="39.969402825871484" lon="9.660538082817675"><ele>12.999999999999998</ele><time>2026-03-28T14:05:21Z</time></trkpt><trkpt lat="39.969423494699896" lon="9.660618934710088"><ele>13.0</ele><time>2026-03-28T14:05:22Z</time></trkpt><trkpt lat="39.969455663901535" lon="9.660767767782891"><ele>13.0</ele><time>2026-03-28T14:05:24Z</time></trkpt><trkpt lat="39.96947066193323" lon="9.660870942610257"><ele>13.0</ele><time>2026-03-28T14:05:26Z</time></trkpt><trkpt lat="39.96945577650969" lon="9.660955251124046"><ele>12.999999999999998</ele><time>2026-03-28T14:05:29Z</time></trkpt><trkpt lat="39.969377194792635" lon="9.66100973896154"><ele>13.0</ele><time>2026-03-28T14:05:33Z</time></trkpt><trkpt lat="39.96927121965563" lon="9.660939204971552"><ele>12.999999999999998</ele><time>2026-03-28T14:05:35Z</time></trkpt><trkpt lat="39.96920335030993" lon="9.660893667845567"><ele>13.0</ele><time>2026-03-28T14:05:36Z</time></trkpt><trkpt lat="39.969131811608335" lon="9.660838295096505"><ele>13.0</ele><time>2026-03-28T14:05:37Z</time></trkpt><trkpt lat="39.96905372351233" lon="9.66078251557281"><ele>13.0</ele><time>2026-03-28T14:05:38Z</time></trkpt><trkpt lat="39.96897355269485" lon="9.660723857247904"><ele>12.999999999999998</ele><time>2026-03-28T14:05:39Z</time></trkpt><trkpt lat="39.96888756250742" lon="9.660663482924182"><ele>13.0</ele><time>2026-03-28T14:05:40Z</time></trkpt><trkpt lat="39.968798860160184" lon="9.660604480621402"><ele>12.0</ele><time>2026-03-28T14:05:41Z</time></trkpt><trkpt lat="39.96871036351143" lon="9.660540865722059"><ele>11.0</ele><time>2026-03-28T14:05:42Z</time></trkpt><trkpt lat="39.968620565511735" lon="9.660474518132812"><ele>10.0</ele><time>2026-03-28T14:05:43Z</time></trkpt><trkpt lat="39.96852856212511" lon="9.660408906625726"><ele>9.0</ele><time>2026-03-28T14:05:44Z</time></trkpt><trkpt lat="39.96843345477497" lon="9.660344233106706"><ele>8.0</ele><time>2026-03-28T14:05:45Z</time></trkpt><trkpt lat="39.96833819532165" lon="9.660277955216257"><ele>8.0</ele><time>2026-03-28T14:05:46Z</time></trkpt><trkpt lat="39.968242492928255" lon="9.660206504287785"><ele>8.0</ele><time>2026-03-28T14:05:47Z</time></trkpt><trkpt lat="39.968145034949984" lon="9.660137377623451"><ele>8.0</ele><time>2026-03-28T14:05:48Z</time></trkpt><trkpt lat="39.96804450792849" lon="9.660067094230048"><ele>8.0</ele><time>2026-03-28T14:05:49Z</time></trkpt><trkpt lat="39.96794284390047" lon="9.659995820104506"><ele>8.0</ele><time>2026-03-28T14:05:50Z</time></trkpt><trkpt lat="39.96783850002242" lon="9.659924728794142"><ele>8.0</ele><time>2026-03-28T14:05:51Z</time></trkpt><trkpt lat="39.967734389272216" lon="9.659856274327753"><ele>8.0</ele><time>2026-03-28T14:05:52Z</time></trkpt><trkpt lat="39.967628902672786" lon="9.659780342498703"><ele>8.0</ele><time>2026-03-28T14:05:53Z</time></trkpt><trkpt lat="39.967520105109344" lon="9.659702557442646"><ele>8.25</ele><time>2026-03-28T14:05:54Z</time></trkpt><trkpt lat="39.967408769035224" lon="9.659623239474994"><ele>8.5</ele><time>2026-03-28T14:05:55Z</time></trkpt><trkpt lat="39.967294857397896" lon="9.659545773324583"><ele>8.75</ele><time>2026-03-28T14:05:56Z</time></trkpt><trkpt lat="39.967178782178294" lon="9.659466378473173"><ele>9.0</ele><time>2026-03-28T14:05:57Z</time></trkpt><trkpt lat="39.967064656305936" lon="9.65938600262647"><ele>8.5</ele><time>2026-03-28T14:05:58Z</time></trkpt><trkpt lat="39.966951478922" lon="9.659305886058805"><ele>8.0</ele><time>2026-03-28T14:05:59Z</time></trkpt><trkpt lat="39.96683339292623" lon="9.659226787419518"><ele>7.5</ele><time>2026-03-28T14:06:00Z</time></trkpt><trkpt lat="39.96672772534228" lon="9.659147602240141"><ele>7.0</ele><time>2026-03-28T14:06:01Z</time></trkpt><trkpt lat="39.966611485703275" lon="9.659071375545198"><ele>6.5</ele><time>2026-03-28T14:06:02Z</time></trkpt><trkpt lat="39.96649605682337" lon="9.658991328644952"><ele>6.0</ele><time>2026-03-28T14:06:03Z</time></trkpt><trkpt lat="39.966377006348864" lon="9.658908493784876"><ele>5.5</ele><time>2026-03-28T14:06:04Z</time></trkpt><trkpt lat="39.96625735211571" lon="9.658824930786635"><ele>5.0</ele><time>2026-03-28T14:06:05Z</time></trkpt><trkpt lat="39.966136933779026" lon="9.658744550313225"><ele>5.0</ele><time>2026-03-28T14:06:06Z</time></trkpt><trkpt lat="39.96601578755386" lon="9.658661613939469"><ele>5.0</ele><time>2026-03-28T14:06:07Z</time></trkpt><trkpt lat="39.96589591443802" lon="9.658579926008814"><ele>5.0</ele><time>2026-03-28T14:06:08Z</time></trkpt><trkpt lat="39.965776308529094" lon="9.658494864443334"><ele>5.0</ele><time>2026-03-28T14:06:09Z</time></trkpt><trkpt lat="39.96565574529147" lon="9.658409277551915"><ele>5.25</ele><time>2026-03-28T14:06:10Z</time></trkpt><trkpt lat="39.96553417382361" lon="9.65832340425674"><ele>5.5</ele><time>2026-03-28T14:06:11Z</time></trkpt><trkpt lat="39.96541285139483" lon="9.65823744856611"><ele>5.75</ele><time>2026-03-28T14:06:12Z</time></trkpt><trkpt lat="39.965291042362026" lon="9.65814949115145"><ele>6.0</ele><time>2026-03-28T14:06:13Z</time></trkpt><trkpt lat="39.965171980390295" lon="9.658066407419296"><ele>6.0</ele><time>2026-03-28T14:06:14Z</time></trkpt><trkpt lat="39.96505334429184" lon="9.657982634601412"><ele>6.0</ele><time>2026-03-28T14:06:15Z</time></trkpt><trkpt lat="39.96493732802587" lon="9.657905658494396"><ele>6.0</ele><time>2026-03-28T14:06:16Z</time></trkpt><trkpt lat="39.96482279605876" lon="9.657828976448961"><ele>6.0</ele><time>2026-03-28T14:06:17Z</time></trkpt><trkpt lat="39.964711847430785" lon="9.657752554673097"><ele>7.75</ele><time>2026-03-28T14:06:18Z</time></trkpt><trkpt lat="39.964602409361994" lon="9.657672343632955"><ele>9.5</ele><time>2026-03-28T14:06:19Z</time></trkpt><trkpt lat="39.96448901901742" lon="9.657596191989548"><ele>11.25</ele><time>2026-03-28T14:06:20Z</time></trkpt><trkpt lat="39.96436866013224" lon="9.657528776724215"><ele>13.0</ele><time>2026-03-28T14:06:21Z</time></trkpt><trkpt lat="39.9642415911267" lon="9.657477547611686"><ele>13.5</ele><time>2026-03-28T14:06:22Z</time></trkpt><trkpt lat="39.9641082112655" lon="9.657442877525988"><ele>14.0</ele><time>2026-03-28T14:06:23Z</time></trkpt><trkpt lat="39.963970132047514" lon="9.65742514156039"><ele>14.5</ele><time>2026-03-28T14:06:24Z</time></trkpt><trkpt lat="39.96382889174623" lon="9.657419961221525"><ele>15.0</ele><time>2026-03-28T14:06:25Z</time></trkpt><trkpt lat="39.96368458049338" lon="9.65742476984958"><ele>15.0</ele><time>2026-03-28T14:06:26Z</time></trkpt><trkpt lat="39.9635383995506" lon="9.6574302182808"><ele>15.0</ele><time>2026-03-28T14:06:27Z</time></trkpt><trkpt lat="39.963391331734385" lon="9.657436214854988"><ele>15.0</ele><time>2026-03-28T14:06:28Z</time></trkpt><trkpt lat="39.96323979851289" lon="9.65744322823762"><ele>15.0</ele><time>2026-03-28T14:06:29Z</time></trkpt><trkpt lat="39.963088600877974" lon="9.657450187124004"><ele>13.0</ele><time>2026-03-28T14:06:30Z</time></trkpt><trkpt lat="39.962938945481255" lon="9.65745123755821"><ele>11.0</ele><time>2026-03-28T14:06:31Z</time></trkpt><trkpt lat="39.96278362030023" lon="9.657444621660517"><ele>9.0</ele><time>2026-03-28T14:06:32Z</time></trkpt><trkpt lat="39.96262012672621" lon="9.657429181383772"><ele>9.333333333333334</ele><time>2026-03-28T14:06:33Z</time></trkpt><trkpt lat="39.96245206685128" lon="9.657412544792486"><ele>9.666666666666668</ele><time>2026-03-28T14:06:34Z</time></trkpt><trkpt lat="39.96227744351718" lon="9.657392658988226"><ele>10.0</ele><time>2026-03-28T14:06:35Z</time></trkpt><trkpt lat="39.9620982532278" lon="9.657361548664165"><ele>10.0</ele><time>2026-03-28T14:06:36Z</time></trkpt><trkpt lat="39.961915255187805" lon="9.657313008910597"><ele>10.0</ele><time>2026-03-28T14:06:37Z</time></trkpt><trkpt lat="39.96172896533943" lon="9.657250328455135"><ele>10.0</ele><time>2026-03-28T14:06:38Z</time></trkpt><trkpt lat="39.96153945105671" lon="9.657173168384853"><ele>9.333333333333334</ele><time>2026-03-28T14:06:39Z</time></trkpt><trkpt lat="39.96134672687721" lon="9.657081967905674"><ele>8.666666666666666</ele><time>2026-03-28T14:06:40Z</time></trkpt><trkpt lat="39.96115319386637" lon="9.656976387910492"><ele>8.0</ele><time>2026-03-28T14:06:41Z</time></trkpt><trkpt lat="39.960972355408664" lon="9.656861778755731"><ele>8.333333333333332</ele><time>2026-03-28T14:06:42Z</time></trkpt><trkpt lat="39.96079270521799" lon="9.65673835002328"><ele>8.666666666666666</ele><time>2026-03-28T14:06:43Z</time></trkpt><trkpt lat="39.960606081511145" lon="9.656612164871108"><ele>9.0</ele><time>2026-03-28T14:06:44Z</time></trkpt><trkpt lat="39.96041812592355" lon="9.656485424986986"><ele>9.0</ele><time>2026-03-28T14:06:45Z</time></trkpt><trkpt lat="39.96022911567083" lon="9.65635592673749"><ele>9.0</ele><time>2026-03-28T14:06:46Z</time></trkpt><trkpt lat="39.96004166624584" lon="9.656224883167356"><ele>9.0</ele><time>2026-03-28T14:06:47Z</time></trkpt><trkpt lat="39.95985546063664" lon="9.656093997925291"><ele>9.0</ele><time>2026-03-28T14:06:48Z</time></trkpt><trkpt lat="39.95967034877871" lon="9.655964133463609"><ele>9.0</ele><time>2026-03-28T14:06:49Z</time></trkpt><trkpt lat="39.95948884354993" lon="9.65583430935424"><ele>9.0</ele><time>2026-03-28T14:06:50Z</time></trkpt><trkpt lat="39.959309235823575" lon="9.655705220194417"><ele>8.0</ele><time>2026-03-28T14:06:51Z</time></trkpt><trkpt lat="39.95905063175408" lon="9.655545651068502"><ele>7.0</ele><time>2026-03-28T14:06:52Z</time></trkpt><trkpt lat="39.95885391198341" lon="9.655410513855754"><ele>6.666666666666667</ele><time>2026-03-28T14:06:53Z</time></trkpt><trkpt lat="39.958656711752596" lon="9.655277557097813"><ele>6.333333333333334</ele><time>2026-03-28T14:06:54Z</time></trkpt><trkpt lat="39.95846105847696" lon="9.655144375296704"><ele>6.0</ele><time>2026-03-28T14:06:55Z</time></trkpt><trkpt lat="39.95826623459333" lon="9.655012233464836"><ele>6.666666666666666</ele><time>2026-03-28T14:06:56Z</time></trkpt><trkpt lat="39.95807714219555" lon="9.65488295577147"><ele>7.333333333333333</ele><time>2026-03-28T14:06:57Z</time></trkpt><trkpt lat="39.95789231172531" lon="9.654752657835044"><ele>8.0</ele><time>2026-03-28T14:06:58Z</time></trkpt><trkpt lat="39.95770957937872" lon="9.654625347075955"><ele>8.0</ele><time>2026-03-28T14:06:59Z</time></trkpt><trkpt lat="39.95752626475177" lon="9.654501633796233"><ele>8.0</ele><time>2026-03-28T14:07:00Z</time></trkpt><trkpt lat="39.95734325272965" lon="9.654377029466465"><ele>8.0</ele><time>2026-03-28T14:07:01Z</time></trkpt><trkpt lat="39.9571593152332" lon="9.654253939837922"><ele>8.0</ele><time>2026-03-28T14:07:02Z</time></trkpt><trkpt lat="39.95697928067578" lon="9.654128226095933"><ele>8.0</ele><time>2026-03-28T14:07:03Z</time></trkpt><trkpt lat="39.95680072936231" lon="9.654004783871905"><ele>8.0</ele><time>2026-03-28T14:07:04Z</time></trkpt><trkpt lat="39.95662163205594" lon="9.653877779966058"><ele>8.0</ele><time>2026-03-28T14:07:05Z</time></trkpt><trkpt lat="39.95644137730798" lon="9.653750792815563"><ele>8.0</ele><time>2026-03-28T14:07:06Z</time></trkpt><trkpt lat="39.956260424813486" lon="9.653628580308165"><ele>8.0</ele><time>2026-03-28T14:07:07Z</time></trkpt><trkpt lat="39.95607725319793" lon="9.65350785682467"><ele>7.666666666666666</ele><time>2026-03-28T14:07:08Z</time></trkpt><trkpt lat="39.955895073664614" lon="9.65338335909426"><ele>7.333333333333334</ele><time>2026-03-28T14:07:09Z</time></trkpt><trkpt lat="39.955713365184145" lon="9.653258049083728"><ele>7.0</ele><time>2026-03-28T14:07:10Z</time></trkpt><trkpt lat="39.95553322497116" lon="9.65313018278464"><ele>7.0</ele><time>2026-03-28T14:07:11Z</time></trkpt><trkpt lat="39.95535325771816" lon="9.653001689569608"><ele>7.0</ele><time>2026-03-28T14:07:12Z</time></trkpt><trkpt lat="39.95517456135885" lon="9.652872909250949"><ele>7.0</ele><time>2026-03-28T14:07:13Z</time></trkpt><trkpt lat="39.9549950097973" lon="9.652748148650959"><ele>7.666666666666667</ele><time>2026-03-28T14:07:14Z</time></trkpt><trkpt lat="39.954810771559124" lon="9.652625063466958"><ele>8.333333333333334</ele><time>2026-03-28T14:07:15Z</time></trkpt><trkpt lat="39.95462697694439" lon="9.652501107529568"><ele>9.0</ele><time>2026-03-28T14:07:16Z</time></trkpt><trkpt lat="39.954443795443964" lon="9.65237422521717"><ele>9.0</ele><time>2026-03-28T14:07:17Z</time></trkpt><trkpt lat="39.9542627884197" lon="9.652250088416624"><ele>9.0</ele><time>2026-03-28T14:07:18Z</time></trkpt><trkpt lat="39.954082424273864" lon="9.652126947969842"><ele>9.0</ele><time>2026-03-28T14:07:19Z</time></trkpt><trkpt lat="39.953901474856835" lon="9.65200361380771"><ele>9.0</ele><time>2026-03-28T14:07:20Z</time></trkpt><trkpt lat="39.95372134352827" lon="9.6518803448536"><ele>9.0</ele><time>2026-03-28T14:07:21Z</time></trkpt><trkpt lat="39.95354143396787" lon="9.651757988400135"><ele>9.0</ele><time>2026-03-28T14:07:22Z</time></trkpt><trkpt lat="39.95336155575185" lon="9.651634749113484"><ele>11.0</ele><time>2026-03-28T14:07:23Z</time></trkpt><trkpt lat="39.95318326734217" lon="9.651512209265078"><ele>13.0</ele><time>2026-03-28T14:07:24Z</time></trkpt><trkpt lat="39.95300469026643" lon="9.651390065660301"><ele>15.0</ele><time>2026-03-28T14:07:25Z</time></trkpt><trkpt lat="39.952826185906076" lon="9.651266130427844"><ele>15.0</ele><time>2026-03-28T14:07:26Z</time></trkpt><trkpt lat="39.95264680779223" lon="9.651140828843074"><ele>15.0</ele><time>2026-03-28T14:07:27Z</time></trkpt><trkpt lat="39.952466659290785" lon="9.651015355410344"><ele>15.0</ele><time>2026-03-28T14:07:28Z</time></trkpt><trkpt lat="39.95228373676452" lon="9.650887572009117"><ele>15.0</ele><time>2026-03-28T14:07:29Z</time></trkpt><trkpt lat="39.95210240759464" lon="9.650759271220885"><ele>15.0</ele><time>2026-03-28T14:07:30Z</time></trkpt><trkpt lat="39.95191770550102" lon="9.650629195586129"><ele>15.0</ele><time>2026-03-28T14:07:31Z</time></trkpt><trkpt lat="39.95173100495064" lon="9.650500757285277"><ele>16.0</ele><time>2026-03-28T14:07:32Z</time></trkpt><trkpt lat="39.95154309838475" lon="9.650377304486867"><ele>17.0</ele><time>2026-03-28T14:07:33Z</time></trkpt><trkpt lat="39.95135314544052" lon="9.650252911723529"><ele>18.0</ele><time>2026-03-28T14:07:34Z</time></trkpt><trkpt lat="39.95116910455832" lon="9.650128059059137"><ele>18.0</ele><time>2026-03-28T14:07:35Z</time></trkpt><trkpt lat="39.95098221414713" lon="9.650004638579729"><ele>18.0</ele><time>2026-03-28T14:07:36Z</time></trkpt><trkpt lat="39.95079893316941" lon="9.64987944266556"><ele>18.0</ele><time>2026-03-28T14:07:37Z</time></trkpt><trkpt lat="39.95061548224381" lon="9.649757068317243"><ele>18.333333333333332</ele><time>2026-03-28T14:07:38Z</time></trkpt><trkpt lat="39.95043596041039" lon="9.649627707470605"><ele>18.666666666666664</ele><time>2026-03-28T14:07:39Z</time></trkpt><trkpt lat="39.950255446591214" lon="9.649501246808551"><ele>19.0</ele><time>2026-03-28T14:07:40Z</time></trkpt><trkpt lat="39.95007142873829" lon="9.649381463418635"><ele>19.666666666666664</ele><time>2026-03-28T14:07:41Z</time></trkpt><trkpt lat="39.94988353607651" lon="9.649272682335583"><ele>20.333333333333332</ele><time>2026-03-28T14:07:42Z</time></trkpt><trkpt lat="39.9496899503134" lon="9.649170853220726"><ele>21.0</ele><time>2026-03-28T14:07:43Z</time></trkpt><trkpt lat="39.9494970132404" lon="9.649082362173935"><ele>21.0</ele><time>2026-03-28T14:07:44Z</time></trkpt><trkpt lat="39.949301742987856" lon="9.648999725646718"><ele>21.0</ele><time>2026-03-28T14:07:45Z</time></trkpt><trkpt lat="39.9491048976254" lon="9.648926383194228"><ele>21.0</ele><time>2026-03-28T14:07:46Z</time></trkpt><trkpt lat="39.94890455613256" lon="9.648862220334443"><ele>21.0</ele><time>2026-03-28T14:07:47Z</time></trkpt><trkpt lat="39.94870161068324" lon="9.648810355519707"><ele>21.0</ele><time>2026-03-28T14:07:48Z</time></trkpt><trkpt lat="39.948494173740734" lon="9.648767944663751"><ele>21.0</ele><time>2026-03-28T14:07:49Z</time></trkpt><trkpt lat="39.94828541398328" lon="9.64873568398335"><ele>21.0</ele><time>2026-03-28T14:07:50Z</time></trkpt><trkpt lat="39.94807473839317" lon="9.648706440605974"><ele>21.0</ele><time>2026-03-28T14:07:51Z</time></trkpt><trkpt lat="39.94785877260731" lon="9.648678499403287"><ele>21.0</ele><time>2026-03-28T14:07:52Z</time></trkpt><trkpt lat="39.947645342968634" lon="9.648646389955616"><ele>22.0</ele><time>2026-03-28T14:07:53Z</time></trkpt><trkpt lat="39.94742893429267" lon="9.648613434759184"><ele>23.0</ele><time>2026-03-28T14:07:54Z</time></trkpt><trkpt lat="39.94721960959294" lon="9.64858697106118"><ele>24.0</ele><time>2026-03-28T14:07:55Z</time></trkpt><trkpt lat="39.947003002746285" lon="9.648554006137534"><ele>24.0</ele><time>2026-03-28T14:07:56Z</time></trkpt><trkpt lat="39.946788173926635" lon="9.648520826841759"><ele>24.0</ele><time>2026-03-28T14:07:57Z</time></trkpt><trkpt lat="39.946578814605395" lon="9.648492638382095"><ele>24.0</ele><time>2026-03-28T14:07:58Z</time></trkpt><trkpt lat="39.946368403792505" lon="9.648465360922494"><ele>22.666666666666668</ele><time>2026-03-28T14:07:59Z</time></trkpt><trkpt lat="39.946158622801114" lon="9.648435367483057"><ele>21.333333333333336</ele><time>2026-03-28T14:08:00Z</time></trkpt><trkpt lat="39.94594842359095" lon="9.648410201736464"><ele>20.0</ele><time>2026-03-28T14:08:01Z</time></trkpt><trkpt lat="39.945739862684874" lon="9.648384692113313"><ele>19.333333333333336</ele><time>2026-03-28T14:08:02Z</time></trkpt><trkpt lat="39.94553045550191" lon="9.648352602187288"><ele>18.666666666666668</ele><time>2026-03-28T14:08:03Z</time></trkpt><trkpt lat="39.945323884215334" lon="9.648314637412813"><ele>18.0</ele><time>2026-03-28T14:08:04Z</time></trkpt><trkpt lat="39.94511563992434" lon="9.648278355937594"><ele>18.666666666666668</ele><time>2026-03-28T14:08:05Z</time></trkpt><trkpt lat="39.944906756725395" lon="9.648246318111587"><ele>19.333333333333336</ele><time>2026-03-28T14:08:06Z</time></trkpt><trkpt lat="39.944697243933305" lon="9.64821635891947"><ele>20.0</ele><time>2026-03-28T14:08:07Z</time></trkpt><trkpt lat="39.94448563840328" lon="9.648188303867096"><ele>20.0</ele><time>2026-03-28T14:08:08Z</time></trkpt><trkpt lat="39.94427471818056" lon="9.6481601764721"><ele>20.0</ele><time>2026-03-28T14:08:09Z</time></trkpt><trkpt lat="39.94406203305255" lon="9.648131941514082"><ele>20.0</ele><time>2026-03-28T14:08:10Z</time></trkpt><trkpt lat="39.943845928870125" lon="9.648105281371024"><ele>20.333333333333336</ele><time>2026-03-28T14:08:11Z</time></trkpt><trkpt lat="39.94363162295465" lon="9.648076548244635"><ele>20.666666666666668</ele><time>2026-03-28T14:08:12Z</time></trkpt><trkpt lat="39.94341886023139" lon="9.64804721108535"><ele>21.0</ele><time>2026-03-28T14:08:13Z</time></trkpt><trkpt lat="39.94320623944799" lon="9.648020350310166"><ele>22.0</ele><time>2026-03-28T14:08:14Z</time></trkpt><trkpt lat="39.942993699872375" lon="9.647994794080736"><ele>23.0</ele><time>2026-03-28T14:08:15Z</time></trkpt><trkpt lat="39.94278227572684" lon="9.647967501658746"><ele>24.0</ele><time>2026-03-28T14:08:16Z</time></trkpt><trkpt lat="39.942572517553316" lon="9.647935714092359"><ele>24.0</ele><time>2026-03-28T14:08:17Z</time></trkpt><trkpt lat="39.942360481922414" lon="9.647902160905142"><ele>24.0</ele><time>2026-03-28T14:08:18Z</time></trkpt><trkpt lat="39.942149302505385" lon="9.647871117029172"><ele>24.0</ele><time>2026-03-28T14:08:19Z</time></trkpt><trkpt lat="39.9419383982838" lon="9.647839776803146"><ele>24.0</ele><time>2026-03-28T14:08:20Z</time></trkpt><trkpt lat="39.94172948188665" lon="9.647807320517394"><ele>24.0</ele><time>2026-03-28T14:08:21Z</time></trkpt><trkpt lat="39.941517374446484" lon="9.647774476259531"><ele>24.0</ele><time>2026-03-28T14:08:22Z</time></trkpt><trkpt lat="39.94130604442131" lon="9.647743827354367"><ele>24.333333333333336</ele><time>2026-03-28T14:08:23Z</time></trkpt><trkpt lat="39.94109636476335" lon="9.64771352497206"><ele>24.666666666666668</ele><time>2026-03-28T14:08:24Z</time></trkpt><trkpt lat="39.94088572762287" lon="9.647682780027338"><ele>25.0</ele><time>2026-03-28T14:08:25Z</time></trkpt><trkpt lat="39.94067486309949" lon="9.647653060988095"><ele>25.333333333333336</ele><time>2026-03-28T14:08:26Z</time></trkpt><trkpt lat="39.9404632745842" lon="9.647625536030898"><ele>25.666666666666664</ele><time>2026-03-28T14:08:27Z</time></trkpt><trkpt lat="39.940252511277116" lon="9.647597532148005"><ele>26.0</ele><time>2026-03-28T14:08:28Z</time></trkpt><trkpt lat="39.94004350420957" lon="9.647569521530293"><ele>26.666666666666664</ele><time>2026-03-28T14:08:29Z</time></trkpt><trkpt lat="39.93983523020065" lon="9.647541774117165"><ele>27.333333333333336</ele><time>2026-03-28T14:08:30Z</time></trkpt><trkpt lat="39.939627256318275" lon="9.647513095801221"><ele>28.0</ele><time>2026-03-28T14:08:31Z</time></trkpt><trkpt lat="39.93941978571028" lon="9.647484738032277"><ele>27.333333333333336</ele><time>2026-03-28T14:08:32Z</time></trkpt><trkpt lat="39.93921258735886" lon="9.647453850418163"><ele>26.666666666666664</ele><time>2026-03-28T14:08:33Z</time></trkpt><trkpt lat="39.939006881217736" lon="9.64742258462998"><ele>26.0</ele><time>2026-03-28T14:08:34Z</time></trkpt><trkpt lat="39.93879974833821" lon="9.647391657276229"><ele>26.0</ele><time>2026-03-28T14:08:35Z</time></trkpt><trkpt lat="39.93859284712434" lon="9.647361857334168"><ele>26.0</ele><time>2026-03-28T14:08:36Z</time></trkpt><trkpt lat="39.938384213848934" lon="9.647333231094418"><ele>26.0</ele><time>2026-03-28T14:08:37Z</time></trkpt><trkpt lat="39.93817752768645" lon="9.647307091115403"><ele>26.0</ele><time>2026-03-28T14:08:38Z</time></trkpt><trkpt lat="39.93796993632705" lon="9.647281086930256"><ele>26.0</ele><time>2026-03-28T14:08:39Z</time></trkpt><trkpt lat="39.937764267493826" lon="9.647251737498209"><ele>26.0</ele><time>2026-03-28T14:08:40Z</time></trkpt><trkpt lat="39.93755833111967" lon="9.647221321023384"><ele>25.666666666666664</ele><time>2026-03-28T14:08:41Z</time></trkpt><trkpt lat="39.937353856848" lon="9.647190459188229"><ele>25.333333333333336</ele><time>2026-03-28T14:08:42Z</time></trkpt><trkpt lat="39.93715064024629" lon="9.647158495187695"><ele>25.0</ele><time>2026-03-28T14:08:43Z</time></trkpt><trkpt lat="39.93694503222556" lon="9.647124849174833"><ele>25.0</ele><time>2026-03-28T14:08:44Z</time></trkpt><trkpt lat="39.93674128052741" lon="9.647092631384306"><ele>25.0</ele><time>2026-03-28T14:08:45Z</time></trkpt><trkpt lat="39.93653710423668" lon="9.64706337490768"><ele>25.0</ele><time>2026-03-28T14:08:46Z</time></trkpt><trkpt lat="39.936332808880344" lon="9.64703481789221"><ele>25.0</ele><time>2026-03-28T14:08:47Z</time></trkpt><trkpt lat="39.93613048166722" lon="9.647010369176702"><ele>25.0</ele><time>2026-03-28T14:08:48Z</time></trkpt><trkpt lat="39.93592510065655" lon="9.646989731327901"><ele>25.0</ele><time>2026-03-28T14:08:49Z</time></trkpt><trkpt lat="39.93572183260313" lon="9.646969853888496"><ele>26.666666666666668</ele><time>2026-03-28T14:08:50Z</time></trkpt><trkpt lat="39.935517193299205" lon="9.646943333862884"><ele>28.333333333333336</ele><time>2026-03-28T14:08:51Z</time></trkpt><trkpt lat="39.935315151754274" lon="9.646911830816677"><ele>30.0</ele><time>2026-03-28T14:08:52Z</time></trkpt><trkpt lat="39.93511069701034" lon="9.646880106329197"><ele>29.666666666666664</ele><time>2026-03-28T14:08:53Z</time></trkpt><trkpt lat="39.934904961756146" lon="9.646848227742941"><ele>29.333333333333332</ele><time>2026-03-28T14:08:54Z</time></trkpt><trkpt lat="39.93469814528317" lon="9.646815943751836"><ele>29.0</ele><time>2026-03-28T14:08:55Z</time></trkpt><trkpt lat="39.934488504791105" lon="9.646786903920383"><ele>29.0</ele><time>2026-03-28T14:08:56Z</time></trkpt><trkpt lat="39.934278579942145" lon="9.646762770011891"><ele>29.0</ele><time>2026-03-28T14:08:57Z</time></trkpt><trkpt lat="39.93406500098972" lon="9.646735534371176"><ele>29.0</ele><time>2026-03-28T14:08:58Z</time></trkpt><trkpt lat="39.933855496336555" lon="9.646703893965185"><ele>28.666666666666664</ele><time>2026-03-28T14:08:59Z</time></trkpt><trkpt lat="39.933642691960685" lon="9.646671929625303"><ele>28.333333333333336</ele><time>2026-03-28T14:09:00Z</time></trkpt><trkpt lat="39.93342721274316" lon="9.64664073040356"><ele>28.0</ele><time>2026-03-28T14:09:01Z</time></trkpt><trkpt lat="39.93321350998254" lon="9.646610915445734"><ele>27.666666666666668</ele><time>2026-03-28T14:09:02Z</time></trkpt><trkpt lat="39.93299585965458" lon="9.646581746428547"><ele>27.333333333333336</ele><time>2026-03-28T14:09:03Z</time></trkpt><trkpt lat="39.93277712292373" lon="9.646552798636222"><ele>27.0</ele><time>2026-03-28T14:09:04Z</time></trkpt><trkpt lat="39.93255830805646" lon="9.646522390596184"><ele>27.0</ele><time>2026-03-28T14:09:05Z</time></trkpt><trkpt lat="39.932340348042274" lon="9.646490107768779"><ele>27.0</ele><time>2026-03-28T14:09:06Z</time></trkpt><trkpt lat="39.93212192168059" lon="9.646456115043028"><ele>27.0</ele><time>2026-03-28T14:09:07Z</time></trkpt><trkpt lat="39.93190008143485" lon="9.646426663286057"><ele>28.0</ele><time>2026-03-28T14:09:08Z</time></trkpt><trkpt lat="39.931684479076345" lon="9.646399174920392"><ele>29.0</ele><time>2026-03-28T14:09:09Z</time></trkpt><trkpt lat="39.931465139062446" lon="9.646374101519038"><ele>30.0</ele><time>2026-03-28T14:09:10Z</time></trkpt><trkpt lat="39.93124573159728" lon="9.646344896393908"><ele>30.0</ele><time>2026-03-28T14:09:11Z</time></trkpt><trkpt lat="39.93102688068677" lon="9.646313949751706"><ele>30.0</ele><time>2026-03-28T14:09:12Z</time></trkpt><trkpt lat="39.9308116334921" lon="9.646278166375494"><ele>30.0</ele><time>2026-03-28T14:09:13Z</time></trkpt><trkpt lat="39.93059518387088" lon="9.646240586041438"><ele>30.0</ele><time>2026-03-28T14:09:14Z</time></trkpt><trkpt lat="39.930380136748276" lon="9.64620337123609"><ele>30.0</ele><time>2026-03-28T14:09:15Z</time></trkpt><trkpt lat="39.9301624776007" lon="9.646174828527514"><ele>30.0</ele><time>2026-03-28T14:09:16Z</time></trkpt><trkpt lat="39.9299451474302" lon="9.646158476254154"><ele>30.666666666666664</ele><time>2026-03-28T14:09:17Z</time></trkpt><trkpt lat="39.92972644802147" lon="9.646153379257953"><ele>31.333333333333332</ele><time>2026-03-28T14:09:18Z</time></trkpt><trkpt lat="39.92950704439559" lon="9.64615783310446"><ele>32.0</ele><time>2026-03-28T14:09:19Z</time></trkpt><trkpt lat="39.92928745490635" lon="9.64616921202236"><ele>31.0</ele><time>2026-03-28T14:09:20Z</time></trkpt><trkpt lat="39.9290667171138" lon="9.646188918488752"><ele>30.0</ele><time>2026-03-28T14:09:21Z</time></trkpt><trkpt lat="39.92884662318212" lon="9.64621564597403"><ele>29.0</ele><time>2026-03-28T14:09:22Z</time></trkpt><trkpt lat="39.92862642915584" lon="9.646256579537463"><ele>29.0</ele><time>2026-03-28T14:09:23Z</time></trkpt><trkpt lat="39.92841040158982" lon="9.64631321054567"><ele>29.0</ele><time>2026-03-28T14:09:24Z</time></trkpt><trkpt lat="39.928192296759185" lon="9.64638239989362"><ele>29.0</ele><time>2026-03-28T14:09:25Z</time></trkpt><trkpt lat="39.92797878787062" lon="9.646458029587281"><ele>28.666666666666664</ele><time>2026-03-28T14:09:26Z</time></trkpt><trkpt lat="39.927766290891036" lon="9.646526226557123"><ele>28.333333333333336</ele><time>2026-03-28T14:09:27Z</time></trkpt><trkpt lat="39.927556666629165" lon="9.646591460216047"><ele>28.0</ele><time>2026-03-28T14:09:28Z</time></trkpt><trkpt lat="39.92734415530523" lon="9.646654925222869"><ele>28.0</ele><time>2026-03-28T14:09:29Z</time></trkpt><trkpt lat="39.92713593869696" lon="9.646716723641028"><ele>28.0</ele><time>2026-03-28T14:09:30Z</time></trkpt><trkpt lat="39.926927241089835" lon="9.646785630132374"><ele>28.0</ele><time>2026-03-28T14:09:31Z</time></trkpt><trkpt lat="39.92671943348476" lon="9.646852672059149"><ele>27.666666666666668</ele><time>2026-03-28T14:09:32Z</time></trkpt><trkpt lat="39.92651113973131" lon="9.646921008756081"><ele>27.333333333333336</ele><time>2026-03-28T14:09:33Z</time></trkpt><trkpt lat="39.92629999454727" lon="9.646994401046417"><ele>27.0</ele><time>2026-03-28T14:09:34Z</time></trkpt><trkpt lat="39.92608797665379" lon="9.6470715981895"><ele>26.0</ele><time>2026-03-28T14:09:35Z</time></trkpt><trkpt lat="39.92587522623854" lon="9.647152679341083"><ele>25.0</ele><time>2026-03-28T14:09:36Z</time></trkpt><trkpt lat="39.925660467138876" lon="9.64723960354308"><ele>24.0</ele><time>2026-03-28T14:09:37Z</time></trkpt><trkpt lat="39.92544357272025" lon="9.64733386689089"><ele>24.0</ele><time>2026-03-28T14:09:38Z</time></trkpt><trkpt lat="39.925286729153264" lon="9.647304211220245"><ele>24.0</ele><time>2026-03-28T14:09:39Z</time></trkpt><trkpt lat="39.925083878874155" lon="9.647371727878236"><ele>24.0</ele><time>2026-03-28T14:09:40Z</time></trkpt><trkpt lat="39.92488158081207" lon="9.647437699172253"><ele>24.0</ele><time>2026-03-28T14:09:41Z</time></trkpt><trkpt lat="39.924677218742566" lon="9.647503408320745"><ele>24.0</ele><time>2026-03-28T14:09:42Z</time></trkpt><trkpt lat="39.92447098815104" lon="9.647567154502536"><ele>24.0</ele><time>2026-03-28T14:09:43Z</time></trkpt><trkpt lat="39.924268078435205" lon="9.647630273325452"><ele>23.0</ele><time>2026-03-28T14:09:44Z</time></trkpt><trkpt lat="39.92405874006413" lon="9.647700786769061"><ele>22.0</ele><time>2026-03-28T14:09:45Z</time></trkpt><trkpt lat="39.923852628772295" lon="9.647771459794436"><ele>21.0</ele><time>2026-03-28T14:09:46Z</time></trkpt><trkpt lat="39.92364364253367" lon="9.647848078463351"><ele>20.666666666666668</ele><time>2026-03-28T14:09:47Z</time></trkpt><trkpt lat="39.923427054455374" lon="9.647920552039354"><ele>20.333333333333336</ele><time>2026-03-28T14:09:48Z</time></trkpt><trkpt lat="39.92320686801524" lon="9.647979146739173"><ele>20.0</ele><time>2026-03-28T14:09:49Z</time></trkpt><trkpt lat="39.92299005887374" lon="9.648042161098624"><ele>19.666666666666668</ele><time>2026-03-28T14:09:50Z</time></trkpt><trkpt lat="39.92277395794141" lon="9.64810872419911"><ele>19.333333333333332</ele><time>2026-03-28T14:09:51Z</time></trkpt><trkpt lat="39.92255631756449" lon="9.648173788177619"><ele>19.0</ele><time>2026-03-28T14:09:52Z</time></trkpt><trkpt lat="39.9223387620577" lon="9.64823752344005"><ele>19.0</ele><time>2026-03-28T14:09:53Z</time></trkpt><trkpt lat="39.92211994496371" lon="9.648305631782568"><ele>19.0</ele><time>2026-03-28T14:09:54Z</time></trkpt><trkpt lat="39.92190471246088" lon="9.648376349274383"><ele>19.0</ele><time>2026-03-28T14:09:55Z</time></trkpt><trkpt lat="39.92168986814522" lon="9.648450588625291"><ele>19.0</ele><time>2026-03-28T14:09:56Z</time></trkpt><trkpt lat="39.92147709740004" lon="9.648526484885789"><ele>19.0</ele><time>2026-03-28T14:09:57Z</time></trkpt><trkpt lat="39.92126622083829" lon="9.648595551106848"><ele>19.0</ele><time>2026-03-28T14:09:58Z</time></trkpt><trkpt lat="39.92105938848663" lon="9.648660818790068"><ele>19.0</ele><time>2026-03-28T14:09:59Z</time></trkpt><trkpt lat="39.92085829604972" lon="9.648720067038338"><ele>19.0</ele><time>2026-03-28T14:10:00Z</time></trkpt><trkpt lat="39.920658243948004" lon="9.648785762614713"><ele>19.0</ele><time>2026-03-28T14:10:01Z</time></trkpt><trkpt lat="39.92046399506258" lon="9.648851733921546"><ele>19.0</ele><time>2026-03-28T14:10:02Z</time></trkpt><trkpt lat="39.92026626911094" lon="9.648919377602112"><ele>19.0</ele><time>2026-03-28T14:10:03Z</time></trkpt><trkpt lat="39.92006826377499" lon="9.64898600718323"><ele>19.0</ele><time>2026-03-28T14:10:04Z</time></trkpt><trkpt lat="39.919863912112035" lon="9.649041866813075"><ele>18.666666666666664</ele><time>2026-03-28T14:10:05Z</time></trkpt><trkpt lat="39.91966273962884" lon="9.649098073930965"><ele>18.333333333333332</ele><time>2026-03-28T14:10:06Z</time></trkpt><trkpt lat="39.91946070191561" lon="9.6491572053187"><ele>18.0</ele><time>2026-03-28T14:10:07Z</time></trkpt><trkpt lat="39.91925598951802" lon="9.649221381849182"><ele>19.333333333333332</ele><time>2026-03-28T14:10:08Z</time></trkpt><trkpt lat="39.919050840210424" lon="9.649290255851998"><ele>20.666666666666664</ele><time>2026-03-28T14:10:09Z</time></trkpt><trkpt lat="39.91884452140909" lon="9.649357583041962"><ele>22.0</ele><time>2026-03-28T14:10:10Z</time></trkpt><trkpt lat="39.9186393629155" lon="9.64942508691116"><ele>21.333333333333332</ele><time>2026-03-28T14:10:11Z</time></trkpt><trkpt lat="39.91843905462764" lon="9.649489204263055"><ele>20.666666666666668</ele><time>2026-03-28T14:10:12Z</time></trkpt><trkpt lat="39.91824787926026" lon="9.649552327431104"><ele>20.0</ele><time>2026-03-28T14:10:13Z</time></trkpt><trkpt lat="39.9180630783178" lon="9.649618842617313"><ele>20.0</ele><time>2026-03-28T14:10:14Z</time></trkpt><trkpt lat="39.91788120251676" lon="9.649687855116056"><ele>20.0</ele><time>2026-03-28T14:10:15Z</time></trkpt><trkpt lat="39.91769534217571" lon="9.649758819181887"><ele>20.0</ele><time>2026-03-28T14:10:16Z</time></trkpt><trkpt lat="39.917516458014234" lon="9.649828510902545"><ele>19.333333333333336</ele><time>2026-03-28T14:10:17Z</time></trkpt><trkpt lat="39.91735366839879" lon="9.649901576507224"><ele>18.666666666666668</ele><time>2026-03-28T14:10:18Z</time></trkpt><trkpt lat="39.9172103906556" lon="9.649975003730848"><ele>18.0</ele><time>2026-03-28T14:10:19Z</time></trkpt><trkpt lat="39.91707257480452" lon="9.650039022054136"><ele>18.0</ele><time>2026-03-28T14:10:20Z</time></trkpt><trkpt lat="39.91694405373943" lon="9.650089463974474"><ele>18.0</ele><time>2026-03-28T14:10:21Z</time></trkpt><trkpt lat="39.916819901233886" lon="9.650108447373782"><ele>18.0</ele><time>2026-03-28T14:10:22Z</time></trkpt><trkpt lat="39.91670766819324" lon="9.65008493203944"><ele>18.0</ele><time>2026-03-28T14:10:23Z</time></trkpt><trkpt lat="39.91660679439554" lon="9.650043668918096"><ele>18.4</ele><time>2026-03-28T14:10:24Z</time></trkpt><trkpt lat="39.91651009471698" lon="9.650031845118628"><ele>18.8</ele><time>2026-03-28T14:10:25Z</time></trkpt><trkpt lat="39.916416785133435" lon="9.650081246597484"><ele>19.2</ele><time>2026-03-28T14:10:26Z</time></trkpt><trkpt lat="39.916325658888496" lon="9.650169940104586"><ele>19.6</ele><time>2026-03-28T14:10:27Z</time></trkpt><trkpt lat="39.916222467225886" lon="9.650241169229757"><ele>20.0</ele><time>2026-03-28T14:10:28Z</time></trkpt><trkpt lat="39.916111029429814" lon="9.650255676316451"><ele>20.0</ele><time>2026-03-28T14:10:29Z</time></trkpt><trkpt lat="39.9159876004215" lon="9.650237829913427"><ele>20.0</ele><time>2026-03-28T14:10:30Z</time></trkpt><trkpt lat="39.91585246438431" lon="9.650221881446935"><ele>20.0</ele><time>2026-03-28T14:10:31Z</time></trkpt><trkpt lat="39.9157039772366" lon="9.650217272901218"><ele>20.0</ele><time>2026-03-28T14:10:32Z</time></trkpt><trkpt lat="39.91553945918042" lon="9.650225759423478"><ele>20.333333333333336</ele><time>2026-03-28T14:10:33Z</time></trkpt><trkpt lat="39.915356975460575" lon="9.650239703674627"><ele>20.666666666666668</ele><time>2026-03-28T14:10:34Z</time></trkpt><trkpt lat="39.91515791553793" lon="9.650238397711293"><ele>21.0</ele><time>2026-03-28T14:10:35Z</time></trkpt><trkpt lat="39.91494849075058" lon="9.650218242034716"><ele>22.333333333333336</ele><time>2026-03-28T14:10:36Z</time></trkpt><trkpt lat="39.91474614401437" lon="9.650192644803074"><ele>23.666666666666668</ele><time>2026-03-28T14:10:37Z</time></trkpt><trkpt lat="39.914543011573855" lon="9.650171213901459"><ele>25.0</ele><time>2026-03-28T14:10:38Z</time></trkpt><trkpt lat="39.914335825394716" lon="9.650157873783654"><ele>25.0</ele><time>2026-03-28T14:10:39Z</time></trkpt><trkpt lat="39.914126841211754" lon="9.650147064247621"><ele>25.0</ele><time>2026-03-28T14:10:40Z</time></trkpt><trkpt lat="39.91391894906883" lon="9.650139244782537"><ele>25.0</ele><time>2026-03-28T14:10:41Z</time></trkpt><trkpt lat="39.91370905359833" lon="9.650129926470408"><ele>25.0</ele><time>2026-03-28T14:10:42Z</time></trkpt><trkpt lat="39.91349590415668" lon="9.65011736773681"><ele>25.0</ele><time>2026-03-28T14:10:43Z</time></trkpt><trkpt lat="39.913278354203435" lon="9.650099528527432"><ele>25.0</ele><time>2026-03-28T14:10:44Z</time></trkpt><trkpt lat="39.91305792032098" lon="9.650075504815632"><ele>24.333333333333336</ele><time>2026-03-28T14:10:45Z</time></trkpt><trkpt lat="39.912836245720904" lon="9.650047080240077"><ele>23.666666666666668</ele><time>2026-03-28T14:10:46Z</time></trkpt><trkpt lat="39.91261200224237" lon="9.650015590839672"><ele>23.0</ele><time>2026-03-28T14:10:47Z</time></trkpt><trkpt lat="39.91238783801885" lon="9.649982316725577"><ele>22.5</ele><time>2026-03-28T14:10:48Z</time></trkpt><trkpt lat="39.912163126594315" lon="9.649945202199538"><ele>22.0</ele><time>2026-03-28T14:10:49Z</time></trkpt><trkpt lat="39.91194012473066" lon="9.649903654480038"><ele>21.5</ele><time>2026-03-28T14:10:50Z</time></trkpt><trkpt lat="39.91171516377291" lon="9.649857616855446"><ele>21.0</ele><time>2026-03-28T14:10:51Z</time></trkpt><trkpt lat="39.91149212566866" lon="9.649807268391847"><ele>21.0</ele><time>2026-03-28T14:10:52Z</time></trkpt><trkpt lat="39.9112706574804" lon="9.64975496108611"><ele>21.0</ele><time>2026-03-28T14:10:53Z</time></trkpt><trkpt lat="39.91104801850291" lon="9.649705998416332"><ele>21.333333333333332</ele><time>2026-03-28T14:10:54Z</time></trkpt><trkpt lat="39.91082537931719" lon="9.649660459055724"><ele>21.666666666666664</ele><time>2026-03-28T14:10:55Z</time></trkpt><trkpt lat="39.910605389466376" lon="9.649619302560113"><ele>22.0</ele><time>2026-03-28T14:10:56Z</time></trkpt><trkpt lat="39.91039213499621" lon="9.649582545726254"><ele>22.0</ele><time>2026-03-28T14:10:57Z</time></trkpt><trkpt lat="39.91018763277895" lon="9.649549186143753"><ele>22.0</ele><time>2026-03-28T14:10:58Z</time></trkpt><trkpt lat="39.90999078692457" lon="9.649519147797177"><ele>22.0</ele><time>2026-03-28T14:10:59Z</time></trkpt><trkpt lat="39.90979604893198" lon="9.649492132538052"><ele>22.0</ele><time>2026-03-28T14:11:00Z</time></trkpt><trkpt lat="39.90959605642323" lon="9.649468450347419"><ele>22.0</ele><time>2026-03-28T14:11:01Z</time></trkpt><trkpt lat="39.90939329792096" lon="9.649447094580086"><ele>22.0</ele><time>2026-03-28T14:11:02Z</time></trkpt><trkpt lat="39.9091881317711" lon="9.649427967198882"><ele>23.666666666666664</ele><time>2026-03-28T14:11:03Z</time></trkpt><trkpt lat="39.908983220688086" lon="9.649413662404582"><ele>25.333333333333332</ele><time>2026-03-28T14:11:04Z</time></trkpt><trkpt lat="39.90877653013308" lon="9.649401203511635"><ele>27.0</ele><time>2026-03-28T14:11:05Z</time></trkpt><trkpt lat="39.90857715382942" lon="9.649394489625477"><ele>28.333333333333336</ele><time>2026-03-28T14:11:06Z</time></trkpt><trkpt lat="39.90837637392791" lon="9.649388943980009"><ele>29.666666666666668</ele><time>2026-03-28T14:11:07Z</time></trkpt><trkpt lat="39.90817769593755" lon="9.649384050178751"><ele>31.0</ele><time>2026-03-28T14:11:08Z</time></trkpt><trkpt lat="39.90797585723155" lon="9.64937802302915"><ele>31.0</ele><time>2026-03-28T14:11:09Z</time></trkpt><trkpt lat="39.907771793749916" lon="9.649371602551751"><ele>31.0</ele><time>2026-03-28T14:11:10Z</time></trkpt><trkpt lat="39.90756761457949" lon="9.64936115252798"><ele>31.0</ele><time>2026-03-28T14:11:11Z</time></trkpt><trkpt lat="39.90736207932865" lon="9.649353940022776"><ele>31.333333333333336</ele><time>2026-03-28T14:11:12Z</time></trkpt><trkpt lat="39.90715442988226" lon="9.649346224537835"><ele>31.666666666666664</ele><time>2026-03-28T14:11:13Z</time></trkpt><trkpt lat="39.90694528851466" lon="9.649338818003345"><ele>32.0</ele><time>2026-03-28T14:11:14Z</time></trkpt><trkpt lat="39.906734698295494" lon="9.64933010613412"><ele>31.333333333333332</ele><time>2026-03-28T14:11:15Z</time></trkpt><trkpt lat="39.90652173237179" lon="9.649320980216237"><ele>30.666666666666664</ele><time>2026-03-28T14:11:16Z</time></trkpt><trkpt lat="39.906309574067826" lon="9.649311771202049"><ele>30.0</ele><time>2026-03-28T14:11:17Z</time></trkpt><trkpt lat="39.90609203862052" lon="9.64930449864006"><ele>31.0</ele><time>2026-03-28T14:11:18Z</time></trkpt><trkpt lat="39.90587634466697" lon="9.649298810926952"><ele>32.0</ele><time>2026-03-28T14:11:19Z</time></trkpt><trkpt lat="39.90565886677943" lon="9.649293922891982"><ele>33.0</ele><time>2026-03-28T14:11:20Z</time></trkpt><trkpt lat="39.905440940908925" lon="9.64928710093486"><ele>33.0</ele><time>2026-03-28T14:11:21Z</time></trkpt><trkpt lat="39.90522153022971" lon="9.649279210468132"><ele>33.0</ele><time>2026-03-28T14:11:22Z</time></trkpt><trkpt lat="39.90500546113859" lon="9.649266250797158"><ele>33.0</ele><time>2026-03-28T14:11:23Z</time></trkpt><trkpt lat="39.90478442883101" lon="9.64925161415346"><ele>32.666666666666664</ele><time>2026-03-28T14:11:24Z</time></trkpt><trkpt lat="39.904565767000506" lon="9.64923266281056"><ele>32.33333333333333</ele><time>2026-03-28T14:11:25Z</time></trkpt><trkpt lat="39.904346838421866" lon="9.649213994662784"><ele>32.0</ele><time>2026-03-28T14:11:26Z</time></trkpt><trkpt lat="39.904124979817034" lon="9.649193549520842"><ele>32.0</ele><time>2026-03-28T14:11:27Z</time></trkpt><trkpt lat="39.90390356606519" lon="9.649174079757069"><ele>32.0</ele><time>2026-03-28T14:11:28Z</time></trkpt><trkpt lat="39.90367987326735" lon="9.64915309480688"><ele>32.0</ele><time>2026-03-28T14:11:29Z</time></trkpt><trkpt lat="39.903455094589305" lon="9.649134141377653"><ele>32.5</ele><time>2026-03-28T14:11:30Z</time></trkpt><trkpt lat="39.90322581812476" lon="9.649115517684303"><ele>33.0</ele><time>2026-03-28T14:11:31Z</time></trkpt><trkpt lat="39.902996178437455" lon="9.649096171883171"><ele>33.0</ele><time>2026-03-28T14:11:32Z</time></trkpt><trkpt lat="39.90276451020439" lon="9.649074950971018"><ele>33.0</ele><time>2026-03-28T14:11:33Z</time></trkpt><trkpt lat="39.90253648086335" lon="9.649050879093338"><ele>34.0</ele><time>2026-03-28T14:11:34Z</time></trkpt><trkpt lat="39.90230349805428" lon="9.649025718452625"><ele>35.0</ele><time>2026-03-28T14:11:35Z</time></trkpt><trkpt lat="39.90207268438545" lon="9.648998112356887"><ele>35.0</ele><time>2026-03-28T14:11:36Z</time></trkpt><trkpt lat="39.901840790903634" lon="9.64897009118203"><ele>35.0</ele><time>2026-03-28T14:11:37Z</time></trkpt><trkpt lat="39.901606591189264" lon="9.648944958276152"><ele>36.5</ele><time>2026-03-28T14:11:38Z</time></trkpt><trkpt lat="39.90137460156819" lon="9.648920055162042"><ele>38.0</ele><time>2026-03-28T14:11:39Z</time></trkpt><trkpt lat="39.9011420863718" lon="9.648897131746226"><ele>38.5</ele><time>2026-03-28T14:11:40Z</time></trkpt><trkpt lat="39.900910234898404" lon="9.648876903758026"><ele>39.0</ele><time>2026-03-28T14:11:41Z</time></trkpt><trkpt lat="39.90067606255812" lon="9.648856477605017"><ele>39.0</ele><time>2026-03-28T14:11:42Z</time></trkpt><trkpt lat="39.90044533191741" lon="9.648834930529413"><ele>39.0</ele><time>2026-03-28T14:11:43Z</time></trkpt><trkpt lat="39.900212513059444" lon="9.648812318992531"><ele>39.0</ele><time>2026-03-28T14:11:44Z</time></trkpt><trkpt lat="39.89998369096737" lon="9.648789319774176"><ele>39.0</ele><time>2026-03-28T14:11:45Z</time></trkpt><trkpt lat="39.89975421188786" lon="9.648765318536492"><ele>39.0</ele><time>2026-03-28T14:11:46Z</time></trkpt><trkpt lat="39.89952658463634" lon="9.648742105872246"><ele>39.0</ele><time>2026-03-28T14:11:47Z</time></trkpt><trkpt lat="39.89929726211763" lon="9.64872049347606"><ele>40.5</ele><time>2026-03-28T14:11:48Z</time></trkpt><trkpt lat="39.89907122417569" lon="9.648698911680873"><ele>42.0</ele><time>2026-03-28T14:11:49Z</time></trkpt><trkpt lat="39.89884226965466" lon="9.648675378619947"><ele>42.0</ele><time>2026-03-28T14:11:50Z</time></trkpt><trkpt lat="39.89861502096823" lon="9.648649138279628"><ele>42.0</ele><time>2026-03-28T14:11:51Z</time></trkpt><trkpt lat="39.898388648518115" lon="9.648621200440338"><ele>44.5</ele><time>2026-03-28T14:11:52Z</time></trkpt><trkpt lat="39.89816134371725" lon="9.648593706833472"><ele>47.0</ele><time>2026-03-28T14:11:53Z</time></trkpt><trkpt lat="39.89793176623966" lon="9.648567546405866"><ele>47.0</ele><time>2026-03-28T14:11:54Z</time></trkpt><trkpt lat="39.897704460465675" lon="9.648544045714491"><ele>47.0</ele><time>2026-03-28T14:11:55Z</time></trkpt><trkpt lat="39.897473114061896" lon="9.648530356442675"><ele>48.0</ele><time>2026-03-28T14:11:56Z</time></trkpt><trkpt lat="39.8972423879743" lon="9.648525396505457"><ele>49.0</ele><time>2026-03-28T14:11:57Z</time></trkpt><trkpt lat="39.897009184483764" lon="9.648526979611058"><ele>49.0</ele><time>2026-03-28T14:11:58Z</time></trkpt><trkpt lat="39.89677737043014" lon="9.648532645310032"><ele>49.0</ele><time>2026-03-28T14:11:59Z</time></trkpt><trkpt lat="39.89654286467656" lon="9.648544361469597"><ele>51.0</ele><time>2026-03-28T14:12:00Z</time></trkpt><trkpt lat="39.89630665960432" lon="9.648564842105934"><ele>53.0</ele><time>2026-03-28T14:12:01Z</time></trkpt><trkpt lat="39.89607157513731" lon="9.648599544186606"><ele>51.5</ele><time>2026-03-28T14:12:02Z</time></trkpt><trkpt lat="39.89583770414641" lon="9.648654473499843"><ele>50.0</ele><time>2026-03-28T14:12:03Z</time></trkpt><trkpt lat="39.895601039009996" lon="9.648725622155828"><ele>50.0</ele><time>2026-03-28T14:12:04Z</time></trkpt><trkpt lat="39.895368170853864" lon="9.648803030871559"><ele>50.0</ele><time>2026-03-28T14:12:05Z</time></trkpt><trkpt lat="39.8951339257202" lon="9.648884697194282"><ele>49.5</ele><time>2026-03-28T14:12:06Z</time></trkpt><trkpt lat="39.89490112746269" lon="9.648967722421059"><ele>49.0</ele><time>2026-03-28T14:12:07Z</time></trkpt><trkpt lat="39.89466596917313" lon="9.64905192700398"><ele>49.0</ele><time>2026-03-28T14:12:08Z</time></trkpt><trkpt lat="39.894433718112836" lon="9.64913793810822"><ele>49.0</ele><time>2026-03-28T14:12:09Z</time></trkpt><trkpt lat="39.89420179545084" lon="9.64922811896223"><ele>50.5</ele><time>2026-03-28T14:12:10Z</time></trkpt><trkpt lat="39.89397205099585" lon="9.64931845306459"><ele>52.0</ele><time>2026-03-28T14:12:11Z</time></trkpt><trkpt lat="39.893743704369754" lon="9.649408838351963"><ele>48.5</ele><time>2026-03-28T14:12:12Z</time></trkpt><trkpt lat="39.89351490353516" lon="9.64950228456736"><ele>45.0</ele><time>2026-03-28T14:12:13Z</time></trkpt><trkpt lat="39.89328875048954" lon="9.649592285663891"><ele>44.5</ele><time>2026-03-28T14:12:14Z</time></trkpt><trkpt lat="39.89305943712369" lon="9.649683652472165"><ele>44.0</ele><time>2026-03-28T14:12:15Z</time></trkpt><trkpt lat="39.892831823897005" lon="9.649772400843213"><ele>44.0</ele><time>2026-03-28T14:12:16Z</time></trkpt><trkpt lat="39.89260374112309" lon="9.649859955872824"><ele>44.0</ele><time>2026-03-28T14:12:17Z</time></trkpt><trkpt lat="39.892377159388296" lon="9.649944109477314"><ele>44.0</ele><time>2026-03-28T14:12:18Z</time></trkpt><trkpt lat="39.89214812502807" lon="9.65002615476496"><ele>44.0</ele><time>2026-03-28T14:12:19Z</time></trkpt><trkpt lat="39.89191788474971" lon="9.650108706981642"><ele>47.0</ele><time>2026-03-28T14:12:20Z</time></trkpt><trkpt lat="39.89168433146163" lon="9.650186582581231"><ele>50.0</ele><time>2026-03-28T14:12:21Z</time></trkpt><trkpt lat="39.89145381480832" lon="9.650258343164912"><ele>45.5</ele><time>2026-03-28T14:12:22Z</time></trkpt><trkpt lat="39.89121802770384" lon="9.650323704051951"><ele>41.0</ele><time>2026-03-28T14:12:23Z</time></trkpt><trkpt lat="39.89098064189818" lon="9.65037904459257"><ele>40.5</ele><time>2026-03-28T14:12:24Z</time></trkpt><trkpt lat="39.890741199044854" lon="9.650424847975769"><ele>40.0</ele><time>2026-03-28T14:12:25Z</time></trkpt><trkpt lat="39.890498318428854" lon="9.650467283741143"><ele>40.0</ele><time>2026-03-28T14:12:26Z</time></trkpt><trkpt lat="39.89025343866625" lon="9.650509090993518"><ele>40.0</ele><time>2026-03-28T14:12:27Z</time></trkpt><trkpt lat="39.890007915383954" lon="9.650549623183444"><ele>38.5</ele><time>2026-03-28T14:12:28Z</time></trkpt><trkpt lat="39.88976482498232" lon="9.650588709661475"><ele>37.0</ele><time>2026-03-28T14:12:29Z</time></trkpt><trkpt lat="39.8895191948883" lon="9.650627196265388"><ele>37.0</ele><time>2026-03-28T14:12:30Z</time></trkpt><trkpt lat="39.889274196688895" lon="9.650662212298577"><ele>37.0</ele><time>2026-03-28T14:12:31Z</time></trkpt><trkpt lat="39.88902643973718" lon="9.650696860853168"><ele>37.0</ele><time>2026-03-28T14:12:32Z</time></trkpt><trkpt lat="39.888782235380624" lon="9.65073279285126"><ele>37.0</ele><time>2026-03-28T14:12:33Z</time></trkpt><trkpt lat="39.888535897773465" lon="9.650769924413979"><ele>36.5</ele><time>2026-03-28T14:12:34Z</time></trkpt><trkpt lat="39.88828975849941" lon="9.65080481603112"><ele>36.0</ele><time>2026-03-28T14:12:35Z</time></trkpt><trkpt lat="39.8880432316237" lon="9.650836334170542"><ele>36.0</ele><time>2026-03-28T14:12:36Z</time></trkpt><trkpt lat="39.88779597384831" lon="9.650869731150364"><ele>36.0</ele><time>2026-03-28T14:12:37Z</time></trkpt><trkpt lat="39.887547836399044" lon="9.65090398725885"><ele>36.0</ele><time>2026-03-28T14:12:38Z</time></trkpt><trkpt lat="39.88730022979785" lon="9.650938397776729"><ele>36.0</ele><time>2026-03-28T14:12:39Z</time></trkpt><trkpt lat="39.88705141249605" lon="9.650974501052962"><ele>36.0</ele><time>2026-03-28T14:12:40Z</time></trkpt><trkpt lat="39.886802780365485" lon="9.651010463036974"><ele>36.0</ele><time>2026-03-28T14:12:41Z</time></trkpt><trkpt lat="39.88655145872772" lon="9.651046046953972"><ele>37.5</ele><time>2026-03-28T14:12:42Z</time></trkpt><trkpt lat="39.88629792815816" lon="9.651076639401293"><ele>39.0</ele><time>2026-03-28T14:12:43Z</time></trkpt><trkpt lat="39.88604386312344" lon="9.651098642908751"><ele>40.0</ele><time>2026-03-28T14:12:44Z</time></trkpt><trkpt lat="39.885789403659366" lon="9.651106147389735"><ele>41.0</ele><time>2026-03-28T14:12:45Z</time></trkpt><trkpt lat="39.88553231855863" lon="9.65109759714102"><ele>41.0</ele><time>2026-03-28T14:12:46Z</time></trkpt><trkpt lat="39.8852788218872" lon="9.651076220519768"><ele>41.0</ele><time>2026-03-28T14:12:47Z</time></trkpt><trkpt lat="39.88502259810001" lon="9.651046277105129"><ele>35.5</ele><time>2026-03-28T14:12:48Z</time></trkpt><trkpt lat="39.88476350860083" lon="9.651009714991103"><ele>30.0</ele><time>2026-03-28T14:12:49Z</time></trkpt><trkpt lat="39.884507865585036" lon="9.650969573368647"><ele>29.0</ele><time>2026-03-28T14:12:50Z</time></trkpt><trkpt lat="39.88425278557346" lon="9.65093238966015"><ele>28.0</ele><time>2026-03-28T14:12:51Z</time></trkpt><trkpt lat="39.8839962820761" lon="9.65089876322978"><ele>28.0</ele><time>2026-03-28T14:12:52Z</time></trkpt><trkpt lat="39.88374387705246" lon="9.65086423130825"><ele>28.0</ele><time>2026-03-28T14:12:53Z</time></trkpt><trkpt lat="39.883492491534" lon="9.650829310119226"><ele>29.0</ele><time>2026-03-28T14:12:54Z</time></trkpt><trkpt lat="39.883246800710886" lon="9.650791686553886"><ele>30.0</ele><time>2026-03-28T14:12:55Z</time></trkpt><trkpt lat="39.88300091122047" lon="9.650751147588494"><ele>30.0</ele><time>2026-03-28T14:12:56Z</time></trkpt><trkpt lat="39.882759803678276" lon="9.650710177910897"><ele>30.0</ele><time>2026-03-28T14:12:57Z</time></trkpt><trkpt lat="39.88252233553564" lon="9.650670009164152"><ele>30.5</ele><time>2026-03-28T14:12:58Z</time></trkpt><trkpt lat="39.88228596274082" lon="9.65063221999794"><ele>31.0</ele><time>2026-03-28T14:12:59Z</time></trkpt><trkpt lat="39.88205132305118" lon="9.650596687141212"><ele>31.0</ele><time>2026-03-28T14:13:00Z</time></trkpt><trkpt lat="39.88181537221357" lon="9.650562776765446"><ele>31.0</ele><time>2026-03-28T14:13:01Z</time></trkpt><trkpt lat="39.881580695186074" lon="9.650527084012511"><ele>32.0</ele><time>2026-03-28T14:13:02Z</time></trkpt><trkpt lat="39.88135660980037" lon="9.650492488706677"><ele>33.0</ele><time>2026-03-28T14:13:03Z</time></trkpt><trkpt lat="39.88112818150263" lon="9.650455470003752"><ele>33.0</ele><time>2026-03-28T14:13:04Z</time></trkpt><trkpt lat="39.88090105608568" lon="9.65041452362808"><ele>33.0</ele><time>2026-03-28T14:13:05Z</time></trkpt><trkpt lat="39.8806734478836" lon="9.650377547413903"><ele>33.0</ele><time>2026-03-28T14:13:06Z</time></trkpt><trkpt lat="39.88044341206711" lon="9.650339132351391"><ele>33.0</ele><time>2026-03-28T14:13:07Z</time></trkpt><trkpt lat="39.880210246218596" lon="9.650301354937833"><ele>39.5</ele><time>2026-03-28T14:13:08Z</time></trkpt><trkpt lat="39.87997826321792" lon="9.650265637087376"><ele>46.0</ele><time>2026-03-28T14:13:09Z</time></trkpt><trkpt lat="39.87974083542551" lon="9.650220083133098"><ele>46.0</ele><time>2026-03-28T14:13:10Z</time></trkpt><trkpt lat="39.87950348613167" lon="9.650163097354573"><ele>46.0</ele><time>2026-03-28T14:13:11Z</time></trkpt><trkpt lat="39.87926676006257" lon="9.650093481352958"><ele>45.0</ele><time>2026-03-28T14:13:12Z</time></trkpt><trkpt lat="39.87902938353901" lon="9.650005418187401"><ele>44.0</ele><time>2026-03-28T14:13:13Z</time></trkpt><trkpt lat="39.87879510444325" lon="9.649905454338796"><ele>44.0</ele><time>2026-03-28T14:13:14Z</time></trkpt><trkpt lat="39.878560880282095" lon="9.649801981192878"><ele>44.0</ele><time>2026-03-28T14:13:15Z</time></trkpt><trkpt lat="39.87832493097456" lon="9.649703210044828"><ele>42.0</ele><time>2026-03-28T14:13:16Z</time></trkpt><trkpt lat="39.87808548735413" lon="9.649607975392385"><ele>40.0</ele><time>2026-03-28T14:13:17Z</time></trkpt><trkpt lat="39.87784640861076" lon="9.64951434026358"><ele>43.0</ele><time>2026-03-28T14:13:18Z</time></trkpt><trkpt lat="39.87760657979503" lon="9.649423481263641"><ele>46.0</ele><time>2026-03-28T14:13:19Z</time></trkpt><trkpt lat="39.87736743882674" lon="9.649331838099368"><ele>46.0</ele><time>2026-03-28T14:13:20Z</time></trkpt><trkpt lat="39.87713637649233" lon="9.649211773412134"><ele>46.0</ele><time>2026-03-28T14:13:21Z</time></trkpt><trkpt lat="39.87689730638151" lon="9.649128601613455"><ele>45.0</ele><time>2026-03-28T14:13:22Z</time></trkpt><trkpt lat="39.87666582109237" lon="9.64902083909253"><ele>44.0</ele><time>2026-03-28T14:13:23Z</time></trkpt><trkpt lat="39.8764392974012" lon="9.648923064661169"><ele>44.0</ele><time>2026-03-28T14:13:24Z</time></trkpt><trkpt lat="39.876215408697426" lon="9.648831429472882"><ele>44.0</ele><time>2026-03-28T14:13:25Z</time></trkpt><trkpt lat="39.8759983109659" lon="9.648741179222245"><ele>42.5</ele><time>2026-03-28T14:13:26Z</time></trkpt><trkpt lat="39.87578298138224" lon="9.648649623795132"><ele>41.0</ele><time>2026-03-28T14:13:27Z</time></trkpt><trkpt lat="39.875568022921286" lon="9.64855632616094"><ele>45.0</ele><time>2026-03-28T14:13:28Z</time></trkpt><trkpt lat="39.875349423575294" lon="9.648467450991786"><ele>49.0</ele><time>2026-03-28T14:13:29Z</time></trkpt><trkpt lat="39.87513011246658" lon="9.648386019546525"><ele>46.0</ele><time>2026-03-28T14:13:30Z</time></trkpt><trkpt lat="39.87490999100336" lon="9.64831431025808"><ele>43.0</ele><time>2026-03-28T14:13:31Z</time></trkpt><trkpt lat="39.87468684989464" lon="9.648252146752405"><ele>43.0</ele><time>2026-03-28T14:13:32Z</time></trkpt><trkpt lat="39.87446224670533" lon="9.648203633620058"><ele>43.0</ele><time>2026-03-28T14:13:33Z</time></trkpt><trkpt lat="39.87423439519561" lon="9.648171456595499"><ele>42.0</ele><time>2026-03-28T14:13:34Z</time></trkpt><trkpt lat="39.87400285723667" lon="9.648155214550421"><ele>41.0</ele><time>2026-03-28T14:13:35Z</time></trkpt><trkpt lat="39.87376781708108" lon="9.648157642329707"><ele>41.0</ele><time>2026-03-28T14:13:36Z</time></trkpt><trkpt lat="39.873533658366796" lon="9.648178492132558"><ele>41.0</ele><time>2026-03-28T14:13:37Z</time></trkpt><trkpt lat="39.87330030567873" lon="9.648218722917395"><ele>42.5</ele><time>2026-03-28T14:13:38Z</time></trkpt><trkpt lat="39.873070374412244" lon="9.64827872828948"><ele>44.0</ele><time>2026-03-28T14:13:39Z</time></trkpt><trkpt lat="39.87283929048984" lon="9.648343471448317"><ele>44.0</ele><time>2026-03-28T14:13:40Z</time></trkpt><trkpt lat="39.872611824278216" lon="9.648420107511415"><ele>44.0</ele><time>2026-03-28T14:13:41Z</time></trkpt><trkpt lat="39.87238704332519" lon="9.648504369329242"><ele>47.0</ele><time>2026-03-28T14:13:42Z</time></trkpt><trkpt lat="39.872162118992044" lon="9.648590141907745"><ele>50.0</ele><time>2026-03-28T14:13:43Z</time></trkpt><trkpt lat="39.87193637659896" lon="9.648670945475745"><ele>54.0</ele><time>2026-03-28T14:13:44Z</time></trkpt><trkpt lat="39.871712677155585" lon="9.648749402300641"><ele>58.0</ele><time>2026-03-28T14:13:45Z</time></trkpt><trkpt lat="39.871487239429726" lon="9.64882588480079"><ele>58.0</ele><time>2026-03-28T14:13:46Z</time></trkpt><trkpt lat="39.87126102491434" lon="9.64890440276565"><ele>58.0</ele><time>2026-03-28T14:13:47Z</time></trkpt><trkpt lat="39.871038115838125" lon="9.648970595421014"><ele>63.0</ele><time>2026-03-28T14:13:48Z</time></trkpt><trkpt lat="39.87080863891636" lon="9.649031546066833"><ele>68.0</ele><time>2026-03-28T14:13:49Z</time></trkpt><trkpt lat="39.87057717073571" lon="9.649066706919207"><ele>68.0</ele><time>2026-03-28T14:13:50Z</time></trkpt><trkpt lat="39.870347603974984" lon="9.649090895078805"><ele>68.0</ele><time>2026-03-28T14:13:51Z</time></trkpt><trkpt lat="39.870119950519104" lon="9.64910886937333"><ele>67.0</ele><time>2026-03-28T14:13:52Z</time></trkpt><trkpt lat="39.869885715318645" lon="9.649100812378204"><ele>66.0</ele><time>2026-03-28T14:13:53Z</time></trkpt><trkpt lat="39.869651914999814" lon="9.64907371456483"><ele>66.0</ele><time>2026-03-28T14:13:54Z</time></trkpt><trkpt lat="39.86942019209389" lon="9.649052359494311"><ele>66.0</ele><time>2026-03-28T14:13:55Z</time></trkpt><trkpt lat="39.86918578643263" lon="9.649010772221217"><ele>65.0</ele><time>2026-03-28T14:13:56Z</time></trkpt><trkpt lat="39.86896095903562" lon="9.64894998761003"><ele>64.0</ele><time>2026-03-28T14:13:57Z</time></trkpt><trkpt lat="39.868733094245066" lon="9.64886956950428"><ele>64.0</ele><time>2026-03-28T14:13:58Z</time></trkpt><trkpt lat="39.86851300461279" lon="9.648771391168008"><ele>64.0</ele><time>2026-03-28T14:13:59Z</time></trkpt><trkpt lat="39.86829968274673" lon="9.648662142617333"><ele>68.0</ele><time>2026-03-28T14:14:00Z</time></trkpt><trkpt lat="39.86808546876601" lon="9.648533491089369"><ele>72.0</ele><time>2026-03-28T14:14:01Z</time></trkpt><trkpt lat="39.86787058098357" lon="9.64840145585702"><ele>72.0</ele><time>2026-03-28T14:14:02Z</time></trkpt><trkpt lat="39.86765831023817" lon="9.648256229817786"><ele>72.0</ele><time>2026-03-28T14:14:03Z</time></trkpt><trkpt lat="39.867449304359745" lon="9.648109962129604"><ele>69.5</ele><time>2026-03-28T14:14:04Z</time></trkpt><trkpt lat="39.8673155215865" lon="9.647796704497866"><ele>67.0</ele><time>2026-03-28T14:14:05Z</time></trkpt><trkpt lat="39.86711070323245" lon="9.647628314548648"><ele>67.0</ele><time>2026-03-28T14:14:06Z</time></trkpt><trkpt lat="39.86690078223072" lon="9.647469462605075"><ele>67.0</ele><time>2026-03-28T14:14:07Z</time></trkpt><trkpt lat="39.86659534031751" lon="9.647501678671198"><ele>66.5</ele><time>2026-03-28T14:14:08Z</time></trkpt><trkpt lat="39.8663861875617" lon="9.64735424731525"><ele>66.0</ele><time>2026-03-28T14:14:09Z</time></trkpt><trkpt lat="39.86617732041813" lon="9.647203731406165"><ele>66.0</ele><time>2026-03-28T14:14:10Z</time></trkpt><trkpt lat="39.86597245544405" lon="9.64705068210533"><ele>66.0</ele><time>2026-03-28T14:14:11Z</time></trkpt><trkpt lat="39.86576659591973" lon="9.646900372080552"><ele>69.5</ele><time>2026-03-28T14:14:12Z</time></trkpt><trkpt lat="39.86556101967226" lon="9.646766457132246"><ele>73.0</ele><time>2026-03-28T14:14:13Z</time></trkpt><trkpt lat="39.86533438177814" lon="9.646654443056356"><ele>73.0</ele><time>2026-03-28T14:14:14Z</time></trkpt><trkpt lat="39.8651131740786" lon="9.646564177939306"><ele>73.0</ele><time>2026-03-28T14:14:15Z</time></trkpt><trkpt lat="39.86488177131081" lon="9.64649342669839"><ele>75.0</ele><time>2026-03-28T14:14:16Z</time></trkpt><trkpt lat="39.864669079361896" lon="9.64640026817044"><ele>77.0</ele><time>2026-03-28T14:14:17Z</time></trkpt><trkpt lat="39.8644435181783" lon="9.646347920695804"><ele>81.0</ele><time>2026-03-28T14:14:18Z</time></trkpt><trkpt lat="39.86422112180283" lon="9.6463014885486"><ele>85.0</ele><time>2026-03-28T14:14:19Z</time></trkpt><trkpt lat="39.86399768542654" lon="9.646274832393603"><ele>85.0</ele><time>2026-03-28T14:14:20Z</time></trkpt><trkpt lat="39.86376713753137" lon="9.64626057140474"><ele>85.0</ele><time>2026-03-28T14:14:21Z</time></trkpt><trkpt lat="39.86353846569656" lon="9.646251688383296"><ele>87.0</ele><time>2026-03-28T14:14:22Z</time></trkpt><trkpt lat="39.86331403543184" lon="9.646262589491899"><ele>89.0</ele><time>2026-03-28T14:14:23Z</time></trkpt><trkpt lat="39.863086001560994" lon="9.646285023522418"><ele>89.0</ele><time>2026-03-28T14:14:24Z</time></trkpt><trkpt lat="39.862862835255676" lon="9.64630954679215"><ele>89.0</ele><time>2026-03-28T14:14:25Z</time></trkpt><trkpt lat="39.86263265516326" lon="9.646338981051537"><ele>90.5</ele><time>2026-03-28T14:14:26Z</time></trkpt><trkpt lat="39.862404401259546" lon="9.646369292577772"><ele>92.0</ele><time>2026-03-28T14:14:27Z</time></trkpt><trkpt lat="39.86217273447292" lon="9.64638736682693"><ele>92.0</ele><time>2026-03-28T14:14:28Z</time></trkpt><trkpt lat="39.86194419459825" lon="9.646395844852245"><ele>92.0</ele><time>2026-03-28T14:14:29Z</time></trkpt><trkpt lat="39.86170513919074" lon="9.646396319854162"><ele>91.0</ele><time>2026-03-28T14:14:30Z</time></trkpt><trkpt lat="39.86145802438238" lon="9.646396671238747"><ele>90.0</ele><time>2026-03-28T14:14:31Z</time></trkpt><trkpt lat="39.86122989942567" lon="9.64636922807394"><ele>90.0</ele><time>2026-03-28T14:14:32Z</time></trkpt><trkpt lat="39.86097752405984" lon="9.646350589382477"><ele>90.0</ele><time>2026-03-28T14:14:33Z</time></trkpt><trkpt lat="39.86074074526369" lon="9.646309898041642"><ele>85.5</ele><time>2026-03-28T14:14:34Z</time></trkpt><trkpt lat="39.860509760709725" lon="9.646238141963519"><ele>81.0</ele><time>2026-03-28T14:14:35Z</time></trkpt><trkpt lat="39.86027922250374" lon="9.646145006810647"><ele>75.0</ele><time>2026-03-28T14:14:36Z</time></trkpt><trkpt lat="39.86004579861266" lon="9.646021889218503"><ele>69.0</ele><time>2026-03-28T14:14:37Z</time></trkpt><trkpt lat="39.8598103454366" lon="9.645932241465003"><ele>69.0</ele><time>2026-03-28T14:14:38Z</time></trkpt><trkpt lat="39.85958807323544" lon="9.64580638382491"><ele>69.0</ele><time>2026-03-28T14:14:39Z</time></trkpt><trkpt lat="39.85936720494277" lon="9.64564670917421"><ele>67.0</ele><time>2026-03-28T14:14:40Z</time></trkpt><trkpt lat="39.85915365653062" lon="9.645492979487233"><ele>65.0</ele><time>2026-03-28T14:14:41Z</time></trkpt><trkpt lat="39.85895361444413" lon="9.645315664652255"><ele>64.0</ele><time>2026-03-28T14:14:42Z</time></trkpt><trkpt lat="39.8587576597318" lon="9.645112251226315"><ele>63.0</ele><time>2026-03-28T14:14:43Z</time></trkpt><trkpt lat="39.85856850023196" lon="9.644904879946672"><ele>65.5</ele><time>2026-03-28T14:14:44Z</time></trkpt><trkpt lat="39.8583897617982" lon="9.64468647182605"><ele>68.0</ele><time>2026-03-28T14:14:45Z</time></trkpt><trkpt lat="39.85821630489668" lon="9.64446422093966"><ele>65.0</ele><time>2026-03-28T14:14:46Z</time></trkpt><trkpt lat="39.85805012526337" lon="9.644241382982162"><ele>62.0</ele><time>2026-03-28T14:14:47Z</time></trkpt><trkpt lat="39.85790318019631" lon="9.644030542860587"><ele>62.0</ele><time>2026-03-28T14:14:48Z</time></trkpt><trkpt lat="39.85775447240712" lon="9.643816604017976"><ele>62.0</ele><time>2026-03-28T14:14:49Z</time></trkpt><trkpt lat="39.85760324683408" lon="9.643613392504802"><ele>62.0</ele><time>2026-03-28T14:14:50Z</time></trkpt><trkpt lat="39.85744978978473" lon="9.64339328665748"><ele>62.5</ele><time>2026-03-28T14:14:51Z</time></trkpt><trkpt lat="39.857304619000445" lon="9.643167760864022"><ele>63.0</ele><time>2026-03-28T14:14:52Z</time></trkpt><trkpt lat="39.85715942661731" lon="9.642945883139623"><ele>60.5</ele><time>2026-03-28T14:14:53Z</time></trkpt><trkpt lat="39.85700837901814" lon="9.64271882041131"><ele>58.0</ele><time>2026-03-28T14:14:54Z</time></trkpt><trkpt lat="39.85685133811305" lon="9.642490109502345"><ele>59.0</ele><time>2026-03-28T14:14:55Z</time></trkpt><trkpt lat="39.85669509424088" lon="9.642262605792848"><ele>60.0</ele><time>2026-03-28T14:14:56Z</time></trkpt><trkpt lat="39.85653562825651" lon="9.642028866401036"><ele>56.5</ele><time>2026-03-28T14:14:57Z</time></trkpt><trkpt lat="39.85637734748469" lon="9.64180006124218"><ele>53.0</ele><time>2026-03-28T14:14:58Z</time></trkpt><trkpt lat="39.85620627933664" lon="9.641572889144069"><ele>53.0</ele><time>2026-03-28T14:14:59Z</time></trkpt><trkpt lat="39.85603256025179" lon="9.64134556542504"><ele>53.0</ele><time>2026-03-28T14:15:00Z</time></trkpt><trkpt lat="39.855858657747895" lon="9.641129618936214"><ele>48.5</ele><time>2026-03-28T14:15:01Z</time></trkpt><trkpt lat="39.85566344272342" lon="9.64092237964661"><ele>44.0</ele><time>2026-03-28T14:15:02Z</time></trkpt><trkpt lat="39.85546522147349" lon="9.640726586287485"><ele>44.0</ele><time>2026-03-28T14:15:03Z</time></trkpt><trkpt lat="39.85527467742678" lon="9.640539009573203"><ele>44.0</ele><time>2026-03-28T14:15:04Z</time></trkpt><trkpt lat="39.855078377685786" lon="9.640344537312691"><ele>40.0</ele><time>2026-03-28T14:15:05Z</time></trkpt><trkpt lat="39.85488549106888" lon="9.640148072847085"><ele>36.0</ele><time>2026-03-28T14:15:06Z</time></trkpt><trkpt lat="39.854690233614896" lon="9.639950009189967"><ele>36.0</ele><time>2026-03-28T14:15:07Z</time></trkpt><trkpt lat="39.85449390810125" lon="9.639750566163732"><ele>36.0</ele><time>2026-03-28T14:15:08Z</time></trkpt><trkpt lat="39.85429685145317" lon="9.639552034770503"><ele>34.5</ele><time>2026-03-28T14:15:09Z</time></trkpt><trkpt lat="39.85409560371212" lon="9.639354483286866"><ele>33.0</ele><time>2026-03-28T14:15:10Z</time></trkpt><trkpt lat="39.85389471755219" lon="9.63915737600759"><ele>33.0</ele><time>2026-03-28T14:15:11Z</time></trkpt><trkpt lat="39.85369255681252" lon="9.638959017007146"><ele>33.0</ele><time>2026-03-28T14:15:12Z</time></trkpt><trkpt lat="39.8534920619614" lon="9.63876010502862"><ele>31.5</ele><time>2026-03-28T14:15:13Z</time></trkpt><trkpt lat="39.853290145655755" lon="9.638560708620103"><ele>30.0</ele><time>2026-03-28T14:15:14Z</time></trkpt><trkpt lat="39.85308701404434" lon="9.63835995537312"><ele>30.0</ele><time>2026-03-28T14:15:15Z</time></trkpt><trkpt lat="39.85288317945405" lon="9.63815938720878"><ele>30.0</ele><time>2026-03-28T14:15:16Z</time></trkpt><trkpt lat="39.852679014294495" lon="9.63795818174469"><ele>32.5</ele><time>2026-03-28T14:15:17Z</time></trkpt><trkpt lat="39.85247428670757" lon="9.63775651597243"><ele>35.0</ele><time>2026-03-28T14:15:18Z</time></trkpt><trkpt lat="39.85226743261074" lon="9.63755526163593"><ele>35.0</ele><time>2026-03-28T14:15:19Z</time></trkpt><trkpt lat="39.852061774888675" lon="9.637353159221961"><ele>35.0</ele><time>2026-03-28T14:15:20Z</time></trkpt><trkpt lat="39.85186092333882" lon="9.637148474020755"><ele>39.5</ele><time>2026-03-28T14:15:21Z</time></trkpt><trkpt lat="39.85165777370445" lon="9.636944088356172"><ele>44.0</ele><time>2026-03-28T14:15:22Z</time></trkpt><trkpt lat="39.8514558906404" lon="9.636740379368817"><ele>44.0</ele><time>2026-03-28T14:15:23Z</time></trkpt><trkpt lat="39.851256495095164" lon="9.63653905597528"><ele>44.0</ele><time>2026-03-28T14:15:24Z</time></trkpt><trkpt lat="39.85105722657959" lon="9.636339848668381"><ele>44.0</ele><time>2026-03-28T14:15:25Z</time></trkpt><trkpt lat="39.85085655018929" lon="9.636146254870518"><ele>44.0</ele><time>2026-03-28T14:15:26Z</time></trkpt><trkpt lat="39.850651586797255" lon="9.635958594037248"><ele>45.5</ele><time>2026-03-28T14:15:27Z</time></trkpt><trkpt lat="39.85044486774355" lon="9.635778431749904"><ele>47.0</ele><time>2026-03-28T14:15:28Z</time></trkpt><trkpt lat="39.850236378373545" lon="9.635605937720484"><ele>42.0</ele><time>2026-03-28T14:15:29Z</time></trkpt><trkpt lat="39.85002493752939" lon="9.635442065419667"><ele>37.0</ele><time>2026-03-28T14:15:30Z</time></trkpt><trkpt lat="39.84981017927502" lon="9.635287887031469"><ele>35.0</ele><time>2026-03-28T14:15:31Z</time></trkpt><trkpt lat="39.84959272964657" lon="9.63514450675345"><ele>33.0</ele><time>2026-03-28T14:15:32Z</time></trkpt><trkpt lat="39.849375114434196" lon="9.635019781517844"><ele>34.0</ele><time>2026-03-28T14:15:33Z</time></trkpt><trkpt lat="39.84915228172679" lon="9.63492290184451"><ele>35.0</ele><time>2026-03-28T14:15:34Z</time></trkpt><trkpt lat="39.84893150672102" lon="9.634830307305387"><ele>35.0</ele><time>2026-03-28T14:15:35Z</time></trkpt><trkpt lat="39.84870717977322" lon="9.634748473858817"><ele>35.0</ele><time>2026-03-28T14:15:36Z</time></trkpt><trkpt lat="39.848482688509854" lon="9.634677276334605"><ele>39.0</ele><time>2026-03-28T14:15:37Z</time></trkpt><trkpt lat="39.848253234578195" lon="9.634618154528521"><ele>43.0</ele><time>2026-03-28T14:15:38Z</time></trkpt><trkpt lat="39.848023592057295" lon="9.634571865894447"><ele>43.0</ele><time>2026-03-28T14:15:39Z</time></trkpt><trkpt lat="39.84779149848639" lon="9.634539049342044"><ele>43.0</ele><time>2026-03-28T14:15:40Z</time></trkpt><trkpt lat="39.84755814031767" lon="9.634520182011148"><ele>48.0</ele><time>2026-03-28T14:15:41Z</time></trkpt><trkpt lat="39.84732735338612" lon="9.63451539520335"><ele>53.0</ele><time>2026-03-28T14:15:42Z</time></trkpt><trkpt lat="39.847092383481076" lon="9.634523167208568"><ele>53.0</ele><time>2026-03-28T14:15:43Z</time></trkpt><trkpt lat="39.84685960258188" lon="9.634543787115973"><ele>53.0</ele><time>2026-03-28T14:15:44Z</time></trkpt><trkpt lat="39.84662708996206" lon="9.634573551433416"><ele>60.0</ele><time>2026-03-28T14:15:45Z</time></trkpt><trkpt lat="39.84639752396217" lon="9.634606949903944"><ele>67.0</ele><time>2026-03-28T14:15:46Z</time></trkpt><trkpt lat="39.8461673407508" lon="9.634648868095057"><ele>69.0</ele><time>2026-03-28T14:15:47Z</time></trkpt><trkpt lat="39.84594079473963" lon="9.634691494016248"><ele>71.0</ele><time>2026-03-28T14:15:48Z</time></trkpt><trkpt lat="39.845711285627075" lon="9.63473117778046"><ele>71.0</ele><time>2026-03-28T14:15:49Z</time></trkpt><trkpt lat="39.84548101713719" lon="9.634769140630793"><ele>71.0</ele><time>2026-03-28T14:15:50Z</time></trkpt><trkpt lat="39.845251670750564" lon="9.634807819234732"><ele>73.0</ele><time>2026-03-28T14:15:51Z</time></trkpt><trkpt lat="39.845023972140964" lon="9.63485250099308"><ele>75.0</ele><time>2026-03-28T14:15:52Z</time></trkpt><trkpt lat="39.844805063766565" lon="9.634904113534231"><ele>75.0</ele><time>2026-03-28T14:15:53Z</time></trkpt><trkpt lat="39.844591746528714" lon="9.634949264089437"><ele>75.0</ele><time>2026-03-28T14:15:54Z</time></trkpt><trkpt lat="39.84436774093196" lon="9.634997434330788"><ele>75.0</ele><time>2026-03-28T14:15:55Z</time></trkpt><trkpt lat="39.844144417608426" lon="9.63505220635387"><ele>77.0</ele><time>2026-03-28T14:15:56Z</time></trkpt><trkpt lat="39.84392358899411" lon="9.635115153808657"><ele>79.0</ele><time>2026-03-28T14:15:57Z</time></trkpt><trkpt lat="39.84376721776908" lon="9.63519153095126"><ele>81.0</ele><time>2026-03-28T14:15:58Z</time></trkpt><trkpt lat="39.84356699833708" lon="9.635278590491543"><ele>78.66666666666667</ele><time>2026-03-28T14:15:59Z</time></trkpt><trkpt lat="39.84336926673557" lon="9.635376298982651"><ele>76.33333333333334</ele><time>2026-03-28T14:16:00Z</time></trkpt><trkpt lat="39.84317057500619" lon="9.63545313190604"><ele>74.0</ele><time>2026-03-28T14:16:01Z</time></trkpt><trkpt lat="39.84297666287053" lon="9.635546441183475"><ele>74.0</ele><time>2026-03-28T14:16:02Z</time></trkpt><trkpt lat="39.842805405334786" lon="9.635739329734662"><ele>74.0</ele><time>2026-03-28T14:16:03Z</time></trkpt><trkpt lat="39.842626878580646" lon="9.635882769462244"><ele>74.0</ele><time>2026-03-28T14:16:04Z</time></trkpt><trkpt lat="39.842451028919925" lon="9.636034991019882"><ele>74.33333333333334</ele><time>2026-03-28T14:16:05Z</time></trkpt><trkpt lat="39.84228322755814" lon="9.636195157667403"><ele>74.66666666666667</ele><time>2026-03-28T14:16:06Z</time></trkpt><trkpt lat="39.8421192428337" lon="9.636361184011552"><ele>75.0</ele><time>2026-03-28T14:16:07Z</time></trkpt><trkpt lat="39.84194759604929" lon="9.636540479973961"><ele>76.33333333333333</ele><time>2026-03-28T14:16:08Z</time></trkpt><trkpt lat="39.84179833443191" lon="9.636724656990896"><ele>77.66666666666666</ele><time>2026-03-28T14:16:09Z</time></trkpt><trkpt lat="39.84165837835089" lon="9.636911425305508"><ele>79.0</ele><time>2026-03-28T14:16:10Z</time></trkpt><trkpt lat="39.8415201197684" lon="9.63709227118637"><ele>79.0</ele><time>2026-03-28T14:16:11Z</time></trkpt><trkpt lat="39.84138372461187" lon="9.637261630152071"><ele>79.0</ele><time>2026-03-28T14:16:12Z</time></trkpt><trkpt lat="39.841253921681336" lon="9.637422618831433"><ele>79.0</ele><time>2026-03-28T14:16:13Z</time></trkpt><trkpt lat="39.8411250920575" lon="9.637583622663112"><ele>79.0</ele><time>2026-03-28T14:16:14Z</time></trkpt><trkpt lat="39.84099480032703" lon="9.637743972513851"><ele>79.0</ele><time>2026-03-28T14:16:15Z</time></trkpt><trkpt lat="39.840864872294404" lon="9.637905136842706"><ele>79.0</ele><time>2026-03-28T14:16:16Z</time></trkpt><trkpt lat="39.84073405598853" lon="9.638071679661042"><ele>83.33333333333333</ele><time>2026-03-28T14:16:17Z</time></trkpt><trkpt lat="39.84060385157064" lon="9.63823891304126"><ele>87.66666666666667</ele><time>2026-03-28T14:16:18Z</time></trkpt><trkpt lat="39.84047001957707" lon="9.638403222557981"><ele>92.0</ele><time>2026-03-28T14:16:19Z</time></trkpt><trkpt lat="39.84033570162767" lon="9.638566387683692"><ele>93.66666666666667</ele><time>2026-03-28T14:16:20Z</time></trkpt><trkpt lat="39.84021129855111" lon="9.638731937218179"><ele>95.33333333333334</ele><time>2026-03-28T14:16:21Z</time></trkpt><trkpt lat="39.84007971143408" lon="9.638892734229964"><ele>97.0</ele><time>2026-03-28T14:16:22Z</time></trkpt><trkpt lat="39.839933309612924" lon="9.639055893312976"><ele>97.0</ele><time>2026-03-28T14:16:23Z</time></trkpt><trkpt lat="39.83978185107618" lon="9.639218650044105"><ele>97.0</ele><time>2026-03-28T14:16:24Z</time></trkpt><trkpt lat="39.83964703854028" lon="9.639416515080176"><ele>97.0</ele><time>2026-03-28T14:16:25Z</time></trkpt><trkpt lat="39.83950610636195" lon="9.639596655750754"><ele>92.0</ele><time>2026-03-28T14:16:26Z</time></trkpt><trkpt lat="39.839365042093974" lon="9.639775333247078"><ele>87.0</ele><time>2026-03-28T14:16:27Z</time></trkpt><trkpt lat="39.83922146540845" lon="9.639954249773915"><ele>82.0</ele><time>2026-03-28T14:16:28Z</time></trkpt><trkpt lat="39.83907791138163" lon="9.640135041714185"><ele>78.0</ele><time>2026-03-28T14:16:29Z</time></trkpt><trkpt lat="39.838933878886884" lon="9.640318669125062"><ele>74.0</ele><time>2026-03-28T14:16:30Z</time></trkpt><trkpt lat="39.83878754811498" lon="9.640502992217902"><ele>70.0</ele><time>2026-03-28T14:16:31Z</time></trkpt><trkpt lat="39.83864011337664" lon="9.64068899400129"><ele>70.0</ele><time>2026-03-28T14:16:32Z</time></trkpt><trkpt lat="39.8384903419489" lon="9.640870827521507"><ele>70.0</ele><time>2026-03-28T14:16:33Z</time></trkpt><trkpt lat="39.83833930809633" lon="9.641054831824512"><ele>70.0</ele><time>2026-03-28T14:16:34Z</time></trkpt><trkpt lat="39.838187856580944" lon="9.6412454462543"><ele>72.33333333333333</ele><time>2026-03-28T14:16:35Z</time></trkpt><trkpt lat="39.838034193460246" lon="9.641435086224392"><ele>74.66666666666667</ele><time>2026-03-28T14:16:36Z</time></trkpt><trkpt lat="39.837885010033126" lon="9.641624721304584"><ele>77.0</ele><time>2026-03-28T14:16:37Z</time></trkpt><trkpt lat="39.837731899140465" lon="9.641816615226514"><ele>80.33333333333334</ele><time>2026-03-28T14:16:38Z</time></trkpt><trkpt lat="39.837574632845055" lon="9.64200669600659"><ele>83.66666666666667</ele><time>2026-03-28T14:16:39Z</time></trkpt><trkpt lat="39.83742248411715" lon="9.642202907903554"><ele>87.0</ele><time>2026-03-28T14:16:40Z</time></trkpt><trkpt lat="39.837265299622445" lon="9.642398974982967"><ele>87.0</ele><time>2026-03-28T14:16:41Z</time></trkpt><trkpt lat="39.837101789414085" lon="9.642588496503068"><ele>87.0</ele><time>2026-03-28T14:16:42Z</time></trkpt><trkpt lat="39.83693763969582" lon="9.642776103343468"><ele>87.0</ele><time>2026-03-28T14:16:43Z</time></trkpt><trkpt lat="39.8367724719555" lon="9.642959961765923"><ele>89.33333333333333</ele><time>2026-03-28T14:16:44Z</time></trkpt><trkpt lat="39.8366016116573" lon="9.64313894608097"><ele>91.66666666666666</ele><time>2026-03-28T14:16:45Z</time></trkpt><trkpt lat="39.836432575671175" lon="9.643317015553615"><ele>94.0</ele><time>2026-03-28T14:16:46Z</time></trkpt><trkpt lat="39.83625440776094" lon="9.643497496551898"><ele>87.5</ele><time>2026-03-28T14:16:47Z</time></trkpt><trkpt lat="39.83609368548367" lon="9.643708566126461"><ele>81.0</ele><time>2026-03-28T14:16:48Z</time></trkpt><trkpt lat="39.8359062525407" lon="9.64388332913114"><ele>79.5</ele><time>2026-03-28T14:16:49Z</time></trkpt><trkpt lat="39.83565128685478" lon="9.64392508189777"><ele>78.0</ele><time>2026-03-28T14:16:50Z</time></trkpt><trkpt lat="39.835450182860875" lon="9.644038270093002"><ele>78.0</ele><time>2026-03-28T14:16:51Z</time></trkpt><trkpt lat="39.83524968543542" lon="9.644144707957945"><ele>78.0</ele><time>2026-03-28T14:16:52Z</time></trkpt><trkpt lat="39.835055686459455" lon="9.644234369041902"><ele>78.0</ele><time>2026-03-28T14:16:53Z</time></trkpt><trkpt lat="39.83486207077308" lon="9.64431739683753"><ele>79.0</ele><time>2026-03-28T14:16:54Z</time></trkpt><trkpt lat="39.83467049881654" lon="9.644394846779182"><ele>80.0</ele><time>2026-03-28T14:16:55Z</time></trkpt><trkpt lat="39.834479348011115" lon="9.644467556363272"><ele>81.0</ele><time>2026-03-28T14:16:56Z</time></trkpt><trkpt lat="39.83428892965136" lon="9.64453891219063"><ele>75.0</ele><time>2026-03-28T14:16:57Z</time></trkpt><trkpt lat="39.83409820383734" lon="9.644613805090506"><ele>69.0</ele><time>2026-03-28T14:16:58Z</time></trkpt><trkpt lat="39.833906797421704" lon="9.644691490909613"><ele>63.0</ele><time>2026-03-28T14:16:59Z</time></trkpt><trkpt lat="39.83371507553806" lon="9.644762409735563"><ele>63.0</ele><time>2026-03-28T14:17:00Z</time></trkpt><trkpt lat="39.83351977715457" lon="9.644828707280533"><ele>63.0</ele><time>2026-03-28T14:17:01Z</time></trkpt><trkpt lat="39.833321545202544" lon="9.644885666876085"><ele>63.0</ele><time>2026-03-28T14:17:02Z</time></trkpt><trkpt lat="39.833126513697295" lon="9.644929652063892"><ele>66.0</ele><time>2026-03-28T14:17:03Z</time></trkpt><trkpt lat="39.83293388625673" lon="9.644960177314221"><ele>69.0</ele><time>2026-03-28T14:17:04Z</time></trkpt><trkpt lat="39.832738641736036" lon="9.644981277577903"><ele>72.0</ele><time>2026-03-28T14:17:05Z</time></trkpt><trkpt lat="39.83254228779531" lon="9.644996671462122"><ele>74.33333333333333</ele><time>2026-03-28T14:17:06Z</time></trkpt><trkpt lat="39.832343430493644" lon="9.644998864861128"><ele>76.66666666666666</ele><time>2026-03-28T14:17:07Z</time></trkpt><trkpt lat="39.832145507661224" lon="9.644983965139367"><ele>79.0</ele><time>2026-03-28T14:17:08Z</time></trkpt><trkpt lat="39.83194846440403" lon="9.644960702915064"><ele>78.33333333333333</ele><time>2026-03-28T14:17:09Z</time></trkpt><trkpt lat="39.83174813993714" lon="9.644935811074488"><ele>77.66666666666667</ele><time>2026-03-28T14:17:10Z</time></trkpt><trkpt lat="39.83154934595655" lon="9.644870159776051"><ele>77.0</ele><time>2026-03-28T14:17:11Z</time></trkpt><trkpt lat="39.83128451275171" lon="9.644793357782724"><ele>77.0</ele><time>2026-03-28T14:17:12Z</time></trkpt><trkpt lat="39.83107040220435" lon="9.644712235374993"><ele>77.0</ele><time>2026-03-28T14:17:13Z</time></trkpt><trkpt lat="39.83088824162144" lon="9.6446347308719"><ele>77.0</ele><time>2026-03-28T14:17:14Z</time></trkpt><trkpt lat="39.8306852847373" lon="9.644548475408266"><ele>73.33333333333334</ele><time>2026-03-28T14:17:15Z</time></trkpt><trkpt lat="39.83048165155853" lon="9.64443413740775"><ele>69.66666666666667</ele><time>2026-03-28T14:17:16Z</time></trkpt><trkpt lat="39.83027671744656" lon="9.644308490439462"><ele>66.0</ele><time>2026-03-28T14:17:17Z</time></trkpt><trkpt lat="39.83006894149617" lon="9.64418645388738"><ele>58.0</ele><time>2026-03-28T14:17:18Z</time></trkpt><trkpt lat="39.82986101641851" lon="9.64406285005199"><ele>50.0</ele><time>2026-03-28T14:17:19Z</time></trkpt><trkpt lat="39.82964955801592" lon="9.643943447971747"><ele>50.0</ele><time>2026-03-28T14:17:20Z</time></trkpt><trkpt lat="39.82943841149406" lon="9.643821076241041"><ele>50.0</ele><time>2026-03-28T14:17:21Z</time></trkpt><trkpt lat="39.829224701165025" lon="9.64369825999564"><ele>48.0</ele><time>2026-03-28T14:17:22Z</time></trkpt><trkpt lat="39.82900866974663" lon="9.643577564551935"><ele>46.0</ele><time>2026-03-28T14:17:23Z</time></trkpt><trkpt lat="39.828772506835016" lon="9.643450494335804"><ele>46.0</ele><time>2026-03-28T14:17:24Z</time></trkpt><trkpt lat="39.82851813049767" lon="9.64332203612031"><ele>46.0</ele><time>2026-03-28T14:17:25Z</time></trkpt><trkpt lat="39.82826582253802" lon="9.643158546697885"><ele>45.0</ele><time>2026-03-28T14:17:26Z</time></trkpt><trkpt lat="39.827992297099705" lon="9.643001578926379"><ele>44.0</ele><time>2026-03-28T14:17:27Z</time></trkpt><trkpt lat="39.827715621946716" lon="9.642842520551236"><ele>41.5</ele><time>2026-03-28T14:17:28Z</time></trkpt><trkpt lat="39.82743563897692" lon="9.64268156067358"><ele>39.0</ele><time>2026-03-28T14:17:29Z</time></trkpt><trkpt lat="39.82714751899382" lon="9.642532092062307"><ele>39.0</ele><time>2026-03-28T14:17:30Z</time></trkpt><trkpt lat="39.826872310396986" lon="9.642357452457913"><ele>39.0</ele><time>2026-03-28T14:17:31Z</time></trkpt><trkpt lat="39.82660287724825" lon="9.642191111505737"><ele>36.5</ele><time>2026-03-28T14:17:32Z</time></trkpt><trkpt lat="39.826331510177184" lon="9.642034084791895"><ele>34.0</ele><time>2026-03-28T14:17:33Z</time></trkpt><trkpt lat="39.82606146463428" lon="9.641882652939035"><ele>33.5</ele><time>2026-03-28T14:17:34Z</time></trkpt><trkpt lat="39.82579514735368" lon="9.641733634774372"><ele>33.0</ele><time>2026-03-28T14:17:35Z</time></trkpt><trkpt lat="39.825532430268886" lon="9.641584847380992"><ele>33.0</ele><time>2026-03-28T14:17:36Z</time></trkpt><trkpt lat="39.82527077698687" lon="9.64143637799504"><ele>33.0</ele><time>2026-03-28T14:17:37Z</time></trkpt><trkpt lat="39.825011634399075" lon="9.641286051535367"><ele>33.5</ele><time>2026-03-28T14:17:38Z</time></trkpt><trkpt lat="39.82475177599873" lon="9.641137267304247"><ele>34.0</ele><time>2026-03-28T14:17:39Z</time></trkpt><trkpt lat="39.824493426984624" lon="9.640984563621426"><ele>38.0</ele><time>2026-03-28T14:17:40Z</time></trkpt><trkpt lat="39.82423169565446" lon="9.640828807523297"><ele>42.0</ele><time>2026-03-28T14:17:41Z</time></trkpt><trkpt lat="39.823985854132204" lon="9.640663599803037"><ele>42.0</ele><time>2026-03-28T14:17:42Z</time></trkpt><trkpt lat="39.823758376981786" lon="9.640466392377258"><ele>42.0</ele><time>2026-03-28T14:17:43Z</time></trkpt><trkpt lat="39.82352551274687" lon="9.64028679150317"><ele>45.0</ele><time>2026-03-28T14:17:44Z</time></trkpt><trkpt lat="39.823311366166244" lon="9.640076550422526"><ele>48.0</ele><time>2026-03-28T14:17:45Z</time></trkpt><trkpt lat="39.82310534879352" lon="9.639865615944219"><ele>48.0</ele><time>2026-03-28T14:17:46Z</time></trkpt><trkpt lat="39.822901680618976" lon="9.639655987928137"><ele>48.0</ele><time>2026-03-28T14:17:47Z</time></trkpt><trkpt lat="39.822700105839644" lon="9.639450870680712"><ele>45.5</ele><time>2026-03-28T14:17:48Z</time></trkpt><trkpt lat="39.82249712910205" lon="9.639242511064378"><ele>43.0</ele><time>2026-03-28T14:17:49Z</time></trkpt><trkpt lat="39.822296478692294" lon="9.639040140438935"><ele>43.0</ele><time>2026-03-28T14:17:50Z</time></trkpt><trkpt lat="39.822095540975575" lon="9.638838577677294"><ele>43.0</ele><time>2026-03-28T14:17:51Z</time></trkpt><trkpt lat="39.82189587264959" lon="9.638637023638797"><ele>46.5</ele><time>2026-03-28T14:17:52Z</time></trkpt><trkpt lat="39.82169762673749" lon="9.63843439382034"><ele>50.0</ele><time>2026-03-28T14:17:53Z</time></trkpt><trkpt lat="39.82150084818475" lon="9.638227975038449"><ele>50.0</ele><time>2026-03-28T14:17:54Z</time></trkpt><trkpt lat="39.821304756690026" lon="9.638022023547958"><ele>50.0</ele><time>2026-03-28T14:17:55Z</time></trkpt><trkpt lat="39.821108913648864" lon="9.637815408050871"><ele>51.5</ele><time>2026-03-28T14:17:56Z</time></trkpt><trkpt lat="39.82091234684729" lon="9.637611252936694"><ele>53.0</ele><time>2026-03-28T14:17:57Z</time></trkpt><trkpt lat="39.82071432605071" lon="9.637410073753315"><ele>53.0</ele><time>2026-03-28T14:17:58Z</time></trkpt><trkpt lat="39.8205154811906" lon="9.637211298080942"><ele>53.0</ele><time>2026-03-28T14:17:59Z</time></trkpt><trkpt lat="39.82031860819944" lon="9.637004084030629"><ele>50.5</ele><time>2026-03-28T14:18:00Z</time></trkpt><trkpt lat="39.82012138809308" lon="9.63679733516663"><ele>48.0</ele><time>2026-03-28T14:18:01Z</time></trkpt><trkpt lat="39.81992303858713" lon="9.636589025134695"><ele>48.0</ele><time>2026-03-28T14:18:02Z</time></trkpt><trkpt lat="39.819722413997965" lon="9.63638227422664"><ele>48.0</ele><time>2026-03-28T14:18:03Z</time></trkpt><trkpt lat="39.81951936024088" lon="9.636173198321611"><ele>47.5</ele><time>2026-03-28T14:18:04Z</time></trkpt><trkpt lat="39.819314615157396" lon="9.635964995254463"><ele>47.0</ele><time>2026-03-28T14:18:05Z</time></trkpt><trkpt lat="39.81910925743049" lon="9.635757141069533"><ele>47.0</ele><time>2026-03-28T14:18:06Z</time></trkpt><trkpt lat="39.818903773401836" lon="9.635548750861716"><ele>47.0</ele><time>2026-03-28T14:18:07Z</time></trkpt><trkpt lat="39.8186974178923" lon="9.63533841886736"><ele>48.0</ele><time>2026-03-28T14:18:08Z</time></trkpt><trkpt lat="39.81849183222945" lon="9.635126807568904"><ele>49.0</ele><time>2026-03-28T14:18:09Z</time></trkpt><trkpt lat="39.81828900722268" lon="9.634918990219603"><ele>47.0</ele><time>2026-03-28T14:18:10Z</time></trkpt><trkpt lat="39.81808787618501" lon="9.63471004165012"><ele>45.0</ele><time>2026-03-28T14:18:11Z</time></trkpt><trkpt lat="39.81788745232989" lon="9.634504335608883"><ele>46.0</ele><time>2026-03-28T14:18:12Z</time></trkpt><trkpt lat="39.81768790870658" lon="9.634299986344292"><ele>47.0</ele><time>2026-03-28T14:18:13Z</time></trkpt><trkpt lat="39.81749278429782" lon="9.634099688889199"><ele>47.5</ele><time>2026-03-28T14:18:14Z</time></trkpt><trkpt lat="39.81729566307074" lon="9.633896387715957"><ele>48.0</ele><time>2026-03-28T14:18:15Z</time></trkpt><trkpt lat="39.81709910956962" lon="9.63369731340141"><ele>49.0</ele><time>2026-03-28T14:18:16Z</time></trkpt><trkpt lat="39.81690274920016" lon="9.633504263258153"><ele>50.0</ele><time>2026-03-28T14:18:17Z</time></trkpt><trkpt lat="39.816701150985935" lon="9.633314618340936"><ele>48.0</ele><time>2026-03-28T14:18:18Z</time></trkpt><trkpt lat="39.81649418016442" lon="9.633133610922375"><ele>46.0</ele><time>2026-03-28T14:18:19Z</time></trkpt><trkpt lat="39.81628479861249" lon="9.632967440719348"><ele>46.0</ele><time>2026-03-28T14:18:20Z</time></trkpt><trkpt lat="39.8160662798809" lon="9.632810148206154"><ele>46.0</ele><time>2026-03-28T14:18:21Z</time></trkpt><trkpt lat="39.81584363525167" lon="9.632665683743578"><ele>47.5</ele><time>2026-03-28T14:18:22Z</time></trkpt><trkpt lat="39.815617571999155" lon="9.632525005945139"><ele>49.0</ele><time>2026-03-28T14:18:23Z</time></trkpt><trkpt lat="39.81539260186524" lon="9.632387273798647"><ele>49.0</ele><time>2026-03-28T14:18:24Z</time></trkpt><trkpt lat="39.815166944770866" lon="9.632247014731007"><ele>49.0</ele><time>2026-03-28T14:18:25Z</time></trkpt><trkpt lat="39.81494459780218" lon="9.632106833770319"><ele>54.5</ele><time>2026-03-28T14:18:26Z</time></trkpt><trkpt lat="39.81472332698627" lon="9.631968964807118"><ele>60.0</ele><time>2026-03-28T14:18:27Z</time></trkpt><trkpt lat="39.81450053571843" lon="9.631832679743464"><ele>62.0</ele><time>2026-03-28T14:18:28Z</time></trkpt><trkpt lat="39.814279012193204" lon="9.63169617547907"><ele>64.0</ele><time>2026-03-28T14:18:29Z</time></trkpt><trkpt lat="39.814059592378044" lon="9.631554753905485"><ele>64.0</ele><time>2026-03-28T14:18:30Z</time></trkpt><trkpt lat="39.813842143241644" lon="9.631399302605798"><ele>64.0</ele><time>2026-03-28T14:18:31Z</time></trkpt><trkpt lat="39.81363271187847" lon="9.631232056468658"><ele>64.5</ele><time>2026-03-28T14:18:32Z</time></trkpt><trkpt lat="39.813426267217324" lon="9.63105142467644"><ele>65.0</ele><time>2026-03-28T14:18:33Z</time></trkpt><trkpt lat="39.81322461377057" lon="9.630855173606962"><ele>65.0</ele><time>2026-03-28T14:18:34Z</time></trkpt><trkpt lat="39.8130316743576" lon="9.6306577810846"><ele>65.0</ele><time>2026-03-28T14:18:35Z</time></trkpt><trkpt lat="39.81284373250023" lon="9.630455995203556"><ele>65.0</ele><time>2026-03-28T14:18:36Z</time></trkpt><trkpt lat="39.81265967612028" lon="9.630246861443894"><ele>65.0</ele><time>2026-03-28T14:18:37Z</time></trkpt><trkpt lat="39.812484560368844" lon="9.630037864612595"><ele>65.0</ele><time>2026-03-28T14:18:38Z</time></trkpt><trkpt lat="39.812315118203344" lon="9.629826703263703"><ele>65.0</ele><time>2026-03-28T14:18:39Z</time></trkpt><trkpt lat="39.812150825305565" lon="9.629616079368851"><ele>66.0</ele><time>2026-03-28T14:18:40Z</time></trkpt><trkpt lat="39.81198826200535" lon="9.629404763065263"><ele>67.0</ele><time>2026-03-28T14:18:41Z</time></trkpt><trkpt lat="39.811831513851615" lon="9.629191830987473"><ele>69.0</ele><time>2026-03-28T14:18:42Z</time></trkpt><trkpt lat="39.81167192489053" lon="9.628977647846206"><ele>71.0</ele><time>2026-03-28T14:18:43Z</time></trkpt><trkpt lat="39.81151228049391" lon="9.628761974698223"><ele>80.5</ele><time>2026-03-28T14:18:44Z</time></trkpt><trkpt lat="39.811351608448284" lon="9.628544858419108"><ele>90.0</ele><time>2026-03-28T14:18:45Z</time></trkpt><trkpt lat="39.811190078918166" lon="9.62832651437778"><ele>90.0</ele><time>2026-03-28T14:18:46Z</time></trkpt><trkpt lat="39.81102752430722" lon="9.628106329621524"><ele>90.0</ele><time>2026-03-28T14:18:47Z</time></trkpt><trkpt lat="39.81086355225534" lon="9.627883591067631"><ele>98.5</ele><time>2026-03-28T14:18:48Z</time></trkpt><trkpt lat="39.81069927143828" lon="9.627658687882779"><ele>107.0</ele><time>2026-03-28T14:18:49Z</time></trkpt><trkpt lat="39.81053019305087" lon="9.627424797585368"><ele>107.0</ele><time>2026-03-28T14:18:50.026Z</time></trkpt><trkpt lat="39.81036506883332" lon="9.627193770440451"><ele>107.0</ele><time>2026-03-28T14:18:51.026Z</time></trkpt><trkpt lat="39.81020003056575" lon="9.626960458908927"><ele>103.5</ele><time>2026-03-28T14:18:52.026Z</time></trkpt><trkpt lat="39.81003388725655" lon="9.626725038446954"><ele>100.0</ele><time>2026-03-28T14:18:53.026Z</time></trkpt><trkpt lat="39.80987682316881" lon="9.6265038278079"><ele>100.0</ele><time>2026-03-28T14:18:53.976Z</time></trkpt><trkpt lat="39.80972243353139" lon="9.626287802776337"><ele>100.0</ele><time>2026-03-28T14:18:54.877Z</time></trkpt><trkpt lat="39.809568547048684" lon="9.626077408619528"><ele>59.0</ele><time>2026-03-28T14:18:55.774Z</time></trkpt><trkpt lat="39.800166030423775" lon="9.61510316596982"><ele>59.0</ele><time>2026-03-28T14:19:46.3Z</time></trkpt><trkpt lat="39.79995121804721" lon="9.614962070665408"><ele>59.0</ele><time>2026-03-28T14:19:47.25Z</time></trkpt><trkpt lat="39.799731531630734" lon="9.61481630908835"><ele>59.0</ele><time>2026-03-28T14:19:48.2Z</time></trkpt><trkpt lat="39.799516089780234" lon="9.614677172529062"><ele>59.0</ele><time>2026-03-28T14:19:49.15Z</time></trkpt><trkpt lat="39.79930000765203" lon="9.614538088199835"><ele>57.5</ele><time>2026-03-28T14:19:50.1Z</time></trkpt><trkpt lat="39.799084398450745" lon="9.614402521176007"><ele>56.0</ele><time>2026-03-28T14:19:51.05Z</time></trkpt><trkpt lat="39.79886426200137" lon="9.614263417874438"><ele>56.0</ele><time>2026-03-28T14:19:52Z</time></trkpt><trkpt lat="39.79863540157352" lon="9.614114225139332"><ele>56.0</ele><time>2026-03-28T14:19:53Z</time></trkpt><trkpt lat="39.798405909049976" lon="9.613961300551079"><ele>56.0</ele><time>2026-03-28T14:19:54Z</time></trkpt><trkpt lat="39.798173518888746" lon="9.613805286921362"><ele>56.0</ele><time>2026-03-28T14:19:55Z</time></trkpt><trkpt lat="39.797956954811276" lon="9.613654881593234"><ele>56.0</ele><time>2026-03-28T14:19:56Z</time></trkpt><trkpt lat="39.79773794522777" lon="9.613493572987613"><ele>56.0</ele><time>2026-03-28T14:19:57Z</time></trkpt><trkpt lat="39.79753457854353" lon="9.613300555807715"><ele>52.0</ele><time>2026-03-28T14:19:58Z</time></trkpt><trkpt lat="39.79732945637519" lon="9.61311558653176"><ele>48.0</ele><time>2026-03-28T14:19:59Z</time></trkpt><trkpt lat="39.79712541919639" lon="9.612919093308053"><ele>44.5</ele><time>2026-03-28T14:20:00Z</time></trkpt><trkpt lat="39.79691889398336" lon="9.612713350679078"><ele>41.0</ele><time>2026-03-28T14:20:01Z</time></trkpt><trkpt lat="39.796705059636146" lon="9.61251023142089"><ele>41.0</ele><time>2026-03-28T14:20:02Z</time></trkpt><trkpt lat="39.796500579509676" lon="9.61229131988954"><ele>41.0</ele><time>2026-03-28T14:20:03Z</time></trkpt><trkpt lat="39.79628951561868" lon="9.61207672970579"><ele>39.0</ele><time>2026-03-28T14:20:04Z</time></trkpt><trkpt lat="39.79607733119214" lon="9.611866321363586"><ele>37.0</ele><time>2026-03-28T14:20:05Z</time></trkpt><trkpt lat="39.79586393362222" lon="9.611653746874143"><ele>34.5</ele><time>2026-03-28T14:20:06Z</time></trkpt><trkpt lat="39.7956518861817" lon="9.611442298342682"><ele>32.0</ele><time>2026-03-28T14:20:07Z</time></trkpt><trkpt lat="39.79544407171888" lon="9.611226546942518"><ele>32.0</ele><time>2026-03-28T14:20:08Z</time></trkpt><trkpt lat="39.795239129958965" lon="9.611011307452412"><ele>32.0</ele><time>2026-03-28T14:20:09Z</time></trkpt><trkpt lat="39.79503247607891" lon="9.610795085816244"><ele>31.0</ele><time>2026-03-28T14:20:10Z</time></trkpt><trkpt lat="39.79482116959204" lon="9.610578631990213"><ele>30.0</ele><time>2026-03-28T14:20:11Z</time></trkpt><trkpt lat="39.7946065532443" lon="9.610365856564153"><ele>30.0</ele><time>2026-03-28T14:20:12Z</time></trkpt><trkpt lat="39.794385492576794" lon="9.610162800625325"><ele>30.0</ele><time>2026-03-28T14:20:13Z</time></trkpt><trkpt lat="39.79415799438429" lon="9.609972363186722"><ele>31.0</ele><time>2026-03-28T14:20:14Z</time></trkpt><trkpt lat="39.79392723530961" lon="9.609795422052239"><ele>32.0</ele><time>2026-03-28T14:20:15Z</time></trkpt><trkpt lat="39.79368992250071" lon="9.60963768258872"><ele>33.5</ele><time>2026-03-28T14:20:16Z</time></trkpt><trkpt lat="39.793447488147564" lon="9.609500108591925"><ele>35.0</ele><time>2026-03-28T14:20:17Z</time></trkpt><trkpt lat="39.79320128339789" lon="9.609386894894373"><ele>35.0</ele><time>2026-03-28T14:20:18Z</time></trkpt><trkpt lat="39.792960113935266" lon="9.60927734774129"><ele>35.0</ele><time>2026-03-28T14:20:19Z</time></trkpt><trkpt lat="39.79271704385316" lon="9.609188489841074"><ele>36.5</ele><time>2026-03-28T14:20:20Z</time></trkpt><trkpt lat="39.79247138556903" lon="9.609113584391244"><ele>38.0</ele><time>2026-03-28T14:20:21Z</time></trkpt><trkpt lat="39.7922324102603" lon="9.609053981752059"><ele>38.0</ele><time>2026-03-28T14:20:22Z</time></trkpt><trkpt lat="39.79200627621114" lon="9.609015955589616"><ele>38.0</ele><time>2026-03-28T14:20:23Z</time></trkpt><trkpt lat="39.79179006741147" lon="9.608984059151371"><ele>38.0</ele><time>2026-03-28T14:20:24Z</time></trkpt><trkpt lat="39.79158944824727" lon="9.608959757513269"><ele>40.0</ele><time>2026-03-28T14:20:25Z</time></trkpt><trkpt lat="39.79140291572097" lon="9.608935809918195"><ele>42.0</ele><time>2026-03-28T14:20:26Z</time></trkpt><trkpt lat="39.79123263016486" lon="9.608912534086102"><ele>44.0</ele><time>2026-03-28T14:20:27Z</time></trkpt><trkpt lat="39.791077514409615" lon="9.608898776132332"><ele>44.0</ele><time>2026-03-28T14:20:28Z</time></trkpt><trkpt lat="39.790936457365504" lon="9.608895075310103"><ele>44.0</ele><time>2026-03-28T14:20:29Z</time></trkpt><trkpt lat="39.79081110760936" lon="9.608887387434676"><ele>44.0</ele><time>2026-03-28T14:20:30Z</time></trkpt><trkpt lat="39.79070566934345" lon="9.608863473674287"><ele>44.0</ele><time>2026-03-28T14:20:31Z</time></trkpt><trkpt lat="39.79063942369956" lon="9.608817779185921"><ele>44.0</ele><time>2026-03-28T14:20:32Z</time></trkpt><trkpt lat="39.790637971138" lon="9.6086513177238"><ele>43.285714285714285</ele><time>2026-03-28T14:20:34Z</time></trkpt><trkpt lat="39.79065399928464" lon="9.608569632072525"><ele>42.57142857142857</ele><time>2026-03-28T14:20:35Z</time></trkpt><trkpt lat="39.790635554905215" lon="9.608464536472303"><ele>41.85714285714286</ele><time>2026-03-28T14:20:37Z</time></trkpt><trkpt lat="39.79062745480616" lon="9.608353907660856"><ele>41.14285714285714</ele><time>2026-03-28T14:20:40Z</time></trkpt><trkpt lat="39.79058927115129" lon="9.608268548996886"><ele>40.42857142857142</ele><time>2026-03-28T14:20:43Z</time></trkpt><trkpt lat="39.790575552403375" lon="9.60818637331185"><ele>39.714285714285715</ele><time>2026-03-28T14:20:46Z</time></trkpt><trkpt lat="39.79050681256993" lon="9.608171233218144"><ele>39.0</ele><time>2026-03-28T14:20:50Z</time></trkpt><trkpt lat="39.79047181438996" lon="9.608047379517858"><ele>39.0</ele><time>2026-03-28T14:26:40Z</time></trkpt><trkpt lat="39.79039992438813" lon="9.608061433414298"><ele>39.0</ele><time>2026-03-28T14:55:46Z</time></trkpt><trkpt lat="39.790335755749645" lon="9.608086288880674"><ele>39.0</ele><time>2026-03-28T14:55:49Z</time></trkpt><trkpt lat="39.7902999902633" lon="9.608162354122124"><ele>39.0</ele><time>2026-03-28T14:55:53Z</time></trkpt><trkpt lat="39.7902714935762" lon="9.60827021785172"><ele>39.0</ele><time>2026-03-28T14:55:57Z</time></trkpt><trkpt lat="39.79020691126188" lon="9.608363507959437"><ele>39.0</ele><time>2026-03-28T14:56:00Z</time></trkpt><trkpt lat="39.79015683459821" lon="9.608473624597506"><ele>39.2</ele><time>2026-03-28T14:56:02Z</time></trkpt><trkpt lat="39.790148857976305" lon="9.608630129870155"><ele>39.4</ele><time>2026-03-28T14:56:04Z</time></trkpt><trkpt lat="39.790139197694735" lon="9.608779344600212"><ele>39.6</ele><time>2026-03-28T14:56:06Z</time></trkpt><trkpt lat="39.79004506234684" lon="9.60887498662909"><ele>39.8</ele><time>2026-03-28T14:56:08Z</time></trkpt><trkpt lat="39.789965445411994" lon="9.608885614558066"><ele>40.0</ele><time>2026-03-28T14:56:09Z</time></trkpt><trkpt lat="39.78988215551463" lon="9.608884350249431"><ele>40.6</ele><time>2026-03-28T14:56:10Z</time></trkpt><trkpt lat="39.78979287846804" lon="9.608914424762862"><ele>41.2</ele><time>2026-03-28T14:56:11Z</time></trkpt><trkpt lat="39.789685386373534" lon="9.608870775424268"><ele>41.8</ele><time>2026-03-28T14:56:12Z</time></trkpt><trkpt lat="39.78957426876509" lon="9.608866735828679"><ele>42.4</ele><time>2026-03-28T14:56:13Z</time></trkpt><trkpt lat="39.789457359887045" lon="9.60886273599225"><ele>43.0</ele><time>2026-03-28T14:56:14Z</time></trkpt><trkpt lat="39.7893308087622" lon="9.608858103863723"><ele>44.5</ele><time>2026-03-28T14:56:15Z</time></trkpt><trkpt lat="39.78919413695306" lon="9.608852988019436"><ele>46.0</ele><time>2026-03-28T14:56:16Z</time></trkpt><trkpt lat="39.789049725217154" lon="9.60884975860796"><ele>47.5</ele><time>2026-03-28T14:56:17Z</time></trkpt><trkpt lat="39.78891058159058" lon="9.608848441039498"><ele>49.0</ele><time>2026-03-28T14:56:18Z</time></trkpt><trkpt lat="39.788761326815575" lon="9.608851568769756"><ele>49.0</ele><time>2026-03-28T14:56:19Z</time></trkpt><trkpt lat="39.78860858923277" lon="9.608859028513073"><ele>49.0</ele><time>2026-03-28T14:56:20Z</time></trkpt><trkpt lat="39.788451862369634" lon="9.608865092222006"><ele>49.0</ele><time>2026-03-28T14:56:21Z</time></trkpt><trkpt lat="39.78829031295098" lon="9.608878998397786"><ele>50.33333333333333</ele><time>2026-03-28T14:56:22Z</time></trkpt><trkpt lat="39.788122974577824" lon="9.608898082125155"><ele>51.66666666666667</ele><time>2026-03-28T14:56:23Z</time></trkpt><trkpt lat="39.78795709981533" lon="9.608921554212511"><ele>53.0</ele><time>2026-03-28T14:56:24Z</time></trkpt><trkpt lat="39.78778905382898" lon="9.608953094041732"><ele>54.333333333333336</ele><time>2026-03-28T14:56:25Z</time></trkpt><trkpt lat="39.78762319509466" lon="9.608994079684862"><ele>55.66666666666667</ele><time>2026-03-28T14:56:26Z</time></trkpt><trkpt lat="39.78745215878152" lon="9.609043955768982"><ele>57.0</ele><time>2026-03-28T14:56:27Z</time></trkpt><trkpt lat="39.78728031244768" lon="9.609100334728723"><ele>57.0</ele><time>2026-03-28T14:56:28Z</time></trkpt><trkpt lat="39.787106696299006" lon="9.609165858354098"><ele>57.0</ele><time>2026-03-28T14:56:29Z</time></trkpt><trkpt lat="39.78692949204285" lon="9.609239853715925"><ele>57.0</ele><time>2026-03-28T14:56:30Z</time></trkpt><trkpt lat="39.786756916009026" lon="9.609322797853112"><ele>57.0</ele><time>2026-03-28T14:56:31Z</time></trkpt><trkpt lat="39.78658322189832" lon="9.609412912083497"><ele>57.0</ele><time>2026-03-28T14:56:32Z</time></trkpt><trkpt lat="39.786409103146454" lon="9.609513101625998"><ele>57.0</ele><time>2026-03-28T14:56:33Z</time></trkpt><trkpt lat="39.78623712091969" lon="9.609622979659235"><ele>59.0</ele><time>2026-03-28T14:56:34Z</time></trkpt><trkpt lat="39.78606504247295" lon="9.609743057557505"><ele>61.0</ele><time>2026-03-28T14:56:35Z</time></trkpt><trkpt lat="39.78589428294655" lon="9.60987077668822"><ele>63.0</ele><time>2026-03-28T14:56:36Z</time></trkpt><trkpt lat="39.785725986836205" lon="9.6100062887896"><ele>63.0</ele><time>2026-03-28T14:56:37Z</time></trkpt><trkpt lat="39.78556309245658" lon="9.61015486059733"><ele>63.0</ele><time>2026-03-28T14:56:38Z</time></trkpt><trkpt lat="39.78540393799571" lon="9.61031364120508"><ele>63.0</ele><time>2026-03-28T14:56:39Z</time></trkpt><trkpt lat="39.78524731873864" lon="9.610479171826148"><ele>67.66666666666667</ele><time>2026-03-28T14:56:40Z</time></trkpt><trkpt lat="39.7850940713343" lon="9.610650180994222"><ele>72.33333333333334</ele><time>2026-03-28T14:56:41Z</time></trkpt><trkpt lat="39.78494142631876" lon="9.610828430640522"><ele>77.0</ele><time>2026-03-28T14:56:42Z</time></trkpt><trkpt lat="39.784792389734555" lon="9.611011427109721"><ele>81.33333333333334</ele><time>2026-03-28T14:56:43Z</time></trkpt><trkpt lat="39.78464660098666" lon="9.611198073218079"><ele>85.66666666666667</ele><time>2026-03-28T14:56:44Z</time></trkpt><trkpt lat="39.78450095510237" lon="9.611388069481295"><ele>90.0</ele><time>2026-03-28T14:56:45Z</time></trkpt><trkpt lat="39.78436019807697" lon="9.611573774458057"><ele>87.66666666666667</ele><time>2026-03-28T14:56:46Z</time></trkpt><trkpt lat="39.78421554843702" lon="9.611768683919436"><ele>85.33333333333334</ele><time>2026-03-28T14:56:47Z</time></trkpt><trkpt lat="39.78406779131505" lon="9.611968061700583"><ele>83.0</ele><time>2026-03-28T14:56:48Z</time></trkpt><trkpt lat="39.78392015469422" lon="9.61216753209274"><ele>83.0</ele><time>2026-03-28T14:56:49Z</time></trkpt><trkpt lat="39.78376937064092" lon="9.61236545964925"><ele>83.0</ele><time>2026-03-28T14:56:50Z</time></trkpt><trkpt lat="39.78360600252469" lon="9.612573977699194"><ele>83.0</ele><time>2026-03-28T14:56:51Z</time></trkpt><trkpt lat="39.783441984133255" lon="9.612773252779249"><ele>78.0</ele><time>2026-03-28T14:56:52Z</time></trkpt><trkpt lat="39.783275642141966" lon="9.612973957104346"><ele>73.0</ele><time>2026-03-28T14:56:53Z</time></trkpt><trkpt lat="39.78310393013949" lon="9.613171364292215"><ele>73.0</ele><time>2026-03-28T14:56:54Z</time></trkpt><trkpt lat="39.7829280175311" lon="9.613360362638542"><ele>73.0</ele><time>2026-03-28T14:56:55Z</time></trkpt><trkpt lat="39.78273651895287" lon="9.61353273304617"><ele>65.5</ele><time>2026-03-28T14:56:56Z</time></trkpt><trkpt lat="39.782535544488105" lon="9.613697488775438"><ele>58.0</ele><time>2026-03-28T14:56:57Z</time></trkpt><trkpt lat="39.7823297465614" lon="9.613853364977627"><ele>58.0</ele><time>2026-03-28T14:56:58Z</time></trkpt><trkpt lat="39.78212044869554" lon="9.613999042518541"><ele>58.0</ele><time>2026-03-28T14:56:59Z</time></trkpt><trkpt lat="39.78190369247719" lon="9.614136786369324"><ele>55.0</ele><time>2026-03-28T14:57:00Z</time></trkpt><trkpt lat="39.78168180282261" lon="9.61426127373022"><ele>52.0</ele><time>2026-03-28T14:57:01Z</time></trkpt><trkpt lat="39.78145275072167" lon="9.614369885924361"><ele>52.0</ele><time>2026-03-28T14:57:02Z</time></trkpt><trkpt lat="39.78122014565259" lon="9.614467396493888"><ele>52.0</ele><time>2026-03-28T14:57:03Z</time></trkpt><trkpt lat="39.78098144462336" lon="9.614553175951828"><ele>49.0</ele><time>2026-03-28T14:57:04Z</time></trkpt><trkpt lat="39.78074125238699" lon="9.614622049574885"><ele>46.0</ele><time>2026-03-28T14:57:05Z</time></trkpt><trkpt lat="39.78049589556689" lon="9.61467627530169"><ele>46.0</ele><time>2026-03-28T14:57:06Z</time></trkpt><trkpt lat="39.78024965107685" lon="9.614716058224037"><ele>46.0</ele><time>2026-03-28T14:57:07Z</time></trkpt><trkpt lat="39.78000096487911" lon="9.614744253993056"><ele>48.0</ele><time>2026-03-28T14:57:08Z</time></trkpt><trkpt lat="39.77975122250755" lon="9.614762751099278"><ele>50.0</ele><time>2026-03-28T14:57:09Z</time></trkpt><trkpt lat="39.77950054167306" lon="9.614773393462777"><ele>50.0</ele><time>2026-03-28T14:57:10Z</time></trkpt><trkpt lat="39.77924889217977" lon="9.614783178404643"><ele>50.0</ele><time>2026-03-28T14:57:11Z</time></trkpt><trkpt lat="39.77899791843725" lon="9.614792412312278"><ele>50.0</ele><time>2026-03-28T14:57:12Z</time></trkpt><trkpt lat="39.7787453539782" lon="9.61479342111457"><ele>50.0</ele><time>2026-03-28T14:57:13Z</time></trkpt><trkpt lat="39.77849247185522" lon="9.614791431961182"><ele>47.5</ele><time>2026-03-28T14:57:14Z</time></trkpt><trkpt lat="39.77823841709905" lon="9.614791434021692"><ele>45.0</ele><time>2026-03-28T14:57:15Z</time></trkpt><trkpt lat="39.777984712707564" lon="9.614793864175988"><ele>45.0</ele><time>2026-03-28T14:57:16Z</time></trkpt><trkpt lat="39.77773066376709" lon="9.614796541057238"><ele>45.0</ele><time>2026-03-28T14:57:17Z</time></trkpt><trkpt lat="39.77747384629624" lon="9.614799973291978"><ele>41.5</ele><time>2026-03-28T14:57:18Z</time></trkpt><trkpt lat="39.77721714038634" lon="9.614802803924357"><ele>38.0</ele><time>2026-03-28T14:57:19Z</time></trkpt><trkpt lat="39.776961672189046" lon="9.614799728588705"><ele>38.5</ele><time>2026-03-28T14:57:20Z</time></trkpt><trkpt lat="39.7767062113827" lon="9.614789971926681"><ele>39.0</ele><time>2026-03-28T14:57:21Z</time></trkpt><trkpt lat="39.776450723297884" lon="9.61477251663101"><ele>39.0</ele><time>2026-03-28T14:57:22Z</time></trkpt><trkpt lat="39.776194817200555" lon="9.614748303138589"><ele>39.0</ele><time>2026-03-28T14:57:23Z</time></trkpt><trkpt lat="39.77594581398974" lon="9.614705977351397"><ele>42.0</ele><time>2026-03-28T14:57:24Z</time></trkpt><trkpt lat="39.77569377570237" lon="9.614643698588823"><ele>45.0</ele><time>2026-03-28T14:57:25Z</time></trkpt><trkpt lat="39.77544104023983" lon="9.614578549823767"><ele>45.0</ele><time>2026-03-28T14:57:26Z</time></trkpt><trkpt lat="39.77519080886355" lon="9.614508868675825"><ele>45.0</ele><time>2026-03-28T14:57:27Z</time></trkpt><trkpt lat="39.774942406435976" lon="9.614436332628413"><ele>46.0</ele><time>2026-03-28T14:57:28Z</time></trkpt><trkpt lat="39.77469565530383" lon="9.614361874774753"><ele>47.0</ele><time>2026-03-28T14:57:29Z</time></trkpt><trkpt lat="39.77445300067613" lon="9.614287728963957"><ele>47.5</ele><time>2026-03-28T14:57:30Z</time></trkpt><trkpt lat="39.774210012005696" lon="9.61421285885339"><ele>48.0</ele><time>2026-03-28T14:57:31Z</time></trkpt><trkpt lat="39.77396741091474" lon="9.614139907524168"><ele>48.0</ele><time>2026-03-28T14:57:32Z</time></trkpt><trkpt lat="39.77372282400164" lon="9.614067697075564"><ele>48.0</ele><time>2026-03-28T14:57:33Z</time></trkpt><trkpt lat="39.77347828665579" lon="9.613995101785868"><ele>49.5</ele><time>2026-03-28T14:57:34Z</time></trkpt><trkpt lat="39.77323567494824" lon="9.613923905336403"><ele>51.0</ele><time>2026-03-28T14:57:35Z</time></trkpt><trkpt lat="39.77299330631255" lon="9.613850066722835"><ele>51.0</ele><time>2026-03-28T14:57:36Z</time></trkpt><trkpt lat="39.772750482982396" lon="9.613775225575118"><ele>51.0</ele><time>2026-03-28T14:57:37Z</time></trkpt><trkpt lat="39.772506638794454" lon="9.613701189172248"><ele>51.5</ele><time>2026-03-28T14:57:38Z</time></trkpt><trkpt lat="39.77226160609238" lon="9.61362860033139"><ele>52.0</ele><time>2026-03-28T14:57:39Z</time></trkpt><trkpt lat="39.77201909821038" lon="9.613557003834051"><ele>54.0</ele><time>2026-03-28T14:57:40Z</time></trkpt><trkpt lat="39.77177778791191" lon="9.613489506671382"><ele>56.0</ele><time>2026-03-28T14:57:41Z</time></trkpt><trkpt lat="39.77153324804722" lon="9.61343998381306"><ele>56.0</ele><time>2026-03-28T14:57:42Z</time></trkpt><trkpt lat="39.771283903491785" lon="9.613414006829057"><ele>56.0</ele><time>2026-03-28T14:57:43Z</time></trkpt><trkpt lat="39.771036611955495" lon="9.61340954906864"><ele>57.0</ele><time>2026-03-28T14:57:44Z</time></trkpt><trkpt lat="39.77078779236009" lon="9.613423912281059"><ele>58.0</ele><time>2026-03-28T14:57:45Z</time></trkpt><trkpt lat="39.770544728126936" lon="9.613454100295357"><ele>58.0</ele><time>2026-03-28T14:57:46Z</time></trkpt><trkpt lat="39.770298435489956" lon="9.613483915009105"><ele>58.0</ele><time>2026-03-28T14:57:47Z</time></trkpt><trkpt lat="39.77005408328273" lon="9.61351896673209"><ele>58.5</ele><time>2026-03-28T14:57:48Z</time></trkpt><trkpt lat="39.76981038006293" lon="9.613556113605098"><ele>59.0</ele><time>2026-03-28T14:57:49Z</time></trkpt><trkpt lat="39.76956761342208" lon="9.613591092480283"><ele>61.0</ele><time>2026-03-28T14:57:50Z</time></trkpt><trkpt lat="39.769326915250836" lon="9.61362258268961"><ele>63.0</ele><time>2026-03-28T14:57:51Z</time></trkpt><trkpt lat="39.76908618831204" lon="9.613648965801806"><ele>61.0</ele><time>2026-03-28T14:57:52Z</time></trkpt><trkpt lat="39.76884559120516" lon="9.613672939924422"><ele>59.0</ele><time>2026-03-28T14:57:53Z</time></trkpt><trkpt lat="39.768604791322375" lon="9.6136926436754"><ele>61.5</ele><time>2026-03-28T14:57:54Z</time></trkpt><trkpt lat="39.76836561555364" lon="9.613709335002119"><ele>64.0</ele><time>2026-03-28T14:57:55Z</time></trkpt><trkpt lat="39.76812629768417" lon="9.613721563942324"><ele>64.0</ele><time>2026-03-28T14:57:56Z</time></trkpt><trkpt lat="39.767889452447214" lon="9.61372389488027"><ele>64.0</ele><time>2026-03-28T14:57:57Z</time></trkpt><trkpt lat="39.76765233961679" lon="9.613710195209906"><ele>65.5</ele><time>2026-03-28T14:57:58Z</time></trkpt><trkpt lat="39.76741641213683" lon="9.61368046456658"><ele>67.0</ele><time>2026-03-28T14:57:59Z</time></trkpt><trkpt lat="39.767180357712505" lon="9.613635801965032"><ele>67.0</ele><time>2026-03-28T14:58:00Z</time></trkpt><trkpt lat="39.76695015811903" lon="9.613577002196097"><ele>67.0</ele><time>2026-03-28T14:58:01Z</time></trkpt><trkpt lat="39.76671991882386" lon="9.613506353513827"><ele>67.5</ele><time>2026-03-28T14:58:02Z</time></trkpt><trkpt lat="39.76649396961791" lon="9.613422007674924"><ele>68.0</ele><time>2026-03-28T14:58:03Z</time></trkpt><trkpt lat="39.76627146277177" lon="9.613322517617545"><ele>68.0</ele><time>2026-03-28T14:58:04Z</time></trkpt><trkpt lat="39.76605603262502" lon="9.613205936688614"><ele>68.0</ele><time>2026-03-28T14:58:05Z</time></trkpt><trkpt lat="39.76584499989447" lon="9.613075913499804"><ele>70.5</ele><time>2026-03-28T14:58:06Z</time></trkpt><trkpt lat="39.7656405918699" lon="9.612932406378413"><ele>73.0</ele><time>2026-03-28T14:58:07Z</time></trkpt><trkpt lat="39.76544390211053" lon="9.61277568190329"><ele>73.0</ele><time>2026-03-28T14:58:08Z</time></trkpt><trkpt lat="39.765255451565295" lon="9.612607438584876"><ele>73.0</ele><time>2026-03-28T14:58:09Z</time></trkpt><trkpt lat="39.76507270878327" lon="9.612424542953416"><ele>75.5</ele><time>2026-03-28T14:58:10Z</time></trkpt><trkpt lat="39.76490187115468" lon="9.612224888410063"><ele>78.0</ele><time>2026-03-28T14:58:11Z</time></trkpt><trkpt lat="39.76473140895623" lon="9.612022954016341"><ele>76.5</ele><time>2026-03-28T14:58:12Z</time></trkpt><trkpt lat="39.76456571941185" lon="9.611812564634254"><ele>75.0</ele><time>2026-03-28T14:58:13Z</time></trkpt><trkpt lat="39.76441400276756" lon="9.611589698965771"><ele>75.0</ele><time>2026-03-28T14:58:14Z</time></trkpt><trkpt lat="39.764273281986426" lon="9.6113532280325"><ele>75.0</ele><time>2026-03-28T14:58:15Z</time></trkpt><trkpt lat="39.76414452752529" lon="9.611106846217298"><ele>75.5</ele><time>2026-03-28T14:58:16Z</time></trkpt><trkpt lat="39.76402049007658" lon="9.610848961486417"><ele>76.0</ele><time>2026-03-28T14:58:17Z</time></trkpt><trkpt lat="39.76390640258172" lon="9.610586376035695"><ele>78.0</ele><time>2026-03-28T14:58:18Z</time></trkpt><trkpt lat="39.76380165526773" lon="9.61031533170081"><ele>80.0</ele><time>2026-03-28T14:58:19Z</time></trkpt><trkpt lat="39.76370698681891" lon="9.61003669192445"><ele>80.0</ele><time>2026-03-28T14:58:20Z</time></trkpt><trkpt lat="39.763625395360265" lon="9.609751337932565"><ele>80.0</ele><time>2026-03-28T14:58:21Z</time></trkpt><trkpt lat="39.763558920681746" lon="9.60946197772828"><ele>84.5</ele><time>2026-03-28T14:58:22Z</time></trkpt><trkpt lat="39.76350067014666" lon="9.609163514675148"><ele>89.0</ele><time>2026-03-28T14:58:23Z</time></trkpt><trkpt lat="39.76345235395738" lon="9.608861620998896"><ele>92.5</ele><time>2026-03-28T14:58:24Z</time></trkpt><trkpt lat="39.763408305798364" lon="9.608555837040122"><ele>96.0</ele><time>2026-03-28T14:58:25Z</time></trkpt><trkpt lat="39.763371079947945" lon="9.608249377088006"><ele>96.0</ele><time>2026-03-28T14:58:26Z</time></trkpt><trkpt lat="39.76334457208156" lon="9.607946214960482"><ele>96.0</ele><time>2026-03-28T14:58:27Z</time></trkpt><trkpt lat="39.763325974145864" lon="9.60764247108899"><ele>95.0</ele><time>2026-03-28T14:58:28Z</time></trkpt><trkpt lat="39.76331148228047" lon="9.607340559328218"><ele>94.0</ele><time>2026-03-28T14:58:29Z</time></trkpt><trkpt lat="39.76330033850462" lon="9.607032395595493"><ele>94.5</ele><time>2026-03-28T14:58:30Z</time></trkpt><trkpt lat="39.7632895463163" lon="9.606729796772825"><ele>95.0</ele><time>2026-03-28T14:58:31Z</time></trkpt><trkpt lat="39.7632787519405" lon="9.60642292518163"><ele>95.5</ele><time>2026-03-28T14:58:32Z</time></trkpt><trkpt lat="39.76326886786993" lon="9.606120350645611"><ele>96.0</ele><time>2026-03-28T14:58:33Z</time></trkpt><trkpt lat="39.76326046671404" lon="9.60581220169463"><ele>96.0</ele><time>2026-03-28T14:58:34Z</time></trkpt><trkpt lat="39.76325116608167" lon="9.60550897353701"><ele>96.0</ele><time>2026-03-28T14:58:35Z</time></trkpt><trkpt lat="39.7632415126226" lon="9.605206506642958"><ele>97.0</ele><time>2026-03-28T14:58:36Z</time></trkpt><trkpt lat="39.7632305942735" lon="9.604906942799918"><ele>98.0</ele><time>2026-03-28T14:58:37Z</time></trkpt><trkpt lat="39.76322361870624" lon="9.604603509749229"><ele>98.0</ele><time>2026-03-28T14:58:38Z</time></trkpt><trkpt lat="39.76321578439141" lon="9.604307093632585"><ele>98.0</ele><time>2026-03-28T14:58:39Z</time></trkpt><trkpt lat="39.76320004526776" lon="9.60400722002532"><ele>98.0</ele><time>2026-03-28T14:58:40Z</time></trkpt><trkpt lat="39.763174789680136" lon="9.603706474575958"><ele>98.0</ele><time>2026-03-28T14:58:41Z</time></trkpt><trkpt lat="39.76314058653842" lon="9.603407466110237"><ele>100.0</ele><time>2026-03-28T14:58:42Z</time></trkpt><trkpt lat="39.76309791918996" lon="9.603106034786347"><ele>102.0</ele><time>2026-03-28T14:58:43Z</time></trkpt><trkpt lat="39.763047399615495" lon="9.602811113962366"><ele>106.5</ele><time>2026-03-28T14:58:44Z</time></trkpt><trkpt lat="39.7629883559695" lon="9.602518899756749"><ele>111.0</ele><time>2026-03-28T14:58:45Z</time></trkpt><trkpt lat="39.762916840495684" lon="9.602227713813408"><ele>111.0</ele><time>2026-03-28T14:58:46Z</time></trkpt><trkpt lat="39.76283585053218" lon="9.601939535317646"><ele>111.0</ele><time>2026-03-28T14:58:47Z</time></trkpt><trkpt lat="39.76274560585402" lon="9.601654257109864"><ele>116.5</ele><time>2026-03-28T14:58:48Z</time></trkpt><trkpt lat="39.762651474440034" lon="9.601373102499295"><ele>122.0</ele><time>2026-03-28T14:58:49Z</time></trkpt><trkpt lat="39.76255714510739" lon="9.601090432491533"><ele>122.0</ele><time>2026-03-28T14:58:50Z</time></trkpt><trkpt lat="39.76245967382014" lon="9.600797897375928"><ele>122.0</ele><time>2026-03-28T14:58:51Z</time></trkpt><trkpt lat="39.762356048433205" lon="9.600513583712775"><ele>117.0</ele><time>2026-03-28T14:58:52Z</time></trkpt><trkpt lat="39.76225444301088" lon="9.600224625972107"><ele>112.0</ele><time>2026-03-28T14:58:53Z</time></trkpt><trkpt lat="39.76215187264186" lon="9.59993773152027"><ele>112.0</ele><time>2026-03-28T14:58:54Z</time></trkpt><trkpt lat="39.7620500565149" lon="9.599650295341016"><ele>112.0</ele><time>2026-03-28T14:58:55Z</time></trkpt><trkpt lat="39.761949152062925" lon="9.599367041464259"><ele>116.0</ele><time>2026-03-28T14:58:56Z</time></trkpt><trkpt lat="39.761847569131135" lon="9.599083105584647"><ele>120.0</ele><time>2026-03-28T14:58:57Z</time></trkpt><trkpt lat="39.761748576247996" lon="9.59879690816909"><ele>121.0</ele><time>2026-03-28T14:58:58Z</time></trkpt><trkpt lat="39.76164679406752" lon="9.59851478763063"><ele>122.0</ele><time>2026-03-28T14:58:59Z</time></trkpt><trkpt lat="39.76154275434595" lon="9.598229800370456"><ele>122.0</ele><time>2026-03-28T14:59:00Z</time></trkpt><trkpt lat="39.761443816120845" lon="9.597948154208968"><ele>122.0</ele><time>2026-03-28T14:59:01Z</time></trkpt><trkpt lat="39.7613461887135" lon="9.597672249115138"><ele>127.0</ele><time>2026-03-28T14:59:02Z</time></trkpt><trkpt lat="39.761247309846375" lon="9.59739468538359"><ele>132.0</ele><time>2026-03-28T14:59:03Z</time></trkpt><trkpt lat="39.761149123949025" lon="9.597121814425979"><ele>131.5</ele><time>2026-03-28T14:59:04Z</time></trkpt><trkpt lat="39.761050244354735" lon="9.596851579505033"><ele>131.0</ele><time>2026-03-28T14:59:05Z</time></trkpt><trkpt lat="39.760953260078544" lon="9.596579303523553"><ele>135.0</ele><time>2026-03-28T14:59:06Z</time></trkpt><trkpt lat="39.760860557489615" lon="9.596314924224172"><ele>139.0</ele><time>2026-03-28T14:59:07Z</time></trkpt><trkpt lat="39.76076979681796" lon="9.596057369331309"><ele>143.0</ele><time>2026-03-28T14:59:08Z</time></trkpt><trkpt lat="39.760683886985355" lon="9.595813027882654"><ele>143.0</ele><time>2026-03-28T14:59:09Z</time></trkpt><trkpt lat="39.760603002947946" lon="9.595574144544358"><ele>143.0</ele><time>2026-03-28T14:59:10Z</time></trkpt><trkpt lat="39.760529307742715" lon="9.595340946588001"><ele>143.0</ele><time>2026-03-28T14:59:11Z</time></trkpt><trkpt lat="39.76046419842917" lon="9.595116121867376"><ele>142.66666666666666</ele><time>2026-03-28T14:59:12Z</time></trkpt><trkpt lat="39.760402039623564" lon="9.594894611608165"><ele>142.33333333333334</ele><time>2026-03-28T14:59:13Z</time></trkpt><trkpt lat="39.76034514093372" lon="9.594677484950678"><ele>142.0</ele><time>2026-03-28T14:59:14Z</time></trkpt><trkpt lat="39.76029912225904" lon="9.594462015219934"><ele>141.66666666666669</ele><time>2026-03-28T14:59:15Z</time></trkpt><trkpt lat="39.76025757476256" lon="9.594251861848917"><ele>141.33333333333334</ele><time>2026-03-28T14:59:16Z</time></trkpt><trkpt lat="39.760221453833786" lon="9.594044616166002"><ele>141.0</ele><time>2026-03-28T14:59:17Z</time></trkpt><trkpt lat="39.760188207162685" lon="9.593837392947922"><ele>150.66666666666666</ele><time>2026-03-28T14:59:18Z</time></trkpt><trkpt lat="39.76015668771899" lon="9.593629534243629"><ele>160.33333333333331</ele><time>2026-03-28T14:59:19Z</time></trkpt><trkpt lat="39.76012911953811" lon="9.593426215883227"><ele>170.0</ele><time>2026-03-28T14:59:20Z</time></trkpt><trkpt lat="39.76012503202672" lon="9.59321477459403"><ele>170.0</ele><time>2026-03-28T14:59:21Z</time></trkpt><trkpt lat="39.76011194850538" lon="9.593008163977855"><ele>170.0</ele><time>2026-03-28T14:59:22Z</time></trkpt><trkpt lat="39.76009976356291" lon="9.592800119980396"><ele>170.0</ele><time>2026-03-28T14:59:23Z</time></trkpt><trkpt lat="39.7600892217974" lon="9.592592081706037"><ele>169.66666666666666</ele><time>2026-03-28T14:59:24Z</time></trkpt><trkpt lat="39.76007878797004" lon="9.592376587925358"><ele>169.33333333333334</ele><time>2026-03-28T14:59:25.026Z</time></trkpt><trkpt lat="39.760068527189425" lon="9.592165445065051"><ele>169.0</ele><time>2026-03-28T14:59:26.027Z</time></trkpt><trkpt lat="39.76005820158628" lon="9.591957153714333"><ele>165.0</ele><time>2026-03-28T14:59:27.026Z</time></trkpt><trkpt lat="39.76003116698666" lon="9.591299953767672"><ele>165.66666666666666</ele><time>2026-03-28T14:59:29.45Z</time></trkpt><trkpt lat="39.76002199718054" lon="9.591084759778521"><ele>166.33333333333331</ele><time>2026-03-28T14:59:30.4Z</time></trkpt><trkpt lat="39.760015522961034" lon="9.590871584398029"><ele>167.0</ele><time>2026-03-28T14:59:31.35Z</time></trkpt><trkpt lat="39.760001657708045" lon="9.590666677570193"><ele>167.0</ele><time>2026-03-28T14:59:32.3Z</time></trkpt><trkpt lat="39.759979742782285" lon="9.590467571893685"><ele>167.0</ele><time>2026-03-28T14:59:33.25Z</time></trkpt><trkpt lat="39.759994696861405" lon="9.590282753263876"><ele>167.0</ele><time>2026-03-28T14:59:34.2Z</time></trkpt><trkpt lat="39.759940882490724" lon="9.590052303214296"><ele>174.33333333333331</ele><time>2026-03-28T14:59:35.15Z</time></trkpt><trkpt lat="39.75993005704158" lon="9.589854270525418"><ele>181.66666666666666</ele><time>2026-03-28T14:59:36.1Z</time></trkpt><trkpt lat="39.75991251635939" lon="9.58965199301547"><ele>189.0</ele><time>2026-03-28T14:59:37.05Z</time></trkpt><trkpt lat="39.75989200220983" lon="9.589436495620136"><ele>201.0</ele><time>2026-03-28T14:59:38.025Z</time></trkpt><trkpt lat="39.75987560235352" lon="9.589223920938258"><ele>213.0</ele><time>2026-03-28T14:59:39.026Z</time></trkpt><trkpt lat="39.7598512730451" lon="9.58900683170483"><ele>225.0</ele><time>2026-03-28T14:59:40.026Z</time></trkpt><trkpt lat="39.75982817118327" lon="9.588797110080822"><ele>243.5</ele><time>2026-03-28T14:59:41.026Z</time></trkpt><trkpt lat="39.75980696701692" lon="9.58858327660233"><ele>262.0</ele><time>2026-03-28T14:59:42.025Z</time></trkpt><trkpt lat="39.75268160552704" lon="9.578906842655902"><ele>240.25</ele><time>2026-03-28T15:00:44.8Z</time></trkpt><trkpt lat="39.75255903218274" lon="9.578819264359158"><ele>218.5</ele><time>2026-03-28T15:00:45.75Z</time></trkpt><trkpt lat="39.75245135692441" lon="9.578736634308983"><ele>196.75</ele><time>2026-03-28T15:00:46.7Z</time></trkpt><trkpt lat="39.75232352479712" lon="9.57864258352999"><ele>175.0</ele><time>2026-03-28T15:00:47.65Z</time></trkpt><trkpt lat="39.752201165847005" lon="9.578547177865884"><ele>174.25</ele><time>2026-03-28T15:00:48.6Z</time></trkpt><trkpt lat="39.75206926978544" lon="9.578457308157047"><ele>173.5</ele><time>2026-03-28T15:00:49.55Z</time></trkpt><trkpt lat="39.751936628461955" lon="9.578371185623732"><ele>172.75</ele><time>2026-03-28T15:00:50.5Z</time></trkpt><trkpt lat="39.751799769607" lon="9.5782890684064"><ele>172.0</ele><time>2026-03-28T15:00:51.45Z</time></trkpt><trkpt lat="39.75166084626768" lon="9.578214640861919"><ele>170.33333333333334</ele><time>2026-03-28T15:00:52.4Z</time></trkpt><trkpt lat="39.75151905195399" lon="9.57814406308025"><ele>168.66666666666666</ele><time>2026-03-28T15:00:53.35Z</time></trkpt><trkpt lat="39.75137319269681" lon="9.578081350934943"><ele>167.0</ele><time>2026-03-28T15:00:54.3Z</time></trkpt><trkpt lat="39.751221890870056" lon="9.578024153684275"><ele>167.0</ele><time>2026-03-28T15:00:55.25Z</time></trkpt><trkpt lat="39.75106872229249" lon="9.577975044810188"><ele>167.0</ele><time>2026-03-28T15:00:56.2Z</time></trkpt><trkpt lat="39.75090972856827" lon="9.577930926770504"><ele>167.0</ele><time>2026-03-28T15:00:57.15Z</time></trkpt><trkpt lat="39.750747944533074" lon="9.57789087097479"><ele>167.33333333333331</ele><time>2026-03-28T15:00:58.1Z</time></trkpt><trkpt lat="39.75058223520937" lon="9.577856629451285"><ele>167.66666666666666</ele><time>2026-03-28T15:00:59.05Z</time></trkpt><trkpt lat="39.75041609966337" lon="9.577830411516024"><ele>168.0</ele><time>2026-03-28T15:01:00Z</time></trkpt><trkpt lat="39.75024069403971" lon="9.577813624198916"><ele>167.0</ele><time>2026-03-28T15:01:01Z</time></trkpt><trkpt lat="39.75006315222416" lon="9.577805561334412"><ele>166.0</ele><time>2026-03-28T15:01:02Z</time></trkpt><trkpt lat="39.7498844515704" lon="9.577802757697997"><ele>165.0</ele><time>2026-03-28T15:01:03Z</time></trkpt><trkpt lat="39.74970474680903" lon="9.577808772436029"><ele>165.0</ele><time>2026-03-28T15:01:04Z</time></trkpt><trkpt lat="39.74952634567376" lon="9.577828507639323"><ele>165.0</ele><time>2026-03-28T15:01:05Z</time></trkpt><trkpt lat="39.74935154749832" lon="9.5778589979252"><ele>165.0</ele><time>2026-03-28T15:01:06Z</time></trkpt><trkpt lat="39.74917688946139" lon="9.5778999532578"><ele>166.0</ele><time>2026-03-28T15:01:07Z</time></trkpt><trkpt lat="39.74900252793902" lon="9.577949299845596"><ele>167.0</ele><time>2026-03-28T15:01:08Z</time></trkpt><trkpt lat="39.74882972747291" lon="9.57800304706298"><ele>168.0</ele><time>2026-03-28T15:01:09Z</time></trkpt><trkpt lat="39.74865523070859" lon="9.578064758468962"><ele>166.66666666666666</ele><time>2026-03-28T15:01:10Z</time></trkpt><trkpt lat="39.7484789877802" lon="9.578137865693074"><ele>165.33333333333331</ele><time>2026-03-28T15:01:11Z</time></trkpt><trkpt lat="39.748301887609315" lon="9.578214219202794"><ele>164.0</ele><time>2026-03-28T15:01:12Z</time></trkpt><trkpt lat="39.74812139273165" lon="9.578299576093674"><ele>164.0</ele><time>2026-03-28T15:01:13Z</time></trkpt><trkpt lat="39.74793509778999" lon="9.578390106683505"><ele>164.0</ele><time>2026-03-28T15:01:14Z</time></trkpt><trkpt lat="39.74774555101164" lon="9.578485768140325"><ele>164.0</ele><time>2026-03-28T15:01:15Z</time></trkpt><trkpt lat="39.7475523087899" lon="9.578592447111212"><ele>164.5</ele><time>2026-03-28T15:01:16Z</time></trkpt><trkpt lat="39.74735149394897" lon="9.578711521894258"><ele>165.0</ele><time>2026-03-28T15:01:17Z</time></trkpt><trkpt lat="39.74713791531273" lon="9.57883754911165"><ele>165.0</ele><time>2026-03-28T15:01:18Z</time></trkpt><trkpt lat="39.746913560625906" lon="9.578934534483633"><ele>165.0</ele><time>2026-03-28T15:01:19Z</time></trkpt><trkpt lat="39.74669447449522" lon="9.579060455055703"><ele>164.0</ele><time>2026-03-28T15:01:20Z</time></trkpt><trkpt lat="39.74646638516451" lon="9.579150996897559"><ele>163.0</ele><time>2026-03-28T15:01:21Z</time></trkpt><trkpt lat="39.74623798546234" lon="9.579238215328058"><ele>161.0</ele><time>2026-03-28T15:01:22Z</time></trkpt><trkpt lat="39.74600788651204" lon="9.57932447753597"><ele>159.0</ele><time>2026-03-28T15:01:23Z</time></trkpt><trkpt lat="39.74577853936216" lon="9.579403065567135"><ele>159.0</ele><time>2026-03-28T15:01:24Z</time></trkpt><trkpt lat="39.745548949179394" lon="9.579461114508364"><ele>159.0</ele><time>2026-03-28T15:01:25Z</time></trkpt><trkpt lat="39.74532005576645" lon="9.57949396254127"><ele>158.5</ele><time>2026-03-28T15:01:26Z</time></trkpt><trkpt lat="39.74509266486608" lon="9.57951050404327"><ele>158.0</ele><time>2026-03-28T15:01:27Z</time></trkpt><trkpt lat="39.74487025243976" lon="9.57951699078792"><ele>158.0</ele><time>2026-03-28T15:01:28Z</time></trkpt><trkpt lat="39.74464977251852" lon="9.57951099995524"><ele>158.0</ele><time>2026-03-28T15:01:29Z</time></trkpt><trkpt lat="39.7444292764445" lon="9.579490655339328"><ele>158.0</ele><time>2026-03-28T15:01:30Z</time></trkpt><trkpt lat="39.74420899972423" lon="9.579457442444296"><ele>157.0</ele><time>2026-03-28T15:01:31Z</time></trkpt><trkpt lat="39.74399059536535" lon="9.579411706459746"><ele>156.0</ele><time>2026-03-28T15:01:32Z</time></trkpt><trkpt lat="39.74377253476938" lon="9.579356632362371"><ele>155.0</ele><time>2026-03-28T15:01:33Z</time></trkpt><trkpt lat="39.74355344787541" lon="9.579293933204761"><ele>154.0</ele><time>2026-03-28T15:01:34Z</time></trkpt><trkpt lat="39.743332581427204" lon="9.579226169826297"><ele>153.0</ele><time>2026-03-28T15:01:35Z</time></trkpt><trkpt lat="39.74310857371392" lon="9.579156980339263"><ele>153.0</ele><time>2026-03-28T15:01:36Z</time></trkpt><trkpt lat="39.74288056875722" lon="9.579089588953158"><ele>153.0</ele><time>2026-03-28T15:01:37Z</time></trkpt><trkpt lat="39.74265069001125" lon="9.57902189460635"><ele>152.0</ele><time>2026-03-28T15:01:38Z</time></trkpt><trkpt lat="39.74241774007504" lon="9.578953940233738"><ele>151.0</ele><time>2026-03-28T15:01:39Z</time></trkpt><trkpt lat="39.74218588808497" lon="9.578886693514287"><ele>151.0</ele><time>2026-03-28T15:01:40Z</time></trkpt><trkpt lat="39.7419537379222" lon="9.578817795780225"><ele>151.0</ele><time>2026-03-28T15:01:41Z</time></trkpt><trkpt lat="39.741722271486786" lon="9.578746510660869"><ele>150.5</ele><time>2026-03-28T15:01:42Z</time></trkpt><trkpt lat="39.741493649845296" lon="9.578676232122616"><ele>150.0</ele><time>2026-03-28T15:01:43Z</time></trkpt><trkpt lat="39.74126548189672" lon="9.578605916110085"><ele>148.5</ele><time>2026-03-28T15:01:44Z</time></trkpt><trkpt lat="39.74104061325949" lon="9.578536277772736"><ele>147.0</ele><time>2026-03-28T15:01:45Z</time></trkpt><trkpt lat="39.740817247745234" lon="9.578469583266767"><ele>147.0</ele><time>2026-03-28T15:01:46Z</time></trkpt><trkpt lat="39.74059385639696" lon="9.578406352681311"><ele>147.0</ele><time>2026-03-28T15:01:47Z</time></trkpt><trkpt lat="39.74036989040068" lon="9.578343875730273"><ele>146.5</ele><time>2026-03-28T15:01:48Z</time></trkpt><trkpt lat="39.74014612635216" lon="9.578280200221943"><ele>146.0</ele><time>2026-03-28T15:01:49Z</time></trkpt><trkpt lat="39.7399241152444" lon="9.57821691817578"><ele>146.0</ele><time>2026-03-28T15:01:50Z</time></trkpt><trkpt lat="39.739701380713214" lon="9.578159563401325"><ele>146.0</ele><time>2026-03-28T15:01:51Z</time></trkpt><trkpt lat="39.73948322666134" lon="9.578112001054524"><ele>146.0</ele><time>2026-03-28T15:01:52Z</time></trkpt><trkpt lat="39.739264873487365" lon="9.578070979304586"><ele>145.33333333333331</ele><time>2026-03-28T15:01:53Z</time></trkpt><trkpt lat="39.73904713236059" lon="9.578032083287754"><ele>144.66666666666666</ele><time>2026-03-28T15:01:54Z</time></trkpt><trkpt lat="39.73882748863758" lon="9.577993450202857"><ele>144.0</ele><time>2026-03-28T15:01:55Z</time></trkpt><trkpt lat="39.73860479627966" lon="9.577959679405296"><ele>144.5</ele><time>2026-03-28T15:01:56Z</time></trkpt><trkpt lat="39.73837829984262" lon="9.577935795518789"><ele>145.0</ele><time>2026-03-28T15:01:57Z</time></trkpt><trkpt lat="39.73814465849537" lon="9.577919760308305"><ele>145.0</ele><time>2026-03-28T15:01:58Z</time></trkpt><trkpt lat="39.737906246308974" lon="9.577905253194631"><ele>145.0</ele><time>2026-03-28T15:01:59Z</time></trkpt><trkpt lat="39.737669413253684" lon="9.577888629149559"><ele>144.0</ele><time>2026-03-28T15:02:00Z</time></trkpt><trkpt lat="39.73743319296377" lon="9.577870766714678"><ele>143.0</ele><time>2026-03-28T15:02:01Z</time></trkpt><trkpt lat="39.737197531773795" lon="9.577852621383364"><ele>143.5</ele><time>2026-03-28T15:02:02Z</time></trkpt><trkpt lat="39.73696345332777" lon="9.577834227727145"><ele>144.0</ele><time>2026-03-28T15:02:03Z</time></trkpt><trkpt lat="39.7367308666367" lon="9.57781676962941"><ele>144.0</ele><time>2026-03-28T15:02:04Z</time></trkpt><trkpt lat="39.73649749385313" lon="9.577803782302064"><ele>144.0</ele><time>2026-03-28T15:02:05Z</time></trkpt><trkpt lat="39.73626120323662" lon="9.5777962441915"><ele>143.0</ele><time>2026-03-28T15:02:06Z</time></trkpt><trkpt lat="39.73602138569172" lon="9.577790342723267"><ele>142.0</ele><time>2026-03-28T15:02:07Z</time></trkpt><trkpt lat="39.735780605772234" lon="9.577786056412108"><ele>142.0</ele><time>2026-03-28T15:02:08Z</time></trkpt><trkpt lat="39.73553602356012" lon="9.577785795373716"><ele>142.0</ele><time>2026-03-28T15:02:09Z</time></trkpt><trkpt lat="39.73528260829598" lon="9.577796064356102"><ele>142.0</ele><time>2026-03-28T15:02:10Z</time></trkpt><trkpt lat="39.73502838920419" lon="9.577810754552829"><ele>142.0</ele><time>2026-03-28T15:02:11Z</time></trkpt><trkpt lat="39.73477112337211" lon="9.577827517879856"><ele>142.0</ele><time>2026-03-28T15:02:12Z</time></trkpt><trkpt lat="39.734513512029686" lon="9.57784601136628"><ele>142.0</ele><time>2026-03-28T15:02:13Z</time></trkpt><trkpt lat="39.73425373342671" lon="9.577870993475342"><ele>140.5</ele><time>2026-03-28T15:02:14Z</time></trkpt><trkpt lat="39.73398578583752" lon="9.577883015338296"><ele>139.0</ele><time>2026-03-28T15:02:15Z</time></trkpt><trkpt lat="39.73371517116835" lon="9.5779187289083"><ele>139.0</ele><time>2026-03-28T15:02:16Z</time></trkpt><trkpt lat="39.733442454210135" lon="9.577981785103105"><ele>139.0</ele><time>2026-03-28T15:02:17Z</time></trkpt><trkpt lat="39.733167335168304" lon="9.57802485858764"><ele>139.0</ele><time>2026-03-28T15:02:18Z</time></trkpt><trkpt lat="39.73290060133876" lon="9.578075794249745"><ele>139.0</ele><time>2026-03-28T15:02:19Z</time></trkpt><trkpt lat="39.732634536526625" lon="9.578116037408925"><ele>139.5</ele><time>2026-03-28T15:02:20Z</time></trkpt><trkpt lat="39.73235988099275" lon="9.578180800841753"><ele>140.0</ele><time>2026-03-28T15:02:21Z</time></trkpt><trkpt lat="39.73207986577362" lon="9.578250870332706"><ele>139.5</ele><time>2026-03-28T15:02:22Z</time></trkpt><trkpt lat="39.73180716663977" lon="9.578328730863035"><ele>139.0</ele><time>2026-03-28T15:02:23Z</time></trkpt><trkpt lat="39.731534109315184" lon="9.578393881938208"><ele>139.0</ele><time>2026-03-28T15:02:24Z</time></trkpt><trkpt lat="39.73126075354862" lon="9.578468109104946"><ele>139.0</ele><time>2026-03-28T15:02:25Z</time></trkpt><trkpt lat="39.730987519512695" lon="9.578545535867699"><ele>137.5</ele><time>2026-03-28T15:02:26Z</time></trkpt><trkpt lat="39.73071443916926" lon="9.578623786074491"><ele>136.0</ele><time>2026-03-28T15:02:27Z</time></trkpt><trkpt lat="39.730442310254496" lon="9.57870077207891"><ele>135.0</ele><time>2026-03-28T15:02:28Z</time></trkpt><trkpt lat="39.73016810418944" lon="9.578776512620127"><ele>134.0</ele><time>2026-03-28T15:02:29Z</time></trkpt><trkpt lat="39.72989432221883" lon="9.578852023085648"><ele>134.0</ele><time>2026-03-28T15:02:30Z</time></trkpt><trkpt lat="39.72962203402874" lon="9.57892713450038"><ele>134.0</ele><time>2026-03-28T15:02:31Z</time></trkpt><trkpt lat="39.72934664245083" lon="9.579005191403017"><ele>135.5</ele><time>2026-03-28T15:02:32Z</time></trkpt><trkpt lat="39.72907493319145" lon="9.579084582615998"><ele>137.0</ele><time>2026-03-28T15:02:33Z</time></trkpt><trkpt lat="39.728801748463425" lon="9.57916642472735"><ele>138.5</ele><time>2026-03-28T15:02:34Z</time></trkpt><trkpt lat="39.72852881355222" lon="9.579246628571545"><ele>140.0</ele><time>2026-03-28T15:02:35Z</time></trkpt><trkpt lat="39.72825650266713" lon="9.579323657017653"><ele>140.0</ele><time>2026-03-28T15:02:36Z</time></trkpt><trkpt lat="39.727983846697654" lon="9.579398920873874"><ele>140.0</ele><time>2026-03-28T15:02:37Z</time></trkpt><trkpt lat="39.72771141335128" lon="9.579476114609035"><ele>137.5</ele><time>2026-03-28T15:02:38Z</time></trkpt><trkpt lat="39.72743601356724" lon="9.579559789210075"><ele>135.0</ele><time>2026-03-28T15:02:39Z</time></trkpt><trkpt lat="39.727161002547874" lon="9.579652121251113"><ele>135.0</ele><time>2026-03-28T15:02:40Z</time></trkpt><trkpt lat="39.726882301898975" lon="9.579752171804431"><ele>135.0</ele><time>2026-03-28T15:02:41Z</time></trkpt><trkpt lat="39.72660321913358" lon="9.579855174174808"><ele>135.0</ele><time>2026-03-28T15:02:42Z</time></trkpt><trkpt lat="39.72632072709569" lon="9.579961529240554"><ele>135.0</ele><time>2026-03-28T15:02:43Z</time></trkpt><trkpt lat="39.72603693428677" lon="9.580073808160344"><ele>135.5</ele><time>2026-03-28T15:02:44Z</time></trkpt><trkpt lat="39.72575554364467" lon="9.580195621690901"><ele>136.0</ele><time>2026-03-28T15:02:45Z</time></trkpt><trkpt lat="39.72547158592432" lon="9.580327221539232"><ele>134.0</ele><time>2026-03-28T15:02:46Z</time></trkpt><trkpt lat="39.72518783507092" lon="9.580460866905225"><ele>132.0</ele><time>2026-03-28T15:02:47Z</time></trkpt><trkpt lat="39.724906256735615" lon="9.580593427407852"><ele>132.0</ele><time>2026-03-28T15:02:48Z</time></trkpt><trkpt lat="39.72462989937634" lon="9.580723798704476"><ele>132.0</ele><time>2026-03-28T15:02:49Z</time></trkpt><trkpt lat="39.724358470266274" lon="9.580853024200824"><ele>131.0</ele><time>2026-03-28T15:02:50Z</time></trkpt><trkpt lat="39.72409171165908" lon="9.58098045418045"><ele>130.0</ele><time>2026-03-28T15:02:51Z</time></trkpt><trkpt lat="39.72382769288705" lon="9.581103509227681"><ele>129.5</ele><time>2026-03-28T15:02:52Z</time></trkpt><trkpt lat="39.72356586923181" lon="9.581219817308247"><ele>129.0</ele><time>2026-03-28T15:02:53Z</time></trkpt><trkpt lat="39.72330332750724" lon="9.58132013213168"><ele>128.5</ele><time>2026-03-28T15:02:54Z</time></trkpt><trkpt lat="39.72303979589574" lon="9.581404826795161"><ele>128.0</ele><time>2026-03-28T15:02:55Z</time></trkpt><trkpt lat="39.72277641513073" lon="9.5814739929171"><ele>128.0</ele><time>2026-03-28T15:02:56Z</time></trkpt><trkpt lat="39.722513898599125" lon="9.581524781509513"><ele>128.0</ele><time>2026-03-28T15:02:57Z</time></trkpt><trkpt lat="39.72225264747482" lon="9.581559529225515"><ele>128.0</ele><time>2026-03-28T15:02:58Z</time></trkpt><trkpt lat="39.72199712825249" lon="9.581585016448503"><ele>128.0</ele><time>2026-03-28T15:02:59Z</time></trkpt><trkpt lat="39.72174599903721" lon="9.581607231291391"><ele>128.0</ele><time>2026-03-28T15:03:00Z</time></trkpt><trkpt lat="39.72149682476791" lon="9.581629804123097"><ele>128.0</ele><time>2026-03-28T15:03:01Z</time></trkpt><trkpt lat="39.721251084596446" lon="9.58165136572989"><ele>127.0</ele><time>2026-03-28T15:03:02Z</time></trkpt><trkpt lat="39.72101265852601" lon="9.58167581354107"><ele>126.0</ele><time>2026-03-28T15:03:03Z</time></trkpt><trkpt lat="39.72077322570731" lon="9.581708308041263"><ele>126.0</ele><time>2026-03-28T15:03:04Z</time></trkpt><trkpt lat="39.720536495482726" lon="9.58175169249307"><ele>126.0</ele><time>2026-03-28T15:03:05Z</time></trkpt><trkpt lat="39.720301696419135" lon="9.581805092163858"><ele>126.0</ele><time>2026-03-28T15:03:06Z</time></trkpt><trkpt lat="39.720068157304624" lon="9.58187317563967"><ele>126.0</ele><time>2026-03-28T15:03:07Z</time></trkpt><trkpt lat="39.7198327356174" lon="9.581960889496083"><ele>126.0</ele><time>2026-03-28T15:03:08Z</time></trkpt><trkpt lat="39.719600102463524" lon="9.582066725882365"><ele>126.0</ele><time>2026-03-28T15:03:09Z</time></trkpt><trkpt lat="39.71937084720718" lon="9.58218904778644"><ele>126.0</ele><time>2026-03-28T15:03:10Z</time></trkpt><trkpt lat="39.71914990786149" lon="9.582324482592703"><ele>126.0</ele><time>2026-03-28T15:03:11Z</time></trkpt><trkpt lat="39.718931748877644" lon="9.582475769875357"><ele>126.0</ele><time>2026-03-28T15:03:12Z</time></trkpt><trkpt lat="39.71872310055333" lon="9.582643318822473"><ele>126.0</ele><time>2026-03-28T15:03:13Z</time></trkpt><trkpt lat="39.71852222353184" lon="9.58282317166888"><ele>125.0</ele><time>2026-03-28T15:03:14Z</time></trkpt><trkpt lat="39.7183243221632" lon="9.58301281504835"><ele>124.0</ele><time>2026-03-28T15:03:15Z</time></trkpt><trkpt lat="39.71813270848922" lon="9.583203674131218"><ele>124.0</ele><time>2026-03-28T15:03:16Z</time></trkpt><trkpt lat="39.717943585506724" lon="9.58339133426791"><ele>124.0</ele><time>2026-03-28T15:03:17Z</time></trkpt><trkpt lat="39.717756504873314" lon="9.583577295435298"><ele>124.0</ele><time>2026-03-28T15:03:18Z</time></trkpt><trkpt lat="39.71754815784025" lon="9.583774357029187"><ele>124.0</ele><time>2026-03-28T15:03:19Z</time></trkpt><trkpt lat="39.717355581189366" lon="9.583961824968483"><ele>124.0</ele><time>2026-03-28T15:03:20Z</time></trkpt><trkpt lat="39.71716158036055" lon="9.584149212999556"><ele>124.0</ele><time>2026-03-28T15:03:21Z</time></trkpt><trkpt lat="39.71696981333174" lon="9.584335378006656"><ele>123.5</ele><time>2026-03-28T15:03:22Z</time></trkpt><trkpt lat="39.71677902983279" lon="9.584523055635499"><ele>123.0</ele><time>2026-03-28T15:03:23Z</time></trkpt><trkpt lat="39.71658910782245" lon="9.584709399697449"><ele>123.0</ele><time>2026-03-28T15:03:24Z</time></trkpt><trkpt lat="39.71640221653003" lon="9.584888715461199"><ele>123.0</ele><time>2026-03-28T15:03:25Z</time></trkpt><trkpt lat="39.71621538235738" lon="9.58506465541464"><ele>123.0</ele><time>2026-03-28T15:03:26Z</time></trkpt><trkpt lat="39.716029455341726" lon="9.585237018666772"><ele>123.0</ele><time>2026-03-28T15:03:27Z</time></trkpt><trkpt lat="39.71582707936033" lon="9.585413643866861"><ele>124.0</ele><time>2026-03-28T15:03:28Z</time></trkpt><trkpt lat="39.71562846633254" lon="9.585573225440783"><ele>125.0</ele><time>2026-03-28T15:03:29Z</time></trkpt><trkpt lat="39.715421752822714" lon="9.58571766146523"><ele>124.5</ele><time>2026-03-28T15:03:30Z</time></trkpt><trkpt lat="39.71521066260699" lon="9.585852263655415"><ele>124.0</ele><time>2026-03-28T15:03:31Z</time></trkpt><trkpt lat="39.71499365440054" lon="9.585982760755744"><ele>124.0</ele><time>2026-03-28T15:03:32Z</time></trkpt><trkpt lat="39.714775542470676" lon="9.586103535955518"><ele>124.0</ele><time>2026-03-28T15:03:33Z</time></trkpt><trkpt lat="39.71455380481746" lon="9.586215741753266"><ele>125.0</ele><time>2026-03-28T15:03:34Z</time></trkpt><trkpt lat="39.714326472787235" lon="9.58631924224283"><ele>126.0</ele><time>2026-03-28T15:03:35Z</time></trkpt><trkpt lat="39.71409408903201" lon="9.58641076693867"><ele>126.0</ele><time>2026-03-28T15:03:36Z</time></trkpt><trkpt lat="39.71386017654298" lon="9.586487252245464"><ele>126.0</ele><time>2026-03-28T15:03:37Z</time></trkpt><trkpt lat="39.7136224851227" lon="9.586552260568668"><ele>125.5</ele><time>2026-03-28T15:03:38Z</time></trkpt><trkpt lat="39.71338132570711" lon="9.586609811023319"><ele>125.0</ele><time>2026-03-28T15:03:39Z</time></trkpt><trkpt lat="39.71313783589212" lon="9.586655664171868"><ele>125.0</ele><time>2026-03-28T15:03:40Z</time></trkpt><trkpt lat="39.7128935988501" lon="9.586688950812125"><ele>125.0</ele><time>2026-03-28T15:03:41Z</time></trkpt><trkpt lat="39.71264543719248" lon="9.58671175794119"><ele>125.0</ele><time>2026-03-28T15:03:42Z</time></trkpt><trkpt lat="39.71239979738392" lon="9.58672394128086"><ele>125.0</ele><time>2026-03-28T15:03:43Z</time></trkpt><trkpt lat="39.71215110812472" lon="9.586726167561132"><ele>125.5</ele><time>2026-03-28T15:03:44Z</time></trkpt><trkpt lat="39.71190412012158" lon="9.586726260028243"><ele>126.0</ele><time>2026-03-28T15:03:45Z</time></trkpt><trkpt lat="39.711653604738835" lon="9.586730690740474"><ele>126.0</ele><time>2026-03-28T15:03:46Z</time></trkpt><trkpt lat="39.711406242456626" lon="9.586735357749237"><ele>126.0</ele><time>2026-03-28T15:03:47Z</time></trkpt><trkpt lat="39.71115712068049" lon="9.586738096944476"><ele>125.0</ele><time>2026-03-28T15:03:48Z</time></trkpt><trkpt lat="39.710909140919725" lon="9.586741730760108"><ele>124.0</ele><time>2026-03-28T15:03:49Z</time></trkpt><trkpt lat="39.71066021518509" lon="9.5867467996077"><ele>124.0</ele><time>2026-03-28T15:03:50Z</time></trkpt><trkpt lat="39.710414063673525" lon="9.586752014593058"><ele>124.0</ele><time>2026-03-28T15:03:51Z</time></trkpt><trkpt lat="39.7101683068336" lon="9.58675330677891"><ele>123.0</ele><time>2026-03-28T15:03:52Z</time></trkpt><trkpt lat="39.70992018105192" lon="9.586752712736745"><ele>122.0</ele><time>2026-03-28T15:03:53Z</time></trkpt><trkpt lat="39.70967524870511" lon="9.586755192261686"><ele>122.0</ele><time>2026-03-28T15:03:54Z</time></trkpt><trkpt lat="39.70942742475426" lon="9.586760337955766"><ele>122.0</ele><time>2026-03-28T15:03:55Z</time></trkpt><trkpt lat="39.70918020693767" lon="9.586765813338681"><ele>120.0</ele><time>2026-03-28T15:03:56Z</time></trkpt><trkpt lat="39.70893614287653" lon="9.586771185858433"><ele>118.0</ele><time>2026-03-28T15:03:57Z</time></trkpt><trkpt lat="39.70869019279516" lon="9.586774870361479"><ele>117.5</ele><time>2026-03-28T15:03:58Z</time></trkpt><trkpt lat="39.70844464228113" lon="9.586775390918806"><ele>117.0</ele><time>2026-03-28T15:03:59Z</time></trkpt><trkpt lat="39.708200967157794" lon="9.586775934128438"><ele>117.0</ele><time>2026-03-28T15:04:00Z</time></trkpt><trkpt lat="39.70795610769817" lon="9.586776870710768"><ele>117.0</ele><time>2026-03-28T15:04:01Z</time></trkpt><trkpt lat="39.70771321706553" lon="9.586780422394773"><ele>117.5</ele><time>2026-03-28T15:04:02Z</time></trkpt><trkpt lat="39.70746681646593" lon="9.586785498265371"><ele>118.0</ele><time>2026-03-28T15:04:03Z</time></trkpt><trkpt lat="39.707223481548574" lon="9.586789689747764"><ele>118.0</ele><time>2026-03-28T15:04:04Z</time></trkpt><trkpt lat="39.706977101474685" lon="9.58679166975424"><ele>118.0</ele><time>2026-03-28T15:04:05Z</time></trkpt><trkpt lat="39.706733831579264" lon="9.586793858472474"><ele>118.5</ele><time>2026-03-28T15:04:06Z</time></trkpt><trkpt lat="39.706489223556794" lon="9.586796386396196"><ele>119.0</ele><time>2026-03-28T15:04:07Z</time></trkpt><trkpt lat="39.70624182170352" lon="9.586801120693254"><ele>121.0</ele><time>2026-03-28T15:04:08Z</time></trkpt><trkpt lat="39.70599400014784" lon="9.58680670816533"><ele>123.0</ele><time>2026-03-28T15:04:09Z</time></trkpt><trkpt lat="39.705745080980684" lon="9.586811379702397"><ele>123.0</ele><time>2026-03-28T15:04:10Z</time></trkpt><trkpt lat="39.70549966676862" lon="9.586813950050404"><ele>123.0</ele><time>2026-03-28T15:04:11Z</time></trkpt><trkpt lat="39.705255097112335" lon="9.586816197146986"><ele>121.5</ele><time>2026-03-28T15:04:12Z</time></trkpt><trkpt lat="39.705011749569614" lon="9.586818938218371"><ele>120.0</ele><time>2026-03-28T15:04:13Z</time></trkpt><trkpt lat="39.704769163966866" lon="9.586820728239603"><ele>120.0</ele><time>2026-03-28T15:04:14Z</time></trkpt><trkpt lat="39.704496734164216" lon="9.586826465486391"><ele>120.0</ele><time>2026-03-28T15:04:15Z</time></trkpt><trkpt lat="39.704244898008675" lon="9.58682966374395"><ele>119.0</ele><time>2026-03-28T15:04:16Z</time></trkpt><trkpt lat="39.70399064313308" lon="9.586833746129821"><ele>118.0</ele><time>2026-03-28T15:04:17Z</time></trkpt><trkpt lat="39.70373813584846" lon="9.586836796853714"><ele>117.5</ele><time>2026-03-28T15:04:18Z</time></trkpt><trkpt lat="39.70348851134675" lon="9.586838453739462"><ele>117.0</ele><time>2026-03-28T15:04:19Z</time></trkpt><trkpt lat="39.70323574424703" lon="9.586838820340061"><ele>117.0</ele><time>2026-03-28T15:04:20Z</time></trkpt><trkpt lat="39.70298162366044" lon="9.586840388617873"><ele>117.0</ele><time>2026-03-28T15:04:21Z</time></trkpt><trkpt lat="39.70272862581401" lon="9.586843600007914"><ele>116.0</ele><time>2026-03-28T15:04:22Z</time></trkpt><trkpt lat="39.70247267494563" lon="9.586847542299653"><ele>115.0</ele><time>2026-03-28T15:04:23Z</time></trkpt><trkpt lat="39.70222089031514" lon="9.58685080713808"><ele>115.0</ele><time>2026-03-28T15:04:24Z</time></trkpt><trkpt lat="39.70196589757897" lon="9.586853665337419"><ele>115.0</ele><time>2026-03-28T15:04:25Z</time></trkpt><trkpt lat="39.701709435381936" lon="9.586859229270319"><ele>113.0</ele><time>2026-03-28T15:04:26Z</time></trkpt><trkpt lat="39.70145541415953" lon="9.586863559732462"><ele>111.0</ele><time>2026-03-28T15:04:27Z</time></trkpt><trkpt lat="39.701194213701385" lon="9.58686758208146"><ele>114.0</ele><time>2026-03-28T15:04:28Z</time></trkpt><trkpt lat="39.700935524756666" lon="9.586868894396947"><ele>117.0</ele><time>2026-03-28T15:04:29Z</time></trkpt><trkpt lat="39.70067591340586" lon="9.58686948418895"><ele>117.0</ele><time>2026-03-28T15:04:30Z</time></trkpt><trkpt lat="39.70041932235431" lon="9.586872194084838"><ele>117.0</ele><time>2026-03-28T15:04:31Z</time></trkpt><trkpt lat="39.700156991306805" lon="9.586875892161276"><ele>118.5</ele><time>2026-03-28T15:04:32Z</time></trkpt><trkpt lat="39.69989816674723" lon="9.586878507286063"><ele>120.0</ele><time>2026-03-28T15:04:33Z</time></trkpt><trkpt lat="39.69963631027477" lon="9.586877833810533"><ele>119.5</ele><time>2026-03-28T15:04:34Z</time></trkpt><trkpt lat="39.69937668837544" lon="9.586879240902904"><ele>119.0</ele><time>2026-03-28T15:04:35Z</time></trkpt><trkpt lat="39.69911662232027" lon="9.586881949363352"><ele>119.0</ele><time>2026-03-28T15:04:36Z</time></trkpt><trkpt lat="39.69885621613435" lon="9.586883930036816"><ele>119.0</ele><time>2026-03-28T15:04:37Z</time></trkpt><trkpt lat="39.69859671480048" lon="9.58688633620512"><ele>119.0</ele><time>2026-03-28T15:04:38Z</time></trkpt><trkpt lat="39.69833660179103" lon="9.586890102681378"><ele>119.0</ele><time>2026-03-28T15:04:39Z</time></trkpt><trkpt lat="39.6980750908539" lon="9.586893351611891"><ele>119.0</ele><time>2026-03-28T15:04:40Z</time></trkpt><trkpt lat="39.69781285314246" lon="9.586896087028196"><ele>119.0</ele><time>2026-03-28T15:04:41Z</time></trkpt><trkpt lat="39.69754998075688" lon="9.586900618574937"><ele>119.0</ele><time>2026-03-28T15:04:42Z</time></trkpt><trkpt lat="39.697283721967025" lon="9.586905451152283"><ele>119.0</ele><time>2026-03-28T15:04:43Z</time></trkpt><trkpt lat="39.697016108202845" lon="9.586914518083232"><ele>118.5</ele><time>2026-03-28T15:04:44Z</time></trkpt><trkpt lat="39.6967481877163" lon="9.586928054841158"><ele>118.0</ele><time>2026-03-28T15:04:45Z</time></trkpt><trkpt lat="39.69647972343149" lon="9.586950647456765"><ele>118.0</ele><time>2026-03-28T15:04:46Z</time></trkpt><trkpt lat="39.69621070124869" lon="9.586986541497996"><ele>118.0</ele><time>2026-03-28T15:04:47Z</time></trkpt><trkpt lat="39.6959417577503" lon="9.587031069246862"><ele>122.5</ele><time>2026-03-28T15:04:48Z</time></trkpt><trkpt lat="39.69567313834468" lon="9.587068318209758"><ele>127.0</ele><time>2026-03-28T15:04:49Z</time></trkpt><trkpt lat="39.69540139847676" lon="9.587089225889297"><ele>122.5</ele><time>2026-03-28T15:04:50Z</time></trkpt><trkpt lat="39.69513336089568" lon="9.587148748307566"><ele>118.0</ele><time>2026-03-28T15:04:51Z</time></trkpt><trkpt lat="39.69486755563223" lon="9.587183034241487"><ele>118.0</ele><time>2026-03-28T15:04:52Z</time></trkpt><trkpt lat="39.69460292025427" lon="9.587217050628771"><ele>118.0</ele><time>2026-03-28T15:04:53Z</time></trkpt><trkpt lat="39.69433727022861" lon="9.587246937984347"><ele>115.5</ele><time>2026-03-28T15:04:54Z</time></trkpt><trkpt lat="39.694075428652326" lon="9.587285969697358"><ele>113.0</ele><time>2026-03-28T15:04:55Z</time></trkpt><trkpt lat="39.69381455835459" lon="9.587327092292046"><ele>112.5</ele><time>2026-03-28T15:04:56Z</time></trkpt><trkpt lat="39.693553114592554" lon="9.587365567045877"><ele>112.0</ele><time>2026-03-28T15:04:57Z</time></trkpt><trkpt lat="39.693294595307464" lon="9.587398853854365"><ele>112.0</ele><time>2026-03-28T15:04:58Z</time></trkpt><trkpt lat="39.69303477701876" lon="9.587436499184061"><ele>112.0</ele><time>2026-03-28T15:04:59Z</time></trkpt><trkpt lat="39.692777350335284" lon="9.587475217922325"><ele>112.5</ele><time>2026-03-28T15:05:00Z</time></trkpt><trkpt lat="39.69251954337501" lon="9.587512994265845"><ele>113.0</ele><time>2026-03-28T15:05:01Z</time></trkpt><trkpt lat="39.69226102386247" lon="9.587551247434638"><ele>113.0</ele><time>2026-03-28T15:05:02Z</time></trkpt><trkpt lat="39.691999562782584" lon="9.587587961353945"><ele>113.0</ele><time>2026-03-28T15:05:03Z</time></trkpt><trkpt lat="39.691737218487525" lon="9.58762344709018"><ele>111.5</ele><time>2026-03-28T15:05:04Z</time></trkpt><trkpt lat="39.6914735550263" lon="9.58766150899602"><ele>110.0</ele><time>2026-03-28T15:05:05Z</time></trkpt><trkpt lat="39.691208321861964" lon="9.58769859189444"><ele>106.5</ele><time>2026-03-28T15:05:06Z</time></trkpt><trkpt lat="39.69094209500312" lon="9.58773654837022"><ele>103.0</ele><time>2026-03-28T15:05:07Z</time></trkpt><trkpt lat="39.69067868036572" lon="9.587777182705567"><ele>103.0</ele><time>2026-03-28T15:05:08Z</time></trkpt><trkpt lat="39.690415850870814" lon="9.587816695760209"><ele>103.0</ele><time>2026-03-28T15:05:09Z</time></trkpt><trkpt lat="39.69015213571624" lon="9.587855159734628"><ele>101.5</ele><time>2026-03-28T15:05:10Z</time></trkpt><trkpt lat="39.68988948247097" lon="9.587891079673854"><ele>100.0</ele><time>2026-03-28T15:05:11Z</time></trkpt><trkpt lat="39.68962430999428" lon="9.587929808271262"><ele>100.5</ele><time>2026-03-28T15:05:12Z</time></trkpt><trkpt lat="39.68935967803713" lon="9.587967958846116"><ele>101.0</ele><time>2026-03-28T15:05:13Z</time></trkpt><trkpt lat="39.68910450375354" lon="9.588000850110554"><ele>101.0</ele><time>2026-03-28T15:05:14Z</time></trkpt><trkpt lat="39.68884676305764" lon="9.588038587305375"><ele>101.0</ele><time>2026-03-28T15:05:15Z</time></trkpt><trkpt lat="39.688590673130655" lon="9.588070447799739"><ele>106.0</ele><time>2026-03-28T15:05:16Z</time></trkpt><trkpt lat="39.68833606199368" lon="9.58809154500149"><ele>111.0</ele><time>2026-03-28T15:05:17Z</time></trkpt><trkpt lat="39.688081033915616" lon="9.58809504627727"><ele>111.0</ele><time>2026-03-28T15:05:18Z</time></trkpt><trkpt lat="39.68782523237471" lon="9.588076768831087"><ele>111.0</ele><time>2026-03-28T15:05:19Z</time></trkpt><trkpt lat="39.687569118099155" lon="9.58804616465904"><ele>112.5</ele><time>2026-03-28T15:05:20Z</time></trkpt><trkpt lat="39.6873120558698" lon="9.588015978131535"><ele>114.0</ele><time>2026-03-28T15:05:21Z</time></trkpt><trkpt lat="39.68705308352846" lon="9.587983879184332"><ele>115.5</ele><time>2026-03-28T15:05:22Z</time></trkpt><trkpt lat="39.68679515438737" lon="9.587948854257618"><ele>117.0</ele><time>2026-03-28T15:05:23Z</time></trkpt><trkpt lat="39.686539243885214" lon="9.587899255019625"><ele>113.0</ele><time>2026-03-28T15:05:24Z</time></trkpt><trkpt lat="39.686283341643126" lon="9.587835709209163"><ele>109.0</ele><time>2026-03-28T15:05:25Z</time></trkpt><trkpt lat="39.686030502864625" lon="9.587760659923493"><ele>109.0</ele><time>2026-03-28T15:05:26Z</time></trkpt><trkpt lat="39.68578270979351" lon="9.587677872913034"><ele>109.0</ele><time>2026-03-28T15:05:27Z</time></trkpt><trkpt lat="39.68553566721173" lon="9.587585359177774"><ele>109.0</ele><time>2026-03-28T15:05:28Z</time></trkpt><trkpt lat="39.68529035102574" lon="9.587487602005327"><ele>109.0</ele><time>2026-03-28T15:05:29Z</time></trkpt><trkpt lat="39.68504342069104" lon="9.587376612272164"><ele>108.5</ele><time>2026-03-28T15:05:30Z</time></trkpt><trkpt lat="39.684800597621326" lon="9.587252790528996"><ele>108.0</ele><time>2026-03-28T15:05:31Z</time></trkpt><trkpt lat="39.68455835271137" lon="9.587121665522805"><ele>106.5</ele><time>2026-03-28T15:05:32Z</time></trkpt><trkpt lat="39.68431825559338" lon="9.586978744972155"><ele>105.0</ele><time>2026-03-28T15:05:33Z</time></trkpt><trkpt lat="39.68408070220153" lon="9.586831186323945"><ele>105.0</ele><time>2026-03-28T15:05:34Z</time></trkpt><trkpt lat="39.68384762324043" lon="9.586675948946054"><ele>105.0</ele><time>2026-03-28T15:05:35Z</time></trkpt><trkpt lat="39.68362589418111" lon="9.5864943283496"><ele>103.5</ele><time>2026-03-28T15:05:36Z</time></trkpt><trkpt lat="39.68340335286934" lon="9.586321257959492"><ele>102.0</ele><time>2026-03-28T15:05:37Z</time></trkpt><trkpt lat="39.68318505395396" lon="9.586138712554291"><ele>102.0</ele><time>2026-03-28T15:05:38Z</time></trkpt><trkpt lat="39.682970033400764" lon="9.585947937266155"><ele>102.0</ele><time>2026-03-28T15:05:39Z</time></trkpt><trkpt lat="39.68276017352493" lon="9.585752823416087"><ele>100.0</ele><time>2026-03-28T15:05:40Z</time></trkpt><trkpt lat="39.682556060273576" lon="9.585551582237821"><ele>98.0</ele><time>2026-03-28T15:05:41Z</time></trkpt><trkpt lat="39.68235748198504" lon="9.585345562373455"><ele>96.5</ele><time>2026-03-28T15:05:42Z</time></trkpt><trkpt lat="39.68216218108111" lon="9.585130139693572"><ele>95.0</ele><time>2026-03-28T15:05:43Z</time></trkpt><trkpt lat="39.68197019979034" lon="9.584920949850622"><ele>95.0</ele><time>2026-03-28T15:05:44Z</time></trkpt><trkpt lat="39.6817785771094" lon="9.584712759972648"><ele>95.0</ele><time>2026-03-28T15:05:45Z</time></trkpt><trkpt lat="39.68158945470507" lon="9.584506084131782"><ele>94.0</ele><time>2026-03-28T15:05:46Z</time></trkpt><trkpt lat="39.681399646431814" lon="9.584294996999775"><ele>93.0</ele><time>2026-03-28T15:05:47Z</time></trkpt><trkpt lat="39.681210240458995" lon="9.584084902285504"><ele>93.0</ele><time>2026-03-28T15:05:48Z</time></trkpt><trkpt lat="39.6810209273966" lon="9.583872388944714"><ele>93.0</ele><time>2026-03-28T15:05:49Z</time></trkpt><trkpt lat="39.68083146506626" lon="9.58366532873317"><ele>93.0</ele><time>2026-03-28T15:05:50Z</time></trkpt><trkpt lat="39.680642303080845" lon="9.583455823356868"><ele>93.0</ele><time>2026-03-28T15:05:51Z</time></trkpt><trkpt lat="39.68045578601013" lon="9.583257054915887"><ele>93.0</ele><time>2026-03-28T15:05:52Z</time></trkpt><trkpt lat="39.68026942214511" lon="9.583050133166127"><ele>93.0</ele><time>2026-03-28T15:05:53Z</time></trkpt><trkpt lat="39.68008206566273" lon="9.582845201631647"><ele>92.5</ele><time>2026-03-28T15:05:54Z</time></trkpt><trkpt lat="39.67989428874566" lon="9.582636033077451"><ele>92.0</ele><time>2026-03-28T15:05:55Z</time></trkpt><trkpt lat="39.6797056142473" lon="9.582426807202625"><ele>92.0</ele><time>2026-03-28T15:05:56Z</time></trkpt><trkpt lat="39.67951471239091" lon="9.582218940835608"><ele>92.0</ele><time>2026-03-28T15:05:57Z</time></trkpt><trkpt lat="39.67932394815926" lon="9.5820107338869"><ele>92.5</ele><time>2026-03-28T15:05:58Z</time></trkpt><trkpt lat="39.67913278657391" lon="9.58180497746891"><ele>93.0</ele><time>2026-03-28T15:05:59Z</time></trkpt><trkpt lat="39.67894284643035" lon="9.581594950418616"><ele>93.0</ele><time>2026-03-28T15:06:00Z</time></trkpt><trkpt lat="39.67875873485099" lon="9.581388559660041"><ele>93.0</ele><time>2026-03-28T15:06:01Z</time></trkpt><trkpt lat="39.67857367329745" lon="9.581182570646934"><ele>93.0</ele><time>2026-03-28T15:06:02Z</time></trkpt><trkpt lat="39.678388991939144" lon="9.580976426154297"><ele>93.0</ele><time>2026-03-28T15:06:03Z</time></trkpt><trkpt lat="39.67820553506567" lon="9.580773032044927"><ele>93.0</ele><time>2026-03-28T15:06:04Z</time></trkpt><trkpt lat="39.67802027729149" lon="9.580570660444458"><ele>93.0</ele><time>2026-03-28T15:06:05Z</time></trkpt><trkpt lat="39.67783533639476" lon="9.580364575674164"><ele>93.0</ele><time>2026-03-28T15:06:06Z</time></trkpt><trkpt lat="39.67765335707049" lon="9.580158824319762"><ele>93.0</ele><time>2026-03-28T15:06:07Z</time></trkpt><trkpt lat="39.67746569345863" lon="9.579952026228128"><ele>93.0</ele><time>2026-03-28T15:06:08Z</time></trkpt><trkpt lat="39.677275690359565" lon="9.579746422025195"><ele>93.0</ele><time>2026-03-28T15:06:09Z</time></trkpt><trkpt lat="39.677087322745216" lon="9.579538171515596"><ele>95.0</ele><time>2026-03-28T15:06:10Z</time></trkpt><trkpt lat="39.676898170114164" lon="9.579329698544605"><ele>97.0</ele><time>2026-03-28T15:06:11Z</time></trkpt><trkpt lat="39.67671046543069" lon="9.579120358495476"><ele>97.0</ele><time>2026-03-28T15:06:12Z</time></trkpt><trkpt lat="39.67652370487642" lon="9.578913802038821"><ele>97.0</ele><time>2026-03-28T15:06:13Z</time></trkpt><trkpt lat="39.676337674861976" lon="9.578707859082567"><ele>97.5</ele><time>2026-03-28T15:06:14Z</time></trkpt><trkpt lat="39.67615276001207" lon="9.578506035461471"><ele>98.0</ele><time>2026-03-28T15:06:15Z</time></trkpt><trkpt lat="39.67596371108239" lon="9.5783036887721"><ele>98.0</ele><time>2026-03-28T15:06:16Z</time></trkpt><trkpt lat="39.675775410791864" lon="9.578099920147483"><ele>98.0</ele><time>2026-03-28T15:06:17Z</time></trkpt><trkpt lat="39.67559318064043" lon="9.577905987974452"><ele>97.5</ele><time>2026-03-28T15:06:18Z</time></trkpt><trkpt lat="39.67540084236728" lon="9.5776952244443"><ele>97.0</ele><time>2026-03-28T15:06:19Z</time></trkpt><trkpt lat="39.67521417134926" lon="9.577500494855242"><ele>97.0</ele><time>2026-03-28T15:06:20Z</time></trkpt><trkpt lat="39.675020265141235" lon="9.577306591388153"><ele>97.0</ele><time>2026-03-28T15:06:21Z</time></trkpt><trkpt lat="39.67482633788149" lon="9.577115592355904"><ele>98.0</ele><time>2026-03-28T15:06:22Z</time></trkpt><trkpt lat="39.67462191667427" lon="9.576923454470805"><ele>99.0</ele><time>2026-03-28T15:06:23Z</time></trkpt><trkpt lat="39.67441301325556" lon="9.576738508128928"><ele>99.0</ele><time>2026-03-28T15:06:24Z</time></trkpt><trkpt lat="39.67419489417558" lon="9.57656462668629"><ele>99.0</ele><time>2026-03-28T15:06:25Z</time></trkpt><trkpt lat="39.67397388715133" lon="9.576398297256715"><ele>99.0</ele><time>2026-03-28T15:06:26Z</time></trkpt><trkpt lat="39.67374701220375" lon="9.576236187035175"><ele>99.0</ele><time>2026-03-28T15:06:27Z</time></trkpt><trkpt lat="39.67351591336966" lon="9.576084027902976"><ele>104.0</ele><time>2026-03-28T15:06:28Z</time></trkpt><trkpt lat="39.67327648776905" lon="9.575938272533197"><ele>109.0</ele><time>2026-03-28T15:06:29Z</time></trkpt><trkpt lat="39.673029284228754" lon="9.575808136912714"><ele>109.0</ele><time>2026-03-28T15:06:30Z</time></trkpt><trkpt lat="39.67277518644568" lon="9.575692426233543"><ele>109.0</ele><time>2026-03-28T15:06:31Z</time></trkpt><trkpt lat="39.67251748560423" lon="9.57559449683287"><ele>108.5</ele><time>2026-03-28T15:06:32Z</time></trkpt><trkpt lat="39.6722519443552" lon="9.57551118092017"><ele>108.0</ele><time>2026-03-28T15:06:33Z</time></trkpt><trkpt lat="39.67198509401185" lon="9.575443835474145"><ele>108.0</ele><time>2026-03-28T15:06:34Z</time></trkpt><trkpt lat="39.67171710257807" lon="9.57539028228971"><ele>108.0</ele><time>2026-03-28T15:06:35Z</time></trkpt><trkpt lat="39.671446959988025" lon="9.575355045074367"><ele>111.0</ele><time>2026-03-28T15:06:36Z</time></trkpt><trkpt lat="39.67117691469597" lon="9.575336934847023"><ele>114.0</ele><time>2026-03-28T15:06:37Z</time></trkpt><trkpt lat="39.6709061570206" lon="9.575336557255207"><ele>111.0</ele><time>2026-03-28T15:06:38Z</time></trkpt><trkpt lat="39.67062989573441" lon="9.575357333941609"><ele>108.0</ele><time>2026-03-28T15:06:39Z</time></trkpt><trkpt lat="39.670352034386546" lon="9.575398305119675"><ele>109.5</ele><time>2026-03-28T15:06:40Z</time></trkpt><trkpt lat="39.67007261186256" lon="9.575452195217597"><ele>111.0</ele><time>2026-03-28T15:06:41Z</time></trkpt><trkpt lat="39.6697991228366" lon="9.575520012064779"><ele>111.0</ele><time>2026-03-28T15:06:42Z</time></trkpt><trkpt lat="39.6695259030337" lon="9.575597319007219"><ele>111.0</ele><time>2026-03-28T15:06:43Z</time></trkpt><trkpt lat="39.6692580019298" lon="9.575683129702886"><ele>111.0</ele><time>2026-03-28T15:06:44Z</time></trkpt><trkpt lat="39.668989362505684" lon="9.575774565338394"><ele>111.0</ele><time>2026-03-28T15:06:45Z</time></trkpt><trkpt lat="39.66872076358678" lon="9.575866161836908"><ele>108.0</ele><time>2026-03-28T15:06:46Z</time></trkpt><trkpt lat="39.66845082697766" lon="9.575956404305979"><ele>105.0</ele><time>2026-03-28T15:06:47Z</time></trkpt><trkpt lat="39.66818388640357" lon="9.576048394966891"><ele>105.0</ele><time>2026-03-28T15:06:48Z</time></trkpt><trkpt lat="39.66791295912198" lon="9.57613868118626"><ele>105.0</ele><time>2026-03-28T15:06:49Z</time></trkpt><trkpt lat="39.667642846733145" lon="9.576231112169474"><ele>101.0</ele><time>2026-03-28T15:06:50Z</time></trkpt><trkpt lat="39.667371605893386" lon="9.576322492580514"><ele>97.0</ele><time>2026-03-28T15:06:51Z</time></trkpt><trkpt lat="39.66710067646763" lon="9.5764156045088"><ele>99.5</ele><time>2026-03-28T15:06:52Z</time></trkpt><trkpt lat="39.66682921144846" lon="9.576509231741962"><ele>102.0</ele><time>2026-03-28T15:06:53Z</time></trkpt><trkpt lat="39.66655896127335" lon="9.576602657229"><ele>102.0</ele><time>2026-03-28T15:06:54Z</time></trkpt><trkpt lat="39.66628482982321" lon="9.576695764347152"><ele>102.0</ele><time>2026-03-28T15:06:55Z</time></trkpt><trkpt lat="39.66601492802518" lon="9.576787942945884"><ele>100.5</ele><time>2026-03-28T15:06:56Z</time></trkpt><trkpt lat="39.665740199881846" lon="9.576882538682453"><ele>99.0</ele><time>2026-03-28T15:06:57Z</time></trkpt><trkpt lat="39.665468205711136" lon="9.576975262273113"><ele>96.0</ele><time>2026-03-28T15:06:58Z</time></trkpt><trkpt lat="39.66519706519957" lon="9.577066776833682"><ele>93.0</ele><time>2026-03-28T15:06:59Z</time></trkpt><trkpt lat="39.6649245846089" lon="9.577151361062642"><ele>93.0</ele><time>2026-03-28T15:07:00Z</time></trkpt><trkpt lat="39.6646537842728" lon="9.577221941472008"><ele>93.0</ele><time>2026-03-28T15:07:01Z</time></trkpt><trkpt lat="39.66438963297062" lon="9.577278921836536"><ele>92.5</ele><time>2026-03-28T15:07:02Z</time></trkpt><trkpt lat="39.664124749572295" lon="9.577330212455896"><ele>92.0</ele><time>2026-03-28T15:07:03Z</time></trkpt><trkpt lat="39.66386437333461" lon="9.57737545441216"><ele>90.0</ele><time>2026-03-28T15:07:04Z</time></trkpt><trkpt lat="39.663605086580155" lon="9.577410954930542"><ele>88.0</ele><time>2026-03-28T15:07:05Z</time></trkpt><trkpt lat="39.66334606631783" lon="9.5774343239399"><ele>88.0</ele><time>2026-03-28T15:07:06Z</time></trkpt><trkpt lat="39.66309215184792" lon="9.577441660271628"><ele>88.0</ele><time>2026-03-28T15:07:07Z</time></trkpt><trkpt lat="39.66283907279296" lon="9.577437797776657"><ele>87.5</ele><time>2026-03-28T15:07:08Z</time></trkpt><trkpt lat="39.66258731295116" lon="9.577426670579515"><ele>87.0</ele><time>2026-03-28T15:07:09Z</time></trkpt><trkpt lat="39.66233616263994" lon="9.577405031576767"><ele>87.0</ele><time>2026-03-28T15:07:10Z</time></trkpt><trkpt lat="39.662087333992496" lon="9.577369429492567"><ele>87.0</ele><time>2026-03-28T15:07:11Z</time></trkpt><trkpt lat="39.661836111509814" lon="9.577319346417843"><ele>87.0</ele><time>2026-03-28T15:07:12Z</time></trkpt><trkpt lat="39.661583600969394" lon="9.577270653599935"><ele>87.0</ele><time>2026-03-28T15:07:13Z</time></trkpt><trkpt lat="39.66133438366054" lon="9.577206969724823"><ele>87.5</ele><time>2026-03-28T15:07:14Z</time></trkpt><trkpt lat="39.661080948954854" lon="9.57716067595327"><ele>88.0</ele><time>2026-03-28T15:07:15Z</time></trkpt><trkpt lat="39.66082860082616" lon="9.577121796788434"><ele>88.0</ele><time>2026-03-28T15:07:16Z</time></trkpt><trkpt lat="39.660575176570404" lon="9.577099781662382"><ele>88.0</ele><time>2026-03-28T15:07:17Z</time></trkpt><trkpt lat="39.66032184326502" lon="9.577096607934884"><ele>89.0</ele><time>2026-03-28T15:07:18Z</time></trkpt><trkpt lat="39.66006523313428" lon="9.577117581738445"><ele>90.0</ele><time>2026-03-28T15:07:19Z</time></trkpt><trkpt lat="39.65981230107908" lon="9.577162598815827"><ele>90.0</ele><time>2026-03-28T15:07:20Z</time></trkpt><trkpt lat="39.65955834178931" lon="9.577223979392755"><ele>90.0</ele><time>2026-03-28T15:07:21Z</time></trkpt><trkpt lat="39.659302612751276" lon="9.577299899989889"><ele>87.5</ele><time>2026-03-28T15:07:22Z</time></trkpt><trkpt lat="39.65905913747947" lon="9.57738115110569"><ele>85.0</ele><time>2026-03-28T15:07:23Z</time></trkpt><trkpt lat="39.65880993028449" lon="9.577470623020261"><ele>92.5</ele><time>2026-03-28T15:07:24Z</time></trkpt><trkpt lat="39.65856485101623" lon="9.577562590153832"><ele>100.0</ele><time>2026-03-28T15:07:25Z</time></trkpt><trkpt lat="39.658320389787555" lon="9.577657479268904"><ele>100.0</ele><time>2026-03-28T15:07:26Z</time></trkpt><trkpt lat="39.658078916106625" lon="9.57775365696708"><ele>100.0</ele><time>2026-03-28T15:07:27Z</time></trkpt><trkpt lat="39.6578291411946" lon="9.577823198135876"><ele>93.5</ele><time>2026-03-28T15:07:28Z</time></trkpt><trkpt lat="39.65757945021396" lon="9.577912628864013"><ele>87.0</ele><time>2026-03-28T15:07:29Z</time></trkpt><trkpt lat="39.65733403494547" lon="9.578017230084306"><ele>87.0</ele><time>2026-03-28T15:07:30Z</time></trkpt><trkpt lat="39.65707868447237" lon="9.578097455222688"><ele>87.0</ele><time>2026-03-28T15:07:31Z</time></trkpt><trkpt lat="39.656824925912716" lon="9.578172317834314"><ele>84.5</ele><time>2026-03-28T15:07:32Z</time></trkpt><trkpt lat="39.65656863457326" lon="9.57824242668437"><ele>82.0</ele><time>2026-03-28T15:07:33Z</time></trkpt><trkpt lat="39.656309327833796" lon="9.57830422278367"><ele>85.5</ele><time>2026-03-28T15:07:34Z</time></trkpt><trkpt lat="39.65604746471879" lon="9.578352824209873"><ele>89.0</ele><time>2026-03-28T15:07:35Z</time></trkpt><trkpt lat="39.65578460968408" lon="9.5783863455292"><ele>89.0</ele><time>2026-03-28T15:07:36Z</time></trkpt><trkpt lat="39.65552047561467" lon="9.578408425004968"><ele>89.0</ele><time>2026-03-28T15:07:37Z</time></trkpt><trkpt lat="39.655256919970924" lon="9.578421971350087"><ele>86.5</ele><time>2026-03-28T15:07:38Z</time></trkpt><trkpt lat="39.65499872089955" lon="9.578425208497821"><ele>84.0</ele><time>2026-03-28T15:07:39Z</time></trkpt><trkpt lat="39.654740430670856" lon="9.578421940216002"><ele>84.0</ele><time>2026-03-28T15:07:40Z</time></trkpt><trkpt lat="39.65448450815469" lon="9.578407532741162"><ele>84.0</ele><time>2026-03-28T15:07:41Z</time></trkpt><trkpt lat="39.65423025367883" lon="9.578386754703686"><ele>86.5</ele><time>2026-03-28T15:07:42Z</time></trkpt><trkpt lat="39.65397399313683" lon="9.5783626563594"><ele>89.0</ele><time>2026-03-28T15:07:43Z</time></trkpt><trkpt lat="39.653721053873056" lon="9.578316238999221"><ele>88.0</ele><time>2026-03-28T15:07:44Z</time></trkpt><trkpt lat="39.65346442588686" lon="9.578275941902287"><ele>87.0</ele><time>2026-03-28T15:07:45Z</time></trkpt><trkpt lat="39.65321319459346" lon="9.578243581255066"><ele>87.0</ele><time>2026-03-28T15:07:46Z</time></trkpt><trkpt lat="39.65295689087318" lon="9.57821849335072"><ele>87.0</ele><time>2026-03-28T15:07:47Z</time></trkpt><trkpt lat="39.65270247176498" lon="9.578195978457085"><ele>85.0</ele><time>2026-03-28T15:07:48Z</time></trkpt><trkpt lat="39.65245050700827" lon="9.578195930513553"><ele>83.0</ele><time>2026-03-28T15:07:49Z</time></trkpt><trkpt lat="39.652198622666134" lon="9.57817243373253"><ele>80.0</ele><time>2026-03-28T15:07:50Z</time></trkpt><trkpt lat="39.65194845434413" lon="9.578162799721898"><ele>77.0</ele><time>2026-03-28T15:07:51Z</time></trkpt><trkpt lat="39.651698519209575" lon="9.57816707413545"><ele>77.0</ele><time>2026-03-28T15:07:52Z</time></trkpt><trkpt lat="39.651449474927986" lon="9.578183015224674"><ele>77.0</ele><time>2026-03-28T15:07:53Z</time></trkpt><trkpt lat="39.651201549009734" lon="9.578205648689023"><ele>73.0</ele><time>2026-03-28T15:07:54Z</time></trkpt><trkpt lat="39.65095265486688" lon="9.5782334771569"><ele>69.0</ele><time>2026-03-28T15:07:55Z</time></trkpt><trkpt lat="39.65070455282884" lon="9.57826871707731"><ele>69.0</ele><time>2026-03-28T15:07:56Z</time></trkpt><trkpt lat="39.65045914529246" lon="9.578316322719134"><ele>69.0</ele><time>2026-03-28T15:07:57Z</time></trkpt><trkpt lat="39.6502102129844" lon="9.578376543219623"><ele>71.5</ele><time>2026-03-28T15:07:58Z</time></trkpt><trkpt lat="39.6499631782097" lon="9.57844579429445"><ele>74.0</ele><time>2026-03-28T15:07:59Z</time></trkpt><trkpt lat="39.64971754974589" lon="9.578522890849891"><ele>74.0</ele><time>2026-03-28T15:08:00Z</time></trkpt><trkpt lat="39.64947423793821" lon="9.578606438416651"><ele>74.0</ele><time>2026-03-28T15:08:01Z</time></trkpt><trkpt lat="39.649232918361584" lon="9.578695246230264"><ele>77.0</ele><time>2026-03-28T15:08:02Z</time></trkpt><trkpt lat="39.648995379065894" lon="9.578795861777587"><ele>80.0</ele><time>2026-03-28T15:08:03Z</time></trkpt><trkpt lat="39.64876046317726" lon="9.57890483344872"><ele>86.5</ele><time>2026-03-28T15:08:04Z</time></trkpt><trkpt lat="39.64852525695832" lon="9.579021761624357"><ele>93.0</ele><time>2026-03-28T15:08:05Z</time></trkpt><trkpt lat="39.64828836357832" lon="9.579140145978926"><ele>93.0</ele><time>2026-03-28T15:08:06Z</time></trkpt><trkpt lat="39.64805031359789" lon="9.579257958775738"><ele>93.0</ele><time>2026-03-28T15:08:07Z</time></trkpt><trkpt lat="39.647811986643156" lon="9.579373408606681"><ele>90.5</ele><time>2026-03-28T15:08:08Z</time></trkpt><trkpt lat="39.64757527086667" lon="9.579489585055935"><ele>88.0</ele><time>2026-03-28T15:08:09Z</time></trkpt><trkpt lat="39.64733967589122" lon="9.57960848358337"><ele>88.0</ele><time>2026-03-28T15:08:10Z</time></trkpt><trkpt lat="39.64710320849315" lon="9.579728907531408"><ele>88.0</ele><time>2026-03-28T15:08:11Z</time></trkpt><trkpt lat="39.64686541790298" lon="9.579848660982563"><ele>87.5</ele><time>2026-03-28T15:08:12Z</time></trkpt><trkpt lat="39.64662585136481" lon="9.579965684608515"><ele>87.0</ele><time>2026-03-28T15:08:13Z</time></trkpt><trkpt lat="39.64638741417793" lon="9.58007988745152"><ele>87.0</ele><time>2026-03-28T15:08:14Z</time></trkpt><trkpt lat="39.646143465122876" lon="9.580176310162313"><ele>87.0</ele><time>2026-03-28T15:08:15Z</time></trkpt><trkpt lat="39.645898464610404" lon="9.580260789914336"><ele>90.0</ele><time>2026-03-28T15:08:16Z</time></trkpt><trkpt lat="39.64565275041177" lon="9.580327590701385"><ele>93.0</ele><time>2026-03-28T15:08:17Z</time></trkpt><trkpt lat="39.64541026456572" lon="9.580381873556943"><ele>85.5</ele><time>2026-03-28T15:08:18Z</time></trkpt><trkpt lat="39.64516057082382" lon="9.580424835145827"><ele>78.0</ele><time>2026-03-28T15:08:19Z</time></trkpt><trkpt lat="39.64490994228368" lon="9.580453669100844"><ele>78.0</ele><time>2026-03-28T15:08:20Z</time></trkpt><trkpt lat="39.64465639062591" lon="9.580466459332893"><ele>78.0</ele><time>2026-03-28T15:08:21Z</time></trkpt><trkpt lat="39.644403973039445" lon="9.580462483272372"><ele>81.0</ele><time>2026-03-28T15:08:22Z</time></trkpt><trkpt lat="39.644149887661115" lon="9.580445944744937"><ele>84.0</ele><time>2026-03-28T15:08:23Z</time></trkpt><trkpt lat="39.64389639715368" lon="9.58041639983137"><ele>84.0</ele><time>2026-03-28T15:08:24Z</time></trkpt><trkpt lat="39.6436432988237" lon="9.580372294125732"><ele>84.0</ele><time>2026-03-28T15:08:25Z</time></trkpt><trkpt lat="39.64339468225527" lon="9.580307094507528"><ele>89.5</ele><time>2026-03-28T15:08:26Z</time></trkpt><trkpt lat="39.6431515019608" lon="9.580225049723156"><ele>95.0</ele><time>2026-03-28T15:08:27Z</time></trkpt><trkpt lat="39.64290010266022" lon="9.580134676745029"><ele>89.5</ele><time>2026-03-28T15:08:28Z</time></trkpt><trkpt lat="39.642652515212134" lon="9.580033748747518"><ele>84.0</ele><time>2026-03-28T15:08:29Z</time></trkpt><trkpt lat="39.64240437899969" lon="9.579931929921415"><ele>84.0</ele><time>2026-03-28T15:08:30Z</time></trkpt><trkpt lat="39.64215616616013" lon="9.579834890785186"><ele>84.0</ele><time>2026-03-28T15:08:31Z</time></trkpt><trkpt lat="39.641906571279044" lon="9.579750222309066"><ele>81.5</ele><time>2026-03-28T15:08:32Z</time></trkpt><trkpt lat="39.64165236883111" lon="9.579679742839224"><ele>79.0</ele><time>2026-03-28T15:08:33Z</time></trkpt><trkpt lat="39.641397047010884" lon="9.579626726369689"><ele>79.0</ele><time>2026-03-28T15:08:34Z</time></trkpt><trkpt lat="39.641139316429" lon="9.579594829734031"><ele>79.0</ele><time>2026-03-28T15:08:35Z</time></trkpt><trkpt lat="39.640881165120454" lon="9.579586105883495"><ele>79.5</ele><time>2026-03-28T15:08:36Z</time></trkpt><trkpt lat="39.64062504273094" lon="9.579599223426417"><ele>80.0</ele><time>2026-03-28T15:08:37Z</time></trkpt><trkpt lat="39.64037165500197" lon="9.579635809548112"><ele>76.5</ele><time>2026-03-28T15:08:38Z</time></trkpt><trkpt lat="39.640120869290946" lon="9.579693210475295"><ele>73.0</ele><time>2026-03-28T15:08:39Z</time></trkpt><trkpt lat="39.63987517256607" lon="9.579770524458151"><ele>73.0</ele><time>2026-03-28T15:08:40Z</time></trkpt><trkpt lat="39.63963463855439" lon="9.579864988787115"><ele>73.0</ele><time>2026-03-28T15:08:41Z</time></trkpt><trkpt lat="39.63939823187883" lon="9.579976183780031"><ele>74.5</ele><time>2026-03-28T15:08:42Z</time></trkpt><trkpt lat="39.6391680002377" lon="9.580104177237848"><ele>76.0</ele><time>2026-03-28T15:08:43Z</time></trkpt><trkpt lat="39.63894666005916" lon="9.580249563359995"><ele>78.5</ele><time>2026-03-28T15:08:44Z</time></trkpt><trkpt lat="39.63873019341561" lon="9.580416688269313"><ele>81.0</ele><time>2026-03-28T15:08:45Z</time></trkpt><trkpt lat="39.63852365384583" lon="9.580599328678169"><ele>81.0</ele><time>2026-03-28T15:08:46Z</time></trkpt><trkpt lat="39.638323932035206" lon="9.580798409577513"><ele>81.0</ele><time>2026-03-28T15:08:47Z</time></trkpt><trkpt lat="39.638130932668986" lon="9.58101313117041"><ele>74.5</ele><time>2026-03-28T15:08:48Z</time></trkpt><trkpt lat="39.63794296719351" lon="9.581239611126941"><ele>68.0</ele><time>2026-03-28T15:08:49Z</time></trkpt><trkpt lat="39.6377558284397" lon="9.581469239382201"><ele>68.0</ele><time>2026-03-28T15:08:50Z</time></trkpt><trkpt lat="39.63756624615338" lon="9.581697056292263"><ele>68.0</ele><time>2026-03-28T15:08:51Z</time></trkpt><trkpt lat="39.637371105634244" lon="9.581922042325091"><ele>65.0</ele><time>2026-03-28T15:08:52Z</time></trkpt><trkpt lat="39.63716544839719" lon="9.582141968076076"><ele>62.0</ele><time>2026-03-28T15:08:53Z</time></trkpt><trkpt lat="39.63695395338429" lon="9.58235185180223"><ele>69.0</ele><time>2026-03-28T15:08:54Z</time></trkpt><trkpt lat="39.63673607906303" lon="9.582555969282495"><ele>76.0</ele><time>2026-03-28T15:08:55Z</time></trkpt><trkpt lat="39.636513961196705" lon="9.582753625929247"><ele>75.5</ele><time>2026-03-28T15:08:56Z</time></trkpt><trkpt lat="39.63628359519712" lon="9.582939948446736"><ele>75.0</ele><time>2026-03-28T15:08:57Z</time></trkpt><trkpt lat="39.63604448399718" lon="9.583105303462057"><ele>75.0</ele><time>2026-03-28T15:08:58Z</time></trkpt><trkpt lat="39.635804312120555" lon="9.583260590610667"><ele>75.0</ele><time>2026-03-28T15:08:59Z</time></trkpt><trkpt lat="39.63555857485988" lon="9.583405461749143"><ele>75.0</ele><time>2026-03-28T15:09:00Z</time></trkpt><trkpt lat="39.63530897356188" lon="9.583540860915985"><ele>75.0</ele><time>2026-03-28T15:09:01Z</time></trkpt><trkpt lat="39.635055813219104" lon="9.583668511876558"><ele>71.0</ele><time>2026-03-28T15:09:02Z</time></trkpt><trkpt lat="39.63480339844387" lon="9.583791779479428"><ele>67.0</ele><time>2026-03-28T15:09:03Z</time></trkpt><trkpt lat="39.63455535549854" lon="9.583912481890453"><ele>68.0</ele><time>2026-03-28T15:09:04Z</time></trkpt><trkpt lat="39.63430831006722" lon="9.58403288511058"><ele>69.0</ele><time>2026-03-28T15:09:05Z</time></trkpt><trkpt lat="39.63406308750454" lon="9.584155050520238"><ele>69.0</ele><time>2026-03-28T15:09:06Z</time></trkpt><trkpt lat="39.633817610212496" lon="9.584276583165359"><ele>69.0</ele><time>2026-03-28T15:09:07Z</time></trkpt><trkpt lat="39.63357351746086" lon="9.584395939869786"><ele>69.0</ele><time>2026-03-28T15:09:08Z</time></trkpt><trkpt lat="39.63333240285346" lon="9.58451108919139"><ele>69.0</ele><time>2026-03-28T15:09:09Z</time></trkpt><trkpt lat="39.63308885216012" lon="9.58462215999608"><ele>65.5</ele><time>2026-03-28T15:09:10Z</time></trkpt><trkpt lat="39.632845376563345" lon="9.584729372873046"><ele>62.0</ele><time>2026-03-28T15:09:11Z</time></trkpt><trkpt lat="39.632604433912874" lon="9.584831348945205"><ele>62.0</ele><time>2026-03-28T15:09:12Z</time></trkpt><trkpt lat="39.63236334253363" lon="9.58492629399894"><ele>62.0</ele><time>2026-03-28T15:09:13Z</time></trkpt><trkpt lat="39.63212552135075" lon="9.585013887846369"><ele>64.0</ele><time>2026-03-28T15:09:14Z</time></trkpt><trkpt lat="39.631892829123586" lon="9.585095487304331"><ele>66.0</ele><time>2026-03-28T15:09:15Z</time></trkpt><trkpt lat="39.63166557120089" lon="9.585169624075382"><ele>66.0</ele><time>2026-03-28T15:09:16Z</time></trkpt><trkpt lat="39.631448771780335" lon="9.585239280683098"><ele>66.0</ele><time>2026-03-28T15:09:17Z</time></trkpt><trkpt lat="39.63123784982353" lon="9.585308436299572"><ele>66.0</ele><time>2026-03-28T15:09:18Z</time></trkpt><trkpt lat="39.63105281058678" lon="9.585374401061538"><ele>66.0</ele><time>2026-03-28T15:09:19Z</time></trkpt><trkpt lat="39.63086703825185" lon="9.585459278441402"><ele>66.0</ele><time>2026-03-28T15:09:20Z</time></trkpt><trkpt lat="39.63068974705993" lon="9.585558377192273"><ele>66.0</ele><time>2026-03-28T15:09:21Z</time></trkpt><trkpt lat="39.63053398458174" lon="9.58569104485019"><ele>66.0</ele><time>2026-03-28T15:09:22Z</time></trkpt><trkpt lat="39.630395594971496" lon="9.58583805041298"><ele>66.0</ele><time>2026-03-28T15:09:23Z</time></trkpt><trkpt lat="39.63027941527871" lon="9.585989600179104"><ele>66.0</ele><time>2026-03-28T15:09:24Z</time></trkpt><trkpt lat="39.63018314547793" lon="9.586136395541994"><ele>64.6</ele><time>2026-03-28T15:09:25Z</time></trkpt><trkpt lat="39.63010023980008" lon="9.58625417009803"><ele>63.199999999999996</ele><time>2026-03-28T15:09:26Z</time></trkpt><trkpt lat="39.63001597910645" lon="9.586337007418187"><ele>61.800000000000004</ele><time>2026-03-28T15:09:27Z</time></trkpt><trkpt lat="39.62990849899486" lon="9.58639752669468"><ele>60.400000000000006</ele><time>2026-03-28T15:09:28Z</time></trkpt><trkpt lat="39.629811773260656" lon="9.586423909088133"><ele>59.0</ele><time>2026-03-28T15:09:29Z</time></trkpt><trkpt lat="39.6297333275891" lon="9.586494556358371"><ele>59.0</ele><time>2026-03-28T15:09:30Z</time></trkpt><trkpt lat="39.6296867367392" lon="9.586623095886662"><ele>59.0</ele><time>2026-03-28T15:09:31Z</time></trkpt><trkpt lat="39.62967164341773" lon="9.586766519746647"><ele>59.0</ele><time>2026-03-28T15:09:32Z</time></trkpt><trkpt lat="39.62966405498799" lon="9.58690532471699"><ele>59.0</ele><time>2026-03-28T15:09:33Z</time></trkpt><trkpt lat="39.62953502741158" lon="9.58701812989823"><ele>57.333333333333336</ele><time>2026-03-28T15:09:34Z</time></trkpt><trkpt lat="39.62940602290188" lon="9.587098649083337"><ele>55.66666666666667</ele><time>2026-03-28T15:09:35Z</time></trkpt><trkpt lat="39.6292634313561" lon="9.587166557347626"><ele>54.0</ele><time>2026-03-28T15:09:36Z</time></trkpt><trkpt lat="39.62910673664903" lon="9.587237396834512"><ele>54.0</ele><time>2026-03-28T15:09:37Z</time></trkpt><trkpt lat="39.628935845305875" lon="9.587312625204914"><ele>54.0</ele><time>2026-03-28T15:09:38Z</time></trkpt><trkpt lat="39.62875516288902" lon="9.587389093969172"><ele>54.0</ele><time>2026-03-28T15:09:39Z</time></trkpt><trkpt lat="39.62857330714011" lon="9.587468283382703"><ele>54.0</ele><time>2026-03-28T15:09:40Z</time></trkpt><trkpt lat="39.62838283062096" lon="9.587553023798897"><ele>54.0</ele><time>2026-03-28T15:09:41Z</time></trkpt><trkpt lat="39.62818635170018" lon="9.587641819735342"><ele>54.0</ele><time>2026-03-28T15:09:42Z</time></trkpt><trkpt lat="39.62798559368764" lon="9.587732937567907"><ele>54.66666666666667</ele><time>2026-03-28T15:09:43Z</time></trkpt><trkpt lat="39.62777992600497" lon="9.587824732169084"><ele>55.333333333333336</ele><time>2026-03-28T15:09:44Z</time></trkpt><trkpt lat="39.62757583050686" lon="9.587912424872451"><ele>56.0</ele><time>2026-03-28T15:09:45Z</time></trkpt><trkpt lat="39.62736891624489" lon="9.588001542076384"><ele>54.66666666666667</ele><time>2026-03-28T15:09:46Z</time></trkpt><trkpt lat="39.62716077696443" lon="9.588092840673122"><ele>53.33333333333333</ele><time>2026-03-28T15:09:47Z</time></trkpt><trkpt lat="39.62694839047586" lon="9.588186264710373"><ele>52.0</ele><time>2026-03-28T15:09:48Z</time></trkpt><trkpt lat="39.62673303275499" lon="9.588281165992846"><ele>51.5</ele><time>2026-03-28T15:09:49Z</time></trkpt><trkpt lat="39.62651515708653" lon="9.588376922518266"><ele>51.0</ele><time>2026-03-28T15:09:50Z</time></trkpt><trkpt lat="39.62629717439156" lon="9.588472553028668"><ele>51.5</ele><time>2026-03-28T15:09:51Z</time></trkpt><trkpt lat="39.62607652065933" lon="9.588568442256753"><ele>52.0</ele><time>2026-03-28T15:09:52Z</time></trkpt><trkpt lat="39.625854760200205" lon="9.588664635677823"><ele>51.0</ele><time>2026-03-28T15:09:53Z</time></trkpt><trkpt lat="39.62563355580543" lon="9.588761004096767"><ele>50.0</ele><time>2026-03-28T15:09:54Z</time></trkpt><trkpt lat="39.62541361908102" lon="9.588855247713774"><ele>49.5</ele><time>2026-03-28T15:09:55Z</time></trkpt><trkpt lat="39.62519456691453" lon="9.588947991115866"><ele>49.0</ele><time>2026-03-28T15:09:56Z</time></trkpt><trkpt lat="39.624977552727565" lon="9.58903812940134"><ele>49.0</ele><time>2026-03-28T15:09:57Z</time></trkpt><trkpt lat="39.624759961339265" lon="9.589128936024636"><ele>49.0</ele><time>2026-03-28T15:09:58Z</time></trkpt><trkpt lat="39.62454658444148" lon="9.589226827175098"><ele>51.0</ele><time>2026-03-28T15:09:59Z</time></trkpt><trkpt lat="39.62434010670277" lon="9.58934156720556"><ele>53.0</ele><time>2026-03-28T15:10:00Z</time></trkpt><trkpt lat="39.62414152705392" lon="9.589480296760458"><ele>52.66666666666667</ele><time>2026-03-28T15:10:01Z</time></trkpt><trkpt lat="39.62395054813111" lon="9.589634438803094"><ele>52.33333333333333</ele><time>2026-03-28T15:10:02Z</time></trkpt><trkpt lat="39.623763313946526" lon="9.589788803524721"><ele>52.0</ele><time>2026-03-28T15:10:03Z</time></trkpt><trkpt lat="39.62357673076515" lon="9.589942249945208"><ele>52.0</ele><time>2026-03-28T15:10:04Z</time></trkpt><trkpt lat="39.62338661771011" lon="9.59008951821521"><ele>52.0</ele><time>2026-03-28T15:10:05Z</time></trkpt><trkpt lat="39.623191651967225" lon="9.590217257840633"><ele>52.0</ele><time>2026-03-28T15:10:06Z</time></trkpt><trkpt lat="39.62298455730226" lon="9.59031508598353"><ele>51.33333333333333</ele><time>2026-03-28T15:10:07Z</time></trkpt><trkpt lat="39.62277096448549" lon="9.590393637456478"><ele>50.66666666666667</ele><time>2026-03-28T15:10:08Z</time></trkpt><trkpt lat="39.62256809723523" lon="9.590474104376353"><ele>50.0</ele><time>2026-03-28T15:10:09Z</time></trkpt><trkpt lat="39.62237261346063" lon="9.590551145172446"><ele>50.0</ele><time>2026-03-28T15:10:10Z</time></trkpt><trkpt lat="39.622185062642544" lon="9.590607731871277"><ele>50.0</ele><time>2026-03-28T15:10:11Z</time></trkpt><trkpt lat="39.62200008379257" lon="9.590619147280606"><ele>50.0</ele><time>2026-03-28T15:10:12Z</time></trkpt><trkpt lat="39.6218097428341" lon="9.590571136661769"><ele>49.66666666666667</ele><time>2026-03-28T15:10:13Z</time></trkpt><trkpt lat="39.6216149571579" lon="9.590473298719818"><ele>49.33333333333333</ele><time>2026-03-28T15:10:14Z</time></trkpt><trkpt lat="39.62141944607321" lon="9.590343421131484"><ele>49.0</ele><time>2026-03-28T15:10:15Z</time></trkpt><trkpt lat="39.62121730950108" lon="9.590206474765596"><ele>49.5</ele><time>2026-03-28T15:10:16Z</time></trkpt><trkpt lat="39.62100526324234" lon="9.590085779430815"><ele>50.0</ele><time>2026-03-28T15:10:17Z</time></trkpt><trkpt lat="39.62078686744371" lon="9.590001472447224"><ele>50.0</ele><time>2026-03-28T15:10:18Z</time></trkpt><trkpt lat="39.620554163739016" lon="9.589964137074846"><ele>50.0</ele><time>2026-03-28T15:10:19Z</time></trkpt><trkpt lat="39.620317978743905" lon="9.589936568977974"><ele>52.5</ele><time>2026-03-28T15:10:20Z</time></trkpt><trkpt lat="39.62008407638561" lon="9.589990586484534"><ele>55.0</ele><time>2026-03-28T15:10:21Z</time></trkpt><trkpt lat="39.61986016943652" lon="9.590054838113263"><ele>55.0</ele><time>2026-03-28T15:10:22Z</time></trkpt><trkpt lat="39.6196477151944" lon="9.590126516613823"><ele>55.0</ele><time>2026-03-28T15:10:23Z</time></trkpt><trkpt lat="39.61943999016333" lon="9.590186396010054"><ele>55.0</ele><time>2026-03-28T15:10:24Z</time></trkpt><trkpt lat="39.6192264591981" lon="9.590231337487971"><ele>54.33333333333333</ele><time>2026-03-28T15:10:25Z</time></trkpt><trkpt lat="39.61900882412283" lon="9.590242646924391"><ele>53.66666666666667</ele><time>2026-03-28T15:10:26Z</time></trkpt><trkpt lat="39.61878948639566" lon="9.590214240855582"><ele>53.0</ele><time>2026-03-28T15:10:27Z</time></trkpt><trkpt lat="39.61858031714614" lon="9.590123369247358"><ele>53.0</ele><time>2026-03-28T15:10:28Z</time></trkpt><trkpt lat="39.61837287321456" lon="9.590061137713333"><ele>53.0</ele><time>2026-03-28T15:10:29Z</time></trkpt><trkpt lat="39.61815259117194" lon="9.59006123114765"><ele>53.0</ele><time>2026-03-28T15:10:30Z</time></trkpt><trkpt lat="39.61792676119978" lon="9.590085609749105"><ele>55.5</ele><time>2026-03-28T15:10:31Z</time></trkpt><trkpt lat="39.61770018136593" lon="9.59013494041262"><ele>58.0</ele><time>2026-03-28T15:10:32Z</time></trkpt><trkpt lat="39.61747024005119" lon="9.590172751807298"><ele>58.0</ele><time>2026-03-28T15:10:33Z</time></trkpt><trkpt lat="39.61724223848311" lon="9.590210708440601"><ele>58.0</ele><time>2026-03-28T15:10:34Z</time></trkpt><trkpt lat="39.617016362398466" lon="9.590256159362061"><ele>57.0</ele><time>2026-03-28T15:10:35Z</time></trkpt><trkpt lat="39.61680320779497" lon="9.590313841107115"><ele>56.0</ele><time>2026-03-28T15:10:36Z</time></trkpt><trkpt lat="39.61660281934731" lon="9.590388574684392"><ele>55.0</ele><time>2026-03-28T15:10:37Z</time></trkpt><trkpt lat="39.61641598607046" lon="9.590465101652095"><ele>51.666666666666664</ele><time>2026-03-28T15:10:38Z</time></trkpt><trkpt lat="39.616236238357615" lon="9.590535179472438"><ele>48.33333333333333</ele><time>2026-03-28T15:10:39Z</time></trkpt><trkpt lat="39.616065851672914" lon="9.590597462334884"><ele>45.0</ele><time>2026-03-28T15:10:40Z</time></trkpt><trkpt lat="39.615901863486556" lon="9.590655969112145"><ele>45.0</ele><time>2026-03-28T15:10:41Z</time></trkpt><trkpt lat="39.615739955851815" lon="9.590666143516051"><ele>45.0</ele><time>2026-03-28T15:10:42Z</time></trkpt><trkpt lat="39.61558789337492" lon="9.59070139415729"><ele>45.0</ele><time>2026-03-28T15:10:43Z</time></trkpt><trkpt lat="39.61543489591065" lon="9.590707183855963"><ele>44.666666666666664</ele><time>2026-03-28T15:10:44Z</time></trkpt><trkpt lat="39.61527689137789" lon="9.590687254531177"><ele>44.33333333333333</ele><time>2026-03-28T15:10:45Z</time></trkpt><trkpt lat="39.61511932364456" lon="9.590610701571507"><ele>44.0</ele><time>2026-03-28T15:10:46Z</time></trkpt><trkpt lat="39.61494962220983" lon="9.590566820125492"><ele>44.0</ele><time>2026-03-28T15:10:47Z</time></trkpt><trkpt lat="39.61477840904079" lon="9.590501655312048"><ele>44.0</ele><time>2026-03-28T15:10:48Z</time></trkpt><trkpt lat="39.61460506343005" lon="9.590438184660501"><ele>44.0</ele><time>2026-03-28T15:10:49Z</time></trkpt><trkpt lat="39.614433115421406" lon="9.59037444797944"><ele>47.33333333333333</ele><time>2026-03-28T15:10:50Z</time></trkpt><trkpt lat="39.61426030922937" lon="9.590312527552985"><ele>50.666666666666664</ele><time>2026-03-28T15:10:51Z</time></trkpt><trkpt lat="39.614090036137746" lon="9.59025369359682"><ele>54.0</ele><time>2026-03-28T15:10:52Z</time></trkpt><trkpt lat="39.61392261491011" lon="9.590202952263253"><ele>54.0</ele><time>2026-03-28T15:10:53Z</time></trkpt><trkpt lat="39.61375718486607" lon="9.590156306920736"><ele>54.0</ele><time>2026-03-28T15:10:54Z</time></trkpt><trkpt lat="39.61358793722435" lon="9.590113391264792"><ele>54.0</ele><time>2026-03-28T15:10:55Z</time></trkpt><trkpt lat="39.613418457977104" lon="9.590069388297852"><ele>52.0</ele><time>2026-03-28T15:10:56Z</time></trkpt><trkpt lat="39.613254443406376" lon="9.590021518337812"><ele>50.0</ele><time>2026-03-28T15:10:57Z</time></trkpt><trkpt lat="39.61309424607563" lon="9.589969340266103"><ele>48.0</ele><time>2026-03-28T15:10:58Z</time></trkpt><trkpt lat="39.61293259331226" lon="9.589922718876535"><ele>46.666666666666664</ele><time>2026-03-28T15:10:59Z</time></trkpt><trkpt lat="39.61277071486014" lon="9.58987742902683"><ele>45.33333333333333</ele><time>2026-03-28T15:11:00Z</time></trkpt><trkpt lat="39.61260937296014" lon="9.58983010911635"><ele>44.0</ele><time>2026-03-28T15:11:01Z</time></trkpt><trkpt lat="39.61244511249621" lon="9.58978164949795"><ele>44.0</ele><time>2026-03-28T15:11:02Z</time></trkpt><trkpt lat="39.61228062254951" lon="9.589732779944134"><ele>44.0</ele><time>2026-03-28T15:11:03Z</time></trkpt><trkpt lat="39.61211436449695" lon="9.589682847570387"><ele>44.0</ele><time>2026-03-28T15:11:04Z</time></trkpt><trkpt lat="39.611946548428314" lon="9.589634478905833"><ele>43.33333333333333</ele><time>2026-03-28T15:11:05Z</time></trkpt><trkpt lat="39.611774919338785" lon="9.589593076089999"><ele>42.666666666666664</ele><time>2026-03-28T15:11:06Z</time></trkpt><trkpt lat="39.611599178765545" lon="9.589575966639108"><ele>42.0</ele><time>2026-03-28T15:11:07Z</time></trkpt><trkpt lat="39.6114217945439" lon="9.589583993685148"><ele>42.0</ele><time>2026-03-28T15:11:08Z</time></trkpt><trkpt lat="39.61124648469609" lon="9.58961999605385"><ele>42.0</ele><time>2026-03-28T15:11:09Z</time></trkpt><trkpt lat="39.61107070724619" lon="9.589652376742821"><ele>42.0</ele><time>2026-03-28T15:11:10Z</time></trkpt><trkpt lat="39.61090573308831" lon="9.589731339474094"><ele>42.666666666666664</ele><time>2026-03-28T15:11:11Z</time></trkpt><trkpt lat="39.61073947920974" lon="9.589786906246998"><ele>43.33333333333333</ele><time>2026-03-28T15:11:12Z</time></trkpt><trkpt lat="39.61057109240473" lon="9.58981346729593"><ele>44.0</ele><time>2026-03-28T15:11:13Z</time></trkpt><trkpt lat="39.61040438109843" lon="9.589845006992762"><ele>44.0</ele><time>2026-03-28T15:11:14Z</time></trkpt><trkpt lat="39.610232300476305" lon="9.589866299131433"><ele>44.0</ele><time>2026-03-28T15:11:15Z</time></trkpt><trkpt lat="39.61005844153783" lon="9.589897473591444"><ele>44.0</ele><time>2026-03-28T15:11:16Z</time></trkpt><trkpt lat="39.609879781956614" lon="9.589875233484053"><ele>44.0</ele><time>2026-03-28T15:11:17Z</time></trkpt><trkpt lat="39.60970159836752" lon="9.589873218001046"><ele>44.0</ele><time>2026-03-28T15:11:18Z</time></trkpt><trkpt lat="39.60952608145224" lon="9.589891304115756"><ele>44.0</ele><time>2026-03-28T15:11:19Z</time></trkpt><trkpt lat="39.609350360918235" lon="9.589887182901569"><ele>43.0</ele><time>2026-03-28T15:11:20Z</time></trkpt><trkpt lat="39.609179979982216" lon="9.589893688541757"><ele>42.0</ele><time>2026-03-28T15:11:21Z</time></trkpt><trkpt lat="39.60901115163111" lon="9.589919243444287"><ele>41.0</ele><time>2026-03-28T15:11:22Z</time></trkpt><trkpt lat="39.60884557208486" lon="9.589962452063313"><ele>41.0</ele><time>2026-03-28T15:11:23Z</time></trkpt><trkpt lat="39.608679982533275" lon="9.590011172196133"><ele>41.0</ele><time>2026-03-28T15:11:24Z</time></trkpt><trkpt lat="39.60851305077417" lon="9.590036438882152"><ele>41.0</ele><time>2026-03-28T15:11:25Z</time></trkpt><trkpt lat="39.608355520276305" lon="9.59010071710522"><ele>41.33333333333333</ele><time>2026-03-28T15:11:26Z</time></trkpt><trkpt lat="39.608192348245815" lon="9.590143060857924"><ele>41.666666666666664</ele><time>2026-03-28T15:11:27Z</time></trkpt><trkpt lat="39.60802913247183" lon="9.590185586949193"><ele>42.0</ele><time>2026-03-28T15:11:28Z</time></trkpt><trkpt lat="39.607865009651206" lon="9.590231335084576"><ele>43.333333333333336</ele><time>2026-03-28T15:11:29Z</time></trkpt><trkpt lat="39.60769646239485" lon="9.590278622709283"><ele>44.66666666666667</ele><time>2026-03-28T15:11:30Z</time></trkpt><trkpt lat="39.6075267172371" lon="9.590322976942081"><ele>46.0</ele><time>2026-03-28T15:11:31Z</time></trkpt><trkpt lat="39.607359114987894" lon="9.590364860173665"><ele>43.333333333333336</ele><time>2026-03-28T15:11:32Z</time></trkpt><trkpt lat="39.607190664990235" lon="9.590395175981726"><ele>40.666666666666664</ele><time>2026-03-28T15:11:33Z</time></trkpt><trkpt lat="39.60701992130979" lon="9.590400278618281"><ele>38.0</ele><time>2026-03-28T15:11:34Z</time></trkpt><trkpt lat="39.60685517282235" lon="9.590351779759539"><ele>42.0</ele><time>2026-03-28T15:11:35Z</time></trkpt><trkpt lat="39.606690122273534" lon="9.590297208273094"><ele>46.0</ele><time>2026-03-28T15:11:36Z</time></trkpt><trkpt lat="39.60652780926217" lon="9.590238894017721"><ele>50.0</ele><time>2026-03-28T15:11:37Z</time></trkpt><trkpt lat="39.6063643135868" lon="9.590185749732221"><ele>50.0</ele><time>2026-03-28T15:11:38Z</time></trkpt><trkpt lat="39.60620522544115" lon="9.590106885178812"><ele>50.0</ele><time>2026-03-28T15:11:39Z</time></trkpt><trkpt lat="39.606043489837724" lon="9.589995924673419"><ele>50.0</ele><time>2026-03-28T15:11:40Z</time></trkpt><trkpt lat="39.605865740324504" lon="9.589891593646259"><ele>47.66666666666667</ele><time>2026-03-28T15:11:41Z</time></trkpt><trkpt lat="39.60568016571627" lon="9.589780365360351"><ele>45.333333333333336</ele><time>2026-03-28T15:11:42Z</time></trkpt><trkpt lat="39.60548546814014" lon="9.589664074873623"><ele>43.0</ele><time>2026-03-28T15:11:43Z</time></trkpt><trkpt lat="39.60529020898971" lon="9.58954833691372"><ele>44.0</ele><time>2026-03-28T15:11:44Z</time></trkpt><trkpt lat="39.6050960717982" lon="9.589433263969923"><ele>45.0</ele><time>2026-03-28T15:11:45Z</time></trkpt><trkpt lat="39.60491191088206" lon="9.589324104350284"><ele>46.0</ele><time>2026-03-28T15:11:46Z</time></trkpt><trkpt lat="39.604732383578465" lon="9.589217691269827"><ele>46.0</ele><time>2026-03-28T15:11:47Z</time></trkpt><trkpt lat="39.60457021108293" lon="9.589121565066469"><ele>46.0</ele><time>2026-03-28T15:11:48Z</time></trkpt><trkpt lat="39.60439430409568" lon="9.589017297974111"><ele>46.0</ele><time>2026-03-28T15:11:49Z</time></trkpt><trkpt lat="39.60422471815511" lon="9.588916319014617"><ele>47.333333333333336</ele><time>2026-03-28T15:11:50Z</time></trkpt><trkpt lat="39.60406222487763" lon="9.588819810473783"><ele>48.66666666666667</ele><time>2026-03-28T15:11:51Z</time></trkpt><trkpt lat="39.60390150239124" lon="9.588725835343293"><ele>50.0</ele><time>2026-03-28T15:11:52Z</time></trkpt><trkpt lat="39.60373681757818" lon="9.588629543539035"><ele>46.66666666666667</ele><time>2026-03-28T15:11:53Z</time></trkpt><trkpt lat="39.60356520106999" lon="9.588558284974345"><ele>43.333333333333336</ele><time>2026-03-28T15:11:54Z</time></trkpt><trkpt lat="39.60339398688369" lon="9.588490877755131"><ele>40.0</ele><time>2026-03-28T15:11:55Z</time></trkpt><trkpt lat="39.60321820977003" lon="9.58844644923218"><ele>40.0</ele><time>2026-03-28T15:11:56Z</time></trkpt><trkpt lat="39.6030169082703" lon="9.588455555164803"><ele>40.0</ele><time>2026-03-28T15:11:57Z</time></trkpt><trkpt lat="39.6027912551828" lon="9.588475513640912"><ele>40.0</ele><time>2026-03-28T15:11:58Z</time></trkpt><trkpt lat="39.602548190181416" lon="9.588497925183253"><ele>39.0</ele><time>2026-03-28T15:11:59Z</time></trkpt><trkpt lat="39.60228683088092" lon="9.58852202352559"><ele>38.0</ele><time>2026-03-28T15:12:00Z</time></trkpt><trkpt lat="39.60201388758626" lon="9.588566446294454"><ele>38.5</ele><time>2026-03-28T15:12:01Z</time></trkpt><trkpt lat="39.601735060414015" lon="9.588585729497433"><ele>39.0</ele><time>2026-03-28T15:12:02Z</time></trkpt><trkpt lat="39.60146126562558" lon="9.588615274454508"><ele>39.0</ele><time>2026-03-28T15:12:03Z</time></trkpt><trkpt lat="39.60118186302775" lon="9.588624014606001"><ele>39.0</ele><time>2026-03-28T15:12:04Z</time></trkpt><trkpt lat="39.60090189364735" lon="9.588650009852133"><ele>38.0</ele><time>2026-03-28T15:12:05Z</time></trkpt><trkpt lat="39.60062116140665" lon="9.588697405601655"><ele>37.0</ele><time>2026-03-28T15:12:06Z</time></trkpt><trkpt lat="39.600342750824645" lon="9.588719279283122"><ele>37.0</ele><time>2026-03-28T15:12:07Z</time></trkpt><trkpt lat="39.600065626628144" lon="9.588744479894977"><ele>37.0</ele><time>2026-03-28T15:12:08Z</time></trkpt><trkpt lat="39.599791086566974" lon="9.588771296689014"><ele>37.0</ele><time>2026-03-28T15:12:09Z</time></trkpt><trkpt lat="39.599519865107084" lon="9.588796320153659"><ele>37.0</ele><time>2026-03-28T15:12:10Z</time></trkpt><trkpt lat="39.599258327407654" lon="9.588817171537412"><ele>36.5</ele><time>2026-03-28T15:12:11Z</time></trkpt><trkpt lat="39.599013514729705" lon="9.588834894946455"><ele>36.0</ele><time>2026-03-28T15:12:12Z</time></trkpt><trkpt lat="39.598776580889385" lon="9.588855299745086"><ele>36.0</ele><time>2026-03-28T15:12:13Z</time></trkpt><trkpt lat="39.598542299914165" lon="9.588873899797665"><ele>36.0</ele><time>2026-03-28T15:12:14Z</time></trkpt><trkpt lat="39.598321172767136" lon="9.588888984395382"><ele>36.0</ele><time>2026-03-28T15:12:15Z</time></trkpt><trkpt lat="39.598111685950464" lon="9.588909383049124"><ele>36.0</ele><time>2026-03-28T15:12:16Z</time></trkpt><trkpt lat="39.5979169379185" lon="9.588956392603682"><ele>36.0</ele><time>2026-03-28T15:12:17Z</time></trkpt><trkpt lat="39.59773898612827" lon="9.58906312756294"><ele>36.0</ele><time>2026-03-28T15:12:18Z</time></trkpt><trkpt lat="39.597574675523724" lon="9.589226859439986"><ele>36.0</ele><time>2026-03-28T15:12:19Z</time></trkpt><trkpt lat="39.5974181038329" lon="9.589429189046353"><ele>36.0</ele><time>2026-03-28T15:12:20Z</time></trkpt><trkpt lat="39.59727363042864" lon="9.589631118229363"><ele>36.0</ele><time>2026-03-28T15:12:21Z</time></trkpt><trkpt lat="39.597150586464714" lon="9.589850225362161"><ele>36.0</ele><time>2026-03-28T15:12:22Z</time></trkpt><trkpt lat="39.597069740369044" lon="9.59010265707525"><ele>36.0</ele><time>2026-03-28T15:12:23Z</time></trkpt><trkpt lat="39.597013876582146" lon="9.59034927610641"><ele>36.333333333333336</ele><time>2026-03-28T15:12:24Z</time></trkpt><trkpt lat="39.59695712446165" lon="9.59057791419564"><ele>36.66666666666667</ele><time>2026-03-28T15:12:25Z</time></trkpt><trkpt lat="39.59689328665673" lon="9.590775124807031"><ele>37.0</ele><time>2026-03-28T15:12:26Z</time></trkpt><trkpt lat="39.596803250483944" lon="9.590924284321273"><ele>37.0</ele><time>2026-03-28T15:12:27Z</time></trkpt><trkpt lat="39.596655263748225" lon="9.591013168451923"><ele>37.0</ele><time>2026-03-28T15:12:28Z</time></trkpt><trkpt lat="39.596495539843325" lon="9.591130367927514"><ele>37.0</ele><time>2026-03-28T15:12:29Z</time></trkpt><trkpt lat="39.59632368278286" lon="9.591234601044977"><ele>37.333333333333336</ele><time>2026-03-28T15:12:30Z</time></trkpt><trkpt lat="39.596164613132984" lon="9.59132391314692"><ele>37.666666666666664</ele><time>2026-03-28T15:12:31Z</time></trkpt><trkpt lat="39.5960129648334" lon="9.59135933510212"><ele>38.0</ele><time>2026-03-28T15:12:32Z</time></trkpt><trkpt lat="39.595871432806625" lon="9.591283553536273"><ele>38.0</ele><time>2026-03-28T15:12:33Z</time></trkpt><trkpt lat="39.59569608250685" lon="9.591199005247011"><ele>38.0</ele><time>2026-03-28T15:12:34Z</time></trkpt><trkpt lat="39.59551740617145" lon="9.591092879700202"><ele>38.0</ele><time>2026-03-28T15:12:35Z</time></trkpt><trkpt lat="39.59531837119136" lon="9.590984343328245"><ele>38.0</ele><time>2026-03-28T15:12:36Z</time></trkpt><trkpt lat="39.59510680334538" lon="9.590863913724501"><ele>38.0</ele><time>2026-03-28T15:12:37Z</time></trkpt><trkpt lat="39.594885701835224" lon="9.590732067677443"><ele>38.0</ele><time>2026-03-28T15:12:38Z</time></trkpt><trkpt lat="39.59465662323822" lon="9.590599547087258"><ele>38.0</ele><time>2026-03-28T15:12:39Z</time></trkpt><trkpt lat="39.59441866037875" lon="9.590462662137552"><ele>39.0</ele><time>2026-03-28T15:12:40Z</time></trkpt><trkpt lat="39.59417892417115" lon="9.590324315309845"><ele>40.0</ele><time>2026-03-28T15:12:41Z</time></trkpt><trkpt lat="39.59393981414146" lon="9.590183691932337"><ele>40.0</ele><time>2026-03-28T15:12:42Z</time></trkpt><trkpt lat="39.59370190442563" lon="9.590043371099794"><ele>40.0</ele><time>2026-03-28T15:12:43Z</time></trkpt><trkpt lat="39.5934655230731" lon="9.589905011139706"><ele>37.5</ele><time>2026-03-28T15:12:44Z</time></trkpt><trkpt lat="39.59323222184379" lon="9.589768119899675"><ele>35.0</ele><time>2026-03-28T15:12:45Z</time></trkpt><trkpt lat="39.5929998061955" lon="9.589632351113226"><ele>35.5</ele><time>2026-03-28T15:12:46Z</time></trkpt><trkpt lat="39.59276686681687" lon="9.589501420528906"><ele>36.0</ele><time>2026-03-28T15:12:47Z</time></trkpt><trkpt lat="39.59253733052287" lon="9.589370293285585"><ele>36.0</ele><time>2026-03-28T15:12:48Z</time></trkpt><trkpt lat="39.59230894087965" lon="9.58923466860431"><ele>36.0</ele><time>2026-03-28T15:12:49Z</time></trkpt><trkpt lat="39.59208070182805" lon="9.589098661891146"><ele>34.0</ele><time>2026-03-28T15:12:50Z</time></trkpt><trkpt lat="39.591845202694074" lon="9.588962602969755"><ele>32.0</ele><time>2026-03-28T15:12:51Z</time></trkpt><trkpt lat="39.59161045100196" lon="9.588828804458325"><ele>32.0</ele><time>2026-03-28T15:12:52Z</time></trkpt><trkpt lat="39.59137505106153" lon="9.588691020282399"><ele>32.0</ele><time>2026-03-28T15:12:53Z</time></trkpt><trkpt lat="39.59114351471675" lon="9.588554259281517"><ele>32.5</ele><time>2026-03-28T15:12:54Z</time></trkpt><trkpt lat="39.59091448106034" lon="9.588420554024156"><ele>33.0</ele><time>2026-03-28T15:12:55Z</time></trkpt><trkpt lat="39.590685590035704" lon="9.588288160392697"><ele>33.0</ele><time>2026-03-28T15:12:56Z</time></trkpt><trkpt lat="39.59045122541753" lon="9.588153116071641"><ele>33.0</ele><time>2026-03-28T15:12:57Z</time></trkpt><trkpt lat="39.59022043901523" lon="9.588019597722528"><ele>33.5</ele><time>2026-03-28T15:12:58Z</time></trkpt><trkpt lat="39.589994838571286" lon="9.587888438104805"><ele>34.0</ele><time>2026-03-28T15:12:59Z</time></trkpt><trkpt lat="39.58977028342891" lon="9.587758230841606"><ele>34.0</ele><time>2026-03-28T15:13:00Z</time></trkpt><trkpt lat="39.5895516993456" lon="9.587628207536126"><ele>34.0</ele><time>2026-03-28T15:13:01Z</time></trkpt><trkpt lat="39.58934375616464" lon="9.587507265703527"><ele>32.66666666666667</ele><time>2026-03-28T15:13:02Z</time></trkpt><trkpt lat="39.58913771736303" lon="9.587398400254548"><ele>31.333333333333336</ele><time>2026-03-28T15:13:03Z</time></trkpt><trkpt lat="39.58892517684596" lon="9.58730887698518"><ele>30.0</ele><time>2026-03-28T15:13:04Z</time></trkpt><trkpt lat="39.58869584953699" lon="9.587251685172204"><ele>30.0</ele><time>2026-03-28T15:13:05Z</time></trkpt><trkpt lat="39.588452981779476" lon="9.58722445574317"><ele>30.0</ele><time>2026-03-28T15:13:06Z</time></trkpt><trkpt lat="39.58820852320118" lon="9.587215577625859"><ele>30.0</ele><time>2026-03-28T15:13:07Z</time></trkpt><trkpt lat="39.587969360089104" lon="9.587219114953966"><ele>30.0</ele><time>2026-03-28T15:13:08Z</time></trkpt><trkpt lat="39.58772893579874" lon="9.587250702438784"><ele>33.0</ele><time>2026-03-28T15:13:09Z</time></trkpt><trkpt lat="39.58748328169965" lon="9.587315464169345"><ele>36.0</ele><time>2026-03-28T15:13:10Z</time></trkpt><trkpt lat="39.58724272824806" lon="9.587413150453555"><ele>36.0</ele><time>2026-03-28T15:13:11Z</time></trkpt><trkpt lat="39.5870167697776" lon="9.58754770701631"><ele>36.0</ele><time>2026-03-28T15:13:12Z</time></trkpt><trkpt lat="39.58680538510175" lon="9.587718760370972"><ele>33.0</ele><time>2026-03-28T15:13:13Z</time></trkpt><trkpt lat="39.586601564301674" lon="9.587922171687994"><ele>30.0</ele><time>2026-03-28T15:13:14Z</time></trkpt><trkpt lat="39.586406089350824" lon="9.588149316980747"><ele>30.0</ele><time>2026-03-28T15:13:15Z</time></trkpt><trkpt lat="39.58622013343135" lon="9.588381536537135"><ele>30.0</ele><time>2026-03-28T15:13:16Z</time></trkpt><trkpt lat="39.58603834247068" lon="9.58861260539963"><ele>30.5</ele><time>2026-03-28T15:13:17Z</time></trkpt><trkpt lat="39.58585606090948" lon="9.588840269385596"><ele>31.0</ele><time>2026-03-28T15:13:18Z</time></trkpt><trkpt lat="39.58567688292955" lon="9.589063663354416"><ele>31.0</ele><time>2026-03-28T15:13:19Z</time></trkpt><trkpt lat="39.585494252662826" lon="9.589283716059256"><ele>31.0</ele><time>2026-03-28T15:13:20Z</time></trkpt><trkpt lat="39.58531118067099" lon="9.589496793343724"><ele>31.5</ele><time>2026-03-28T15:13:21Z</time></trkpt><trkpt lat="39.58512560394956" lon="9.589705152268879"><ele>32.0</ele><time>2026-03-28T15:13:22Z</time></trkpt><trkpt lat="39.58494237941719" lon="9.589902196228083"><ele>32.0</ele><time>2026-03-28T15:13:23Z</time></trkpt><trkpt lat="39.58475978735936" lon="9.590089451960012"><ele>32.0</ele><time>2026-03-28T15:13:24Z</time></trkpt><trkpt lat="39.58456115993752" lon="9.590256785353303"><ele>29.5</ele><time>2026-03-28T15:13:25Z</time></trkpt><trkpt lat="39.584345482309466" lon="9.590397277312702"><ele>27.0</ele><time>2026-03-28T15:13:26Z</time></trkpt><trkpt lat="39.58412238004337" lon="9.590510775757874"><ele>27.0</ele><time>2026-03-28T15:13:27Z</time></trkpt><trkpt lat="39.583895398143106" lon="9.590599357977403"><ele>27.0</ele><time>2026-03-28T15:13:28Z</time></trkpt><trkpt lat="39.583659899708444" lon="9.590664529513008"><ele>27.0</ele><time>2026-03-28T15:13:29Z</time></trkpt><trkpt lat="39.58341703970603" lon="9.590693600873614"><ele>27.0</ele><time>2026-03-28T15:13:30Z</time></trkpt><trkpt lat="39.58317038743156" lon="9.590711875143649"><ele>27.0</ele><time>2026-03-28T15:13:31Z</time></trkpt><trkpt lat="39.58292061701687" lon="9.590732614147381"><ele>27.0</ele><time>2026-03-28T15:13:32Z</time></trkpt><trkpt lat="39.582669989855354" lon="9.59076148214565"><ele>26.5</ele><time>2026-03-28T15:13:33Z</time></trkpt><trkpt lat="39.58242339084814" lon="9.590791470154734"><ele>26.0</ele><time>2026-03-28T15:13:34Z</time></trkpt><trkpt lat="39.58217809830144" lon="9.590816338673157"><ele>26.5</ele><time>2026-03-28T15:13:35Z</time></trkpt><trkpt lat="39.581936195830636" lon="9.590838421710798"><ele>27.0</ele><time>2026-03-28T15:13:36Z</time></trkpt><trkpt lat="39.58169745471247" lon="9.590852138738013"><ele>27.0</ele><time>2026-03-28T15:13:37Z</time></trkpt><trkpt lat="39.58146179906575" lon="9.59081788261698"><ele>27.0</ele><time>2026-03-28T15:13:38Z</time></trkpt><trkpt lat="39.58122024968535" lon="9.590805177333502"><ele>27.0</ele><time>2026-03-28T15:13:39Z</time></trkpt><trkpt lat="39.580979601853755" lon="9.590765173483073"><ele>27.0</ele><time>2026-03-28T15:13:40Z</time></trkpt><trkpt lat="39.5807353855327" lon="9.59073343123411"><ele>27.0</ele><time>2026-03-28T15:13:41Z</time></trkpt><trkpt lat="39.58049084453662" lon="9.59070320729752"><ele>27.0</ele><time>2026-03-28T15:13:42Z</time></trkpt><trkpt lat="39.58024599665852" lon="9.59067328155066"><ele>27.0</ele><time>2026-03-28T15:13:43Z</time></trkpt><trkpt lat="39.580002036704954" lon="9.5906457318257"><ele>27.0</ele><time>2026-03-28T15:13:44Z</time></trkpt><trkpt lat="39.57975586385883" lon="9.590617287830165"><ele>25.5</ele><time>2026-03-28T15:13:45Z</time></trkpt><trkpt lat="39.57950975720554" lon="9.590586228977378"><ele>24.0</ele><time>2026-03-28T15:13:46Z</time></trkpt><trkpt lat="39.579262971238414" lon="9.590555640578103"><ele>24.0</ele><time>2026-03-28T15:13:47Z</time></trkpt><trkpt lat="39.57901364281442" lon="9.590527631471655"><ele>24.0</ele><time>2026-03-28T15:13:48Z</time></trkpt><trkpt lat="39.578765201533415" lon="9.59047541104431"><ele>24.0</ele><time>2026-03-28T15:13:49Z</time></trkpt><trkpt lat="39.57851380081332" lon="9.590464429147897"><ele>24.0</ele><time>2026-03-28T15:13:50Z</time></trkpt><trkpt lat="39.57826731568823" lon="9.590430346639122"><ele>24.0</ele><time>2026-03-28T15:13:51Z</time></trkpt><trkpt lat="39.57801986084846" lon="9.590397680821033"><ele>24.0</ele><time>2026-03-28T15:13:52Z</time></trkpt><trkpt lat="39.577778308567964" lon="9.590368111776089"><ele>24.5</ele><time>2026-03-28T15:13:53Z</time></trkpt><trkpt lat="39.577546888530925" lon="9.590319091221117"><ele>25.0</ele><time>2026-03-28T15:13:54Z</time></trkpt><trkpt lat="39.577319303246085" lon="9.590291049655843"><ele>25.0</ele><time>2026-03-28T15:13:55Z</time></trkpt><trkpt lat="39.577098206955974" lon="9.590262637759867"><ele>25.0</ele><time>2026-03-28T15:13:56Z</time></trkpt><trkpt lat="39.576884838899176" lon="9.590231494561802"><ele>25.0</ele><time>2026-03-28T15:13:57Z</time></trkpt><trkpt lat="39.57667970865721" lon="9.590179859490974"><ele>25.0</ele><time>2026-03-28T15:13:58Z</time></trkpt><trkpt lat="39.57648417804385" lon="9.590086226066822"><ele>25.0</ele><time>2026-03-28T15:13:59Z</time></trkpt><trkpt lat="39.57629832006596" lon="9.589950805696278"><ele>25.0</ele><time>2026-03-28T15:14:00Z</time></trkpt><trkpt lat="39.576125272550506" lon="9.5897779437508"><ele>24.666666666666668</ele><time>2026-03-28T15:14:01Z</time></trkpt><trkpt lat="39.57594740359825" lon="9.589609710441017"><ele>24.333333333333336</ele><time>2026-03-28T15:14:02Z</time></trkpt><trkpt lat="39.57578453256663" lon="9.589421074184418"><ele>24.0</ele><time>2026-03-28T15:14:03Z</time></trkpt><trkpt lat="39.575623278969196" lon="9.589243299258683"><ele>23.666666666666668</ele><time>2026-03-28T15:14:04Z</time></trkpt><trkpt lat="39.57548230438216" lon="9.589056596023434"><ele>23.333333333333336</ele><time>2026-03-28T15:14:05Z</time></trkpt><trkpt lat="39.57532735064474" lon="9.588908636063477"><ele>23.0</ele><time>2026-03-28T15:14:06Z</time></trkpt><trkpt lat="39.57518785781963" lon="9.588752600096026"><ele>23.666666666666668</ele><time>2026-03-28T15:14:07Z</time></trkpt><trkpt lat="39.57505585898977" lon="9.588601764705235"><ele>24.333333333333336</ele><time>2026-03-28T15:14:08Z</time></trkpt><trkpt lat="39.57493019607689" lon="9.58846221664156"><ele>25.0</ele><time>2026-03-28T15:14:09Z</time></trkpt><trkpt lat="39.574804544395796" lon="9.588350111882852"><ele>25.0</ele><time>2026-03-28T15:14:10Z</time></trkpt><trkpt lat="39.57466737134437" lon="9.588283779840932"><ele>25.0</ele><time>2026-03-28T15:14:11Z</time></trkpt><trkpt lat="39.57452785561528" lon="9.588273532828225"><ele>25.0</ele><time>2026-03-28T15:14:12Z</time></trkpt><trkpt lat="39.57439033567979" lon="9.588307417098944"><ele>25.0</ele><time>2026-03-28T15:14:13Z</time></trkpt><trkpt lat="39.574247980516716" lon="9.588382371625768"><ele>26.0</ele><time>2026-03-28T15:14:14Z</time></trkpt><trkpt lat="39.57410863082295" lon="9.588507368263528"><ele>27.0</ele><time>2026-03-28T15:14:15Z</time></trkpt><trkpt lat="39.573973329685636" lon="9.588663130586303"><ele>28.0</ele><time>2026-03-28T15:14:16Z</time></trkpt><trkpt lat="39.573828874239425" lon="9.588827128975263"><ele>28.0</ele><time>2026-03-28T15:14:17Z</time></trkpt><trkpt lat="39.57367533962023" lon="9.588983290609239"><ele>28.0</ele><time>2026-03-28T15:14:18Z</time></trkpt><trkpt lat="39.57351794685987" lon="9.58914166945527"><ele>28.0</ele><time>2026-03-28T15:14:19Z</time></trkpt><trkpt lat="39.57335917165053" lon="9.589296233595675"><ele>28.0</ele><time>2026-03-28T15:14:20Z</time></trkpt><trkpt lat="39.57320288524648" lon="9.589449486276578"><ele>28.0</ele><time>2026-03-28T15:14:21Z</time></trkpt><trkpt lat="39.573060032536716" lon="9.58960217026024"><ele>28.0</ele><time>2026-03-28T15:14:22Z</time></trkpt><trkpt lat="39.57293308392767" lon="9.589749269245889"><ele>27.333333333333336</ele><time>2026-03-28T15:14:23Z</time></trkpt><trkpt lat="39.57280221744884" lon="9.58986415467544"><ele>26.666666666666664</ele><time>2026-03-28T15:14:24Z</time></trkpt><trkpt lat="39.572655058903635" lon="9.58993271663018"><ele>26.0</ele><time>2026-03-28T15:14:25Z</time></trkpt><trkpt lat="39.57249732275655" lon="9.58995007328462"><ele>26.0</ele><time>2026-03-28T15:14:26Z</time></trkpt><trkpt lat="39.57232367317992" lon="9.589922746695633"><ele>26.0</ele><time>2026-03-28T15:14:27Z</time></trkpt><trkpt lat="39.57214670320638" lon="9.58989489205558"><ele>26.0</ele><time>2026-03-28T15:14:28Z</time></trkpt><trkpt lat="39.571959286708235" lon="9.58990751201226"><ele>25.333333333333332</ele><time>2026-03-28T15:14:29Z</time></trkpt><trkpt lat="39.571771036979264" lon="9.589968299247445"><ele>24.666666666666664</ele><time>2026-03-28T15:14:30Z</time></trkpt><trkpt lat="39.57158077846932" lon="9.590044920526854"><ele>24.0</ele><time>2026-03-28T15:14:31Z</time></trkpt><trkpt lat="39.57138393777993" lon="9.59010507561718"><ele>24.666666666666664</ele><time>2026-03-28T15:14:32Z</time></trkpt><trkpt lat="39.57118116037172" lon="9.590127947089602"><ele>25.333333333333332</ele><time>2026-03-28T15:14:33Z</time></trkpt><trkpt lat="39.5709746577194" lon="9.590117915838809"><ele>26.0</ele><time>2026-03-28T15:14:34Z</time></trkpt><trkpt lat="39.57076777569194" lon="9.590090809789091"><ele>26.0</ele><time>2026-03-28T15:14:35Z</time></trkpt><trkpt lat="39.57055246302727" lon="9.59006137434475"><ele>26.0</ele><time>2026-03-28T15:14:36Z</time></trkpt><trkpt lat="39.57033111806339" lon="9.590029191729842"><ele>26.0</ele><time>2026-03-28T15:14:37Z</time></trkpt><trkpt lat="39.570102616955566" lon="9.589993314539942"><ele>24.5</ele><time>2026-03-28T15:14:38Z</time></trkpt><trkpt lat="39.569871338483935" lon="9.589959224843893"><ele>23.0</ele><time>2026-03-28T15:14:39Z</time></trkpt><trkpt lat="39.56963573855685" lon="9.589925690007512"><ele>21.5</ele><time>2026-03-28T15:14:40Z</time></trkpt><trkpt lat="39.569401253692355" lon="9.589891420546712"><ele>20.0</ele><time>2026-03-28T15:14:41Z</time></trkpt><trkpt lat="39.56916601795222" lon="9.589856561837838"><ele>20.0</ele><time>2026-03-28T15:14:42Z</time></trkpt><trkpt lat="39.568932721328046" lon="9.589821178097031"><ele>20.0</ele><time>2026-03-28T15:14:43Z</time></trkpt><trkpt lat="39.56870079364027" lon="9.589763435345626"><ele>21.5</ele><time>2026-03-28T15:14:44Z</time></trkpt><trkpt lat="39.56846942872818" lon="9.589726861830412"><ele>23.0</ele><time>2026-03-28T15:14:45Z</time></trkpt><trkpt lat="39.56823752947912" lon="9.589691322787033"><ele>23.0</ele><time>2026-03-28T15:14:46Z</time></trkpt><trkpt lat="39.56800944043672" lon="9.589656539013598"><ele>23.0</ele><time>2026-03-28T15:14:47Z</time></trkpt><trkpt lat="39.567781708857986" lon="9.589642705284007"><ele>23.333333333333336</ele><time>2026-03-28T15:14:48Z</time></trkpt><trkpt lat="39.567565275566935" lon="9.589587771757456"><ele>23.666666666666668</ele><time>2026-03-28T15:14:49Z</time></trkpt><trkpt lat="39.56735299692402" lon="9.589554671698728"><ele>24.0</ele><time>2026-03-28T15:14:50Z</time></trkpt><trkpt lat="39.56714671462188" lon="9.589522508129182"><ele>23.666666666666668</ele><time>2026-03-28T15:14:51Z</time></trkpt><trkpt lat="39.56694170699928" lon="9.589507960086431"><ele>23.333333333333336</ele><time>2026-03-28T15:14:52Z</time></trkpt><trkpt lat="39.56674265465636" lon="9.589460671322827"><ele>23.0</ele><time>2026-03-28T15:14:53Z</time></trkpt><trkpt lat="39.56654367589161" lon="9.589380226860255"><ele>23.0</ele><time>2026-03-28T15:14:54Z</time></trkpt><trkpt lat="39.56635899879311" lon="9.589238061203966"><ele>23.0</ele><time>2026-03-28T15:14:55Z</time></trkpt><trkpt lat="39.56615580246276" lon="9.589109097901135"><ele>23.0</ele><time>2026-03-28T15:14:56Z</time></trkpt><trkpt lat="39.565957449546616" lon="9.588953946447056"><ele>22.5</ele><time>2026-03-28T15:14:57Z</time></trkpt><trkpt lat="39.56575220862648" lon="9.588795299150172"><ele>22.0</ele><time>2026-03-28T15:14:58Z</time></trkpt><trkpt lat="39.56554573657612" lon="9.588637493330719"><ele>21.0</ele><time>2026-03-28T15:14:59Z</time></trkpt><trkpt lat="39.565341190711415" lon="9.58848438401266"><ele>20.0</ele><time>2026-03-28T15:15:00Z</time></trkpt><trkpt lat="39.56513923187475" lon="9.58833384178898"><ele>20.0</ele><time>2026-03-28T15:15:01Z</time></trkpt><trkpt lat="39.56495036454003" lon="9.588165088531067"><ele>20.0</ele><time>2026-03-28T15:15:02Z</time></trkpt><trkpt lat="39.564759265558735" lon="9.588016817718426"><ele>20.0</ele><time>2026-03-28T15:15:03Z</time></trkpt><trkpt lat="39.564563182431066" lon="9.587887453560425"><ele>20.0</ele><time>2026-03-28T15:15:04Z</time></trkpt><trkpt lat="39.56437851059988" lon="9.587743828908799"><ele>20.0</ele><time>2026-03-28T15:15:05Z</time></trkpt><trkpt lat="39.56419741854438" lon="9.587601590039968"><ele>20.0</ele><time>2026-03-28T15:15:06Z</time></trkpt><trkpt lat="39.56401897671676" lon="9.587459982745392"><ele>20.0</ele><time>2026-03-28T15:15:07Z</time></trkpt><trkpt lat="39.563845752009115" lon="9.587328703622099"><ele>20.0</ele><time>2026-03-28T15:15:08Z</time></trkpt><trkpt lat="39.56367531835056" lon="9.587214313221"><ele>19.333333333333336</ele><time>2026-03-28T15:15:09Z</time></trkpt><trkpt lat="39.56350715102281" lon="9.58713728173846"><ele>18.666666666666668</ele><time>2026-03-28T15:15:10Z</time></trkpt><trkpt lat="39.563329138442896" lon="9.587119260385725"><ele>18.0</ele><time>2026-03-28T15:15:11Z</time></trkpt><trkpt lat="39.563134388849754" lon="9.587150781739624"><ele>18.0</ele><time>2026-03-28T15:15:12Z</time></trkpt><trkpt lat="39.5629371013326" lon="9.587199295778168"><ele>18.0</ele><time>2026-03-28T15:15:13Z</time></trkpt><trkpt lat="39.56273680424899" lon="9.587237840455028"><ele>18.0</ele><time>2026-03-28T15:15:14Z</time></trkpt><trkpt lat="39.562532637786376" lon="9.587271194898575"><ele>18.333333333333332</ele><time>2026-03-28T15:15:15Z</time></trkpt><trkpt lat="39.56232635907614" lon="9.587312542675026"><ele>18.666666666666664</ele><time>2026-03-28T15:15:16Z</time></trkpt><trkpt lat="39.56212004656689" lon="9.587365030244857"><ele>19.0</ele><time>2026-03-28T15:15:17Z</time></trkpt><trkpt lat="39.56191058524022" lon="9.587423097357766"><ele>19.0</ele><time>2026-03-28T15:15:18Z</time></trkpt><trkpt lat="39.56170139190226" lon="9.587480809353305"><ele>19.0</ele><time>2026-03-28T15:15:19Z</time></trkpt><trkpt lat="39.561493365779725" lon="9.587545663786935"><ele>19.0</ele><time>2026-03-28T15:15:20Z</time></trkpt><trkpt lat="39.56130176925169" lon="9.587635517718416"><ele>19.0</ele><time>2026-03-28T15:15:21Z</time></trkpt><trkpt lat="39.561124684561506" lon="9.587759687234543"><ele>19.0</ele><time>2026-03-28T15:15:22Z</time></trkpt><trkpt lat="39.560981125015545" lon="9.587909342725506"><ele>19.0</ele><time>2026-03-28T15:15:23Z</time></trkpt><trkpt lat="39.56084705016627" lon="9.588100357870589"><ele>19.0</ele><time>2026-03-28T15:15:24Z</time></trkpt><trkpt lat="39.56072644278503" lon="9.5883060809627"><ele>19.0</ele><time>2026-03-28T15:15:25Z</time></trkpt><trkpt lat="39.5605955274723" lon="9.588490370100974"><ele>19.0</ele><time>2026-03-28T15:15:26Z</time></trkpt><trkpt lat="39.56044101936035" lon="9.588638937813652"><ele>18.333333333333332</ele><time>2026-03-28T15:15:27Z</time></trkpt><trkpt lat="39.56025824522371" lon="9.588757580935656"><ele>17.666666666666668</ele><time>2026-03-28T15:15:28Z</time></trkpt><trkpt lat="39.56006450364557" lon="9.588864926962188"><ele>17.0</ele><time>2026-03-28T15:15:29Z</time></trkpt><trkpt lat="39.55987024464912" lon="9.588954435792665"><ele>17.0</ele><time>2026-03-28T15:15:30Z</time></trkpt><trkpt lat="39.559675707606075" lon="9.589016723609959"><ele>17.0</ele><time>2026-03-28T15:15:31Z</time></trkpt><trkpt lat="39.55948814408719" lon="9.589070878648375"><ele>17.0</ele><time>2026-03-28T15:15:32Z</time></trkpt><trkpt lat="39.55931730691795" lon="9.589170018209739"><ele>17.0</ele><time>2026-03-28T15:15:33Z</time></trkpt><trkpt lat="39.55916544261185" lon="9.589325730016501"><ele>17.0</ele><time>2026-03-28T15:15:34Z</time></trkpt><trkpt lat="39.55903049320608" lon="9.589510553847505"><ele>17.0</ele><time>2026-03-28T15:15:35Z</time></trkpt><trkpt lat="39.55888845739149" lon="9.589675227473615"><ele>17.0</ele><time>2026-03-28T15:15:36Z</time></trkpt><trkpt lat="39.55877390472863" lon="9.589850699880222"><ele>17.0</ele><time>2026-03-28T15:15:37Z</time></trkpt><trkpt lat="39.558652191665566" lon="9.589984142435329"><ele>17.0</ele><time>2026-03-28T15:15:38Z</time></trkpt><trkpt lat="39.55852658430231" lon="9.590076132133872"><ele>18.0</ele><time>2026-03-28T15:15:39Z</time></trkpt><trkpt lat="39.558391155117455" lon="9.590116823363438"><ele>19.0</ele><time>2026-03-28T15:15:40Z</time></trkpt><trkpt lat="39.55825641260546" lon="9.590092610593391"><ele>20.0</ele><time>2026-03-28T15:15:41Z</time></trkpt><trkpt lat="39.558132156985096" lon="9.589996780765315"><ele>21.0</ele><time>2026-03-28T15:15:42Z</time></trkpt><trkpt lat="39.558062286521476" lon="9.589820827040741"><ele>21.0</ele><time>2026-03-28T15:15:43Z</time></trkpt><trkpt lat="39.55796286441475" lon="9.589640614186822"><ele>21.0</ele><time>2026-03-28T15:15:44Z</time></trkpt><trkpt lat="39.557854525492154" lon="9.58945819731264"><ele>21.0</ele><time>2026-03-28T15:15:45Z</time></trkpt><trkpt lat="39.55771139877293" lon="9.589298437099563"><ele>20.0</ele><time>2026-03-28T15:15:46Z</time></trkpt><trkpt lat="39.55754082512454" lon="9.589176940160415"><ele>19.0</ele><time>2026-03-28T15:15:47Z</time></trkpt><trkpt lat="39.557362943755216" lon="9.58907536519759"><ele>18.0</ele><time>2026-03-28T15:15:48Z</time></trkpt><trkpt lat="39.557195128450715" lon="9.588983051646172"><ele>18.333333333333332</ele><time>2026-03-28T15:15:49Z</time></trkpt><trkpt lat="39.55703344859244" lon="9.588904046495271"><ele>18.666666666666664</ele><time>2026-03-28T15:15:50Z</time></trkpt><trkpt lat="39.55687563110323" lon="9.588872346469246"><ele>19.0</ele><time>2026-03-28T15:15:51Z</time></trkpt><trkpt lat="39.556721279161955" lon="9.588903150650795"><ele>19.0</ele><time>2026-03-28T15:15:52Z</time></trkpt><trkpt lat="39.556583258254925" lon="9.588981374335276"><ele>19.0</ele><time>2026-03-28T15:15:53Z</time></trkpt><trkpt lat="39.55644399154428" lon="9.589051402035324"><ele>19.0</ele><time>2026-03-28T15:15:54Z</time></trkpt><trkpt lat="39.556292034271024" lon="9.589107481794517"><ele>21.0</ele><time>2026-03-28T15:15:55Z</time></trkpt><trkpt lat="39.556119074579996" lon="9.589096095401432"><ele>23.0</ele><time>2026-03-28T15:15:56Z</time></trkpt><trkpt lat="39.555945461332406" lon="9.589109623714803"><ele>25.0</ele><time>2026-03-28T15:15:57Z</time></trkpt><trkpt lat="39.555771750379634" lon="9.589153538671118"><ele>25.0</ele><time>2026-03-28T15:15:58Z</time></trkpt><trkpt lat="39.55559500565918" lon="9.589187576020496"><ele>25.0</ele><time>2026-03-28T15:15:59Z</time></trkpt><trkpt lat="39.555421990631594" lon="9.589227253704465"><ele>25.0</ele><time>2026-03-28T15:16:00Z</time></trkpt><trkpt lat="39.5552606501928" lon="9.589264608991725"><ele>25.333333333333336</ele><time>2026-03-28T15:16:01Z</time></trkpt><trkpt lat="39.5551136295631" lon="9.58930976391494"><ele>25.666666666666664</ele><time>2026-03-28T15:16:02Z</time></trkpt><trkpt lat="39.55497691721452" lon="9.58938158533429"><ele>26.0</ele><time>2026-03-28T15:16:03Z</time></trkpt><trkpt lat="39.554875051080245" lon="9.58953669818223"><ele>24.666666666666664</ele><time>2026-03-28T15:16:04Z</time></trkpt><trkpt lat="39.55480926331472" lon="9.589709398298442"><ele>23.333333333333332</ele><time>2026-03-28T15:16:05Z</time></trkpt><trkpt lat="39.554777341118516" lon="9.58989646434173"><ele>22.0</ele><time>2026-03-28T15:16:06Z</time></trkpt><trkpt lat="39.55470852290325" lon="9.59008113722386"><ele>22.0</ele><time>2026-03-28T15:16:07Z</time></trkpt><trkpt lat="39.554605899787425" lon="9.59026203342588"><ele>22.0</ele><time>2026-03-28T15:16:08Z</time></trkpt><trkpt lat="39.55447738506618" lon="9.590407687454773"><ele>22.0</ele><time>2026-03-28T15:16:09Z</time></trkpt><trkpt lat="39.554329914284025" lon="9.590524808783659"><ele>22.666666666666664</ele><time>2026-03-28T15:16:10Z</time></trkpt><trkpt lat="39.55416856334761" lon="9.590649645067032"><ele>23.333333333333332</ele><time>2026-03-28T15:16:11Z</time></trkpt><trkpt lat="39.55399482618591" lon="9.590763031226178"><ele>24.0</ele><time>2026-03-28T15:16:12Z</time></trkpt><trkpt lat="39.55380534366576" lon="9.590865505258805"><ele>24.666666666666664</ele><time>2026-03-28T15:16:13Z</time></trkpt><trkpt lat="39.553619693759856" lon="9.590987127067024"><ele>25.333333333333332</ele><time>2026-03-28T15:16:14Z</time></trkpt><trkpt lat="39.5534328456725" lon="9.59110943118381"><ele>26.0</ele><time>2026-03-28T15:16:15Z</time></trkpt><trkpt lat="39.55324463799023" lon="9.591232192934465"><ele>25.0</ele><time>2026-03-28T15:16:16Z</time></trkpt><trkpt lat="39.55305448992328" lon="9.591356220297659"><ele>24.0</ele><time>2026-03-28T15:16:17Z</time></trkpt><trkpt lat="39.55286454696433" lon="9.591480115144812"><ele>23.0</ele><time>2026-03-28T15:16:18Z</time></trkpt><trkpt lat="39.552671252833164" lon="9.591606625037942"><ele>23.0</ele><time>2026-03-28T15:16:19Z</time></trkpt><trkpt lat="39.5524756954149" lon="9.59173470415822"><ele>23.0</ele><time>2026-03-28T15:16:20Z</time></trkpt><trkpt lat="39.55228023108608" lon="9.591862722302025"><ele>23.0</ele><time>2026-03-28T15:16:21Z</time></trkpt><trkpt lat="39.5520834917091" lon="9.591991575538737"><ele>23.0</ele><time>2026-03-28T15:16:22Z</time></trkpt><trkpt lat="39.551889167476105" lon="9.5921188469987"><ele>23.0</ele><time>2026-03-28T15:16:23Z</time></trkpt><trkpt lat="39.551696394193485" lon="9.592245102667246"><ele>23.0</ele><time>2026-03-28T15:16:24Z</time></trkpt><trkpt lat="39.55150788999397" lon="9.592368812787432"><ele>23.0</ele><time>2026-03-28T15:16:25Z</time></trkpt><trkpt lat="39.55132154737183" lon="9.592491391598097"><ele>23.0</ele><time>2026-03-28T15:16:26Z</time></trkpt><trkpt lat="39.55113890296251" lon="9.59261123081543"><ele>23.0</ele><time>2026-03-28T15:16:27Z</time></trkpt><trkpt lat="39.550960127258016" lon="9.592728225738506"><ele>21.666666666666668</ele><time>2026-03-28T15:16:28Z</time></trkpt><trkpt lat="39.55078361367442" lon="9.592844096392346"><ele>20.333333333333332</ele><time>2026-03-28T15:16:29Z</time></trkpt><trkpt lat="39.55060824252858" lon="9.592958966153752"><ele>19.0</ele><time>2026-03-28T15:16:30Z</time></trkpt><trkpt lat="39.550429769877404" lon="9.593076932650021"><ele>20.0</ele><time>2026-03-28T15:16:31Z</time></trkpt><trkpt lat="39.550250767896294" lon="9.593193514057361"><ele>21.0</ele><time>2026-03-28T15:16:32Z</time></trkpt><trkpt lat="39.5500731399718" lon="9.59330941180141"><ele>22.0</ele><time>2026-03-28T15:16:33Z</time></trkpt><trkpt lat="39.54989865429368" lon="9.593424891848219"><ele>22.0</ele><time>2026-03-28T15:16:34Z</time></trkpt><trkpt lat="39.549735440259774" lon="9.593552457637545"><ele>22.0</ele><time>2026-03-28T15:16:35Z</time></trkpt><trkpt lat="39.54956608556153" lon="9.593651354656531"><ele>22.0</ele><time>2026-03-28T15:16:36Z</time></trkpt><trkpt lat="39.549398250634944" lon="9.593715306860197"><ele>22.0</ele><time>2026-03-28T15:16:37Z</time></trkpt><trkpt lat="39.549220117739694" lon="9.593727242178112"><ele>22.0</ele><time>2026-03-28T15:16:38Z</time></trkpt><trkpt lat="39.549042392968005" lon="9.593662460028112"><ele>22.0</ele><time>2026-03-28T15:16:39Z</time></trkpt><trkpt lat="39.54885404926814" lon="9.593612023165269"><ele>20.666666666666664</ele><time>2026-03-28T15:16:40Z</time></trkpt><trkpt lat="39.548667853915404" lon="9.593532902043119"><ele>19.333333333333332</ele><time>2026-03-28T15:16:41Z</time></trkpt><trkpt lat="39.54848803614062" lon="9.59346644175322"><ele>18.0</ele><time>2026-03-28T15:16:42Z</time></trkpt><trkpt lat="39.548321959266794" lon="9.593412998627882"><ele>18.0</ele><time>2026-03-28T15:16:43Z</time></trkpt><trkpt lat="39.5481682727429" lon="9.593385527430181"><ele>18.0</ele><time>2026-03-28T15:16:44Z</time></trkpt><trkpt lat="39.54802989951294" lon="9.593416078443939"><ele>18.0</ele><time>2026-03-28T15:16:45Z</time></trkpt><trkpt lat="39.54789984269991" lon="9.593506598248446"><ele>18.0</ele><time>2026-03-28T15:16:46Z</time></trkpt><trkpt lat="39.54777449285077" lon="9.59364363515075"><ele>17.0</ele><time>2026-03-28T15:16:47Z</time></trkpt><trkpt lat="39.547651946087946" lon="9.593802615482193"><ele>16.0</ele><time>2026-03-28T15:16:48Z</time></trkpt><trkpt lat="39.547529135850986" lon="9.593964684211555"><ele>15.0</ele><time>2026-03-28T15:16:49Z</time></trkpt><trkpt lat="39.54741267781805" lon="9.594118789425302"><ele>15.0</ele><time>2026-03-28T15:16:50Z</time></trkpt><trkpt lat="39.54729560886036" lon="9.594255022095162"><ele>15.0</ele><time>2026-03-28T15:16:51Z</time></trkpt><trkpt lat="39.547161306934974" lon="9.59434356697459"><ele>15.0</ele><time>2026-03-28T15:16:52Z</time></trkpt><trkpt lat="39.54701163831285" lon="9.594336607216427"><ele>15.0</ele><time>2026-03-28T15:16:53Z</time></trkpt><trkpt lat="39.54684632101997" lon="9.59430438213706"><ele>15.0</ele><time>2026-03-28T15:16:54Z</time></trkpt><trkpt lat="39.54666383585991" lon="9.594266798316633"><ele>15.0</ele><time>2026-03-28T15:16:55Z</time></trkpt><trkpt lat="39.546473509974334" lon="9.59422545727332"><ele>15.0</ele><time>2026-03-28T15:16:56Z</time></trkpt><trkpt lat="39.54628861803903" lon="9.594186502667869"><ele>15.0</ele><time>2026-03-28T15:16:57Z</time></trkpt><trkpt lat="39.54610188449715" lon="9.594147729616388"><ele>15.0</ele><time>2026-03-28T15:16:58Z</time></trkpt><trkpt lat="39.54591372713112" lon="9.594107599999377"><ele>15.0</ele><time>2026-03-28T15:16:59Z</time></trkpt><trkpt lat="39.54572121999654" lon="9.594065285785215"><ele>15.0</ele><time>2026-03-28T15:17:00Z</time></trkpt><trkpt lat="39.54552773598194" lon="9.5940351207414"><ele>15.0</ele><time>2026-03-28T15:17:01Z</time></trkpt><trkpt lat="39.5453417918336" lon="9.593958293635275"><ele>15.0</ele><time>2026-03-28T15:17:02Z</time></trkpt><trkpt lat="39.545161194520986" lon="9.593861381178293"><ele>15.0</ele><time>2026-03-28T15:17:03Z</time></trkpt><trkpt lat="39.54498441081842" lon="9.593756460637184"><ele>15.0</ele><time>2026-03-28T15:17:04Z</time></trkpt><trkpt lat="39.54480617379625" lon="9.59365324552746"><ele>14.666666666666668</ele><time>2026-03-28T15:17:05Z</time></trkpt><trkpt lat="39.544632010300354" lon="9.593558840944354"><ele>14.333333333333334</ele><time>2026-03-28T15:17:06Z</time></trkpt><trkpt lat="39.54446568146275" lon="9.593467593840739"><ele>14.0</ele><time>2026-03-28T15:17:07Z</time></trkpt><trkpt lat="39.544295218580835" lon="9.593379867266115"><ele>14.0</ele><time>2026-03-28T15:17:08Z</time></trkpt><trkpt lat="39.544112701806974" lon="9.593329066967085"><ele>14.0</ele><time>2026-03-28T15:17:09Z</time></trkpt><trkpt lat="39.54392538595506" lon="9.593326412098358"><ele>14.0</ele><time>2026-03-28T15:17:10Z</time></trkpt><trkpt lat="39.543749490953054" lon="9.5933635720596"><ele>15.0</ele><time>2026-03-28T15:17:11Z</time></trkpt><trkpt lat="39.543577817425344" lon="9.593438731248987"><ele>16.0</ele><time>2026-03-28T15:17:12Z</time></trkpt><trkpt lat="39.54341797354929" lon="9.593557219278916"><ele>17.0</ele><time>2026-03-28T15:17:13Z</time></trkpt><trkpt lat="39.54327792115001" lon="9.593701224695938"><ele>17.0</ele><time>2026-03-28T15:17:14Z</time></trkpt><trkpt lat="39.54313270603375" lon="9.593816620062539"><ele>17.0</ele><time>2026-03-28T15:17:15Z</time></trkpt><trkpt lat="39.54301284376425" lon="9.593936677161"><ele>17.0</ele><time>2026-03-28T15:17:16Z</time></trkpt><trkpt lat="39.54288995372967" lon="9.593993872679064"><ele>17.0</ele><time>2026-03-28T15:17:17Z</time></trkpt><trkpt lat="39.54277759419633" lon="9.594002110966123"><ele>17.0</ele><time>2026-03-28T15:17:18Z</time></trkpt><trkpt lat="39.542680841767044" lon="9.593948952428109"><ele>17.0</ele><time>2026-03-28T15:17:19Z</time></trkpt><trkpt lat="39.54259905941263" lon="9.593827890905917"><ele>17.0</ele><time>2026-03-28T15:17:20Z</time></trkpt><trkpt lat="39.542519361191275" lon="9.593669563717693"><ele>16.5</ele><time>2026-03-28T15:17:21Z</time></trkpt><trkpt lat="39.5424359727537" lon="9.593526516634785"><ele>16.0</ele><time>2026-03-28T15:17:22Z</time></trkpt><trkpt lat="39.54233374903822" lon="9.593409873456368"><ele>15.5</ele><time>2026-03-28T15:17:23Z</time></trkpt><trkpt lat="39.54221168799239" lon="9.593350784036033"><ele>15.0</ele><time>2026-03-28T15:17:24Z</time></trkpt><trkpt lat="39.54207397781441" lon="9.593351911799516"><ele>15.0</ele><time>2026-03-28T15:17:25Z</time></trkpt><trkpt lat="39.541935935211946" lon="9.593410404649628"><ele>15.0</ele><time>2026-03-28T15:17:26Z</time></trkpt><trkpt lat="39.54180081766347" lon="9.593498077821508"><ele>15.0</ele><time>2026-03-28T15:17:27Z</time></trkpt><trkpt lat="39.5416630639126" lon="9.59355839821723"><ele>15.0</ele><time>2026-03-28T15:17:28Z</time></trkpt><trkpt lat="39.54151121436212" lon="9.593551841597767"><ele>15.0</ele><time>2026-03-28T15:17:29Z</time></trkpt><trkpt lat="39.541350877284714" lon="9.593484905101452"><ele>15.0</ele><time>2026-03-28T15:17:30Z</time></trkpt><trkpt lat="39.54118669487364" lon="9.593411012638684"><ele>15.0</ele><time>2026-03-28T15:17:31Z</time></trkpt><trkpt lat="39.54101288007727" lon="9.593338411769158"><ele>15.0</ele><time>2026-03-28T15:17:32Z</time></trkpt><trkpt lat="39.540830239930244" lon="9.59327145126217"><ele>15.0</ele><time>2026-03-28T15:17:33Z</time></trkpt><trkpt lat="39.540642002276606" lon="9.593197981705918"><ele>15.0</ele><time>2026-03-28T15:17:34Z</time></trkpt><trkpt lat="39.5404410711993" lon="9.593178253876536"><ele>14.666666666666668</ele><time>2026-03-28T15:17:35Z</time></trkpt><trkpt lat="39.54024191550351" lon="9.593142709494563"><ele>14.333333333333334</ele><time>2026-03-28T15:17:36Z</time></trkpt><trkpt lat="39.540049123118045" lon="9.593082979052168"><ele>14.0</ele><time>2026-03-28T15:17:37Z</time></trkpt><trkpt lat="39.53986270585079" lon="9.593054304843958"><ele>14.0</ele><time>2026-03-28T15:17:38Z</time></trkpt><trkpt lat="39.5396944736609" lon="9.592979667448235"><ele>14.0</ele><time>2026-03-28T15:17:39Z</time></trkpt><trkpt lat="39.539541406474804" lon="9.592844092227194"><ele>14.0</ele><time>2026-03-28T15:17:40Z</time></trkpt><trkpt lat="39.53938374767493" lon="9.592732083565481"><ele>15.666666666666668</ele><time>2026-03-28T15:17:41Z</time></trkpt><trkpt lat="39.5392302312707" lon="9.59258370311116"><ele>17.333333333333332</ele><time>2026-03-28T15:17:42Z</time></trkpt><trkpt lat="39.539074897948105" lon="9.592436277141179"><ele>19.0</ele><time>2026-03-28T15:17:43Z</time></trkpt><trkpt lat="39.53891743058314" lon="9.592296242268876"><ele>19.0</ele><time>2026-03-28T15:17:44Z</time></trkpt><trkpt lat="39.53874878113575" lon="9.59218149502589"><ele>19.0</ele><time>2026-03-28T15:17:45Z</time></trkpt><trkpt lat="39.538557739163934" lon="9.59211751539227"><ele>19.0</ele><time>2026-03-28T15:17:46Z</time></trkpt><trkpt lat="39.5383559235676" lon="9.592091907185267"><ele>17.0</ele><time>2026-03-28T15:17:47Z</time></trkpt><trkpt lat="39.53815361940221" lon="9.592071814587673"><ele>15.0</ele><time>2026-03-28T15:17:48Z</time></trkpt><trkpt lat="39.53795258204606" lon="9.59202243753149"><ele>13.0</ele><time>2026-03-28T15:17:49Z</time></trkpt><trkpt lat="39.537744788573974" lon="9.59201676803476"><ele>13.0</ele><time>2026-03-28T15:17:50Z</time></trkpt><trkpt lat="39.53753785175149" lon="9.592018157753442"><ele>13.0</ele><time>2026-03-28T15:17:51Z</time></trkpt><trkpt lat="39.53733542325105" lon="9.592042456406366"><ele>13.0</ele><time>2026-03-28T15:17:52Z</time></trkpt><trkpt lat="39.53713639418971" lon="9.59204060385083"><ele>13.0</ele><time>2026-03-28T15:17:53Z</time></trkpt><trkpt lat="39.53693963182674" lon="9.592076164678257"><ele>13.0</ele><time>2026-03-28T15:17:54Z</time></trkpt><trkpt lat="39.53675151583176" lon="9.5920914576878"><ele>13.0</ele><time>2026-03-28T15:17:55Z</time></trkpt><trkpt lat="39.53657202120022" lon="9.59207331093625"><ele>13.0</ele><time>2026-03-28T15:17:56Z</time></trkpt><trkpt lat="39.53640069806217" lon="9.592064341746132"><ele>13.0</ele><time>2026-03-28T15:17:57Z</time></trkpt><trkpt lat="39.536237769278316" lon="9.591990910923307"><ele>13.0</ele><time>2026-03-28T15:17:58Z</time></trkpt><trkpt lat="39.536090718507616" lon="9.591885677609131"><ele>13.666666666666666</ele><time>2026-03-28T15:17:59Z</time></trkpt><trkpt lat="39.53595489455035" lon="9.591783350239737"><ele>14.333333333333332</ele><time>2026-03-28T15:18:00Z</time></trkpt><trkpt lat="39.53581362238417" lon="9.591739655135688"><ele>15.0</ele><time>2026-03-28T15:18:01Z</time></trkpt><trkpt lat="39.53566448786136" lon="9.591721515776584"><ele>15.0</ele><time>2026-03-28T15:18:02Z</time></trkpt><trkpt lat="39.535522914284144" lon="9.591803281824449"><ele>15.0</ele><time>2026-03-28T15:18:03Z</time></trkpt><trkpt lat="39.53539570422448" lon="9.591907224916623"><ele>15.0</ele><time>2026-03-28T15:18:04Z</time></trkpt><trkpt lat="39.53527068242953" lon="9.592010318692497"><ele>14.666666666666668</ele><time>2026-03-28T15:18:05Z</time></trkpt><trkpt lat="39.535138272261115" lon="9.592069913081795"><ele>14.333333333333334</ele><time>2026-03-28T15:18:06Z</time></trkpt><trkpt lat="39.53498850577984" lon="9.592075482561992"><ele>14.0</ele><time>2026-03-28T15:18:07Z</time></trkpt><trkpt lat="39.53483117095474" lon="9.592032877022199"><ele>15.333333333333334</ele><time>2026-03-28T15:18:08Z</time></trkpt><trkpt lat="39.534673566810795" lon="9.591968750145309"><ele>16.666666666666668</ele><time>2026-03-28T15:18:09Z</time></trkpt><trkpt lat="39.53451328817646" lon="9.591895130276178"><ele>18.0</ele><time>2026-03-28T15:18:10Z</time></trkpt><trkpt lat="39.5343528318857" lon="9.591791556037238"><ele>18.0</ele><time>2026-03-28T15:18:11Z</time></trkpt><trkpt lat="39.534193373869684" lon="9.591676847645019"><ele>18.0</ele><time>2026-03-28T15:18:12Z</time></trkpt><trkpt lat="39.534034616873654" lon="9.591567631775952"><ele>18.0</ele><time>2026-03-28T15:18:13Z</time></trkpt><trkpt lat="39.53388502737573" lon="9.591464399913319"><ele>18.0</ele><time>2026-03-28T15:18:14Z</time></trkpt><trkpt lat="39.53375276322041" lon="9.591343315559522"><ele>18.0</ele><time>2026-03-28T15:18:15Z</time></trkpt><trkpt lat="39.53366098313678" lon="9.59118175553497"><ele>18.0</ele><time>2026-03-28T15:18:16Z</time></trkpt><trkpt lat="39.53355000768565" lon="9.591073231720813"><ele>18.5</ele><time>2026-03-28T15:18:17Z</time></trkpt><trkpt lat="39.53342692440451" lon="9.591008833188425"><ele>19.0</ele><time>2026-03-28T15:18:18Z</time></trkpt><trkpt lat="39.533286616434005" lon="9.59100690973306"><ele>19.5</ele><time>2026-03-28T15:18:19Z</time></trkpt><trkpt lat="39.53314370069771" lon="9.591049215302572"><ele>20.0</ele><time>2026-03-28T15:18:20Z</time></trkpt><trkpt lat="39.53299791617977" lon="9.59110158605373"><ele>20.333333333333336</ele><time>2026-03-28T15:18:21Z</time></trkpt><trkpt lat="39.532838915837665" lon="9.591135211702413"><ele>20.666666666666668</ele><time>2026-03-28T15:18:22Z</time></trkpt><trkpt lat="39.53267524267754" lon="9.591152078429332"><ele>21.0</ele><time>2026-03-28T15:18:23Z</time></trkpt><trkpt lat="39.53250710898065" lon="9.591143646393514"><ele>21.0</ele><time>2026-03-28T15:18:24Z</time></trkpt><trkpt lat="39.53234030382797" lon="9.591112398932456"><ele>21.0</ele><time>2026-03-28T15:18:25Z</time></trkpt><trkpt lat="39.53217410594695" lon="9.591043712378116"><ele>21.0</ele><time>2026-03-28T15:18:26Z</time></trkpt><trkpt lat="39.53201193925517" lon="9.590941056382006"><ele>17.333333333333332</ele><time>2026-03-28T15:18:27Z</time></trkpt><trkpt lat="39.53184367545698" lon="9.590829656927975"><ele>13.666666666666668</ele><time>2026-03-28T15:18:28Z</time></trkpt><trkpt lat="39.53167028235466" lon="9.590718211634165"><ele>10.0</ele><time>2026-03-28T15:18:29Z</time></trkpt><trkpt lat="39.53149910590714" lon="9.590603087207938"><ele>10.0</ele><time>2026-03-28T15:18:30Z</time></trkpt><trkpt lat="39.53132899845047" lon="9.590487431186059"><ele>10.0</ele><time>2026-03-28T15:18:31Z</time></trkpt><trkpt lat="39.53116416637131" lon="9.590373847373932"><ele>10.0</ele><time>2026-03-28T15:18:32Z</time></trkpt><trkpt lat="39.53100524425485" lon="9.590269838874798"><ele>14.333333333333334</ele><time>2026-03-28T15:18:33Z</time></trkpt><trkpt lat="39.53085376885803" lon="9.590204213585624"><ele>18.666666666666668</ele><time>2026-03-28T15:18:34Z</time></trkpt><trkpt lat="39.53069351978778" lon="9.590209036744943"><ele>23.0</ele><time>2026-03-28T15:18:35Z</time></trkpt><trkpt lat="39.530526101622506" lon="9.590265122834545"><ele>24.0</ele><time>2026-03-28T15:18:36Z</time></trkpt><trkpt lat="39.53035433462109" lon="9.590293792208467"><ele>25.0</ele><time>2026-03-28T15:18:37Z</time></trkpt><trkpt lat="39.530158506836194" lon="9.5903542613675"><ele>26.0</ele><time>2026-03-28T15:18:38Z</time></trkpt><trkpt lat="39.52997117115697" lon="9.590369813845813"><ele>20.666666666666664</ele><time>2026-03-28T15:18:39Z</time></trkpt><trkpt lat="39.52978452595069" lon="9.590368808313238"><ele>15.333333333333332</ele><time>2026-03-28T15:18:40Z</time></trkpt><trkpt lat="39.52959607297161" lon="9.590364373179026"><ele>10.0</ele><time>2026-03-28T15:18:41Z</time></trkpt><trkpt lat="39.52940870043593" lon="9.590367979737044"><ele>9.333333333333334</ele><time>2026-03-28T15:18:42Z</time></trkpt><trkpt lat="39.52921849564859" lon="9.590374450609454"><ele>8.666666666666666</ele><time>2026-03-28T15:18:43Z</time></trkpt><trkpt lat="39.52903366724467" lon="9.590363185399653"><ele>8.0</ele><time>2026-03-28T15:18:44Z</time></trkpt><trkpt lat="39.528854816437395" lon="9.590311357510773"><ele>11.0</ele><time>2026-03-28T15:18:45Z</time></trkpt><trkpt lat="39.52868741782747" lon="9.590250287866555"><ele>14.0</ele><time>2026-03-28T15:18:46Z</time></trkpt><trkpt lat="39.528530389532996" lon="9.590180264998846"><ele>17.0</ele><time>2026-03-28T15:18:47Z</time></trkpt><trkpt lat="39.52838536153089" lon="9.59007937663559"><ele>17.0</ele><time>2026-03-28T15:18:48Z</time></trkpt><trkpt lat="39.52825800041926" lon="9.589957612691661"><ele>17.0</ele><time>2026-03-28T15:18:49Z</time></trkpt><trkpt lat="39.528123175349634" lon="9.589861422897776"><ele>17.0</ele><time>2026-03-28T15:18:50Z</time></trkpt><trkpt lat="39.52796369764633" lon="9.589821914444572"><ele>15.0</ele><time>2026-03-28T15:18:51Z</time></trkpt><trkpt lat="39.527782598389095" lon="9.589808644941414"><ele>13.0</ele><time>2026-03-28T15:18:52Z</time></trkpt><trkpt lat="39.527598333646864" lon="9.589768368841632"><ele>11.0</ele><time>2026-03-28T15:18:53Z</time></trkpt><trkpt lat="39.52740676055347" lon="9.589706298650706"><ele>11.0</ele><time>2026-03-28T15:18:54Z</time></trkpt><trkpt lat="39.527208824920194" lon="9.58964453040176"><ele>11.0</ele><time>2026-03-28T15:18:55Z</time></trkpt><trkpt lat="39.52700402210467" lon="9.5895966909828"><ele>11.0</ele><time>2026-03-28T15:18:56Z</time></trkpt><trkpt lat="39.526792619600194" lon="9.589563784805149"><ele>10.666666666666666</ele><time>2026-03-28T15:18:57Z</time></trkpt><trkpt lat="39.52658297045659" lon="9.589537905521757"><ele>10.333333333333334</ele><time>2026-03-28T15:18:58Z</time></trkpt><trkpt lat="39.526378430999145" lon="9.589512447233506"><ele>10.0</ele><time>2026-03-28T15:18:59Z</time></trkpt><trkpt lat="39.52617672709671" lon="9.589485913866802"><ele>9.666666666666668</ele><time>2026-03-28T15:19:00Z</time></trkpt><trkpt lat="39.52597685042432" lon="9.58945896613537"><ele>9.333333333333334</ele><time>2026-03-28T15:19:01Z</time></trkpt><trkpt lat="39.525773637970595" lon="9.589432734932245"><ele>9.0</ele><time>2026-03-28T15:19:02Z</time></trkpt><trkpt lat="39.52556933794729" lon="9.589407245133065"><ele>9.0</ele><time>2026-03-28T15:19:03Z</time></trkpt><trkpt lat="39.52536679514743" lon="9.589381612001327"><ele>9.0</ele><time>2026-03-28T15:19:04Z</time></trkpt><trkpt lat="39.52516667852252" lon="9.589355565326732"><ele>9.0</ele><time>2026-03-28T15:19:05Z</time></trkpt><trkpt lat="39.52496726743876" lon="9.589326740544205"><ele>9.0</ele><time>2026-03-28T15:19:06Z</time></trkpt><trkpt lat="39.524770179990696" lon="9.589297373084099"><ele>9.0</ele><time>2026-03-28T15:19:07Z</time></trkpt><trkpt lat="39.524580445744924" lon="9.589273077276111"><ele>9.0</ele><time>2026-03-28T15:19:08Z</time></trkpt><trkpt lat="39.52440048067223" lon="9.58925375450974"><ele>9.333333333333334</ele><time>2026-03-28T15:19:09Z</time></trkpt><trkpt lat="39.52422570836142" lon="9.589232611371393"><ele>9.666666666666668</ele><time>2026-03-28T15:19:10Z</time></trkpt><trkpt lat="39.524064014454005" lon="9.589214153892351"><ele>10.0</ele><time>2026-03-28T15:19:11Z</time></trkpt><trkpt lat="39.523920482474296" lon="9.589225844736424"><ele>10.0</ele><time>2026-03-28T15:19:12Z</time></trkpt><trkpt lat="39.52379624158892" lon="9.58928131369065"><ele>10.0</ele><time>2026-03-28T15:19:13Z</time></trkpt><trkpt lat="39.523694534603464" lon="9.589370543181747"><ele>10.0</ele><time>2026-03-28T15:19:14Z</time></trkpt><trkpt lat="39.52361909793166" lon="9.589503878970051"><ele>10.0</ele><time>2026-03-28T15:19:15Z</time></trkpt><trkpt lat="39.523579982074445" lon="9.5896666898151"><ele>12.333333333333334</ele><time>2026-03-28T15:19:16Z</time></trkpt><trkpt lat="39.52358329279436" lon="9.589847943879406"><ele>14.666666666666668</ele><time>2026-03-28T15:19:17Z</time></trkpt><trkpt lat="39.523622626703094" lon="9.59003897027399"><ele>17.0</ele><time>2026-03-28T15:19:18Z</time></trkpt><trkpt lat="39.52368241094879" lon="9.590231544839227"><ele>14.0</ele><time>2026-03-28T15:19:19Z</time></trkpt><trkpt lat="39.5237351471385" lon="9.590430837594878"><ele>11.0</ele><time>2026-03-28T15:19:20Z</time></trkpt><trkpt lat="39.523768691488925" lon="9.590651718778853"><ele>8.0</ele><time>2026-03-28T15:19:21Z</time></trkpt><trkpt lat="39.523775748740775" lon="9.59089449582467"><ele>8.0</ele><time>2026-03-28T15:19:22Z</time></trkpt><trkpt lat="39.52376825029056" lon="9.591147907440462"><ele>8.0</ele><time>2026-03-28T15:19:23Z</time></trkpt><trkpt lat="39.523754310700255" lon="9.591393528213674"><ele>8.0</ele><time>2026-03-28T15:19:24Z</time></trkpt><trkpt lat="39.52373010304472" lon="9.591637814547088"><ele>10.0</ele><time>2026-03-28T15:19:25Z</time></trkpt><trkpt lat="39.52368190258661" lon="9.591876706971625"><ele>12.0</ele><time>2026-03-28T15:19:26Z</time></trkpt><trkpt lat="39.523611904826566" lon="9.59211659262114"><ele>14.0</ele><time>2026-03-28T15:19:27Z</time></trkpt><trkpt lat="39.523539158977705" lon="9.592362588943859"><ele>14.0</ele><time>2026-03-28T15:19:28Z</time></trkpt><trkpt lat="39.52346567732208" lon="9.592609548632225"><ele>14.0</ele><time>2026-03-28T15:19:29Z</time></trkpt><trkpt lat="39.523394439353346" lon="9.592851829471515"><ele>14.0</ele><time>2026-03-28T15:19:30Z</time></trkpt><trkpt lat="39.52331110079535" lon="9.593082056592495"><ele>12.333333333333334</ele><time>2026-03-28T15:19:31Z</time></trkpt><trkpt lat="39.52320869242741" lon="9.593281403494942"><ele>10.666666666666668</ele><time>2026-03-28T15:19:32Z</time></trkpt><trkpt lat="39.52308477947302" lon="9.593443909639637"><ele>9.0</ele><time>2026-03-28T15:19:33Z</time></trkpt><trkpt lat="39.522938557395996" lon="9.593559829581675"><ele>9.0</ele><time>2026-03-28T15:19:34Z</time></trkpt><trkpt lat="39.52276455843797" lon="9.593641338087814"><ele>9.0</ele><time>2026-03-28T15:19:35Z</time></trkpt><trkpt lat="39.52257247292716" lon="9.59369629997543"><ele>9.0</ele><time>2026-03-28T15:19:36Z</time></trkpt><trkpt lat="39.522376976938446" lon="9.593748397302535"><ele>9.0</ele><time>2026-03-28T15:19:37Z</time></trkpt><trkpt lat="39.52218609562647" lon="9.593836182506841"><ele>9.0</ele><time>2026-03-28T15:19:38Z</time></trkpt><trkpt lat="39.522000947826186" lon="9.593966428797941"><ele>9.0</ele><time>2026-03-28T15:19:39Z</time></trkpt><trkpt lat="39.52182338464789" lon="9.594126890402936"><ele>8.666666666666666</ele><time>2026-03-28T15:19:40Z</time></trkpt><trkpt lat="39.52165124433136" lon="9.594291873295616"><ele>8.333333333333332</ele><time>2026-03-28T15:19:41Z</time></trkpt><trkpt lat="39.52147767157854" lon="9.594456532331867"><ele>8.0</ele><time>2026-03-28T15:19:42Z</time></trkpt><trkpt lat="39.52130562123153" lon="9.594617823104091"><ele>8.0</ele><time>2026-03-28T15:19:43Z</time></trkpt><trkpt lat="39.52113655515046" lon="9.594774152345815"><ele>8.0</ele><time>2026-03-28T15:19:44Z</time></trkpt><trkpt lat="39.520975639834724" lon="9.594922231254312"><ele>8.0</ele><time>2026-03-28T15:19:45Z</time></trkpt><trkpt lat="39.520825687883374" lon="9.595058908732094"><ele>8.0</ele><time>2026-03-28T15:19:46Z</time></trkpt><trkpt lat="39.52067788595587" lon="9.595187069007649"><ele>8.0</ele><time>2026-03-28T15:19:47Z</time></trkpt><trkpt lat="39.52048396759232" lon="9.595283227931208"><ele>8.0</ele><time>2026-03-28T15:19:48Z</time></trkpt><trkpt lat="39.52032378744954" lon="9.59534294262021"><ele>7.666666666666666</ele><time>2026-03-28T15:19:49Z</time></trkpt><trkpt lat="39.5201548435574" lon="9.595385729391007"><ele>7.333333333333334</ele><time>2026-03-28T15:19:50Z</time></trkpt><trkpt lat="39.51997401402518" lon="9.595406219997761"><ele>7.0</ele><time>2026-03-28T15:19:51Z</time></trkpt><trkpt lat="39.51978390882292" lon="9.595423153271886"><ele>7.0</ele><time>2026-03-28T15:19:52Z</time></trkpt><trkpt lat="39.5195904073557" lon="9.595439052950187"><ele>7.0</ele><time>2026-03-28T15:19:53Z</time></trkpt><trkpt lat="39.51939443529765" lon="9.595467434903332"><ele>7.0</ele><time>2026-03-28T15:19:54Z</time></trkpt><trkpt lat="39.51919501454102" lon="9.595490400789433"><ele>7.333333333333334</ele><time>2026-03-28T15:19:55Z</time></trkpt><trkpt lat="39.51900010161992" lon="9.595532621524736"><ele>7.666666666666666</ele><time>2026-03-28T15:19:56Z</time></trkpt><trkpt lat="39.51880964711669" lon="9.595585309113785"><ele>8.0</ele><time>2026-03-28T15:19:57Z</time></trkpt><trkpt lat="39.51862264169652" lon="9.595648412172212"><ele>8.666666666666666</ele><time>2026-03-28T15:19:58Z</time></trkpt><trkpt lat="39.51844523522879" lon="9.595742549932035"><ele>9.333333333333334</ele><time>2026-03-28T15:19:59Z</time></trkpt><trkpt lat="39.518288012929176" lon="9.595875817415411"><ele>10.0</ele><time>2026-03-28T15:20:00Z</time></trkpt><trkpt lat="39.51815164882398" lon="9.59604562661238"><ele>9.333333333333334</ele><time>2026-03-28T15:20:01Z</time></trkpt><trkpt lat="39.51803812313761" lon="9.59625227513121"><ele>8.666666666666666</ele><time>2026-03-28T15:20:02Z</time></trkpt><trkpt lat="39.5179493042596" lon="9.59648894705924"><ele>8.0</ele><time>2026-03-28T15:20:03Z</time></trkpt><trkpt lat="39.517890395680205" lon="9.596750835757822"><ele>8.333333333333332</ele><time>2026-03-28T15:20:04Z</time></trkpt><trkpt lat="39.51784973607594" lon="9.597025735597493"><ele>8.666666666666666</ele><time>2026-03-28T15:20:05Z</time></trkpt><trkpt lat="39.51780257137676" lon="9.597299064595996"><ele>9.0</ele><time>2026-03-28T15:20:06Z</time></trkpt><trkpt lat="39.51775237343585" lon="9.597572682656091"><ele>8.333333333333334</ele><time>2026-03-28T15:20:07Z</time></trkpt><trkpt lat="39.51769838923835" lon="9.597854430488498"><ele>7.666666666666667</ele><time>2026-03-28T15:20:08Z</time></trkpt><trkpt lat="39.5176458928429" lon="9.598133504516456"><ele>7.0</ele><time>2026-03-28T15:20:09Z</time></trkpt><trkpt lat="39.517597302591454" lon="9.598410779790358"><ele>6.666666666666667</ele><time>2026-03-28T15:20:10Z</time></trkpt><trkpt lat="39.517545785998564" lon="9.598679826752566"><ele>6.333333333333334</ele><time>2026-03-28T15:20:11Z</time></trkpt><trkpt lat="39.51749312971415" lon="9.598935233929192"><ele>6.0</ele><time>2026-03-28T15:20:12Z</time></trkpt><trkpt lat="39.51744130012953" lon="9.599176790598063"><ele>6.0</ele><time>2026-03-28T15:20:13Z</time></trkpt><trkpt lat="39.51739680563891" lon="9.599409809276924"><ele>6.0</ele><time>2026-03-28T15:20:14Z</time></trkpt><trkpt lat="39.517370368701826" lon="9.599638791690886"><ele>6.0</ele><time>2026-03-28T15:20:15Z</time></trkpt><trkpt lat="39.51737377138242" lon="9.599878858191234"><ele>6.666666666666666</ele><time>2026-03-28T15:20:16Z</time></trkpt><trkpt lat="39.51742618661247" lon="9.600125490709354"><ele>7.333333333333333</ele><time>2026-03-28T15:20:17Z</time></trkpt><trkpt lat="39.51750384500223" lon="9.600369523954601"><ele>8.0</ele><time>2026-03-28T15:20:18Z</time></trkpt><trkpt lat="39.51759698119061" lon="9.60061029072408"><ele>8.666666666666666</ele><time>2026-03-28T15:20:19Z</time></trkpt><trkpt lat="39.5177120239985" lon="9.60084074863138"><ele>9.333333333333334</ele><time>2026-03-28T15:20:20Z</time></trkpt><trkpt lat="39.5178432181069" lon="9.601068862104693"><ele>10.0</ele><time>2026-03-28T15:20:21Z</time></trkpt><trkpt lat="39.51797393059096" lon="9.601296582470741"><ele>10.0</ele><time>2026-03-28T15:20:22Z</time></trkpt><trkpt lat="39.518100507999065" lon="9.601522776768904"><ele>10.0</ele><time>2026-03-28T15:20:23Z</time></trkpt><trkpt lat="39.518229613795896" lon="9.601737004839586"><ele>10.0</ele><time>2026-03-28T15:20:24Z</time></trkpt><trkpt lat="39.51837018536085" lon="9.601934216034198"><ele>8.666666666666668</ele><time>2026-03-28T15:20:25Z</time></trkpt><trkpt lat="39.518515769041386" lon="9.602119076556528"><ele>7.333333333333334</ele><time>2026-03-28T15:20:26Z</time></trkpt><trkpt lat="39.51865447553272" lon="9.602300047965038"><ele>6.0</ele><time>2026-03-28T15:20:27Z</time></trkpt><trkpt lat="39.51877108976846" lon="9.602494866085376"><ele>6.0</ele><time>2026-03-28T15:20:28Z</time></trkpt><trkpt lat="39.518848778155586" lon="9.602723894482814"><ele>6.0</ele><time>2026-03-28T15:20:29Z</time></trkpt><trkpt lat="39.518918419647974" lon="9.602955444815684"><ele>6.0</ele><time>2026-03-28T15:20:30Z</time></trkpt><trkpt lat="39.519009478106" lon="9.60317645542253"><ele>8.333333333333332</ele><time>2026-03-28T15:20:31Z</time></trkpt><trkpt lat="39.51909834130177" lon="9.603387128858245"><ele>10.666666666666666</ele><time>2026-03-28T15:20:32Z</time></trkpt><trkpt lat="39.51923603335159" lon="9.603551798176069"><ele>13.0</ele><time>2026-03-28T15:20:33Z</time></trkpt><trkpt lat="39.51939045152509" lon="9.603691439219935"><ele>13.333333333333332</ele><time>2026-03-28T15:20:34Z</time></trkpt><trkpt lat="39.51953892910371" lon="9.603826993257378"><ele>13.666666666666668</ele><time>2026-03-28T15:20:35Z</time></trkpt><trkpt lat="39.51968033285184" lon="9.603947357687638"><ele>14.0</ele><time>2026-03-28T15:20:36Z</time></trkpt><trkpt lat="39.519831378578495" lon="9.604024131125188"><ele>14.0</ele><time>2026-03-28T15:20:37Z</time></trkpt><trkpt lat="39.51999029146646" lon="9.604060811072376"><ele>14.0</ele><time>2026-03-28T15:20:38Z</time></trkpt><trkpt lat="39.520141051100225" lon="9.60408236634268"><ele>14.0</ele><time>2026-03-28T15:20:39Z</time></trkpt><trkpt lat="39.52027358276545" lon="9.604150137955097"><ele>14.0</ele><time>2026-03-28T15:20:40Z</time></trkpt><trkpt lat="39.52035739253439" lon="9.604313496976566"><ele>14.0</ele><time>2026-03-28T15:20:41Z</time></trkpt><trkpt lat="39.52043268192065" lon="9.604487490634959"><ele>14.0</ele><time>2026-03-28T15:20:42Z</time></trkpt><trkpt lat="39.52049222409959" lon="9.604650151296637"><ele>14.0</ele><time>2026-03-28T15:20:43Z</time></trkpt><trkpt lat="39.52052493188317" lon="9.60481411995827"><ele>14.0</ele><time>2026-03-28T15:20:44Z</time></trkpt><trkpt lat="39.52050680417748" lon="9.604981159144922"><ele>14.0</ele><time>2026-03-28T15:20:45Z</time></trkpt><trkpt lat="39.52044522255474" lon="9.605139245296598"><ele>14.0</ele><time>2026-03-28T15:20:46Z</time></trkpt><trkpt lat="39.52034264499269" lon="9.60534645071463"><ele>14.0</ele><time>2026-03-28T15:20:47Z</time></trkpt><trkpt lat="39.52021315603061" lon="9.605509254626027"><ele>14.0</ele><time>2026-03-28T15:20:48Z</time></trkpt><trkpt lat="39.52006860901402" lon="9.605652826692985"><ele>14.0</ele><time>2026-03-28T15:20:49Z</time></trkpt><trkpt lat="39.51991283336348" lon="9.60576868661414"><ele>14.0</ele><time>2026-03-28T15:20:50Z</time></trkpt><trkpt lat="39.5197356573927" lon="9.605863037419194"><ele>14.0</ele><time>2026-03-28T15:20:51Z</time></trkpt><trkpt lat="39.51954268930028" lon="9.605915214504675"><ele>14.0</ele><time>2026-03-28T15:20:52Z</time></trkpt><trkpt lat="39.51936230487847" lon="9.606003181930042"><ele>15.333333333333334</ele><time>2026-03-28T15:20:53Z</time></trkpt><trkpt lat="39.51918193482117" lon="9.606062591173675"><ele>16.666666666666668</ele><time>2026-03-28T15:20:54Z</time></trkpt><trkpt lat="39.51900396428315" lon="9.606125405496156"><ele>18.0</ele><time>2026-03-28T15:20:55Z</time></trkpt><trkpt lat="39.51883481117342" lon="9.606185757786927"><ele>16.666666666666668</ele><time>2026-03-28T15:20:56Z</time></trkpt><trkpt lat="39.518673381218946" lon="9.606242399275983"><ele>15.333333333333334</ele><time>2026-03-28T15:20:57Z</time></trkpt><trkpt lat="39.51852947248703" lon="9.606325216898561"><ele>14.0</ele><time>2026-03-28T15:20:58Z</time></trkpt><trkpt lat="39.51841432065252" lon="9.606465524613482"><ele>14.0</ele><time>2026-03-28T15:20:59Z</time></trkpt><trkpt lat="39.518327427251215" lon="9.606645455828543"><ele>14.0</ele><time>2026-03-28T15:21:00Z</time></trkpt><trkpt lat="39.51822680919953" lon="9.606803483956387"><ele>14.0</ele><time>2026-03-28T15:21:01Z</time></trkpt><trkpt lat="39.51807048047935" lon="9.606850392280421"><ele>14.0</ele><time>2026-03-28T15:21:02Z</time></trkpt><trkpt lat="39.51790690497654" lon="9.606937037201385"><ele>14.0</ele><time>2026-03-28T15:21:03Z</time></trkpt><trkpt lat="39.51773496134771" lon="9.607038601796619"><ele>14.0</ele><time>2026-03-28T15:21:04Z</time></trkpt><trkpt lat="39.51757786903513" lon="9.60717769158905"><ele>12.666666666666668</ele><time>2026-03-28T15:21:05Z</time></trkpt><trkpt lat="39.517426262695295" lon="9.607283357346912"><ele>11.333333333333334</ele><time>2026-03-28T15:21:06Z</time></trkpt><trkpt lat="39.51725579769696" lon="9.607316119049537"><ele>10.0</ele><time>2026-03-28T15:21:07Z</time></trkpt><trkpt lat="39.51709804945011" lon="9.60724522584106"><ele>9.333333333333334</ele><time>2026-03-28T15:21:08Z</time></trkpt><trkpt lat="39.51694268102274" lon="9.607161327808518"><ele>8.666666666666666</ele><time>2026-03-28T15:21:09Z</time></trkpt><trkpt lat="39.51677968644725" lon="9.607083288340974"><ele>8.0</ele><time>2026-03-28T15:21:10Z</time></trkpt><trkpt lat="39.51662610265324" lon="9.607014165561223"><ele>8.0</ele><time>2026-03-28T15:21:11Z</time></trkpt><trkpt lat="39.51646697983313" lon="9.606990785464854"><ele>8.0</ele><time>2026-03-28T15:21:12Z</time></trkpt><trkpt lat="39.51631556275483" lon="9.607022093891622"><ele>8.0</ele><time>2026-03-28T15:21:13Z</time></trkpt><trkpt lat="39.51616708377825" lon="9.607120115785962"><ele>9.333333333333332</ele><time>2026-03-28T15:21:14Z</time></trkpt><trkpt lat="39.5160085020049" lon="9.607240918184349"><ele>10.666666666666666</ele><time>2026-03-28T15:21:15Z</time></trkpt><trkpt lat="39.51583071712436" lon="9.607288109181649"><ele>12.0</ele><time>2026-03-28T15:21:16Z</time></trkpt><trkpt lat="39.515652290307045" lon="9.60732156458905"><ele>12.0</ele><time>2026-03-28T15:21:17Z</time></trkpt><trkpt lat="39.515478469578234" lon="9.60736228044277"><ele>12.0</ele><time>2026-03-28T15:21:18Z</time></trkpt><trkpt lat="39.51530047742435" lon="9.607359966837457"><ele>12.0</ele><time>2026-03-28T15:21:19Z</time></trkpt><trkpt lat="39.51512632355017" lon="9.60734871935824"><ele>11.666666666666666</ele><time>2026-03-28T15:21:20Z</time></trkpt><trkpt lat="39.51495030027425" lon="9.607322123360463"><ele>11.333333333333332</ele><time>2026-03-28T15:21:21Z</time></trkpt><trkpt lat="39.514770523150595" lon="9.607308899117948"><ele>11.0</ele><time>2026-03-28T15:21:22Z</time></trkpt><trkpt lat="39.51459133068935" lon="9.607277249197969"><ele>10.333333333333332</ele><time>2026-03-28T15:21:23Z</time></trkpt><trkpt lat="39.514413180040435" lon="9.607250692831387"><ele>9.666666666666666</ele><time>2026-03-28T15:21:24Z</time></trkpt><trkpt lat="39.51423936814326" lon="9.607225756430761"><ele>9.0</ele><time>2026-03-28T15:21:25Z</time></trkpt><trkpt lat="39.51407233448507" lon="9.60720571574388"><ele>9.0</ele><time>2026-03-28T15:21:26Z</time></trkpt><trkpt lat="39.51391369327571" lon="9.607207120315767"><ele>9.0</ele><time>2026-03-28T15:21:27Z</time></trkpt><trkpt lat="39.5137765967566" lon="9.607261779544661"><ele>9.0</ele><time>2026-03-28T15:21:28Z</time></trkpt><trkpt lat="39.51366522841627" lon="9.607373284042943"><ele>9.0</ele><time>2026-03-28T15:21:29Z</time></trkpt><trkpt lat="39.51358412823248" lon="9.607538283193781"><ele>9.0</ele><time>2026-03-28T15:21:30Z</time></trkpt><trkpt lat="39.51352423324892" lon="9.607734269912461"><ele>9.0</ele><time>2026-03-28T15:21:31Z</time></trkpt><trkpt lat="39.513419195754516" lon="9.607895168671169"><ele>9.0</ele><time>2026-03-28T15:21:32Z</time></trkpt><trkpt lat="39.51328083898061" lon="9.608020027492097"><ele>9.0</ele><time>2026-03-28T15:21:33Z</time></trkpt><trkpt lat="39.51312444667281" lon="9.608173656103236"><ele>9.0</ele><time>2026-03-28T15:21:34Z</time></trkpt><trkpt lat="39.51302421205951" lon="9.608329993227258"><ele>9.0</ele><time>2026-03-28T15:21:35Z</time></trkpt><trkpt lat="39.51292831418856" lon="9.608493815153"><ele>8.5</ele><time>2026-03-28T15:21:36Z</time></trkpt><trkpt lat="39.51284572765053" lon="9.6086418111675"><ele>8.0</ele><time>2026-03-28T15:21:37Z</time></trkpt><trkpt lat="39.51273354506121" lon="9.6087540312208"><ele>7.5</ele><time>2026-03-28T15:21:38Z</time></trkpt><trkpt lat="39.51258817271101" lon="9.60881052898453"><ele>7.0</ele><time>2026-03-28T15:21:39Z</time></trkpt><trkpt lat="39.5124537691518" lon="9.608898850004746"><ele>7.0</ele><time>2026-03-28T15:21:40Z</time></trkpt><trkpt lat="39.51231529518658" lon="9.60894312543647"><ele>7.0</ele><time>2026-03-28T15:21:41Z</time></trkpt><trkpt lat="39.512180697573434" lon="9.60892266205088"><ele>7.0</ele><time>2026-03-28T15:21:42Z</time></trkpt><trkpt lat="39.51205260169005" lon="9.608864596197707"><ele>7.0</ele><time>2026-03-28T15:21:43Z</time></trkpt><trkpt lat="39.51193341644733" lon="9.608757700299398"><ele>7.0</ele><time>2026-03-28T15:21:44Z</time></trkpt><trkpt lat="39.51178682109975" lon="9.608677742743414"><ele>7.0</ele><time>2026-03-28T15:21:45Z</time></trkpt><trkpt lat="39.51161041889034" lon="9.60863263177955"><ele>7.0</ele><time>2026-03-28T15:21:46Z</time></trkpt><trkpt lat="39.511417079643536" lon="9.608618489378202"><ele>7.333333333333334</ele><time>2026-03-28T15:21:47Z</time></trkpt><trkpt lat="39.51122522816172" lon="9.608610619068417"><ele>7.666666666666666</ele><time>2026-03-28T15:21:48Z</time></trkpt><trkpt lat="39.51103477861915" lon="9.608622234803432"><ele>8.0</ele><time>2026-03-28T15:21:49Z</time></trkpt><trkpt lat="39.510847871145096" lon="9.608674607760669"><ele>7.666666666666666</ele><time>2026-03-28T15:21:50Z</time></trkpt><trkpt lat="39.51065616036557" lon="9.60874356925695"><ele>7.333333333333334</ele><time>2026-03-28T15:21:51Z</time></trkpt><trkpt lat="39.5104609704568" lon="9.608805516113074"><ele>7.0</ele><time>2026-03-28T15:21:52Z</time></trkpt><trkpt lat="39.510260154241486" lon="9.608859374367965"><ele>7.0</ele><time>2026-03-28T15:21:53Z</time></trkpt><trkpt lat="39.51005718486445" lon="9.608911291252818"><ele>7.0</ele><time>2026-03-28T15:21:54Z</time></trkpt><trkpt lat="39.50985127233307" lon="9.608969505919617"><ele>7.0</ele><time>2026-03-28T15:21:55Z</time></trkpt><trkpt lat="39.509643999736156" lon="9.609034379248968"><ele>6.666666666666667</ele><time>2026-03-28T15:21:56Z</time></trkpt><trkpt lat="39.50943399135845" lon="9.609098563510639"><ele>6.333333333333334</ele><time>2026-03-28T15:21:57Z</time></trkpt><trkpt lat="39.50922315635751" lon="9.609162150390244"><ele>6.0</ele><time>2026-03-28T15:21:58Z</time></trkpt><trkpt lat="39.50901365826701" lon="9.609222484114"><ele>6.0</ele><time>2026-03-28T15:21:59Z</time></trkpt><trkpt lat="39.50880371451169" lon="9.609283036697061"><ele>6.0</ele><time>2026-03-28T15:22:00Z</time></trkpt><trkpt lat="39.508593410435346" lon="9.60934127336725"><ele>6.0</ele><time>2026-03-28T15:22:01Z</time></trkpt><trkpt lat="39.50838324090666" lon="9.609399508120353"><ele>6.333333333333334</ele><time>2026-03-28T15:22:02Z</time></trkpt><trkpt lat="39.50817121340945" lon="9.609459068872752"><ele>6.666666666666667</ele><time>2026-03-28T15:22:03Z</time></trkpt><trkpt lat="39.507960798185515" lon="9.609521675095724"><ele>7.0</ele><time>2026-03-28T15:22:04Z</time></trkpt><trkpt lat="39.507752294496825" lon="9.609584004740935"><ele>7.0</ele><time>2026-03-28T15:22:05Z</time></trkpt><trkpt lat="39.50754338460247" lon="9.609642952186135"><ele>7.0</ele><time>2026-03-28T15:22:06Z</time></trkpt><trkpt lat="39.5073336043157" lon="9.609703069659723"><ele>7.0</ele><time>2026-03-28T15:22:07Z</time></trkpt><trkpt lat="39.50712269957181" lon="9.609765361017555"><ele>8.333333333333334</ele><time>2026-03-28T15:22:08Z</time></trkpt><trkpt lat="39.50690696980328" lon="9.60980825805588"><ele>9.666666666666666</ele><time>2026-03-28T15:22:09Z</time></trkpt><trkpt lat="39.506693395858655" lon="9.609871595629576"><ele>11.0</ele><time>2026-03-28T15:22:10Z</time></trkpt><trkpt lat="39.50648016431098" lon="9.609954687917176"><ele>11.0</ele><time>2026-03-28T15:22:11Z</time></trkpt><trkpt lat="39.50626536186705" lon="9.610014032958743"><ele>11.0</ele><time>2026-03-28T15:22:12Z</time></trkpt><trkpt lat="39.50605081351345" lon="9.61007712881337"><ele>11.0</ele><time>2026-03-28T15:22:13Z</time></trkpt><trkpt lat="39.50583896744711" lon="9.610139738643705"><ele>11.0</ele><time>2026-03-28T15:22:14Z</time></trkpt><trkpt lat="39.50562450449479" lon="9.610203742345227"><ele>11.0</ele><time>2026-03-28T15:22:15Z</time></trkpt><trkpt lat="39.505405716625255" lon="9.61026948405305"><ele>11.0</ele><time>2026-03-28T15:22:16Z</time></trkpt><trkpt lat="39.505189431770525" lon="9.610332966276772"><ele>11.0</ele><time>2026-03-28T15:22:17Z</time></trkpt><trkpt lat="39.50496770511111" lon="9.610377118387975"><ele>11.0</ele><time>2026-03-28T15:22:18Z</time></trkpt><trkpt lat="39.50475331897121" lon="9.610461595024704"><ele>11.0</ele><time>2026-03-28T15:22:19Z</time></trkpt><trkpt lat="39.50453551703891" lon="9.610526033137154"><ele>11.0</ele><time>2026-03-28T15:22:20Z</time></trkpt><trkpt lat="39.504318773321444" lon="9.610589466317252"><ele>11.0</ele><time>2026-03-28T15:22:21Z</time></trkpt><trkpt lat="39.50410669571599" lon="9.61065081399621"><ele>11.0</ele><time>2026-03-28T15:22:22Z</time></trkpt><trkpt lat="39.503899892282575" lon="9.61071004009753"><ele>11.333333333333332</ele><time>2026-03-28T15:22:23Z</time></trkpt><trkpt lat="39.5036884507068" lon="9.610766219634819"><ele>11.666666666666666</ele><time>2026-03-28T15:22:24Z</time></trkpt><trkpt lat="39.503480110416916" lon="9.61080492838189"><ele>12.0</ele><time>2026-03-28T15:22:25Z</time></trkpt><trkpt lat="39.503271639559145" lon="9.610825261310316"><ele>12.0</ele><time>2026-03-28T15:22:26Z</time></trkpt><trkpt lat="39.50307060533189" lon="9.610823592654814"><ele>12.0</ele><time>2026-03-28T15:22:27Z</time></trkpt><trkpt lat="39.50286632820394" lon="9.610797949088688"><ele>12.0</ele><time>2026-03-28T15:22:28Z</time></trkpt><trkpt lat="39.50266050210807" lon="9.610749430828779"><ele>11.666666666666666</ele><time>2026-03-28T15:22:29Z</time></trkpt><trkpt lat="39.50245854949345" lon="9.610676223663868"><ele>11.333333333333332</ele><time>2026-03-28T15:22:30Z</time></trkpt><trkpt lat="39.50225523174172" lon="9.610587141713642"><ele>11.0</ele><time>2026-03-28T15:22:31Z</time></trkpt><trkpt lat="39.502050870812845" lon="9.610485170150595"><ele>12.666666666666666</ele><time>2026-03-28T15:22:32Z</time></trkpt><trkpt lat="39.501844017767226" lon="9.610381562237812"><ele>14.333333333333332</ele><time>2026-03-28T15:22:33Z</time></trkpt><trkpt lat="39.501636722113616" lon="9.61027031506426"><ele>16.0</ele><time>2026-03-28T15:22:34Z</time></trkpt><trkpt lat="39.501427700523735" lon="9.610158262195455"><ele>17.0</ele><time>2026-03-28T15:22:35Z</time></trkpt><trkpt lat="39.501215486700616" lon="9.610047490524847"><ele>18.0</ele><time>2026-03-28T15:22:36Z</time></trkpt><trkpt lat="39.50100382408526" lon="9.609937774391478"><ele>18.0</ele><time>2026-03-28T15:22:37Z</time></trkpt><trkpt lat="39.500788766760586" lon="9.609826167343062"><ele>18.0</ele><time>2026-03-28T15:22:38Z</time></trkpt><trkpt lat="39.50057211080983" lon="9.609714484966535"><ele>18.0</ele><time>2026-03-28T15:22:39Z</time></trkpt><trkpt lat="39.500353256610786" lon="9.60960169334743"><ele>18.0</ele><time>2026-03-28T15:22:40Z</time></trkpt><trkpt lat="39.50013906178166" lon="9.609489966362652"><ele>20.0</ele><time>2026-03-28T15:22:41Z</time></trkpt><trkpt lat="39.49992483289833" lon="9.609378819301556"><ele>22.0</ele><time>2026-03-28T15:22:42Z</time></trkpt><trkpt lat="39.49971255313073" lon="9.609266379754798"><ele>21.5</ele><time>2026-03-28T15:22:43Z</time></trkpt><trkpt lat="39.499499987435804" lon="9.60915576704459"><ele>21.0</ele><time>2026-03-28T15:22:44Z</time></trkpt><trkpt lat="39.499287943062114" lon="9.60904362938922"><ele>21.0</ele><time>2026-03-28T15:22:45Z</time></trkpt><trkpt lat="39.499074826787925" lon="9.608931653690803"><ele>21.0</ele><time>2026-03-28T15:22:46Z</time></trkpt><trkpt lat="39.49885919281365" lon="9.608820227563127"><ele>21.0</ele><time>2026-03-28T15:22:47Z</time></trkpt><trkpt lat="39.49864017931645" lon="9.608708311202518"><ele>21.0</ele><time>2026-03-28T15:22:48Z</time></trkpt><trkpt lat="39.49841844602834" lon="9.60859500299649"><ele>22.0</ele><time>2026-03-28T15:22:49Z</time></trkpt><trkpt lat="39.498197364386485" lon="9.608483285343834"><ele>23.0</ele><time>2026-03-28T15:22:50Z</time></trkpt><trkpt lat="39.49797603672476" lon="9.608369259124066"><ele>22.5</ele><time>2026-03-28T15:22:51Z</time></trkpt><trkpt lat="39.49775557593049" lon="9.60825501196783"><ele>22.0</ele><time>2026-03-28T15:22:52Z</time></trkpt><trkpt lat="39.4975366737174" lon="9.608140721621938"><ele>22.0</ele><time>2026-03-28T15:22:53Z</time></trkpt><trkpt lat="39.497314807619794" lon="9.608026952399506"><ele>22.0</ele><time>2026-03-28T15:22:54Z</time></trkpt><trkpt lat="39.497093909136545" lon="9.60791465756918"><ele>24.0</ele><time>2026-03-28T15:22:55Z</time></trkpt><trkpt lat="39.49687323315575" lon="9.607800989988137"><ele>26.0</ele><time>2026-03-28T15:22:56Z</time></trkpt><trkpt lat="39.49665822802958" lon="9.607684534415492"><ele>26.0</ele><time>2026-03-28T15:22:57Z</time></trkpt><trkpt lat="39.496436490189765" lon="9.607569754568077"><ele>26.0</ele><time>2026-03-28T15:22:58Z</time></trkpt><trkpt lat="39.49621833296353" lon="9.607455309532607"><ele>25.5</ele><time>2026-03-28T15:22:59Z</time></trkpt><trkpt lat="39.49600059821603" lon="9.607341210994248"><ele>25.0</ele><time>2026-03-28T15:23:00Z</time></trkpt><trkpt lat="39.495781935048626" lon="9.607226681943423"><ele>25.0</ele><time>2026-03-28T15:23:01Z</time></trkpt><trkpt lat="39.495567044769736" lon="9.60711319261945"><ele>25.0</ele><time>2026-03-28T15:23:02Z</time></trkpt><trkpt lat="39.49535836736938" lon="9.606999252079268"><ele>25.333333333333336</ele><time>2026-03-28T15:23:03Z</time></trkpt><trkpt lat="39.495155963169005" lon="9.606891622654627"><ele>25.666666666666664</ele><time>2026-03-28T15:23:04Z</time></trkpt><trkpt lat="39.49495597104698" lon="9.606794806374792"><ele>26.0</ele><time>2026-03-28T15:23:05Z</time></trkpt><trkpt lat="39.494763215705085" lon="9.606719909803363"><ele>26.666666666666664</ele><time>2026-03-28T15:23:06Z</time></trkpt><trkpt lat="39.494564656739115" lon="9.60668665992235"><ele>27.333333333333336</ele><time>2026-03-28T15:23:07Z</time></trkpt><trkpt lat="39.49435809474525" lon="9.606706548827814"><ele>28.0</ele><time>2026-03-28T15:23:08Z</time></trkpt><trkpt lat="39.49414085744997" lon="9.606774232177536"><ele>28.0</ele><time>2026-03-28T15:23:09Z</time></trkpt><trkpt lat="39.49392016718096" lon="9.606866601139707"><ele>28.0</ele><time>2026-03-28T15:23:10Z</time></trkpt><trkpt lat="39.49370128954755" lon="9.606945064373889"><ele>30.0</ele><time>2026-03-28T15:23:11Z</time></trkpt><trkpt lat="39.49347676883038" lon="9.60702416465785"><ele>32.0</ele><time>2026-03-28T15:23:12Z</time></trkpt><trkpt lat="39.49325161292042" lon="9.607107205309969"><ele>32.0</ele><time>2026-03-28T15:23:13Z</time></trkpt><trkpt lat="39.49302964513386" lon="9.607189142631873"><ele>32.0</ele><time>2026-03-28T15:23:14Z</time></trkpt><trkpt lat="39.4928094022563" lon="9.607269638469573"><ele>31.0</ele><time>2026-03-28T15:23:15Z</time></trkpt><trkpt lat="39.49258984120209" lon="9.607351783633137"><ele>30.0</ele><time>2026-03-28T15:23:16Z</time></trkpt><trkpt lat="39.49237241152268" lon="9.607433042969504"><ele>30.0</ele><time>2026-03-28T15:23:17Z</time></trkpt><trkpt lat="39.492155205958575" lon="9.607512652880331"><ele>30.0</ele><time>2026-03-28T15:23:18Z</time></trkpt><trkpt lat="39.49193994568565" lon="9.607591850719212"><ele>30.0</ele><time>2026-03-28T15:23:19Z</time></trkpt><trkpt lat="39.49172080789668" lon="9.6076709147792"><ele>29.333333333333336</ele><time>2026-03-28T15:23:20Z</time></trkpt><trkpt lat="39.49150303400585" lon="9.607745513093064"><ele>28.666666666666668</ele><time>2026-03-28T15:23:21Z</time></trkpt><trkpt lat="39.491288808451266" lon="9.60782952251539"><ele>28.0</ele><time>2026-03-28T15:23:22Z</time></trkpt><trkpt lat="39.49107895287371" lon="9.60793455951651"><ele>28.0</ele><time>2026-03-28T15:23:23Z</time></trkpt><trkpt lat="39.49087887510853" lon="9.60805507229803"><ele>28.0</ele><time>2026-03-28T15:23:24Z</time></trkpt><trkpt lat="39.490680626542726" lon="9.60817579528623"><ele>28.0</ele><time>2026-03-28T15:23:25Z</time></trkpt><trkpt lat="39.490478360431425" lon="9.608271689097075"><ele>29.333333333333336</ele><time>2026-03-28T15:23:26Z</time></trkpt><trkpt lat="39.49028795209518" lon="9.608389686824946"><ele>30.666666666666664</ele><time>2026-03-28T15:23:27Z</time></trkpt><trkpt lat="39.49007834120969" lon="9.608448791860184"><ele>32.0</ele><time>2026-03-28T15:23:28Z</time></trkpt><trkpt lat="39.48985842533895" lon="9.608466149642075"><ele>32.0</ele><time>2026-03-28T15:23:29Z</time></trkpt><trkpt lat="39.489641698367834" lon="9.608482561030604"><ele>32.0</ele><time>2026-03-28T15:23:30Z</time></trkpt><trkpt lat="39.48941194960308" lon="9.608500522935204"><ele>32.0</ele><time>2026-03-28T15:23:31Z</time></trkpt><trkpt lat="39.48918532235846" lon="9.608548845933061"><ele>32.666666666666664</ele><time>2026-03-28T15:23:32Z</time></trkpt><trkpt lat="39.48896251039399" lon="9.608538494326664"><ele>33.333333333333336</ele><time>2026-03-28T15:23:33Z</time></trkpt><trkpt lat="39.488753323700756" lon="9.608518402023654"><ele>34.0</ele><time>2026-03-28T15:23:34Z</time></trkpt><trkpt lat="39.488546712821325" lon="9.60847100071536"><ele>35.0</ele><time>2026-03-28T15:23:35Z</time></trkpt><trkpt lat="39.488331365972726" lon="9.6084310091535"><ele>36.0</ele><time>2026-03-28T15:23:36Z</time></trkpt><trkpt lat="39.48811092838072" lon="9.60841685424312"><ele>37.0</ele><time>2026-03-28T15:23:37Z</time></trkpt><trkpt lat="39.48788223848495" lon="9.60841107715154"><ele>39.0</ele><time>2026-03-28T15:23:38Z</time></trkpt><trkpt lat="39.48764895774675" lon="9.608449191158273"><ele>41.0</ele><time>2026-03-28T15:23:39Z</time></trkpt><trkpt lat="39.48741889499248" lon="9.60848183212905"><ele>41.0</ele><time>2026-03-28T15:23:40Z</time></trkpt><trkpt lat="39.48719221767297" lon="9.608509350910305"><ele>41.0</ele><time>2026-03-28T15:23:41Z</time></trkpt><trkpt lat="39.48696877625679" lon="9.608522036680364"><ele>40.666666666666664</ele><time>2026-03-28T15:23:42Z</time></trkpt><trkpt lat="39.48674913606634" lon="9.608490595654516"><ele>40.333333333333336</ele><time>2026-03-28T15:23:43Z</time></trkpt><trkpt lat="39.486532219537956" lon="9.608453019646575"><ele>40.0</ele><time>2026-03-28T15:23:44Z</time></trkpt><trkpt lat="39.48631468262474" lon="9.608383104422497"><ele>39.0</ele><time>2026-03-28T15:23:45Z</time></trkpt><trkpt lat="39.48609251083505" lon="9.608306845624341"><ele>38.0</ele><time>2026-03-28T15:23:46Z</time></trkpt><trkpt lat="39.485872025425714" lon="9.608236015721046"><ele>38.0</ele><time>2026-03-28T15:23:47Z</time></trkpt><trkpt lat="39.48564563299392" lon="9.608186307299126"><ele>38.0</ele><time>2026-03-28T15:23:48Z</time></trkpt><trkpt lat="39.48543255171507" lon="9.608129261207647"><ele>38.0</ele><time>2026-03-28T15:23:49Z</time></trkpt><trkpt lat="39.485211107965355" lon="9.608093512404707"><ele>38.33333333333333</ele><time>2026-03-28T15:23:50Z</time></trkpt><trkpt lat="39.48499091248886" lon="9.608072379539635"><ele>38.666666666666664</ele><time>2026-03-28T15:23:51Z</time></trkpt><trkpt lat="39.484767849669524" lon="9.608069493474062"><ele>39.0</ele><time>2026-03-28T15:23:52Z</time></trkpt><trkpt lat="39.48454482306441" lon="9.608064729292673"><ele>39.0</ele><time>2026-03-28T15:23:53Z</time></trkpt><trkpt lat="39.484322773867966" lon="9.608037556611855"><ele>39.0</ele><time>2026-03-28T15:23:54Z</time></trkpt><trkpt lat="39.484100838812616" lon="9.60798555129955"><ele>39.0</ele><time>2026-03-28T15:23:55Z</time></trkpt><trkpt lat="39.48388457191958" lon="9.607900886556756"><ele>41.5</ele><time>2026-03-28T15:23:56Z</time></trkpt><trkpt lat="39.48368684677185" lon="9.607755990445892"><ele>44.0</ele><time>2026-03-28T15:23:57Z</time></trkpt><trkpt lat="39.48348692973661" lon="9.607615584162666"><ele>44.0</ele><time>2026-03-28T15:23:58Z</time></trkpt><trkpt lat="39.483287752082596" lon="9.607482053321522"><ele>44.0</ele><time>2026-03-28T15:23:59Z</time></trkpt><trkpt lat="39.483096100114594" lon="9.607346960720852"><ele>44.0</ele><time>2026-03-28T15:24:00Z</time></trkpt><trkpt lat="39.48289164982096" lon="9.607255447176577"><ele>43.666666666666664</ele><time>2026-03-28T15:24:01Z</time></trkpt><trkpt lat="39.48267799133649" lon="9.607221978179918"><ele>43.333333333333336</ele><time>2026-03-28T15:24:02Z</time></trkpt><trkpt lat="39.48246622230632" lon="9.607223037073958"><ele>43.0</ele><time>2026-03-28T15:24:03Z</time></trkpt><trkpt lat="39.482267230967786" lon="9.607212910357928"><ele>43.0</ele><time>2026-03-28T15:24:04Z</time></trkpt><trkpt lat="39.48208583540034" lon="9.607159837128151"><ele>43.0</ele><time>2026-03-28T15:24:05Z</time></trkpt><trkpt lat="39.48191781973281" lon="9.60707076491437"><ele>43.0</ele><time>2026-03-28T15:24:06Z</time></trkpt><trkpt lat="39.48177066355038" lon="9.606955007942249"><ele>47.0</ele><time>2026-03-28T15:24:07Z</time></trkpt><trkpt lat="39.481665537971956" lon="9.606789378190676"><ele>51.0</ele><time>2026-03-28T15:24:08Z</time></trkpt><trkpt lat="39.4815555751543" lon="9.606643293990281"><ele>55.0</ele><time>2026-03-28T15:24:09Z</time></trkpt><trkpt lat="39.48145236939644" lon="9.60647969859824"><ele>55.0</ele><time>2026-03-28T15:24:10Z</time></trkpt><trkpt lat="39.48133157453829" lon="9.606321141619551"><ele>55.0</ele><time>2026-03-28T15:24:11Z</time></trkpt><trkpt lat="39.48122429810856" lon="9.60613912230961"><ele>55.0</ele><time>2026-03-28T15:24:12Z</time></trkpt><trkpt lat="39.48111073634098" lon="9.605958932695453"><ele>54.33333333333333</ele><time>2026-03-28T15:24:13Z</time></trkpt><trkpt lat="39.480997568246856" lon="9.60577848549771"><ele>53.66666666666667</ele><time>2026-03-28T15:24:14Z</time></trkpt><trkpt lat="39.48088452867356" lon="9.605598176782427"><ele>53.0</ele><time>2026-03-28T15:24:15Z</time></trkpt><trkpt lat="39.48077818327707" lon="9.605415234319276"><ele>55.333333333333336</ele><time>2026-03-28T15:24:16Z</time></trkpt><trkpt lat="39.48067870840668" lon="9.60523786282603"><ele>57.66666666666667</ele><time>2026-03-28T15:24:17Z</time></trkpt><trkpt lat="39.480574242771645" lon="9.605071565898266"><ele>60.0</ele><time>2026-03-28T15:24:18Z</time></trkpt><trkpt lat="39.48045773645697" lon="9.604925218278185"><ele>58.66666666666667</ele><time>2026-03-28T15:24:19Z</time></trkpt><trkpt lat="39.4803221241435" lon="9.60480755342788"><ele>57.333333333333336</ele><time>2026-03-28T15:24:20Z</time></trkpt><trkpt lat="39.480177921200635" lon="9.604710894041254"><ele>56.0</ele><time>2026-03-28T15:24:21Z</time></trkpt><trkpt lat="39.48002359943784" lon="9.604642864862107"><ele>56.0</ele><time>2026-03-28T15:24:22Z</time></trkpt><trkpt lat="39.47986784982386" lon="9.604605647450843"><ele>56.0</ele><time>2026-03-28T15:24:23Z</time></trkpt><trkpt lat="39.4797150513132" lon="9.604597771579922"><ele>56.0</ele><time>2026-03-28T15:24:24Z</time></trkpt><trkpt lat="39.47957900531845" lon="9.604628434424718"><ele>56.0</ele><time>2026-03-28T15:24:25Z</time></trkpt><trkpt lat="39.47945513723528" lon="9.604635899364114"><ele>57.0</ele><time>2026-03-28T15:24:26Z</time></trkpt><trkpt lat="39.479330647328844" lon="9.604654190603"><ele>58.0</ele><time>2026-03-28T15:24:27Z</time></trkpt><trkpt lat="39.479204870444406" lon="9.604764038264983"><ele>59.0</ele><time>2026-03-28T15:24:28Z</time></trkpt><trkpt lat="39.479064965140076" lon="9.604796758062182"><ele>60.0</ele><time>2026-03-28T15:24:29Z</time></trkpt><trkpt lat="39.478925800379535" lon="9.604829385336643"><ele>60.0</ele><time>2026-03-28T15:24:30Z</time></trkpt><trkpt lat="39.47878932406996" lon="9.6048610306542"><ele>60.0</ele><time>2026-03-28T15:24:31Z</time></trkpt><trkpt lat="39.478654264277544" lon="9.60489878374517"><ele>60.0</ele><time>2026-03-28T15:24:32Z</time></trkpt><trkpt lat="39.478521872303254" lon="9.604964724541016"><ele>60.0</ele><time>2026-03-28T15:24:33Z</time></trkpt><trkpt lat="39.47839393922714" lon="9.605080496549565"><ele>60.0</ele><time>2026-03-28T15:24:34Z</time></trkpt><trkpt lat="39.478277002992634" lon="9.605236557047007"><ele>60.0</ele><time>2026-03-28T15:24:35Z</time></trkpt><trkpt lat="39.47816091603507" lon="9.60540055125499"><ele>60.0</ele><time>2026-03-28T15:24:36Z</time></trkpt><trkpt lat="39.47804494045298" lon="9.605552552686847"><ele>63.33333333333333</ele><time>2026-03-28T15:24:37Z</time></trkpt><trkpt lat="39.47792662951604" lon="9.605694256652676"><ele>66.66666666666666</ele><time>2026-03-28T15:24:38Z</time></trkpt><trkpt lat="39.47780858484859" lon="9.605811770014622"><ele>70.0</ele><time>2026-03-28T15:24:39Z</time></trkpt><trkpt lat="39.47767517169541" lon="9.605885936055694"><ele>70.0</ele><time>2026-03-28T15:24:40Z</time></trkpt><trkpt lat="39.47751795872962" lon="9.605911500271057"><ele>70.0</ele><time>2026-03-28T15:24:41Z</time></trkpt><trkpt lat="39.477348453958435" lon="9.60591184909285"><ele>70.0</ele><time>2026-03-28T15:24:42Z</time></trkpt><trkpt lat="39.4771811242656" lon="9.605900825781038"><ele>72.33333333333333</ele><time>2026-03-28T15:24:43Z</time></trkpt><trkpt lat="39.477017281652984" lon="9.605863352454735"><ele>74.66666666666667</ele><time>2026-03-28T15:24:44Z</time></trkpt><trkpt lat="39.47686509548999" lon="9.605787259555596"><ele>77.0</ele><time>2026-03-28T15:24:45Z</time></trkpt><trkpt lat="39.47670619953606" lon="9.605691890629174"><ele>77.0</ele><time>2026-03-28T15:24:46Z</time></trkpt><trkpt lat="39.47653764446297" lon="9.605618002222618"><ele>77.0</ele><time>2026-03-28T15:24:47Z</time></trkpt><trkpt lat="39.476357894962334" lon="9.605576522287445"><ele>77.0</ele><time>2026-03-28T15:24:48Z</time></trkpt><trkpt lat="39.47617643969124" lon="9.605562737761828"><ele>81.66666666666667</ele><time>2026-03-28T15:24:49Z</time></trkpt><trkpt lat="39.475997893803005" lon="9.605561051911833"><ele>86.33333333333333</ele><time>2026-03-28T15:24:50Z</time></trkpt><trkpt lat="39.47582726072727" lon="9.605568284100485"><ele>91.0</ele><time>2026-03-28T15:24:51Z</time></trkpt><trkpt lat="39.475665020473336" lon="9.60556972157096"><ele>91.0</ele><time>2026-03-28T15:24:52Z</time></trkpt><trkpt lat="39.47550383549869" lon="9.605552285808077"><ele>91.0</ele><time>2026-03-28T15:24:53Z</time></trkpt><trkpt lat="39.47534792051888" lon="9.605508807118147"><ele>91.0</ele><time>2026-03-28T15:24:54Z</time></trkpt><trkpt lat="39.47519154308199" lon="9.605449569558958"><ele>91.66666666666666</ele><time>2026-03-28T15:24:55Z</time></trkpt><trkpt lat="39.47503290931927" lon="9.605366047068868"><ele>92.33333333333333</ele><time>2026-03-28T15:24:56Z</time></trkpt><trkpt lat="39.474872710897785" lon="9.605257627855616"><ele>93.0</ele><time>2026-03-28T15:24:57Z</time></trkpt><trkpt lat="39.47470440511132" lon="9.60513838567443"><ele>88.33333333333333</ele><time>2026-03-28T15:24:58Z</time></trkpt><trkpt lat="39.47452539520251" lon="9.605032581931003"><ele>83.66666666666666</ele><time>2026-03-28T15:24:59Z</time></trkpt><trkpt lat="39.47433191489607" lon="9.604956130289215"><ele>79.0</ele><time>2026-03-28T15:25:00Z</time></trkpt><trkpt lat="39.474134680367754" lon="9.604900821931011"><ele>79.0</ele><time>2026-03-28T15:25:01Z</time></trkpt><trkpt lat="39.473937934700416" lon="9.60485478882529"><ele>79.0</ele><time>2026-03-28T15:25:02Z</time></trkpt><trkpt lat="39.473751065382984" lon="9.604800110558449"><ele>79.0</ele><time>2026-03-28T15:25:03Z</time></trkpt><trkpt lat="39.473570894706356" lon="9.604737000980737"><ele>75.33333333333333</ele><time>2026-03-28T15:25:04Z</time></trkpt><trkpt lat="39.47339954845673" lon="9.604656888125966"><ele>71.66666666666667</ele><time>2026-03-28T15:25:05Z</time></trkpt><trkpt lat="39.47323934514107" lon="9.604542110784045"><ele>68.0</ele><time>2026-03-28T15:25:06Z</time></trkpt><trkpt lat="39.473111976388815" lon="9.604357773575716"><ele>68.0</ele><time>2026-03-28T15:25:07Z</time></trkpt><trkpt lat="39.47298116683534" lon="9.604167351635004"><ele>68.0</ele><time>2026-03-28T15:25:08Z</time></trkpt><trkpt lat="39.47283816644774" lon="9.603971093143583"><ele>68.0</ele><time>2026-03-28T15:25:09Z</time></trkpt><trkpt lat="39.472703735181476" lon="9.603753646372997"><ele>64.66666666666667</ele><time>2026-03-28T15:25:10Z</time></trkpt><trkpt lat="39.472558445863335" lon="9.603538104473675"><ele>61.33333333333333</ele><time>2026-03-28T15:25:11Z</time></trkpt><trkpt lat="39.47240702475817" lon="9.603318332075377"><ele>58.0</ele><time>2026-03-28T15:25:12Z</time></trkpt><trkpt lat="39.472254975820725" lon="9.60309835791455"><ele>54.5</ele><time>2026-03-28T15:25:13Z</time></trkpt><trkpt lat="39.47210470784194" lon="9.60287472015856"><ele>51.0</ele><time>2026-03-28T15:25:14Z</time></trkpt><trkpt lat="39.4719632942171" lon="9.602652577988087"><ele>51.0</ele><time>2026-03-28T15:25:15Z</time></trkpt><trkpt lat="39.47182740536431" lon="9.602437107767036"><ele>51.0</ele><time>2026-03-28T15:25:16Z</time></trkpt><trkpt lat="39.47169062441101" lon="9.602231532059866"><ele>51.0</ele><time>2026-03-28T15:25:17Z</time></trkpt><trkpt lat="39.4715419788937" lon="9.602048022386088"><ele>50.33333333333333</ele><time>2026-03-28T15:25:18Z</time></trkpt><trkpt lat="39.47137881652647" lon="9.601902517670982"><ele>49.666666666666664</ele><time>2026-03-28T15:25:19Z</time></trkpt><trkpt lat="39.47119733966094" lon="9.60181038072956"><ele>49.0</ele><time>2026-03-28T15:25:20Z</time></trkpt><trkpt lat="39.4710067160428" lon="9.601773700830377"><ele>49.666666666666664</ele><time>2026-03-28T15:25:21Z</time></trkpt><trkpt lat="39.47081412203847" lon="9.601789989125237"><ele>50.33333333333333</ele><time>2026-03-28T15:25:22Z</time></trkpt><trkpt lat="39.47061972388083" lon="9.6018603851942"><ele>51.0</ele><time>2026-03-28T15:25:23Z</time></trkpt><trkpt lat="39.47043887585701" lon="9.60198707591772"><ele>50.0</ele><time>2026-03-28T15:25:24Z</time></trkpt><trkpt lat="39.470275485728074" lon="9.602168088578122"><ele>49.0</ele><time>2026-03-28T15:25:25Z</time></trkpt><trkpt lat="39.47012424732156" lon="9.602404746505325"><ele>49.0</ele><time>2026-03-28T15:25:26Z</time></trkpt><trkpt lat="39.46998992984707" lon="9.6026589126204"><ele>49.0</ele><time>2026-03-28T15:25:27Z</time></trkpt><trkpt lat="39.469848489211046" lon="9.602910666275966"><ele>45.5</ele><time>2026-03-28T15:25:28Z</time></trkpt><trkpt lat="39.46968636616064" lon="9.603134379568347"><ele>42.0</ele><time>2026-03-28T15:25:29Z</time></trkpt><trkpt lat="39.46954085448868" lon="9.603359536140191"><ele>42.0</ele><time>2026-03-28T15:25:30Z</time></trkpt><trkpt lat="39.46940676797405" lon="9.603588041986864"><ele>42.0</ele><time>2026-03-28T15:25:31Z</time></trkpt><trkpt lat="39.469253715458606" lon="9.603789180689656"><ele>42.0</ele><time>2026-03-28T15:25:32Z</time></trkpt><trkpt lat="39.469068591883385" lon="9.603932152080542"><ele>42.333333333333336</ele><time>2026-03-28T15:25:33Z</time></trkpt><trkpt lat="39.46887906289616" lon="9.604069852595012"><ele>42.66666666666667</ele><time>2026-03-28T15:25:34Z</time></trkpt><trkpt lat="39.46868175718358" lon="9.6042042274162"><ele>43.0</ele><time>2026-03-28T15:25:35Z</time></trkpt><trkpt lat="39.46849485024052" lon="9.604351858352697"><ele>43.0</ele><time>2026-03-28T15:25:36Z</time></trkpt><trkpt lat="39.468300050841485" lon="9.604456435268801"><ele>43.0</ele><time>2026-03-28T15:25:37Z</time></trkpt><trkpt lat="39.46809193109709" lon="9.604497973395084"><ele>43.0</ele><time>2026-03-28T15:25:38Z</time></trkpt><trkpt lat="39.467882404787154" lon="9.604553763808129"><ele>43.333333333333336</ele><time>2026-03-28T15:25:39Z</time></trkpt><trkpt lat="39.467659696446084" lon="9.604543405573706"><ele>43.666666666666664</ele><time>2026-03-28T15:25:40Z</time></trkpt><trkpt lat="39.46744012412997" lon="9.604502537672124"><ele>44.0</ele><time>2026-03-28T15:25:41Z</time></trkpt><trkpt lat="39.46722212700467" lon="9.60443841999025"><ele>41.0</ele><time>2026-03-28T15:25:42Z</time></trkpt><trkpt lat="39.46700924651652" lon="9.604335360977773"><ele>38.0</ele><time>2026-03-28T15:25:43Z</time></trkpt><trkpt lat="39.4667874463389" lon="9.604269265711705"><ele>38.0</ele><time>2026-03-28T15:25:44Z</time></trkpt><trkpt lat="39.46656800675062" lon="9.604187532657118"><ele>38.0</ele><time>2026-03-28T15:25:45Z</time></trkpt><trkpt lat="39.46635212502419" lon="9.604083599596079"><ele>37.0</ele><time>2026-03-28T15:25:46Z</time></trkpt><trkpt lat="39.46613249108705" lon="9.603998753987193"><ele>36.0</ele><time>2026-03-28T15:25:47Z</time></trkpt><trkpt lat="39.465914577986254" lon="9.603915201607963"><ele>36.0</ele><time>2026-03-28T15:25:48Z</time></trkpt><trkpt lat="39.46569946331315" lon="9.60383276100903"><ele>36.0</ele><time>2026-03-28T15:25:49Z</time></trkpt><trkpt lat="39.465485441174756" lon="9.603750824606083"><ele>36.0</ele><time>2026-03-28T15:25:50Z</time></trkpt><trkpt lat="39.465271570013336" lon="9.603671253799996"><ele>38.0</ele><time>2026-03-28T15:25:51Z</time></trkpt><trkpt lat="39.46505425598544" lon="9.603590402080616"><ele>40.0</ele><time>2026-03-28T15:25:52Z</time></trkpt><trkpt lat="39.46483343518668" lon="9.603528824318522"><ele>40.0</ele><time>2026-03-28T15:25:53Z</time></trkpt><trkpt lat="39.464615982124826" lon="9.603444801403656"><ele>40.0</ele><time>2026-03-28T15:25:54Z</time></trkpt><trkpt lat="39.46439901927005" lon="9.603365638679549"><ele>40.0</ele><time>2026-03-28T15:25:55Z</time></trkpt><trkpt lat="39.464187284221055" lon="9.603265794330367"><ele>40.0</ele><time>2026-03-28T15:25:56Z</time></trkpt><trkpt lat="39.46398111382589" lon="9.60318771889532"><ele>40.0</ele><time>2026-03-28T15:25:57Z</time></trkpt><trkpt lat="39.46377699281321" lon="9.603132113729718"><ele>40.333333333333336</ele><time>2026-03-28T15:25:58Z</time></trkpt><trkpt lat="39.46358661532201" lon="9.603057865638666"><ele>40.666666666666664</ele><time>2026-03-28T15:25:59Z</time></trkpt><trkpt lat="39.46339339923779" lon="9.602988319680781"><ele>41.0</ele><time>2026-03-28T15:26:00Z</time></trkpt><trkpt lat="39.463211710760504" lon="9.602903028115694"><ele>41.0</ele><time>2026-03-28T15:26:01Z</time></trkpt><trkpt lat="39.46303092911817" lon="9.602837505285013"><ele>41.0</ele><time>2026-03-28T15:26:02Z</time></trkpt><trkpt lat="39.46284729285319" lon="9.602776571101273"><ele>41.0</ele><time>2026-03-28T15:26:03Z</time></trkpt><trkpt lat="39.462627598602445" lon="9.602873260353666"><ele>40.666666666666664</ele><time>2026-03-28T15:26:04Z</time></trkpt><trkpt lat="39.462438284575114" lon="9.60288711565356"><ele>40.333333333333336</ele><time>2026-03-28T15:26:05Z</time></trkpt><trkpt lat="39.46225381995862" lon="9.602900333925708"><ele>40.0</ele><time>2026-03-28T15:26:06Z</time></trkpt><trkpt lat="39.46206186167827" lon="9.60290979369689"><ele>39.333333333333336</ele><time>2026-03-28T15:26:07Z</time></trkpt><trkpt lat="39.46185362011403" lon="9.60291976282572"><ele>38.666666666666664</ele><time>2026-03-28T15:26:08Z</time></trkpt><trkpt lat="39.461617413940424" lon="9.602926180717013"><ele>38.0</ele><time>2026-03-28T15:26:09Z</time></trkpt><trkpt lat="39.46135966864031" lon="9.602921533385178"><ele>36.0</ele><time>2026-03-28T15:26:10Z</time></trkpt><trkpt lat="39.461088362975275" lon="9.602913282560992"><ele>34.0</ele><time>2026-03-28T15:26:11Z</time></trkpt><trkpt lat="39.460810447160696" lon="9.60291477364818"><ele>34.0</ele><time>2026-03-28T15:26:12Z</time></trkpt><trkpt lat="39.460538553301866" lon="9.602928958721279"><ele>34.0</ele><time>2026-03-28T15:26:13Z</time></trkpt><trkpt lat="39.46026755075914" lon="9.602939126538638"><ele>33.0</ele><time>2026-03-28T15:26:14Z</time></trkpt><trkpt lat="39.45999435083968" lon="9.602944090044447"><ele>32.0</ele><time>2026-03-28T15:26:15Z</time></trkpt><trkpt lat="39.4597213331612" lon="9.602941784466296"><ele>31.0</ele><time>2026-03-28T15:26:16Z</time></trkpt><trkpt lat="39.459453427178" lon="9.602929535140419"><ele>30.0</ele><time>2026-03-28T15:26:17Z</time></trkpt><trkpt lat="39.45918872514906" lon="9.602892116573196"><ele>30.0</ele><time>2026-03-28T15:26:18Z</time></trkpt><trkpt lat="39.45892649466107" lon="9.602827062101596"><ele>30.0</ele><time>2026-03-28T15:26:19Z</time></trkpt><trkpt lat="39.45867068732033" lon="9.602739214922558"><ele>28.5</ele><time>2026-03-28T15:26:20Z</time></trkpt><trkpt lat="39.4584235175458" lon="9.602645560529416"><ele>27.0</ele><time>2026-03-28T15:26:21Z</time></trkpt><trkpt lat="39.458181881468484" lon="9.602558367683466"><ele>27.0</ele><time>2026-03-28T15:26:22Z</time></trkpt><trkpt lat="39.457946827332066" lon="9.602478836151283"><ele>27.0</ele><time>2026-03-28T15:26:23Z</time></trkpt><trkpt lat="39.457725259869676" lon="9.602400834977688"><ele>27.0</ele><time>2026-03-28T15:26:24Z</time></trkpt><trkpt lat="39.45751504904196" lon="9.602308094818111"><ele>27.0</ele><time>2026-03-28T15:26:25Z</time></trkpt><trkpt lat="39.45731486308989" lon="9.602180775227863"><ele>27.0</ele><time>2026-03-28T15:26:26Z</time></trkpt><trkpt lat="39.45711286867013" lon="9.60201236534282"><ele>28.5</ele><time>2026-03-28T15:26:27Z</time></trkpt><trkpt lat="39.456900945273105" lon="9.601830001021936"><ele>30.0</ele><time>2026-03-28T15:26:28Z</time></trkpt><trkpt lat="39.4566761035926" lon="9.601649109096527"><ele>30.0</ele><time>2026-03-28T15:26:29Z</time></trkpt><trkpt lat="39.45644327740675" lon="9.601470519576464"><ele>30.0</ele><time>2026-03-28T15:26:30Z</time></trkpt><trkpt lat="39.45620760628943" lon="9.601288251960865"><ele>31.5</ele><time>2026-03-28T15:26:31Z</time></trkpt><trkpt lat="39.455971030605575" lon="9.601100036190559"><ele>33.0</ele><time>2026-03-28T15:26:32Z</time></trkpt><trkpt lat="39.45574181342363" lon="9.600915326262193"><ele>33.0</ele><time>2026-03-28T15:26:33Z</time></trkpt><trkpt lat="39.4555153119311" lon="9.600732525927098"><ele>33.0</ele><time>2026-03-28T15:26:34Z</time></trkpt><trkpt lat="39.45529668460524" lon="9.600558307957064"><ele>31.0</ele><time>2026-03-28T15:26:35Z</time></trkpt><trkpt lat="39.45508599744444" lon="9.600387373183587"><ele>29.0</ele><time>2026-03-28T15:26:36Z</time></trkpt><trkpt lat="39.45487571175377" lon="9.600223429376005"><ele>29.0</ele><time>2026-03-28T15:26:37Z</time></trkpt><trkpt lat="39.454662450639006" lon="9.600073914546135"><ele>29.0</ele><time>2026-03-28T15:26:38Z</time></trkpt><trkpt lat="39.45443932853144" lon="9.599954786661376"><ele>30.5</ele><time>2026-03-28T15:26:39Z</time></trkpt><trkpt lat="39.45420846624124" lon="9.5998789415703"><ele>32.0</ele><time>2026-03-28T15:26:40Z</time></trkpt><trkpt lat="39.45395751568459" lon="9.599832495847515"><ele>33.0</ele><time>2026-03-28T15:26:41Z</time></trkpt><trkpt lat="39.45370254654474" lon="9.59980979981556"><ele>34.0</ele><time>2026-03-28T15:26:42Z</time></trkpt><trkpt lat="39.45343685072051" lon="9.599796390819002"><ele>34.0</ele><time>2026-03-28T15:26:43Z</time></trkpt><trkpt lat="39.453167660670836" lon="9.59978603634324"><ele>34.0</ele><time>2026-03-28T15:26:44Z</time></trkpt><trkpt lat="39.45289429986644" lon="9.599770434621256"><ele>33.0</ele><time>2026-03-28T15:26:45Z</time></trkpt><trkpt lat="39.45261629036723" lon="9.599753108645867"><ele>32.0</ele><time>2026-03-28T15:26:46Z</time></trkpt><trkpt lat="39.45233149569069" lon="9.599740796458278"><ele>33.0</ele><time>2026-03-28T15:26:47Z</time></trkpt><trkpt lat="39.45204221658005" lon="9.599725619367346"><ele>34.0</ele><time>2026-03-28T15:26:48Z</time></trkpt><trkpt lat="39.45175318128847" lon="9.599706883973761"><ele>34.0</ele><time>2026-03-28T15:26:49Z</time></trkpt><trkpt lat="39.45146313460098" lon="9.599689502167704"><ele>34.0</ele><time>2026-03-28T15:26:50Z</time></trkpt><trkpt lat="39.45117054534184" lon="9.599673090814386"><ele>33.5</ele><time>2026-03-28T15:26:51Z</time></trkpt><trkpt lat="39.45088407029259" lon="9.59965829150312"><ele>33.0</ele><time>2026-03-28T15:26:52Z</time></trkpt><trkpt lat="39.45059636629944" lon="9.599642080924008"><ele>34.0</ele><time>2026-03-28T15:26:53Z</time></trkpt><trkpt lat="39.450311252579915" lon="9.599625250114054"><ele>35.0</ele><time>2026-03-28T15:26:54Z</time></trkpt><trkpt lat="39.45002596267698" lon="9.59960751340048"><ele>35.0</ele><time>2026-03-28T15:26:55Z</time></trkpt><trkpt lat="39.449747068488904" lon="9.599590353687516"><ele>35.0</ele><time>2026-03-28T15:26:56Z</time></trkpt><trkpt lat="39.44946803793936" lon="9.599576202988304"><ele>34.5</ele><time>2026-03-28T15:26:57Z</time></trkpt><trkpt lat="39.44918564289846" lon="9.599563578386393"><ele>34.0</ele><time>2026-03-28T15:26:58Z</time></trkpt><trkpt lat="39.44889454611642" lon="9.599548021374734"><ele>32.0</ele><time>2026-03-28T15:26:59Z</time></trkpt><trkpt lat="39.44860440927435" lon="9.599532625582304"><ele>30.0</ele><time>2026-03-28T15:27:00Z</time></trkpt><trkpt lat="39.44832009061186" lon="9.599516375549948"><ele>30.0</ele><time>2026-03-28T15:27:01Z</time></trkpt><trkpt lat="39.44804474488633" lon="9.59950093450514"><ele>30.0</ele><time>2026-03-28T15:27:02Z</time></trkpt><trkpt lat="39.447773244450026" lon="9.59948500747298"><ele>32.0</ele><time>2026-03-28T15:27:03Z</time></trkpt><trkpt lat="39.44750359564042" lon="9.599473634135904"><ele>34.0</ele><time>2026-03-28T15:27:04Z</time></trkpt><trkpt lat="39.4472307091464" lon="9.599478074167923"><ele>31.0</ele><time>2026-03-28T15:27:05Z</time></trkpt><trkpt lat="39.44695592511022" lon="9.59950469491885"><ele>28.0</ele><time>2026-03-28T15:27:06Z</time></trkpt><trkpt lat="39.446680123222755" lon="9.59954316779738"><ele>28.0</ele><time>2026-03-28T15:27:07Z</time></trkpt><trkpt lat="39.446400495240866" lon="9.599575832915717"><ele>28.0</ele><time>2026-03-28T15:27:08Z</time></trkpt><trkpt lat="39.44612039409879" lon="9.599605532440009"><ele>26.5</ele><time>2026-03-28T15:27:09Z</time></trkpt><trkpt lat="39.44584045450483" lon="9.59963818271574"><ele>25.0</ele><time>2026-03-28T15:27:10Z</time></trkpt><trkpt lat="39.445557863541865" lon="9.59967222517373"><ele>24.0</ele><time>2026-03-28T15:27:11Z</time></trkpt><trkpt lat="39.445277697078005" lon="9.599706984176134"><ele>23.0</ele><time>2026-03-28T15:27:12Z</time></trkpt><trkpt lat="39.445000601787086" lon="9.599740208874021"><ele>23.0</ele><time>2026-03-28T15:27:13Z</time></trkpt><trkpt lat="39.44472255679136" lon="9.599770412627198"><ele>23.0</ele><time>2026-03-28T15:27:14Z</time></trkpt><trkpt lat="39.444447955794814" lon="9.599799759714175"><ele>22.0</ele><time>2026-03-28T15:27:15Z</time></trkpt><trkpt lat="39.44417000352974" lon="9.599832351173127"><ele>21.0</ele><time>2026-03-28T15:27:16Z</time></trkpt><trkpt lat="39.44389495200881" lon="9.599866473523752"><ele>20.0</ele><time>2026-03-28T15:27:17Z</time></trkpt><trkpt lat="39.44362275191763" lon="9.599902440850508"><ele>19.0</ele><time>2026-03-28T15:27:18Z</time></trkpt><trkpt lat="39.44335593069004" lon="9.599936917028359"><ele>19.0</ele><time>2026-03-28T15:27:19Z</time></trkpt><trkpt lat="39.443101164111184" lon="9.59996901746315"><ele>19.0</ele><time>2026-03-28T15:27:20Z</time></trkpt><trkpt lat="39.44285195594505" lon="9.599998580904492"><ele>17.5</ele><time>2026-03-28T15:27:21Z</time></trkpt><trkpt lat="39.442610101791594" lon="9.600024690014385"><ele>16.0</ele><time>2026-03-28T15:27:22Z</time></trkpt><trkpt lat="39.44237540374762" lon="9.6000345597638"><ele>16.0</ele><time>2026-03-28T15:27:23Z</time></trkpt><trkpt lat="39.44214636134295" lon="9.600022886306837"><ele>16.0</ele><time>2026-03-28T15:27:24Z</time></trkpt><trkpt lat="39.44193242934359" lon="9.59999704286154"><ele>16.0</ele><time>2026-03-28T15:27:25Z</time></trkpt><trkpt lat="39.4417317171254" lon="9.599945082843043"><ele>16.0</ele><time>2026-03-28T15:27:26Z</time></trkpt><trkpt lat="39.44154361718585" lon="9.599856984534672"><ele>16.0</ele><time>2026-03-28T15:27:27Z</time></trkpt><trkpt lat="39.441358534232535" lon="9.599732189617534"><ele>16.0</ele><time>2026-03-28T15:27:28Z</time></trkpt><trkpt lat="39.44117237566" lon="9.599576267303156"><ele>16.5</ele><time>2026-03-28T15:27:29Z</time></trkpt><trkpt lat="39.44097700721188" lon="9.599407010915547"><ele>17.0</ele><time>2026-03-28T15:27:30Z</time></trkpt><trkpt lat="39.440774899540116" lon="9.599235187640629"><ele>17.0</ele><time>2026-03-28T15:27:31Z</time></trkpt><trkpt lat="39.4405751893796" lon="9.599062881126432"><ele>17.0</ele><time>2026-03-28T15:27:32Z</time></trkpt><trkpt lat="39.440379743074125" lon="9.598889768857244"><ele>16.0</ele><time>2026-03-28T15:27:33Z</time></trkpt><trkpt lat="39.440187319245034" lon="9.598721989602813"><ele>15.0</ele><time>2026-03-28T15:27:34Z</time></trkpt><trkpt lat="39.440003209906955" lon="9.598560845887778"><ele>15.0</ele><time>2026-03-28T15:27:35Z</time></trkpt><trkpt lat="39.43982148521723" lon="9.598400321106132"><ele>15.0</ele><time>2026-03-28T15:27:36Z</time></trkpt><trkpt lat="39.439642719696295" lon="9.598242179980703"><ele>15.0</ele><time>2026-03-28T15:27:37Z</time></trkpt><trkpt lat="39.4394652394338" lon="9.598086621205134"><ele>14.333333333333332</ele><time>2026-03-28T15:27:38Z</time></trkpt><trkpt lat="39.43929409825318" lon="9.597939147315442"><ele>13.666666666666666</ele><time>2026-03-28T15:27:39Z</time></trkpt><trkpt lat="39.43912740540657" lon="9.59779497579998"><ele>13.0</ele><time>2026-03-28T15:27:40Z</time></trkpt><trkpt lat="39.4389668424832" lon="9.597653230562285"><ele>13.666666666666666</ele><time>2026-03-28T15:27:41Z</time></trkpt><trkpt lat="39.438803893195725" lon="9.597511399890324"><ele>14.333333333333332</ele><time>2026-03-28T15:27:42Z</time></trkpt><trkpt lat="39.438654506770845" lon="9.597381143634442"><ele>15.0</ele><time>2026-03-28T15:27:43Z</time></trkpt><trkpt lat="39.43851260896306" lon="9.59725734997129"><ele>15.0</ele><time>2026-03-28T15:27:44Z</time></trkpt><trkpt lat="39.43837705209785" lon="9.597139975137233"><ele>15.0</ele><time>2026-03-28T15:27:45Z</time></trkpt><trkpt lat="39.438252674833315" lon="9.59703257112206"><ele>15.0</ele><time>2026-03-28T15:27:46Z</time></trkpt><trkpt lat="39.43814478606212" lon="9.59693136511837"><ele>15.0</ele><time>2026-03-28T15:27:47Z</time></trkpt><trkpt lat="39.438058425052446" lon="9.596833456982214"><ele>14.666666666666666</ele><time>2026-03-28T15:27:48Z</time></trkpt><trkpt lat="39.438002872033486" lon="9.596733306942678"><ele>14.333333333333332</ele><time>2026-03-28T15:27:49Z</time></trkpt><trkpt lat="39.43797407901077" lon="9.596634425261215"><ele>14.0</ele><time>2026-03-28T15:27:50Z</time></trkpt><trkpt lat="39.437926925377106" lon="9.59655824377917"><ele>13.666666666666666</ele><time>2026-03-28T15:27:51Z</time></trkpt><trkpt lat="39.43784773700946" lon="9.596531636493054"><ele>13.333333333333332</ele><time>2026-03-28T15:27:52Z</time></trkpt><trkpt lat="39.43774300030085" lon="9.596523392913097"><ele>13.0</ele><time>2026-03-28T15:27:53Z</time></trkpt><trkpt lat="39.43762585148133" lon="9.596471222715119"><ele>13.0</ele><time>2026-03-28T15:27:54Z</time></trkpt><trkpt lat="39.437505581595204" lon="9.596371276928028"><ele>13.0</ele><time>2026-03-28T15:27:55Z</time></trkpt><trkpt lat="39.43738065025633" lon="9.59627049605881"><ele>13.0</ele><time>2026-03-28T15:27:56Z</time></trkpt><trkpt lat="39.43724063532221" lon="9.596183370861285"><ele>13.0</ele><time>2026-03-28T15:27:57Z</time></trkpt><trkpt lat="39.43708340368008" lon="9.59611431937942"><ele>16.0</ele><time>2026-03-28T15:27:58Z</time></trkpt><trkpt lat="39.43691785082281" lon="9.596054102136174"><ele>19.0</ele><time>2026-03-28T15:27:59Z</time></trkpt><trkpt lat="39.43676583819355" lon="9.595990085296641"><ele>22.0</ele><time>2026-03-28T15:28:00Z</time></trkpt><trkpt lat="39.43661513207593" lon="9.595906991823407"><ele>22.0</ele><time>2026-03-28T15:28:01Z</time></trkpt><trkpt lat="39.43646045872146" lon="9.595809331727963"><ele>22.0</ele><time>2026-03-28T15:28:02Z</time></trkpt><trkpt lat="39.43630834212703" lon="9.595701973427303"><ele>22.0</ele><time>2026-03-28T15:28:03Z</time></trkpt><trkpt lat="39.436154903117334" lon="9.595584759382435"><ele>22.0</ele><time>2026-03-28T15:28:04Z</time></trkpt><trkpt lat="39.43600176389256" lon="9.595457115557666"><ele>22.0</ele><time>2026-03-28T15:28:05Z</time></trkpt><trkpt lat="39.43584742511234" lon="9.595324806987838"><ele>22.0</ele><time>2026-03-28T15:28:06Z</time></trkpt><trkpt lat="39.43569215009413" lon="9.595195448031461"><ele>22.0</ele><time>2026-03-28T15:28:07Z</time></trkpt><trkpt lat="39.43552977658991" lon="9.595062669956194"><ele>22.0</ele><time>2026-03-28T15:28:08Z</time></trkpt><trkpt lat="39.43536946265648" lon="9.594928032611675"><ele>22.0</ele><time>2026-03-28T15:28:09Z</time></trkpt><trkpt lat="39.43521373972114" lon="9.594787343380183"><ele>22.666666666666664</ele><time>2026-03-28T15:28:10Z</time></trkpt><trkpt lat="39.435055584548955" lon="9.594643686755088"><ele>23.333333333333332</ele><time>2026-03-28T15:28:11Z</time></trkpt><trkpt lat="39.434902022437896" lon="9.594500008152185"><ele>24.0</ele><time>2026-03-28T15:28:12Z</time></trkpt><trkpt lat="39.43476022311474" lon="9.594342344177395"><ele>24.0</ele><time>2026-03-28T15:28:13Z</time></trkpt><trkpt lat="39.43464043545634" lon="9.594161258126276"><ele>24.0</ele><time>2026-03-28T15:28:14Z</time></trkpt><trkpt lat="39.43454218764832" lon="9.593956184695344"><ele>24.0</ele><time>2026-03-28T15:28:15Z</time></trkpt><trkpt lat="39.43446716376648" lon="9.593734654039547"><ele>22.0</ele><time>2026-03-28T15:28:16Z</time></trkpt><trkpt lat="39.434419337977836" lon="9.593496811789539"><ele>20.0</ele><time>2026-03-28T15:28:17Z</time></trkpt><trkpt lat="39.43439081721264" lon="9.593242597289589"><ele>18.0</ele><time>2026-03-28T15:28:18Z</time></trkpt><trkpt lat="39.43437108019451" lon="9.592983397473729"><ele>17.666666666666668</ele><time>2026-03-28T15:28:19Z</time></trkpt><trkpt lat="39.434347701492705" lon="9.592721565772301"><ele>17.333333333333336</ele><time>2026-03-28T15:28:20Z</time></trkpt><trkpt lat="39.43432066620729" lon="9.59243847887693"><ele>17.0</ele><time>2026-03-28T15:28:21Z</time></trkpt><trkpt lat="39.4342931438889" lon="9.592168295802342"><ele>17.0</ele><time>2026-03-28T15:28:22Z</time></trkpt><trkpt lat="39.43426729988826" lon="9.591918763173618"><ele>17.0</ele><time>2026-03-28T15:28:23Z</time></trkpt><trkpt lat="39.43424551274035" lon="9.59168051518718"><ele>17.0</ele><time>2026-03-28T15:28:24Z</time></trkpt><trkpt lat="39.434227830644986" lon="9.591445062068274"><ele>17.0</ele><time>2026-03-28T15:28:25Z</time></trkpt><trkpt lat="39.434210498856366" lon="9.591202437538934"><ele>17.0</ele><time>2026-03-28T15:28:26Z</time></trkpt><trkpt lat="39.434195404017665" lon="9.590972901766111"><ele>17.0</ele><time>2026-03-28T15:28:27Z</time></trkpt><trkpt lat="39.43418532705866" lon="9.590754880199242"><ele>16.333333333333336</ele><time>2026-03-28T15:28:28Z</time></trkpt><trkpt lat="39.434197562696134" lon="9.590548623583611"><ele>15.666666666666668</ele><time>2026-03-28T15:28:29Z</time></trkpt><trkpt lat="39.43424865584524" lon="9.590359171481962"><ele>15.0</ele><time>2026-03-28T15:28:30Z</time></trkpt><trkpt lat="39.43433819730998" lon="9.590199393747538"><ele>15.0</ele><time>2026-03-28T15:28:31Z</time></trkpt><trkpt lat="39.43445084841295" lon="9.590051576384113"><ele>15.0</ele><time>2026-03-28T15:28:32Z</time></trkpt><trkpt lat="39.43459336972363" lon="9.589929456929765"><ele>15.0</ele><time>2026-03-28T15:28:33Z</time></trkpt><trkpt lat="39.43476086190194" lon="9.589854053268969"><ele>17.333333333333332</ele><time>2026-03-28T15:28:34Z</time></trkpt><trkpt lat="39.43493043246039" lon="9.589789452543487"><ele>19.666666666666664</ele><time>2026-03-28T15:28:35Z</time></trkpt><trkpt lat="39.4351048313945" lon="9.589727290893073"><ele>22.0</ele><time>2026-03-28T15:28:36Z</time></trkpt><trkpt lat="39.43527230580795" lon="9.589632035609936"><ele>20.0</ele><time>2026-03-28T15:28:37Z</time></trkpt><trkpt lat="39.435425451635986" lon="9.589500564222963"><ele>18.0</ele><time>2026-03-28T15:28:38Z</time></trkpt><trkpt lat="39.4355682212961" lon="9.589349428286338"><ele>16.0</ele><time>2026-03-28T15:28:39Z</time></trkpt><trkpt lat="39.435708960422495" lon="9.589194164199085"><ele>16.0</ele><time>2026-03-28T15:28:40Z</time></trkpt><trkpt lat="39.435844132583036" lon="9.58905078285492"><ele>16.0</ele><time>2026-03-28T15:28:41Z</time></trkpt><trkpt lat="39.43597039242088" lon="9.588908636600676"><ele>16.0</ele><time>2026-03-28T15:28:42Z</time></trkpt><trkpt lat="39.43607922285865" lon="9.588755943898358"><ele>14.666666666666666</ele><time>2026-03-28T15:28:43Z</time></trkpt><trkpt lat="39.436155822645595" lon="9.588579612289724"><ele>13.333333333333332</ele><time>2026-03-28T15:28:44Z</time></trkpt><trkpt lat="39.43620264658192" lon="9.58837985339467"><ele>12.0</ele><time>2026-03-28T15:28:45Z</time></trkpt><trkpt lat="39.43623996479617" lon="9.588176667147241"><ele>12.0</ele><time>2026-03-28T15:28:46Z</time></trkpt><trkpt lat="39.43627739770103" lon="9.587962946174732"><ele>12.0</ele><time>2026-03-28T15:28:47Z</time></trkpt><trkpt lat="39.43628253639096" lon="9.58774304213028"><ele>12.0</ele><time>2026-03-28T15:28:48Z</time></trkpt><trkpt lat="39.43624966038146" lon="9.587523052304332"><ele>12.666666666666668</ele><time>2026-03-28T15:28:49Z</time></trkpt><trkpt lat="39.43617238697492" lon="9.587334272913111"><ele>13.333333333333334</ele><time>2026-03-28T15:28:50Z</time></trkpt><trkpt lat="39.43605351587263" lon="9.58717705472193"><ele>14.0</ele><time>2026-03-28T15:28:51Z</time></trkpt><trkpt lat="39.43591301145924" lon="9.587031950260148"><ele>15.333333333333334</ele><time>2026-03-28T15:28:52Z</time></trkpt><trkpt lat="39.435776280184484" lon="9.586878333890272"><ele>16.666666666666668</ele><time>2026-03-28T15:28:53Z</time></trkpt><trkpt lat="39.43564447596201" lon="9.58671473611372"><ele>18.0</ele><time>2026-03-28T15:28:54Z</time></trkpt><trkpt lat="39.43551721002585" lon="9.58654181894573"><ele>16.666666666666668</ele><time>2026-03-28T15:28:55Z</time></trkpt><trkpt lat="39.43538967974811" lon="9.586371536752985"><ele>15.333333333333334</ele><time>2026-03-28T15:28:56Z</time></trkpt><trkpt lat="39.43526613031374" lon="9.586211167776007"><ele>14.0</ele><time>2026-03-28T15:28:57Z</time></trkpt><trkpt lat="39.43514589741483" lon="9.586055381652741"><ele>14.0</ele><time>2026-03-28T15:28:58Z</time></trkpt><trkpt lat="39.43503040528977" lon="9.585911399597906"><ele>14.0</ele><time>2026-03-28T15:28:59Z</time></trkpt><trkpt lat="39.434933060528145" lon="9.585784383566613"><ele>14.0</ele><time>2026-03-28T15:29:00Z</time></trkpt><trkpt lat="39.43484736585038" lon="9.585666269055322"><ele>14.0</ele><time>2026-03-28T15:29:01Z</time></trkpt><trkpt lat="39.43476815321602" lon="9.585554274529454"><ele>14.000000000000002</ele><time>2026-03-28T15:29:02Z</time></trkpt><trkpt lat="39.43471183301855" lon="9.58543712747148"><ele>14.0</ele><time>2026-03-28T15:29:03Z</time></trkpt><trkpt lat="39.43466198626525" lon="9.585330257359312"><ele>14.0</ele><time>2026-03-28T15:29:04Z</time></trkpt><trkpt lat="39.434636970366974" lon="9.585224451716105"><ele>14.0</ele><time>2026-03-28T15:29:05Z</time></trkpt><trkpt lat="39.43462676792672" lon="9.58512231549382"><ele>14.000000000000002</ele><time>2026-03-28T15:29:06Z</time></trkpt><trkpt lat="39.4346313200009" lon="9.58502336748882"><ele>14.0</ele><time>2026-03-28T15:29:07Z</time></trkpt><trkpt lat="39.43464556834968" lon="9.584919434112408"><ele>13.799999999999999</ele><time>2026-03-28T15:29:08Z</time></trkpt><trkpt lat="39.43467262005581" lon="9.584789726575991"><ele>13.599999999999998</ele><time>2026-03-28T15:29:09Z</time></trkpt><trkpt lat="39.43471111360372" lon="9.584660250124545"><ele>13.4</ele><time>2026-03-28T15:29:10Z</time></trkpt><trkpt lat="39.43477771885136" lon="9.58454904966749"><ele>13.2</ele><time>2026-03-28T15:29:11Z</time></trkpt><trkpt lat="39.434833269578334" lon="9.584433380880142"><ele>13.0</ele><time>2026-03-28T15:29:12Z</time></trkpt><trkpt lat="39.43488015136019" lon="9.58431043786601"><ele>13.0</ele><time>2026-03-28T15:29:13Z</time></trkpt><trkpt lat="39.43493905889897" lon="9.58419816473621"><ele>13.0</ele><time>2026-03-28T15:29:14Z</time></trkpt><trkpt lat="39.434998871224536" lon="9.584086409445371"><ele>13.0</ele><time>2026-03-28T15:29:15Z</time></trkpt><trkpt lat="39.43505172247119" lon="9.583974170046679"><ele>13.0</ele><time>2026-03-28T15:29:16Z</time></trkpt><trkpt lat="39.435103451902755" lon="9.58387174946169"><ele>13.0</ele><time>2026-03-28T15:29:17Z</time></trkpt><trkpt lat="39.43515231983073" lon="9.583775135077513"><ele>11.75</ele><time>2026-03-28T15:29:18Z</time></trkpt><trkpt lat="39.43520573834261" lon="9.583675788056718"><ele>10.5</ele><time>2026-03-28T15:29:19Z</time></trkpt><trkpt lat="39.43526647472868" lon="9.583554253574059"><ele>9.25</ele><time>2026-03-28T15:29:20Z</time></trkpt><trkpt lat="39.435336656183345" lon="9.58341142690584"><ele>8.0</ele><time>2026-03-28T15:29:21Z</time></trkpt><trkpt lat="39.435430164336985" lon="9.583263825665234"><ele>9.333333333333332</ele><time>2026-03-28T15:29:22Z</time></trkpt><trkpt lat="39.43551664206596" lon="9.583092439356069"><ele>10.666666666666666</ele><time>2026-03-28T15:29:23Z</time></trkpt><trkpt lat="39.43560116246101" lon="9.58292475122676"><ele>12.0</ele><time>2026-03-28T15:29:24Z</time></trkpt><trkpt lat="39.43566861323767" lon="9.582753347945571"><ele>12.0</ele><time>2026-03-28T15:29:25Z</time></trkpt><trkpt lat="39.43575555863672" lon="9.58260485264341"><ele>12.0</ele><time>2026-03-28T15:29:26Z</time></trkpt><trkpt lat="39.4358346307638" lon="9.582459837771307"><ele>12.0</ele><time>2026-03-28T15:29:27Z</time></trkpt><trkpt lat="39.43590969673298" lon="9.582312786110347"><ele>12.0</ele><time>2026-03-28T15:29:28Z</time></trkpt><trkpt lat="39.435989149963625" lon="9.582170672969202"><ele>12.0</ele><time>2026-03-28T15:29:29Z</time></trkpt><trkpt lat="39.43607990961205" lon="9.582046046260684"><ele>12.0</ele><time>2026-03-28T15:29:30Z</time></trkpt><trkpt lat="39.43619277696784" lon="9.58195816001025"><ele>12.0</ele><time>2026-03-28T15:29:31Z</time></trkpt><trkpt lat="39.4362870968353" lon="9.581842161150075"><ele>12.0</ele><time>2026-03-28T15:29:32Z</time></trkpt><trkpt lat="39.43639108274451" lon="9.5817450006238"><ele>11.75</ele><time>2026-03-28T15:29:33Z</time></trkpt><trkpt lat="39.436494380395466" lon="9.581642653139077"><ele>11.5</ele><time>2026-03-28T15:29:34Z</time></trkpt><trkpt lat="39.43659766986638" lon="9.581540590282343"><ele>11.25</ele><time>2026-03-28T15:29:35Z</time></trkpt><trkpt lat="39.43669926599695" lon="9.581439346800213"><ele>11.0</ele><time>2026-03-28T15:29:36Z</time></trkpt><trkpt lat="39.43680192719083" lon="9.581345274679832"><ele>11.0</ele><time>2026-03-28T15:29:37Z</time></trkpt><trkpt lat="39.436895022125896" lon="9.581240859888338"><ele>11.0</ele><time>2026-03-28T15:29:38Z</time></trkpt><trkpt lat="39.43699753572088" lon="9.58114789118744"><ele>11.0</ele><time>2026-03-28T15:29:39Z</time></trkpt><trkpt lat="39.43709218000718" lon="9.58105142683634"><ele>11.0</ele><time>2026-03-28T15:29:40Z</time></trkpt><trkpt lat="39.43718562020581" lon="9.580955957358988"><ele>10.75</ele><time>2026-03-28T15:29:41Z</time></trkpt><trkpt lat="39.437278310643286" lon="9.580857571958543"><ele>10.5</ele><time>2026-03-28T15:29:42Z</time></trkpt><trkpt lat="39.43737270759691" lon="9.58076691508519"><ele>10.25</ele><time>2026-03-28T15:29:43Z</time></trkpt><trkpt lat="39.437464500179836" lon="9.58067354087436"><ele>10.0</ele><time>2026-03-28T15:29:44Z</time></trkpt><trkpt lat="39.43755248532063" lon="9.580576581691746"><ele>10.0</ele><time>2026-03-28T15:29:45Z</time></trkpt><trkpt lat="39.43763173730453" lon="9.580470678266066"><ele>10.0</ele><time>2026-03-28T15:29:46Z</time></trkpt><trkpt lat="39.4376912420201" lon="9.580343820384666"><ele>10.0</ele><time>2026-03-28T15:29:47Z</time></trkpt><trkpt lat="39.43775436703142" lon="9.580216477454416"><ele>10.0</ele><time>2026-03-28T15:29:48Z</time></trkpt><trkpt lat="39.437811150192964" lon="9.58008985039973"><ele>10.2</ele><time>2026-03-28T15:29:49Z</time></trkpt><trkpt lat="39.437862709074004" lon="9.579963203070529"><ele>10.4</ele><time>2026-03-28T15:29:50Z</time></trkpt><trkpt lat="39.4379160645978" lon="9.579842602637898"><ele>10.600000000000001</ele><time>2026-03-28T15:29:51Z</time></trkpt><trkpt lat="39.437965623249376" lon="9.579722209616833"><ele>10.8</ele><time>2026-03-28T15:29:52Z</time></trkpt><trkpt lat="39.43801386635665" lon="9.579605199641824"><ele>11.0</ele><time>2026-03-28T15:29:53Z</time></trkpt><trkpt lat="39.43805168298841" lon="9.579478086258296"><ele>10.600000000000001</ele><time>2026-03-28T15:29:54Z</time></trkpt><trkpt lat="39.43809436306506" lon="9.579358785655831"><ele>10.200000000000001</ele><time>2026-03-28T15:29:55Z</time></trkpt><trkpt lat="39.43814379629083" lon="9.579235764874477"><ele>9.8</ele><time>2026-03-28T15:29:56Z</time></trkpt><trkpt lat="39.43819423794709" lon="9.579106414659675"><ele>9.4</ele><time>2026-03-28T15:29:57Z</time></trkpt><trkpt lat="39.438244844228066" lon="9.578973910544846"><ele>9.0</ele><time>2026-03-28T15:29:58Z</time></trkpt><trkpt lat="39.438294399555225" lon="9.578833484853766"><ele>9.0</ele><time>2026-03-28T15:29:59Z</time></trkpt><trkpt lat="39.438352060965464" lon="9.578701030292203"><ele>9.0</ele><time>2026-03-28T15:30:00Z</time></trkpt><trkpt lat="39.4384046698754" lon="9.57856010840065"><ele>9.0</ele><time>2026-03-28T15:30:01Z</time></trkpt><trkpt lat="39.43845722886879" lon="9.578421182047732"><ele>9.0</ele><time>2026-03-28T15:30:02Z</time></trkpt><trkpt lat="39.438509707999806" lon="9.57829095744096"><ele>9.0</ele><time>2026-03-28T15:30:03Z</time></trkpt><trkpt lat="39.4385590807582" lon="9.578162339632946"><ele>9.0</ele><time>2026-03-28T15:30:04Z</time></trkpt><trkpt lat="39.43860455080035" lon="9.57804036608505"><ele>9.0</ele><time>2026-03-28T15:30:05Z</time></trkpt><trkpt lat="39.438645783021734" lon="9.577926554992555"><ele>9.0</ele><time>2026-03-28T15:30:06Z</time></trkpt><trkpt lat="39.438681466940324" lon="9.577816436944456"><ele>9.0</ele><time>2026-03-28T15:30:07Z</time></trkpt><trkpt lat="39.43871954349329" lon="9.577716636828164"><ele>9.0</ele><time>2026-03-28T15:30:08Z</time></trkpt><trkpt lat="39.43874950593926" lon="9.57762821182218"><ele>9.0</ele><time>2026-03-28T15:30:09Z</time></trkpt><trkpt lat="39.438781190514575" lon="9.57755063951584"><ele>9.0</ele><time>2026-03-28T15:30:10Z</time></trkpt><trkpt lat="39.43881629045166" lon="9.577469414705627"><ele>9.0</ele><time>2026-03-28T15:30:11Z</time></trkpt><trkpt lat="39.43885277041079" lon="9.57737465143647"><ele>9.0</ele><time>2026-03-28T15:30:12Z</time></trkpt><trkpt lat="39.43889636490312" lon="9.57726867256593"><ele>9.0</ele><time>2026-03-28T15:30:13Z</time></trkpt><trkpt lat="39.438941606725436" lon="9.577152188576697"><ele>9.6</ele><time>2026-03-28T15:30:14Z</time></trkpt><trkpt lat="39.43899516426601" lon="9.577045875902853"><ele>10.2</ele><time>2026-03-28T15:30:15Z</time></trkpt><trkpt lat="39.439046075449205" lon="9.576932135097602"><ele>10.799999999999999</ele><time>2026-03-28T15:30:16Z</time></trkpt><trkpt lat="39.43909068302265" lon="9.576808490354443"><ele>11.4</ele><time>2026-03-28T15:30:17Z</time></trkpt><trkpt lat="39.43911764180877" lon="9.576680850753078"><ele>12.0</ele><time>2026-03-28T15:30:18Z</time></trkpt><trkpt lat="39.4391588787306" lon="9.576558967099427"><ele>12.0</ele><time>2026-03-28T15:30:19Z</time></trkpt><trkpt lat="39.43920136243321" lon="9.576445053027381"><ele>12.0</ele><time>2026-03-28T15:30:20Z</time></trkpt><trkpt lat="39.43923823183716" lon="9.576323360709761"><ele>12.0</ele><time>2026-03-28T15:30:21Z</time></trkpt><trkpt lat="39.439280193608674" lon="9.576204082867203"><ele>12.0</ele><time>2026-03-28T15:30:22Z</time></trkpt><trkpt lat="39.43931630800897" lon="9.576086594659992"><ele>12.0</ele><time>2026-03-28T15:30:23Z</time></trkpt><trkpt lat="39.43935328635452" lon="9.575978522016428"><ele>11.833333333333334</ele><time>2026-03-28T15:30:24Z</time></trkpt><trkpt lat="39.43938380358434" lon="9.575878426340951"><ele>11.666666666666666</ele><time>2026-03-28T15:30:25Z</time></trkpt><trkpt lat="39.439413854322446" lon="9.575784143628256"><ele>11.5</ele><time>2026-03-28T15:30:26Z</time></trkpt><trkpt lat="39.43943703539042" lon="9.575690075960287"><ele>11.333333333333332</ele><time>2026-03-28T15:30:27Z</time></trkpt><trkpt lat="39.43945769951479" lon="9.575589100917837"><ele>11.166666666666666</ele><time>2026-03-28T15:30:28Z</time></trkpt><trkpt lat="39.43947281343618" lon="9.575490711556839"><ele>11.0</ele><time>2026-03-28T15:30:29Z</time></trkpt><trkpt lat="39.43946707838812" lon="9.575385181680405"><ele>11.0</ele><time>2026-03-28T15:30:30Z</time></trkpt><trkpt lat="39.43944298822875" lon="9.575272342649605"><ele>11.0</ele><time>2026-03-28T15:30:31Z</time></trkpt><trkpt lat="39.439391474840875" lon="9.575161938665726"><ele>11.0</ele><time>2026-03-28T15:30:32Z</time></trkpt><trkpt lat="39.439344435913775" lon="9.575055383023663"><ele>11.0</ele><time>2026-03-28T15:30:33Z</time></trkpt><trkpt lat="39.43928997429368" lon="9.574933220763064"><ele>11.0</ele><time>2026-03-28T15:30:34Z</time></trkpt><trkpt lat="39.43923941889706" lon="9.57481278549318"><ele>11.0</ele><time>2026-03-28T15:30:35Z</time></trkpt><trkpt lat="39.439197341664794" lon="9.574686663070471"><ele>11.0</ele><time>2026-03-28T15:30:36Z</time></trkpt><trkpt lat="39.43916639081459" lon="9.574561732744854"><ele>11.0</ele><time>2026-03-28T15:30:37Z</time></trkpt><trkpt lat="39.43916605061861" lon="9.574434603992517"><ele>11.0</ele><time>2026-03-28T15:30:38Z</time></trkpt><trkpt lat="39.43918102402832" lon="9.574318995260896"><ele>11.0</ele><time>2026-03-28T15:30:39Z</time></trkpt><trkpt lat="39.43921986707855" lon="9.574217787677023"><ele>11.0</ele><time>2026-03-28T15:30:40Z</time></trkpt><trkpt lat="39.43926318206913" lon="9.574119402556546"><ele>11.0</ele><time>2026-03-28T15:30:41Z</time></trkpt><trkpt lat="39.43929952322332" lon="9.574024881543673"><ele>11.0</ele><time>2026-03-28T15:30:42Z</time></trkpt><trkpt lat="39.43933156300935" lon="9.573929310725083"><ele>11.0</ele><time>2026-03-28T15:30:43Z</time></trkpt><trkpt lat="39.439361468682534" lon="9.573840642565475"><ele>11.0</ele><time>2026-03-28T15:30:44Z</time></trkpt><trkpt lat="39.43939021988102" lon="9.573760746792603"><ele>11.0</ele><time>2026-03-28T15:30:45Z</time></trkpt><trkpt lat="39.43944161360728" lon="9.573619360585074"><ele>10.75</ele><time>2026-03-28T15:30:47Z</time></trkpt><trkpt lat="39.43948638675886" lon="9.573476964308005"><ele>10.5</ele><time>2026-03-28T15:30:49Z</time></trkpt><trkpt lat="39.4395295577288" lon="9.573351584100045"><ele>10.25</ele><time>2026-03-28T15:30:51Z</time></trkpt><trkpt lat="39.43959499121467" lon="9.573251933703975"><ele>10.0</ele><time>2026-03-28T15:30:53Z</time></trkpt><trkpt lat="39.43963224666103" lon="9.573095263873197"><ele>10.0</ele><time>2026-03-28T15:30:55Z</time></trkpt><trkpt lat="39.439619013283625" lon="9.572997791250689"><ele>10.0</ele><time>2026-03-28T15:30:56Z</time></trkpt><trkpt lat="39.43959531567782" lon="9.57289260595879"><ele>10.0</ele><time>2026-03-28T15:30:57Z</time></trkpt><trkpt lat="39.439569119751546" lon="9.57278240259358"><ele>10.0</ele><time>2026-03-28T15:30:58Z</time></trkpt><trkpt lat="39.43953625448312" lon="9.572668005439873"><ele>10.0</ele><time>2026-03-28T15:30:59Z</time></trkpt><trkpt lat="39.439492751624705" lon="9.572548141203654"><ele>10.0</ele><time>2026-03-28T15:31:00Z</time></trkpt><trkpt lat="39.43945165325898" lon="9.572430624566062"><ele>10.2</ele><time>2026-03-28T15:31:01Z</time></trkpt><trkpt lat="39.43942022094213" lon="9.572321607563056"><ele>10.4</ele><time>2026-03-28T15:31:02Z</time></trkpt><trkpt lat="39.43938478838631" lon="9.5722210919339"><ele>10.600000000000001</ele><time>2026-03-28T15:31:03Z</time></trkpt><trkpt lat="39.439346565025524" lon="9.572115886652519"><ele>10.8</ele><time>2026-03-28T15:31:04Z</time></trkpt><trkpt lat="39.439305969877864" lon="9.572005646825424"><ele>11.0</ele><time>2026-03-28T15:31:05Z</time></trkpt><trkpt lat="39.439263747594445" lon="9.571888927729574"><ele>11.200000000000001</ele><time>2026-03-28T15:31:06Z</time></trkpt><trkpt lat="39.43922104506638" lon="9.571769826298276"><ele>11.4</ele><time>2026-03-28T15:31:07Z</time></trkpt><trkpt lat="39.43917665892742" lon="9.571646970888553"><ele>11.6</ele><time>2026-03-28T15:31:08Z</time></trkpt><trkpt lat="39.43913262733958" lon="9.571518979240377"><ele>11.8</ele><time>2026-03-28T15:31:09Z</time></trkpt><trkpt lat="39.43909197549641" lon="9.571385111968352"><ele>12.0</ele><time>2026-03-28T15:31:10Z</time></trkpt><trkpt lat="39.43904790003" lon="9.57124968374962"><ele>12.0</ele><time>2026-03-28T15:31:11Z</time></trkpt><trkpt lat="39.439001029996575" lon="9.571113185951274"><ele>12.0</ele><time>2026-03-28T15:31:12Z</time></trkpt><trkpt lat="39.438950614256136" lon="9.570975860710945"><ele>12.0</ele><time>2026-03-28T15:31:13Z</time></trkpt><trkpt lat="39.43890064761124" lon="9.57083882675816"><ele>12.0</ele><time>2026-03-28T15:31:14Z</time></trkpt><trkpt lat="39.43885316174064" lon="9.570702716179749"><ele>12.0</ele><time>2026-03-28T15:31:15Z</time></trkpt><trkpt lat="39.43880432476866" lon="9.570569900254437"><ele>12.0</ele><time>2026-03-28T15:31:16Z</time></trkpt><trkpt lat="39.43875754443154" lon="9.570437124888482"><ele>12.0</ele><time>2026-03-28T15:31:17Z</time></trkpt><trkpt lat="39.43871267526563" lon="9.570302715217217"><ele>12.0</ele><time>2026-03-28T15:31:18Z</time></trkpt><trkpt lat="39.43866676384439" lon="9.570171800094432"><ele>11.75</ele><time>2026-03-28T15:31:19Z</time></trkpt><trkpt lat="39.43861917493433" lon="9.570038864997368"><ele>11.5</ele><time>2026-03-28T15:31:20Z</time></trkpt><trkpt lat="39.43856838673977" lon="9.569900050922788"><ele>11.25</ele><time>2026-03-28T15:31:21Z</time></trkpt><trkpt lat="39.43851638069552" lon="9.569755591266372"><ele>11.0</ele><time>2026-03-28T15:31:22Z</time></trkpt><trkpt lat="39.43846518947496" lon="9.569608686498212"><ele>11.0</ele><time>2026-03-28T15:31:23Z</time></trkpt><trkpt lat="39.438413104010635" lon="9.56945873955532"><ele>11.0</ele><time>2026-03-28T15:31:24Z</time></trkpt><trkpt lat="39.4383628111516" lon="9.56931602334271"><ele>11.0</ele><time>2026-03-28T15:31:25Z</time></trkpt><trkpt lat="39.43831071432791" lon="9.569170724315349"><ele>11.0</ele><time>2026-03-28T15:31:26Z</time></trkpt><trkpt lat="39.438259583652595" lon="9.569020169751095"><ele>11.0</ele><time>2026-03-28T15:31:27Z</time></trkpt><trkpt lat="39.43820869807733" lon="9.568865832371069"><ele>11.0</ele><time>2026-03-28T15:31:28Z</time></trkpt><trkpt lat="39.43815536423267" lon="9.5687094515475"><ele>11.0</ele><time>2026-03-28T15:31:29Z</time></trkpt><trkpt lat="39.43809924434381" lon="9.568552805005517"><ele>11.0</ele><time>2026-03-28T15:31:30Z</time></trkpt><trkpt lat="39.43804496308292" lon="9.568390062760798"><ele>11.25</ele><time>2026-03-28T15:31:31Z</time></trkpt><trkpt lat="39.43798692481104" lon="9.568229079390068"><ele>11.5</ele><time>2026-03-28T15:31:32Z</time></trkpt><trkpt lat="39.4379269379792" lon="9.568069764291282"><ele>11.75</ele><time>2026-03-28T15:31:33Z</time></trkpt><trkpt lat="39.437859871802" lon="9.567910312266186"><ele>12.0</ele><time>2026-03-28T15:31:34Z</time></trkpt><trkpt lat="39.437786036581386" lon="9.567758069294912"><ele>12.75</ele><time>2026-03-28T15:31:35Z</time></trkpt><trkpt lat="39.43769639077949" lon="9.567616448198926"><ele>13.5</ele><time>2026-03-28T15:31:36Z</time></trkpt><trkpt lat="39.43759244048913" lon="9.567489123833742"><ele>14.25</ele><time>2026-03-28T15:31:37Z</time></trkpt><trkpt lat="39.437472789345264" lon="9.567381694372878"><ele>15.0</ele><time>2026-03-28T15:31:38Z</time></trkpt><trkpt lat="39.437343525406995" lon="9.567295012520919"><ele>15.0</ele><time>2026-03-28T15:31:39Z</time></trkpt><trkpt lat="39.43720478570856" lon="9.567221578420904"><ele>15.0</ele><time>2026-03-28T15:31:40Z</time></trkpt><trkpt lat="39.43706169931043" lon="9.567155294893174"><ele>15.0</ele><time>2026-03-28T15:31:41Z</time></trkpt><trkpt lat="39.43692045937862" lon="9.56709308727042"><ele>14.0</ele><time>2026-03-28T15:31:42Z</time></trkpt><trkpt lat="39.43677324413495" lon="9.567027419420757"><ele>13.0</ele><time>2026-03-28T15:31:43Z</time></trkpt><trkpt lat="39.43662243457543" lon="9.566962593169732"><ele>12.0</ele><time>2026-03-28T15:31:44Z</time></trkpt><trkpt lat="39.43646659246043" lon="9.566897677994024"><ele>12.0</ele><time>2026-03-28T15:31:45Z</time></trkpt><trkpt lat="39.43630625485801" lon="9.566827108873063"><ele>12.0</ele><time>2026-03-28T15:31:46Z</time></trkpt><trkpt lat="39.43614508028268" lon="9.566751942807308"><ele>12.0</ele><time>2026-03-28T15:31:47Z</time></trkpt><trkpt lat="39.43598627570291" lon="9.566676289440101"><ele>11.0</ele><time>2026-03-28T15:31:48Z</time></trkpt><trkpt lat="39.435820926774895" lon="9.566596803309789"><ele>10.0</ele><time>2026-03-28T15:31:49Z</time></trkpt><trkpt lat="39.43565533962845" lon="9.566519158933543"><ele>9.0</ele><time>2026-03-28T15:31:50Z</time></trkpt><trkpt lat="39.435494183408615" lon="9.566446481097353"><ele>9.0</ele><time>2026-03-28T15:31:51Z</time></trkpt><trkpt lat="39.435327231878" lon="9.56637057563367"><ele>9.0</ele><time>2026-03-28T15:31:52Z</time></trkpt><trkpt lat="39.43515871152969" lon="9.566294960216132"><ele>9.0</ele><time>2026-03-28T15:31:53Z</time></trkpt><trkpt lat="39.434986905867866" lon="9.56621753969677"><ele>8.666666666666666</ele><time>2026-03-28T15:31:54Z</time></trkpt><trkpt lat="39.43481249157144" lon="9.566141290009485"><ele>8.333333333333332</ele><time>2026-03-28T15:31:55Z</time></trkpt><trkpt lat="39.434634752163795" lon="9.566065509630437"><ele>8.0</ele><time>2026-03-28T15:31:56Z</time></trkpt><trkpt lat="39.434455131029054" lon="9.565985734984464"><ele>9.0</ele><time>2026-03-28T15:31:57Z</time></trkpt><trkpt lat="39.434279031387824" lon="9.565903559354581"><ele>10.0</ele><time>2026-03-28T15:31:58Z</time></trkpt><trkpt lat="39.434109183217885" lon="9.565826309799085"><ele>11.0</ele><time>2026-03-28T15:31:59Z</time></trkpt><trkpt lat="39.433947891103486" lon="9.565754839797771"><ele>10.666666666666666</ele><time>2026-03-28T15:32:00Z</time></trkpt><trkpt lat="39.43379424177568" lon="9.565684946932798"><ele>10.333333333333334</ele><time>2026-03-28T15:32:01Z</time></trkpt><trkpt lat="39.43364941142492" lon="9.565617633004463"><ele>10.0</ele><time>2026-03-28T15:32:02Z</time></trkpt><trkpt lat="39.43351281054949" lon="9.565554712829417"><ele>10.0</ele><time>2026-03-28T15:32:03Z</time></trkpt><trkpt lat="39.43337659015829" lon="9.5654923444156"><ele>10.0</ele><time>2026-03-28T15:32:04Z</time></trkpt><trkpt lat="39.43324518160602" lon="9.565435704254826"><ele>10.0</ele><time>2026-03-28T15:32:05Z</time></trkpt><trkpt lat="39.43312068617258" lon="9.565378969753684"><ele>10.0</ele><time>2026-03-28T15:32:06Z</time></trkpt><trkpt lat="39.43300165470471" lon="9.565322687802741"><ele>9.2</ele><time>2026-03-28T15:32:07Z</time></trkpt><trkpt lat="39.43288914954298" lon="9.565271565608237"><ele>8.4</ele><time>2026-03-28T15:32:08Z</time></trkpt><trkpt lat="39.432782998216254" lon="9.565224896445685"><ele>7.6</ele><time>2026-03-28T15:32:09Z</time></trkpt><trkpt lat="39.432690852100826" lon="9.56518526317547"><ele>6.8</ele><time>2026-03-28T15:32:10Z</time></trkpt><trkpt lat="39.43261553829368" lon="9.565154295035867"><ele>6.0</ele><time>2026-03-28T15:32:11Z</time></trkpt><trkpt lat="39.432540764243235" lon="9.565109255846425"><ele>6.0</ele><time>2026-03-28T15:32:13Z</time></trkpt><trkpt lat="39.43246583659249" lon="9.565089312615342"><ele>6.0</ele><time>2026-03-28T15:32:19Z</time></trkpt><trkpt lat="39.43239498802837" lon="9.56504298396068"><ele>6.0</ele><time>2026-03-28T15:32:22Z</time></trkpt><trkpt lat="39.43226448346219" lon="9.565345898607903"><ele>6.0</ele><time>2026-03-28T15:32:24Z</time></trkpt><trkpt lat="39.43220552240929" lon="9.565413698568141"><ele>6.166666666666667</ele><time>2026-03-28T15:32:26Z</time></trkpt><trkpt lat="39.4321164210771" lon="9.565447407341258"><ele>6.333333333333334</ele><time>2026-03-28T15:32:28Z</time></trkpt><trkpt lat="39.43199739431103" lon="9.565431569046803"><ele>6.5</ele><time>2026-03-28T15:32:30Z</time></trkpt><trkpt lat="39.43192858507722" lon="9.565415924869662"><ele>6.666666666666667</ele><time>2026-03-28T15:32:31Z</time></trkpt><trkpt lat="39.431859770299944" lon="9.565398411912904"><ele>6.833333333333334</ele><time>2026-03-28T15:32:32Z</time></trkpt><trkpt lat="39.43179793089395" lon="9.56538261047188"><ele>7.0</ele><time>2026-03-28T15:32:33Z</time></trkpt><trkpt lat="39.43168329509668" lon="9.565348293241886"><ele>7.000000000000001</ele><time>2026-03-28T15:32:35Z</time></trkpt><trkpt lat="39.4316258995244" lon="9.565292259122057"><ele>7.0</ele><time>2026-03-28T15:32:36Z</time></trkpt><trkpt lat="39.4315784843009" lon="9.565208741132132"><ele>7.0</ele><time>2026-03-28T15:32:37Z</time></trkpt><trkpt lat="39.43153430185512" lon="9.565119049767313"><ele>7.0</ele><time>2026-03-28T15:32:38Z</time></trkpt><trkpt lat="39.431482710109655" lon="9.565040087886638"><ele>7.000000000000001</ele><time>2026-03-28T15:32:39Z</time></trkpt><trkpt lat="39.43142958670176" lon="9.564985329475704"><ele>7.0</ele><time>2026-03-28T15:32:40Z</time></trkpt><trkpt lat="39.43136464851332" lon="9.564941022248204"><ele>7.000000000000001</ele><time>2026-03-28T15:32:41Z</time></trkpt><trkpt lat="39.431289034080834" lon="9.564903124741667"><ele>7.0</ele><time>2026-03-28T15:32:42Z</time></trkpt><trkpt lat="39.431207289188684" lon="9.564867870877645"><ele>7.0</ele><time>2026-03-28T15:32:43Z</time></trkpt><trkpt lat="39.43112418783154" lon="9.564829853030142"><ele>7.0</ele><time>2026-03-28T15:32:44Z</time></trkpt><trkpt lat="39.4310397863339" lon="9.564792925468707"><ele>7.000000000000001</ele><time>2026-03-28T15:32:45Z</time></trkpt><trkpt lat="39.43095737007946" lon="9.564759732232803"><ele>7.0</ele><time>2026-03-28T15:32:46Z</time></trkpt><trkpt lat="39.430875616264416" lon="9.56472258570215"><ele>7.0</ele><time>2026-03-28T15:32:47Z</time></trkpt><trkpt lat="39.430794899354446" lon="9.564681262548836"><ele>7.0</ele><time>2026-03-28T15:32:48Z</time></trkpt><trkpt lat="39.43071071465684" lon="9.564632305786514"><ele>7.0</ele><time>2026-03-28T15:32:49Z</time></trkpt><trkpt lat="39.430714705851294" lon="9.564279130619477"><ele>7.000000000000001</ele><time>2026-03-28T15:32:50Z</time></trkpt><trkpt lat="39.43064406138717" lon="9.564247006694533"><ele>7.0</ele><time>2026-03-28T15:32:51Z</time></trkpt><trkpt lat="39.43057350238304" lon="9.564214921627569"><ele>7.0</ele><time>2026-03-28T15:32:52Z</time></trkpt><trkpt lat="39.430509164487106" lon="9.564185665463208"><ele>7.0</ele><time>2026-03-28T15:32:53Z</time></trkpt><trkpt lat="39.43044743458477" lon="9.56415759522614"><ele>7.000000000000001</ele><time>2026-03-28T15:32:54Z</time></trkpt><trkpt lat="39.4303430480306" lon="9.564110127859385"><ele>7.0</ele><time>2026-03-28T15:32:56Z</time></trkpt><trkpt lat="39.43026092274031" lon="9.564072783301153"><ele>7.0</ele><time>2026-03-28T15:32:58Z</time></trkpt><trkpt lat="39.43017089727724" lon="9.564031846309184"><ele>6.999999999999999</ele><time>2026-03-28T15:33:00Z</time></trkpt><trkpt lat="39.43008269681862" lon="9.563991739201679"><ele>6.999999999999999</ele><time>2026-03-28T15:33:02Z</time></trkpt><trkpt lat="39.42997762663488" lon="9.563961134712466"><ele>7.0</ele><time>2026-03-28T15:33:04Z</time></trkpt><trkpt lat="39.42986992827821" lon="9.563952822847169"><ele>7.0</ele><time>2026-03-28T15:33:06Z</time></trkpt><trkpt lat="39.429788055009595" lon="9.563878395705286"><ele>7.0</ele><time>2026-03-28T15:33:08Z</time></trkpt><trkpt lat="39.42968261109004" lon="9.563810660065535"><ele>6.999999999999999</ele><time>2026-03-28T15:33:10Z</time></trkpt><trkpt lat="39.429570002651054" lon="9.563759881824618"><ele>6.999999999999999</ele><time>2026-03-28T15:33:12Z</time></trkpt><trkpt lat="39.42948233450362" lon="9.563720603625459"><ele>7.0</ele><time>2026-03-28T15:33:14Z</time></trkpt><trkpt lat="39.42941195057712" lon="9.563689069349275"><ele>7.0</ele><time>2026-03-28T15:33:17Z</time></trkpt><trkpt lat="39.429254181346174" lon="9.5641780357147"><ele>7.166666666666667</ele><time>2026-03-28T15:33:19Z</time></trkpt><trkpt lat="39.42926637117978" lon="9.564072583260357"><ele>7.333333333333334</ele><time>2026-03-28T15:33:21Z</time></trkpt><trkpt lat="39.42927994672727" lon="9.56398183174742"><ele>7.5</ele><time>2026-03-28T15:33:23Z</time></trkpt><trkpt lat="39.42928813978028" lon="9.563886713380619"><ele>7.666666666666666</ele><time>2026-03-28T15:33:25Z</time></trkpt><trkpt lat="39.42930299029022" lon="9.563793683221977"><ele>7.833333333333333</ele><time>2026-03-28T15:33:27Z</time></trkpt><trkpt lat="39.42927192875994" lon="9.563680125459912"><ele>8.0</ele><time>2026-03-28T15:33:30Z</time></trkpt><trkpt lat="39.4291727628684" lon="9.563604363344526"><ele>7.833333333333333</ele><time>2026-03-28T15:33:32Z</time></trkpt><trkpt lat="39.42910425126375" lon="9.563553318948177"><ele>7.666666666666666</ele><time>2026-03-28T15:33:33Z</time></trkpt><trkpt lat="39.429030122377696" lon="9.56352457113736"><ele>7.5</ele><time>2026-03-28T15:33:34Z</time></trkpt><trkpt lat="39.428950469408335" lon="9.563496253873458"><ele>7.333333333333334</ele><time>2026-03-28T15:33:35Z</time></trkpt><trkpt lat="39.42886432087909" lon="9.56346949627499"><ele>7.166666666666667</ele><time>2026-03-28T15:33:36Z</time></trkpt><trkpt lat="39.428766142547076" lon="9.563443997131692"><ele>7.0</ele><time>2026-03-28T15:33:37Z</time></trkpt><trkpt lat="39.42866506152179" lon="9.563444309169338"><ele>7.0</ele><time>2026-03-28T15:33:38Z</time></trkpt><trkpt lat="39.428556286206835" lon="9.563415990518507"><ele>7.0</ele><time>2026-03-28T15:33:39Z</time></trkpt><trkpt lat="39.42843673869587" lon="9.563434020014006"><ele>7.0</ele><time>2026-03-28T15:33:40Z</time></trkpt><trkpt lat="39.42830997200419" lon="9.563433520260588"><ele>7.0</ele><time>2026-03-28T15:33:41Z</time></trkpt><trkpt lat="39.42818449078412" lon="9.56344697552385"><ele>7.0</ele><time>2026-03-28T15:33:42Z</time></trkpt><trkpt lat="39.42806412800421" lon="9.563475610559653"><ele>7.0</ele><time>2026-03-28T15:33:43Z</time></trkpt><trkpt lat="39.42793955518454" lon="9.563511968658487"><ele>7.0</ele><time>2026-03-28T15:33:44Z</time></trkpt><trkpt lat="39.42781345795213" lon="9.563559725717914"><ele>7.0</ele><time>2026-03-28T15:33:45Z</time></trkpt><trkpt lat="39.427683343217524" lon="9.563616579089992"><ele>7.75</ele><time>2026-03-28T15:33:46Z</time></trkpt><trkpt lat="39.42755007324299" lon="9.563673598804153"><ele>8.5</ele><time>2026-03-28T15:33:47Z</time></trkpt><trkpt lat="39.427415205581845" lon="9.563730497685496"><ele>9.25</ele><time>2026-03-28T15:33:48Z</time></trkpt><trkpt lat="39.42728164126562" lon="9.563790503358208"><ele>10.0</ele><time>2026-03-28T15:33:49Z</time></trkpt><trkpt lat="39.42714927941394" lon="9.56384671102462"><ele>10.75</ele><time>2026-03-28T15:33:50Z</time></trkpt><trkpt lat="39.427019105119804" lon="9.563903480548259"><ele>11.5</ele><time>2026-03-28T15:33:51Z</time></trkpt><trkpt lat="39.426896189784564" lon="9.56395801389549"><ele>12.25</ele><time>2026-03-28T15:33:52Z</time></trkpt><trkpt lat="39.426779869618635" lon="9.564008227358801"><ele>13.0</ele><time>2026-03-28T15:33:53Z</time></trkpt><trkpt lat="39.42667076570706" lon="9.564053347804498"><ele>13.0</ele><time>2026-03-28T15:33:54Z</time></trkpt><trkpt lat="39.42657105601789" lon="9.564095643091756"><ele>13.0</ele><time>2026-03-28T15:33:55Z</time></trkpt><trkpt lat="39.426482715209104" lon="9.564131953552653"><ele>13.0</ele><time>2026-03-28T15:33:56Z</time></trkpt><trkpt lat="39.42640384127932" lon="9.564151776101221"><ele>13.0</ele><time>2026-03-28T15:33:57Z</time></trkpt><trkpt lat="39.42633411875392" lon="9.564137455131455"><ele>13.0</ele><time>2026-03-28T15:33:58Z</time></trkpt><trkpt lat="39.42624860686137" lon="9.564033497019135"><ele>13.25</ele><time>2026-03-28T15:34:00Z</time></trkpt><trkpt lat="39.42625199743928" lon="9.563898547303632"><ele>13.5</ele><time>2026-03-28T15:34:01Z</time></trkpt><trkpt lat="39.42626556773723" lon="9.563770834066519"><ele>13.75</ele><time>2026-03-28T15:34:02Z</time></trkpt><trkpt lat="39.42627519875484" lon="9.563620787974799"><ele>14.0</ele><time>2026-03-28T15:34:03Z</time></trkpt><trkpt lat="39.42630024358365" lon="9.563454632476859"><ele>12.75</ele><time>2026-03-28T15:34:04Z</time></trkpt><trkpt lat="39.42636093701329" lon="9.56330299786902"><ele>11.5</ele><time>2026-03-28T15:34:05Z</time></trkpt><trkpt lat="39.426449551091224" lon="9.563160543320073"><ele>10.25</ele><time>2026-03-28T15:34:06Z</time></trkpt><trkpt lat="39.4265460774538" lon="9.563010351982092"><ele>9.0</ele><time>2026-03-28T15:34:07Z</time></trkpt><trkpt lat="39.426642613836" lon="9.562864283866876"><ele>9.0</ele><time>2026-03-28T15:34:08Z</time></trkpt><trkpt lat="39.42674301989961" lon="9.562712664939866"><ele>9.0</ele><time>2026-03-28T15:34:09Z</time></trkpt><trkpt lat="39.42684534258884" lon="9.56255934118078"><ele>9.0</ele><time>2026-03-28T15:34:10Z</time></trkpt><trkpt lat="39.426953676686544" lon="9.562397940499206"><ele>9.0</ele><time>2026-03-28T15:34:11Z</time></trkpt><trkpt lat="39.427064231731265" lon="9.562232520712092"><ele>9.0</ele><time>2026-03-28T15:34:12Z</time></trkpt><trkpt lat="39.427179140954394" lon="9.562061973836904"><ele>9.0</ele><time>2026-03-28T15:34:13Z</time></trkpt><trkpt lat="39.42729351023147" lon="9.561889767213984"><ele>9.0</ele><time>2026-03-28T15:34:14Z</time></trkpt><trkpt lat="39.427410096937976" lon="9.56170798723287"><ele>9.0</ele><time>2026-03-28T15:34:15Z</time></trkpt><trkpt lat="39.42752701374297" lon="9.561526662667601"><ele>9.0</ele><time>2026-03-28T15:34:16Z</time></trkpt><trkpt lat="39.42764765634209" lon="9.561342838245533"><ele>9.0</ele><time>2026-03-28T15:34:17Z</time></trkpt><trkpt lat="39.42776416196079" lon="9.561166049142694"><ele>9.0</ele><time>2026-03-28T15:34:18Z</time></trkpt><trkpt lat="39.42788443546471" lon="9.56098372251129"><ele>9.0</ele><time>2026-03-28T15:34:19Z</time></trkpt><trkpt lat="39.42800480743519" lon="9.56079947192258"><ele>9.0</ele><time>2026-03-28T15:34:20Z</time></trkpt><trkpt lat="39.428127877676246" lon="9.560610105926795"><ele>9.0</ele><time>2026-03-28T15:34:21Z</time></trkpt><trkpt lat="39.42825241043195" lon="9.560419159288651"><ele>9.0</ele><time>2026-03-28T15:34:22Z</time></trkpt><trkpt lat="39.42837933546567" lon="9.560228330065787"><ele>8.0</ele><time>2026-03-28T15:34:23Z</time></trkpt><trkpt lat="39.428510062830206" lon="9.560036290068957"><ele>7.0</ele><time>2026-03-28T15:34:24Z</time></trkpt><trkpt lat="39.42864233750369" lon="9.559841703705853"><ele>6.0</ele><time>2026-03-28T15:34:25Z</time></trkpt><trkpt lat="39.42877667652739" lon="9.559646714595688"><ele>6.333333333333334</ele><time>2026-03-28T15:34:26Z</time></trkpt><trkpt lat="39.42891093439429" lon="9.559448909121015"><ele>6.666666666666667</ele><time>2026-03-28T15:34:27Z</time></trkpt><trkpt lat="39.42904525253255" lon="9.559247368445472"><ele>7.0</ele><time>2026-03-28T15:34:28Z</time></trkpt><trkpt lat="39.429177911411244" lon="9.55904118190727"><ele>7.0</ele><time>2026-03-28T15:34:29Z</time></trkpt><trkpt lat="39.42930893851973" lon="9.558828335233635"><ele>7.0</ele><time>2026-03-28T15:34:30Z</time></trkpt><trkpt lat="39.429438932942894" lon="9.55861986714438"><ele>7.0</ele><time>2026-03-28T15:34:31Z</time></trkpt><trkpt lat="39.42957105773169" lon="9.558412164104569"><ele>7.666666666666667</ele><time>2026-03-28T15:34:32Z</time></trkpt><trkpt lat="39.429704337503615" lon="9.55821182683136"><ele>8.333333333333334</ele><time>2026-03-28T15:34:33Z</time></trkpt><trkpt lat="39.42983773113331" lon="9.558007201634755"><ele>9.0</ele><time>2026-03-28T15:34:34Z</time></trkpt><trkpt lat="39.42997153295027" lon="9.557799239572189"><ele>9.333333333333334</ele><time>2026-03-28T15:34:35Z</time></trkpt><trkpt lat="39.430106538984454" lon="9.557589656136177"><ele>9.666666666666668</ele><time>2026-03-28T15:34:36Z</time></trkpt><trkpt lat="39.430245442345445" lon="9.557384119737769"><ele>10.0</ele><time>2026-03-28T15:34:37Z</time></trkpt><trkpt lat="39.43038776970258" lon="9.55717210710088"><ele>9.666666666666668</ele><time>2026-03-28T15:34:38Z</time></trkpt><trkpt lat="39.43052812221496" lon="9.556960976116311"><ele>9.333333333333334</ele><time>2026-03-28T15:34:39Z</time></trkpt><trkpt lat="39.43066585113542" lon="9.556745538163728"><ele>9.0</ele><time>2026-03-28T15:34:40Z</time></trkpt><trkpt lat="39.43080723720454" lon="9.556522777574733"><ele>9.0</ele><time>2026-03-28T15:34:41Z</time></trkpt><trkpt lat="39.43094713654173" lon="9.55630421961021"><ele>9.0</ele><time>2026-03-28T15:34:42Z</time></trkpt><trkpt lat="39.43109117585539" lon="9.55608214997638"><ele>9.0</ele><time>2026-03-28T15:34:43Z</time></trkpt><trkpt lat="39.43123621149377" lon="9.555864977753727"><ele>9.666666666666666</ele><time>2026-03-28T15:34:44Z</time></trkpt><trkpt lat="39.43138121037675" lon="9.555650312595388"><ele>10.333333333333332</ele><time>2026-03-28T15:34:45Z</time></trkpt><trkpt lat="39.43152443590634" lon="9.555434793082126"><ele>11.0</ele><time>2026-03-28T15:34:46Z</time></trkpt><trkpt lat="39.431665504551816" lon="9.555220436868943"><ele>11.333333333333332</ele><time>2026-03-28T15:34:47Z</time></trkpt><trkpt lat="39.431803179898225" lon="9.555012090152456"><ele>11.666666666666666</ele><time>2026-03-28T15:34:48Z</time></trkpt><trkpt lat="39.4319416014852" lon="9.554811914569257"><ele>12.0</ele><time>2026-03-28T15:34:49Z</time></trkpt><trkpt lat="39.432086686251004" lon="9.55461765788088"><ele>12.0</ele><time>2026-03-28T15:34:50Z</time></trkpt><trkpt lat="39.432235237095895" lon="9.554429641405704"><ele>12.0</ele><time>2026-03-28T15:34:51Z</time></trkpt><trkpt lat="39.43238572981577" lon="9.554244272062265"><ele>12.0</ele><time>2026-03-28T15:34:52Z</time></trkpt><trkpt lat="39.43253279392347" lon="9.554062579982427"><ele>12.0</ele><time>2026-03-28T15:34:53Z</time></trkpt><trkpt lat="39.43267834356314" lon="9.553882786448687"><ele>12.0</ele><time>2026-03-28T15:34:54Z</time></trkpt><trkpt lat="39.43281782042729" lon="9.55370684548017"><ele>12.0</ele><time>2026-03-28T15:34:55Z</time></trkpt><trkpt lat="39.432959091978724" lon="9.553528432439784"><ele>12.0</ele><time>2026-03-28T15:34:56Z</time></trkpt><trkpt lat="39.4330980525809" lon="9.55335674388917"><ele>12.0</ele><time>2026-03-28T15:34:57Z</time></trkpt><trkpt lat="39.43323421610566" lon="9.553187693513117"><ele>12.0</ele><time>2026-03-28T15:34:58Z</time></trkpt><trkpt lat="39.43336761198755" lon="9.553021959384699"><ele>12.666666666666668</ele><time>2026-03-28T15:34:59Z</time></trkpt><trkpt lat="39.433502329267974" lon="9.552856460458122"><ele>13.333333333333334</ele><time>2026-03-28T15:35:00Z</time></trkpt><trkpt lat="39.43363349511481" lon="9.55269431331236"><ele>14.0</ele><time>2026-03-28T15:35:01Z</time></trkpt><trkpt lat="39.43376434726472" lon="9.552535267775871"><ele>13.666666666666668</ele><time>2026-03-28T15:35:02Z</time></trkpt><trkpt lat="39.433891826817685" lon="9.552379818925555"><ele>13.333333333333332</ele><time>2026-03-28T15:35:03Z</time></trkpt><trkpt lat="39.43401936239559" lon="9.552225002818167"><ele>13.0</ele><time>2026-03-28T15:35:04Z</time></trkpt><trkpt lat="39.43414448314837" lon="9.552073497178483"><ele>13.0</ele><time>2026-03-28T15:35:05Z</time></trkpt><trkpt lat="39.43426766308351" lon="9.551922865734172"><ele>13.0</ele><time>2026-03-28T15:35:06Z</time></trkpt><trkpt lat="39.434388927699686" lon="9.551777096253423"><ele>13.0</ele><time>2026-03-28T15:35:07Z</time></trkpt><trkpt lat="39.434509583052176" lon="9.55164204986311"><ele>13.0</ele><time>2026-03-28T15:35:08Z</time></trkpt><trkpt lat="39.4346235122476" lon="9.551517045653396"><ele>13.0</ele><time>2026-03-28T15:35:09Z</time></trkpt><trkpt lat="39.43472597326258" lon="9.5514005096127"><ele>13.0</ele><time>2026-03-28T15:35:10Z</time></trkpt><trkpt lat="39.434817040378256" lon="9.551292708848255"><ele>13.0</ele><time>2026-03-28T15:35:11Z</time></trkpt><trkpt lat="39.43490770529165" lon="9.551187391871741"><ele>12.75</ele><time>2026-03-28T15:35:12Z</time></trkpt><trkpt lat="39.43500018006787" lon="9.551079203235457"><ele>12.5</ele><time>2026-03-28T15:35:13Z</time></trkpt><trkpt lat="39.4350936568369" lon="9.550951513785252"><ele>12.25</ele><time>2026-03-28T15:35:14Z</time></trkpt><trkpt lat="39.43517740163742" lon="9.550803122992853"><ele>12.0</ele><time>2026-03-28T15:35:15Z</time></trkpt><trkpt lat="39.43527212517997" lon="9.55064767454246"><ele>12.0</ele><time>2026-03-28T15:35:16Z</time></trkpt><trkpt lat="39.43532444795208" lon="9.550439509569648"><ele>12.0</ele><time>2026-03-28T15:35:17Z</time></trkpt><trkpt lat="39.435378308297814" lon="9.550237641832645"><ele>12.0</ele><time>2026-03-28T15:35:18Z</time></trkpt><trkpt lat="39.435431570426104" lon="9.549995300518932"><ele>11.666666666666666</ele><time>2026-03-28T15:35:19Z</time></trkpt><trkpt lat="39.43548042490657" lon="9.549759651894826"><ele>11.333333333333332</ele><time>2026-03-28T15:35:20Z</time></trkpt><trkpt lat="39.43553536801725" lon="9.549519159907547"><ele>11.0</ele><time>2026-03-28T15:35:21Z</time></trkpt><trkpt lat="39.43559254133452" lon="9.54927776418776"><ele>11.0</ele><time>2026-03-28T15:35:22Z</time></trkpt><trkpt lat="39.43564842883395" lon="9.549032893819524"><ele>11.0</ele><time>2026-03-28T15:35:23Z</time></trkpt><trkpt lat="39.43570177540599" lon="9.548786055836963"><ele>11.0</ele><time>2026-03-28T15:35:24Z</time></trkpt><trkpt lat="39.43575518964462" lon="9.54853894768044"><ele>11.333333333333332</ele><time>2026-03-28T15:35:25Z</time></trkpt><trkpt lat="39.43581000410637" lon="9.548292724554907"><ele>11.666666666666666</ele><time>2026-03-28T15:35:26Z</time></trkpt><trkpt lat="39.43586500780558" lon="9.548047870531816"><ele>12.0</ele><time>2026-03-28T15:35:27Z</time></trkpt><trkpt lat="39.435917914013245" lon="9.547816058869481"><ele>12.0</ele><time>2026-03-28T15:35:28Z</time></trkpt><trkpt lat="39.43596859978634" lon="9.547589376979188"><ele>12.0</ele><time>2026-03-28T15:35:29Z</time></trkpt><trkpt lat="39.43601585048837" lon="9.547369510653054"><ele>12.0</ele><time>2026-03-28T15:35:30Z</time></trkpt><trkpt lat="39.43606494072463" lon="9.547146412640323"><ele>11.666666666666666</ele><time>2026-03-28T15:35:31Z</time></trkpt><trkpt lat="39.43611355229844" lon="9.546930093925246"><ele>11.333333333333332</ele><time>2026-03-28T15:35:32Z</time></trkpt><trkpt lat="39.43616094556701" lon="9.546718955468911"><ele>11.0</ele><time>2026-03-28T15:35:33Z</time></trkpt><trkpt lat="39.43620493818246" lon="9.54652160404659"><ele>11.0</ele><time>2026-03-28T15:35:34Z</time></trkpt><trkpt lat="39.43624980820393" lon="9.546328444971786"><ele>11.0</ele><time>2026-03-28T15:35:35Z</time></trkpt><trkpt lat="39.4362891056925" lon="9.54615023529876"><ele>11.0</ele><time>2026-03-28T15:35:36Z</time></trkpt><trkpt lat="39.43632640328256" lon="9.545979961697904"><ele>11.0</ele><time>2026-03-28T15:35:37Z</time></trkpt><trkpt lat="39.43636132831279" lon="9.545818593237348"><ele>11.25</ele><time>2026-03-28T15:35:38Z</time></trkpt><trkpt lat="39.43639671923679" lon="9.545658190831338"><ele>11.5</ele><time>2026-03-28T15:35:39Z</time></trkpt><trkpt lat="39.43643210909059" lon="9.54549550894763"><ele>11.75</ele><time>2026-03-28T15:35:40Z</time></trkpt><trkpt lat="39.436467880006525" lon="9.545330432736476"><ele>12.0</ele><time>2026-03-28T15:35:41Z</time></trkpt><trkpt lat="39.436499535131006" lon="9.545165117402526"><ele>12.25</ele><time>2026-03-28T15:35:42Z</time></trkpt><trkpt lat="39.436528056156284" lon="9.545002623501254"><ele>12.5</ele><time>2026-03-28T15:35:43Z</time></trkpt><trkpt lat="39.43654691340904" lon="9.544838377145963"><ele>12.75</ele><time>2026-03-28T15:35:44Z</time></trkpt><trkpt lat="39.43656177559665" lon="9.544666004538945"><ele>13.0</ele><time>2026-03-28T15:35:45Z</time></trkpt><trkpt lat="39.43657528750495" lon="9.544489279687875"><ele>13.0</ele><time>2026-03-28T15:35:46Z</time></trkpt><trkpt lat="39.43659053639701" lon="9.544323100926746"><ele>13.0</ele><time>2026-03-28T15:35:47Z</time></trkpt><trkpt lat="39.4366073204234" lon="9.544169136306557"><ele>13.0</ele><time>2026-03-28T15:35:48Z</time></trkpt><trkpt lat="39.436621650385845" lon="9.54404519384708"><ele>13.0</ele><time>2026-03-28T15:35:49Z</time></trkpt><trkpt lat="39.43662888558622" lon="9.543943561657292"><ele>13.0</ele><time>2026-03-28T15:35:50Z</time></trkpt><trkpt lat="39.436596164736024" lon="9.543818883799608"><ele>12.999999999999998</ele><time>2026-03-28T15:35:52Z</time></trkpt><trkpt lat="39.43649288970609" lon="9.543790971508797"><ele>13.0</ele><time>2026-03-28T15:35:54Z</time></trkpt><trkpt lat="39.43642183131906" lon="9.543802292303054"><ele>13.0</ele><time>2026-03-28T15:35:55Z</time></trkpt><trkpt lat="39.43634191756961" lon="9.543793033837757"><ele>13.0</ele><time>2026-03-28T15:35:56Z</time></trkpt><trkpt lat="39.43624942128219" lon="9.543782564593046"><ele>12.999999999999998</ele><time>2026-03-28T15:35:57Z</time></trkpt><trkpt lat="39.43615126086795" lon="9.543769619582676"><ele>13.0</ele><time>2026-03-28T15:35:58Z</time></trkpt><trkpt lat="39.43604548845792" lon="9.543747278152852"><ele>13.333333333333332</ele><time>2026-03-28T15:35:59Z</time></trkpt><trkpt lat="39.4359439496781" lon="9.543715488322453"><ele>13.666666666666666</ele><time>2026-03-28T15:36:00Z</time></trkpt><trkpt lat="39.43584511779047" lon="9.543685186191048"><ele>14.0</ele><time>2026-03-28T15:36:01Z</time></trkpt><trkpt lat="39.43575678347397" lon="9.543666646655689"><ele>14.333333333333332</ele><time>2026-03-28T15:36:02Z</time></trkpt><trkpt lat="39.43567700010907" lon="9.543652609526614"><ele>14.666666666666666</ele><time>2026-03-28T15:36:03Z</time></trkpt><trkpt lat="39.435607702764706" lon="9.543642805862252"><ele>15.0</ele><time>2026-03-28T15:36:04Z</time></trkpt><trkpt lat="39.435525014144226" lon="9.543649786314571"><ele>15.0</ele><time>2026-03-28T15:36:06Z</time></trkpt><trkpt lat="39.43547394977236" lon="9.543878648296383"><ele>15.0</ele><time>2026-03-28T15:36:08Z</time></trkpt><trkpt lat="39.4354657975676" lon="9.543969618039105"><ele>15.0</ele><time>2026-03-28T15:36:09Z</time></trkpt><trkpt lat="39.43545505985555" lon="9.544059089610132"><ele>15.0</ele><time>2026-03-28T15:36:10Z</time></trkpt><trkpt lat="39.43544325752975" lon="9.54415844529821"><ele>15.0</ele><time>2026-03-28T15:36:11Z</time></trkpt><trkpt lat="39.435429072029926" lon="9.544257667631335"><ele>19.0</ele><time>2026-03-28T15:36:12Z</time></trkpt><trkpt lat="39.43541525228565" lon="9.544342903737906"><ele>19.0</ele><time>2026-03-28T15:36:13Z</time></trkpt><trkpt lat="39.435394373612525" lon="9.544484801177958"><ele>19.0</ele><time>2026-03-28T15:36:15Z</time></trkpt><trkpt lat="39.4353776404503" lon="9.544575013401586"><ele>13.0</ele><time>2026-03-28T15:36:17Z</time></trkpt></trkseg></trk></gpx>